<?xml version="1.0" encoding="UTF-8" standalone="no" ?>
<gpx xmlns="http://www.topografix.com/GPX/1/1" xmlns:xsi="http://www.w3.org/2001/XMLSchema-instance" xsi:schemaLocation="http://www.topografix.com/GPX/1/1 http://www.topografix.com/GPX/1/1/gpx.xsd" version="1.1" creator="VisuGPX - https://www.visugpx.com">
  <metadata>
    <name>J1 Voie Bleue : Lyon-Tournus</name>
    <desc><![CDATA[Voie Bleue réalisée dans le sens Sud (Lyon) Nord (Apach)

Pour l'itinéraire complet, suivre le [url=https://www.visugpx.com/membres/33867/voie-bleue/]dossier suivant[/url].]]></desc>
  </metadata>
  <trk>
    <name><![CDATA[Vélo sur route, 2026-05-13]]></name>
    <trkseg>
      <trkpt lat="45.77863" lon="4.80818">
        <ele>161.7002</ele>
        <time>2026-05-13T09:54:47+02:00</time>
      </trkpt>
      <trkpt lat="45.77863" lon="4.80818">
        <ele>161.7002</ele>
        <time>2026-05-13T09:54:48+02:00</time>
      </trkpt>
      <trkpt lat="45.77877" lon="4.80819">
        <ele>161.60059</ele>
        <time>2026-05-13T09:55:27+02:00</time>
      </trkpt>
      <trkpt lat="45.77881" lon="4.80821">
        <ele>161.60059</ele>
        <time>2026-05-13T09:55:28+02:00</time>
      </trkpt>
      <trkpt lat="45.77884" lon="4.80823">
        <ele>161.60059</ele>
        <time>2026-05-13T09:55:29+02:00</time>
      </trkpt>
      <trkpt lat="45.77888" lon="4.80825">
        <ele>161.40039</ele>
        <time>2026-05-13T09:55:30+02:00</time>
      </trkpt>
      <trkpt lat="45.77891" lon="4.80827">
        <ele>161.2998</ele>
        <time>2026-05-13T09:55:31+02:00</time>
      </trkpt>
      <trkpt lat="45.77895" lon="4.80829">
        <ele>161.2998</ele>
        <time>2026-05-13T09:55:32+02:00</time>
      </trkpt>
      <trkpt lat="45.77899" lon="4.80831">
        <ele>161.2002</ele>
        <time>2026-05-13T09:55:33+02:00</time>
      </trkpt>
      <trkpt lat="45.77902" lon="4.80833">
        <ele>161.5</ele>
        <time>2026-05-13T09:55:34+02:00</time>
      </trkpt>
      <trkpt lat="45.77906" lon="4.80835">
        <ele>161.5</ele>
        <time>2026-05-13T09:55:35+02:00</time>
      </trkpt>
      <trkpt lat="45.7791" lon="4.80837">
        <ele>161.5</ele>
        <time>2026-05-13T09:55:36+02:00</time>
      </trkpt>
      <trkpt lat="45.77913" lon="4.80839">
        <ele>161.5</ele>
        <time>2026-05-13T09:55:37+02:00</time>
      </trkpt>
      <trkpt lat="45.77915" lon="4.8084">
        <ele>161.7002</ele>
        <time>2026-05-13T09:55:38+02:00</time>
      </trkpt>
      <trkpt lat="45.77918" lon="4.80839">
        <ele>161.7002</ele>
        <time>2026-05-13T09:55:39+02:00</time>
      </trkpt>
      <trkpt lat="45.7792" lon="4.80839">
        <ele>161.90039</ele>
        <time>2026-05-13T09:55:40+02:00</time>
      </trkpt>
      <trkpt lat="45.77923" lon="4.80841">
        <ele>161.7002</ele>
        <time>2026-05-13T09:55:41+02:00</time>
      </trkpt>
      <trkpt lat="45.77925" lon="4.80843">
        <ele>161.7002</ele>
        <time>2026-05-13T09:55:42+02:00</time>
      </trkpt>
      <trkpt lat="45.77929" lon="4.80845">
        <ele>161.7002</ele>
        <time>2026-05-13T09:55:43+02:00</time>
      </trkpt>
      <trkpt lat="45.77932" lon="4.80848">
        <ele>161.7002</ele>
        <time>2026-05-13T09:55:44+02:00</time>
      </trkpt>
      <trkpt lat="45.77936" lon="4.8085">
        <ele>161.40039</ele>
        <time>2026-05-13T09:55:45+02:00</time>
      </trkpt>
      <trkpt lat="45.7794" lon="4.80853">
        <ele>161.2998</ele>
        <time>2026-05-13T09:55:46+02:00</time>
      </trkpt>
      <trkpt lat="45.77944" lon="4.80855">
        <ele>161.2002</ele>
        <time>2026-05-13T09:55:47+02:00</time>
      </trkpt>
      <trkpt lat="45.77947" lon="4.80857">
        <ele>161.2002</ele>
        <time>2026-05-13T09:55:48+02:00</time>
      </trkpt>
      <trkpt lat="45.77949" lon="4.80859">
        <ele>161.40039</ele>
        <time>2026-05-13T09:55:49+02:00</time>
      </trkpt>
      <trkpt lat="45.77953" lon="4.80861">
        <ele>161.40039</ele>
        <time>2026-05-13T09:55:50+02:00</time>
      </trkpt>
      <trkpt lat="45.77956" lon="4.80863">
        <ele>161.5</ele>
        <time>2026-05-13T09:55:51+02:00</time>
      </trkpt>
      <trkpt lat="45.77959" lon="4.80865">
        <ele>161.5</ele>
        <time>2026-05-13T09:55:52+02:00</time>
      </trkpt>
      <trkpt lat="45.77962" lon="4.80867">
        <ele>161.7002</ele>
        <time>2026-05-13T09:55:53+02:00</time>
      </trkpt>
      <trkpt lat="45.77966" lon="4.80869">
        <ele>161.7002</ele>
        <time>2026-05-13T09:55:54+02:00</time>
      </trkpt>
      <trkpt lat="45.77969" lon="4.80871">
        <ele>161.7998</ele>
        <time>2026-05-13T09:55:55+02:00</time>
      </trkpt>
      <trkpt lat="45.77972" lon="4.80873">
        <ele>161.7998</ele>
        <time>2026-05-13T09:55:56+02:00</time>
      </trkpt>
      <trkpt lat="45.77976" lon="4.80876">
        <ele>161.5</ele>
        <time>2026-05-13T09:55:57+02:00</time>
      </trkpt>
      <trkpt lat="45.77979" lon="4.80878">
        <ele>161.5</ele>
        <time>2026-05-13T09:55:58+02:00</time>
      </trkpt>
      <trkpt lat="45.77984" lon="4.8088">
        <ele>161.40039</ele>
        <time>2026-05-13T09:55:59+02:00</time>
      </trkpt>
      <trkpt lat="45.77987" lon="4.80883">
        <ele>161.2998</ele>
        <time>2026-05-13T09:56:00+02:00</time>
      </trkpt>
      <trkpt lat="45.77991" lon="4.80884">
        <ele>161.40039</ele>
        <time>2026-05-13T09:56:01+02:00</time>
      </trkpt>
      <trkpt lat="45.77995" lon="4.80887">
        <ele>161.2998</ele>
        <time>2026-05-13T09:56:02+02:00</time>
      </trkpt>
      <trkpt lat="45.77999" lon="4.80889">
        <ele>161.40039</ele>
        <time>2026-05-13T09:56:03+02:00</time>
      </trkpt>
      <trkpt lat="45.78003" lon="4.80891">
        <ele>161.40039</ele>
        <time>2026-05-13T09:56:04+02:00</time>
      </trkpt>
      <trkpt lat="45.78007" lon="4.80893">
        <ele>161.7002</ele>
        <time>2026-05-13T09:56:05+02:00</time>
      </trkpt>
      <trkpt lat="45.7801" lon="4.80895">
        <ele>161.7002</ele>
        <time>2026-05-13T09:56:06+02:00</time>
      </trkpt>
      <trkpt lat="45.78014" lon="4.80897">
        <ele>161.7002</ele>
        <time>2026-05-13T09:56:07+02:00</time>
      </trkpt>
      <trkpt lat="45.78017" lon="4.80899">
        <ele>161.7998</ele>
        <time>2026-05-13T09:56:08+02:00</time>
      </trkpt>
      <trkpt lat="45.7802" lon="4.80901">
        <ele>161.60059</ele>
        <time>2026-05-13T09:56:09+02:00</time>
      </trkpt>
      <trkpt lat="45.78023" lon="4.80902">
        <ele>161.60059</ele>
        <time>2026-05-13T09:56:10+02:00</time>
      </trkpt>
      <trkpt lat="45.78026" lon="4.80904">
        <ele>161.60059</ele>
        <time>2026-05-13T09:56:11+02:00</time>
      </trkpt>
      <trkpt lat="45.78028" lon="4.80905">
        <ele>161.5</ele>
        <time>2026-05-13T09:56:12+02:00</time>
      </trkpt>
      <trkpt lat="45.7803" lon="4.80907">
        <ele>161.5</ele>
        <time>2026-05-13T09:56:13+02:00</time>
      </trkpt>
      <trkpt lat="45.78031" lon="4.80908">
        <ele>161.5</ele>
        <time>2026-05-13T09:56:14+02:00</time>
      </trkpt>
      <trkpt lat="45.78033" lon="4.80909">
        <ele>161.5</ele>
        <time>2026-05-13T09:56:15+02:00</time>
      </trkpt>
      <trkpt lat="45.78034" lon="4.8091">
        <ele>161.40039</ele>
        <time>2026-05-13T09:56:16+02:00</time>
      </trkpt>
      <trkpt lat="45.78035" lon="4.80911">
        <ele>161.40039</ele>
        <time>2026-05-13T09:56:17+02:00</time>
      </trkpt>
      <trkpt lat="45.78035" lon="4.80911">
        <ele>161.40039</ele>
        <time>2026-05-13T09:56:18+02:00</time>
      </trkpt>
      <trkpt lat="45.78035" lon="4.80911">
        <ele>161.40039</ele>
        <time>2026-05-13T09:56:19+02:00</time>
      </trkpt>
      <trkpt lat="45.78035" lon="4.80911">
        <ele>161.40039</ele>
        <time>2026-05-13T09:56:20+02:00</time>
      </trkpt>
      <trkpt lat="45.78035" lon="4.80911">
        <ele>161.40039</ele>
        <time>2026-05-13T09:56:21+02:00</time>
      </trkpt>
      <trkpt lat="45.78048" lon="4.80923">
        <ele>161.60059</ele>
        <time>2026-05-13T09:56:55+02:00</time>
      </trkpt>
      <trkpt lat="45.78051" lon="4.80925">
        <ele>161.60059</ele>
        <time>2026-05-13T09:56:56+02:00</time>
      </trkpt>
      <trkpt lat="45.78054" lon="4.80928">
        <ele>161.7002</ele>
        <time>2026-05-13T09:56:57+02:00</time>
      </trkpt>
      <trkpt lat="45.78058" lon="4.8093">
        <ele>161.60059</ele>
        <time>2026-05-13T09:56:58+02:00</time>
      </trkpt>
      <trkpt lat="45.78061" lon="4.80933">
        <ele>161.60059</ele>
        <time>2026-05-13T09:56:59+02:00</time>
      </trkpt>
      <trkpt lat="45.78065" lon="4.80936">
        <ele>161.5</ele>
        <time>2026-05-13T09:57:00+02:00</time>
      </trkpt>
      <trkpt lat="45.7807" lon="4.80939">
        <ele>161.5</ele>
        <time>2026-05-13T09:57:01+02:00</time>
      </trkpt>
      <trkpt lat="45.78074" lon="4.80942">
        <ele>161.5</ele>
        <time>2026-05-13T09:57:02+02:00</time>
      </trkpt>
      <trkpt lat="45.78079" lon="4.80945">
        <ele>161.7002</ele>
        <time>2026-05-13T09:57:03+02:00</time>
      </trkpt>
      <trkpt lat="45.78084" lon="4.80949">
        <ele>161.7998</ele>
        <time>2026-05-13T09:57:04+02:00</time>
      </trkpt>
      <trkpt lat="45.78088" lon="4.80953">
        <ele>161.7002</ele>
        <time>2026-05-13T09:57:05+02:00</time>
      </trkpt>
      <trkpt lat="45.78093" lon="4.80956">
        <ele>161.7002</ele>
        <time>2026-05-13T09:57:06+02:00</time>
      </trkpt>
      <trkpt lat="45.78097" lon="4.80961">
        <ele>161.60059</ele>
        <time>2026-05-13T09:57:07+02:00</time>
      </trkpt>
      <trkpt lat="45.78102" lon="4.80965">
        <ele>161.5</ele>
        <time>2026-05-13T09:57:08+02:00</time>
      </trkpt>
      <trkpt lat="45.78107" lon="4.80969">
        <ele>161.40039</ele>
        <time>2026-05-13T09:57:09+02:00</time>
      </trkpt>
      <trkpt lat="45.78112" lon="4.80973">
        <ele>161.5</ele>
        <time>2026-05-13T09:57:10+02:00</time>
      </trkpt>
      <trkpt lat="45.78116" lon="4.80976">
        <ele>161.5</ele>
        <time>2026-05-13T09:57:11+02:00</time>
      </trkpt>
      <trkpt lat="45.78121" lon="4.8098">
        <ele>161.7002</ele>
        <time>2026-05-13T09:57:12+02:00</time>
      </trkpt>
      <trkpt lat="45.78126" lon="4.80984">
        <ele>161.7002</ele>
        <time>2026-05-13T09:57:13+02:00</time>
      </trkpt>
      <trkpt lat="45.7813" lon="4.80988">
        <ele>161.7002</ele>
        <time>2026-05-13T09:57:14+02:00</time>
      </trkpt>
      <trkpt lat="45.78135" lon="4.80991">
        <ele>161.7002</ele>
        <time>2026-05-13T09:57:15+02:00</time>
      </trkpt>
      <trkpt lat="45.78139" lon="4.80995">
        <ele>161.60059</ele>
        <time>2026-05-13T09:57:16+02:00</time>
      </trkpt>
      <trkpt lat="45.78144" lon="4.80999">
        <ele>161.60059</ele>
        <time>2026-05-13T09:57:17+02:00</time>
      </trkpt>
      <trkpt lat="45.78148" lon="4.81002">
        <ele>161.5</ele>
        <time>2026-05-13T09:57:18+02:00</time>
      </trkpt>
      <trkpt lat="45.78153" lon="4.81006">
        <ele>161.7002</ele>
        <time>2026-05-13T09:57:19+02:00</time>
      </trkpt>
      <trkpt lat="45.78158" lon="4.8101">
        <ele>161.7002</ele>
        <time>2026-05-13T09:57:20+02:00</time>
      </trkpt>
      <trkpt lat="45.78162" lon="4.81013">
        <ele>161.7002</ele>
        <time>2026-05-13T09:57:21+02:00</time>
      </trkpt>
      <trkpt lat="45.78167" lon="4.81017">
        <ele>161.7002</ele>
        <time>2026-05-13T09:57:22+02:00</time>
      </trkpt>
      <trkpt lat="45.78171" lon="4.8102">
        <ele>161.7002</ele>
        <time>2026-05-13T09:57:23+02:00</time>
      </trkpt>
      <trkpt lat="45.78176" lon="4.81024">
        <ele>161.7002</ele>
        <time>2026-05-13T09:57:24+02:00</time>
      </trkpt>
      <trkpt lat="45.7818" lon="4.81027">
        <ele>161.7002</ele>
        <time>2026-05-13T09:57:25+02:00</time>
      </trkpt>
      <trkpt lat="45.78185" lon="4.81031">
        <ele>161.7002</ele>
        <time>2026-05-13T09:57:26+02:00</time>
      </trkpt>
      <trkpt lat="45.78189" lon="4.81034">
        <ele>161.7002</ele>
        <time>2026-05-13T09:57:27+02:00</time>
      </trkpt>
      <trkpt lat="45.78193" lon="4.81038">
        <ele>161.7002</ele>
        <time>2026-05-13T09:57:28+02:00</time>
      </trkpt>
      <trkpt lat="45.78197" lon="4.81041">
        <ele>161.7002</ele>
        <time>2026-05-13T09:57:29+02:00</time>
      </trkpt>
      <trkpt lat="45.78201" lon="4.81045">
        <ele>161.7002</ele>
        <time>2026-05-13T09:57:30+02:00</time>
      </trkpt>
      <trkpt lat="45.78206" lon="4.81048">
        <ele>161.7998</ele>
        <time>2026-05-13T09:57:31+02:00</time>
      </trkpt>
      <trkpt lat="45.78211" lon="4.81052">
        <ele>161.7002</ele>
        <time>2026-05-13T09:57:32+02:00</time>
      </trkpt>
      <trkpt lat="45.78215" lon="4.81056">
        <ele>161.7002</ele>
        <time>2026-05-13T09:57:33+02:00</time>
      </trkpt>
      <trkpt lat="45.78219" lon="4.8106">
        <ele>161.7002</ele>
        <time>2026-05-13T09:57:34+02:00</time>
      </trkpt>
      <trkpt lat="45.78224" lon="4.81063">
        <ele>161.60059</ele>
        <time>2026-05-13T09:57:35+02:00</time>
      </trkpt>
      <trkpt lat="45.78229" lon="4.81067">
        <ele>161.7002</ele>
        <time>2026-05-13T09:57:36+02:00</time>
      </trkpt>
      <trkpt lat="45.78233" lon="4.81071">
        <ele>161.7002</ele>
        <time>2026-05-13T09:57:37+02:00</time>
      </trkpt>
      <trkpt lat="45.78238" lon="4.81074">
        <ele>161.7002</ele>
        <time>2026-05-13T09:57:38+02:00</time>
      </trkpt>
      <trkpt lat="45.78242" lon="4.81078">
        <ele>161.7002</ele>
        <time>2026-05-13T09:57:39+02:00</time>
      </trkpt>
      <trkpt lat="45.78246" lon="4.81082">
        <ele>161.60059</ele>
        <time>2026-05-13T09:57:40+02:00</time>
      </trkpt>
      <trkpt lat="45.7825" lon="4.81086">
        <ele>161.5</ele>
        <time>2026-05-13T09:57:41+02:00</time>
      </trkpt>
      <trkpt lat="45.78254" lon="4.81089">
        <ele>161.5</ele>
        <time>2026-05-13T09:57:42+02:00</time>
      </trkpt>
      <trkpt lat="45.78257" lon="4.81093">
        <ele>161.60059</ele>
        <time>2026-05-13T09:57:43+02:00</time>
      </trkpt>
      <trkpt lat="45.78259" lon="4.81099">
        <ele>161.7002</ele>
        <time>2026-05-13T09:57:44+02:00</time>
      </trkpt>
      <trkpt lat="45.78262" lon="4.81104">
        <ele>161.7002</ele>
        <time>2026-05-13T09:57:45+02:00</time>
      </trkpt>
      <trkpt lat="45.78265" lon="4.81108">
        <ele>161.7002</ele>
        <time>2026-05-13T09:57:46+02:00</time>
      </trkpt>
      <trkpt lat="45.78269" lon="4.81111">
        <ele>161.7002</ele>
        <time>2026-05-13T09:57:47+02:00</time>
      </trkpt>
      <trkpt lat="45.78274" lon="4.81114">
        <ele>161.60059</ele>
        <time>2026-05-13T09:57:48+02:00</time>
      </trkpt>
      <trkpt lat="45.78278" lon="4.81118">
        <ele>161.7002</ele>
        <time>2026-05-13T09:57:49+02:00</time>
      </trkpt>
      <trkpt lat="45.78283" lon="4.81121">
        <ele>161.60059</ele>
        <time>2026-05-13T09:57:50+02:00</time>
      </trkpt>
      <trkpt lat="45.78287" lon="4.81125">
        <ele>161.7002</ele>
        <time>2026-05-13T09:57:51+02:00</time>
      </trkpt>
      <trkpt lat="45.78292" lon="4.81127">
        <ele>161.7002</ele>
        <time>2026-05-13T09:57:52+02:00</time>
      </trkpt>
      <trkpt lat="45.78297" lon="4.81128">
        <ele>161.7002</ele>
        <time>2026-05-13T09:57:53+02:00</time>
      </trkpt>
      <trkpt lat="45.78302" lon="4.81129">
        <ele>161.7002</ele>
        <time>2026-05-13T09:57:54+02:00</time>
      </trkpt>
      <trkpt lat="45.78307" lon="4.81132">
        <ele>161.7002</ele>
        <time>2026-05-13T09:57:55+02:00</time>
      </trkpt>
      <trkpt lat="45.78312" lon="4.81136">
        <ele>161.7002</ele>
        <time>2026-05-13T09:57:56+02:00</time>
      </trkpt>
      <trkpt lat="45.78316" lon="4.8114">
        <ele>161.7002</ele>
        <time>2026-05-13T09:57:57+02:00</time>
      </trkpt>
      <trkpt lat="45.78321" lon="4.81144">
        <ele>161.60059</ele>
        <time>2026-05-13T09:57:58+02:00</time>
      </trkpt>
      <trkpt lat="45.78325" lon="4.81147">
        <ele>161.60059</ele>
        <time>2026-05-13T09:57:59+02:00</time>
      </trkpt>
      <trkpt lat="45.7833" lon="4.81151">
        <ele>161.7002</ele>
        <time>2026-05-13T09:58:00+02:00</time>
      </trkpt>
      <trkpt lat="45.78335" lon="4.81155">
        <ele>161.7002</ele>
        <time>2026-05-13T09:58:01+02:00</time>
      </trkpt>
      <trkpt lat="45.78339" lon="4.81158">
        <ele>161.7002</ele>
        <time>2026-05-13T09:58:02+02:00</time>
      </trkpt>
      <trkpt lat="45.78343" lon="4.81162">
        <ele>161.7998</ele>
        <time>2026-05-13T09:58:03+02:00</time>
      </trkpt>
      <trkpt lat="45.78348" lon="4.81166">
        <ele>161.7998</ele>
        <time>2026-05-13T09:58:04+02:00</time>
      </trkpt>
      <trkpt lat="45.78352" lon="4.81169">
        <ele>161.7002</ele>
        <time>2026-05-13T09:58:05+02:00</time>
      </trkpt>
      <trkpt lat="45.78358" lon="4.81173">
        <ele>161.7002</ele>
        <time>2026-05-13T09:58:06+02:00</time>
      </trkpt>
      <trkpt lat="45.78363" lon="4.81178">
        <ele>161.60059</ele>
        <time>2026-05-13T09:58:07+02:00</time>
      </trkpt>
      <trkpt lat="45.78368" lon="4.81181">
        <ele>161.60059</ele>
        <time>2026-05-13T09:58:08+02:00</time>
      </trkpt>
      <trkpt lat="45.78373" lon="4.81185">
        <ele>161.7002</ele>
        <time>2026-05-13T09:58:09+02:00</time>
      </trkpt>
      <trkpt lat="45.78378" lon="4.81188">
        <ele>161.7002</ele>
        <time>2026-05-13T09:58:10+02:00</time>
      </trkpt>
      <trkpt lat="45.78382" lon="4.81192">
        <ele>161.7002</ele>
        <time>2026-05-13T09:58:11+02:00</time>
      </trkpt>
      <trkpt lat="45.78387" lon="4.81196">
        <ele>161.60059</ele>
        <time>2026-05-13T09:58:12+02:00</time>
      </trkpt>
      <trkpt lat="45.78392" lon="4.81199">
        <ele>161.60059</ele>
        <time>2026-05-13T09:58:13+02:00</time>
      </trkpt>
      <trkpt lat="45.78398" lon="4.81204">
        <ele>161.60059</ele>
        <time>2026-05-13T09:58:14+02:00</time>
      </trkpt>
      <trkpt lat="45.78402" lon="4.81209">
        <ele>161.60059</ele>
        <time>2026-05-13T09:58:15+02:00</time>
      </trkpt>
      <trkpt lat="45.78408" lon="4.81214">
        <ele>161.7002</ele>
        <time>2026-05-13T09:58:16+02:00</time>
      </trkpt>
      <trkpt lat="45.78413" lon="4.81218">
        <ele>161.7002</ele>
        <time>2026-05-13T09:58:17+02:00</time>
      </trkpt>
      <trkpt lat="45.78418" lon="4.81222">
        <ele>161.7998</ele>
        <time>2026-05-13T09:58:18+02:00</time>
      </trkpt>
      <trkpt lat="45.78423" lon="4.81227">
        <ele>161.7002</ele>
        <time>2026-05-13T09:58:19+02:00</time>
      </trkpt>
      <trkpt lat="45.78428" lon="4.81231">
        <ele>161.7002</ele>
        <time>2026-05-13T09:58:20+02:00</time>
      </trkpt>
      <trkpt lat="45.78433" lon="4.81235">
        <ele>161.60059</ele>
        <time>2026-05-13T09:58:21+02:00</time>
      </trkpt>
      <trkpt lat="45.78438" lon="4.81239">
        <ele>161.7002</ele>
        <time>2026-05-13T09:58:22+02:00</time>
      </trkpt>
      <trkpt lat="45.78444" lon="4.81243">
        <ele>161.7002</ele>
        <time>2026-05-13T09:58:23+02:00</time>
      </trkpt>
      <trkpt lat="45.78449" lon="4.81248">
        <ele>161.7002</ele>
        <time>2026-05-13T09:58:24+02:00</time>
      </trkpt>
      <trkpt lat="45.78454" lon="4.81252">
        <ele>161.60059</ele>
        <time>2026-05-13T09:58:25+02:00</time>
      </trkpt>
      <trkpt lat="45.78459" lon="4.81256">
        <ele>161.5</ele>
        <time>2026-05-13T09:58:26+02:00</time>
      </trkpt>
      <trkpt lat="45.78463" lon="4.8126">
        <ele>161.5</ele>
        <time>2026-05-13T09:58:27+02:00</time>
      </trkpt>
      <trkpt lat="45.78468" lon="4.81264">
        <ele>161.60059</ele>
        <time>2026-05-13T09:58:28+02:00</time>
      </trkpt>
      <trkpt lat="45.78472" lon="4.81268">
        <ele>161.7002</ele>
        <time>2026-05-13T09:58:29+02:00</time>
      </trkpt>
      <trkpt lat="45.78477" lon="4.81271">
        <ele>161.7002</ele>
        <time>2026-05-13T09:58:30+02:00</time>
      </trkpt>
      <trkpt lat="45.78481" lon="4.81275">
        <ele>161.7002</ele>
        <time>2026-05-13T09:58:31+02:00</time>
      </trkpt>
      <trkpt lat="45.78486" lon="4.81279">
        <ele>161.60059</ele>
        <time>2026-05-13T09:58:32+02:00</time>
      </trkpt>
      <trkpt lat="45.78491" lon="4.81283">
        <ele>161.5</ele>
        <time>2026-05-13T09:58:33+02:00</time>
      </trkpt>
      <trkpt lat="45.78496" lon="4.81287">
        <ele>161.7002</ele>
        <time>2026-05-13T09:58:34+02:00</time>
      </trkpt>
      <trkpt lat="45.785" lon="4.81291">
        <ele>161.7002</ele>
        <time>2026-05-13T09:58:35+02:00</time>
      </trkpt>
      <trkpt lat="45.78505" lon="4.81294">
        <ele>161.90039</ele>
        <time>2026-05-13T09:58:36+02:00</time>
      </trkpt>
      <trkpt lat="45.7851" lon="4.81298">
        <ele>161.90039</ele>
        <time>2026-05-13T09:58:37+02:00</time>
      </trkpt>
      <trkpt lat="45.78515" lon="4.81301">
        <ele>161.90039</ele>
        <time>2026-05-13T09:58:38+02:00</time>
      </trkpt>
      <trkpt lat="45.7852" lon="4.81304">
        <ele>161.90039</ele>
        <time>2026-05-13T09:58:39+02:00</time>
      </trkpt>
      <trkpt lat="45.78524" lon="4.81306">
        <ele>161.7002</ele>
        <time>2026-05-13T09:58:40+02:00</time>
      </trkpt>
      <trkpt lat="45.78529" lon="4.8131">
        <ele>161.60059</ele>
        <time>2026-05-13T09:58:41+02:00</time>
      </trkpt>
      <trkpt lat="45.78533" lon="4.81313">
        <ele>161.60059</ele>
        <time>2026-05-13T09:58:42+02:00</time>
      </trkpt>
      <trkpt lat="45.78537" lon="4.81316">
        <ele>161.60059</ele>
        <time>2026-05-13T09:58:43+02:00</time>
      </trkpt>
      <trkpt lat="45.78542" lon="4.8132">
        <ele>161.60059</ele>
        <time>2026-05-13T09:58:44+02:00</time>
      </trkpt>
      <trkpt lat="45.78547" lon="4.81324">
        <ele>161.7998</ele>
        <time>2026-05-13T09:58:45+02:00</time>
      </trkpt>
      <trkpt lat="45.78552" lon="4.81327">
        <ele>161.90039</ele>
        <time>2026-05-13T09:58:46+02:00</time>
      </trkpt>
      <trkpt lat="45.78557" lon="4.81331">
        <ele>161.90039</ele>
        <time>2026-05-13T09:58:47+02:00</time>
      </trkpt>
      <trkpt lat="45.78562" lon="4.81334">
        <ele>161.90039</ele>
        <time>2026-05-13T09:58:48+02:00</time>
      </trkpt>
      <trkpt lat="45.78566" lon="4.81338">
        <ele>161.90039</ele>
        <time>2026-05-13T09:58:49+02:00</time>
      </trkpt>
      <trkpt lat="45.78571" lon="4.81341">
        <ele>161.7002</ele>
        <time>2026-05-13T09:58:50+02:00</time>
      </trkpt>
      <trkpt lat="45.78576" lon="4.81344">
        <ele>161.5</ele>
        <time>2026-05-13T09:58:51+02:00</time>
      </trkpt>
      <trkpt lat="45.78581" lon="4.81347">
        <ele>161.40039</ele>
        <time>2026-05-13T09:58:52+02:00</time>
      </trkpt>
      <trkpt lat="45.78586" lon="4.8135">
        <ele>161.7998</ele>
        <time>2026-05-13T09:58:53+02:00</time>
      </trkpt>
      <trkpt lat="45.7859" lon="4.81353">
        <ele>161.7998</ele>
        <time>2026-05-13T09:58:54+02:00</time>
      </trkpt>
      <trkpt lat="45.78595" lon="4.81356">
        <ele>162</ele>
        <time>2026-05-13T09:58:55+02:00</time>
      </trkpt>
      <trkpt lat="45.786" lon="4.8136">
        <ele>162</ele>
        <time>2026-05-13T09:58:56+02:00</time>
      </trkpt>
      <trkpt lat="45.78604" lon="4.81364">
        <ele>162</ele>
        <time>2026-05-13T09:58:57+02:00</time>
      </trkpt>
      <trkpt lat="45.78609" lon="4.81368">
        <ele>161.5</ele>
        <time>2026-05-13T09:58:58+02:00</time>
      </trkpt>
      <trkpt lat="45.78614" lon="4.81371">
        <ele>161.40039</ele>
        <time>2026-05-13T09:58:59+02:00</time>
      </trkpt>
      <trkpt lat="45.78619" lon="4.81374">
        <ele>161.60059</ele>
        <time>2026-05-13T09:59:00+02:00</time>
      </trkpt>
      <trkpt lat="45.78624" lon="4.81376">
        <ele>161.60059</ele>
        <time>2026-05-13T09:59:01+02:00</time>
      </trkpt>
      <trkpt lat="45.78629" lon="4.81379">
        <ele>161.7002</ele>
        <time>2026-05-13T09:59:02+02:00</time>
      </trkpt>
      <trkpt lat="45.78634" lon="4.81383">
        <ele>162.10059</ele>
        <time>2026-05-13T09:59:03+02:00</time>
      </trkpt>
      <trkpt lat="45.78639" lon="4.81386">
        <ele>162</ele>
        <time>2026-05-13T09:59:04+02:00</time>
      </trkpt>
      <trkpt lat="45.78644" lon="4.81389">
        <ele>161.7998</ele>
        <time>2026-05-13T09:59:05+02:00</time>
      </trkpt>
      <trkpt lat="45.78649" lon="4.81392">
        <ele>161.60059</ele>
        <time>2026-05-13T09:59:06+02:00</time>
      </trkpt>
      <trkpt lat="45.78653" lon="4.81395">
        <ele>161.2998</ele>
        <time>2026-05-13T09:59:07+02:00</time>
      </trkpt>
      <trkpt lat="45.78658" lon="4.81397">
        <ele>161.60059</ele>
        <time>2026-05-13T09:59:08+02:00</time>
      </trkpt>
      <trkpt lat="45.78662" lon="4.814">
        <ele>162.2002</ele>
        <time>2026-05-13T09:59:09+02:00</time>
      </trkpt>
      <trkpt lat="45.78666" lon="4.81402">
        <ele>162.2002</ele>
        <time>2026-05-13T09:59:10+02:00</time>
      </trkpt>
      <trkpt lat="45.78671" lon="4.81405">
        <ele>163.2002</ele>
        <time>2026-05-13T09:59:11+02:00</time>
      </trkpt>
      <trkpt lat="45.78675" lon="4.81408">
        <ele>162.5</ele>
        <time>2026-05-13T09:59:12+02:00</time>
      </trkpt>
      <trkpt lat="45.78679" lon="4.8141">
        <ele>162.5</ele>
        <time>2026-05-13T09:59:13+02:00</time>
      </trkpt>
      <trkpt lat="45.78684" lon="4.81413">
        <ele>162.5</ele>
        <time>2026-05-13T09:59:14+02:00</time>
      </trkpt>
      <trkpt lat="45.78688" lon="4.81416">
        <ele>161.7998</ele>
        <time>2026-05-13T09:59:15+02:00</time>
      </trkpt>
      <trkpt lat="45.78692" lon="4.8142">
        <ele>161.7002</ele>
        <time>2026-05-13T09:59:16+02:00</time>
      </trkpt>
      <trkpt lat="45.78697" lon="4.81423">
        <ele>161.7002</ele>
        <time>2026-05-13T09:59:17+02:00</time>
      </trkpt>
      <trkpt lat="45.78702" lon="4.81426">
        <ele>161.7998</ele>
        <time>2026-05-13T09:59:18+02:00</time>
      </trkpt>
      <trkpt lat="45.78707" lon="4.81429">
        <ele>162</ele>
        <time>2026-05-13T09:59:19+02:00</time>
      </trkpt>
      <trkpt lat="45.78711" lon="4.81432">
        <ele>162.2998</ele>
        <time>2026-05-13T09:59:20+02:00</time>
      </trkpt>
      <trkpt lat="45.78716" lon="4.81436">
        <ele>162.2998</ele>
        <time>2026-05-13T09:59:21+02:00</time>
      </trkpt>
      <trkpt lat="45.78721" lon="4.81439">
        <ele>162.2998</ele>
        <time>2026-05-13T09:59:22+02:00</time>
      </trkpt>
      <trkpt lat="45.78726" lon="4.81443">
        <ele>162.2002</ele>
        <time>2026-05-13T09:59:23+02:00</time>
      </trkpt>
      <trkpt lat="45.7873" lon="4.81445">
        <ele>162.10059</ele>
        <time>2026-05-13T09:59:24+02:00</time>
      </trkpt>
      <trkpt lat="45.78735" lon="4.81449">
        <ele>161.90039</ele>
        <time>2026-05-13T09:59:25+02:00</time>
      </trkpt>
      <trkpt lat="45.78739" lon="4.81452">
        <ele>161.90039</ele>
        <time>2026-05-13T09:59:26+02:00</time>
      </trkpt>
      <trkpt lat="45.78744" lon="4.81455">
        <ele>161.7002</ele>
        <time>2026-05-13T09:59:27+02:00</time>
      </trkpt>
      <trkpt lat="45.78749" lon="4.81459">
        <ele>162</ele>
        <time>2026-05-13T09:59:28+02:00</time>
      </trkpt>
      <trkpt lat="45.78754" lon="4.81463">
        <ele>162</ele>
        <time>2026-05-13T09:59:29+02:00</time>
      </trkpt>
      <trkpt lat="45.78759" lon="4.81467">
        <ele>161.90039</ele>
        <time>2026-05-13T09:59:30+02:00</time>
      </trkpt>
      <trkpt lat="45.78764" lon="4.81471">
        <ele>161.5</ele>
        <time>2026-05-13T09:59:31+02:00</time>
      </trkpt>
      <trkpt lat="45.78769" lon="4.81475">
        <ele>161.5</ele>
        <time>2026-05-13T09:59:32+02:00</time>
      </trkpt>
      <trkpt lat="45.78774" lon="4.81479">
        <ele>161.5</ele>
        <time>2026-05-13T09:59:33+02:00</time>
      </trkpt>
      <trkpt lat="45.78779" lon="4.81483">
        <ele>162.2998</ele>
        <time>2026-05-13T09:59:34+02:00</time>
      </trkpt>
      <trkpt lat="45.78784" lon="4.81487">
        <ele>163.2002</ele>
        <time>2026-05-13T09:59:35+02:00</time>
      </trkpt>
      <trkpt lat="45.78789" lon="4.81492">
        <ele>164.60059</ele>
        <time>2026-05-13T09:59:36+02:00</time>
      </trkpt>
      <trkpt lat="45.78794" lon="4.81496">
        <ele>162.5</ele>
        <time>2026-05-13T09:59:37+02:00</time>
      </trkpt>
      <trkpt lat="45.78798" lon="4.815">
        <ele>162.5</ele>
        <time>2026-05-13T09:59:38+02:00</time>
      </trkpt>
      <trkpt lat="45.78803" lon="4.81504">
        <ele>162.10059</ele>
        <time>2026-05-13T09:59:39+02:00</time>
      </trkpt>
      <trkpt lat="45.78808" lon="4.81508">
        <ele>164.2002</ele>
        <time>2026-05-13T09:59:40+02:00</time>
      </trkpt>
      <trkpt lat="45.78813" lon="4.81512">
        <ele>164.7002</ele>
        <time>2026-05-13T09:59:41+02:00</time>
      </trkpt>
      <trkpt lat="45.78817" lon="4.81516">
        <ele>164.7002</ele>
        <time>2026-05-13T09:59:42+02:00</time>
      </trkpt>
      <trkpt lat="45.78821" lon="4.81521">
        <ele>163.2002</ele>
        <time>2026-05-13T09:59:43+02:00</time>
      </trkpt>
      <trkpt lat="45.78825" lon="4.81524">
        <ele>164.2998</ele>
        <time>2026-05-13T09:59:44+02:00</time>
      </trkpt>
      <trkpt lat="45.78829" lon="4.81529">
        <ele>162.7998</ele>
        <time>2026-05-13T09:59:45+02:00</time>
      </trkpt>
      <trkpt lat="45.78834" lon="4.81534">
        <ele>165.40039</ele>
        <time>2026-05-13T09:59:46+02:00</time>
      </trkpt>
      <trkpt lat="45.78838" lon="4.81538">
        <ele>166.60059</ele>
        <time>2026-05-13T09:59:47+02:00</time>
      </trkpt>
      <trkpt lat="45.78843" lon="4.81543">
        <ele>168.60059</ele>
        <time>2026-05-13T09:59:48+02:00</time>
      </trkpt>
      <trkpt lat="45.78847" lon="4.81547">
        <ele>165</ele>
        <time>2026-05-13T09:59:49+02:00</time>
      </trkpt>
      <trkpt lat="45.78851" lon="4.81552">
        <ele>166.10059</ele>
        <time>2026-05-13T09:59:50+02:00</time>
      </trkpt>
      <trkpt lat="45.78856" lon="4.81556">
        <ele>165.7002</ele>
        <time>2026-05-13T09:59:51+02:00</time>
      </trkpt>
      <trkpt lat="45.7886" lon="4.8156">
        <ele>168.7998</ele>
        <time>2026-05-13T09:59:52+02:00</time>
      </trkpt>
      <trkpt lat="45.78865" lon="4.81565">
        <ele>167.5</ele>
        <time>2026-05-13T09:59:53+02:00</time>
      </trkpt>
      <trkpt lat="45.78869" lon="4.8157">
        <ele>169.60059</ele>
        <time>2026-05-13T09:59:54+02:00</time>
      </trkpt>
      <trkpt lat="45.78873" lon="4.81574">
        <ele>166.5</ele>
        <time>2026-05-13T09:59:55+02:00</time>
      </trkpt>
      <trkpt lat="45.78876" lon="4.81579">
        <ele>163.60059</ele>
        <time>2026-05-13T09:59:56+02:00</time>
      </trkpt>
      <trkpt lat="45.7888" lon="4.81583">
        <ele>163.10059</ele>
        <time>2026-05-13T09:59:57+02:00</time>
      </trkpt>
      <trkpt lat="45.78884" lon="4.81587">
        <ele>162.7002</ele>
        <time>2026-05-13T09:59:58+02:00</time>
      </trkpt>
      <trkpt lat="45.78888" lon="4.81592">
        <ele>161.90039</ele>
        <time>2026-05-13T09:59:59+02:00</time>
      </trkpt>
      <trkpt lat="45.78892" lon="4.81597">
        <ele>161.7998</ele>
        <time>2026-05-13T10:00:00+02:00</time>
      </trkpt>
      <trkpt lat="45.78896" lon="4.81601">
        <ele>162.2002</ele>
        <time>2026-05-13T10:00:01+02:00</time>
      </trkpt>
      <trkpt lat="45.789" lon="4.81606">
        <ele>162.10059</ele>
        <time>2026-05-13T10:00:02+02:00</time>
      </trkpt>
      <trkpt lat="45.78903" lon="4.81611">
        <ele>162.2002</ele>
        <time>2026-05-13T10:00:03+02:00</time>
      </trkpt>
      <trkpt lat="45.78907" lon="4.81616">
        <ele>162.10059</ele>
        <time>2026-05-13T10:00:04+02:00</time>
      </trkpt>
      <trkpt lat="45.78911" lon="4.8162">
        <ele>162</ele>
        <time>2026-05-13T10:00:05+02:00</time>
      </trkpt>
      <trkpt lat="45.78915" lon="4.81624">
        <ele>162</ele>
        <time>2026-05-13T10:00:06+02:00</time>
      </trkpt>
      <trkpt lat="45.78919" lon="4.81629">
        <ele>162</ele>
        <time>2026-05-13T10:00:07+02:00</time>
      </trkpt>
      <trkpt lat="45.78922" lon="4.81634">
        <ele>162.10059</ele>
        <time>2026-05-13T10:00:08+02:00</time>
      </trkpt>
      <trkpt lat="45.78926" lon="4.8164">
        <ele>162</ele>
        <time>2026-05-13T10:00:09+02:00</time>
      </trkpt>
      <trkpt lat="45.7893" lon="4.81645">
        <ele>162</ele>
        <time>2026-05-13T10:00:10+02:00</time>
      </trkpt>
      <trkpt lat="45.78934" lon="4.8165">
        <ele>161.60059</ele>
        <time>2026-05-13T10:00:11+02:00</time>
      </trkpt>
      <trkpt lat="45.78938" lon="4.81655">
        <ele>161.90039</ele>
        <time>2026-05-13T10:00:12+02:00</time>
      </trkpt>
      <trkpt lat="45.78942" lon="4.81661">
        <ele>161.7998</ele>
        <time>2026-05-13T10:00:13+02:00</time>
      </trkpt>
      <trkpt lat="45.78946" lon="4.81668">
        <ele>162.2002</ele>
        <time>2026-05-13T10:00:14+02:00</time>
      </trkpt>
      <trkpt lat="45.7895" lon="4.81673">
        <ele>162.60059</ele>
        <time>2026-05-13T10:00:15+02:00</time>
      </trkpt>
      <trkpt lat="45.78954" lon="4.81679">
        <ele>162</ele>
        <time>2026-05-13T10:00:16+02:00</time>
      </trkpt>
      <trkpt lat="45.78959" lon="4.81685">
        <ele>161.5</ele>
        <time>2026-05-13T10:00:17+02:00</time>
      </trkpt>
      <trkpt lat="45.78964" lon="4.81692">
        <ele>161.60059</ele>
        <time>2026-05-13T10:00:18+02:00</time>
      </trkpt>
      <trkpt lat="45.78969" lon="4.81699">
        <ele>162</ele>
        <time>2026-05-13T10:00:19+02:00</time>
      </trkpt>
      <trkpt lat="45.78973" lon="4.81705">
        <ele>162.10059</ele>
        <time>2026-05-13T10:00:20+02:00</time>
      </trkpt>
      <trkpt lat="45.78978" lon="4.81711">
        <ele>161.90039</ele>
        <time>2026-05-13T10:00:21+02:00</time>
      </trkpt>
      <trkpt lat="45.78982" lon="4.81718">
        <ele>161.60059</ele>
        <time>2026-05-13T10:00:22+02:00</time>
      </trkpt>
      <trkpt lat="45.78986" lon="4.81724">
        <ele>161.60059</ele>
        <time>2026-05-13T10:00:23+02:00</time>
      </trkpt>
      <trkpt lat="45.7899" lon="4.81731">
        <ele>161.90039</ele>
        <time>2026-05-13T10:00:24+02:00</time>
      </trkpt>
      <trkpt lat="45.78995" lon="4.81738">
        <ele>162.2002</ele>
        <time>2026-05-13T10:00:25+02:00</time>
      </trkpt>
      <trkpt lat="45.78999" lon="4.81745">
        <ele>162</ele>
        <time>2026-05-13T10:00:26+02:00</time>
      </trkpt>
      <trkpt lat="45.79004" lon="4.81752">
        <ele>161.90039</ele>
        <time>2026-05-13T10:00:27+02:00</time>
      </trkpt>
      <trkpt lat="45.79008" lon="4.81758">
        <ele>161.90039</ele>
        <time>2026-05-13T10:00:28+02:00</time>
      </trkpt>
      <trkpt lat="45.79012" lon="4.81764">
        <ele>162.10059</ele>
        <time>2026-05-13T10:00:29+02:00</time>
      </trkpt>
      <trkpt lat="45.79016" lon="4.81771">
        <ele>162.2002</ele>
        <time>2026-05-13T10:00:30+02:00</time>
      </trkpt>
      <trkpt lat="45.79021" lon="4.81777">
        <ele>162.10059</ele>
        <time>2026-05-13T10:00:31+02:00</time>
      </trkpt>
      <trkpt lat="45.79025" lon="4.81784">
        <ele>162.10059</ele>
        <time>2026-05-13T10:00:32+02:00</time>
      </trkpt>
      <trkpt lat="45.7903" lon="4.8179">
        <ele>162.10059</ele>
        <time>2026-05-13T10:00:33+02:00</time>
      </trkpt>
      <trkpt lat="45.79035" lon="4.81796">
        <ele>162.2002</ele>
        <time>2026-05-13T10:00:34+02:00</time>
      </trkpt>
      <trkpt lat="45.79039" lon="4.81802">
        <ele>162.2002</ele>
        <time>2026-05-13T10:00:35+02:00</time>
      </trkpt>
      <trkpt lat="45.79044" lon="4.81809">
        <ele>162.2002</ele>
        <time>2026-05-13T10:00:36+02:00</time>
      </trkpt>
      <trkpt lat="45.79048" lon="4.81815">
        <ele>162.2002</ele>
        <time>2026-05-13T10:00:37+02:00</time>
      </trkpt>
      <trkpt lat="45.79053" lon="4.81821">
        <ele>162.2002</ele>
        <time>2026-05-13T10:00:38+02:00</time>
      </trkpt>
      <trkpt lat="45.79057" lon="4.81827">
        <ele>162.2002</ele>
        <time>2026-05-13T10:00:39+02:00</time>
      </trkpt>
      <trkpt lat="45.79062" lon="4.81834">
        <ele>162.2998</ele>
        <time>2026-05-13T10:00:40+02:00</time>
      </trkpt>
      <trkpt lat="45.79067" lon="4.81841">
        <ele>162.2002</ele>
        <time>2026-05-13T10:00:41+02:00</time>
      </trkpt>
      <trkpt lat="45.79072" lon="4.81847">
        <ele>162.2002</ele>
        <time>2026-05-13T10:00:42+02:00</time>
      </trkpt>
      <trkpt lat="45.79077" lon="4.81853">
        <ele>162.10059</ele>
        <time>2026-05-13T10:00:43+02:00</time>
      </trkpt>
      <trkpt lat="45.79081" lon="4.8186">
        <ele>162.2002</ele>
        <time>2026-05-13T10:00:44+02:00</time>
      </trkpt>
      <trkpt lat="45.79086" lon="4.81866">
        <ele>162.2998</ele>
        <time>2026-05-13T10:00:45+02:00</time>
      </trkpt>
      <trkpt lat="45.79091" lon="4.81873">
        <ele>162.2002</ele>
        <time>2026-05-13T10:00:46+02:00</time>
      </trkpt>
      <trkpt lat="45.79096" lon="4.81879">
        <ele>162.10059</ele>
        <time>2026-05-13T10:00:47+02:00</time>
      </trkpt>
      <trkpt lat="45.79101" lon="4.81886">
        <ele>162.2002</ele>
        <time>2026-05-13T10:00:48+02:00</time>
      </trkpt>
      <trkpt lat="45.79105" lon="4.81892">
        <ele>162.2998</ele>
        <time>2026-05-13T10:00:49+02:00</time>
      </trkpt>
      <trkpt lat="45.7911" lon="4.81898">
        <ele>162.2998</ele>
        <time>2026-05-13T10:00:50+02:00</time>
      </trkpt>
      <trkpt lat="45.79114" lon="4.81904">
        <ele>162.2002</ele>
        <time>2026-05-13T10:00:51+02:00</time>
      </trkpt>
      <trkpt lat="45.79118" lon="4.81911">
        <ele>162.2002</ele>
        <time>2026-05-13T10:00:52+02:00</time>
      </trkpt>
      <trkpt lat="45.79123" lon="4.81918">
        <ele>162.2002</ele>
        <time>2026-05-13T10:00:53+02:00</time>
      </trkpt>
      <trkpt lat="45.79127" lon="4.81924">
        <ele>162.2998</ele>
        <time>2026-05-13T10:00:54+02:00</time>
      </trkpt>
      <trkpt lat="45.79132" lon="4.8193">
        <ele>162.2998</ele>
        <time>2026-05-13T10:00:55+02:00</time>
      </trkpt>
      <trkpt lat="45.79137" lon="4.81936">
        <ele>162.2002</ele>
        <time>2026-05-13T10:00:56+02:00</time>
      </trkpt>
      <trkpt lat="45.79142" lon="4.81943">
        <ele>162.2002</ele>
        <time>2026-05-13T10:00:57+02:00</time>
      </trkpt>
      <trkpt lat="45.79147" lon="4.81949">
        <ele>162.2998</ele>
        <time>2026-05-13T10:00:58+02:00</time>
      </trkpt>
      <trkpt lat="45.79152" lon="4.81956">
        <ele>162.2998</ele>
        <time>2026-05-13T10:00:59+02:00</time>
      </trkpt>
      <trkpt lat="45.79157" lon="4.81962">
        <ele>162.2998</ele>
        <time>2026-05-13T10:01:00+02:00</time>
      </trkpt>
      <trkpt lat="45.79162" lon="4.81968">
        <ele>162.2002</ele>
        <time>2026-05-13T10:01:01+02:00</time>
      </trkpt>
      <trkpt lat="45.79167" lon="4.81974">
        <ele>162.2002</ele>
        <time>2026-05-13T10:01:02+02:00</time>
      </trkpt>
      <trkpt lat="45.79172" lon="4.81981">
        <ele>162.2002</ele>
        <time>2026-05-13T10:01:03+02:00</time>
      </trkpt>
      <trkpt lat="45.79177" lon="4.81987">
        <ele>162.2998</ele>
        <time>2026-05-13T10:01:04+02:00</time>
      </trkpt>
      <trkpt lat="45.79183" lon="4.81993">
        <ele>162.2002</ele>
        <time>2026-05-13T10:01:05+02:00</time>
      </trkpt>
      <trkpt lat="45.79188" lon="4.81999">
        <ele>162.2002</ele>
        <time>2026-05-13T10:01:06+02:00</time>
      </trkpt>
      <trkpt lat="45.79193" lon="4.82005">
        <ele>162</ele>
        <time>2026-05-13T10:01:07+02:00</time>
      </trkpt>
      <trkpt lat="45.79198" lon="4.82011">
        <ele>161.7998</ele>
        <time>2026-05-13T10:01:08+02:00</time>
      </trkpt>
      <trkpt lat="45.79203" lon="4.82017">
        <ele>162</ele>
        <time>2026-05-13T10:01:09+02:00</time>
      </trkpt>
      <trkpt lat="45.79208" lon="4.82024">
        <ele>162.2998</ele>
        <time>2026-05-13T10:01:10+02:00</time>
      </trkpt>
      <trkpt lat="45.79213" lon="4.8203">
        <ele>162.5</ele>
        <time>2026-05-13T10:01:11+02:00</time>
      </trkpt>
      <trkpt lat="45.79218" lon="4.82036">
        <ele>162.10059</ele>
        <time>2026-05-13T10:01:12+02:00</time>
      </trkpt>
      <trkpt lat="45.79223" lon="4.82042">
        <ele>162</ele>
        <time>2026-05-13T10:01:13+02:00</time>
      </trkpt>
      <trkpt lat="45.79228" lon="4.82049">
        <ele>161.7002</ele>
        <time>2026-05-13T10:01:14+02:00</time>
      </trkpt>
      <trkpt lat="45.79233" lon="4.82055">
        <ele>162</ele>
        <time>2026-05-13T10:01:15+02:00</time>
      </trkpt>
      <trkpt lat="45.79237" lon="4.82061">
        <ele>162.10059</ele>
        <time>2026-05-13T10:01:16+02:00</time>
      </trkpt>
      <trkpt lat="45.79242" lon="4.82067">
        <ele>162.10059</ele>
        <time>2026-05-13T10:01:17+02:00</time>
      </trkpt>
      <trkpt lat="45.79247" lon="4.82073">
        <ele>161.90039</ele>
        <time>2026-05-13T10:01:18+02:00</time>
      </trkpt>
      <trkpt lat="45.79252" lon="4.82079">
        <ele>161.7002</ele>
        <time>2026-05-13T10:01:19+02:00</time>
      </trkpt>
      <trkpt lat="45.79257" lon="4.82085">
        <ele>162</ele>
        <time>2026-05-13T10:01:20+02:00</time>
      </trkpt>
      <trkpt lat="45.79262" lon="4.82091">
        <ele>162.10059</ele>
        <time>2026-05-13T10:01:21+02:00</time>
      </trkpt>
      <trkpt lat="45.79266" lon="4.82096">
        <ele>162.10059</ele>
        <time>2026-05-13T10:01:22+02:00</time>
      </trkpt>
      <trkpt lat="45.79271" lon="4.82102">
        <ele>162</ele>
        <time>2026-05-13T10:01:23+02:00</time>
      </trkpt>
      <trkpt lat="45.79276" lon="4.82108">
        <ele>161.7998</ele>
        <time>2026-05-13T10:01:24+02:00</time>
      </trkpt>
      <trkpt lat="45.79281" lon="4.82114">
        <ele>162</ele>
        <time>2026-05-13T10:01:25+02:00</time>
      </trkpt>
      <trkpt lat="45.79286" lon="4.8212">
        <ele>162.10059</ele>
        <time>2026-05-13T10:01:26+02:00</time>
      </trkpt>
      <trkpt lat="45.79291" lon="4.82126">
        <ele>162.10059</ele>
        <time>2026-05-13T10:01:27+02:00</time>
      </trkpt>
      <trkpt lat="45.79295" lon="4.82132">
        <ele>162</ele>
        <time>2026-05-13T10:01:28+02:00</time>
      </trkpt>
      <trkpt lat="45.793" lon="4.82137">
        <ele>161.7998</ele>
        <time>2026-05-13T10:01:29+02:00</time>
      </trkpt>
      <trkpt lat="45.79305" lon="4.82143">
        <ele>162</ele>
        <time>2026-05-13T10:01:30+02:00</time>
      </trkpt>
      <trkpt lat="45.7931" lon="4.82149">
        <ele>162.10059</ele>
        <time>2026-05-13T10:01:31+02:00</time>
      </trkpt>
      <trkpt lat="45.79315" lon="4.82155">
        <ele>162</ele>
        <time>2026-05-13T10:01:32+02:00</time>
      </trkpt>
      <trkpt lat="45.7932" lon="4.82161">
        <ele>162</ele>
        <time>2026-05-13T10:01:33+02:00</time>
      </trkpt>
      <trkpt lat="45.79324" lon="4.82167">
        <ele>161.7998</ele>
        <time>2026-05-13T10:01:34+02:00</time>
      </trkpt>
      <trkpt lat="45.79329" lon="4.82173">
        <ele>162</ele>
        <time>2026-05-13T10:01:35+02:00</time>
      </trkpt>
      <trkpt lat="45.79334" lon="4.82179">
        <ele>162.2002</ele>
        <time>2026-05-13T10:01:36+02:00</time>
      </trkpt>
      <trkpt lat="45.79339" lon="4.82185">
        <ele>162.10059</ele>
        <time>2026-05-13T10:01:37+02:00</time>
      </trkpt>
      <trkpt lat="45.79343" lon="4.82191">
        <ele>161.90039</ele>
        <time>2026-05-13T10:01:38+02:00</time>
      </trkpt>
      <trkpt lat="45.79348" lon="4.82198">
        <ele>161.7998</ele>
        <time>2026-05-13T10:01:39+02:00</time>
      </trkpt>
      <trkpt lat="45.79352" lon="4.82205">
        <ele>161.90039</ele>
        <time>2026-05-13T10:01:40+02:00</time>
      </trkpt>
      <trkpt lat="45.79357" lon="4.82213">
        <ele>162.10059</ele>
        <time>2026-05-13T10:01:41+02:00</time>
      </trkpt>
      <trkpt lat="45.79361" lon="4.8222">
        <ele>162.10059</ele>
        <time>2026-05-13T10:01:42+02:00</time>
      </trkpt>
      <trkpt lat="45.79366" lon="4.82227">
        <ele>161.90039</ele>
        <time>2026-05-13T10:01:43+02:00</time>
      </trkpt>
      <trkpt lat="45.79369" lon="4.82234">
        <ele>161.7998</ele>
        <time>2026-05-13T10:01:44+02:00</time>
      </trkpt>
      <trkpt lat="45.79374" lon="4.82242">
        <ele>162.10059</ele>
        <time>2026-05-13T10:01:45+02:00</time>
      </trkpt>
      <trkpt lat="45.79378" lon="4.82249">
        <ele>162.2998</ele>
        <time>2026-05-13T10:01:46+02:00</time>
      </trkpt>
      <trkpt lat="45.79382" lon="4.82256">
        <ele>162.10059</ele>
        <time>2026-05-13T10:01:47+02:00</time>
      </trkpt>
      <trkpt lat="45.79386" lon="4.82264">
        <ele>161.7002</ele>
        <time>2026-05-13T10:01:48+02:00</time>
      </trkpt>
      <trkpt lat="45.7939" lon="4.82272">
        <ele>161.90039</ele>
        <time>2026-05-13T10:01:49+02:00</time>
      </trkpt>
      <trkpt lat="45.79395" lon="4.82279">
        <ele>162</ele>
        <time>2026-05-13T10:01:50+02:00</time>
      </trkpt>
      <trkpt lat="45.79399" lon="4.82287">
        <ele>162.2002</ele>
        <time>2026-05-13T10:01:51+02:00</time>
      </trkpt>
      <trkpt lat="45.79403" lon="4.82294">
        <ele>162.2002</ele>
        <time>2026-05-13T10:01:52+02:00</time>
      </trkpt>
      <trkpt lat="45.79407" lon="4.82302">
        <ele>162.2002</ele>
        <time>2026-05-13T10:01:53+02:00</time>
      </trkpt>
      <trkpt lat="45.79411" lon="4.82309">
        <ele>162</ele>
        <time>2026-05-13T10:01:54+02:00</time>
      </trkpt>
      <trkpt lat="45.79415" lon="4.82317">
        <ele>162</ele>
        <time>2026-05-13T10:01:55+02:00</time>
      </trkpt>
      <trkpt lat="45.79419" lon="4.82324">
        <ele>161.7998</ele>
        <time>2026-05-13T10:01:56+02:00</time>
      </trkpt>
      <trkpt lat="45.79423" lon="4.82331">
        <ele>162</ele>
        <time>2026-05-13T10:01:57+02:00</time>
      </trkpt>
      <trkpt lat="45.79427" lon="4.82338">
        <ele>162.2002</ele>
        <time>2026-05-13T10:01:58+02:00</time>
      </trkpt>
      <trkpt lat="45.79431" lon="4.82346">
        <ele>162.2002</ele>
        <time>2026-05-13T10:01:59+02:00</time>
      </trkpt>
      <trkpt lat="45.79435" lon="4.82353">
        <ele>161.90039</ele>
        <time>2026-05-13T10:02:00+02:00</time>
      </trkpt>
      <trkpt lat="45.79439" lon="4.8236">
        <ele>162</ele>
        <time>2026-05-13T10:02:01+02:00</time>
      </trkpt>
      <trkpt lat="45.79443" lon="4.82367">
        <ele>161.90039</ele>
        <time>2026-05-13T10:02:02+02:00</time>
      </trkpt>
      <trkpt lat="45.79447" lon="4.82374">
        <ele>162.2998</ele>
        <time>2026-05-13T10:02:03+02:00</time>
      </trkpt>
      <trkpt lat="45.79451" lon="4.82381">
        <ele>162.2998</ele>
        <time>2026-05-13T10:02:04+02:00</time>
      </trkpt>
      <trkpt lat="45.79455" lon="4.82388">
        <ele>162.5</ele>
        <time>2026-05-13T10:02:05+02:00</time>
      </trkpt>
      <trkpt lat="45.79459" lon="4.82395">
        <ele>162.40039</ele>
        <time>2026-05-13T10:02:06+02:00</time>
      </trkpt>
      <trkpt lat="45.79463" lon="4.82402">
        <ele>162.40039</ele>
        <time>2026-05-13T10:02:07+02:00</time>
      </trkpt>
      <trkpt lat="45.79467" lon="4.82409">
        <ele>162.2998</ele>
        <time>2026-05-13T10:02:08+02:00</time>
      </trkpt>
      <trkpt lat="45.79471" lon="4.82417">
        <ele>162.40039</ele>
        <time>2026-05-13T10:02:09+02:00</time>
      </trkpt>
      <trkpt lat="45.79475" lon="4.82424">
        <ele>162.60059</ele>
        <time>2026-05-13T10:02:10+02:00</time>
      </trkpt>
      <trkpt lat="45.79479" lon="4.82431">
        <ele>162.7002</ele>
        <time>2026-05-13T10:02:11+02:00</time>
      </trkpt>
      <trkpt lat="45.79482" lon="4.82438">
        <ele>162.60059</ele>
        <time>2026-05-13T10:02:12+02:00</time>
      </trkpt>
      <trkpt lat="45.79487" lon="4.82445">
        <ele>162.60059</ele>
        <time>2026-05-13T10:02:13+02:00</time>
      </trkpt>
      <trkpt lat="45.7949" lon="4.82453">
        <ele>162.5</ele>
        <time>2026-05-13T10:02:14+02:00</time>
      </trkpt>
      <trkpt lat="45.79494" lon="4.8246">
        <ele>162.7002</ele>
        <time>2026-05-13T10:02:15+02:00</time>
      </trkpt>
      <trkpt lat="45.79498" lon="4.82467">
        <ele>162.7998</ele>
        <time>2026-05-13T10:02:16+02:00</time>
      </trkpt>
      <trkpt lat="45.79502" lon="4.82475">
        <ele>162.7002</ele>
        <time>2026-05-13T10:02:17+02:00</time>
      </trkpt>
      <trkpt lat="45.79506" lon="4.82483">
        <ele>162.60059</ele>
        <time>2026-05-13T10:02:18+02:00</time>
      </trkpt>
      <trkpt lat="45.79509" lon="4.8249">
        <ele>162.60059</ele>
        <time>2026-05-13T10:02:19+02:00</time>
      </trkpt>
      <trkpt lat="45.79513" lon="4.82498">
        <ele>162.60059</ele>
        <time>2026-05-13T10:02:20+02:00</time>
      </trkpt>
      <trkpt lat="45.79517" lon="4.82506">
        <ele>162.7002</ele>
        <time>2026-05-13T10:02:21+02:00</time>
      </trkpt>
      <trkpt lat="45.79521" lon="4.82513">
        <ele>162.7002</ele>
        <time>2026-05-13T10:02:22+02:00</time>
      </trkpt>
      <trkpt lat="45.79524" lon="4.82521">
        <ele>162.7002</ele>
        <time>2026-05-13T10:02:23+02:00</time>
      </trkpt>
      <trkpt lat="45.79527" lon="4.82528">
        <ele>162.7002</ele>
        <time>2026-05-13T10:02:24+02:00</time>
      </trkpt>
      <trkpt lat="45.7953" lon="4.82535">
        <ele>162.7002</ele>
        <time>2026-05-13T10:02:25+02:00</time>
      </trkpt>
      <trkpt lat="45.79534" lon="4.82542">
        <ele>162.7002</ele>
        <time>2026-05-13T10:02:26+02:00</time>
      </trkpt>
      <trkpt lat="45.79537" lon="4.82549">
        <ele>162.7002</ele>
        <time>2026-05-13T10:02:27+02:00</time>
      </trkpt>
      <trkpt lat="45.79541" lon="4.82556">
        <ele>162.7002</ele>
        <time>2026-05-13T10:02:28+02:00</time>
      </trkpt>
      <trkpt lat="45.79545" lon="4.82562">
        <ele>162.7998</ele>
        <time>2026-05-13T10:02:29+02:00</time>
      </trkpt>
      <trkpt lat="45.79549" lon="4.82568">
        <ele>162.7998</ele>
        <time>2026-05-13T10:02:30+02:00</time>
      </trkpt>
      <trkpt lat="45.79554" lon="4.82574">
        <ele>162.60059</ele>
        <time>2026-05-13T10:02:31+02:00</time>
      </trkpt>
      <trkpt lat="45.79558" lon="4.82581">
        <ele>162.7002</ele>
        <time>2026-05-13T10:02:32+02:00</time>
      </trkpt>
      <trkpt lat="45.79562" lon="4.82588">
        <ele>162.60059</ele>
        <time>2026-05-13T10:02:33+02:00</time>
      </trkpt>
      <trkpt lat="45.79566" lon="4.82596">
        <ele>162.60059</ele>
        <time>2026-05-13T10:02:34+02:00</time>
      </trkpt>
      <trkpt lat="45.79569" lon="4.82603">
        <ele>162.7002</ele>
        <time>2026-05-13T10:02:35+02:00</time>
      </trkpt>
      <trkpt lat="45.79573" lon="4.82611">
        <ele>162.7002</ele>
        <time>2026-05-13T10:02:36+02:00</time>
      </trkpt>
      <trkpt lat="45.79577" lon="4.82618">
        <ele>162.7998</ele>
        <time>2026-05-13T10:02:37+02:00</time>
      </trkpt>
      <trkpt lat="45.79581" lon="4.82625">
        <ele>162.7002</ele>
        <time>2026-05-13T10:02:38+02:00</time>
      </trkpt>
      <trkpt lat="45.79585" lon="4.82632">
        <ele>162.60059</ele>
        <time>2026-05-13T10:02:39+02:00</time>
      </trkpt>
      <trkpt lat="45.79588" lon="4.82639">
        <ele>162.7002</ele>
        <time>2026-05-13T10:02:40+02:00</time>
      </trkpt>
      <trkpt lat="45.79592" lon="4.82647">
        <ele>162.7002</ele>
        <time>2026-05-13T10:02:41+02:00</time>
      </trkpt>
      <trkpt lat="45.79596" lon="4.82654">
        <ele>162.7998</ele>
        <time>2026-05-13T10:02:42+02:00</time>
      </trkpt>
      <trkpt lat="45.796" lon="4.82661">
        <ele>162.7998</ele>
        <time>2026-05-13T10:02:43+02:00</time>
      </trkpt>
      <trkpt lat="45.79603" lon="4.82669">
        <ele>162.7002</ele>
        <time>2026-05-13T10:02:44+02:00</time>
      </trkpt>
      <trkpt lat="45.79607" lon="4.82676">
        <ele>162.7002</ele>
        <time>2026-05-13T10:02:45+02:00</time>
      </trkpt>
      <trkpt lat="45.79611" lon="4.82684">
        <ele>162.7998</ele>
        <time>2026-05-13T10:02:46+02:00</time>
      </trkpt>
      <trkpt lat="45.79615" lon="4.82691">
        <ele>162.7998</ele>
        <time>2026-05-13T10:02:47+02:00</time>
      </trkpt>
      <trkpt lat="45.79619" lon="4.82698">
        <ele>162.7998</ele>
        <time>2026-05-13T10:02:48+02:00</time>
      </trkpt>
      <trkpt lat="45.79622" lon="4.82706">
        <ele>162.7998</ele>
        <time>2026-05-13T10:02:49+02:00</time>
      </trkpt>
      <trkpt lat="45.79625" lon="4.82714">
        <ele>162.7998</ele>
        <time>2026-05-13T10:02:50+02:00</time>
      </trkpt>
      <trkpt lat="45.79629" lon="4.82721">
        <ele>162.7002</ele>
        <time>2026-05-13T10:02:51+02:00</time>
      </trkpt>
      <trkpt lat="45.79633" lon="4.82729">
        <ele>162.7002</ele>
        <time>2026-05-13T10:02:52+02:00</time>
      </trkpt>
      <trkpt lat="45.79637" lon="4.82737">
        <ele>162.7002</ele>
        <time>2026-05-13T10:02:53+02:00</time>
      </trkpt>
      <trkpt lat="45.79641" lon="4.82744">
        <ele>162.60059</ele>
        <time>2026-05-13T10:02:54+02:00</time>
      </trkpt>
      <trkpt lat="45.79645" lon="4.82752">
        <ele>162.7002</ele>
        <time>2026-05-13T10:02:55+02:00</time>
      </trkpt>
      <trkpt lat="45.79649" lon="4.82759">
        <ele>162.7002</ele>
        <time>2026-05-13T10:02:56+02:00</time>
      </trkpt>
      <trkpt lat="45.79653" lon="4.82766">
        <ele>162.7002</ele>
        <time>2026-05-13T10:02:57+02:00</time>
      </trkpt>
      <trkpt lat="45.79657" lon="4.82774">
        <ele>162.7002</ele>
        <time>2026-05-13T10:02:58+02:00</time>
      </trkpt>
      <trkpt lat="45.79661" lon="4.82781">
        <ele>162.7002</ele>
        <time>2026-05-13T10:02:59+02:00</time>
      </trkpt>
      <trkpt lat="45.79665" lon="4.82788">
        <ele>162.60059</ele>
        <time>2026-05-13T10:03:00+02:00</time>
      </trkpt>
      <trkpt lat="45.79669" lon="4.82795">
        <ele>162.7002</ele>
        <time>2026-05-13T10:03:01+02:00</time>
      </trkpt>
      <trkpt lat="45.79672" lon="4.82803">
        <ele>162.7002</ele>
        <time>2026-05-13T10:03:02+02:00</time>
      </trkpt>
      <trkpt lat="45.79676" lon="4.8281">
        <ele>162.7002</ele>
        <time>2026-05-13T10:03:03+02:00</time>
      </trkpt>
      <trkpt lat="45.7968" lon="4.82817">
        <ele>162.7002</ele>
        <time>2026-05-13T10:03:04+02:00</time>
      </trkpt>
      <trkpt lat="45.79684" lon="4.82825">
        <ele>162.7002</ele>
        <time>2026-05-13T10:03:05+02:00</time>
      </trkpt>
      <trkpt lat="45.79688" lon="4.82833">
        <ele>162.7998</ele>
        <time>2026-05-13T10:03:06+02:00</time>
      </trkpt>
      <trkpt lat="45.79692" lon="4.8284">
        <ele>162.7998</ele>
        <time>2026-05-13T10:03:07+02:00</time>
      </trkpt>
      <trkpt lat="45.79696" lon="4.82847">
        <ele>162.7998</ele>
        <time>2026-05-13T10:03:08+02:00</time>
      </trkpt>
      <trkpt lat="45.797" lon="4.82854">
        <ele>162.7002</ele>
        <time>2026-05-13T10:03:09+02:00</time>
      </trkpt>
      <trkpt lat="45.79704" lon="4.82861">
        <ele>162.7002</ele>
        <time>2026-05-13T10:03:10+02:00</time>
      </trkpt>
      <trkpt lat="45.79708" lon="4.82868">
        <ele>162.7002</ele>
        <time>2026-05-13T10:03:11+02:00</time>
      </trkpt>
      <trkpt lat="45.79712" lon="4.82876">
        <ele>162.7002</ele>
        <time>2026-05-13T10:03:12+02:00</time>
      </trkpt>
      <trkpt lat="45.79715" lon="4.82883">
        <ele>162.7002</ele>
        <time>2026-05-13T10:03:13+02:00</time>
      </trkpt>
      <trkpt lat="45.79719" lon="4.8289">
        <ele>162.7002</ele>
        <time>2026-05-13T10:03:14+02:00</time>
      </trkpt>
      <trkpt lat="45.79723" lon="4.82898">
        <ele>162.7998</ele>
        <time>2026-05-13T10:03:15+02:00</time>
      </trkpt>
      <trkpt lat="45.79727" lon="4.82905">
        <ele>162.7998</ele>
        <time>2026-05-13T10:03:16+02:00</time>
      </trkpt>
      <trkpt lat="45.7973" lon="4.82912">
        <ele>162.60059</ele>
        <time>2026-05-13T10:03:17+02:00</time>
      </trkpt>
      <trkpt lat="45.79734" lon="4.82919">
        <ele>162.5</ele>
        <time>2026-05-13T10:03:18+02:00</time>
      </trkpt>
      <trkpt lat="45.79738" lon="4.82927">
        <ele>162.60059</ele>
        <time>2026-05-13T10:03:19+02:00</time>
      </trkpt>
      <trkpt lat="45.79742" lon="4.82934">
        <ele>162.5</ele>
        <time>2026-05-13T10:03:20+02:00</time>
      </trkpt>
      <trkpt lat="45.79745" lon="4.82941">
        <ele>162.60059</ele>
        <time>2026-05-13T10:03:21+02:00</time>
      </trkpt>
      <trkpt lat="45.79749" lon="4.82948">
        <ele>162.7002</ele>
        <time>2026-05-13T10:03:22+02:00</time>
      </trkpt>
      <trkpt lat="45.79752" lon="4.82955">
        <ele>162.60059</ele>
        <time>2026-05-13T10:03:23+02:00</time>
      </trkpt>
      <trkpt lat="45.79756" lon="4.82962">
        <ele>162.7002</ele>
        <time>2026-05-13T10:03:24+02:00</time>
      </trkpt>
      <trkpt lat="45.79759" lon="4.82968">
        <ele>162.2998</ele>
        <time>2026-05-13T10:03:25+02:00</time>
      </trkpt>
      <trkpt lat="45.79762" lon="4.82974">
        <ele>162.2998</ele>
        <time>2026-05-13T10:03:26+02:00</time>
      </trkpt>
      <trkpt lat="45.79765" lon="4.8298">
        <ele>162.2998</ele>
        <time>2026-05-13T10:03:27+02:00</time>
      </trkpt>
      <trkpt lat="45.79767" lon="4.82987">
        <ele>162.2998</ele>
        <time>2026-05-13T10:03:28+02:00</time>
      </trkpt>
      <trkpt lat="45.7977" lon="4.82993">
        <ele>162.5</ele>
        <time>2026-05-13T10:03:29+02:00</time>
      </trkpt>
      <trkpt lat="45.79773" lon="4.82998">
        <ele>162.5</ele>
        <time>2026-05-13T10:03:30+02:00</time>
      </trkpt>
      <trkpt lat="45.79777" lon="4.83005">
        <ele>162.90039</ele>
        <time>2026-05-13T10:03:31+02:00</time>
      </trkpt>
      <trkpt lat="45.7978" lon="4.83011">
        <ele>162.90039</ele>
        <time>2026-05-13T10:03:32+02:00</time>
      </trkpt>
      <trkpt lat="45.79782" lon="4.83018">
        <ele>163.60059</ele>
        <time>2026-05-13T10:03:33+02:00</time>
      </trkpt>
      <trkpt lat="45.79785" lon="4.83024">
        <ele>163.2998</ele>
        <time>2026-05-13T10:03:34+02:00</time>
      </trkpt>
      <trkpt lat="45.79788" lon="4.83031">
        <ele>163.2002</ele>
        <time>2026-05-13T10:03:35+02:00</time>
      </trkpt>
      <trkpt lat="45.7979" lon="4.83037">
        <ele>163.2002</ele>
        <time>2026-05-13T10:03:36+02:00</time>
      </trkpt>
      <trkpt lat="45.79793" lon="4.83043">
        <ele>162.7002</ele>
        <time>2026-05-13T10:03:37+02:00</time>
      </trkpt>
      <trkpt lat="45.79796" lon="4.8305">
        <ele>162.2998</ele>
        <time>2026-05-13T10:03:38+02:00</time>
      </trkpt>
      <trkpt lat="45.79799" lon="4.83057">
        <ele>162.2002</ele>
        <time>2026-05-13T10:03:39+02:00</time>
      </trkpt>
      <trkpt lat="45.79801" lon="4.83065">
        <ele>162.5</ele>
        <time>2026-05-13T10:03:40+02:00</time>
      </trkpt>
      <trkpt lat="45.79804" lon="4.83074">
        <ele>162.7002</ele>
        <time>2026-05-13T10:03:41+02:00</time>
      </trkpt>
      <trkpt lat="45.79808" lon="4.83083">
        <ele>162.5</ele>
        <time>2026-05-13T10:03:42+02:00</time>
      </trkpt>
      <trkpt lat="45.79812" lon="4.83092">
        <ele>162.10059</ele>
        <time>2026-05-13T10:03:43+02:00</time>
      </trkpt>
      <trkpt lat="45.79816" lon="4.83101">
        <ele>162.2998</ele>
        <time>2026-05-13T10:03:44+02:00</time>
      </trkpt>
      <trkpt lat="45.7982" lon="4.83111">
        <ele>162.40039</ele>
        <time>2026-05-13T10:03:45+02:00</time>
      </trkpt>
      <trkpt lat="45.79823" lon="4.8312">
        <ele>162.5</ele>
        <time>2026-05-13T10:03:46+02:00</time>
      </trkpt>
      <trkpt lat="45.79827" lon="4.83129">
        <ele>162.7002</ele>
        <time>2026-05-13T10:03:47+02:00</time>
      </trkpt>
      <trkpt lat="45.79831" lon="4.83137">
        <ele>162.60059</ele>
        <time>2026-05-13T10:03:48+02:00</time>
      </trkpt>
      <trkpt lat="45.79835" lon="4.83146">
        <ele>162.2998</ele>
        <time>2026-05-13T10:03:49+02:00</time>
      </trkpt>
      <trkpt lat="45.79838" lon="4.83153">
        <ele>162.40039</ele>
        <time>2026-05-13T10:03:50+02:00</time>
      </trkpt>
      <trkpt lat="45.79841" lon="4.8316">
        <ele>162.60059</ele>
        <time>2026-05-13T10:03:51+02:00</time>
      </trkpt>
      <trkpt lat="45.79843" lon="4.83165">
        <ele>162.5</ele>
        <time>2026-05-13T10:03:52+02:00</time>
      </trkpt>
      <trkpt lat="45.79846" lon="4.83171">
        <ele>162.7002</ele>
        <time>2026-05-13T10:03:53+02:00</time>
      </trkpt>
      <trkpt lat="45.79848" lon="4.83177">
        <ele>162.7998</ele>
        <time>2026-05-13T10:03:54+02:00</time>
      </trkpt>
      <trkpt lat="45.79851" lon="4.83182">
        <ele>162.7998</ele>
        <time>2026-05-13T10:03:55+02:00</time>
      </trkpt>
      <trkpt lat="45.79853" lon="4.83187">
        <ele>162.60059</ele>
        <time>2026-05-13T10:03:56+02:00</time>
      </trkpt>
      <trkpt lat="45.79855" lon="4.83191">
        <ele>162.60059</ele>
        <time>2026-05-13T10:03:57+02:00</time>
      </trkpt>
      <trkpt lat="45.79856" lon="4.83194">
        <ele>162.7002</ele>
        <time>2026-05-13T10:03:58+02:00</time>
      </trkpt>
      <trkpt lat="45.79857" lon="4.83197">
        <ele>162.7002</ele>
        <time>2026-05-13T10:03:59+02:00</time>
      </trkpt>
      <trkpt lat="45.79858" lon="4.83199">
        <ele>162.7002</ele>
        <time>2026-05-13T10:04:00+02:00</time>
      </trkpt>
      <trkpt lat="45.79859" lon="4.83201">
        <ele>162.40039</ele>
        <time>2026-05-13T10:04:01+02:00</time>
      </trkpt>
      <trkpt lat="45.7986" lon="4.83203">
        <ele>162.5</ele>
        <time>2026-05-13T10:04:02+02:00</time>
      </trkpt>
      <trkpt lat="45.7986" lon="4.83205">
        <ele>162.5</ele>
        <time>2026-05-13T10:04:03+02:00</time>
      </trkpt>
      <trkpt lat="45.79861" lon="4.83207">
        <ele>162.5</ele>
        <time>2026-05-13T10:04:04+02:00</time>
      </trkpt>
      <trkpt lat="45.79862" lon="4.83211">
        <ele>162.60059</ele>
        <time>2026-05-13T10:04:05+02:00</time>
      </trkpt>
      <trkpt lat="45.79862" lon="4.83214">
        <ele>162.60059</ele>
        <time>2026-05-13T10:04:06+02:00</time>
      </trkpt>
      <trkpt lat="45.79863" lon="4.83218">
        <ele>162.60059</ele>
        <time>2026-05-13T10:04:07+02:00</time>
      </trkpt>
      <trkpt lat="45.79865" lon="4.83222">
        <ele>162.7002</ele>
        <time>2026-05-13T10:04:08+02:00</time>
      </trkpt>
      <trkpt lat="45.79866" lon="4.83226">
        <ele>162.7002</ele>
        <time>2026-05-13T10:04:09+02:00</time>
      </trkpt>
      <trkpt lat="45.79867" lon="4.83229">
        <ele>162.7002</ele>
        <time>2026-05-13T10:04:10+02:00</time>
      </trkpt>
      <trkpt lat="45.79867" lon="4.83232">
        <ele>162.7002</ele>
        <time>2026-05-13T10:04:11+02:00</time>
      </trkpt>
      <trkpt lat="45.79868" lon="4.83235">
        <ele>162.7002</ele>
        <time>2026-05-13T10:04:12+02:00</time>
      </trkpt>
      <trkpt lat="45.79869" lon="4.83238">
        <ele>162.7998</ele>
        <time>2026-05-13T10:04:13+02:00</time>
      </trkpt>
      <trkpt lat="45.7987" lon="4.83241">
        <ele>162.7998</ele>
        <time>2026-05-13T10:04:14+02:00</time>
      </trkpt>
      <trkpt lat="45.79872" lon="4.83244">
        <ele>162.7998</ele>
        <time>2026-05-13T10:04:15+02:00</time>
      </trkpt>
      <trkpt lat="45.79873" lon="4.83249">
        <ele>162.7998</ele>
        <time>2026-05-13T10:04:16+02:00</time>
      </trkpt>
      <trkpt lat="45.79876" lon="4.83254">
        <ele>162.7998</ele>
        <time>2026-05-13T10:04:17+02:00</time>
      </trkpt>
      <trkpt lat="45.79878" lon="4.8326">
        <ele>162.7002</ele>
        <time>2026-05-13T10:04:18+02:00</time>
      </trkpt>
      <trkpt lat="45.7988" lon="4.83267">
        <ele>162.7002</ele>
        <time>2026-05-13T10:04:19+02:00</time>
      </trkpt>
      <trkpt lat="45.79883" lon="4.83273">
        <ele>162.60059</ele>
        <time>2026-05-13T10:04:20+02:00</time>
      </trkpt>
      <trkpt lat="45.79884" lon="4.83281">
        <ele>162.60059</ele>
        <time>2026-05-13T10:04:21+02:00</time>
      </trkpt>
      <trkpt lat="45.79886" lon="4.83289">
        <ele>162.60059</ele>
        <time>2026-05-13T10:04:22+02:00</time>
      </trkpt>
      <trkpt lat="45.79887" lon="4.83296">
        <ele>162.60059</ele>
        <time>2026-05-13T10:04:23+02:00</time>
      </trkpt>
      <trkpt lat="45.79889" lon="4.83304">
        <ele>162.60059</ele>
        <time>2026-05-13T10:04:24+02:00</time>
      </trkpt>
      <trkpt lat="45.79891" lon="4.83311">
        <ele>162.60059</ele>
        <time>2026-05-13T10:04:25+02:00</time>
      </trkpt>
      <trkpt lat="45.79893" lon="4.83318">
        <ele>162.7002</ele>
        <time>2026-05-13T10:04:26+02:00</time>
      </trkpt>
      <trkpt lat="45.79895" lon="4.83325">
        <ele>162.7002</ele>
        <time>2026-05-13T10:04:27+02:00</time>
      </trkpt>
      <trkpt lat="45.79897" lon="4.83332">
        <ele>162.7998</ele>
        <time>2026-05-13T10:04:28+02:00</time>
      </trkpt>
      <trkpt lat="45.79899" lon="4.83339">
        <ele>162.7998</ele>
        <time>2026-05-13T10:04:29+02:00</time>
      </trkpt>
      <trkpt lat="45.79901" lon="4.83347">
        <ele>162.7998</ele>
        <time>2026-05-13T10:04:30+02:00</time>
      </trkpt>
      <trkpt lat="45.79904" lon="4.83354">
        <ele>162.7998</ele>
        <time>2026-05-13T10:04:31+02:00</time>
      </trkpt>
      <trkpt lat="45.79907" lon="4.83362">
        <ele>162.7002</ele>
        <time>2026-05-13T10:04:32+02:00</time>
      </trkpt>
      <trkpt lat="45.79909" lon="4.8337">
        <ele>162.7002</ele>
        <time>2026-05-13T10:04:33+02:00</time>
      </trkpt>
      <trkpt lat="45.79911" lon="4.83377">
        <ele>162.7002</ele>
        <time>2026-05-13T10:04:34+02:00</time>
      </trkpt>
      <trkpt lat="45.79913" lon="4.83385">
        <ele>162.5</ele>
        <time>2026-05-13T10:04:35+02:00</time>
      </trkpt>
      <trkpt lat="45.79915" lon="4.83393">
        <ele>162.60059</ele>
        <time>2026-05-13T10:04:36+02:00</time>
      </trkpt>
      <trkpt lat="45.79918" lon="4.83401">
        <ele>162.60059</ele>
        <time>2026-05-13T10:04:37+02:00</time>
      </trkpt>
      <trkpt lat="45.7992" lon="4.83409">
        <ele>162.7002</ele>
        <time>2026-05-13T10:04:38+02:00</time>
      </trkpt>
      <trkpt lat="45.79923" lon="4.83418">
        <ele>162.7002</ele>
        <time>2026-05-13T10:04:39+02:00</time>
      </trkpt>
      <trkpt lat="45.79925" lon="4.83426">
        <ele>162.7998</ele>
        <time>2026-05-13T10:04:40+02:00</time>
      </trkpt>
      <trkpt lat="45.79928" lon="4.83434">
        <ele>162.7998</ele>
        <time>2026-05-13T10:04:41+02:00</time>
      </trkpt>
      <trkpt lat="45.7993" lon="4.83442">
        <ele>162.7998</ele>
        <time>2026-05-13T10:04:42+02:00</time>
      </trkpt>
      <trkpt lat="45.79932" lon="4.83451">
        <ele>162.7002</ele>
        <time>2026-05-13T10:04:43+02:00</time>
      </trkpt>
      <trkpt lat="45.79934" lon="4.8346">
        <ele>162.7002</ele>
        <time>2026-05-13T10:04:44+02:00</time>
      </trkpt>
      <trkpt lat="45.79937" lon="4.83468">
        <ele>162.60059</ele>
        <time>2026-05-13T10:04:45+02:00</time>
      </trkpt>
      <trkpt lat="45.79939" lon="4.83476">
        <ele>162.60059</ele>
        <time>2026-05-13T10:04:46+02:00</time>
      </trkpt>
      <trkpt lat="45.79942" lon="4.83485">
        <ele>162.7002</ele>
        <time>2026-05-13T10:04:47+02:00</time>
      </trkpt>
      <trkpt lat="45.79944" lon="4.83494">
        <ele>162.60059</ele>
        <time>2026-05-13T10:04:48+02:00</time>
      </trkpt>
      <trkpt lat="45.79947" lon="4.83502">
        <ele>162.7002</ele>
        <time>2026-05-13T10:04:49+02:00</time>
      </trkpt>
      <trkpt lat="45.7995" lon="4.83511">
        <ele>162.7002</ele>
        <time>2026-05-13T10:04:50+02:00</time>
      </trkpt>
      <trkpt lat="45.79952" lon="4.8352">
        <ele>162.7998</ele>
        <time>2026-05-13T10:04:51+02:00</time>
      </trkpt>
      <trkpt lat="45.79954" lon="4.83529">
        <ele>162.7998</ele>
        <time>2026-05-13T10:04:52+02:00</time>
      </trkpt>
      <trkpt lat="45.79958" lon="4.83538">
        <ele>162.7998</ele>
        <time>2026-05-13T10:04:53+02:00</time>
      </trkpt>
      <trkpt lat="45.7996" lon="4.83546">
        <ele>162.7998</ele>
        <time>2026-05-13T10:04:54+02:00</time>
      </trkpt>
      <trkpt lat="45.79963" lon="4.83554">
        <ele>162.7002</ele>
        <time>2026-05-13T10:04:55+02:00</time>
      </trkpt>
      <trkpt lat="45.79966" lon="4.83562">
        <ele>162.7002</ele>
        <time>2026-05-13T10:04:56+02:00</time>
      </trkpt>
      <trkpt lat="45.79969" lon="4.83571">
        <ele>162.5</ele>
        <time>2026-05-13T10:04:57+02:00</time>
      </trkpt>
      <trkpt lat="45.79972" lon="4.83579">
        <ele>162.5</ele>
        <time>2026-05-13T10:04:58+02:00</time>
      </trkpt>
      <trkpt lat="45.79976" lon="4.83587">
        <ele>162.40039</ele>
        <time>2026-05-13T10:04:59+02:00</time>
      </trkpt>
      <trkpt lat="45.79979" lon="4.83594">
        <ele>162.5</ele>
        <time>2026-05-13T10:05:00+02:00</time>
      </trkpt>
      <trkpt lat="45.79982" lon="4.83602">
        <ele>162.5</ele>
        <time>2026-05-13T10:05:01+02:00</time>
      </trkpt>
      <trkpt lat="45.79986" lon="4.83609">
        <ele>162.7998</ele>
        <time>2026-05-13T10:05:02+02:00</time>
      </trkpt>
      <trkpt lat="45.79988" lon="4.83616">
        <ele>162.7998</ele>
        <time>2026-05-13T10:05:03+02:00</time>
      </trkpt>
      <trkpt lat="45.79992" lon="4.83623">
        <ele>162.90039</ele>
        <time>2026-05-13T10:05:04+02:00</time>
      </trkpt>
      <trkpt lat="45.79995" lon="4.83631">
        <ele>162.60059</ele>
        <time>2026-05-13T10:05:05+02:00</time>
      </trkpt>
      <trkpt lat="45.79999" lon="4.83638">
        <ele>162.60059</ele>
        <time>2026-05-13T10:05:06+02:00</time>
      </trkpt>
      <trkpt lat="45.80003" lon="4.83646">
        <ele>162.40039</ele>
        <time>2026-05-13T10:05:07+02:00</time>
      </trkpt>
      <trkpt lat="45.80007" lon="4.83654">
        <ele>162.2998</ele>
        <time>2026-05-13T10:05:08+02:00</time>
      </trkpt>
      <trkpt lat="45.80011" lon="4.83663">
        <ele>162.60059</ele>
        <time>2026-05-13T10:05:09+02:00</time>
      </trkpt>
      <trkpt lat="45.80015" lon="4.83671">
        <ele>162.60059</ele>
        <time>2026-05-13T10:05:10+02:00</time>
      </trkpt>
      <trkpt lat="45.80019" lon="4.83679">
        <ele>162.60059</ele>
        <time>2026-05-13T10:05:11+02:00</time>
      </trkpt>
      <trkpt lat="45.80023" lon="4.83686">
        <ele>162.40039</ele>
        <time>2026-05-13T10:05:12+02:00</time>
      </trkpt>
      <trkpt lat="45.80028" lon="4.83694">
        <ele>162.60059</ele>
        <time>2026-05-13T10:05:13+02:00</time>
      </trkpt>
      <trkpt lat="45.80032" lon="4.83702">
        <ele>162.7998</ele>
        <time>2026-05-13T10:05:14+02:00</time>
      </trkpt>
      <trkpt lat="45.80037" lon="4.83709">
        <ele>162.7998</ele>
        <time>2026-05-13T10:05:15+02:00</time>
      </trkpt>
      <trkpt lat="45.80041" lon="4.83717">
        <ele>162.60059</ele>
        <time>2026-05-13T10:05:16+02:00</time>
      </trkpt>
      <trkpt lat="45.80045" lon="4.83724">
        <ele>162</ele>
        <time>2026-05-13T10:05:17+02:00</time>
      </trkpt>
      <trkpt lat="45.80049" lon="4.8373">
        <ele>162.10059</ele>
        <time>2026-05-13T10:05:18+02:00</time>
      </trkpt>
      <trkpt lat="45.80053" lon="4.83737">
        <ele>162</ele>
        <time>2026-05-13T10:05:19+02:00</time>
      </trkpt>
      <trkpt lat="45.80057" lon="4.83744">
        <ele>162.7998</ele>
        <time>2026-05-13T10:05:20+02:00</time>
      </trkpt>
      <trkpt lat="45.80061" lon="4.8375">
        <ele>162.7998</ele>
        <time>2026-05-13T10:05:21+02:00</time>
      </trkpt>
      <trkpt lat="45.80064" lon="4.83757">
        <ele>163.7002</ele>
        <time>2026-05-13T10:05:22+02:00</time>
      </trkpt>
      <trkpt lat="45.80066" lon="4.83762">
        <ele>163.2998</ele>
        <time>2026-05-13T10:05:23+02:00</time>
      </trkpt>
      <trkpt lat="45.80069" lon="4.83769">
        <ele>164.2998</ele>
        <time>2026-05-13T10:05:24+02:00</time>
      </trkpt>
      <trkpt lat="45.80073" lon="4.83774">
        <ele>164.2998</ele>
        <time>2026-05-13T10:05:25+02:00</time>
      </trkpt>
      <trkpt lat="45.80077" lon="4.8378">
        <ele>164</ele>
        <time>2026-05-13T10:05:26+02:00</time>
      </trkpt>
      <trkpt lat="45.8008" lon="4.83785">
        <ele>163.2998</ele>
        <time>2026-05-13T10:05:27+02:00</time>
      </trkpt>
      <trkpt lat="45.80084" lon="4.83791">
        <ele>163.60059</ele>
        <time>2026-05-13T10:05:28+02:00</time>
      </trkpt>
      <trkpt lat="45.80088" lon="4.83796">
        <ele>163.40039</ele>
        <time>2026-05-13T10:05:29+02:00</time>
      </trkpt>
      <trkpt lat="45.80092" lon="4.83802">
        <ele>163.10059</ele>
        <time>2026-05-13T10:05:30+02:00</time>
      </trkpt>
      <trkpt lat="45.80096" lon="4.83806">
        <ele>163.5</ele>
        <time>2026-05-13T10:05:31+02:00</time>
      </trkpt>
      <trkpt lat="45.801" lon="4.83811">
        <ele>163.2998</ele>
        <time>2026-05-13T10:05:32+02:00</time>
      </trkpt>
      <trkpt lat="45.80105" lon="4.83816">
        <ele>163.60059</ele>
        <time>2026-05-13T10:05:33+02:00</time>
      </trkpt>
      <trkpt lat="45.8011" lon="4.8382">
        <ele>163.2002</ele>
        <time>2026-05-13T10:05:34+02:00</time>
      </trkpt>
      <trkpt lat="45.80114" lon="4.83825">
        <ele>163.2002</ele>
        <time>2026-05-13T10:05:35+02:00</time>
      </trkpt>
      <trkpt lat="45.80118" lon="4.83829">
        <ele>163</ele>
        <time>2026-05-13T10:05:36+02:00</time>
      </trkpt>
      <trkpt lat="45.80122" lon="4.83832">
        <ele>163</ele>
        <time>2026-05-13T10:05:37+02:00</time>
      </trkpt>
      <trkpt lat="45.80126" lon="4.83835">
        <ele>163.5</ele>
        <time>2026-05-13T10:05:38+02:00</time>
      </trkpt>
      <trkpt lat="45.80131" lon="4.83839">
        <ele>163.60059</ele>
        <time>2026-05-13T10:05:39+02:00</time>
      </trkpt>
      <trkpt lat="45.80135" lon="4.83842">
        <ele>164.2002</ele>
        <time>2026-05-13T10:05:40+02:00</time>
      </trkpt>
      <trkpt lat="45.80139" lon="4.83846">
        <ele>163.10059</ele>
        <time>2026-05-13T10:05:41+02:00</time>
      </trkpt>
      <trkpt lat="45.80142" lon="4.83849">
        <ele>162.90039</ele>
        <time>2026-05-13T10:05:42+02:00</time>
      </trkpt>
      <trkpt lat="45.80146" lon="4.83852">
        <ele>162.90039</ele>
        <time>2026-05-13T10:05:43+02:00</time>
      </trkpt>
      <trkpt lat="45.8015" lon="4.83855">
        <ele>162</ele>
        <time>2026-05-13T10:05:44+02:00</time>
      </trkpt>
      <trkpt lat="45.80155" lon="4.83858">
        <ele>162.5</ele>
        <time>2026-05-13T10:05:45+02:00</time>
      </trkpt>
      <trkpt lat="45.80159" lon="4.83861">
        <ele>163.90039</ele>
        <time>2026-05-13T10:05:46+02:00</time>
      </trkpt>
      <trkpt lat="45.80163" lon="4.83864">
        <ele>163.2002</ele>
        <time>2026-05-13T10:05:47+02:00</time>
      </trkpt>
      <trkpt lat="45.80167" lon="4.83867">
        <ele>164.7998</ele>
        <time>2026-05-13T10:05:48+02:00</time>
      </trkpt>
      <trkpt lat="45.80171" lon="4.8387">
        <ele>166.2998</ele>
        <time>2026-05-13T10:05:49+02:00</time>
      </trkpt>
      <trkpt lat="45.80175" lon="4.83873">
        <ele>164.10059</ele>
        <time>2026-05-13T10:05:50+02:00</time>
      </trkpt>
      <trkpt lat="45.80179" lon="4.83875">
        <ele>164.40039</ele>
        <time>2026-05-13T10:05:51+02:00</time>
      </trkpt>
      <trkpt lat="45.80183" lon="4.83877">
        <ele>164.40039</ele>
        <time>2026-05-13T10:05:52+02:00</time>
      </trkpt>
      <trkpt lat="45.80187" lon="4.83879">
        <ele>164.40039</ele>
        <time>2026-05-13T10:05:53+02:00</time>
      </trkpt>
      <trkpt lat="45.8019" lon="4.83881">
        <ele>162.5</ele>
        <time>2026-05-13T10:05:54+02:00</time>
      </trkpt>
      <trkpt lat="45.80195" lon="4.83884">
        <ele>162.40039</ele>
        <time>2026-05-13T10:05:55+02:00</time>
      </trkpt>
      <trkpt lat="45.80198" lon="4.83886">
        <ele>162.40039</ele>
        <time>2026-05-13T10:05:56+02:00</time>
      </trkpt>
      <trkpt lat="45.80203" lon="4.83888">
        <ele>161.90039</ele>
        <time>2026-05-13T10:05:57+02:00</time>
      </trkpt>
      <trkpt lat="45.80206" lon="4.83889">
        <ele>162.2998</ele>
        <time>2026-05-13T10:05:58+02:00</time>
      </trkpt>
      <trkpt lat="45.80211" lon="4.83891">
        <ele>162.2998</ele>
        <time>2026-05-13T10:05:59+02:00</time>
      </trkpt>
      <trkpt lat="45.80215" lon="4.83893">
        <ele>163.2998</ele>
        <time>2026-05-13T10:06:00+02:00</time>
      </trkpt>
      <trkpt lat="45.80219" lon="4.83895">
        <ele>164.5</ele>
        <time>2026-05-13T10:06:01+02:00</time>
      </trkpt>
      <trkpt lat="45.80224" lon="4.83896">
        <ele>164.5</ele>
        <time>2026-05-13T10:06:02+02:00</time>
      </trkpt>
      <trkpt lat="45.80228" lon="4.83898">
        <ele>163.90039</ele>
        <time>2026-05-13T10:06:03+02:00</time>
      </trkpt>
      <trkpt lat="45.80232" lon="4.83899">
        <ele>164.10059</ele>
        <time>2026-05-13T10:06:04+02:00</time>
      </trkpt>
      <trkpt lat="45.80236" lon="4.839">
        <ele>164.7002</ele>
        <time>2026-05-13T10:06:05+02:00</time>
      </trkpt>
      <trkpt lat="45.8024" lon="4.83901">
        <ele>164.7002</ele>
        <time>2026-05-13T10:06:06+02:00</time>
      </trkpt>
      <trkpt lat="45.80243" lon="4.83903">
        <ele>165.90039</ele>
        <time>2026-05-13T10:06:07+02:00</time>
      </trkpt>
      <trkpt lat="45.80246" lon="4.83904">
        <ele>165.90039</ele>
        <time>2026-05-13T10:06:08+02:00</time>
      </trkpt>
      <trkpt lat="45.8025" lon="4.83905">
        <ele>166</ele>
        <time>2026-05-13T10:06:09+02:00</time>
      </trkpt>
      <trkpt lat="45.80254" lon="4.83907">
        <ele>170.60059</ele>
        <time>2026-05-13T10:06:10+02:00</time>
      </trkpt>
      <trkpt lat="45.80258" lon="4.83909">
        <ele>170.60059</ele>
        <time>2026-05-13T10:06:11+02:00</time>
      </trkpt>
      <trkpt lat="45.80262" lon="4.83911">
        <ele>176.40039</ele>
        <time>2026-05-13T10:06:12+02:00</time>
      </trkpt>
      <trkpt lat="45.80266" lon="4.83912">
        <ele>180.7998</ele>
        <time>2026-05-13T10:06:13+02:00</time>
      </trkpt>
      <trkpt lat="45.8027" lon="4.83914">
        <ele>174.90039</ele>
        <time>2026-05-13T10:06:14+02:00</time>
      </trkpt>
      <trkpt lat="45.80274" lon="4.83917">
        <ele>176</ele>
        <time>2026-05-13T10:06:15+02:00</time>
      </trkpt>
      <trkpt lat="45.80278" lon="4.83919">
        <ele>176.90039</ele>
        <time>2026-05-13T10:06:16+02:00</time>
      </trkpt>
      <trkpt lat="45.80282" lon="4.83921">
        <ele>176.90039</ele>
        <time>2026-05-13T10:06:17+02:00</time>
      </trkpt>
      <trkpt lat="45.80285" lon="4.83924">
        <ele>176.10059</ele>
        <time>2026-05-13T10:06:18+02:00</time>
      </trkpt>
      <trkpt lat="45.80298" lon="4.83933">
        <ele>181</ele>
        <time>2026-05-13T10:06:19+02:00</time>
      </trkpt>
      <trkpt lat="45.80302" lon="4.83936">
        <ele>182.5</ele>
        <time>2026-05-13T10:06:20+02:00</time>
      </trkpt>
      <trkpt lat="45.80306" lon="4.8394">
        <ele>177.60059</ele>
        <time>2026-05-13T10:06:21+02:00</time>
      </trkpt>
      <trkpt lat="45.80311" lon="4.83945">
        <ele>177.90039</ele>
        <time>2026-05-13T10:06:22+02:00</time>
      </trkpt>
      <trkpt lat="45.80316" lon="4.83949">
        <ele>170.2002</ele>
        <time>2026-05-13T10:06:23+02:00</time>
      </trkpt>
      <trkpt lat="45.80321" lon="4.83953">
        <ele>170.60059</ele>
        <time>2026-05-13T10:06:24+02:00</time>
      </trkpt>
      <trkpt lat="45.80327" lon="4.83958">
        <ele>167.40039</ele>
        <time>2026-05-13T10:06:25+02:00</time>
      </trkpt>
      <trkpt lat="45.80332" lon="4.83963">
        <ele>170.2002</ele>
        <time>2026-05-13T10:06:26+02:00</time>
      </trkpt>
      <trkpt lat="45.80338" lon="4.83969">
        <ele>170</ele>
        <time>2026-05-13T10:06:27+02:00</time>
      </trkpt>
      <trkpt lat="45.80345" lon="4.83975">
        <ele>167.2002</ele>
        <time>2026-05-13T10:06:28+02:00</time>
      </trkpt>
      <trkpt lat="45.80352" lon="4.83981">
        <ele>166.60059</ele>
        <time>2026-05-13T10:06:29+02:00</time>
      </trkpt>
      <trkpt lat="45.8036" lon="4.83987">
        <ele>163.90039</ele>
        <time>2026-05-13T10:06:30+02:00</time>
      </trkpt>
      <trkpt lat="45.80368" lon="4.83993">
        <ele>163.2002</ele>
        <time>2026-05-13T10:06:31+02:00</time>
      </trkpt>
      <trkpt lat="45.80376" lon="4.84">
        <ele>163</ele>
        <time>2026-05-13T10:06:32+02:00</time>
      </trkpt>
      <trkpt lat="45.80384" lon="4.84006">
        <ele>163.40039</ele>
        <time>2026-05-13T10:06:33+02:00</time>
      </trkpt>
      <trkpt lat="45.80393" lon="4.84012">
        <ele>163.40039</ele>
        <time>2026-05-13T10:06:34+02:00</time>
      </trkpt>
      <trkpt lat="45.80401" lon="4.84018">
        <ele>162.2002</ele>
        <time>2026-05-13T10:06:35+02:00</time>
      </trkpt>
      <trkpt lat="45.8041" lon="4.84023">
        <ele>163.40039</ele>
        <time>2026-05-13T10:06:36+02:00</time>
      </trkpt>
      <trkpt lat="45.80419" lon="4.84028">
        <ele>164.90039</ele>
        <time>2026-05-13T10:06:37+02:00</time>
      </trkpt>
      <trkpt lat="45.80427" lon="4.84032">
        <ele>169.10059</ele>
        <time>2026-05-13T10:06:38+02:00</time>
      </trkpt>
      <trkpt lat="45.80436" lon="4.84037">
        <ele>168.90039</ele>
        <time>2026-05-13T10:06:39+02:00</time>
      </trkpt>
      <trkpt lat="45.80444" lon="4.84042">
        <ele>169</ele>
        <time>2026-05-13T10:06:40+02:00</time>
      </trkpt>
      <trkpt lat="45.80453" lon="4.84046">
        <ele>163.7002</ele>
        <time>2026-05-13T10:06:41+02:00</time>
      </trkpt>
      <trkpt lat="45.80462" lon="4.84051">
        <ele>162</ele>
        <time>2026-05-13T10:06:42+02:00</time>
      </trkpt>
      <trkpt lat="45.80472" lon="4.84056">
        <ele>162.10059</ele>
        <time>2026-05-13T10:06:43+02:00</time>
      </trkpt>
      <trkpt lat="45.80481" lon="4.8406">
        <ele>162.5</ele>
        <time>2026-05-13T10:06:44+02:00</time>
      </trkpt>
      <trkpt lat="45.8049" lon="4.84065">
        <ele>163.10059</ele>
        <time>2026-05-13T10:06:45+02:00</time>
      </trkpt>
      <trkpt lat="45.80499" lon="4.8407">
        <ele>163.2998</ele>
        <time>2026-05-13T10:06:46+02:00</time>
      </trkpt>
      <trkpt lat="45.80508" lon="4.84076">
        <ele>163.2998</ele>
        <time>2026-05-13T10:06:47+02:00</time>
      </trkpt>
      <trkpt lat="45.80517" lon="4.84081">
        <ele>163</ele>
        <time>2026-05-13T10:06:48+02:00</time>
      </trkpt>
      <trkpt lat="45.80526" lon="4.84086">
        <ele>162.90039</ele>
        <time>2026-05-13T10:06:49+02:00</time>
      </trkpt>
      <trkpt lat="45.80536" lon="4.84091">
        <ele>162.7998</ele>
        <time>2026-05-13T10:06:50+02:00</time>
      </trkpt>
      <trkpt lat="45.80545" lon="4.84096">
        <ele>163.10059</ele>
        <time>2026-05-13T10:06:51+02:00</time>
      </trkpt>
      <trkpt lat="45.80554" lon="4.84101">
        <ele>163.10059</ele>
        <time>2026-05-13T10:06:52+02:00</time>
      </trkpt>
      <trkpt lat="45.80562" lon="4.84106">
        <ele>163.2998</ele>
        <time>2026-05-13T10:06:53+02:00</time>
      </trkpt>
      <trkpt lat="45.80571" lon="4.84111">
        <ele>163.2002</ele>
        <time>2026-05-13T10:06:54+02:00</time>
      </trkpt>
      <trkpt lat="45.80579" lon="4.84116">
        <ele>163.10059</ele>
        <time>2026-05-13T10:06:55+02:00</time>
      </trkpt>
      <trkpt lat="45.80587" lon="4.8412">
        <ele>163</ele>
        <time>2026-05-13T10:06:56+02:00</time>
      </trkpt>
      <trkpt lat="45.80595" lon="4.84124">
        <ele>162.7998</ele>
        <time>2026-05-13T10:06:57+02:00</time>
      </trkpt>
      <trkpt lat="45.80602" lon="4.84128">
        <ele>163.2002</ele>
        <time>2026-05-13T10:06:58+02:00</time>
      </trkpt>
      <trkpt lat="45.8061" lon="4.84132">
        <ele>163.2002</ele>
        <time>2026-05-13T10:06:59+02:00</time>
      </trkpt>
      <trkpt lat="45.80617" lon="4.84136">
        <ele>163.2002</ele>
        <time>2026-05-13T10:07:00+02:00</time>
      </trkpt>
      <trkpt lat="45.80625" lon="4.8414">
        <ele>163.2998</ele>
        <time>2026-05-13T10:07:01+02:00</time>
      </trkpt>
      <trkpt lat="45.80632" lon="4.84143">
        <ele>163.2998</ele>
        <time>2026-05-13T10:07:02+02:00</time>
      </trkpt>
      <trkpt lat="45.80639" lon="4.84146">
        <ele>163.2998</ele>
        <time>2026-05-13T10:07:03+02:00</time>
      </trkpt>
      <trkpt lat="45.80647" lon="4.84149">
        <ele>163.2002</ele>
        <time>2026-05-13T10:07:04+02:00</time>
      </trkpt>
      <trkpt lat="45.80654" lon="4.84152">
        <ele>163.2002</ele>
        <time>2026-05-13T10:07:05+02:00</time>
      </trkpt>
      <trkpt lat="45.80661" lon="4.84155">
        <ele>163.2002</ele>
        <time>2026-05-13T10:07:06+02:00</time>
      </trkpt>
      <trkpt lat="45.80668" lon="4.84158">
        <ele>163.2002</ele>
        <time>2026-05-13T10:07:07+02:00</time>
      </trkpt>
      <trkpt lat="45.80675" lon="4.84161">
        <ele>163.2002</ele>
        <time>2026-05-13T10:07:08+02:00</time>
      </trkpt>
      <trkpt lat="45.80683" lon="4.84164">
        <ele>163.2998</ele>
        <time>2026-05-13T10:07:09+02:00</time>
      </trkpt>
      <trkpt lat="45.8069" lon="4.84166">
        <ele>163.2998</ele>
        <time>2026-05-13T10:07:10+02:00</time>
      </trkpt>
      <trkpt lat="45.80697" lon="4.84169">
        <ele>163.10059</ele>
        <time>2026-05-13T10:07:11+02:00</time>
      </trkpt>
      <trkpt lat="45.80705" lon="4.84171">
        <ele>163.10059</ele>
        <time>2026-05-13T10:07:12+02:00</time>
      </trkpt>
      <trkpt lat="45.80712" lon="4.84174">
        <ele>163</ele>
        <time>2026-05-13T10:07:13+02:00</time>
      </trkpt>
      <trkpt lat="45.80719" lon="4.84176">
        <ele>163</ele>
        <time>2026-05-13T10:07:14+02:00</time>
      </trkpt>
      <trkpt lat="45.80726" lon="4.84177">
        <ele>163</ele>
        <time>2026-05-13T10:07:15+02:00</time>
      </trkpt>
      <trkpt lat="45.80734" lon="4.84179">
        <ele>163</ele>
        <time>2026-05-13T10:07:16+02:00</time>
      </trkpt>
      <trkpt lat="45.80741" lon="4.84181">
        <ele>163.2002</ele>
        <time>2026-05-13T10:07:17+02:00</time>
      </trkpt>
      <trkpt lat="45.80748" lon="4.84183">
        <ele>163.2002</ele>
        <time>2026-05-13T10:07:18+02:00</time>
      </trkpt>
      <trkpt lat="45.80756" lon="4.84185">
        <ele>163.2002</ele>
        <time>2026-05-13T10:07:19+02:00</time>
      </trkpt>
      <trkpt lat="45.80764" lon="4.84186">
        <ele>163.2002</ele>
        <time>2026-05-13T10:07:20+02:00</time>
      </trkpt>
      <trkpt lat="45.80771" lon="4.84188">
        <ele>163.2998</ele>
        <time>2026-05-13T10:07:21+02:00</time>
      </trkpt>
      <trkpt lat="45.80778" lon="4.8419">
        <ele>163.2998</ele>
        <time>2026-05-13T10:07:22+02:00</time>
      </trkpt>
      <trkpt lat="45.80786" lon="4.84191">
        <ele>163.2002</ele>
        <time>2026-05-13T10:07:23+02:00</time>
      </trkpt>
      <trkpt lat="45.80793" lon="4.84192">
        <ele>163</ele>
        <time>2026-05-13T10:07:24+02:00</time>
      </trkpt>
      <trkpt lat="45.80801" lon="4.84193">
        <ele>162.90039</ele>
        <time>2026-05-13T10:07:25+02:00</time>
      </trkpt>
      <trkpt lat="45.80808" lon="4.84194">
        <ele>162.90039</ele>
        <time>2026-05-13T10:07:26+02:00</time>
      </trkpt>
      <trkpt lat="45.80816" lon="4.84195">
        <ele>162.90039</ele>
        <time>2026-05-13T10:07:27+02:00</time>
      </trkpt>
      <trkpt lat="45.80823" lon="4.84196">
        <ele>162.7998</ele>
        <time>2026-05-13T10:07:28+02:00</time>
      </trkpt>
      <trkpt lat="45.80831" lon="4.84197">
        <ele>163.2002</ele>
        <time>2026-05-13T10:07:29+02:00</time>
      </trkpt>
      <trkpt lat="45.80839" lon="4.84198">
        <ele>163.2002</ele>
        <time>2026-05-13T10:07:30+02:00</time>
      </trkpt>
      <trkpt lat="45.80847" lon="4.84198">
        <ele>163.2998</ele>
        <time>2026-05-13T10:07:31+02:00</time>
      </trkpt>
      <trkpt lat="45.80854" lon="4.84199">
        <ele>163.2998</ele>
        <time>2026-05-13T10:07:32+02:00</time>
      </trkpt>
      <trkpt lat="45.80861" lon="4.84199">
        <ele>163.2998</ele>
        <time>2026-05-13T10:07:33+02:00</time>
      </trkpt>
      <trkpt lat="45.80869" lon="4.84199">
        <ele>163.2998</ele>
        <time>2026-05-13T10:07:34+02:00</time>
      </trkpt>
      <trkpt lat="45.80876" lon="4.84199">
        <ele>163.2998</ele>
        <time>2026-05-13T10:07:35+02:00</time>
      </trkpt>
      <trkpt lat="45.80883" lon="4.84199">
        <ele>163.2998</ele>
        <time>2026-05-13T10:07:36+02:00</time>
      </trkpt>
      <trkpt lat="45.8089" lon="4.84199">
        <ele>163.2998</ele>
        <time>2026-05-13T10:07:37+02:00</time>
      </trkpt>
      <trkpt lat="45.80897" lon="4.84199">
        <ele>163.2998</ele>
        <time>2026-05-13T10:07:38+02:00</time>
      </trkpt>
      <trkpt lat="45.80905" lon="4.84199">
        <ele>163.40039</ele>
        <time>2026-05-13T10:07:39+02:00</time>
      </trkpt>
      <trkpt lat="45.80911" lon="4.84199">
        <ele>163.40039</ele>
        <time>2026-05-13T10:07:40+02:00</time>
      </trkpt>
      <trkpt lat="45.80918" lon="4.84199">
        <ele>163.40039</ele>
        <time>2026-05-13T10:07:41+02:00</time>
      </trkpt>
      <trkpt lat="45.80925" lon="4.84199">
        <ele>163.2002</ele>
        <time>2026-05-13T10:07:42+02:00</time>
      </trkpt>
      <trkpt lat="45.80932" lon="4.84199">
        <ele>162.90039</ele>
        <time>2026-05-13T10:07:43+02:00</time>
      </trkpt>
      <trkpt lat="45.80938" lon="4.84199">
        <ele>162.60059</ele>
        <time>2026-05-13T10:07:44+02:00</time>
      </trkpt>
      <trkpt lat="45.80945" lon="4.842">
        <ele>162.60059</ele>
        <time>2026-05-13T10:07:45+02:00</time>
      </trkpt>
      <trkpt lat="45.80952" lon="4.842">
        <ele>162.7002</ele>
        <time>2026-05-13T10:07:46+02:00</time>
      </trkpt>
      <trkpt lat="45.80959" lon="4.84201">
        <ele>162.7998</ele>
        <time>2026-05-13T10:07:47+02:00</time>
      </trkpt>
      <trkpt lat="45.80965" lon="4.84201">
        <ele>162.90039</ele>
        <time>2026-05-13T10:07:48+02:00</time>
      </trkpt>
      <trkpt lat="45.80972" lon="4.84202">
        <ele>162.90039</ele>
        <time>2026-05-13T10:07:49+02:00</time>
      </trkpt>
      <trkpt lat="45.80978" lon="4.84203">
        <ele>162.90039</ele>
        <time>2026-05-13T10:07:50+02:00</time>
      </trkpt>
      <trkpt lat="45.80985" lon="4.84204">
        <ele>162.90039</ele>
        <time>2026-05-13T10:07:51+02:00</time>
      </trkpt>
      <trkpt lat="45.80991" lon="4.84205">
        <ele>162.90039</ele>
        <time>2026-05-13T10:07:52+02:00</time>
      </trkpt>
      <trkpt lat="45.80998" lon="4.84206">
        <ele>163.10059</ele>
        <time>2026-05-13T10:07:53+02:00</time>
      </trkpt>
      <trkpt lat="45.81004" lon="4.84207">
        <ele>163.10059</ele>
        <time>2026-05-13T10:07:54+02:00</time>
      </trkpt>
      <trkpt lat="45.81011" lon="4.84209">
        <ele>163.2002</ele>
        <time>2026-05-13T10:07:55+02:00</time>
      </trkpt>
      <trkpt lat="45.81017" lon="4.8421">
        <ele>163.2998</ele>
        <time>2026-05-13T10:07:56+02:00</time>
      </trkpt>
      <trkpt lat="45.81023" lon="4.84211">
        <ele>163.2998</ele>
        <time>2026-05-13T10:07:57+02:00</time>
      </trkpt>
      <trkpt lat="45.8103" lon="4.84213">
        <ele>163.40039</ele>
        <time>2026-05-13T10:07:58+02:00</time>
      </trkpt>
      <trkpt lat="45.81036" lon="4.84215">
        <ele>163.60059</ele>
        <time>2026-05-13T10:07:59+02:00</time>
      </trkpt>
      <trkpt lat="45.81043" lon="4.84217">
        <ele>163.60059</ele>
        <time>2026-05-13T10:08:00+02:00</time>
      </trkpt>
      <trkpt lat="45.81049" lon="4.84219">
        <ele>163.7002</ele>
        <time>2026-05-13T10:08:01+02:00</time>
      </trkpt>
      <trkpt lat="45.81056" lon="4.84221">
        <ele>163.7998</ele>
        <time>2026-05-13T10:08:02+02:00</time>
      </trkpt>
      <trkpt lat="45.81062" lon="4.84223">
        <ele>163.2998</ele>
        <time>2026-05-13T10:08:03+02:00</time>
      </trkpt>
      <trkpt lat="45.81068" lon="4.84225">
        <ele>163</ele>
        <time>2026-05-13T10:08:04+02:00</time>
      </trkpt>
      <trkpt lat="45.81075" lon="4.84228">
        <ele>162.90039</ele>
        <time>2026-05-13T10:08:05+02:00</time>
      </trkpt>
      <trkpt lat="45.81081" lon="4.8423">
        <ele>162.90039</ele>
        <time>2026-05-13T10:08:06+02:00</time>
      </trkpt>
      <trkpt lat="45.81087" lon="4.84232">
        <ele>163.2998</ele>
        <time>2026-05-13T10:08:07+02:00</time>
      </trkpt>
      <trkpt lat="45.81094" lon="4.84235">
        <ele>163.5</ele>
        <time>2026-05-13T10:08:08+02:00</time>
      </trkpt>
      <trkpt lat="45.811" lon="4.84238">
        <ele>163.7002</ele>
        <time>2026-05-13T10:08:09+02:00</time>
      </trkpt>
      <trkpt lat="45.81106" lon="4.84241">
        <ele>163.7002</ele>
        <time>2026-05-13T10:08:10+02:00</time>
      </trkpt>
      <trkpt lat="45.81112" lon="4.84244">
        <ele>163.7002</ele>
        <time>2026-05-13T10:08:11+02:00</time>
      </trkpt>
      <trkpt lat="45.81119" lon="4.84247">
        <ele>163.7002</ele>
        <time>2026-05-13T10:08:12+02:00</time>
      </trkpt>
      <trkpt lat="45.81125" lon="4.8425">
        <ele>163.2002</ele>
        <time>2026-05-13T10:08:13+02:00</time>
      </trkpt>
      <trkpt lat="45.81131" lon="4.84254">
        <ele>163.2002</ele>
        <time>2026-05-13T10:08:14+02:00</time>
      </trkpt>
      <trkpt lat="45.81138" lon="4.84257">
        <ele>163.2998</ele>
        <time>2026-05-13T10:08:15+02:00</time>
      </trkpt>
      <trkpt lat="45.81143" lon="4.8426">
        <ele>163.40039</ele>
        <time>2026-05-13T10:08:16+02:00</time>
      </trkpt>
      <trkpt lat="45.81149" lon="4.84264">
        <ele>163.40039</ele>
        <time>2026-05-13T10:08:17+02:00</time>
      </trkpt>
      <trkpt lat="45.81156" lon="4.84268">
        <ele>163.7002</ele>
        <time>2026-05-13T10:08:18+02:00</time>
      </trkpt>
      <trkpt lat="45.81162" lon="4.84272">
        <ele>163.7002</ele>
        <time>2026-05-13T10:08:19+02:00</time>
      </trkpt>
      <trkpt lat="45.81167" lon="4.84276">
        <ele>163.60059</ele>
        <time>2026-05-13T10:08:20+02:00</time>
      </trkpt>
      <trkpt lat="45.81173" lon="4.84279">
        <ele>163.5</ele>
        <time>2026-05-13T10:08:21+02:00</time>
      </trkpt>
      <trkpt lat="45.81179" lon="4.84283">
        <ele>163.40039</ele>
        <time>2026-05-13T10:08:22+02:00</time>
      </trkpt>
      <trkpt lat="45.81184" lon="4.84287">
        <ele>163.2998</ele>
        <time>2026-05-13T10:08:23+02:00</time>
      </trkpt>
      <trkpt lat="45.81189" lon="4.84291">
        <ele>163.40039</ele>
        <time>2026-05-13T10:08:24+02:00</time>
      </trkpt>
      <trkpt lat="45.81195" lon="4.84295">
        <ele>163.60059</ele>
        <time>2026-05-13T10:08:25+02:00</time>
      </trkpt>
      <trkpt lat="45.812" lon="4.84299">
        <ele>163.60059</ele>
        <time>2026-05-13T10:08:26+02:00</time>
      </trkpt>
      <trkpt lat="45.81205" lon="4.84303">
        <ele>163.40039</ele>
        <time>2026-05-13T10:08:27+02:00</time>
      </trkpt>
      <trkpt lat="45.8121" lon="4.84308">
        <ele>163.2002</ele>
        <time>2026-05-13T10:08:28+02:00</time>
      </trkpt>
      <trkpt lat="45.81215" lon="4.84312">
        <ele>163.2002</ele>
        <time>2026-05-13T10:08:29+02:00</time>
      </trkpt>
      <trkpt lat="45.8122" lon="4.84317">
        <ele>163.60059</ele>
        <time>2026-05-13T10:08:30+02:00</time>
      </trkpt>
      <trkpt lat="45.81226" lon="4.84321">
        <ele>163.7002</ele>
        <time>2026-05-13T10:08:31+02:00</time>
      </trkpt>
      <trkpt lat="45.81231" lon="4.84326">
        <ele>163.5</ele>
        <time>2026-05-13T10:08:32+02:00</time>
      </trkpt>
      <trkpt lat="45.81236" lon="4.84331">
        <ele>163.7002</ele>
        <time>2026-05-13T10:08:33+02:00</time>
      </trkpt>
      <trkpt lat="45.81241" lon="4.84336">
        <ele>163.40039</ele>
        <time>2026-05-13T10:08:34+02:00</time>
      </trkpt>
      <trkpt lat="45.81246" lon="4.84341">
        <ele>163.7002</ele>
        <time>2026-05-13T10:08:35+02:00</time>
      </trkpt>
      <trkpt lat="45.81251" lon="4.84346">
        <ele>164</ele>
        <time>2026-05-13T10:08:36+02:00</time>
      </trkpt>
      <trkpt lat="45.81256" lon="4.84351">
        <ele>164.5</ele>
        <time>2026-05-13T10:08:37+02:00</time>
      </trkpt>
      <trkpt lat="45.8126" lon="4.84356">
        <ele>163.90039</ele>
        <time>2026-05-13T10:08:38+02:00</time>
      </trkpt>
      <trkpt lat="45.81266" lon="4.84362">
        <ele>163.5</ele>
        <time>2026-05-13T10:08:39+02:00</time>
      </trkpt>
      <trkpt lat="45.8127" lon="4.84367">
        <ele>163.5</ele>
        <time>2026-05-13T10:08:40+02:00</time>
      </trkpt>
      <trkpt lat="45.81275" lon="4.84373">
        <ele>163.40039</ele>
        <time>2026-05-13T10:08:41+02:00</time>
      </trkpt>
      <trkpt lat="45.8128" lon="4.84378">
        <ele>163.60059</ele>
        <time>2026-05-13T10:08:42+02:00</time>
      </trkpt>
      <trkpt lat="45.81284" lon="4.84384">
        <ele>163.60059</ele>
        <time>2026-05-13T10:08:43+02:00</time>
      </trkpt>
      <trkpt lat="45.81289" lon="4.8439">
        <ele>163.7002</ele>
        <time>2026-05-13T10:08:44+02:00</time>
      </trkpt>
      <trkpt lat="45.81294" lon="4.84395">
        <ele>163.7002</ele>
        <time>2026-05-13T10:08:45+02:00</time>
      </trkpt>
      <trkpt lat="45.81299" lon="4.84401">
        <ele>163.5</ele>
        <time>2026-05-13T10:08:46+02:00</time>
      </trkpt>
      <trkpt lat="45.81303" lon="4.84406">
        <ele>163.60059</ele>
        <time>2026-05-13T10:08:47+02:00</time>
      </trkpt>
      <trkpt lat="45.81308" lon="4.84412">
        <ele>163.7002</ele>
        <time>2026-05-13T10:08:48+02:00</time>
      </trkpt>
      <trkpt lat="45.81312" lon="4.84417">
        <ele>163.7002</ele>
        <time>2026-05-13T10:08:49+02:00</time>
      </trkpt>
      <trkpt lat="45.81317" lon="4.84423">
        <ele>163.7002</ele>
        <time>2026-05-13T10:08:50+02:00</time>
      </trkpt>
      <trkpt lat="45.81321" lon="4.84428">
        <ele>163.5</ele>
        <time>2026-05-13T10:08:51+02:00</time>
      </trkpt>
      <trkpt lat="45.81325" lon="4.84434">
        <ele>163.5</ele>
        <time>2026-05-13T10:08:52+02:00</time>
      </trkpt>
      <trkpt lat="45.8133" lon="4.84439">
        <ele>163.7002</ele>
        <time>2026-05-13T10:08:53+02:00</time>
      </trkpt>
      <trkpt lat="45.81334" lon="4.84445">
        <ele>163.7002</ele>
        <time>2026-05-13T10:08:54+02:00</time>
      </trkpt>
      <trkpt lat="45.81339" lon="4.8445">
        <ele>163.7002</ele>
        <time>2026-05-13T10:08:55+02:00</time>
      </trkpt>
      <trkpt lat="45.81344" lon="4.84456">
        <ele>163.60059</ele>
        <time>2026-05-13T10:08:56+02:00</time>
      </trkpt>
      <trkpt lat="45.81349" lon="4.84461">
        <ele>163.5</ele>
        <time>2026-05-13T10:08:57+02:00</time>
      </trkpt>
      <trkpt lat="45.81353" lon="4.84467">
        <ele>163.60059</ele>
        <time>2026-05-13T10:08:58+02:00</time>
      </trkpt>
      <trkpt lat="45.81358" lon="4.84473">
        <ele>163.7002</ele>
        <time>2026-05-13T10:08:59+02:00</time>
      </trkpt>
      <trkpt lat="45.81363" lon="4.84479">
        <ele>163.7002</ele>
        <time>2026-05-13T10:09:00+02:00</time>
      </trkpt>
      <trkpt lat="45.81368" lon="4.84485">
        <ele>163.60059</ele>
        <time>2026-05-13T10:09:01+02:00</time>
      </trkpt>
      <trkpt lat="45.81373" lon="4.84491">
        <ele>163.60059</ele>
        <time>2026-05-13T10:09:02+02:00</time>
      </trkpt>
      <trkpt lat="45.81378" lon="4.84496">
        <ele>163.60059</ele>
        <time>2026-05-13T10:09:03+02:00</time>
      </trkpt>
      <trkpt lat="45.81383" lon="4.84502">
        <ele>163.7002</ele>
        <time>2026-05-13T10:09:04+02:00</time>
      </trkpt>
      <trkpt lat="45.81387" lon="4.84509">
        <ele>163.7002</ele>
        <time>2026-05-13T10:09:05+02:00</time>
      </trkpt>
      <trkpt lat="45.81392" lon="4.84514">
        <ele>163.60059</ele>
        <time>2026-05-13T10:09:06+02:00</time>
      </trkpt>
      <trkpt lat="45.81397" lon="4.8452">
        <ele>163.40039</ele>
        <time>2026-05-13T10:09:07+02:00</time>
      </trkpt>
      <trkpt lat="45.81402" lon="4.84526">
        <ele>163.40039</ele>
        <time>2026-05-13T10:09:08+02:00</time>
      </trkpt>
      <trkpt lat="45.81407" lon="4.84531">
        <ele>163.60059</ele>
        <time>2026-05-13T10:09:09+02:00</time>
      </trkpt>
      <trkpt lat="45.81411" lon="4.84537">
        <ele>164.2002</ele>
        <time>2026-05-13T10:09:10+02:00</time>
      </trkpt>
      <trkpt lat="45.81416" lon="4.84542">
        <ele>165.10059</ele>
        <time>2026-05-13T10:09:11+02:00</time>
      </trkpt>
      <trkpt lat="45.81421" lon="4.84548">
        <ele>166.2002</ele>
        <time>2026-05-13T10:09:12+02:00</time>
      </trkpt>
      <trkpt lat="45.81424" lon="4.84553">
        <ele>165</ele>
        <time>2026-05-13T10:09:13+02:00</time>
      </trkpt>
      <trkpt lat="45.81429" lon="4.84558">
        <ele>164.2002</ele>
        <time>2026-05-13T10:09:14+02:00</time>
      </trkpt>
      <trkpt lat="45.81433" lon="4.84563">
        <ele>164.60059</ele>
        <time>2026-05-13T10:09:15+02:00</time>
      </trkpt>
      <trkpt lat="45.81437" lon="4.84568">
        <ele>164</ele>
        <time>2026-05-13T10:09:16+02:00</time>
      </trkpt>
      <trkpt lat="45.81442" lon="4.84573">
        <ele>164.90039</ele>
        <time>2026-05-13T10:09:17+02:00</time>
      </trkpt>
      <trkpt lat="45.81446" lon="4.84578">
        <ele>165.2002</ele>
        <time>2026-05-13T10:09:18+02:00</time>
      </trkpt>
      <trkpt lat="45.8145" lon="4.84584">
        <ele>164.2002</ele>
        <time>2026-05-13T10:09:19+02:00</time>
      </trkpt>
      <trkpt lat="45.81455" lon="4.84589">
        <ele>164.60059</ele>
        <time>2026-05-13T10:09:20+02:00</time>
      </trkpt>
      <trkpt lat="45.81458" lon="4.84594">
        <ele>164.10059</ele>
        <time>2026-05-13T10:09:21+02:00</time>
      </trkpt>
      <trkpt lat="45.81462" lon="4.846">
        <ele>164.10059</ele>
        <time>2026-05-13T10:09:22+02:00</time>
      </trkpt>
      <trkpt lat="45.81465" lon="4.84605">
        <ele>164.60059</ele>
        <time>2026-05-13T10:09:23+02:00</time>
      </trkpt>
      <trkpt lat="45.81468" lon="4.84611">
        <ele>164.40039</ele>
        <time>2026-05-13T10:09:24+02:00</time>
      </trkpt>
      <trkpt lat="45.8147" lon="4.84617">
        <ele>165.2998</ele>
        <time>2026-05-13T10:09:25+02:00</time>
      </trkpt>
      <trkpt lat="45.81473" lon="4.84622">
        <ele>165.10059</ele>
        <time>2026-05-13T10:09:26+02:00</time>
      </trkpt>
      <trkpt lat="45.81474" lon="4.84628">
        <ele>164.7998</ele>
        <time>2026-05-13T10:09:27+02:00</time>
      </trkpt>
      <trkpt lat="45.81475" lon="4.84633">
        <ele>165.2998</ele>
        <time>2026-05-13T10:09:28+02:00</time>
      </trkpt>
      <trkpt lat="45.81477" lon="4.84638">
        <ele>164.7002</ele>
        <time>2026-05-13T10:09:29+02:00</time>
      </trkpt>
      <trkpt lat="45.81479" lon="4.84642">
        <ele>164.7002</ele>
        <time>2026-05-13T10:09:30+02:00</time>
      </trkpt>
      <trkpt lat="45.81483" lon="4.84646">
        <ele>164.7002</ele>
        <time>2026-05-13T10:09:31+02:00</time>
      </trkpt>
      <trkpt lat="45.81487" lon="4.8465">
        <ele>166.2002</ele>
        <time>2026-05-13T10:09:32+02:00</time>
      </trkpt>
      <trkpt lat="45.81491" lon="4.84655">
        <ele>165.90039</ele>
        <time>2026-05-13T10:09:33+02:00</time>
      </trkpt>
      <trkpt lat="45.81494" lon="4.84661">
        <ele>167.7002</ele>
        <time>2026-05-13T10:09:34+02:00</time>
      </trkpt>
      <trkpt lat="45.81498" lon="4.84668">
        <ele>167.7002</ele>
        <time>2026-05-13T10:09:35+02:00</time>
      </trkpt>
      <trkpt lat="45.81501" lon="4.84676">
        <ele>167.7998</ele>
        <time>2026-05-13T10:09:36+02:00</time>
      </trkpt>
      <trkpt lat="45.81504" lon="4.84684">
        <ele>165.90039</ele>
        <time>2026-05-13T10:09:37+02:00</time>
      </trkpt>
      <trkpt lat="45.81508" lon="4.84693">
        <ele>165.2998</ele>
        <time>2026-05-13T10:09:38+02:00</time>
      </trkpt>
      <trkpt lat="45.8151" lon="4.84702">
        <ele>164.60059</ele>
        <time>2026-05-13T10:09:39+02:00</time>
      </trkpt>
      <trkpt lat="45.81513" lon="4.8471">
        <ele>164.7002</ele>
        <time>2026-05-13T10:09:40+02:00</time>
      </trkpt>
      <trkpt lat="45.81515" lon="4.84719">
        <ele>164.40039</ele>
        <time>2026-05-13T10:09:41+02:00</time>
      </trkpt>
      <trkpt lat="45.81517" lon="4.84729">
        <ele>165.40039</ele>
        <time>2026-05-13T10:09:42+02:00</time>
      </trkpt>
      <trkpt lat="45.8152" lon="4.84738">
        <ele>165.7002</ele>
        <time>2026-05-13T10:09:43+02:00</time>
      </trkpt>
      <trkpt lat="45.81523" lon="4.84747">
        <ele>167.40039</ele>
        <time>2026-05-13T10:09:44+02:00</time>
      </trkpt>
      <trkpt lat="45.81526" lon="4.84757">
        <ele>166.90039</ele>
        <time>2026-05-13T10:09:45+02:00</time>
      </trkpt>
      <trkpt lat="45.81528" lon="4.84767">
        <ele>165.60059</ele>
        <time>2026-05-13T10:09:46+02:00</time>
      </trkpt>
      <trkpt lat="45.81531" lon="4.84776">
        <ele>164.5</ele>
        <time>2026-05-13T10:09:47+02:00</time>
      </trkpt>
      <trkpt lat="45.81534" lon="4.84785">
        <ele>163.7002</ele>
        <time>2026-05-13T10:09:48+02:00</time>
      </trkpt>
      <trkpt lat="45.81538" lon="4.84794">
        <ele>163.7998</ele>
        <time>2026-05-13T10:09:49+02:00</time>
      </trkpt>
      <trkpt lat="45.81542" lon="4.84803">
        <ele>163.7998</ele>
        <time>2026-05-13T10:09:50+02:00</time>
      </trkpt>
      <trkpt lat="45.81545" lon="4.84812">
        <ele>163.60059</ele>
        <time>2026-05-13T10:09:51+02:00</time>
      </trkpt>
      <trkpt lat="45.81548" lon="4.84821">
        <ele>163.40039</ele>
        <time>2026-05-13T10:09:52+02:00</time>
      </trkpt>
      <trkpt lat="45.81552" lon="4.8483">
        <ele>163.5</ele>
        <time>2026-05-13T10:09:53+02:00</time>
      </trkpt>
      <trkpt lat="45.81556" lon="4.84838">
        <ele>163.5</ele>
        <time>2026-05-13T10:09:54+02:00</time>
      </trkpt>
      <trkpt lat="45.8156" lon="4.84846">
        <ele>164.2002</ele>
        <time>2026-05-13T10:09:55+02:00</time>
      </trkpt>
      <trkpt lat="45.81563" lon="4.84855">
        <ele>164.10059</ele>
        <time>2026-05-13T10:09:56+02:00</time>
      </trkpt>
      <trkpt lat="45.81567" lon="4.84863">
        <ele>164.5</ele>
        <time>2026-05-13T10:09:57+02:00</time>
      </trkpt>
      <trkpt lat="45.81571" lon="4.84872">
        <ele>163.90039</ele>
        <time>2026-05-13T10:09:58+02:00</time>
      </trkpt>
      <trkpt lat="45.81574" lon="4.8488">
        <ele>163.40039</ele>
        <time>2026-05-13T10:09:59+02:00</time>
      </trkpt>
      <trkpt lat="45.81577" lon="4.84888">
        <ele>163.2002</ele>
        <time>2026-05-13T10:10:00+02:00</time>
      </trkpt>
      <trkpt lat="45.81581" lon="4.84896">
        <ele>163.2002</ele>
        <time>2026-05-13T10:10:01+02:00</time>
      </trkpt>
      <trkpt lat="45.81584" lon="4.84905">
        <ele>163.90039</ele>
        <time>2026-05-13T10:10:02+02:00</time>
      </trkpt>
      <trkpt lat="45.81588" lon="4.84913">
        <ele>165.2002</ele>
        <time>2026-05-13T10:10:03+02:00</time>
      </trkpt>
      <trkpt lat="45.81591" lon="4.84921">
        <ele>164.5</ele>
        <time>2026-05-13T10:10:04+02:00</time>
      </trkpt>
      <trkpt lat="45.81594" lon="4.8493">
        <ele>164.2002</ele>
        <time>2026-05-13T10:10:05+02:00</time>
      </trkpt>
      <trkpt lat="45.81598" lon="4.84937">
        <ele>163.5</ele>
        <time>2026-05-13T10:10:06+02:00</time>
      </trkpt>
      <trkpt lat="45.81601" lon="4.84945">
        <ele>163.2998</ele>
        <time>2026-05-13T10:10:07+02:00</time>
      </trkpt>
      <trkpt lat="45.81604" lon="4.84952">
        <ele>163.5</ele>
        <time>2026-05-13T10:10:08+02:00</time>
      </trkpt>
      <trkpt lat="45.81607" lon="4.84959">
        <ele>163.7002</ele>
        <time>2026-05-13T10:10:09+02:00</time>
      </trkpt>
      <trkpt lat="45.81609" lon="4.84966">
        <ele>164.10059</ele>
        <time>2026-05-13T10:10:10+02:00</time>
      </trkpt>
      <trkpt lat="45.81613" lon="4.84974">
        <ele>164.40039</ele>
        <time>2026-05-13T10:10:11+02:00</time>
      </trkpt>
      <trkpt lat="45.81616" lon="4.84982">
        <ele>164.2998</ele>
        <time>2026-05-13T10:10:12+02:00</time>
      </trkpt>
      <trkpt lat="45.81618" lon="4.84989">
        <ele>164.2002</ele>
        <time>2026-05-13T10:10:13+02:00</time>
      </trkpt>
      <trkpt lat="45.81621" lon="4.84997">
        <ele>164.10059</ele>
        <time>2026-05-13T10:10:14+02:00</time>
      </trkpt>
      <trkpt lat="45.81624" lon="4.85004">
        <ele>164</ele>
        <time>2026-05-13T10:10:15+02:00</time>
      </trkpt>
      <trkpt lat="45.81627" lon="4.85012">
        <ele>164</ele>
        <time>2026-05-13T10:10:16+02:00</time>
      </trkpt>
      <trkpt lat="45.8163" lon="4.8502">
        <ele>164.10059</ele>
        <time>2026-05-13T10:10:17+02:00</time>
      </trkpt>
      <trkpt lat="45.81633" lon="4.85028">
        <ele>164.10059</ele>
        <time>2026-05-13T10:10:18+02:00</time>
      </trkpt>
      <trkpt lat="45.81636" lon="4.85035">
        <ele>164.2998</ele>
        <time>2026-05-13T10:10:19+02:00</time>
      </trkpt>
      <trkpt lat="45.81639" lon="4.85043">
        <ele>164.2998</ele>
        <time>2026-05-13T10:10:20+02:00</time>
      </trkpt>
      <trkpt lat="45.81642" lon="4.85051">
        <ele>164.2002</ele>
        <time>2026-05-13T10:10:21+02:00</time>
      </trkpt>
      <trkpt lat="45.81645" lon="4.85058">
        <ele>164.10059</ele>
        <time>2026-05-13T10:10:22+02:00</time>
      </trkpt>
      <trkpt lat="45.81648" lon="4.85066">
        <ele>164</ele>
        <time>2026-05-13T10:10:23+02:00</time>
      </trkpt>
      <trkpt lat="45.81651" lon="4.85073">
        <ele>164</ele>
        <time>2026-05-13T10:10:24+02:00</time>
      </trkpt>
      <trkpt lat="45.81654" lon="4.85081">
        <ele>164.10059</ele>
        <time>2026-05-13T10:10:25+02:00</time>
      </trkpt>
      <trkpt lat="45.81657" lon="4.85088">
        <ele>164.10059</ele>
        <time>2026-05-13T10:10:26+02:00</time>
      </trkpt>
      <trkpt lat="45.81661" lon="4.85095">
        <ele>164.2998</ele>
        <time>2026-05-13T10:10:27+02:00</time>
      </trkpt>
      <trkpt lat="45.81663" lon="4.85103">
        <ele>164.2002</ele>
        <time>2026-05-13T10:10:28+02:00</time>
      </trkpt>
      <trkpt lat="45.81666" lon="4.8511">
        <ele>164.2002</ele>
        <time>2026-05-13T10:10:29+02:00</time>
      </trkpt>
      <trkpt lat="45.81669" lon="4.85118">
        <ele>164.10059</ele>
        <time>2026-05-13T10:10:30+02:00</time>
      </trkpt>
      <trkpt lat="45.81672" lon="4.85125">
        <ele>164</ele>
        <time>2026-05-13T10:10:31+02:00</time>
      </trkpt>
      <trkpt lat="45.81675" lon="4.85133">
        <ele>164</ele>
        <time>2026-05-13T10:10:32+02:00</time>
      </trkpt>
      <trkpt lat="45.81679" lon="4.8514">
        <ele>164</ele>
        <time>2026-05-13T10:10:33+02:00</time>
      </trkpt>
      <trkpt lat="45.81682" lon="4.85148">
        <ele>164.10059</ele>
        <time>2026-05-13T10:10:34+02:00</time>
      </trkpt>
      <trkpt lat="45.81685" lon="4.85155">
        <ele>164.2002</ele>
        <time>2026-05-13T10:10:35+02:00</time>
      </trkpt>
      <trkpt lat="45.81689" lon="4.85162">
        <ele>164.2002</ele>
        <time>2026-05-13T10:10:36+02:00</time>
      </trkpt>
      <trkpt lat="45.81692" lon="4.85169">
        <ele>164.2002</ele>
        <time>2026-05-13T10:10:37+02:00</time>
      </trkpt>
      <trkpt lat="45.81695" lon="4.85177">
        <ele>164.2002</ele>
        <time>2026-05-13T10:10:38+02:00</time>
      </trkpt>
      <trkpt lat="45.81699" lon="4.85184">
        <ele>164.10059</ele>
        <time>2026-05-13T10:10:39+02:00</time>
      </trkpt>
      <trkpt lat="45.81702" lon="4.85191">
        <ele>164.10059</ele>
        <time>2026-05-13T10:10:40+02:00</time>
      </trkpt>
      <trkpt lat="45.81706" lon="4.85198">
        <ele>164.10059</ele>
        <time>2026-05-13T10:10:41+02:00</time>
      </trkpt>
      <trkpt lat="45.81709" lon="4.85206">
        <ele>164.2002</ele>
        <time>2026-05-13T10:10:42+02:00</time>
      </trkpt>
      <trkpt lat="45.81713" lon="4.85213">
        <ele>164.2002</ele>
        <time>2026-05-13T10:10:43+02:00</time>
      </trkpt>
      <trkpt lat="45.81717" lon="4.8522">
        <ele>164.2002</ele>
        <time>2026-05-13T10:10:44+02:00</time>
      </trkpt>
      <trkpt lat="45.8172" lon="4.85228">
        <ele>164.10059</ele>
        <time>2026-05-13T10:10:45+02:00</time>
      </trkpt>
      <trkpt lat="45.81725" lon="4.85235">
        <ele>164.10059</ele>
        <time>2026-05-13T10:10:46+02:00</time>
      </trkpt>
      <trkpt lat="45.81729" lon="4.85242">
        <ele>164.2002</ele>
        <time>2026-05-13T10:10:47+02:00</time>
      </trkpt>
      <trkpt lat="45.81733" lon="4.85249">
        <ele>164.2002</ele>
        <time>2026-05-13T10:10:48+02:00</time>
      </trkpt>
      <trkpt lat="45.81737" lon="4.85255">
        <ele>164.2002</ele>
        <time>2026-05-13T10:10:49+02:00</time>
      </trkpt>
      <trkpt lat="45.81741" lon="4.85262">
        <ele>164.2002</ele>
        <time>2026-05-13T10:10:50+02:00</time>
      </trkpt>
      <trkpt lat="45.81745" lon="4.85269">
        <ele>164.10059</ele>
        <time>2026-05-13T10:10:51+02:00</time>
      </trkpt>
      <trkpt lat="45.81749" lon="4.85276">
        <ele>164.10059</ele>
        <time>2026-05-13T10:10:52+02:00</time>
      </trkpt>
      <trkpt lat="45.81754" lon="4.85283">
        <ele>164.10059</ele>
        <time>2026-05-13T10:10:53+02:00</time>
      </trkpt>
      <trkpt lat="45.81758" lon="4.85289">
        <ele>164.2002</ele>
        <time>2026-05-13T10:10:54+02:00</time>
      </trkpt>
      <trkpt lat="45.81762" lon="4.85296">
        <ele>164.2002</ele>
        <time>2026-05-13T10:10:55+02:00</time>
      </trkpt>
      <trkpt lat="45.81767" lon="4.85302">
        <ele>164.2002</ele>
        <time>2026-05-13T10:10:56+02:00</time>
      </trkpt>
      <trkpt lat="45.81772" lon="4.85308">
        <ele>164.10059</ele>
        <time>2026-05-13T10:10:57+02:00</time>
      </trkpt>
      <trkpt lat="45.81776" lon="4.85314">
        <ele>164.10059</ele>
        <time>2026-05-13T10:10:58+02:00</time>
      </trkpt>
      <trkpt lat="45.81781" lon="4.8532">
        <ele>164.10059</ele>
        <time>2026-05-13T10:10:59+02:00</time>
      </trkpt>
      <trkpt lat="45.81786" lon="4.85326">
        <ele>164.2002</ele>
        <time>2026-05-13T10:11:00+02:00</time>
      </trkpt>
      <trkpt lat="45.8179" lon="4.85332">
        <ele>164.2002</ele>
        <time>2026-05-13T10:11:01+02:00</time>
      </trkpt>
      <trkpt lat="45.81795" lon="4.85338">
        <ele>164.10059</ele>
        <time>2026-05-13T10:11:02+02:00</time>
      </trkpt>
      <trkpt lat="45.818" lon="4.85343">
        <ele>164.10059</ele>
        <time>2026-05-13T10:11:03+02:00</time>
      </trkpt>
      <trkpt lat="45.81805" lon="4.85349">
        <ele>164.10059</ele>
        <time>2026-05-13T10:11:04+02:00</time>
      </trkpt>
      <trkpt lat="45.8181" lon="4.85354">
        <ele>164.2002</ele>
        <time>2026-05-13T10:11:05+02:00</time>
      </trkpt>
      <trkpt lat="45.81815" lon="4.85359">
        <ele>164.2002</ele>
        <time>2026-05-13T10:11:06+02:00</time>
      </trkpt>
      <trkpt lat="45.81819" lon="4.85364">
        <ele>164.10059</ele>
        <time>2026-05-13T10:11:07+02:00</time>
      </trkpt>
      <trkpt lat="45.81824" lon="4.85368">
        <ele>164.10059</ele>
        <time>2026-05-13T10:11:08+02:00</time>
      </trkpt>
      <trkpt lat="45.81829" lon="4.85373">
        <ele>164.10059</ele>
        <time>2026-05-13T10:11:09+02:00</time>
      </trkpt>
      <trkpt lat="45.81834" lon="4.85377">
        <ele>164.2998</ele>
        <time>2026-05-13T10:11:10+02:00</time>
      </trkpt>
      <trkpt lat="45.81839" lon="4.85382">
        <ele>164.2002</ele>
        <time>2026-05-13T10:11:11+02:00</time>
      </trkpt>
      <trkpt lat="45.81844" lon="4.85386">
        <ele>164.2998</ele>
        <time>2026-05-13T10:11:12+02:00</time>
      </trkpt>
      <trkpt lat="45.81849" lon="4.8539">
        <ele>164.2002</ele>
        <time>2026-05-13T10:11:13+02:00</time>
      </trkpt>
      <trkpt lat="45.81854" lon="4.85394">
        <ele>164.2998</ele>
        <time>2026-05-13T10:11:14+02:00</time>
      </trkpt>
      <trkpt lat="45.8186" lon="4.85398">
        <ele>164.5</ele>
        <time>2026-05-13T10:11:15+02:00</time>
      </trkpt>
      <trkpt lat="45.81865" lon="4.85403">
        <ele>164.60059</ele>
        <time>2026-05-13T10:11:16+02:00</time>
      </trkpt>
      <trkpt lat="45.8187" lon="4.85407">
        <ele>164.60059</ele>
        <time>2026-05-13T10:11:17+02:00</time>
      </trkpt>
      <trkpt lat="45.81876" lon="4.8541">
        <ele>164.7998</ele>
        <time>2026-05-13T10:11:18+02:00</time>
      </trkpt>
      <trkpt lat="45.81881" lon="4.85414">
        <ele>164.7998</ele>
        <time>2026-05-13T10:11:19+02:00</time>
      </trkpt>
      <trkpt lat="45.81886" lon="4.85418">
        <ele>164.40039</ele>
        <time>2026-05-13T10:11:20+02:00</time>
      </trkpt>
      <trkpt lat="45.81892" lon="4.85422">
        <ele>164.2998</ele>
        <time>2026-05-13T10:11:21+02:00</time>
      </trkpt>
      <trkpt lat="45.81897" lon="4.85426">
        <ele>164.10059</ele>
        <time>2026-05-13T10:11:22+02:00</time>
      </trkpt>
      <trkpt lat="45.81903" lon="4.85429">
        <ele>164.2002</ele>
        <time>2026-05-13T10:11:23+02:00</time>
      </trkpt>
      <trkpt lat="45.81909" lon="4.85433">
        <ele>164.2002</ele>
        <time>2026-05-13T10:11:24+02:00</time>
      </trkpt>
      <trkpt lat="45.81915" lon="4.85436">
        <ele>164.5</ele>
        <time>2026-05-13T10:11:25+02:00</time>
      </trkpt>
      <trkpt lat="45.81921" lon="4.85439">
        <ele>164.7002</ele>
        <time>2026-05-13T10:11:26+02:00</time>
      </trkpt>
      <trkpt lat="45.81927" lon="4.85441">
        <ele>164.7998</ele>
        <time>2026-05-13T10:11:27+02:00</time>
      </trkpt>
      <trkpt lat="45.81933" lon="4.85444">
        <ele>164.40039</ele>
        <time>2026-05-13T10:11:28+02:00</time>
      </trkpt>
      <trkpt lat="45.81939" lon="4.85447">
        <ele>164.40039</ele>
        <time>2026-05-13T10:11:29+02:00</time>
      </trkpt>
      <trkpt lat="45.81945" lon="4.8545">
        <ele>164.2002</ele>
        <time>2026-05-13T10:11:30+02:00</time>
      </trkpt>
      <trkpt lat="45.81951" lon="4.85452">
        <ele>164.2002</ele>
        <time>2026-05-13T10:11:31+02:00</time>
      </trkpt>
      <trkpt lat="45.81957" lon="4.85454">
        <ele>164.2002</ele>
        <time>2026-05-13T10:11:32+02:00</time>
      </trkpt>
      <trkpt lat="45.81962" lon="4.85457">
        <ele>164.2002</ele>
        <time>2026-05-13T10:11:33+02:00</time>
      </trkpt>
      <trkpt lat="45.81968" lon="4.85459">
        <ele>164.10059</ele>
        <time>2026-05-13T10:11:34+02:00</time>
      </trkpt>
      <trkpt lat="45.81974" lon="4.85461">
        <ele>164.10059</ele>
        <time>2026-05-13T10:11:35+02:00</time>
      </trkpt>
      <trkpt lat="45.81981" lon="4.85463">
        <ele>164.10059</ele>
        <time>2026-05-13T10:11:36+02:00</time>
      </trkpt>
      <trkpt lat="45.81987" lon="4.85465">
        <ele>164.10059</ele>
        <time>2026-05-13T10:11:37+02:00</time>
      </trkpt>
      <trkpt lat="45.81994" lon="4.85467">
        <ele>164.2002</ele>
        <time>2026-05-13T10:11:38+02:00</time>
      </trkpt>
      <trkpt lat="45.82" lon="4.85469">
        <ele>164.2002</ele>
        <time>2026-05-13T10:11:39+02:00</time>
      </trkpt>
      <trkpt lat="45.82007" lon="4.85471">
        <ele>164.2002</ele>
        <time>2026-05-13T10:11:40+02:00</time>
      </trkpt>
      <trkpt lat="45.82013" lon="4.85472">
        <ele>164.2002</ele>
        <time>2026-05-13T10:11:41+02:00</time>
      </trkpt>
      <trkpt lat="45.8202" lon="4.85474">
        <ele>164.2002</ele>
        <time>2026-05-13T10:11:42+02:00</time>
      </trkpt>
      <trkpt lat="45.82026" lon="4.85475">
        <ele>164.2998</ele>
        <time>2026-05-13T10:11:43+02:00</time>
      </trkpt>
      <trkpt lat="45.82033" lon="4.85477">
        <ele>164.2002</ele>
        <time>2026-05-13T10:11:44+02:00</time>
      </trkpt>
      <trkpt lat="45.82039" lon="4.85478">
        <ele>164.2002</ele>
        <time>2026-05-13T10:11:45+02:00</time>
      </trkpt>
      <trkpt lat="45.82045" lon="4.85479">
        <ele>164.2002</ele>
        <time>2026-05-13T10:11:46+02:00</time>
      </trkpt>
      <trkpt lat="45.82052" lon="4.8548">
        <ele>164.2002</ele>
        <time>2026-05-13T10:11:47+02:00</time>
      </trkpt>
      <trkpt lat="45.82058" lon="4.85481">
        <ele>164.2002</ele>
        <time>2026-05-13T10:11:48+02:00</time>
      </trkpt>
      <trkpt lat="45.82065" lon="4.85482">
        <ele>164.2002</ele>
        <time>2026-05-13T10:11:49+02:00</time>
      </trkpt>
      <trkpt lat="45.82071" lon="4.85483">
        <ele>164.2002</ele>
        <time>2026-05-13T10:11:50+02:00</time>
      </trkpt>
      <trkpt lat="45.82078" lon="4.85483">
        <ele>164.10059</ele>
        <time>2026-05-13T10:11:51+02:00</time>
      </trkpt>
      <trkpt lat="45.82084" lon="4.85484">
        <ele>164.10059</ele>
        <time>2026-05-13T10:11:52+02:00</time>
      </trkpt>
      <trkpt lat="45.82091" lon="4.85485">
        <ele>164.10059</ele>
        <time>2026-05-13T10:11:53+02:00</time>
      </trkpt>
      <trkpt lat="45.82097" lon="4.85485">
        <ele>164.2002</ele>
        <time>2026-05-13T10:11:54+02:00</time>
      </trkpt>
      <trkpt lat="45.82103" lon="4.85486">
        <ele>164.2002</ele>
        <time>2026-05-13T10:11:55+02:00</time>
      </trkpt>
      <trkpt lat="45.82109" lon="4.85486">
        <ele>164.2002</ele>
        <time>2026-05-13T10:11:56+02:00</time>
      </trkpt>
      <trkpt lat="45.82116" lon="4.85486">
        <ele>164.2002</ele>
        <time>2026-05-13T10:11:57+02:00</time>
      </trkpt>
      <trkpt lat="45.82122" lon="4.85486">
        <ele>164.2002</ele>
        <time>2026-05-13T10:11:58+02:00</time>
      </trkpt>
      <trkpt lat="45.82128" lon="4.85486">
        <ele>164.2002</ele>
        <time>2026-05-13T10:11:59+02:00</time>
      </trkpt>
      <trkpt lat="45.82134" lon="4.85487">
        <ele>164.2002</ele>
        <time>2026-05-13T10:12:00+02:00</time>
      </trkpt>
      <trkpt lat="45.82141" lon="4.85487">
        <ele>164.2998</ele>
        <time>2026-05-13T10:12:01+02:00</time>
      </trkpt>
      <trkpt lat="45.82147" lon="4.85486">
        <ele>164.40039</ele>
        <time>2026-05-13T10:12:02+02:00</time>
      </trkpt>
      <trkpt lat="45.82153" lon="4.85486">
        <ele>164.5</ele>
        <time>2026-05-13T10:12:03+02:00</time>
      </trkpt>
      <trkpt lat="45.82159" lon="4.85486">
        <ele>164.60059</ele>
        <time>2026-05-13T10:12:04+02:00</time>
      </trkpt>
      <trkpt lat="45.82166" lon="4.85486">
        <ele>164.60059</ele>
        <time>2026-05-13T10:12:05+02:00</time>
      </trkpt>
      <trkpt lat="45.82172" lon="4.85485">
        <ele>164.7002</ele>
        <time>2026-05-13T10:12:06+02:00</time>
      </trkpt>
      <trkpt lat="45.82178" lon="4.85484">
        <ele>164.60059</ele>
        <time>2026-05-13T10:12:07+02:00</time>
      </trkpt>
      <trkpt lat="45.82184" lon="4.85484">
        <ele>164.60059</ele>
        <time>2026-05-13T10:12:08+02:00</time>
      </trkpt>
      <trkpt lat="45.8219" lon="4.85483">
        <ele>164.5</ele>
        <time>2026-05-13T10:12:09+02:00</time>
      </trkpt>
      <trkpt lat="45.82197" lon="4.85483">
        <ele>164.5</ele>
        <time>2026-05-13T10:12:10+02:00</time>
      </trkpt>
      <trkpt lat="45.82203" lon="4.85482">
        <ele>164.60059</ele>
        <time>2026-05-13T10:12:11+02:00</time>
      </trkpt>
      <trkpt lat="45.82209" lon="4.85481">
        <ele>164.7002</ele>
        <time>2026-05-13T10:12:12+02:00</time>
      </trkpt>
      <trkpt lat="45.82215" lon="4.8548">
        <ele>164.90039</ele>
        <time>2026-05-13T10:12:13+02:00</time>
      </trkpt>
      <trkpt lat="45.82221" lon="4.85479">
        <ele>164.90039</ele>
        <time>2026-05-13T10:12:14+02:00</time>
      </trkpt>
      <trkpt lat="45.82227" lon="4.85478">
        <ele>164.90039</ele>
        <time>2026-05-13T10:12:15+02:00</time>
      </trkpt>
      <trkpt lat="45.82232" lon="4.85477">
        <ele>164.7998</ele>
        <time>2026-05-13T10:12:16+02:00</time>
      </trkpt>
      <trkpt lat="45.82238" lon="4.85476">
        <ele>164.7002</ele>
        <time>2026-05-13T10:12:17+02:00</time>
      </trkpt>
      <trkpt lat="45.82243" lon="4.85475">
        <ele>164.5</ele>
        <time>2026-05-13T10:12:18+02:00</time>
      </trkpt>
      <trkpt lat="45.82249" lon="4.85474">
        <ele>164.5</ele>
        <time>2026-05-13T10:12:19+02:00</time>
      </trkpt>
      <trkpt lat="45.82255" lon="4.85472">
        <ele>164.5</ele>
        <time>2026-05-13T10:12:20+02:00</time>
      </trkpt>
      <trkpt lat="45.8226" lon="4.85471">
        <ele>164.60059</ele>
        <time>2026-05-13T10:12:21+02:00</time>
      </trkpt>
      <trkpt lat="45.82266" lon="4.85469">
        <ele>164.60059</ele>
        <time>2026-05-13T10:12:22+02:00</time>
      </trkpt>
      <trkpt lat="45.82271" lon="4.85468">
        <ele>164.60059</ele>
        <time>2026-05-13T10:12:23+02:00</time>
      </trkpt>
      <trkpt lat="45.82277" lon="4.85466">
        <ele>164.60059</ele>
        <time>2026-05-13T10:12:24+02:00</time>
      </trkpt>
      <trkpt lat="45.82283" lon="4.85464">
        <ele>164.60059</ele>
        <time>2026-05-13T10:12:25+02:00</time>
      </trkpt>
      <trkpt lat="45.82288" lon="4.85462">
        <ele>164.5</ele>
        <time>2026-05-13T10:12:26+02:00</time>
      </trkpt>
      <trkpt lat="45.82294" lon="4.85461">
        <ele>164.5</ele>
        <time>2026-05-13T10:12:27+02:00</time>
      </trkpt>
      <trkpt lat="45.82299" lon="4.85459">
        <ele>164.5</ele>
        <time>2026-05-13T10:12:28+02:00</time>
      </trkpt>
      <trkpt lat="45.82305" lon="4.85457">
        <ele>164.7002</ele>
        <time>2026-05-13T10:12:29+02:00</time>
      </trkpt>
      <trkpt lat="45.8231" lon="4.85455">
        <ele>164.7002</ele>
        <time>2026-05-13T10:12:30+02:00</time>
      </trkpt>
      <trkpt lat="45.82316" lon="4.85453">
        <ele>164.7002</ele>
        <time>2026-05-13T10:12:31+02:00</time>
      </trkpt>
      <trkpt lat="45.82321" lon="4.8545">
        <ele>164.7002</ele>
        <time>2026-05-13T10:12:32+02:00</time>
      </trkpt>
      <trkpt lat="45.82327" lon="4.85448">
        <ele>164.7998</ele>
        <time>2026-05-13T10:12:33+02:00</time>
      </trkpt>
      <trkpt lat="45.82333" lon="4.85447">
        <ele>164.7998</ele>
        <time>2026-05-13T10:12:34+02:00</time>
      </trkpt>
      <trkpt lat="45.82338" lon="4.85444">
        <ele>164.7998</ele>
        <time>2026-05-13T10:12:35+02:00</time>
      </trkpt>
      <trkpt lat="45.82344" lon="4.85442">
        <ele>164.7998</ele>
        <time>2026-05-13T10:12:36+02:00</time>
      </trkpt>
      <trkpt lat="45.8235" lon="4.8544">
        <ele>164.60059</ele>
        <time>2026-05-13T10:12:37+02:00</time>
      </trkpt>
      <trkpt lat="45.82355" lon="4.85437">
        <ele>164.60059</ele>
        <time>2026-05-13T10:12:38+02:00</time>
      </trkpt>
      <trkpt lat="45.82361" lon="4.85435">
        <ele>164.60059</ele>
        <time>2026-05-13T10:12:39+02:00</time>
      </trkpt>
      <trkpt lat="45.82366" lon="4.85433">
        <ele>164.60059</ele>
        <time>2026-05-13T10:12:40+02:00</time>
      </trkpt>
      <trkpt lat="45.82372" lon="4.8543">
        <ele>164.5</ele>
        <time>2026-05-13T10:12:41+02:00</time>
      </trkpt>
      <trkpt lat="45.82377" lon="4.85428">
        <ele>164.5</ele>
        <time>2026-05-13T10:12:42+02:00</time>
      </trkpt>
      <trkpt lat="45.82383" lon="4.85426">
        <ele>164.5</ele>
        <time>2026-05-13T10:12:43+02:00</time>
      </trkpt>
      <trkpt lat="45.82388" lon="4.85424">
        <ele>164.5</ele>
        <time>2026-05-13T10:12:44+02:00</time>
      </trkpt>
      <trkpt lat="45.82393" lon="4.85421">
        <ele>164.60059</ele>
        <time>2026-05-13T10:12:45+02:00</time>
      </trkpt>
      <trkpt lat="45.82399" lon="4.85419">
        <ele>164.60059</ele>
        <time>2026-05-13T10:12:46+02:00</time>
      </trkpt>
      <trkpt lat="45.82404" lon="4.85417">
        <ele>164.60059</ele>
        <time>2026-05-13T10:12:47+02:00</time>
      </trkpt>
      <trkpt lat="45.82409" lon="4.85414">
        <ele>164.7002</ele>
        <time>2026-05-13T10:12:48+02:00</time>
      </trkpt>
      <trkpt lat="45.82414" lon="4.85411">
        <ele>164.7002</ele>
        <time>2026-05-13T10:12:49+02:00</time>
      </trkpt>
      <trkpt lat="45.82419" lon="4.85409">
        <ele>164.7002</ele>
        <time>2026-05-13T10:12:50+02:00</time>
      </trkpt>
      <trkpt lat="45.82425" lon="4.85406">
        <ele>164.7002</ele>
        <time>2026-05-13T10:12:51+02:00</time>
      </trkpt>
      <trkpt lat="45.8243" lon="4.85403">
        <ele>164.7002</ele>
        <time>2026-05-13T10:12:52+02:00</time>
      </trkpt>
      <trkpt lat="45.82435" lon="4.854">
        <ele>164.7002</ele>
        <time>2026-05-13T10:12:53+02:00</time>
      </trkpt>
      <trkpt lat="45.8244" lon="4.85398">
        <ele>164.5</ele>
        <time>2026-05-13T10:12:54+02:00</time>
      </trkpt>
      <trkpt lat="45.82444" lon="4.85395">
        <ele>164.60059</ele>
        <time>2026-05-13T10:12:55+02:00</time>
      </trkpt>
      <trkpt lat="45.82448" lon="4.85392">
        <ele>164.60059</ele>
        <time>2026-05-13T10:12:56+02:00</time>
      </trkpt>
      <trkpt lat="45.82453" lon="4.85389">
        <ele>164.5</ele>
        <time>2026-05-13T10:12:57+02:00</time>
      </trkpt>
      <trkpt lat="45.82457" lon="4.85387">
        <ele>164.5</ele>
        <time>2026-05-13T10:12:58+02:00</time>
      </trkpt>
      <trkpt lat="45.82461" lon="4.85385">
        <ele>164.5</ele>
        <time>2026-05-13T10:12:59+02:00</time>
      </trkpt>
      <trkpt lat="45.82465" lon="4.85383">
        <ele>164.5</ele>
        <time>2026-05-13T10:13:00+02:00</time>
      </trkpt>
      <trkpt lat="45.82469" lon="4.8538">
        <ele>164.60059</ele>
        <time>2026-05-13T10:13:01+02:00</time>
      </trkpt>
      <trkpt lat="45.82474" lon="4.85378">
        <ele>164.60059</ele>
        <time>2026-05-13T10:13:02+02:00</time>
      </trkpt>
      <trkpt lat="45.82479" lon="4.85375">
        <ele>164.60059</ele>
        <time>2026-05-13T10:13:03+02:00</time>
      </trkpt>
      <trkpt lat="45.82484" lon="4.85373">
        <ele>164.60059</ele>
        <time>2026-05-13T10:13:04+02:00</time>
      </trkpt>
      <trkpt lat="45.82489" lon="4.8537">
        <ele>164.7998</ele>
        <time>2026-05-13T10:13:05+02:00</time>
      </trkpt>
      <trkpt lat="45.82494" lon="4.85367">
        <ele>164.7998</ele>
        <time>2026-05-13T10:13:06+02:00</time>
      </trkpt>
      <trkpt lat="45.82499" lon="4.85363">
        <ele>164.7002</ele>
        <time>2026-05-13T10:13:07+02:00</time>
      </trkpt>
      <trkpt lat="45.82504" lon="4.8536">
        <ele>164.60059</ele>
        <time>2026-05-13T10:13:08+02:00</time>
      </trkpt>
      <trkpt lat="45.8251" lon="4.85357">
        <ele>164.60059</ele>
        <time>2026-05-13T10:13:09+02:00</time>
      </trkpt>
      <trkpt lat="45.82515" lon="4.85353">
        <ele>164.5</ele>
        <time>2026-05-13T10:13:10+02:00</time>
      </trkpt>
      <trkpt lat="45.8252" lon="4.8535">
        <ele>164.5</ele>
        <time>2026-05-13T10:13:11+02:00</time>
      </trkpt>
      <trkpt lat="45.82525" lon="4.85348">
        <ele>164.5</ele>
        <time>2026-05-13T10:13:12+02:00</time>
      </trkpt>
      <trkpt lat="45.8253" lon="4.85345">
        <ele>164.5</ele>
        <time>2026-05-13T10:13:13+02:00</time>
      </trkpt>
      <trkpt lat="45.82536" lon="4.85342">
        <ele>164.5</ele>
        <time>2026-05-13T10:13:14+02:00</time>
      </trkpt>
      <trkpt lat="45.82541" lon="4.85338">
        <ele>164.7002</ele>
        <time>2026-05-13T10:13:15+02:00</time>
      </trkpt>
      <trkpt lat="45.82546" lon="4.85334">
        <ele>164.7002</ele>
        <time>2026-05-13T10:13:16+02:00</time>
      </trkpt>
      <trkpt lat="45.82551" lon="4.8533">
        <ele>164.7002</ele>
        <time>2026-05-13T10:13:17+02:00</time>
      </trkpt>
      <trkpt lat="45.82556" lon="4.85326">
        <ele>164.90039</ele>
        <time>2026-05-13T10:13:18+02:00</time>
      </trkpt>
      <trkpt lat="45.82561" lon="4.85322">
        <ele>164.7998</ele>
        <time>2026-05-13T10:13:19+02:00</time>
      </trkpt>
      <trkpt lat="45.82567" lon="4.85318">
        <ele>164.7002</ele>
        <time>2026-05-13T10:13:20+02:00</time>
      </trkpt>
      <trkpt lat="45.82572" lon="4.85315">
        <ele>164.60059</ele>
        <time>2026-05-13T10:13:21+02:00</time>
      </trkpt>
      <trkpt lat="45.82578" lon="4.85311">
        <ele>164.5</ele>
        <time>2026-05-13T10:13:22+02:00</time>
      </trkpt>
      <trkpt lat="45.82583" lon="4.85307">
        <ele>164.5</ele>
        <time>2026-05-13T10:13:23+02:00</time>
      </trkpt>
      <trkpt lat="45.82588" lon="4.85303">
        <ele>164.7002</ele>
        <time>2026-05-13T10:13:24+02:00</time>
      </trkpt>
      <trkpt lat="45.82594" lon="4.853">
        <ele>164.7002</ele>
        <time>2026-05-13T10:13:25+02:00</time>
      </trkpt>
      <trkpt lat="45.82599" lon="4.85296">
        <ele>164.7002</ele>
        <time>2026-05-13T10:13:26+02:00</time>
      </trkpt>
      <trkpt lat="45.82605" lon="4.85292">
        <ele>164.7998</ele>
        <time>2026-05-13T10:13:27+02:00</time>
      </trkpt>
      <trkpt lat="45.8261" lon="4.85289">
        <ele>164.7998</ele>
        <time>2026-05-13T10:13:28+02:00</time>
      </trkpt>
      <trkpt lat="45.82615" lon="4.85285">
        <ele>164.60059</ele>
        <time>2026-05-13T10:13:29+02:00</time>
      </trkpt>
      <trkpt lat="45.82621" lon="4.85281">
        <ele>164.60059</ele>
        <time>2026-05-13T10:13:30+02:00</time>
      </trkpt>
      <trkpt lat="45.82626" lon="4.85277">
        <ele>164.5</ele>
        <time>2026-05-13T10:13:31+02:00</time>
      </trkpt>
      <trkpt lat="45.82631" lon="4.85273">
        <ele>164.5</ele>
        <time>2026-05-13T10:13:32+02:00</time>
      </trkpt>
      <trkpt lat="45.82637" lon="4.85269">
        <ele>164.60059</ele>
        <time>2026-05-13T10:13:33+02:00</time>
      </trkpt>
      <trkpt lat="45.82642" lon="4.85265">
        <ele>164.60059</ele>
        <time>2026-05-13T10:13:34+02:00</time>
      </trkpt>
      <trkpt lat="45.82647" lon="4.8526">
        <ele>164.7998</ele>
        <time>2026-05-13T10:13:35+02:00</time>
      </trkpt>
      <trkpt lat="45.82653" lon="4.85256">
        <ele>164.7998</ele>
        <time>2026-05-13T10:13:36+02:00</time>
      </trkpt>
      <trkpt lat="45.82658" lon="4.85252">
        <ele>165.10059</ele>
        <time>2026-05-13T10:13:37+02:00</time>
      </trkpt>
      <trkpt lat="45.82663" lon="4.85248">
        <ele>165.10059</ele>
        <time>2026-05-13T10:13:38+02:00</time>
      </trkpt>
      <trkpt lat="45.82669" lon="4.85244">
        <ele>165</ele>
        <time>2026-05-13T10:13:39+02:00</time>
      </trkpt>
      <trkpt lat="45.82674" lon="4.85239">
        <ele>165.60059</ele>
        <time>2026-05-13T10:13:40+02:00</time>
      </trkpt>
      <trkpt lat="45.8268" lon="4.85235">
        <ele>166.10059</ele>
        <time>2026-05-13T10:13:41+02:00</time>
      </trkpt>
      <trkpt lat="45.82685" lon="4.85231">
        <ele>165.7998</ele>
        <time>2026-05-13T10:13:42+02:00</time>
      </trkpt>
      <trkpt lat="45.82691" lon="4.85227">
        <ele>165.2998</ele>
        <time>2026-05-13T10:13:43+02:00</time>
      </trkpt>
      <trkpt lat="45.82696" lon="4.85223">
        <ele>165.10059</ele>
        <time>2026-05-13T10:13:44+02:00</time>
      </trkpt>
      <trkpt lat="45.82702" lon="4.85219">
        <ele>164.7002</ele>
        <time>2026-05-13T10:13:45+02:00</time>
      </trkpt>
      <trkpt lat="45.82707" lon="4.85215">
        <ele>165</ele>
        <time>2026-05-13T10:13:46+02:00</time>
      </trkpt>
      <trkpt lat="45.82713" lon="4.85211">
        <ele>164.90039</ele>
        <time>2026-05-13T10:13:47+02:00</time>
      </trkpt>
      <trkpt lat="45.82718" lon="4.85207">
        <ele>165.40039</ele>
        <time>2026-05-13T10:13:48+02:00</time>
      </trkpt>
      <trkpt lat="45.82724" lon="4.85202">
        <ele>165.40039</ele>
        <time>2026-05-13T10:13:49+02:00</time>
      </trkpt>
      <trkpt lat="45.82729" lon="4.85198">
        <ele>165.7998</ele>
        <time>2026-05-13T10:13:50+02:00</time>
      </trkpt>
      <trkpt lat="45.82735" lon="4.85194">
        <ele>165.2998</ele>
        <time>2026-05-13T10:13:51+02:00</time>
      </trkpt>
      <trkpt lat="45.82741" lon="4.8519">
        <ele>165.2002</ele>
        <time>2026-05-13T10:13:52+02:00</time>
      </trkpt>
      <trkpt lat="45.82746" lon="4.85186">
        <ele>164.7002</ele>
        <time>2026-05-13T10:13:53+02:00</time>
      </trkpt>
      <trkpt lat="45.82752" lon="4.85181">
        <ele>164.90039</ele>
        <time>2026-05-13T10:13:54+02:00</time>
      </trkpt>
      <trkpt lat="45.82757" lon="4.85177">
        <ele>164.7998</ele>
        <time>2026-05-13T10:13:55+02:00</time>
      </trkpt>
      <trkpt lat="45.82763" lon="4.85173">
        <ele>165.2002</ele>
        <time>2026-05-13T10:13:56+02:00</time>
      </trkpt>
      <trkpt lat="45.82768" lon="4.85168">
        <ele>165.10059</ele>
        <time>2026-05-13T10:13:57+02:00</time>
      </trkpt>
      <trkpt lat="45.82774" lon="4.85164">
        <ele>165.2998</ele>
        <time>2026-05-13T10:13:58+02:00</time>
      </trkpt>
      <trkpt lat="45.82779" lon="4.8516">
        <ele>164.90039</ele>
        <time>2026-05-13T10:13:59+02:00</time>
      </trkpt>
      <trkpt lat="45.82785" lon="4.85155">
        <ele>164.7998</ele>
        <time>2026-05-13T10:14:00+02:00</time>
      </trkpt>
      <trkpt lat="45.82791" lon="4.85151">
        <ele>164.60059</ele>
        <time>2026-05-13T10:14:01+02:00</time>
      </trkpt>
      <trkpt lat="45.82796" lon="4.85147">
        <ele>164.7998</ele>
        <time>2026-05-13T10:14:02+02:00</time>
      </trkpt>
      <trkpt lat="45.82801" lon="4.85142">
        <ele>164.7998</ele>
        <time>2026-05-13T10:14:03+02:00</time>
      </trkpt>
      <trkpt lat="45.82806" lon="4.85138">
        <ele>165.10059</ele>
        <time>2026-05-13T10:14:04+02:00</time>
      </trkpt>
      <trkpt lat="45.82811" lon="4.85134">
        <ele>165</ele>
        <time>2026-05-13T10:14:05+02:00</time>
      </trkpt>
      <trkpt lat="45.82816" lon="4.8513">
        <ele>165.10059</ele>
        <time>2026-05-13T10:14:06+02:00</time>
      </trkpt>
      <trkpt lat="45.82821" lon="4.85126">
        <ele>164.90039</ele>
        <time>2026-05-13T10:14:07+02:00</time>
      </trkpt>
      <trkpt lat="45.82825" lon="4.85121">
        <ele>165.10059</ele>
        <time>2026-05-13T10:14:08+02:00</time>
      </trkpt>
      <trkpt lat="45.8283" lon="4.85117">
        <ele>164.7998</ele>
        <time>2026-05-13T10:14:09+02:00</time>
      </trkpt>
      <trkpt lat="45.82834" lon="4.85113">
        <ele>164.7002</ele>
        <time>2026-05-13T10:14:10+02:00</time>
      </trkpt>
      <trkpt lat="45.82839" lon="4.85109">
        <ele>164.7002</ele>
        <time>2026-05-13T10:14:11+02:00</time>
      </trkpt>
      <trkpt lat="45.82844" lon="4.85104">
        <ele>164.7002</ele>
        <time>2026-05-13T10:14:12+02:00</time>
      </trkpt>
      <trkpt lat="45.82848" lon="4.85099">
        <ele>164.7002</ele>
        <time>2026-05-13T10:14:13+02:00</time>
      </trkpt>
      <trkpt lat="45.82853" lon="4.85095">
        <ele>164.7002</ele>
        <time>2026-05-13T10:14:14+02:00</time>
      </trkpt>
      <trkpt lat="45.82858" lon="4.8509">
        <ele>164.60059</ele>
        <time>2026-05-13T10:14:15+02:00</time>
      </trkpt>
      <trkpt lat="45.82862" lon="4.85085">
        <ele>164.60059</ele>
        <time>2026-05-13T10:14:16+02:00</time>
      </trkpt>
      <trkpt lat="45.82866" lon="4.8508">
        <ele>164.7002</ele>
        <time>2026-05-13T10:14:17+02:00</time>
      </trkpt>
      <trkpt lat="45.82871" lon="4.85076">
        <ele>164.7002</ele>
        <time>2026-05-13T10:14:18+02:00</time>
      </trkpt>
      <trkpt lat="45.82876" lon="4.85071">
        <ele>164.7002</ele>
        <time>2026-05-13T10:14:19+02:00</time>
      </trkpt>
      <trkpt lat="45.8288" lon="4.85066">
        <ele>164.7002</ele>
        <time>2026-05-13T10:14:20+02:00</time>
      </trkpt>
      <trkpt lat="45.82884" lon="4.85062">
        <ele>164.60059</ele>
        <time>2026-05-13T10:14:21+02:00</time>
      </trkpt>
      <trkpt lat="45.82888" lon="4.85058">
        <ele>164.7002</ele>
        <time>2026-05-13T10:14:22+02:00</time>
      </trkpt>
      <trkpt lat="45.82892" lon="4.85053">
        <ele>164.60059</ele>
        <time>2026-05-13T10:14:23+02:00</time>
      </trkpt>
      <trkpt lat="45.82897" lon="4.85049">
        <ele>164.7002</ele>
        <time>2026-05-13T10:14:24+02:00</time>
      </trkpt>
      <trkpt lat="45.82901" lon="4.85043">
        <ele>164.7998</ele>
        <time>2026-05-13T10:14:25+02:00</time>
      </trkpt>
      <trkpt lat="45.82905" lon="4.85038">
        <ele>164.7998</ele>
        <time>2026-05-13T10:14:26+02:00</time>
      </trkpt>
      <trkpt lat="45.8291" lon="4.85033">
        <ele>164.7998</ele>
        <time>2026-05-13T10:14:27+02:00</time>
      </trkpt>
      <trkpt lat="45.82914" lon="4.85027">
        <ele>164.7998</ele>
        <time>2026-05-13T10:14:28+02:00</time>
      </trkpt>
      <trkpt lat="45.82919" lon="4.85022">
        <ele>164.7002</ele>
        <time>2026-05-13T10:14:29+02:00</time>
      </trkpt>
      <trkpt lat="45.82924" lon="4.85016">
        <ele>164.60059</ele>
        <time>2026-05-13T10:14:30+02:00</time>
      </trkpt>
      <trkpt lat="45.82928" lon="4.85011">
        <ele>164.7002</ele>
        <time>2026-05-13T10:14:31+02:00</time>
      </trkpt>
      <trkpt lat="45.82932" lon="4.85005">
        <ele>164.7002</ele>
        <time>2026-05-13T10:14:32+02:00</time>
      </trkpt>
      <trkpt lat="45.82937" lon="4.85">
        <ele>164.7002</ele>
        <time>2026-05-13T10:14:33+02:00</time>
      </trkpt>
      <trkpt lat="45.82941" lon="4.84995">
        <ele>164.7002</ele>
        <time>2026-05-13T10:14:34+02:00</time>
      </trkpt>
      <trkpt lat="45.82945" lon="4.84989">
        <ele>164.7002</ele>
        <time>2026-05-13T10:14:35+02:00</time>
      </trkpt>
      <trkpt lat="45.8295" lon="4.84984">
        <ele>164.7002</ele>
        <time>2026-05-13T10:14:36+02:00</time>
      </trkpt>
      <trkpt lat="45.82954" lon="4.84979">
        <ele>164.7002</ele>
        <time>2026-05-13T10:14:37+02:00</time>
      </trkpt>
      <trkpt lat="45.82958" lon="4.84973">
        <ele>164.7002</ele>
        <time>2026-05-13T10:14:38+02:00</time>
      </trkpt>
      <trkpt lat="45.82962" lon="4.84968">
        <ele>164.7998</ele>
        <time>2026-05-13T10:14:39+02:00</time>
      </trkpt>
      <trkpt lat="45.82966" lon="4.84962">
        <ele>164.7998</ele>
        <time>2026-05-13T10:14:40+02:00</time>
      </trkpt>
      <trkpt lat="45.8297" lon="4.84957">
        <ele>164.7998</ele>
        <time>2026-05-13T10:14:41+02:00</time>
      </trkpt>
      <trkpt lat="45.82974" lon="4.84952">
        <ele>164.7998</ele>
        <time>2026-05-13T10:14:42+02:00</time>
      </trkpt>
      <trkpt lat="45.82979" lon="4.84946">
        <ele>164.7998</ele>
        <time>2026-05-13T10:14:43+02:00</time>
      </trkpt>
      <trkpt lat="45.82982" lon="4.8494">
        <ele>164.7002</ele>
        <time>2026-05-13T10:14:44+02:00</time>
      </trkpt>
      <trkpt lat="45.82987" lon="4.84935">
        <ele>164.7002</ele>
        <time>2026-05-13T10:14:45+02:00</time>
      </trkpt>
      <trkpt lat="45.8299" lon="4.84929">
        <ele>164.7002</ele>
        <time>2026-05-13T10:14:46+02:00</time>
      </trkpt>
      <trkpt lat="45.82995" lon="4.84924">
        <ele>164.7998</ele>
        <time>2026-05-13T10:14:47+02:00</time>
      </trkpt>
      <trkpt lat="45.82998" lon="4.84918">
        <ele>164.7998</ele>
        <time>2026-05-13T10:14:48+02:00</time>
      </trkpt>
      <trkpt lat="45.83003" lon="4.84913">
        <ele>164.7002</ele>
        <time>2026-05-13T10:14:49+02:00</time>
      </trkpt>
      <trkpt lat="45.83006" lon="4.84908">
        <ele>164.60059</ele>
        <time>2026-05-13T10:14:50+02:00</time>
      </trkpt>
      <trkpt lat="45.8301" lon="4.84902">
        <ele>164.60059</ele>
        <time>2026-05-13T10:14:51+02:00</time>
      </trkpt>
      <trkpt lat="45.83014" lon="4.84897">
        <ele>164.7002</ele>
        <time>2026-05-13T10:14:52+02:00</time>
      </trkpt>
      <trkpt lat="45.83018" lon="4.84891">
        <ele>164.7002</ele>
        <time>2026-05-13T10:14:53+02:00</time>
      </trkpt>
      <trkpt lat="45.83022" lon="4.84885">
        <ele>164.7002</ele>
        <time>2026-05-13T10:14:54+02:00</time>
      </trkpt>
      <trkpt lat="45.83025" lon="4.84879">
        <ele>164.60059</ele>
        <time>2026-05-13T10:14:55+02:00</time>
      </trkpt>
      <trkpt lat="45.83029" lon="4.84874">
        <ele>164.7002</ele>
        <time>2026-05-13T10:14:56+02:00</time>
      </trkpt>
      <trkpt lat="45.83032" lon="4.84868">
        <ele>164.7002</ele>
        <time>2026-05-13T10:14:57+02:00</time>
      </trkpt>
      <trkpt lat="45.83035" lon="4.84862">
        <ele>164.90039</ele>
        <time>2026-05-13T10:14:58+02:00</time>
      </trkpt>
      <trkpt lat="45.83038" lon="4.84856">
        <ele>165.2002</ele>
        <time>2026-05-13T10:14:59+02:00</time>
      </trkpt>
      <trkpt lat="45.83041" lon="4.8485">
        <ele>165.2002</ele>
        <time>2026-05-13T10:15:00+02:00</time>
      </trkpt>
      <trkpt lat="45.83044" lon="4.84844">
        <ele>165.5</ele>
        <time>2026-05-13T10:15:01+02:00</time>
      </trkpt>
      <trkpt lat="45.83047" lon="4.84838">
        <ele>166</ele>
        <time>2026-05-13T10:15:02+02:00</time>
      </trkpt>
      <trkpt lat="45.8305" lon="4.84832">
        <ele>165.60059</ele>
        <time>2026-05-13T10:15:03+02:00</time>
      </trkpt>
      <trkpt lat="45.83053" lon="4.84826">
        <ele>166</ele>
        <time>2026-05-13T10:15:04+02:00</time>
      </trkpt>
      <trkpt lat="45.83056" lon="4.84819">
        <ele>165.90039</ele>
        <time>2026-05-13T10:15:05+02:00</time>
      </trkpt>
      <trkpt lat="45.83058" lon="4.84813">
        <ele>166.5</ele>
        <time>2026-05-13T10:15:06+02:00</time>
      </trkpt>
      <trkpt lat="45.83061" lon="4.84808">
        <ele>166</ele>
        <time>2026-05-13T10:15:07+02:00</time>
      </trkpt>
      <trkpt lat="45.83064" lon="4.84802">
        <ele>166.60059</ele>
        <time>2026-05-13T10:15:08+02:00</time>
      </trkpt>
      <trkpt lat="45.83067" lon="4.84797">
        <ele>166.5</ele>
        <time>2026-05-13T10:15:09+02:00</time>
      </trkpt>
      <trkpt lat="45.83069" lon="4.84792">
        <ele>166.5</ele>
        <time>2026-05-13T10:15:10+02:00</time>
      </trkpt>
      <trkpt lat="45.83072" lon="4.84787">
        <ele>166.2002</ele>
        <time>2026-05-13T10:15:11+02:00</time>
      </trkpt>
      <trkpt lat="45.83074" lon="4.84782">
        <ele>166.2002</ele>
        <time>2026-05-13T10:15:12+02:00</time>
      </trkpt>
      <trkpt lat="45.83076" lon="4.84777">
        <ele>166.7002</ele>
        <time>2026-05-13T10:15:13+02:00</time>
      </trkpt>
      <trkpt lat="45.83078" lon="4.84773">
        <ele>166.10059</ele>
        <time>2026-05-13T10:15:14+02:00</time>
      </trkpt>
      <trkpt lat="45.83081" lon="4.84768">
        <ele>166.5</ele>
        <time>2026-05-13T10:15:15+02:00</time>
      </trkpt>
      <trkpt lat="45.83083" lon="4.84764">
        <ele>166.5</ele>
        <time>2026-05-13T10:15:16+02:00</time>
      </trkpt>
      <trkpt lat="45.83086" lon="4.8476">
        <ele>166.2998</ele>
        <time>2026-05-13T10:15:17+02:00</time>
      </trkpt>
      <trkpt lat="45.8309" lon="4.84757">
        <ele>165.7998</ele>
        <time>2026-05-13T10:15:18+02:00</time>
      </trkpt>
      <trkpt lat="45.83093" lon="4.84753">
        <ele>166</ele>
        <time>2026-05-13T10:15:19+02:00</time>
      </trkpt>
      <trkpt lat="45.83096" lon="4.8475">
        <ele>165.40039</ele>
        <time>2026-05-13T10:15:20+02:00</time>
      </trkpt>
      <trkpt lat="45.83099" lon="4.84746">
        <ele>165.5</ele>
        <time>2026-05-13T10:15:21+02:00</time>
      </trkpt>
      <trkpt lat="45.83102" lon="4.84742">
        <ele>164.90039</ele>
        <time>2026-05-13T10:15:22+02:00</time>
      </trkpt>
      <trkpt lat="45.83104" lon="4.84737">
        <ele>165.10059</ele>
        <time>2026-05-13T10:15:23+02:00</time>
      </trkpt>
      <trkpt lat="45.83106" lon="4.84732">
        <ele>165.10059</ele>
        <time>2026-05-13T10:15:24+02:00</time>
      </trkpt>
      <trkpt lat="45.83108" lon="4.84726">
        <ele>164.90039</ele>
        <time>2026-05-13T10:15:25+02:00</time>
      </trkpt>
      <trkpt lat="45.8311" lon="4.8472">
        <ele>165.2998</ele>
        <time>2026-05-13T10:15:26+02:00</time>
      </trkpt>
      <trkpt lat="45.83112" lon="4.84713">
        <ele>165.2998</ele>
        <time>2026-05-13T10:15:27+02:00</time>
      </trkpt>
      <trkpt lat="45.83114" lon="4.84707">
        <ele>165.2998</ele>
        <time>2026-05-13T10:15:28+02:00</time>
      </trkpt>
      <trkpt lat="45.83117" lon="4.84702">
        <ele>165.7002</ele>
        <time>2026-05-13T10:15:29+02:00</time>
      </trkpt>
      <trkpt lat="45.8312" lon="4.84696">
        <ele>165.2002</ele>
        <time>2026-05-13T10:15:30+02:00</time>
      </trkpt>
      <trkpt lat="45.83124" lon="4.84691">
        <ele>165.40039</ele>
        <time>2026-05-13T10:15:31+02:00</time>
      </trkpt>
      <trkpt lat="45.83127" lon="4.84685">
        <ele>165.2998</ele>
        <time>2026-05-13T10:15:32+02:00</time>
      </trkpt>
      <trkpt lat="45.83131" lon="4.84679">
        <ele>165.2998</ele>
        <time>2026-05-13T10:15:33+02:00</time>
      </trkpt>
      <trkpt lat="45.83135" lon="4.84673">
        <ele>165.40039</ele>
        <time>2026-05-13T10:15:34+02:00</time>
      </trkpt>
      <trkpt lat="45.83139" lon="4.84667">
        <ele>165.2998</ele>
        <time>2026-05-13T10:15:35+02:00</time>
      </trkpt>
      <trkpt lat="45.83143" lon="4.8466">
        <ele>165.60059</ele>
        <time>2026-05-13T10:15:36+02:00</time>
      </trkpt>
      <trkpt lat="45.83146" lon="4.84654">
        <ele>165.10059</ele>
        <time>2026-05-13T10:15:37+02:00</time>
      </trkpt>
      <trkpt lat="45.83149" lon="4.84647">
        <ele>165.5</ele>
        <time>2026-05-13T10:15:38+02:00</time>
      </trkpt>
      <trkpt lat="45.83153" lon="4.8464">
        <ele>165.60059</ele>
        <time>2026-05-13T10:15:39+02:00</time>
      </trkpt>
      <trkpt lat="45.83156" lon="4.84633">
        <ele>165.5</ele>
        <time>2026-05-13T10:15:40+02:00</time>
      </trkpt>
      <trkpt lat="45.83158" lon="4.84627">
        <ele>165.5</ele>
        <time>2026-05-13T10:15:41+02:00</time>
      </trkpt>
      <trkpt lat="45.83161" lon="4.84619">
        <ele>165.2998</ele>
        <time>2026-05-13T10:15:42+02:00</time>
      </trkpt>
      <trkpt lat="45.83164" lon="4.84612">
        <ele>165.60059</ele>
        <time>2026-05-13T10:15:43+02:00</time>
      </trkpt>
      <trkpt lat="45.83167" lon="4.84605">
        <ele>166.10059</ele>
        <time>2026-05-13T10:15:44+02:00</time>
      </trkpt>
      <trkpt lat="45.83169" lon="4.84597">
        <ele>166</ele>
        <time>2026-05-13T10:15:45+02:00</time>
      </trkpt>
      <trkpt lat="45.83172" lon="4.8459">
        <ele>166.2998</ele>
        <time>2026-05-13T10:15:46+02:00</time>
      </trkpt>
      <trkpt lat="45.83174" lon="4.84582">
        <ele>166.2002</ele>
        <time>2026-05-13T10:15:47+02:00</time>
      </trkpt>
      <trkpt lat="45.83177" lon="4.84574">
        <ele>166.60059</ele>
        <time>2026-05-13T10:15:48+02:00</time>
      </trkpt>
      <trkpt lat="45.83179" lon="4.84566">
        <ele>166.10059</ele>
        <time>2026-05-13T10:15:49+02:00</time>
      </trkpt>
      <trkpt lat="45.83182" lon="4.84558">
        <ele>166.5</ele>
        <time>2026-05-13T10:15:50+02:00</time>
      </trkpt>
      <trkpt lat="45.83183" lon="4.8455">
        <ele>166.90039</ele>
        <time>2026-05-13T10:15:51+02:00</time>
      </trkpt>
      <trkpt lat="45.83186" lon="4.84542">
        <ele>166.40039</ele>
        <time>2026-05-13T10:15:52+02:00</time>
      </trkpt>
      <trkpt lat="45.83188" lon="4.84533">
        <ele>166.60059</ele>
        <time>2026-05-13T10:15:53+02:00</time>
      </trkpt>
      <trkpt lat="45.8319" lon="4.84525">
        <ele>166.7998</ele>
        <time>2026-05-13T10:15:54+02:00</time>
      </trkpt>
      <trkpt lat="45.83191" lon="4.84517">
        <ele>166.10059</ele>
        <time>2026-05-13T10:15:55+02:00</time>
      </trkpt>
      <trkpt lat="45.83194" lon="4.84508">
        <ele>166.2002</ele>
        <time>2026-05-13T10:15:56+02:00</time>
      </trkpt>
      <trkpt lat="45.83196" lon="4.845">
        <ele>166.2998</ele>
        <time>2026-05-13T10:15:57+02:00</time>
      </trkpt>
      <trkpt lat="45.83198" lon="4.84491">
        <ele>165.60059</ele>
        <time>2026-05-13T10:15:58+02:00</time>
      </trkpt>
      <trkpt lat="45.83199" lon="4.84483">
        <ele>165.60059</ele>
        <time>2026-05-13T10:15:59+02:00</time>
      </trkpt>
      <trkpt lat="45.83201" lon="4.84475">
        <ele>165.60059</ele>
        <time>2026-05-13T10:16:00+02:00</time>
      </trkpt>
      <trkpt lat="45.83203" lon="4.84466">
        <ele>165</ele>
        <time>2026-05-13T10:16:01+02:00</time>
      </trkpt>
      <trkpt lat="45.83204" lon="4.84458">
        <ele>165.10059</ele>
        <time>2026-05-13T10:16:02+02:00</time>
      </trkpt>
      <trkpt lat="45.83206" lon="4.84449">
        <ele>165.40039</ele>
        <time>2026-05-13T10:16:03+02:00</time>
      </trkpt>
      <trkpt lat="45.83207" lon="4.8444">
        <ele>165.90039</ele>
        <time>2026-05-13T10:16:04+02:00</time>
      </trkpt>
      <trkpt lat="45.83209" lon="4.84432">
        <ele>166.2998</ele>
        <time>2026-05-13T10:16:05+02:00</time>
      </trkpt>
      <trkpt lat="45.8321" lon="4.84423">
        <ele>166.10059</ele>
        <time>2026-05-13T10:16:06+02:00</time>
      </trkpt>
      <trkpt lat="45.83212" lon="4.84414">
        <ele>166.40039</ele>
        <time>2026-05-13T10:16:07+02:00</time>
      </trkpt>
      <trkpt lat="45.83214" lon="4.84406">
        <ele>166.7002</ele>
        <time>2026-05-13T10:16:08+02:00</time>
      </trkpt>
      <trkpt lat="45.83215" lon="4.84398">
        <ele>166</ele>
        <time>2026-05-13T10:16:09+02:00</time>
      </trkpt>
      <trkpt lat="45.83217" lon="4.8439">
        <ele>166</ele>
        <time>2026-05-13T10:16:10+02:00</time>
      </trkpt>
      <trkpt lat="45.83219" lon="4.84381">
        <ele>166</ele>
        <time>2026-05-13T10:16:11+02:00</time>
      </trkpt>
      <trkpt lat="45.8322" lon="4.84373">
        <ele>166.10059</ele>
        <time>2026-05-13T10:16:12+02:00</time>
      </trkpt>
      <trkpt lat="45.83222" lon="4.84365">
        <ele>165.2002</ele>
        <time>2026-05-13T10:16:13+02:00</time>
      </trkpt>
      <trkpt lat="45.83223" lon="4.84357">
        <ele>165.10059</ele>
        <time>2026-05-13T10:16:14+02:00</time>
      </trkpt>
      <trkpt lat="45.83225" lon="4.84349">
        <ele>165</ele>
        <time>2026-05-13T10:16:15+02:00</time>
      </trkpt>
      <trkpt lat="45.83227" lon="4.84341">
        <ele>164.90039</ele>
        <time>2026-05-13T10:16:16+02:00</time>
      </trkpt>
      <trkpt lat="45.83228" lon="4.84333">
        <ele>165.2002</ele>
        <time>2026-05-13T10:16:17+02:00</time>
      </trkpt>
      <trkpt lat="45.8323" lon="4.84326">
        <ele>165.2002</ele>
        <time>2026-05-13T10:16:18+02:00</time>
      </trkpt>
      <trkpt lat="45.83232" lon="4.84318">
        <ele>165.60059</ele>
        <time>2026-05-13T10:16:19+02:00</time>
      </trkpt>
      <trkpt lat="45.83233" lon="4.84311">
        <ele>165.7002</ele>
        <time>2026-05-13T10:16:20+02:00</time>
      </trkpt>
      <trkpt lat="45.83235" lon="4.84303">
        <ele>166</ele>
        <time>2026-05-13T10:16:21+02:00</time>
      </trkpt>
      <trkpt lat="45.83237" lon="4.84294">
        <ele>166.10059</ele>
        <time>2026-05-13T10:16:22+02:00</time>
      </trkpt>
      <trkpt lat="45.83238" lon="4.84286">
        <ele>166.10059</ele>
        <time>2026-05-13T10:16:23+02:00</time>
      </trkpt>
      <trkpt lat="45.8324" lon="4.84279">
        <ele>165.5</ele>
        <time>2026-05-13T10:16:24+02:00</time>
      </trkpt>
      <trkpt lat="45.83242" lon="4.84271">
        <ele>165.5</ele>
        <time>2026-05-13T10:16:25+02:00</time>
      </trkpt>
      <trkpt lat="45.83244" lon="4.84262">
        <ele>165.40039</ele>
        <time>2026-05-13T10:16:26+02:00</time>
      </trkpt>
      <trkpt lat="45.83246" lon="4.84254">
        <ele>165.2002</ele>
        <time>2026-05-13T10:16:27+02:00</time>
      </trkpt>
      <trkpt lat="45.83248" lon="4.84246">
        <ele>165.2002</ele>
        <time>2026-05-13T10:16:28+02:00</time>
      </trkpt>
      <trkpt lat="45.83249" lon="4.84238">
        <ele>165.2002</ele>
        <time>2026-05-13T10:16:29+02:00</time>
      </trkpt>
      <trkpt lat="45.83252" lon="4.8423">
        <ele>165.2002</ele>
        <time>2026-05-13T10:16:30+02:00</time>
      </trkpt>
      <trkpt lat="45.83253" lon="4.84222">
        <ele>165.2002</ele>
        <time>2026-05-13T10:16:31+02:00</time>
      </trkpt>
      <trkpt lat="45.83256" lon="4.84214">
        <ele>165.2002</ele>
        <time>2026-05-13T10:16:32+02:00</time>
      </trkpt>
      <trkpt lat="45.83257" lon="4.84206">
        <ele>165.2002</ele>
        <time>2026-05-13T10:16:33+02:00</time>
      </trkpt>
      <trkpt lat="45.83259" lon="4.84198">
        <ele>165.2002</ele>
        <time>2026-05-13T10:16:34+02:00</time>
      </trkpt>
      <trkpt lat="45.83261" lon="4.8419">
        <ele>165.2002</ele>
        <time>2026-05-13T10:16:35+02:00</time>
      </trkpt>
      <trkpt lat="45.83263" lon="4.84181">
        <ele>165.2002</ele>
        <time>2026-05-13T10:16:36+02:00</time>
      </trkpt>
      <trkpt lat="45.83265" lon="4.84173">
        <ele>165.2002</ele>
        <time>2026-05-13T10:16:37+02:00</time>
      </trkpt>
      <trkpt lat="45.83267" lon="4.84165">
        <ele>165.2002</ele>
        <time>2026-05-13T10:16:38+02:00</time>
      </trkpt>
      <trkpt lat="45.83268" lon="4.84157">
        <ele>165.2002</ele>
        <time>2026-05-13T10:16:39+02:00</time>
      </trkpt>
      <trkpt lat="45.8327" lon="4.84148">
        <ele>165.2002</ele>
        <time>2026-05-13T10:16:40+02:00</time>
      </trkpt>
      <trkpt lat="45.83272" lon="4.84141">
        <ele>165.2002</ele>
        <time>2026-05-13T10:16:41+02:00</time>
      </trkpt>
      <trkpt lat="45.83274" lon="4.84133">
        <ele>165.2002</ele>
        <time>2026-05-13T10:16:42+02:00</time>
      </trkpt>
      <trkpt lat="45.83276" lon="4.84124">
        <ele>165.2002</ele>
        <time>2026-05-13T10:16:43+02:00</time>
      </trkpt>
      <trkpt lat="45.83278" lon="4.84116">
        <ele>165.2002</ele>
        <time>2026-05-13T10:16:44+02:00</time>
      </trkpt>
      <trkpt lat="45.8328" lon="4.84108">
        <ele>165.2002</ele>
        <time>2026-05-13T10:16:45+02:00</time>
      </trkpt>
      <trkpt lat="45.83281" lon="4.841">
        <ele>165.2002</ele>
        <time>2026-05-13T10:16:46+02:00</time>
      </trkpt>
      <trkpt lat="45.83283" lon="4.84092">
        <ele>165.10059</ele>
        <time>2026-05-13T10:16:47+02:00</time>
      </trkpt>
      <trkpt lat="45.83285" lon="4.84085">
        <ele>165</ele>
        <time>2026-05-13T10:16:48+02:00</time>
      </trkpt>
      <trkpt lat="45.83287" lon="4.84077">
        <ele>165.10059</ele>
        <time>2026-05-13T10:16:49+02:00</time>
      </trkpt>
      <trkpt lat="45.83289" lon="4.84069">
        <ele>165.2002</ele>
        <time>2026-05-13T10:16:50+02:00</time>
      </trkpt>
      <trkpt lat="45.8329" lon="4.84061">
        <ele>165.2998</ele>
        <time>2026-05-13T10:16:51+02:00</time>
      </trkpt>
      <trkpt lat="45.83292" lon="4.84053">
        <ele>165.7002</ele>
        <time>2026-05-13T10:16:52+02:00</time>
      </trkpt>
      <trkpt lat="45.83294" lon="4.84045">
        <ele>165.60059</ele>
        <time>2026-05-13T10:16:53+02:00</time>
      </trkpt>
      <trkpt lat="45.83296" lon="4.84038">
        <ele>165.7998</ele>
        <time>2026-05-13T10:16:54+02:00</time>
      </trkpt>
      <trkpt lat="45.83297" lon="4.8403">
        <ele>165.7002</ele>
        <time>2026-05-13T10:16:55+02:00</time>
      </trkpt>
      <trkpt lat="45.83299" lon="4.84022">
        <ele>164.90039</ele>
        <time>2026-05-13T10:16:56+02:00</time>
      </trkpt>
      <trkpt lat="45.83301" lon="4.84015">
        <ele>164.90039</ele>
        <time>2026-05-13T10:16:57+02:00</time>
      </trkpt>
      <trkpt lat="45.83302" lon="4.84008">
        <ele>164.90039</ele>
        <time>2026-05-13T10:16:58+02:00</time>
      </trkpt>
      <trkpt lat="45.83304" lon="4.84">
        <ele>165.2998</ele>
        <time>2026-05-13T10:16:59+02:00</time>
      </trkpt>
      <trkpt lat="45.83306" lon="4.83993">
        <ele>165.5</ele>
        <time>2026-05-13T10:17:00+02:00</time>
      </trkpt>
      <trkpt lat="45.83308" lon="4.83985">
        <ele>166.2002</ele>
        <time>2026-05-13T10:17:01+02:00</time>
      </trkpt>
      <trkpt lat="45.83309" lon="4.83978">
        <ele>167</ele>
        <time>2026-05-13T10:17:02+02:00</time>
      </trkpt>
      <trkpt lat="45.83311" lon="4.8397">
        <ele>166.2002</ele>
        <time>2026-05-13T10:17:03+02:00</time>
      </trkpt>
      <trkpt lat="45.83313" lon="4.83963">
        <ele>166.10059</ele>
        <time>2026-05-13T10:17:04+02:00</time>
      </trkpt>
      <trkpt lat="45.83315" lon="4.83955">
        <ele>166.10059</ele>
        <time>2026-05-13T10:17:05+02:00</time>
      </trkpt>
      <trkpt lat="45.83317" lon="4.83948">
        <ele>165</ele>
        <time>2026-05-13T10:17:06+02:00</time>
      </trkpt>
      <trkpt lat="45.83319" lon="4.83941">
        <ele>165.10059</ele>
        <time>2026-05-13T10:17:07+02:00</time>
      </trkpt>
      <trkpt lat="45.83321" lon="4.83933">
        <ele>165.2998</ele>
        <time>2026-05-13T10:17:08+02:00</time>
      </trkpt>
      <trkpt lat="45.83323" lon="4.83926">
        <ele>165.5</ele>
        <time>2026-05-13T10:17:09+02:00</time>
      </trkpt>
      <trkpt lat="45.83325" lon="4.83919">
        <ele>166</ele>
        <time>2026-05-13T10:17:10+02:00</time>
      </trkpt>
      <trkpt lat="45.83326" lon="4.83911">
        <ele>166.5</ele>
        <time>2026-05-13T10:17:11+02:00</time>
      </trkpt>
      <trkpt lat="45.83328" lon="4.83903">
        <ele>167.10059</ele>
        <time>2026-05-13T10:17:12+02:00</time>
      </trkpt>
      <trkpt lat="45.8333" lon="4.83896">
        <ele>166.2002</ele>
        <time>2026-05-13T10:17:13+02:00</time>
      </trkpt>
      <trkpt lat="45.83332" lon="4.83889">
        <ele>166.2002</ele>
        <time>2026-05-13T10:17:14+02:00</time>
      </trkpt>
      <trkpt lat="45.83334" lon="4.83881">
        <ele>166.40039</ele>
        <time>2026-05-13T10:17:15+02:00</time>
      </trkpt>
      <trkpt lat="45.83336" lon="4.83874">
        <ele>165.10059</ele>
        <time>2026-05-13T10:17:16+02:00</time>
      </trkpt>
      <trkpt lat="45.83338" lon="4.83867">
        <ele>165.5</ele>
        <time>2026-05-13T10:17:17+02:00</time>
      </trkpt>
      <trkpt lat="45.83339" lon="4.8386">
        <ele>166.40039</ele>
        <time>2026-05-13T10:17:18+02:00</time>
      </trkpt>
      <trkpt lat="45.83341" lon="4.83852">
        <ele>166.60059</ele>
        <time>2026-05-13T10:17:19+02:00</time>
      </trkpt>
      <trkpt lat="45.83343" lon="4.83845">
        <ele>166.60059</ele>
        <time>2026-05-13T10:17:20+02:00</time>
      </trkpt>
      <trkpt lat="45.83345" lon="4.83838">
        <ele>167.2998</ele>
        <time>2026-05-13T10:17:21+02:00</time>
      </trkpt>
      <trkpt lat="45.83347" lon="4.83831">
        <ele>166.40039</ele>
        <time>2026-05-13T10:17:22+02:00</time>
      </trkpt>
      <trkpt lat="45.83349" lon="4.83824">
        <ele>166.5</ele>
        <time>2026-05-13T10:17:23+02:00</time>
      </trkpt>
      <trkpt lat="45.83351" lon="4.83817">
        <ele>166.60059</ele>
        <time>2026-05-13T10:17:24+02:00</time>
      </trkpt>
      <trkpt lat="45.83352" lon="4.83811">
        <ele>166.60059</ele>
        <time>2026-05-13T10:17:25+02:00</time>
      </trkpt>
      <trkpt lat="45.83354" lon="4.83804">
        <ele>165.5</ele>
        <time>2026-05-13T10:17:26+02:00</time>
      </trkpt>
      <trkpt lat="45.83355" lon="4.83798">
        <ele>165.2002</ele>
        <time>2026-05-13T10:17:27+02:00</time>
      </trkpt>
      <trkpt lat="45.83357" lon="4.83792">
        <ele>164.90039</ele>
        <time>2026-05-13T10:17:28+02:00</time>
      </trkpt>
      <trkpt lat="45.8336" lon="4.83787">
        <ele>164.7998</ele>
        <time>2026-05-13T10:17:29+02:00</time>
      </trkpt>
      <trkpt lat="45.83362" lon="4.83781">
        <ele>164.7002</ele>
        <time>2026-05-13T10:17:30+02:00</time>
      </trkpt>
      <trkpt lat="45.83363" lon="4.83775">
        <ele>165.2998</ele>
        <time>2026-05-13T10:17:31+02:00</time>
      </trkpt>
      <trkpt lat="45.83365" lon="4.83769">
        <ele>165.2002</ele>
        <time>2026-05-13T10:17:32+02:00</time>
      </trkpt>
      <trkpt lat="45.83367" lon="4.83763">
        <ele>165.40039</ele>
        <time>2026-05-13T10:17:33+02:00</time>
      </trkpt>
      <trkpt lat="45.83368" lon="4.83758">
        <ele>166</ele>
        <time>2026-05-13T10:17:34+02:00</time>
      </trkpt>
      <trkpt lat="45.8337" lon="4.83751">
        <ele>166</ele>
        <time>2026-05-13T10:17:35+02:00</time>
      </trkpt>
      <trkpt lat="45.83372" lon="4.83745">
        <ele>165.7002</ele>
        <time>2026-05-13T10:17:36+02:00</time>
      </trkpt>
      <trkpt lat="45.83373" lon="4.83739">
        <ele>165.7002</ele>
        <time>2026-05-13T10:17:37+02:00</time>
      </trkpt>
      <trkpt lat="45.83375" lon="4.83733">
        <ele>165.5</ele>
        <time>2026-05-13T10:17:38+02:00</time>
      </trkpt>
      <trkpt lat="45.83376" lon="4.83727">
        <ele>165.5</ele>
        <time>2026-05-13T10:17:39+02:00</time>
      </trkpt>
      <trkpt lat="45.83378" lon="4.83722">
        <ele>164.7998</ele>
        <time>2026-05-13T10:17:40+02:00</time>
      </trkpt>
      <trkpt lat="45.8338" lon="4.83716">
        <ele>165</ele>
        <time>2026-05-13T10:17:41+02:00</time>
      </trkpt>
      <trkpt lat="45.83382" lon="4.8371">
        <ele>165</ele>
        <time>2026-05-13T10:17:42+02:00</time>
      </trkpt>
      <trkpt lat="45.83384" lon="4.83704">
        <ele>165.2998</ele>
        <time>2026-05-13T10:17:43+02:00</time>
      </trkpt>
      <trkpt lat="45.83386" lon="4.83698">
        <ele>165.7002</ele>
        <time>2026-05-13T10:17:44+02:00</time>
      </trkpt>
      <trkpt lat="45.83388" lon="4.83692">
        <ele>165.7002</ele>
        <time>2026-05-13T10:17:45+02:00</time>
      </trkpt>
      <trkpt lat="45.83389" lon="4.83686">
        <ele>165.60059</ele>
        <time>2026-05-13T10:17:46+02:00</time>
      </trkpt>
      <trkpt lat="45.83391" lon="4.8368">
        <ele>165.90039</ele>
        <time>2026-05-13T10:17:47+02:00</time>
      </trkpt>
      <trkpt lat="45.83393" lon="4.83674">
        <ele>165.90039</ele>
        <time>2026-05-13T10:17:48+02:00</time>
      </trkpt>
      <trkpt lat="45.83395" lon="4.83668">
        <ele>165.2002</ele>
        <time>2026-05-13T10:17:49+02:00</time>
      </trkpt>
      <trkpt lat="45.83397" lon="4.83661">
        <ele>164.7998</ele>
        <time>2026-05-13T10:17:50+02:00</time>
      </trkpt>
      <trkpt lat="45.83399" lon="4.83655">
        <ele>164.60059</ele>
        <time>2026-05-13T10:17:51+02:00</time>
      </trkpt>
      <trkpt lat="45.83401" lon="4.83649">
        <ele>164.7002</ele>
        <time>2026-05-13T10:17:52+02:00</time>
      </trkpt>
      <trkpt lat="45.83403" lon="4.83643">
        <ele>165</ele>
        <time>2026-05-13T10:17:53+02:00</time>
      </trkpt>
      <trkpt lat="45.83405" lon="4.83637">
        <ele>165.40039</ele>
        <time>2026-05-13T10:17:54+02:00</time>
      </trkpt>
      <trkpt lat="45.83407" lon="4.83631">
        <ele>165.2998</ele>
        <time>2026-05-13T10:17:55+02:00</time>
      </trkpt>
      <trkpt lat="45.83408" lon="4.83624">
        <ele>165.60059</ele>
        <time>2026-05-13T10:17:56+02:00</time>
      </trkpt>
      <trkpt lat="45.8341" lon="4.83618">
        <ele>166.2002</ele>
        <time>2026-05-13T10:17:57+02:00</time>
      </trkpt>
      <trkpt lat="45.83413" lon="4.83612">
        <ele>165.2998</ele>
        <time>2026-05-13T10:17:58+02:00</time>
      </trkpt>
      <trkpt lat="45.83415" lon="4.83606">
        <ele>165.2998</ele>
        <time>2026-05-13T10:17:59+02:00</time>
      </trkpt>
      <trkpt lat="45.83417" lon="4.836">
        <ele>165</ele>
        <time>2026-05-13T10:18:00+02:00</time>
      </trkpt>
      <trkpt lat="45.83419" lon="4.83594">
        <ele>164.7002</ele>
        <time>2026-05-13T10:18:01+02:00</time>
      </trkpt>
      <trkpt lat="45.83421" lon="4.83588">
        <ele>164.7002</ele>
        <time>2026-05-13T10:18:02+02:00</time>
      </trkpt>
      <trkpt lat="45.83424" lon="4.83582">
        <ele>164.60059</ele>
        <time>2026-05-13T10:18:03+02:00</time>
      </trkpt>
      <trkpt lat="45.83426" lon="4.83576">
        <ele>165.2002</ele>
        <time>2026-05-13T10:18:04+02:00</time>
      </trkpt>
      <trkpt lat="45.83428" lon="4.8357">
        <ele>165.2998</ele>
        <time>2026-05-13T10:18:05+02:00</time>
      </trkpt>
      <trkpt lat="45.8343" lon="4.83564">
        <ele>165.2998</ele>
        <time>2026-05-13T10:18:06+02:00</time>
      </trkpt>
      <trkpt lat="45.83433" lon="4.83559">
        <ele>164.90039</ele>
        <time>2026-05-13T10:18:07+02:00</time>
      </trkpt>
      <trkpt lat="45.83434" lon="4.83553">
        <ele>164.90039</ele>
        <time>2026-05-13T10:18:08+02:00</time>
      </trkpt>
      <trkpt lat="45.83437" lon="4.83547">
        <ele>164.7002</ele>
        <time>2026-05-13T10:18:09+02:00</time>
      </trkpt>
      <trkpt lat="45.83439" lon="4.83541">
        <ele>165.2998</ele>
        <time>2026-05-13T10:18:10+02:00</time>
      </trkpt>
      <trkpt lat="45.83441" lon="4.83535">
        <ele>165.7002</ele>
        <time>2026-05-13T10:18:11+02:00</time>
      </trkpt>
      <trkpt lat="45.83443" lon="4.83529">
        <ele>165.2998</ele>
        <time>2026-05-13T10:18:12+02:00</time>
      </trkpt>
      <trkpt lat="45.83445" lon="4.83523">
        <ele>166</ele>
        <time>2026-05-13T10:18:13+02:00</time>
      </trkpt>
      <trkpt lat="45.83448" lon="4.83517">
        <ele>167.2998</ele>
        <time>2026-05-13T10:18:14+02:00</time>
      </trkpt>
      <trkpt lat="45.8345" lon="4.83512">
        <ele>165.60059</ele>
        <time>2026-05-13T10:18:15+02:00</time>
      </trkpt>
      <trkpt lat="45.83452" lon="4.83506">
        <ele>166.2998</ele>
        <time>2026-05-13T10:18:16+02:00</time>
      </trkpt>
      <trkpt lat="45.83454" lon="4.835">
        <ele>166</ele>
        <time>2026-05-13T10:18:17+02:00</time>
      </trkpt>
      <trkpt lat="45.83457" lon="4.83495">
        <ele>166</ele>
        <time>2026-05-13T10:18:18+02:00</time>
      </trkpt>
      <trkpt lat="45.83459" lon="4.83489">
        <ele>167.7998</ele>
        <time>2026-05-13T10:18:19+02:00</time>
      </trkpt>
      <trkpt lat="45.83461" lon="4.83484">
        <ele>167.7998</ele>
        <time>2026-05-13T10:18:20+02:00</time>
      </trkpt>
      <trkpt lat="45.83463" lon="4.83478">
        <ele>167.7998</ele>
        <time>2026-05-13T10:18:21+02:00</time>
      </trkpt>
      <trkpt lat="45.83466" lon="4.83473">
        <ele>168.90039</ele>
        <time>2026-05-13T10:18:22+02:00</time>
      </trkpt>
      <trkpt lat="45.83468" lon="4.83467">
        <ele>167.60059</ele>
        <time>2026-05-13T10:18:23+02:00</time>
      </trkpt>
      <trkpt lat="45.83471" lon="4.83461">
        <ele>167.60059</ele>
        <time>2026-05-13T10:18:24+02:00</time>
      </trkpt>
      <trkpt lat="45.83473" lon="4.83456">
        <ele>167</ele>
        <time>2026-05-13T10:18:25+02:00</time>
      </trkpt>
      <trkpt lat="45.83476" lon="4.8345">
        <ele>167</ele>
        <time>2026-05-13T10:18:26+02:00</time>
      </trkpt>
      <trkpt lat="45.83478" lon="4.83444">
        <ele>167.10059</ele>
        <time>2026-05-13T10:18:27+02:00</time>
      </trkpt>
      <trkpt lat="45.83481" lon="4.83439">
        <ele>167.90039</ele>
        <time>2026-05-13T10:18:28+02:00</time>
      </trkpt>
      <trkpt lat="45.83484" lon="4.83433">
        <ele>167.90039</ele>
        <time>2026-05-13T10:18:29+02:00</time>
      </trkpt>
      <trkpt lat="45.83487" lon="4.83428">
        <ele>166.7998</ele>
        <time>2026-05-13T10:18:30+02:00</time>
      </trkpt>
      <trkpt lat="45.83489" lon="4.83422">
        <ele>167</ele>
        <time>2026-05-13T10:18:31+02:00</time>
      </trkpt>
      <trkpt lat="45.83492" lon="4.83417">
        <ele>165.2998</ele>
        <time>2026-05-13T10:18:32+02:00</time>
      </trkpt>
      <trkpt lat="45.83495" lon="4.83411">
        <ele>165.40039</ele>
        <time>2026-05-13T10:18:33+02:00</time>
      </trkpt>
      <trkpt lat="45.83499" lon="4.83406">
        <ele>164.7002</ele>
        <time>2026-05-13T10:18:34+02:00</time>
      </trkpt>
      <trkpt lat="45.83502" lon="4.83401">
        <ele>164.7002</ele>
        <time>2026-05-13T10:18:35+02:00</time>
      </trkpt>
      <trkpt lat="45.83505" lon="4.83395">
        <ele>165.10059</ele>
        <time>2026-05-13T10:18:36+02:00</time>
      </trkpt>
      <trkpt lat="45.83508" lon="4.8339">
        <ele>165</ele>
        <time>2026-05-13T10:18:37+02:00</time>
      </trkpt>
      <trkpt lat="45.83511" lon="4.83385">
        <ele>165.2998</ele>
        <time>2026-05-13T10:18:38+02:00</time>
      </trkpt>
      <trkpt lat="45.83515" lon="4.8338">
        <ele>164.7998</ele>
        <time>2026-05-13T10:18:39+02:00</time>
      </trkpt>
      <trkpt lat="45.83518" lon="4.83375">
        <ele>164.7998</ele>
        <time>2026-05-13T10:18:40+02:00</time>
      </trkpt>
      <trkpt lat="45.83521" lon="4.8337">
        <ele>165.10059</ele>
        <time>2026-05-13T10:18:41+02:00</time>
      </trkpt>
      <trkpt lat="45.83524" lon="4.83365">
        <ele>165.10059</ele>
        <time>2026-05-13T10:18:42+02:00</time>
      </trkpt>
      <trkpt lat="45.83528" lon="4.8336">
        <ele>165.10059</ele>
        <time>2026-05-13T10:18:43+02:00</time>
      </trkpt>
      <trkpt lat="45.83531" lon="4.83356">
        <ele>165.10059</ele>
        <time>2026-05-13T10:18:44+02:00</time>
      </trkpt>
      <trkpt lat="45.83535" lon="4.83351">
        <ele>164.90039</ele>
        <time>2026-05-13T10:18:45+02:00</time>
      </trkpt>
      <trkpt lat="45.83539" lon="4.83347">
        <ele>164.7002</ele>
        <time>2026-05-13T10:18:46+02:00</time>
      </trkpt>
      <trkpt lat="45.83542" lon="4.83342">
        <ele>164.7002</ele>
        <time>2026-05-13T10:18:47+02:00</time>
      </trkpt>
      <trkpt lat="45.83545" lon="4.83338">
        <ele>165</ele>
        <time>2026-05-13T10:18:48+02:00</time>
      </trkpt>
      <trkpt lat="45.83549" lon="4.83334">
        <ele>165</ele>
        <time>2026-05-13T10:18:49+02:00</time>
      </trkpt>
      <trkpt lat="45.83553" lon="4.83331">
        <ele>165.2002</ele>
        <time>2026-05-13T10:18:50+02:00</time>
      </trkpt>
      <trkpt lat="45.83556" lon="4.83327">
        <ele>164.90039</ele>
        <time>2026-05-13T10:18:51+02:00</time>
      </trkpt>
      <trkpt lat="45.8356" lon="4.83324">
        <ele>164.90039</ele>
        <time>2026-05-13T10:18:52+02:00</time>
      </trkpt>
      <trkpt lat="45.83564" lon="4.8332">
        <ele>164.60059</ele>
        <time>2026-05-13T10:18:53+02:00</time>
      </trkpt>
      <trkpt lat="45.83568" lon="4.83317">
        <ele>164.7002</ele>
        <time>2026-05-13T10:18:54+02:00</time>
      </trkpt>
      <trkpt lat="45.83571" lon="4.83314">
        <ele>164.7002</ele>
        <time>2026-05-13T10:18:55+02:00</time>
      </trkpt>
      <trkpt lat="45.83575" lon="4.8331">
        <ele>164.7998</ele>
        <time>2026-05-13T10:18:56+02:00</time>
      </trkpt>
      <trkpt lat="45.83579" lon="4.83307">
        <ele>164.7998</ele>
        <time>2026-05-13T10:18:57+02:00</time>
      </trkpt>
      <trkpt lat="45.83582" lon="4.83304">
        <ele>164.90039</ele>
        <time>2026-05-13T10:18:58+02:00</time>
      </trkpt>
      <trkpt lat="45.83586" lon="4.83301">
        <ele>165.2998</ele>
        <time>2026-05-13T10:18:59+02:00</time>
      </trkpt>
      <trkpt lat="45.8359" lon="4.83298">
        <ele>165.2998</ele>
        <time>2026-05-13T10:19:00+02:00</time>
      </trkpt>
      <trkpt lat="45.83594" lon="4.83295">
        <ele>165.2998</ele>
        <time>2026-05-13T10:19:01+02:00</time>
      </trkpt>
      <trkpt lat="45.83598" lon="4.83292">
        <ele>165.10059</ele>
        <time>2026-05-13T10:19:02+02:00</time>
      </trkpt>
      <trkpt lat="45.83603" lon="4.83289">
        <ele>165.10059</ele>
        <time>2026-05-13T10:19:03+02:00</time>
      </trkpt>
      <trkpt lat="45.83607" lon="4.83286">
        <ele>164.7002</ele>
        <time>2026-05-13T10:19:04+02:00</time>
      </trkpt>
      <trkpt lat="45.83611" lon="4.83283">
        <ele>164.7998</ele>
        <time>2026-05-13T10:19:05+02:00</time>
      </trkpt>
      <trkpt lat="45.83615" lon="4.8328">
        <ele>164.7998</ele>
        <time>2026-05-13T10:19:06+02:00</time>
      </trkpt>
      <trkpt lat="45.83619" lon="4.83277">
        <ele>164.7998</ele>
        <time>2026-05-13T10:19:07+02:00</time>
      </trkpt>
      <trkpt lat="45.83623" lon="4.83274">
        <ele>164.90039</ele>
        <time>2026-05-13T10:19:08+02:00</time>
      </trkpt>
      <trkpt lat="45.83627" lon="4.83271">
        <ele>164.90039</ele>
        <time>2026-05-13T10:19:09+02:00</time>
      </trkpt>
      <trkpt lat="45.83631" lon="4.83268">
        <ele>165.2002</ele>
        <time>2026-05-13T10:19:10+02:00</time>
      </trkpt>
      <trkpt lat="45.83635" lon="4.83265">
        <ele>165.2002</ele>
        <time>2026-05-13T10:19:11+02:00</time>
      </trkpt>
      <trkpt lat="45.83639" lon="4.83262">
        <ele>165.2002</ele>
        <time>2026-05-13T10:19:12+02:00</time>
      </trkpt>
      <trkpt lat="45.83643" lon="4.83258">
        <ele>165.2002</ele>
        <time>2026-05-13T10:19:13+02:00</time>
      </trkpt>
      <trkpt lat="45.83648" lon="4.83254">
        <ele>165.2002</ele>
        <time>2026-05-13T10:19:14+02:00</time>
      </trkpt>
      <trkpt lat="45.83652" lon="4.8325">
        <ele>164.90039</ele>
        <time>2026-05-13T10:19:15+02:00</time>
      </trkpt>
      <trkpt lat="45.83657" lon="4.83246">
        <ele>164.90039</ele>
        <time>2026-05-13T10:19:16+02:00</time>
      </trkpt>
      <trkpt lat="45.83662" lon="4.83242">
        <ele>164.90039</ele>
        <time>2026-05-13T10:19:17+02:00</time>
      </trkpt>
      <trkpt lat="45.83667" lon="4.83237">
        <ele>165</ele>
        <time>2026-05-13T10:19:18+02:00</time>
      </trkpt>
      <trkpt lat="45.83672" lon="4.83233">
        <ele>165.2002</ele>
        <time>2026-05-13T10:19:19+02:00</time>
      </trkpt>
      <trkpt lat="45.83677" lon="4.83229">
        <ele>165.2002</ele>
        <time>2026-05-13T10:19:20+02:00</time>
      </trkpt>
      <trkpt lat="45.83681" lon="4.83224">
        <ele>165.2998</ele>
        <time>2026-05-13T10:19:21+02:00</time>
      </trkpt>
      <trkpt lat="45.83687" lon="4.8322">
        <ele>165.2002</ele>
        <time>2026-05-13T10:19:22+02:00</time>
      </trkpt>
      <trkpt lat="45.83692" lon="4.83216">
        <ele>165</ele>
        <time>2026-05-13T10:19:23+02:00</time>
      </trkpt>
      <trkpt lat="45.83697" lon="4.83211">
        <ele>165</ele>
        <time>2026-05-13T10:19:24+02:00</time>
      </trkpt>
      <trkpt lat="45.83703" lon="4.83207">
        <ele>165</ele>
        <time>2026-05-13T10:19:25+02:00</time>
      </trkpt>
      <trkpt lat="45.83708" lon="4.83202">
        <ele>165</ele>
        <time>2026-05-13T10:19:26+02:00</time>
      </trkpt>
      <trkpt lat="45.83713" lon="4.83197">
        <ele>165.10059</ele>
        <time>2026-05-13T10:19:27+02:00</time>
      </trkpt>
      <trkpt lat="45.83718" lon="4.83193">
        <ele>165.2002</ele>
        <time>2026-05-13T10:19:28+02:00</time>
      </trkpt>
      <trkpt lat="45.83724" lon="4.83189">
        <ele>165.2998</ele>
        <time>2026-05-13T10:19:29+02:00</time>
      </trkpt>
      <trkpt lat="45.83729" lon="4.83185">
        <ele>165.2998</ele>
        <time>2026-05-13T10:19:30+02:00</time>
      </trkpt>
      <trkpt lat="45.83735" lon="4.83181">
        <ele>165.10059</ele>
        <time>2026-05-13T10:19:31+02:00</time>
      </trkpt>
      <trkpt lat="45.8374" lon="4.83177">
        <ele>165.10059</ele>
        <time>2026-05-13T10:19:32+02:00</time>
      </trkpt>
      <trkpt lat="45.83746" lon="4.83174">
        <ele>165</ele>
        <time>2026-05-13T10:19:33+02:00</time>
      </trkpt>
      <trkpt lat="45.83751" lon="4.8317">
        <ele>165</ele>
        <time>2026-05-13T10:19:34+02:00</time>
      </trkpt>
      <trkpt lat="45.83757" lon="4.83166">
        <ele>165.10059</ele>
        <time>2026-05-13T10:19:35+02:00</time>
      </trkpt>
      <trkpt lat="45.83762" lon="4.83163">
        <ele>165.10059</ele>
        <time>2026-05-13T10:19:36+02:00</time>
      </trkpt>
      <trkpt lat="45.83768" lon="4.8316">
        <ele>165.10059</ele>
        <time>2026-05-13T10:19:37+02:00</time>
      </trkpt>
      <trkpt lat="45.83774" lon="4.83157">
        <ele>165.2998</ele>
        <time>2026-05-13T10:19:38+02:00</time>
      </trkpt>
      <trkpt lat="45.8378" lon="4.83154">
        <ele>165.2998</ele>
        <time>2026-05-13T10:19:39+02:00</time>
      </trkpt>
      <trkpt lat="45.83785" lon="4.83151">
        <ele>165.2998</ele>
        <time>2026-05-13T10:19:40+02:00</time>
      </trkpt>
      <trkpt lat="45.83791" lon="4.83148">
        <ele>165.2998</ele>
        <time>2026-05-13T10:19:41+02:00</time>
      </trkpt>
      <trkpt lat="45.83797" lon="4.83145">
        <ele>165.2002</ele>
        <time>2026-05-13T10:19:42+02:00</time>
      </trkpt>
      <trkpt lat="45.83803" lon="4.83142">
        <ele>165.2998</ele>
        <time>2026-05-13T10:19:43+02:00</time>
      </trkpt>
      <trkpt lat="45.83809" lon="4.83139">
        <ele>165.2002</ele>
        <time>2026-05-13T10:19:44+02:00</time>
      </trkpt>
      <trkpt lat="45.83814" lon="4.83137">
        <ele>165.2002</ele>
        <time>2026-05-13T10:19:45+02:00</time>
      </trkpt>
      <trkpt lat="45.8382" lon="4.83135">
        <ele>165.2002</ele>
        <time>2026-05-13T10:19:46+02:00</time>
      </trkpt>
      <trkpt lat="45.83826" lon="4.83132">
        <ele>165.2998</ele>
        <time>2026-05-13T10:19:47+02:00</time>
      </trkpt>
      <trkpt lat="45.83832" lon="4.8313">
        <ele>165.2998</ele>
        <time>2026-05-13T10:19:48+02:00</time>
      </trkpt>
      <trkpt lat="45.83838" lon="4.83129">
        <ele>165.2998</ele>
        <time>2026-05-13T10:19:49+02:00</time>
      </trkpt>
      <trkpt lat="45.83845" lon="4.83127">
        <ele>165.2998</ele>
        <time>2026-05-13T10:19:50+02:00</time>
      </trkpt>
      <trkpt lat="45.83851" lon="4.83125">
        <ele>165.40039</ele>
        <time>2026-05-13T10:19:51+02:00</time>
      </trkpt>
      <trkpt lat="45.83857" lon="4.83124">
        <ele>165.40039</ele>
        <time>2026-05-13T10:19:52+02:00</time>
      </trkpt>
      <trkpt lat="45.83864" lon="4.83122">
        <ele>165.5</ele>
        <time>2026-05-13T10:19:53+02:00</time>
      </trkpt>
      <trkpt lat="45.8387" lon="4.83121">
        <ele>165.5</ele>
        <time>2026-05-13T10:19:54+02:00</time>
      </trkpt>
      <trkpt lat="45.83876" lon="4.83119">
        <ele>165.5</ele>
        <time>2026-05-13T10:19:55+02:00</time>
      </trkpt>
      <trkpt lat="45.83883" lon="4.83118">
        <ele>165.5</ele>
        <time>2026-05-13T10:19:56+02:00</time>
      </trkpt>
      <trkpt lat="45.83889" lon="4.83117">
        <ele>165.5</ele>
        <time>2026-05-13T10:19:57+02:00</time>
      </trkpt>
      <trkpt lat="45.83895" lon="4.83116">
        <ele>165.5</ele>
        <time>2026-05-13T10:19:58+02:00</time>
      </trkpt>
      <trkpt lat="45.83902" lon="4.83115">
        <ele>165.7002</ele>
        <time>2026-05-13T10:19:59+02:00</time>
      </trkpt>
      <trkpt lat="45.83909" lon="4.83114">
        <ele>165.7002</ele>
        <time>2026-05-13T10:20:00+02:00</time>
      </trkpt>
      <trkpt lat="45.83915" lon="4.83113">
        <ele>165.7002</ele>
        <time>2026-05-13T10:20:01+02:00</time>
      </trkpt>
      <trkpt lat="45.83922" lon="4.83112">
        <ele>165.60059</ele>
        <time>2026-05-13T10:20:02+02:00</time>
      </trkpt>
      <trkpt lat="45.83928" lon="4.83112">
        <ele>165.60059</ele>
        <time>2026-05-13T10:20:03+02:00</time>
      </trkpt>
      <trkpt lat="45.83935" lon="4.83112">
        <ele>165.60059</ele>
        <time>2026-05-13T10:20:04+02:00</time>
      </trkpt>
      <trkpt lat="45.83941" lon="4.83111">
        <ele>165.60059</ele>
        <time>2026-05-13T10:20:05+02:00</time>
      </trkpt>
      <trkpt lat="45.83948" lon="4.83111">
        <ele>165.60059</ele>
        <time>2026-05-13T10:20:06+02:00</time>
      </trkpt>
      <trkpt lat="45.83955" lon="4.8311">
        <ele>165.60059</ele>
        <time>2026-05-13T10:20:07+02:00</time>
      </trkpt>
      <trkpt lat="45.83961" lon="4.83109">
        <ele>165.60059</ele>
        <time>2026-05-13T10:20:08+02:00</time>
      </trkpt>
      <trkpt lat="45.83967" lon="4.83109">
        <ele>165.60059</ele>
        <time>2026-05-13T10:20:09+02:00</time>
      </trkpt>
      <trkpt lat="45.83973" lon="4.83109">
        <ele>165.5</ele>
        <time>2026-05-13T10:20:10+02:00</time>
      </trkpt>
      <trkpt lat="45.8398" lon="4.83109">
        <ele>165.5</ele>
        <time>2026-05-13T10:20:11+02:00</time>
      </trkpt>
      <trkpt lat="45.83986" lon="4.83109">
        <ele>165.5</ele>
        <time>2026-05-13T10:20:12+02:00</time>
      </trkpt>
      <trkpt lat="45.83993" lon="4.83109">
        <ele>165.5</ele>
        <time>2026-05-13T10:20:13+02:00</time>
      </trkpt>
      <trkpt lat="45.84" lon="4.83109">
        <ele>165.5</ele>
        <time>2026-05-13T10:20:14+02:00</time>
      </trkpt>
      <trkpt lat="45.84006" lon="4.83109">
        <ele>165.5</ele>
        <time>2026-05-13T10:20:15+02:00</time>
      </trkpt>
      <trkpt lat="45.84012" lon="4.83109">
        <ele>165.5</ele>
        <time>2026-05-13T10:20:16+02:00</time>
      </trkpt>
      <trkpt lat="45.84018" lon="4.8311">
        <ele>165.5</ele>
        <time>2026-05-13T10:20:17+02:00</time>
      </trkpt>
      <trkpt lat="45.84025" lon="4.8311">
        <ele>165.5</ele>
        <time>2026-05-13T10:20:18+02:00</time>
      </trkpt>
      <trkpt lat="45.84031" lon="4.83112">
        <ele>165.5</ele>
        <time>2026-05-13T10:20:19+02:00</time>
      </trkpt>
      <trkpt lat="45.84036" lon="4.83113">
        <ele>165.5</ele>
        <time>2026-05-13T10:20:20+02:00</time>
      </trkpt>
      <trkpt lat="45.84042" lon="4.83114">
        <ele>165.5</ele>
        <time>2026-05-13T10:20:21+02:00</time>
      </trkpt>
      <trkpt lat="45.84049" lon="4.83115">
        <ele>165.5</ele>
        <time>2026-05-13T10:20:22+02:00</time>
      </trkpt>
      <trkpt lat="45.84054" lon="4.83114">
        <ele>165.60059</ele>
        <time>2026-05-13T10:20:23+02:00</time>
      </trkpt>
      <trkpt lat="45.84061" lon="4.83114">
        <ele>165.60059</ele>
        <time>2026-05-13T10:20:24+02:00</time>
      </trkpt>
      <trkpt lat="45.84067" lon="4.83115">
        <ele>165.60059</ele>
        <time>2026-05-13T10:20:25+02:00</time>
      </trkpt>
      <trkpt lat="45.84073" lon="4.83116">
        <ele>165.7002</ele>
        <time>2026-05-13T10:20:26+02:00</time>
      </trkpt>
      <trkpt lat="45.8408" lon="4.83118">
        <ele>165.7002</ele>
        <time>2026-05-13T10:20:27+02:00</time>
      </trkpt>
      <trkpt lat="45.84086" lon="4.83119">
        <ele>165.7002</ele>
        <time>2026-05-13T10:20:28+02:00</time>
      </trkpt>
      <trkpt lat="45.84093" lon="4.8312">
        <ele>165.7002</ele>
        <time>2026-05-13T10:20:29+02:00</time>
      </trkpt>
      <trkpt lat="45.84099" lon="4.83121">
        <ele>165.7998</ele>
        <time>2026-05-13T10:20:30+02:00</time>
      </trkpt>
      <trkpt lat="45.84106" lon="4.83123">
        <ele>165.7998</ele>
        <time>2026-05-13T10:20:31+02:00</time>
      </trkpt>
      <trkpt lat="45.84112" lon="4.83125">
        <ele>165.7002</ele>
        <time>2026-05-13T10:20:32+02:00</time>
      </trkpt>
      <trkpt lat="45.84119" lon="4.83127">
        <ele>165.60059</ele>
        <time>2026-05-13T10:20:33+02:00</time>
      </trkpt>
      <trkpt lat="45.84125" lon="4.83129">
        <ele>165.60059</ele>
        <time>2026-05-13T10:20:34+02:00</time>
      </trkpt>
      <trkpt lat="45.84132" lon="4.83131">
        <ele>165.60059</ele>
        <time>2026-05-13T10:20:35+02:00</time>
      </trkpt>
      <trkpt lat="45.84138" lon="4.83133">
        <ele>165.60059</ele>
        <time>2026-05-13T10:20:36+02:00</time>
      </trkpt>
      <trkpt lat="45.84145" lon="4.83135">
        <ele>165.7002</ele>
        <time>2026-05-13T10:20:37+02:00</time>
      </trkpt>
      <trkpt lat="45.84151" lon="4.83137">
        <ele>165.7002</ele>
        <time>2026-05-13T10:20:38+02:00</time>
      </trkpt>
      <trkpt lat="45.84157" lon="4.8314">
        <ele>165.7002</ele>
        <time>2026-05-13T10:20:39+02:00</time>
      </trkpt>
      <trkpt lat="45.84164" lon="4.83142">
        <ele>165.7998</ele>
        <time>2026-05-13T10:20:40+02:00</time>
      </trkpt>
      <trkpt lat="45.8417" lon="4.83145">
        <ele>165.7998</ele>
        <time>2026-05-13T10:20:41+02:00</time>
      </trkpt>
      <trkpt lat="45.84176" lon="4.83147">
        <ele>165.7998</ele>
        <time>2026-05-13T10:20:42+02:00</time>
      </trkpt>
      <trkpt lat="45.84183" lon="4.83149">
        <ele>165.7998</ele>
        <time>2026-05-13T10:20:43+02:00</time>
      </trkpt>
      <trkpt lat="45.8419" lon="4.83152">
        <ele>165.7998</ele>
        <time>2026-05-13T10:20:44+02:00</time>
      </trkpt>
      <trkpt lat="45.84196" lon="4.83154">
        <ele>165.7002</ele>
        <time>2026-05-13T10:20:45+02:00</time>
      </trkpt>
      <trkpt lat="45.84203" lon="4.83156">
        <ele>165.7002</ele>
        <time>2026-05-13T10:20:46+02:00</time>
      </trkpt>
      <trkpt lat="45.84223" lon="4.83163">
        <ele>165.7002</ele>
        <time>2026-05-13T10:20:47+02:00</time>
      </trkpt>
      <trkpt lat="45.84229" lon="4.83165">
        <ele>165.7002</ele>
        <time>2026-05-13T10:20:48+02:00</time>
      </trkpt>
      <trkpt lat="45.84236" lon="4.83168">
        <ele>165.7998</ele>
        <time>2026-05-13T10:20:49+02:00</time>
      </trkpt>
      <trkpt lat="45.84243" lon="4.8317">
        <ele>165.7998</ele>
        <time>2026-05-13T10:20:50+02:00</time>
      </trkpt>
      <trkpt lat="45.84249" lon="4.83172">
        <ele>165.7998</ele>
        <time>2026-05-13T10:20:51+02:00</time>
      </trkpt>
      <trkpt lat="45.84256" lon="4.83175">
        <ele>165.7998</ele>
        <time>2026-05-13T10:20:52+02:00</time>
      </trkpt>
      <trkpt lat="45.84262" lon="4.83177">
        <ele>165.7002</ele>
        <time>2026-05-13T10:20:53+02:00</time>
      </trkpt>
      <trkpt lat="45.84268" lon="4.83179">
        <ele>165.7002</ele>
        <time>2026-05-13T10:20:54+02:00</time>
      </trkpt>
      <trkpt lat="45.84275" lon="4.83181">
        <ele>165.7002</ele>
        <time>2026-05-13T10:20:55+02:00</time>
      </trkpt>
      <trkpt lat="45.84282" lon="4.83183">
        <ele>165.7002</ele>
        <time>2026-05-13T10:20:56+02:00</time>
      </trkpt>
      <trkpt lat="45.84288" lon="4.83185">
        <ele>165.7002</ele>
        <time>2026-05-13T10:20:57+02:00</time>
      </trkpt>
      <trkpt lat="45.84294" lon="4.83186">
        <ele>165.7002</ele>
        <time>2026-05-13T10:20:58+02:00</time>
      </trkpt>
      <trkpt lat="45.843" lon="4.83188">
        <ele>165.7002</ele>
        <time>2026-05-13T10:20:59+02:00</time>
      </trkpt>
      <trkpt lat="45.84306" lon="4.83189">
        <ele>165.7002</ele>
        <time>2026-05-13T10:21:00+02:00</time>
      </trkpt>
      <trkpt lat="45.84313" lon="4.83191">
        <ele>165.7002</ele>
        <time>2026-05-13T10:21:01+02:00</time>
      </trkpt>
      <trkpt lat="45.84319" lon="4.83192">
        <ele>165.7002</ele>
        <time>2026-05-13T10:21:02+02:00</time>
      </trkpt>
      <trkpt lat="45.84326" lon="4.83194">
        <ele>165.7998</ele>
        <time>2026-05-13T10:21:03+02:00</time>
      </trkpt>
      <trkpt lat="45.84332" lon="4.83196">
        <ele>165.7998</ele>
        <time>2026-05-13T10:21:04+02:00</time>
      </trkpt>
      <trkpt lat="45.84338" lon="4.83197">
        <ele>165.7998</ele>
        <time>2026-05-13T10:21:05+02:00</time>
      </trkpt>
      <trkpt lat="45.84344" lon="4.83198">
        <ele>165.7998</ele>
        <time>2026-05-13T10:21:06+02:00</time>
      </trkpt>
      <trkpt lat="45.84351" lon="4.832">
        <ele>165.7998</ele>
        <time>2026-05-13T10:21:07+02:00</time>
      </trkpt>
      <trkpt lat="45.84357" lon="4.83202">
        <ele>165.60059</ele>
        <time>2026-05-13T10:21:08+02:00</time>
      </trkpt>
      <trkpt lat="45.84363" lon="4.83203">
        <ele>165.60059</ele>
        <time>2026-05-13T10:21:09+02:00</time>
      </trkpt>
      <trkpt lat="45.8437" lon="4.83205">
        <ele>165.60059</ele>
        <time>2026-05-13T10:21:10+02:00</time>
      </trkpt>
      <trkpt lat="45.84376" lon="4.83207">
        <ele>165.5</ele>
        <time>2026-05-13T10:21:11+02:00</time>
      </trkpt>
      <trkpt lat="45.84382" lon="4.83208">
        <ele>165.5</ele>
        <time>2026-05-13T10:21:12+02:00</time>
      </trkpt>
      <trkpt lat="45.84388" lon="4.8321">
        <ele>165.7002</ele>
        <time>2026-05-13T10:21:13+02:00</time>
      </trkpt>
      <trkpt lat="45.84395" lon="4.83211">
        <ele>165.7998</ele>
        <time>2026-05-13T10:21:14+02:00</time>
      </trkpt>
      <trkpt lat="45.84402" lon="4.83213">
        <ele>165.90039</ele>
        <time>2026-05-13T10:21:15+02:00</time>
      </trkpt>
      <trkpt lat="45.84409" lon="4.83214">
        <ele>165.90039</ele>
        <time>2026-05-13T10:21:16+02:00</time>
      </trkpt>
      <trkpt lat="45.84416" lon="4.83216">
        <ele>166</ele>
        <time>2026-05-13T10:21:17+02:00</time>
      </trkpt>
      <trkpt lat="45.84423" lon="4.83218">
        <ele>165.90039</ele>
        <time>2026-05-13T10:21:18+02:00</time>
      </trkpt>
      <trkpt lat="45.84429" lon="4.8322">
        <ele>165.7002</ele>
        <time>2026-05-13T10:21:19+02:00</time>
      </trkpt>
      <trkpt lat="45.84436" lon="4.83221">
        <ele>165.7002</ele>
        <time>2026-05-13T10:21:20+02:00</time>
      </trkpt>
      <trkpt lat="45.84443" lon="4.83223">
        <ele>165.7002</ele>
        <time>2026-05-13T10:21:21+02:00</time>
      </trkpt>
      <trkpt lat="45.84449" lon="4.83225">
        <ele>165.7002</ele>
        <time>2026-05-13T10:21:22+02:00</time>
      </trkpt>
      <trkpt lat="45.84456" lon="4.83227">
        <ele>165.60059</ele>
        <time>2026-05-13T10:21:23+02:00</time>
      </trkpt>
      <trkpt lat="45.84462" lon="4.83229">
        <ele>165.60059</ele>
        <time>2026-05-13T10:21:24+02:00</time>
      </trkpt>
      <trkpt lat="45.84469" lon="4.8323">
        <ele>165.60059</ele>
        <time>2026-05-13T10:21:25+02:00</time>
      </trkpt>
      <trkpt lat="45.84475" lon="4.83232">
        <ele>165.60059</ele>
        <time>2026-05-13T10:21:26+02:00</time>
      </trkpt>
      <trkpt lat="45.84481" lon="4.83234">
        <ele>165.60059</ele>
        <time>2026-05-13T10:21:27+02:00</time>
      </trkpt>
      <trkpt lat="45.84487" lon="4.83235">
        <ele>165.60059</ele>
        <time>2026-05-13T10:21:28+02:00</time>
      </trkpt>
      <trkpt lat="45.84493" lon="4.83236">
        <ele>165.7002</ele>
        <time>2026-05-13T10:21:29+02:00</time>
      </trkpt>
      <trkpt lat="45.84499" lon="4.83237">
        <ele>165.7998</ele>
        <time>2026-05-13T10:21:30+02:00</time>
      </trkpt>
      <trkpt lat="45.84504" lon="4.83239">
        <ele>165.7998</ele>
        <time>2026-05-13T10:21:31+02:00</time>
      </trkpt>
      <trkpt lat="45.84508" lon="4.8324">
        <ele>165.7998</ele>
        <time>2026-05-13T10:21:32+02:00</time>
      </trkpt>
      <trkpt lat="45.84511" lon="4.83241">
        <ele>165.7998</ele>
        <time>2026-05-13T10:21:33+02:00</time>
      </trkpt>
      <trkpt lat="45.84514" lon="4.83241">
        <ele>165.7998</ele>
        <time>2026-05-13T10:21:34+02:00</time>
      </trkpt>
      <trkpt lat="45.84517" lon="4.83242">
        <ele>165.7998</ele>
        <time>2026-05-13T10:21:35+02:00</time>
      </trkpt>
      <trkpt lat="45.84518" lon="4.83244">
        <ele>165.7998</ele>
        <time>2026-05-13T10:21:36+02:00</time>
      </trkpt>
      <trkpt lat="45.84517" lon="4.83247">
        <ele>165.7998</ele>
        <time>2026-05-13T10:21:37+02:00</time>
      </trkpt>
      <trkpt lat="45.84517" lon="4.83251">
        <ele>165.7998</ele>
        <time>2026-05-13T10:21:38+02:00</time>
      </trkpt>
      <trkpt lat="45.84516" lon="4.83255">
        <ele>165.7998</ele>
        <time>2026-05-13T10:21:39+02:00</time>
      </trkpt>
      <trkpt lat="45.84515" lon="4.8326">
        <ele>165.7998</ele>
        <time>2026-05-13T10:21:40+02:00</time>
      </trkpt>
      <trkpt lat="45.84514" lon="4.83265">
        <ele>165.7998</ele>
        <time>2026-05-13T10:21:41+02:00</time>
      </trkpt>
      <trkpt lat="45.84514" lon="4.83271">
        <ele>165.7998</ele>
        <time>2026-05-13T10:21:42+02:00</time>
      </trkpt>
      <trkpt lat="45.84513" lon="4.83277">
        <ele>165.7998</ele>
        <time>2026-05-13T10:21:43+02:00</time>
      </trkpt>
      <trkpt lat="45.84512" lon="4.83283">
        <ele>165.7998</ele>
        <time>2026-05-13T10:21:44+02:00</time>
      </trkpt>
      <trkpt lat="45.84511" lon="4.83289">
        <ele>165.7998</ele>
        <time>2026-05-13T10:21:45+02:00</time>
      </trkpt>
      <trkpt lat="45.8451" lon="4.83296">
        <ele>165.7998</ele>
        <time>2026-05-13T10:21:46+02:00</time>
      </trkpt>
      <trkpt lat="45.84509" lon="4.83302">
        <ele>165.7998</ele>
        <time>2026-05-13T10:21:47+02:00</time>
      </trkpt>
      <trkpt lat="45.84508" lon="4.83309">
        <ele>165.7998</ele>
        <time>2026-05-13T10:21:48+02:00</time>
      </trkpt>
      <trkpt lat="45.84507" lon="4.83317">
        <ele>165.7998</ele>
        <time>2026-05-13T10:21:49+02:00</time>
      </trkpt>
      <trkpt lat="45.84506" lon="4.83324">
        <ele>165.7998</ele>
        <time>2026-05-13T10:21:50+02:00</time>
      </trkpt>
      <trkpt lat="45.84505" lon="4.83331">
        <ele>165.7998</ele>
        <time>2026-05-13T10:21:51+02:00</time>
      </trkpt>
      <trkpt lat="45.84504" lon="4.83338">
        <ele>165.7998</ele>
        <time>2026-05-13T10:21:52+02:00</time>
      </trkpt>
      <trkpt lat="45.84503" lon="4.83345">
        <ele>165.7998</ele>
        <time>2026-05-13T10:21:53+02:00</time>
      </trkpt>
      <trkpt lat="45.84502" lon="4.83352">
        <ele>165.7998</ele>
        <time>2026-05-13T10:21:54+02:00</time>
      </trkpt>
      <trkpt lat="45.84501" lon="4.8336">
        <ele>165.7998</ele>
        <time>2026-05-13T10:21:55+02:00</time>
      </trkpt>
      <trkpt lat="45.845" lon="4.83367">
        <ele>165.7998</ele>
        <time>2026-05-13T10:21:56+02:00</time>
      </trkpt>
      <trkpt lat="45.84499" lon="4.83374">
        <ele>165.7998</ele>
        <time>2026-05-13T10:21:57+02:00</time>
      </trkpt>
      <trkpt lat="45.84498" lon="4.83382">
        <ele>165.7998</ele>
        <time>2026-05-13T10:21:58+02:00</time>
      </trkpt>
      <trkpt lat="45.84497" lon="4.83389">
        <ele>165.7998</ele>
        <time>2026-05-13T10:21:59+02:00</time>
      </trkpt>
      <trkpt lat="45.84496" lon="4.83397">
        <ele>165.7998</ele>
        <time>2026-05-13T10:22:00+02:00</time>
      </trkpt>
      <trkpt lat="45.84495" lon="4.83404">
        <ele>165.7998</ele>
        <time>2026-05-13T10:22:01+02:00</time>
      </trkpt>
      <trkpt lat="45.84494" lon="4.83411">
        <ele>165.7998</ele>
        <time>2026-05-13T10:22:02+02:00</time>
      </trkpt>
      <trkpt lat="45.84492" lon="4.83418">
        <ele>165.7998</ele>
        <time>2026-05-13T10:22:03+02:00</time>
      </trkpt>
      <trkpt lat="45.84491" lon="4.83425">
        <ele>165.7998</ele>
        <time>2026-05-13T10:22:04+02:00</time>
      </trkpt>
      <trkpt lat="45.84491" lon="4.83431">
        <ele>165.7998</ele>
        <time>2026-05-13T10:22:05+02:00</time>
      </trkpt>
      <trkpt lat="45.8449" lon="4.83437">
        <ele>165.7998</ele>
        <time>2026-05-13T10:22:06+02:00</time>
      </trkpt>
      <trkpt lat="45.84489" lon="4.83442">
        <ele>166</ele>
        <time>2026-05-13T10:22:07+02:00</time>
      </trkpt>
      <trkpt lat="45.84488" lon="4.83445">
        <ele>166</ele>
        <time>2026-05-13T10:22:08+02:00</time>
      </trkpt>
      <trkpt lat="45.84488" lon="4.83448">
        <ele>166</ele>
        <time>2026-05-13T10:22:09+02:00</time>
      </trkpt>
      <trkpt lat="45.84488" lon="4.83451">
        <ele>166.60059</ele>
        <time>2026-05-13T10:22:10+02:00</time>
      </trkpt>
      <trkpt lat="45.84488" lon="4.83452">
        <ele>166.60059</ele>
        <time>2026-05-13T10:22:11+02:00</time>
      </trkpt>
      <trkpt lat="45.84488" lon="4.83452">
        <ele>166.60059</ele>
        <time>2026-05-13T10:22:12+02:00</time>
      </trkpt>
      <trkpt lat="45.84488" lon="4.83452">
        <ele>166.60059</ele>
        <time>2026-05-13T10:22:13+02:00</time>
      </trkpt>
      <trkpt lat="45.84488" lon="4.83452">
        <ele>166.60059</ele>
        <time>2026-05-13T10:22:14+02:00</time>
      </trkpt>
      <trkpt lat="45.84482" lon="4.83487">
        <ele>171.90039</ele>
        <time>2026-05-13T10:25:15+02:00</time>
      </trkpt>
      <trkpt lat="45.84481" lon="4.8349">
        <ele>171.90039</ele>
        <time>2026-05-13T10:25:16+02:00</time>
      </trkpt>
      <trkpt lat="45.8448" lon="4.83492">
        <ele>171.90039</ele>
        <time>2026-05-13T10:25:17+02:00</time>
      </trkpt>
      <trkpt lat="45.8448" lon="4.83495">
        <ele>174.10059</ele>
        <time>2026-05-13T10:25:18+02:00</time>
      </trkpt>
      <trkpt lat="45.84482" lon="4.83498">
        <ele>174.10059</ele>
        <time>2026-05-13T10:25:19+02:00</time>
      </trkpt>
      <trkpt lat="45.84485" lon="4.83499">
        <ele>171.10059</ele>
        <time>2026-05-13T10:25:20+02:00</time>
      </trkpt>
      <trkpt lat="45.84487" lon="4.835">
        <ele>171.10059</ele>
        <time>2026-05-13T10:25:21+02:00</time>
      </trkpt>
      <trkpt lat="45.8449" lon="4.835">
        <ele>168.90039</ele>
        <time>2026-05-13T10:25:22+02:00</time>
      </trkpt>
      <trkpt lat="45.84494" lon="4.835">
        <ele>168.90039</ele>
        <time>2026-05-13T10:25:23+02:00</time>
      </trkpt>
      <trkpt lat="45.84498" lon="4.835">
        <ele>168.7002</ele>
        <time>2026-05-13T10:25:24+02:00</time>
      </trkpt>
      <trkpt lat="45.84501" lon="4.835">
        <ele>169.2002</ele>
        <time>2026-05-13T10:25:25+02:00</time>
      </trkpt>
      <trkpt lat="45.84506" lon="4.83501">
        <ele>169.2002</ele>
        <time>2026-05-13T10:25:26+02:00</time>
      </trkpt>
      <trkpt lat="45.84511" lon="4.83503">
        <ele>171.5</ele>
        <time>2026-05-13T10:25:27+02:00</time>
      </trkpt>
      <trkpt lat="45.84516" lon="4.83505">
        <ele>172.10059</ele>
        <time>2026-05-13T10:25:28+02:00</time>
      </trkpt>
      <trkpt lat="45.8452" lon="4.83507">
        <ele>171.5</ele>
        <time>2026-05-13T10:25:29+02:00</time>
      </trkpt>
      <trkpt lat="45.84526" lon="4.8351">
        <ele>173.10059</ele>
        <time>2026-05-13T10:25:30+02:00</time>
      </trkpt>
      <trkpt lat="45.84531" lon="4.83512">
        <ele>171.7002</ele>
        <time>2026-05-13T10:25:31+02:00</time>
      </trkpt>
      <trkpt lat="45.84536" lon="4.83516">
        <ele>171.7002</ele>
        <time>2026-05-13T10:25:32+02:00</time>
      </trkpt>
      <trkpt lat="45.84542" lon="4.83519">
        <ele>171.7002</ele>
        <time>2026-05-13T10:25:33+02:00</time>
      </trkpt>
      <trkpt lat="45.84548" lon="4.83523">
        <ele>170.2002</ele>
        <time>2026-05-13T10:25:34+02:00</time>
      </trkpt>
      <trkpt lat="45.84553" lon="4.83527">
        <ele>168.90039</ele>
        <time>2026-05-13T10:25:35+02:00</time>
      </trkpt>
      <trkpt lat="45.84559" lon="4.83531">
        <ele>168.2998</ele>
        <time>2026-05-13T10:25:36+02:00</time>
      </trkpt>
      <trkpt lat="45.84564" lon="4.83535">
        <ele>167.90039</ele>
        <time>2026-05-13T10:25:37+02:00</time>
      </trkpt>
      <trkpt lat="45.8457" lon="4.83539">
        <ele>172.10059</ele>
        <time>2026-05-13T10:25:38+02:00</time>
      </trkpt>
      <trkpt lat="45.84577" lon="4.83542">
        <ele>173.10059</ele>
        <time>2026-05-13T10:25:39+02:00</time>
      </trkpt>
      <trkpt lat="45.84583" lon="4.83544">
        <ele>174</ele>
        <time>2026-05-13T10:25:40+02:00</time>
      </trkpt>
      <trkpt lat="45.84589" lon="4.83547">
        <ele>176.7002</ele>
        <time>2026-05-13T10:25:41+02:00</time>
      </trkpt>
      <trkpt lat="45.84595" lon="4.8355">
        <ele>176</ele>
        <time>2026-05-13T10:25:42+02:00</time>
      </trkpt>
      <trkpt lat="45.84602" lon="4.83553">
        <ele>176.90039</ele>
        <time>2026-05-13T10:25:43+02:00</time>
      </trkpt>
      <trkpt lat="45.84608" lon="4.83556">
        <ele>176</ele>
        <time>2026-05-13T10:25:44+02:00</time>
      </trkpt>
      <trkpt lat="45.84614" lon="4.83559">
        <ele>174.2998</ele>
        <time>2026-05-13T10:25:45+02:00</time>
      </trkpt>
      <trkpt lat="45.8462" lon="4.83562">
        <ele>175.60059</ele>
        <time>2026-05-13T10:25:46+02:00</time>
      </trkpt>
      <trkpt lat="45.84627" lon="4.83565">
        <ele>174.2002</ele>
        <time>2026-05-13T10:25:47+02:00</time>
      </trkpt>
      <trkpt lat="45.84633" lon="4.83568">
        <ele>173.5</ele>
        <time>2026-05-13T10:25:48+02:00</time>
      </trkpt>
      <trkpt lat="45.84639" lon="4.83571">
        <ele>174.10059</ele>
        <time>2026-05-13T10:25:49+02:00</time>
      </trkpt>
      <trkpt lat="45.84646" lon="4.83574">
        <ele>173.5</ele>
        <time>2026-05-13T10:25:50+02:00</time>
      </trkpt>
      <trkpt lat="45.84652" lon="4.83577">
        <ele>172.90039</ele>
        <time>2026-05-13T10:25:51+02:00</time>
      </trkpt>
      <trkpt lat="45.84658" lon="4.8358">
        <ele>173.2002</ele>
        <time>2026-05-13T10:25:52+02:00</time>
      </trkpt>
      <trkpt lat="45.84664" lon="4.83583">
        <ele>172.5</ele>
        <time>2026-05-13T10:25:53+02:00</time>
      </trkpt>
      <trkpt lat="45.8467" lon="4.83586">
        <ele>171.90039</ele>
        <time>2026-05-13T10:25:54+02:00</time>
      </trkpt>
      <trkpt lat="45.84676" lon="4.83589">
        <ele>172</ele>
        <time>2026-05-13T10:25:55+02:00</time>
      </trkpt>
      <trkpt lat="45.84683" lon="4.83593">
        <ele>171.40039</ele>
        <time>2026-05-13T10:25:56+02:00</time>
      </trkpt>
      <trkpt lat="45.84688" lon="4.83596">
        <ele>171.60059</ele>
        <time>2026-05-13T10:25:57+02:00</time>
      </trkpt>
      <trkpt lat="45.84694" lon="4.83599">
        <ele>171.10059</ele>
        <time>2026-05-13T10:25:58+02:00</time>
      </trkpt>
      <trkpt lat="45.84701" lon="4.83602">
        <ele>170.60059</ele>
        <time>2026-05-13T10:25:59+02:00</time>
      </trkpt>
      <trkpt lat="45.84707" lon="4.83605">
        <ele>170.60059</ele>
        <time>2026-05-13T10:26:00+02:00</time>
      </trkpt>
      <trkpt lat="45.84713" lon="4.83608">
        <ele>170.10059</ele>
        <time>2026-05-13T10:26:01+02:00</time>
      </trkpt>
      <trkpt lat="45.84718" lon="4.83611">
        <ele>169.7002</ele>
        <time>2026-05-13T10:26:02+02:00</time>
      </trkpt>
      <trkpt lat="45.84725" lon="4.83614">
        <ele>169.7002</ele>
        <time>2026-05-13T10:26:03+02:00</time>
      </trkpt>
      <trkpt lat="45.84731" lon="4.83617">
        <ele>169.40039</ele>
        <time>2026-05-13T10:26:04+02:00</time>
      </trkpt>
      <trkpt lat="45.84736" lon="4.8362">
        <ele>169.10059</ele>
        <time>2026-05-13T10:26:05+02:00</time>
      </trkpt>
      <trkpt lat="45.84742" lon="4.83623">
        <ele>169.10059</ele>
        <time>2026-05-13T10:26:06+02:00</time>
      </trkpt>
      <trkpt lat="45.84749" lon="4.83626">
        <ele>168.90039</ele>
        <time>2026-05-13T10:26:07+02:00</time>
      </trkpt>
      <trkpt lat="45.84754" lon="4.83629">
        <ele>168.7998</ele>
        <time>2026-05-13T10:26:08+02:00</time>
      </trkpt>
      <trkpt lat="45.8476" lon="4.83632">
        <ele>169</ele>
        <time>2026-05-13T10:26:09+02:00</time>
      </trkpt>
      <trkpt lat="45.84766" lon="4.83635">
        <ele>168.90039</ele>
        <time>2026-05-13T10:26:10+02:00</time>
      </trkpt>
      <trkpt lat="45.84771" lon="4.83638">
        <ele>168.7998</ele>
        <time>2026-05-13T10:26:11+02:00</time>
      </trkpt>
      <trkpt lat="45.84776" lon="4.83641">
        <ele>169</ele>
        <time>2026-05-13T10:26:12+02:00</time>
      </trkpt>
      <trkpt lat="45.84781" lon="4.83643">
        <ele>169</ele>
        <time>2026-05-13T10:26:13+02:00</time>
      </trkpt>
      <trkpt lat="45.84786" lon="4.83646">
        <ele>169</ele>
        <time>2026-05-13T10:26:14+02:00</time>
      </trkpt>
      <trkpt lat="45.84791" lon="4.83648">
        <ele>169.2998</ele>
        <time>2026-05-13T10:26:15+02:00</time>
      </trkpt>
      <trkpt lat="45.84795" lon="4.8365">
        <ele>169.2998</ele>
        <time>2026-05-13T10:26:16+02:00</time>
      </trkpt>
      <trkpt lat="45.848" lon="4.83652">
        <ele>169.2998</ele>
        <time>2026-05-13T10:26:17+02:00</time>
      </trkpt>
      <trkpt lat="45.84804" lon="4.83654">
        <ele>169.2998</ele>
        <time>2026-05-13T10:26:18+02:00</time>
      </trkpt>
      <trkpt lat="45.84808" lon="4.83657">
        <ele>169.7002</ele>
        <time>2026-05-13T10:26:19+02:00</time>
      </trkpt>
      <trkpt lat="45.84813" lon="4.83659">
        <ele>169.60059</ele>
        <time>2026-05-13T10:26:20+02:00</time>
      </trkpt>
      <trkpt lat="45.84817" lon="4.83662">
        <ele>169.60059</ele>
        <time>2026-05-13T10:26:21+02:00</time>
      </trkpt>
      <trkpt lat="45.84821" lon="4.83664">
        <ele>169.5</ele>
        <time>2026-05-13T10:26:22+02:00</time>
      </trkpt>
      <trkpt lat="45.84826" lon="4.83667">
        <ele>169.5</ele>
        <time>2026-05-13T10:26:23+02:00</time>
      </trkpt>
      <trkpt lat="45.8483" lon="4.83669">
        <ele>169.10059</ele>
        <time>2026-05-13T10:26:24+02:00</time>
      </trkpt>
      <trkpt lat="45.84835" lon="4.83671">
        <ele>169.10059</ele>
        <time>2026-05-13T10:26:25+02:00</time>
      </trkpt>
      <trkpt lat="45.8484" lon="4.83674">
        <ele>169.40039</ele>
        <time>2026-05-13T10:26:26+02:00</time>
      </trkpt>
      <trkpt lat="45.84844" lon="4.83677">
        <ele>169.2002</ele>
        <time>2026-05-13T10:26:27+02:00</time>
      </trkpt>
      <trkpt lat="45.84849" lon="4.8368">
        <ele>169</ele>
        <time>2026-05-13T10:26:28+02:00</time>
      </trkpt>
      <trkpt lat="45.84854" lon="4.83682">
        <ele>169.7002</ele>
        <time>2026-05-13T10:26:29+02:00</time>
      </trkpt>
      <trkpt lat="45.84858" lon="4.83685">
        <ele>169.7002</ele>
        <time>2026-05-13T10:26:30+02:00</time>
      </trkpt>
      <trkpt lat="45.84863" lon="4.83687">
        <ele>169.2998</ele>
        <time>2026-05-13T10:26:31+02:00</time>
      </trkpt>
      <trkpt lat="45.84868" lon="4.8369">
        <ele>168.7998</ele>
        <time>2026-05-13T10:26:32+02:00</time>
      </trkpt>
      <trkpt lat="45.84872" lon="4.83692">
        <ele>168.2002</ele>
        <time>2026-05-13T10:26:33+02:00</time>
      </trkpt>
      <trkpt lat="45.84877" lon="4.83695">
        <ele>168.2002</ele>
        <time>2026-05-13T10:26:34+02:00</time>
      </trkpt>
      <trkpt lat="45.84881" lon="4.83698">
        <ele>167.10059</ele>
        <time>2026-05-13T10:26:35+02:00</time>
      </trkpt>
      <trkpt lat="45.84886" lon="4.837">
        <ele>167.7002</ele>
        <time>2026-05-13T10:26:36+02:00</time>
      </trkpt>
      <trkpt lat="45.84891" lon="4.83703">
        <ele>167.7998</ele>
        <time>2026-05-13T10:26:37+02:00</time>
      </trkpt>
      <trkpt lat="45.84896" lon="4.83706">
        <ele>168.2998</ele>
        <time>2026-05-13T10:26:38+02:00</time>
      </trkpt>
      <trkpt lat="45.84901" lon="4.83708">
        <ele>170.10059</ele>
        <time>2026-05-13T10:26:39+02:00</time>
      </trkpt>
      <trkpt lat="45.84906" lon="4.8371">
        <ele>170.10059</ele>
        <time>2026-05-13T10:26:40+02:00</time>
      </trkpt>
      <trkpt lat="45.84911" lon="4.83713">
        <ele>170</ele>
        <time>2026-05-13T10:26:41+02:00</time>
      </trkpt>
      <trkpt lat="45.84916" lon="4.83715">
        <ele>169.40039</ele>
        <time>2026-05-13T10:26:42+02:00</time>
      </trkpt>
      <trkpt lat="45.84921" lon="4.83718">
        <ele>169</ele>
        <time>2026-05-13T10:26:43+02:00</time>
      </trkpt>
      <trkpt lat="45.84926" lon="4.8372">
        <ele>167.7998</ele>
        <time>2026-05-13T10:26:44+02:00</time>
      </trkpt>
      <trkpt lat="45.84931" lon="4.83723">
        <ele>167.2998</ele>
        <time>2026-05-13T10:26:45+02:00</time>
      </trkpt>
      <trkpt lat="45.84936" lon="4.83725">
        <ele>168.2998</ele>
        <time>2026-05-13T10:26:46+02:00</time>
      </trkpt>
      <trkpt lat="45.8494" lon="4.83727">
        <ele>168.2002</ele>
        <time>2026-05-13T10:26:47+02:00</time>
      </trkpt>
      <trkpt lat="45.84944" lon="4.83729">
        <ele>168.10059</ele>
        <time>2026-05-13T10:26:48+02:00</time>
      </trkpt>
      <trkpt lat="45.84948" lon="4.8373">
        <ele>168.10059</ele>
        <time>2026-05-13T10:26:49+02:00</time>
      </trkpt>
      <trkpt lat="45.84952" lon="4.8373">
        <ele>168</ele>
        <time>2026-05-13T10:26:50+02:00</time>
      </trkpt>
      <trkpt lat="45.84956" lon="4.8373">
        <ele>167.7998</ele>
        <time>2026-05-13T10:26:51+02:00</time>
      </trkpt>
      <trkpt lat="45.8496" lon="4.83728">
        <ele>167.7998</ele>
        <time>2026-05-13T10:26:52+02:00</time>
      </trkpt>
      <trkpt lat="45.84965" lon="4.83726">
        <ele>167.60059</ele>
        <time>2026-05-13T10:26:53+02:00</time>
      </trkpt>
      <trkpt lat="45.84969" lon="4.83726">
        <ele>167.40039</ele>
        <time>2026-05-13T10:26:54+02:00</time>
      </trkpt>
      <trkpt lat="45.84974" lon="4.83728">
        <ele>167.2002</ele>
        <time>2026-05-13T10:26:55+02:00</time>
      </trkpt>
      <trkpt lat="45.84978" lon="4.83731">
        <ele>167.2002</ele>
        <time>2026-05-13T10:26:56+02:00</time>
      </trkpt>
      <trkpt lat="45.84981" lon="4.83736">
        <ele>167.40039</ele>
        <time>2026-05-13T10:26:57+02:00</time>
      </trkpt>
      <trkpt lat="45.84985" lon="4.83741">
        <ele>167.2002</ele>
        <time>2026-05-13T10:26:58+02:00</time>
      </trkpt>
      <trkpt lat="45.84989" lon="4.83745">
        <ele>167.60059</ele>
        <time>2026-05-13T10:26:59+02:00</time>
      </trkpt>
      <trkpt lat="45.84993" lon="4.83747">
        <ele>167.2998</ele>
        <time>2026-05-13T10:27:00+02:00</time>
      </trkpt>
      <trkpt lat="45.84997" lon="4.8375">
        <ele>167.10059</ele>
        <time>2026-05-13T10:27:01+02:00</time>
      </trkpt>
      <trkpt lat="45.85002" lon="4.83753">
        <ele>167.5</ele>
        <time>2026-05-13T10:27:02+02:00</time>
      </trkpt>
      <trkpt lat="45.85006" lon="4.83755">
        <ele>167.2002</ele>
        <time>2026-05-13T10:27:03+02:00</time>
      </trkpt>
      <trkpt lat="45.8501" lon="4.83758">
        <ele>166.90039</ele>
        <time>2026-05-13T10:27:04+02:00</time>
      </trkpt>
      <trkpt lat="45.85015" lon="4.8376">
        <ele>167</ele>
        <time>2026-05-13T10:27:05+02:00</time>
      </trkpt>
      <trkpt lat="45.85019" lon="4.83762">
        <ele>167</ele>
        <time>2026-05-13T10:27:06+02:00</time>
      </trkpt>
      <trkpt lat="45.85024" lon="4.83764">
        <ele>166.7998</ele>
        <time>2026-05-13T10:27:07+02:00</time>
      </trkpt>
      <trkpt lat="45.85029" lon="4.83766">
        <ele>166.7002</ele>
        <time>2026-05-13T10:27:08+02:00</time>
      </trkpt>
      <trkpt lat="45.85034" lon="4.83767">
        <ele>166.60059</ele>
        <time>2026-05-13T10:27:09+02:00</time>
      </trkpt>
      <trkpt lat="45.85039" lon="4.83769">
        <ele>166.7998</ele>
        <time>2026-05-13T10:27:10+02:00</time>
      </trkpt>
      <trkpt lat="45.85043" lon="4.83771">
        <ele>166.7998</ele>
        <time>2026-05-13T10:27:11+02:00</time>
      </trkpt>
      <trkpt lat="45.85048" lon="4.83772">
        <ele>166.7002</ele>
        <time>2026-05-13T10:27:12+02:00</time>
      </trkpt>
      <trkpt lat="45.85052" lon="4.83774">
        <ele>166.60059</ele>
        <time>2026-05-13T10:27:13+02:00</time>
      </trkpt>
      <trkpt lat="45.85057" lon="4.83775">
        <ele>166.5</ele>
        <time>2026-05-13T10:27:14+02:00</time>
      </trkpt>
      <trkpt lat="45.85062" lon="4.83777">
        <ele>166.40039</ele>
        <time>2026-05-13T10:27:15+02:00</time>
      </trkpt>
      <trkpt lat="45.85067" lon="4.83779">
        <ele>166.40039</ele>
        <time>2026-05-13T10:27:16+02:00</time>
      </trkpt>
      <trkpt lat="45.85072" lon="4.8378">
        <ele>166.40039</ele>
        <time>2026-05-13T10:27:17+02:00</time>
      </trkpt>
      <trkpt lat="45.85077" lon="4.83782">
        <ele>166.40039</ele>
        <time>2026-05-13T10:27:18+02:00</time>
      </trkpt>
      <trkpt lat="45.85081" lon="4.83783">
        <ele>166.5</ele>
        <time>2026-05-13T10:27:19+02:00</time>
      </trkpt>
      <trkpt lat="45.85087" lon="4.83785">
        <ele>166.60059</ele>
        <time>2026-05-13T10:27:20+02:00</time>
      </trkpt>
      <trkpt lat="45.85092" lon="4.83786">
        <ele>166.60059</ele>
        <time>2026-05-13T10:27:21+02:00</time>
      </trkpt>
      <trkpt lat="45.85096" lon="4.83788">
        <ele>166.7002</ele>
        <time>2026-05-13T10:27:22+02:00</time>
      </trkpt>
      <trkpt lat="45.85101" lon="4.83789">
        <ele>166.7002</ele>
        <time>2026-05-13T10:27:23+02:00</time>
      </trkpt>
      <trkpt lat="45.85106" lon="4.83791">
        <ele>166.60059</ele>
        <time>2026-05-13T10:27:24+02:00</time>
      </trkpt>
      <trkpt lat="45.85111" lon="4.83792">
        <ele>166.60059</ele>
        <time>2026-05-13T10:27:25+02:00</time>
      </trkpt>
      <trkpt lat="45.85116" lon="4.83794">
        <ele>166.7998</ele>
        <time>2026-05-13T10:27:26+02:00</time>
      </trkpt>
      <trkpt lat="45.85121" lon="4.83795">
        <ele>166.7998</ele>
        <time>2026-05-13T10:27:27+02:00</time>
      </trkpt>
      <trkpt lat="45.85125" lon="4.83796">
        <ele>166.7002</ele>
        <time>2026-05-13T10:27:28+02:00</time>
      </trkpt>
      <trkpt lat="45.8513" lon="4.83797">
        <ele>166.60059</ele>
        <time>2026-05-13T10:27:29+02:00</time>
      </trkpt>
      <trkpt lat="45.85135" lon="4.83799">
        <ele>166.60059</ele>
        <time>2026-05-13T10:27:30+02:00</time>
      </trkpt>
      <trkpt lat="45.85139" lon="4.838">
        <ele>166.60059</ele>
        <time>2026-05-13T10:27:31+02:00</time>
      </trkpt>
      <trkpt lat="45.85143" lon="4.83802">
        <ele>166.60059</ele>
        <time>2026-05-13T10:27:32+02:00</time>
      </trkpt>
      <trkpt lat="45.85148" lon="4.83804">
        <ele>166.60059</ele>
        <time>2026-05-13T10:27:33+02:00</time>
      </trkpt>
      <trkpt lat="45.85153" lon="4.83805">
        <ele>166.5</ele>
        <time>2026-05-13T10:27:34+02:00</time>
      </trkpt>
      <trkpt lat="45.85157" lon="4.83807">
        <ele>166.5</ele>
        <time>2026-05-13T10:27:35+02:00</time>
      </trkpt>
      <trkpt lat="45.85162" lon="4.83808">
        <ele>166.5</ele>
        <time>2026-05-13T10:27:36+02:00</time>
      </trkpt>
      <trkpt lat="45.85166" lon="4.8381">
        <ele>166.40039</ele>
        <time>2026-05-13T10:27:37+02:00</time>
      </trkpt>
      <trkpt lat="45.85171" lon="4.83811">
        <ele>166.40039</ele>
        <time>2026-05-13T10:27:38+02:00</time>
      </trkpt>
      <trkpt lat="45.85176" lon="4.83812">
        <ele>166.40039</ele>
        <time>2026-05-13T10:27:39+02:00</time>
      </trkpt>
      <trkpt lat="45.85181" lon="4.83814">
        <ele>166.40039</ele>
        <time>2026-05-13T10:27:40+02:00</time>
      </trkpt>
      <trkpt lat="45.85186" lon="4.83815">
        <ele>166.40039</ele>
        <time>2026-05-13T10:27:41+02:00</time>
      </trkpt>
      <trkpt lat="45.85191" lon="4.83816">
        <ele>166.2998</ele>
        <time>2026-05-13T10:27:42+02:00</time>
      </trkpt>
      <trkpt lat="45.85196" lon="4.83818">
        <ele>166.2998</ele>
        <time>2026-05-13T10:27:43+02:00</time>
      </trkpt>
      <trkpt lat="45.85201" lon="4.83819">
        <ele>166.2998</ele>
        <time>2026-05-13T10:27:44+02:00</time>
      </trkpt>
      <trkpt lat="45.85206" lon="4.8382">
        <ele>166.2998</ele>
        <time>2026-05-13T10:27:45+02:00</time>
      </trkpt>
      <trkpt lat="45.85211" lon="4.83822">
        <ele>166.2998</ele>
        <time>2026-05-13T10:27:46+02:00</time>
      </trkpt>
      <trkpt lat="45.85217" lon="4.83823">
        <ele>166.2998</ele>
        <time>2026-05-13T10:27:47+02:00</time>
      </trkpt>
      <trkpt lat="45.85222" lon="4.83825">
        <ele>166.2998</ele>
        <time>2026-05-13T10:27:48+02:00</time>
      </trkpt>
      <trkpt lat="45.85227" lon="4.83826">
        <ele>166.2998</ele>
        <time>2026-05-13T10:27:49+02:00</time>
      </trkpt>
      <trkpt lat="45.85232" lon="4.83827">
        <ele>166.40039</ele>
        <time>2026-05-13T10:27:50+02:00</time>
      </trkpt>
      <trkpt lat="45.85236" lon="4.83829">
        <ele>166.40039</ele>
        <time>2026-05-13T10:27:51+02:00</time>
      </trkpt>
      <trkpt lat="45.85241" lon="4.8383">
        <ele>166.40039</ele>
        <time>2026-05-13T10:27:52+02:00</time>
      </trkpt>
      <trkpt lat="45.85246" lon="4.83831">
        <ele>166.5</ele>
        <time>2026-05-13T10:27:53+02:00</time>
      </trkpt>
      <trkpt lat="45.85251" lon="4.83832">
        <ele>166.5</ele>
        <time>2026-05-13T10:27:54+02:00</time>
      </trkpt>
      <trkpt lat="45.85256" lon="4.83833">
        <ele>166.7002</ele>
        <time>2026-05-13T10:27:55+02:00</time>
      </trkpt>
      <trkpt lat="45.8526" lon="4.83835">
        <ele>166.7998</ele>
        <time>2026-05-13T10:27:56+02:00</time>
      </trkpt>
      <trkpt lat="45.85265" lon="4.83836">
        <ele>166.7998</ele>
        <time>2026-05-13T10:27:57+02:00</time>
      </trkpt>
      <trkpt lat="45.8527" lon="4.83837">
        <ele>167.2998</ele>
        <time>2026-05-13T10:27:58+02:00</time>
      </trkpt>
      <trkpt lat="45.85274" lon="4.83839">
        <ele>167.60059</ele>
        <time>2026-05-13T10:27:59+02:00</time>
      </trkpt>
      <trkpt lat="45.85279" lon="4.8384">
        <ele>167.90039</ele>
        <time>2026-05-13T10:28:00+02:00</time>
      </trkpt>
      <trkpt lat="45.85284" lon="4.83841">
        <ele>168.10059</ele>
        <time>2026-05-13T10:28:01+02:00</time>
      </trkpt>
      <trkpt lat="45.85288" lon="4.83843">
        <ele>168.10059</ele>
        <time>2026-05-13T10:28:02+02:00</time>
      </trkpt>
      <trkpt lat="45.85293" lon="4.83845">
        <ele>169</ele>
        <time>2026-05-13T10:28:03+02:00</time>
      </trkpt>
      <trkpt lat="45.85298" lon="4.83846">
        <ele>169.2002</ele>
        <time>2026-05-13T10:28:04+02:00</time>
      </trkpt>
      <trkpt lat="45.85302" lon="4.83848">
        <ele>169.2998</ele>
        <time>2026-05-13T10:28:05+02:00</time>
      </trkpt>
      <trkpt lat="45.85307" lon="4.8385">
        <ele>169.2998</ele>
        <time>2026-05-13T10:28:06+02:00</time>
      </trkpt>
      <trkpt lat="45.85312" lon="4.83852">
        <ele>169.40039</ele>
        <time>2026-05-13T10:28:07+02:00</time>
      </trkpt>
      <trkpt lat="45.85317" lon="4.83855">
        <ele>170.5</ele>
        <time>2026-05-13T10:28:08+02:00</time>
      </trkpt>
      <trkpt lat="45.85322" lon="4.83857">
        <ele>170.5</ele>
        <time>2026-05-13T10:28:09+02:00</time>
      </trkpt>
      <trkpt lat="45.85326" lon="4.83859">
        <ele>170.60059</ele>
        <time>2026-05-13T10:28:10+02:00</time>
      </trkpt>
      <trkpt lat="45.8533" lon="4.83861">
        <ele>170.60059</ele>
        <time>2026-05-13T10:28:11+02:00</time>
      </trkpt>
      <trkpt lat="45.85335" lon="4.83863">
        <ele>172.2998</ele>
        <time>2026-05-13T10:28:12+02:00</time>
      </trkpt>
      <trkpt lat="45.85339" lon="4.83866">
        <ele>172.60059</ele>
        <time>2026-05-13T10:28:13+02:00</time>
      </trkpt>
      <trkpt lat="45.85344" lon="4.83868">
        <ele>172.5</ele>
        <time>2026-05-13T10:28:14+02:00</time>
      </trkpt>
      <trkpt lat="45.85348" lon="4.83871">
        <ele>174</ele>
        <time>2026-05-13T10:28:15+02:00</time>
      </trkpt>
      <trkpt lat="45.85354" lon="4.83874">
        <ele>173.5</ele>
        <time>2026-05-13T10:28:16+02:00</time>
      </trkpt>
      <trkpt lat="45.85358" lon="4.83876">
        <ele>172.7002</ele>
        <time>2026-05-13T10:28:17+02:00</time>
      </trkpt>
      <trkpt lat="45.85363" lon="4.83878">
        <ele>171.7998</ele>
        <time>2026-05-13T10:28:18+02:00</time>
      </trkpt>
      <trkpt lat="45.85368" lon="4.83881">
        <ele>172.90039</ele>
        <time>2026-05-13T10:28:19+02:00</time>
      </trkpt>
      <trkpt lat="45.85373" lon="4.83883">
        <ele>172.90039</ele>
        <time>2026-05-13T10:28:20+02:00</time>
      </trkpt>
      <trkpt lat="45.85378" lon="4.83886">
        <ele>172.5</ele>
        <time>2026-05-13T10:28:21+02:00</time>
      </trkpt>
      <trkpt lat="45.85382" lon="4.83888">
        <ele>173.7002</ele>
        <time>2026-05-13T10:28:22+02:00</time>
      </trkpt>
      <trkpt lat="45.85387" lon="4.8389">
        <ele>173.2998</ele>
        <time>2026-05-13T10:28:23+02:00</time>
      </trkpt>
      <trkpt lat="45.85392" lon="4.83893">
        <ele>172.7002</ele>
        <time>2026-05-13T10:28:24+02:00</time>
      </trkpt>
      <trkpt lat="45.85397" lon="4.83895">
        <ele>172.7002</ele>
        <time>2026-05-13T10:28:25+02:00</time>
      </trkpt>
      <trkpt lat="45.85402" lon="4.83898">
        <ele>173.7998</ele>
        <time>2026-05-13T10:28:26+02:00</time>
      </trkpt>
      <trkpt lat="45.85406" lon="4.839">
        <ele>173.10059</ele>
        <time>2026-05-13T10:28:27+02:00</time>
      </trkpt>
      <trkpt lat="45.85411" lon="4.83902">
        <ele>172.60059</ele>
        <time>2026-05-13T10:28:28+02:00</time>
      </trkpt>
      <trkpt lat="45.85416" lon="4.83905">
        <ele>174.40039</ele>
        <time>2026-05-13T10:28:29+02:00</time>
      </trkpt>
      <trkpt lat="45.85421" lon="4.83907">
        <ele>174.40039</ele>
        <time>2026-05-13T10:28:30+02:00</time>
      </trkpt>
      <trkpt lat="45.85426" lon="4.83908">
        <ele>173.7002</ele>
        <time>2026-05-13T10:28:31+02:00</time>
      </trkpt>
      <trkpt lat="45.8543" lon="4.8391">
        <ele>173</ele>
        <time>2026-05-13T10:28:32+02:00</time>
      </trkpt>
      <trkpt lat="45.85435" lon="4.83911">
        <ele>172.2002</ele>
        <time>2026-05-13T10:28:33+02:00</time>
      </trkpt>
      <trkpt lat="45.85439" lon="4.83913">
        <ele>172.2002</ele>
        <time>2026-05-13T10:28:34+02:00</time>
      </trkpt>
      <trkpt lat="45.85444" lon="4.83916">
        <ele>173.2002</ele>
        <time>2026-05-13T10:28:35+02:00</time>
      </trkpt>
      <trkpt lat="45.85448" lon="4.83918">
        <ele>172.2002</ele>
        <time>2026-05-13T10:28:36+02:00</time>
      </trkpt>
      <trkpt lat="45.85453" lon="4.83921">
        <ele>171.2002</ele>
        <time>2026-05-13T10:28:37+02:00</time>
      </trkpt>
      <trkpt lat="45.85457" lon="4.83923">
        <ele>172.7002</ele>
        <time>2026-05-13T10:28:38+02:00</time>
      </trkpt>
      <trkpt lat="45.85462" lon="4.83926">
        <ele>171.60059</ele>
        <time>2026-05-13T10:28:39+02:00</time>
      </trkpt>
      <trkpt lat="45.85467" lon="4.83929">
        <ele>170.7002</ele>
        <time>2026-05-13T10:28:40+02:00</time>
      </trkpt>
      <trkpt lat="45.85471" lon="4.83931">
        <ele>171.40039</ele>
        <time>2026-05-13T10:28:41+02:00</time>
      </trkpt>
      <trkpt lat="45.85476" lon="4.83934">
        <ele>170.5</ele>
        <time>2026-05-13T10:28:42+02:00</time>
      </trkpt>
      <trkpt lat="45.85481" lon="4.83936">
        <ele>170.5</ele>
        <time>2026-05-13T10:28:43+02:00</time>
      </trkpt>
      <trkpt lat="45.85486" lon="4.83939">
        <ele>169.60059</ele>
        <time>2026-05-13T10:28:44+02:00</time>
      </trkpt>
      <trkpt lat="45.85491" lon="4.83941">
        <ele>169.7998</ele>
        <time>2026-05-13T10:28:45+02:00</time>
      </trkpt>
      <trkpt lat="45.85496" lon="4.83944">
        <ele>169.10059</ele>
        <time>2026-05-13T10:28:46+02:00</time>
      </trkpt>
      <trkpt lat="45.85501" lon="4.83946">
        <ele>168.5</ele>
        <time>2026-05-13T10:28:47+02:00</time>
      </trkpt>
      <trkpt lat="45.85506" lon="4.83948">
        <ele>169.2002</ele>
        <time>2026-05-13T10:28:48+02:00</time>
      </trkpt>
      <trkpt lat="45.85511" lon="4.8395">
        <ele>168.7998</ele>
        <time>2026-05-13T10:28:49+02:00</time>
      </trkpt>
      <trkpt lat="45.85516" lon="4.83953">
        <ele>168.7998</ele>
        <time>2026-05-13T10:28:50+02:00</time>
      </trkpt>
      <trkpt lat="45.85521" lon="4.83955">
        <ele>168.40039</ele>
        <time>2026-05-13T10:28:51+02:00</time>
      </trkpt>
      <trkpt lat="45.85526" lon="4.83957">
        <ele>168.7998</ele>
        <time>2026-05-13T10:28:52+02:00</time>
      </trkpt>
      <trkpt lat="45.85531" lon="4.8396">
        <ele>168.2998</ele>
        <time>2026-05-13T10:28:53+02:00</time>
      </trkpt>
      <trkpt lat="45.85536" lon="4.83962">
        <ele>167.7002</ele>
        <time>2026-05-13T10:28:54+02:00</time>
      </trkpt>
      <trkpt lat="45.85541" lon="4.83965">
        <ele>167.90039</ele>
        <time>2026-05-13T10:28:55+02:00</time>
      </trkpt>
      <trkpt lat="45.85545" lon="4.83967">
        <ele>167.90039</ele>
        <time>2026-05-13T10:28:56+02:00</time>
      </trkpt>
      <trkpt lat="45.8555" lon="4.8397">
        <ele>167.60059</ele>
        <time>2026-05-13T10:28:57+02:00</time>
      </trkpt>
      <trkpt lat="45.85555" lon="4.83972">
        <ele>167.2998</ele>
        <time>2026-05-13T10:28:58+02:00</time>
      </trkpt>
      <trkpt lat="45.8556" lon="4.83975">
        <ele>167.7998</ele>
        <time>2026-05-13T10:28:59+02:00</time>
      </trkpt>
      <trkpt lat="45.85565" lon="4.83977">
        <ele>167.5</ele>
        <time>2026-05-13T10:29:00+02:00</time>
      </trkpt>
      <trkpt lat="45.85569" lon="4.8398">
        <ele>167.5</ele>
        <time>2026-05-13T10:29:01+02:00</time>
      </trkpt>
      <trkpt lat="45.85574" lon="4.83982">
        <ele>167.2998</ele>
        <time>2026-05-13T10:29:02+02:00</time>
      </trkpt>
      <trkpt lat="45.85579" lon="4.83985">
        <ele>167.40039</ele>
        <time>2026-05-13T10:29:03+02:00</time>
      </trkpt>
      <trkpt lat="45.85583" lon="4.83987">
        <ele>167.10059</ele>
        <time>2026-05-13T10:29:04+02:00</time>
      </trkpt>
      <trkpt lat="45.85588" lon="4.83989">
        <ele>167.10059</ele>
        <time>2026-05-13T10:29:05+02:00</time>
      </trkpt>
      <trkpt lat="45.85592" lon="4.83991">
        <ele>167.2998</ele>
        <time>2026-05-13T10:29:06+02:00</time>
      </trkpt>
      <trkpt lat="45.85597" lon="4.83993">
        <ele>167.10059</ele>
        <time>2026-05-13T10:29:07+02:00</time>
      </trkpt>
      <trkpt lat="45.85601" lon="4.83996">
        <ele>167</ele>
        <time>2026-05-13T10:29:08+02:00</time>
      </trkpt>
      <trkpt lat="45.85606" lon="4.83998">
        <ele>167</ele>
        <time>2026-05-13T10:29:09+02:00</time>
      </trkpt>
      <trkpt lat="45.8561" lon="4.84">
        <ele>167.5</ele>
        <time>2026-05-13T10:29:10+02:00</time>
      </trkpt>
      <trkpt lat="45.85614" lon="4.84002">
        <ele>167.2998</ele>
        <time>2026-05-13T10:29:11+02:00</time>
      </trkpt>
      <trkpt lat="45.85619" lon="4.84004">
        <ele>167.2002</ele>
        <time>2026-05-13T10:29:12+02:00</time>
      </trkpt>
      <trkpt lat="45.85623" lon="4.84006">
        <ele>167.2002</ele>
        <time>2026-05-13T10:29:13+02:00</time>
      </trkpt>
      <trkpt lat="45.85628" lon="4.84009">
        <ele>167.40039</ele>
        <time>2026-05-13T10:29:14+02:00</time>
      </trkpt>
      <trkpt lat="45.85632" lon="4.84011">
        <ele>167.10059</ele>
        <time>2026-05-13T10:29:15+02:00</time>
      </trkpt>
      <trkpt lat="45.85637" lon="4.84014">
        <ele>166.7998</ele>
        <time>2026-05-13T10:29:16+02:00</time>
      </trkpt>
      <trkpt lat="45.85642" lon="4.84016">
        <ele>166.7998</ele>
        <time>2026-05-13T10:29:17+02:00</time>
      </trkpt>
      <trkpt lat="45.85647" lon="4.84018">
        <ele>167.2002</ele>
        <time>2026-05-13T10:29:18+02:00</time>
      </trkpt>
      <trkpt lat="45.85651" lon="4.84021">
        <ele>167.10059</ele>
        <time>2026-05-13T10:29:19+02:00</time>
      </trkpt>
      <trkpt lat="45.85656" lon="4.84023">
        <ele>167</ele>
        <time>2026-05-13T10:29:20+02:00</time>
      </trkpt>
      <trkpt lat="45.85661" lon="4.84026">
        <ele>167.7002</ele>
        <time>2026-05-13T10:29:21+02:00</time>
      </trkpt>
      <trkpt lat="45.85666" lon="4.84028">
        <ele>167.7002</ele>
        <time>2026-05-13T10:29:22+02:00</time>
      </trkpt>
      <trkpt lat="45.85671" lon="4.8403">
        <ele>167.5</ele>
        <time>2026-05-13T10:29:23+02:00</time>
      </trkpt>
      <trkpt lat="45.85676" lon="4.84033">
        <ele>167.5</ele>
        <time>2026-05-13T10:29:24+02:00</time>
      </trkpt>
      <trkpt lat="45.8568" lon="4.84035">
        <ele>168</ele>
        <time>2026-05-13T10:29:25+02:00</time>
      </trkpt>
      <trkpt lat="45.85685" lon="4.84037">
        <ele>167.7998</ele>
        <time>2026-05-13T10:29:26+02:00</time>
      </trkpt>
      <trkpt lat="45.85689" lon="4.84039">
        <ele>167.7998</ele>
        <time>2026-05-13T10:29:27+02:00</time>
      </trkpt>
      <trkpt lat="45.85694" lon="4.84041">
        <ele>167.60059</ele>
        <time>2026-05-13T10:29:28+02:00</time>
      </trkpt>
      <trkpt lat="45.85698" lon="4.84044">
        <ele>167.90039</ele>
        <time>2026-05-13T10:29:29+02:00</time>
      </trkpt>
      <trkpt lat="45.85703" lon="4.84046">
        <ele>167.7002</ele>
        <time>2026-05-13T10:29:30+02:00</time>
      </trkpt>
      <trkpt lat="45.85707" lon="4.84048">
        <ele>167.7002</ele>
        <time>2026-05-13T10:29:31+02:00</time>
      </trkpt>
      <trkpt lat="45.85711" lon="4.8405">
        <ele>167.5</ele>
        <time>2026-05-13T10:29:32+02:00</time>
      </trkpt>
      <trkpt lat="45.85716" lon="4.84053">
        <ele>167.7998</ele>
        <time>2026-05-13T10:29:33+02:00</time>
      </trkpt>
      <trkpt lat="45.8572" lon="4.84055">
        <ele>167.7002</ele>
        <time>2026-05-13T10:29:34+02:00</time>
      </trkpt>
      <trkpt lat="45.85725" lon="4.84057">
        <ele>167.7002</ele>
        <time>2026-05-13T10:29:35+02:00</time>
      </trkpt>
      <trkpt lat="45.85729" lon="4.84059">
        <ele>167.5</ele>
        <time>2026-05-13T10:29:36+02:00</time>
      </trkpt>
      <trkpt lat="45.85734" lon="4.84061">
        <ele>167.7998</ele>
        <time>2026-05-13T10:29:37+02:00</time>
      </trkpt>
      <trkpt lat="45.85738" lon="4.84064">
        <ele>167.7002</ele>
        <time>2026-05-13T10:29:38+02:00</time>
      </trkpt>
      <trkpt lat="45.85742" lon="4.84066">
        <ele>167.7002</ele>
        <time>2026-05-13T10:29:39+02:00</time>
      </trkpt>
      <trkpt lat="45.85747" lon="4.84068">
        <ele>168</ele>
        <time>2026-05-13T10:29:40+02:00</time>
      </trkpt>
      <trkpt lat="45.85752" lon="4.8407">
        <ele>167.90039</ele>
        <time>2026-05-13T10:29:41+02:00</time>
      </trkpt>
      <trkpt lat="45.85758" lon="4.84072">
        <ele>167.7002</ele>
        <time>2026-05-13T10:29:42+02:00</time>
      </trkpt>
      <trkpt lat="45.85764" lon="4.84076">
        <ele>167.60059</ele>
        <time>2026-05-13T10:29:43+02:00</time>
      </trkpt>
      <trkpt lat="45.85771" lon="4.84078">
        <ele>167.7002</ele>
        <time>2026-05-13T10:29:44+02:00</time>
      </trkpt>
      <trkpt lat="45.85777" lon="4.84081">
        <ele>167.5</ele>
        <time>2026-05-13T10:29:45+02:00</time>
      </trkpt>
      <trkpt lat="45.85783" lon="4.84084">
        <ele>167.40039</ele>
        <time>2026-05-13T10:29:46+02:00</time>
      </trkpt>
      <trkpt lat="45.85789" lon="4.84088">
        <ele>167.60059</ele>
        <time>2026-05-13T10:29:47+02:00</time>
      </trkpt>
      <trkpt lat="45.85795" lon="4.84091">
        <ele>167.5</ele>
        <time>2026-05-13T10:29:48+02:00</time>
      </trkpt>
      <trkpt lat="45.85801" lon="4.84094">
        <ele>167.60059</ele>
        <time>2026-05-13T10:29:49+02:00</time>
      </trkpt>
      <trkpt lat="45.85807" lon="4.84096">
        <ele>167.40039</ele>
        <time>2026-05-13T10:29:50+02:00</time>
      </trkpt>
      <trkpt lat="45.85813" lon="4.84099">
        <ele>167.2998</ele>
        <time>2026-05-13T10:29:51+02:00</time>
      </trkpt>
      <trkpt lat="45.85818" lon="4.84102">
        <ele>167.2998</ele>
        <time>2026-05-13T10:29:52+02:00</time>
      </trkpt>
      <trkpt lat="45.85824" lon="4.84104">
        <ele>167.40039</ele>
        <time>2026-05-13T10:29:53+02:00</time>
      </trkpt>
      <trkpt lat="45.85829" lon="4.84107">
        <ele>167.2998</ele>
        <time>2026-05-13T10:29:54+02:00</time>
      </trkpt>
      <trkpt lat="45.85835" lon="4.84109">
        <ele>167.2998</ele>
        <time>2026-05-13T10:29:55+02:00</time>
      </trkpt>
      <trkpt lat="45.8584" lon="4.84112">
        <ele>167.40039</ele>
        <time>2026-05-13T10:29:56+02:00</time>
      </trkpt>
      <trkpt lat="45.85846" lon="4.84114">
        <ele>167.2998</ele>
        <time>2026-05-13T10:29:57+02:00</time>
      </trkpt>
      <trkpt lat="45.85852" lon="4.84116">
        <ele>167.2002</ele>
        <time>2026-05-13T10:29:58+02:00</time>
      </trkpt>
      <trkpt lat="45.85858" lon="4.84119">
        <ele>167.10059</ele>
        <time>2026-05-13T10:29:59+02:00</time>
      </trkpt>
      <trkpt lat="45.85863" lon="4.84121">
        <ele>167.2002</ele>
        <time>2026-05-13T10:30:00+02:00</time>
      </trkpt>
      <trkpt lat="45.85869" lon="4.84123">
        <ele>167.10059</ele>
        <time>2026-05-13T10:30:01+02:00</time>
      </trkpt>
      <trkpt lat="45.85874" lon="4.84124">
        <ele>167.10059</ele>
        <time>2026-05-13T10:30:02+02:00</time>
      </trkpt>
      <trkpt lat="45.8588" lon="4.84125">
        <ele>167</ele>
        <time>2026-05-13T10:30:03+02:00</time>
      </trkpt>
      <trkpt lat="45.85886" lon="4.84126">
        <ele>167</ele>
        <time>2026-05-13T10:30:04+02:00</time>
      </trkpt>
      <trkpt lat="45.85891" lon="4.84127">
        <ele>166.90039</ele>
        <time>2026-05-13T10:30:05+02:00</time>
      </trkpt>
      <trkpt lat="45.85897" lon="4.84128">
        <ele>166.90039</ele>
        <time>2026-05-13T10:30:06+02:00</time>
      </trkpt>
      <trkpt lat="45.85903" lon="4.84129">
        <ele>166.90039</ele>
        <time>2026-05-13T10:30:07+02:00</time>
      </trkpt>
      <trkpt lat="45.85908" lon="4.8413">
        <ele>166.90039</ele>
        <time>2026-05-13T10:30:08+02:00</time>
      </trkpt>
      <trkpt lat="45.85914" lon="4.8413">
        <ele>166.90039</ele>
        <time>2026-05-13T10:30:09+02:00</time>
      </trkpt>
      <trkpt lat="45.85919" lon="4.8413">
        <ele>166.7998</ele>
        <time>2026-05-13T10:30:10+02:00</time>
      </trkpt>
      <trkpt lat="45.85925" lon="4.8413">
        <ele>166.7998</ele>
        <time>2026-05-13T10:30:11+02:00</time>
      </trkpt>
      <trkpt lat="45.85931" lon="4.84131">
        <ele>166.7998</ele>
        <time>2026-05-13T10:30:12+02:00</time>
      </trkpt>
      <trkpt lat="45.85936" lon="4.8413">
        <ele>166.7998</ele>
        <time>2026-05-13T10:30:13+02:00</time>
      </trkpt>
      <trkpt lat="45.85942" lon="4.8413">
        <ele>166.7998</ele>
        <time>2026-05-13T10:30:14+02:00</time>
      </trkpt>
      <trkpt lat="45.85947" lon="4.84129">
        <ele>166.7998</ele>
        <time>2026-05-13T10:30:15+02:00</time>
      </trkpt>
      <trkpt lat="45.85953" lon="4.84128">
        <ele>166.7998</ele>
        <time>2026-05-13T10:30:16+02:00</time>
      </trkpt>
      <trkpt lat="45.85958" lon="4.84128">
        <ele>166.7998</ele>
        <time>2026-05-13T10:30:17+02:00</time>
      </trkpt>
      <trkpt lat="45.85964" lon="4.84126">
        <ele>166.7998</ele>
        <time>2026-05-13T10:30:18+02:00</time>
      </trkpt>
      <trkpt lat="45.85969" lon="4.84125">
        <ele>166.7998</ele>
        <time>2026-05-13T10:30:19+02:00</time>
      </trkpt>
      <trkpt lat="45.85974" lon="4.84124">
        <ele>166.7998</ele>
        <time>2026-05-13T10:30:20+02:00</time>
      </trkpt>
      <trkpt lat="45.8598" lon="4.84123">
        <ele>166.7002</ele>
        <time>2026-05-13T10:30:21+02:00</time>
      </trkpt>
      <trkpt lat="45.85985" lon="4.84121">
        <ele>166.7998</ele>
        <time>2026-05-13T10:30:22+02:00</time>
      </trkpt>
      <trkpt lat="45.8599" lon="4.8412">
        <ele>167</ele>
        <time>2026-05-13T10:30:23+02:00</time>
      </trkpt>
      <trkpt lat="45.85995" lon="4.84119">
        <ele>167.40039</ele>
        <time>2026-05-13T10:30:24+02:00</time>
      </trkpt>
      <trkpt lat="45.86001" lon="4.84118">
        <ele>167.40039</ele>
        <time>2026-05-13T10:30:25+02:00</time>
      </trkpt>
      <trkpt lat="45.86006" lon="4.84116">
        <ele>167.7002</ele>
        <time>2026-05-13T10:30:26+02:00</time>
      </trkpt>
      <trkpt lat="45.86011" lon="4.84115">
        <ele>168</ele>
        <time>2026-05-13T10:30:27+02:00</time>
      </trkpt>
      <trkpt lat="45.86017" lon="4.84114">
        <ele>168.40039</ele>
        <time>2026-05-13T10:30:28+02:00</time>
      </trkpt>
      <trkpt lat="45.86022" lon="4.84113">
        <ele>168.90039</ele>
        <time>2026-05-13T10:30:29+02:00</time>
      </trkpt>
      <trkpt lat="45.86028" lon="4.84111">
        <ele>169.2998</ele>
        <time>2026-05-13T10:30:30+02:00</time>
      </trkpt>
      <trkpt lat="45.86033" lon="4.8411">
        <ele>168.5</ele>
        <time>2026-05-13T10:30:31+02:00</time>
      </trkpt>
      <trkpt lat="45.86038" lon="4.84109">
        <ele>168.7002</ele>
        <time>2026-05-13T10:30:32+02:00</time>
      </trkpt>
      <trkpt lat="45.86044" lon="4.84107">
        <ele>168.7998</ele>
        <time>2026-05-13T10:30:33+02:00</time>
      </trkpt>
      <trkpt lat="45.86049" lon="4.84106">
        <ele>168.7998</ele>
        <time>2026-05-13T10:30:34+02:00</time>
      </trkpt>
      <trkpt lat="45.86055" lon="4.84105">
        <ele>168.90039</ele>
        <time>2026-05-13T10:30:35+02:00</time>
      </trkpt>
      <trkpt lat="45.8606" lon="4.84103">
        <ele>168.90039</ele>
        <time>2026-05-13T10:30:36+02:00</time>
      </trkpt>
      <trkpt lat="45.86065" lon="4.84102">
        <ele>168.10059</ele>
        <time>2026-05-13T10:30:37+02:00</time>
      </trkpt>
      <trkpt lat="45.86071" lon="4.84101">
        <ele>168.2002</ele>
        <time>2026-05-13T10:30:38+02:00</time>
      </trkpt>
      <trkpt lat="45.86076" lon="4.84099">
        <ele>168.2002</ele>
        <time>2026-05-13T10:30:39+02:00</time>
      </trkpt>
      <trkpt lat="45.86081" lon="4.84098">
        <ele>168.2002</ele>
        <time>2026-05-13T10:30:40+02:00</time>
      </trkpt>
      <trkpt lat="45.86087" lon="4.84097">
        <ele>168.2998</ele>
        <time>2026-05-13T10:30:41+02:00</time>
      </trkpt>
      <trkpt lat="45.86093" lon="4.84095">
        <ele>168.2998</ele>
        <time>2026-05-13T10:30:42+02:00</time>
      </trkpt>
      <trkpt lat="45.86098" lon="4.84094">
        <ele>168.40039</ele>
        <time>2026-05-13T10:30:43+02:00</time>
      </trkpt>
      <trkpt lat="45.86104" lon="4.84093">
        <ele>167.90039</ele>
        <time>2026-05-13T10:30:44+02:00</time>
      </trkpt>
      <trkpt lat="45.86109" lon="4.84091">
        <ele>168</ele>
        <time>2026-05-13T10:30:45+02:00</time>
      </trkpt>
      <trkpt lat="45.86115" lon="4.8409">
        <ele>168.10059</ele>
        <time>2026-05-13T10:30:46+02:00</time>
      </trkpt>
      <trkpt lat="45.8612" lon="4.84088">
        <ele>168.10059</ele>
        <time>2026-05-13T10:30:47+02:00</time>
      </trkpt>
      <trkpt lat="45.86126" lon="4.84087">
        <ele>168.2002</ele>
        <time>2026-05-13T10:30:48+02:00</time>
      </trkpt>
      <trkpt lat="45.86131" lon="4.84086">
        <ele>168.2002</ele>
        <time>2026-05-13T10:30:49+02:00</time>
      </trkpt>
      <trkpt lat="45.86136" lon="4.84084">
        <ele>167.7998</ele>
        <time>2026-05-13T10:30:50+02:00</time>
      </trkpt>
      <trkpt lat="45.86141" lon="4.84083">
        <ele>167.7998</ele>
        <time>2026-05-13T10:30:51+02:00</time>
      </trkpt>
      <trkpt lat="45.86146" lon="4.84082">
        <ele>167.90039</ele>
        <time>2026-05-13T10:30:52+02:00</time>
      </trkpt>
      <trkpt lat="45.86152" lon="4.84081">
        <ele>168</ele>
        <time>2026-05-13T10:30:53+02:00</time>
      </trkpt>
      <trkpt lat="45.86157" lon="4.84079">
        <ele>168</ele>
        <time>2026-05-13T10:30:54+02:00</time>
      </trkpt>
      <trkpt lat="45.86162" lon="4.84078">
        <ele>168</ele>
        <time>2026-05-13T10:30:55+02:00</time>
      </trkpt>
      <trkpt lat="45.86167" lon="4.84076">
        <ele>167.5</ele>
        <time>2026-05-13T10:30:56+02:00</time>
      </trkpt>
      <trkpt lat="45.86173" lon="4.84075">
        <ele>167.60059</ele>
        <time>2026-05-13T10:30:57+02:00</time>
      </trkpt>
      <trkpt lat="45.86178" lon="4.84074">
        <ele>167.60059</ele>
        <time>2026-05-13T10:30:58+02:00</time>
      </trkpt>
      <trkpt lat="45.86183" lon="4.84073">
        <ele>167.60059</ele>
        <time>2026-05-13T10:30:59+02:00</time>
      </trkpt>
      <trkpt lat="45.86189" lon="4.84071">
        <ele>167.60059</ele>
        <time>2026-05-13T10:31:00+02:00</time>
      </trkpt>
      <trkpt lat="45.86194" lon="4.8407">
        <ele>167.7002</ele>
        <time>2026-05-13T10:31:01+02:00</time>
      </trkpt>
      <trkpt lat="45.862" lon="4.84069">
        <ele>167.7002</ele>
        <time>2026-05-13T10:31:02+02:00</time>
      </trkpt>
      <trkpt lat="45.86205" lon="4.84067">
        <ele>167.2998</ele>
        <time>2026-05-13T10:31:03+02:00</time>
      </trkpt>
      <trkpt lat="45.8621" lon="4.84066">
        <ele>167.2998</ele>
        <time>2026-05-13T10:31:04+02:00</time>
      </trkpt>
      <trkpt lat="45.86216" lon="4.84065">
        <ele>167.40039</ele>
        <time>2026-05-13T10:31:05+02:00</time>
      </trkpt>
      <trkpt lat="45.86221" lon="4.84064">
        <ele>167.5</ele>
        <time>2026-05-13T10:31:06+02:00</time>
      </trkpt>
      <trkpt lat="45.86226" lon="4.84062">
        <ele>167.7002</ele>
        <time>2026-05-13T10:31:07+02:00</time>
      </trkpt>
      <trkpt lat="45.86232" lon="4.84061">
        <ele>167.7998</ele>
        <time>2026-05-13T10:31:08+02:00</time>
      </trkpt>
      <trkpt lat="45.86237" lon="4.8406">
        <ele>167.90039</ele>
        <time>2026-05-13T10:31:09+02:00</time>
      </trkpt>
      <trkpt lat="45.86242" lon="4.84058">
        <ele>167.60059</ele>
        <time>2026-05-13T10:31:10+02:00</time>
      </trkpt>
      <trkpt lat="45.86248" lon="4.84057">
        <ele>167.7002</ele>
        <time>2026-05-13T10:31:11+02:00</time>
      </trkpt>
      <trkpt lat="45.86253" lon="4.84056">
        <ele>167.7998</ele>
        <time>2026-05-13T10:31:12+02:00</time>
      </trkpt>
      <trkpt lat="45.86259" lon="4.84054">
        <ele>168</ele>
        <time>2026-05-13T10:31:13+02:00</time>
      </trkpt>
      <trkpt lat="45.86264" lon="4.84053">
        <ele>168.2998</ele>
        <time>2026-05-13T10:31:14+02:00</time>
      </trkpt>
      <trkpt lat="45.8627" lon="4.84051">
        <ele>168.7002</ele>
        <time>2026-05-13T10:31:15+02:00</time>
      </trkpt>
      <trkpt lat="45.86275" lon="4.8405">
        <ele>168</ele>
        <time>2026-05-13T10:31:16+02:00</time>
      </trkpt>
      <trkpt lat="45.8628" lon="4.84048">
        <ele>168.10059</ele>
        <time>2026-05-13T10:31:17+02:00</time>
      </trkpt>
      <trkpt lat="45.86286" lon="4.84047">
        <ele>168.2998</ele>
        <time>2026-05-13T10:31:18+02:00</time>
      </trkpt>
      <trkpt lat="45.8629" lon="4.84046">
        <ele>168.5</ele>
        <time>2026-05-13T10:31:19+02:00</time>
      </trkpt>
      <trkpt lat="45.86295" lon="4.84045">
        <ele>168.60059</ele>
        <time>2026-05-13T10:31:20+02:00</time>
      </trkpt>
      <trkpt lat="45.863" lon="4.84043">
        <ele>168.7002</ele>
        <time>2026-05-13T10:31:21+02:00</time>
      </trkpt>
      <trkpt lat="45.86305" lon="4.84042">
        <ele>168.10059</ele>
        <time>2026-05-13T10:31:22+02:00</time>
      </trkpt>
      <trkpt lat="45.86311" lon="4.84041">
        <ele>168.2002</ele>
        <time>2026-05-13T10:31:23+02:00</time>
      </trkpt>
      <trkpt lat="45.86316" lon="4.84039">
        <ele>168.2002</ele>
        <time>2026-05-13T10:31:24+02:00</time>
      </trkpt>
      <trkpt lat="45.86322" lon="4.84037">
        <ele>168.2998</ele>
        <time>2026-05-13T10:31:25+02:00</time>
      </trkpt>
      <trkpt lat="45.86327" lon="4.84036">
        <ele>168.2998</ele>
        <time>2026-05-13T10:31:26+02:00</time>
      </trkpt>
      <trkpt lat="45.86332" lon="4.84035">
        <ele>168.40039</ele>
        <time>2026-05-13T10:31:27+02:00</time>
      </trkpt>
      <trkpt lat="45.86338" lon="4.84034">
        <ele>168.40039</ele>
        <time>2026-05-13T10:31:28+02:00</time>
      </trkpt>
      <trkpt lat="45.86344" lon="4.84032">
        <ele>167.90039</ele>
        <time>2026-05-13T10:31:29+02:00</time>
      </trkpt>
      <trkpt lat="45.86349" lon="4.84031">
        <ele>167.90039</ele>
        <time>2026-05-13T10:31:30+02:00</time>
      </trkpt>
      <trkpt lat="45.86355" lon="4.8403">
        <ele>167.90039</ele>
        <time>2026-05-13T10:31:31+02:00</time>
      </trkpt>
      <trkpt lat="45.8636" lon="4.84028">
        <ele>167.90039</ele>
        <time>2026-05-13T10:31:32+02:00</time>
      </trkpt>
      <trkpt lat="45.86366" lon="4.84027">
        <ele>167.90039</ele>
        <time>2026-05-13T10:31:33+02:00</time>
      </trkpt>
      <trkpt lat="45.86371" lon="4.84026">
        <ele>167.90039</ele>
        <time>2026-05-13T10:31:34+02:00</time>
      </trkpt>
      <trkpt lat="45.86377" lon="4.84025">
        <ele>168</ele>
        <time>2026-05-13T10:31:35+02:00</time>
      </trkpt>
      <trkpt lat="45.86382" lon="4.84023">
        <ele>167.5</ele>
        <time>2026-05-13T10:31:36+02:00</time>
      </trkpt>
      <trkpt lat="45.86388" lon="4.84021">
        <ele>167.60059</ele>
        <time>2026-05-13T10:31:37+02:00</time>
      </trkpt>
      <trkpt lat="45.86393" lon="4.8402">
        <ele>167.60059</ele>
        <time>2026-05-13T10:31:38+02:00</time>
      </trkpt>
      <trkpt lat="45.86399" lon="4.84019">
        <ele>167.7002</ele>
        <time>2026-05-13T10:31:39+02:00</time>
      </trkpt>
      <trkpt lat="45.86404" lon="4.84017">
        <ele>167.90039</ele>
        <time>2026-05-13T10:31:40+02:00</time>
      </trkpt>
      <trkpt lat="45.8641" lon="4.84015">
        <ele>167.5</ele>
        <time>2026-05-13T10:31:41+02:00</time>
      </trkpt>
      <trkpt lat="45.86415" lon="4.84014">
        <ele>167.5</ele>
        <time>2026-05-13T10:31:42+02:00</time>
      </trkpt>
      <trkpt lat="45.86421" lon="4.84012">
        <ele>167.40039</ele>
        <time>2026-05-13T10:31:43+02:00</time>
      </trkpt>
      <trkpt lat="45.86426" lon="4.8401">
        <ele>167.2002</ele>
        <time>2026-05-13T10:31:44+02:00</time>
      </trkpt>
      <trkpt lat="45.86431" lon="4.84008">
        <ele>167.2002</ele>
        <time>2026-05-13T10:31:45+02:00</time>
      </trkpt>
      <trkpt lat="45.86437" lon="4.84006">
        <ele>167.2998</ele>
        <time>2026-05-13T10:31:46+02:00</time>
      </trkpt>
      <trkpt lat="45.86442" lon="4.84004">
        <ele>167.40039</ele>
        <time>2026-05-13T10:31:47+02:00</time>
      </trkpt>
      <trkpt lat="45.86447" lon="4.84003">
        <ele>167.5</ele>
        <time>2026-05-13T10:31:48+02:00</time>
      </trkpt>
      <trkpt lat="45.86452" lon="4.84001">
        <ele>167.7998</ele>
        <time>2026-05-13T10:31:49+02:00</time>
      </trkpt>
      <trkpt lat="45.86458" lon="4.83999">
        <ele>167.60059</ele>
        <time>2026-05-13T10:31:50+02:00</time>
      </trkpt>
      <trkpt lat="45.86463" lon="4.83997">
        <ele>167.7998</ele>
        <time>2026-05-13T10:31:51+02:00</time>
      </trkpt>
      <trkpt lat="45.86468" lon="4.83994">
        <ele>168</ele>
        <time>2026-05-13T10:31:52+02:00</time>
      </trkpt>
      <trkpt lat="45.86473" lon="4.83993">
        <ele>168</ele>
        <time>2026-05-13T10:31:53+02:00</time>
      </trkpt>
      <trkpt lat="45.86479" lon="4.83991">
        <ele>168.40039</ele>
        <time>2026-05-13T10:31:54+02:00</time>
      </trkpt>
      <trkpt lat="45.86484" lon="4.8399">
        <ele>167.7998</ele>
        <time>2026-05-13T10:31:55+02:00</time>
      </trkpt>
      <trkpt lat="45.86489" lon="4.83988">
        <ele>168</ele>
        <time>2026-05-13T10:31:56+02:00</time>
      </trkpt>
      <trkpt lat="45.86494" lon="4.83986">
        <ele>168.10059</ele>
        <time>2026-05-13T10:31:57+02:00</time>
      </trkpt>
      <trkpt lat="45.865" lon="4.83984">
        <ele>168.2002</ele>
        <time>2026-05-13T10:31:58+02:00</time>
      </trkpt>
      <trkpt lat="45.86504" lon="4.83983">
        <ele>168.40039</ele>
        <time>2026-05-13T10:31:59+02:00</time>
      </trkpt>
      <trkpt lat="45.86509" lon="4.83981">
        <ele>167.7998</ele>
        <time>2026-05-13T10:32:00+02:00</time>
      </trkpt>
      <trkpt lat="45.86514" lon="4.83979">
        <ele>167.7998</ele>
        <time>2026-05-13T10:32:01+02:00</time>
      </trkpt>
      <trkpt lat="45.8652" lon="4.83978">
        <ele>167.90039</ele>
        <time>2026-05-13T10:32:02+02:00</time>
      </trkpt>
      <trkpt lat="45.86524" lon="4.83976">
        <ele>168</ele>
        <time>2026-05-13T10:32:03+02:00</time>
      </trkpt>
      <trkpt lat="45.86529" lon="4.83975">
        <ele>168.10059</ele>
        <time>2026-05-13T10:32:04+02:00</time>
      </trkpt>
      <trkpt lat="45.86534" lon="4.83973">
        <ele>167.60059</ele>
        <time>2026-05-13T10:32:05+02:00</time>
      </trkpt>
      <trkpt lat="45.8654" lon="4.83972">
        <ele>167.7002</ele>
        <time>2026-05-13T10:32:06+02:00</time>
      </trkpt>
      <trkpt lat="45.86545" lon="4.83971">
        <ele>167.90039</ele>
        <time>2026-05-13T10:32:07+02:00</time>
      </trkpt>
      <trkpt lat="45.8655" lon="4.8397">
        <ele>167.90039</ele>
        <time>2026-05-13T10:32:08+02:00</time>
      </trkpt>
      <trkpt lat="45.86555" lon="4.83968">
        <ele>168.10059</ele>
        <time>2026-05-13T10:32:09+02:00</time>
      </trkpt>
      <trkpt lat="45.86561" lon="4.83967">
        <ele>168.5</ele>
        <time>2026-05-13T10:32:10+02:00</time>
      </trkpt>
      <trkpt lat="45.86566" lon="4.83966">
        <ele>168.7998</ele>
        <time>2026-05-13T10:32:11+02:00</time>
      </trkpt>
      <trkpt lat="45.86571" lon="4.83964">
        <ele>168.40039</ele>
        <time>2026-05-13T10:32:12+02:00</time>
      </trkpt>
      <trkpt lat="45.86577" lon="4.83963">
        <ele>168.5</ele>
        <time>2026-05-13T10:32:13+02:00</time>
      </trkpt>
      <trkpt lat="45.86582" lon="4.83962">
        <ele>168.60059</ele>
        <time>2026-05-13T10:32:14+02:00</time>
      </trkpt>
      <trkpt lat="45.86587" lon="4.83961">
        <ele>168.7998</ele>
        <time>2026-05-13T10:32:15+02:00</time>
      </trkpt>
      <trkpt lat="45.86592" lon="4.8396">
        <ele>168.7998</ele>
        <time>2026-05-13T10:32:16+02:00</time>
      </trkpt>
      <trkpt lat="45.86597" lon="4.8396">
        <ele>169.10059</ele>
        <time>2026-05-13T10:32:17+02:00</time>
      </trkpt>
      <trkpt lat="45.86601" lon="4.83959">
        <ele>169.5</ele>
        <time>2026-05-13T10:32:18+02:00</time>
      </trkpt>
      <trkpt lat="45.86606" lon="4.83956">
        <ele>169</ele>
        <time>2026-05-13T10:32:19+02:00</time>
      </trkpt>
      <trkpt lat="45.8661" lon="4.83953">
        <ele>169</ele>
        <time>2026-05-13T10:32:20+02:00</time>
      </trkpt>
      <trkpt lat="45.86614" lon="4.83949">
        <ele>169.2998</ele>
        <time>2026-05-13T10:32:21+02:00</time>
      </trkpt>
      <trkpt lat="45.86619" lon="4.83945">
        <ele>168.7002</ele>
        <time>2026-05-13T10:32:22+02:00</time>
      </trkpt>
      <trkpt lat="45.86624" lon="4.83942">
        <ele>169</ele>
        <time>2026-05-13T10:32:23+02:00</time>
      </trkpt>
      <trkpt lat="45.8663" lon="4.83938">
        <ele>168.7002</ele>
        <time>2026-05-13T10:32:24+02:00</time>
      </trkpt>
      <trkpt lat="45.86635" lon="4.83934">
        <ele>168.90039</ele>
        <time>2026-05-13T10:32:25+02:00</time>
      </trkpt>
      <trkpt lat="45.8664" lon="4.83929">
        <ele>168.40039</ele>
        <time>2026-05-13T10:32:26+02:00</time>
      </trkpt>
      <trkpt lat="45.86644" lon="4.83923">
        <ele>168.60059</ele>
        <time>2026-05-13T10:32:27+02:00</time>
      </trkpt>
      <trkpt lat="45.86649" lon="4.83918">
        <ele>168.2998</ele>
        <time>2026-05-13T10:32:28+02:00</time>
      </trkpt>
      <trkpt lat="45.86654" lon="4.83912">
        <ele>168.10059</ele>
        <time>2026-05-13T10:32:29+02:00</time>
      </trkpt>
      <trkpt lat="45.86659" lon="4.83906">
        <ele>168.2002</ele>
        <time>2026-05-13T10:32:30+02:00</time>
      </trkpt>
      <trkpt lat="45.86664" lon="4.83901">
        <ele>167.7998</ele>
        <time>2026-05-13T10:32:31+02:00</time>
      </trkpt>
      <trkpt lat="45.86668" lon="4.83896">
        <ele>167.7002</ele>
        <time>2026-05-13T10:32:32+02:00</time>
      </trkpt>
      <trkpt lat="45.86672" lon="4.83891">
        <ele>167.90039</ele>
        <time>2026-05-13T10:32:33+02:00</time>
      </trkpt>
      <trkpt lat="45.86677" lon="4.83886">
        <ele>167.90039</ele>
        <time>2026-05-13T10:32:34+02:00</time>
      </trkpt>
      <trkpt lat="45.86681" lon="4.83881">
        <ele>167.90039</ele>
        <time>2026-05-13T10:32:35+02:00</time>
      </trkpt>
      <trkpt lat="45.86686" lon="4.83875">
        <ele>167.7998</ele>
        <time>2026-05-13T10:32:36+02:00</time>
      </trkpt>
      <trkpt lat="45.86691" lon="4.83869">
        <ele>167.7002</ele>
        <time>2026-05-13T10:32:37+02:00</time>
      </trkpt>
      <trkpt lat="45.86696" lon="4.83864">
        <ele>167.90039</ele>
        <time>2026-05-13T10:32:38+02:00</time>
      </trkpt>
      <trkpt lat="45.86701" lon="4.83859">
        <ele>167.90039</ele>
        <time>2026-05-13T10:32:39+02:00</time>
      </trkpt>
      <trkpt lat="45.86706" lon="4.83853">
        <ele>167.60059</ele>
        <time>2026-05-13T10:32:40+02:00</time>
      </trkpt>
      <trkpt lat="45.8671" lon="4.83848">
        <ele>167.7998</ele>
        <time>2026-05-13T10:32:41+02:00</time>
      </trkpt>
      <trkpt lat="45.86716" lon="4.83842">
        <ele>167.60059</ele>
        <time>2026-05-13T10:32:42+02:00</time>
      </trkpt>
      <trkpt lat="45.86721" lon="4.83837">
        <ele>167.7002</ele>
        <time>2026-05-13T10:32:43+02:00</time>
      </trkpt>
      <trkpt lat="45.86726" lon="4.83833">
        <ele>167.5</ele>
        <time>2026-05-13T10:32:44+02:00</time>
      </trkpt>
      <trkpt lat="45.86731" lon="4.83829">
        <ele>167.60059</ele>
        <time>2026-05-13T10:32:45+02:00</time>
      </trkpt>
      <trkpt lat="45.86736" lon="4.83825">
        <ele>167.40039</ele>
        <time>2026-05-13T10:32:46+02:00</time>
      </trkpt>
      <trkpt lat="45.86741" lon="4.83821">
        <ele>167.5</ele>
        <time>2026-05-13T10:32:47+02:00</time>
      </trkpt>
      <trkpt lat="45.86746" lon="4.83816">
        <ele>167.40039</ele>
        <time>2026-05-13T10:32:48+02:00</time>
      </trkpt>
      <trkpt lat="45.86751" lon="4.83811">
        <ele>167.5</ele>
        <time>2026-05-13T10:32:49+02:00</time>
      </trkpt>
      <trkpt lat="45.86756" lon="4.83806">
        <ele>167.40039</ele>
        <time>2026-05-13T10:32:50+02:00</time>
      </trkpt>
      <trkpt lat="45.8676" lon="4.838">
        <ele>167.2002</ele>
        <time>2026-05-13T10:32:51+02:00</time>
      </trkpt>
      <trkpt lat="45.86765" lon="4.83795">
        <ele>167.2998</ele>
        <time>2026-05-13T10:32:52+02:00</time>
      </trkpt>
      <trkpt lat="45.8677" lon="4.83791">
        <ele>167.2002</ele>
        <time>2026-05-13T10:32:53+02:00</time>
      </trkpt>
      <trkpt lat="45.86775" lon="4.83787">
        <ele>167.2998</ele>
        <time>2026-05-13T10:32:54+02:00</time>
      </trkpt>
      <trkpt lat="45.8678" lon="4.83784">
        <ele>167.2998</ele>
        <time>2026-05-13T10:32:55+02:00</time>
      </trkpt>
      <trkpt lat="45.86786" lon="4.83781">
        <ele>167.40039</ele>
        <time>2026-05-13T10:32:56+02:00</time>
      </trkpt>
      <trkpt lat="45.86791" lon="4.83777">
        <ele>167.60059</ele>
        <time>2026-05-13T10:32:57+02:00</time>
      </trkpt>
      <trkpt lat="45.86797" lon="4.83774">
        <ele>167.40039</ele>
        <time>2026-05-13T10:32:58+02:00</time>
      </trkpt>
      <trkpt lat="45.86802" lon="4.8377">
        <ele>167.5</ele>
        <time>2026-05-13T10:32:59+02:00</time>
      </trkpt>
      <trkpt lat="45.86807" lon="4.83766">
        <ele>167.2998</ele>
        <time>2026-05-13T10:33:00+02:00</time>
      </trkpt>
      <trkpt lat="45.86813" lon="4.83762">
        <ele>167.40039</ele>
        <time>2026-05-13T10:33:01+02:00</time>
      </trkpt>
      <trkpt lat="45.86818" lon="4.83758">
        <ele>167.2002</ele>
        <time>2026-05-13T10:33:02+02:00</time>
      </trkpt>
      <trkpt lat="45.86822" lon="4.83755">
        <ele>167.2998</ele>
        <time>2026-05-13T10:33:03+02:00</time>
      </trkpt>
      <trkpt lat="45.86828" lon="4.83752">
        <ele>167.2998</ele>
        <time>2026-05-13T10:33:04+02:00</time>
      </trkpt>
      <trkpt lat="45.86833" lon="4.83749">
        <ele>167.2002</ele>
        <time>2026-05-13T10:33:05+02:00</time>
      </trkpt>
      <trkpt lat="45.86838" lon="4.83746">
        <ele>167.2998</ele>
        <time>2026-05-13T10:33:06+02:00</time>
      </trkpt>
      <trkpt lat="45.86842" lon="4.83742">
        <ele>167.2998</ele>
        <time>2026-05-13T10:33:07+02:00</time>
      </trkpt>
      <trkpt lat="45.86847" lon="4.83739">
        <ele>167.2002</ele>
        <time>2026-05-13T10:33:08+02:00</time>
      </trkpt>
      <trkpt lat="45.86852" lon="4.83735">
        <ele>167.2998</ele>
        <time>2026-05-13T10:33:09+02:00</time>
      </trkpt>
      <trkpt lat="45.86857" lon="4.83732">
        <ele>167.2002</ele>
        <time>2026-05-13T10:33:10+02:00</time>
      </trkpt>
      <trkpt lat="45.86862" lon="4.83728">
        <ele>167.2002</ele>
        <time>2026-05-13T10:33:11+02:00</time>
      </trkpt>
      <trkpt lat="45.86867" lon="4.83725">
        <ele>167.2002</ele>
        <time>2026-05-13T10:33:12+02:00</time>
      </trkpt>
      <trkpt lat="45.86873" lon="4.83723">
        <ele>167.10059</ele>
        <time>2026-05-13T10:33:13+02:00</time>
      </trkpt>
      <trkpt lat="45.86878" lon="4.83721">
        <ele>167.10059</ele>
        <time>2026-05-13T10:33:14+02:00</time>
      </trkpt>
      <trkpt lat="45.86884" lon="4.8372">
        <ele>167.10059</ele>
        <time>2026-05-13T10:33:15+02:00</time>
      </trkpt>
      <trkpt lat="45.86889" lon="4.83719">
        <ele>167.2002</ele>
        <time>2026-05-13T10:33:16+02:00</time>
      </trkpt>
      <trkpt lat="45.86896" lon="4.83718">
        <ele>167.2002</ele>
        <time>2026-05-13T10:33:17+02:00</time>
      </trkpt>
      <trkpt lat="45.86901" lon="4.83716">
        <ele>167.10059</ele>
        <time>2026-05-13T10:33:18+02:00</time>
      </trkpt>
      <trkpt lat="45.86907" lon="4.83715">
        <ele>167.10059</ele>
        <time>2026-05-13T10:33:19+02:00</time>
      </trkpt>
      <trkpt lat="45.86913" lon="4.83714">
        <ele>167.10059</ele>
        <time>2026-05-13T10:33:20+02:00</time>
      </trkpt>
      <trkpt lat="45.86919" lon="4.83713">
        <ele>167.10059</ele>
        <time>2026-05-13T10:33:21+02:00</time>
      </trkpt>
      <trkpt lat="45.86924" lon="4.83711">
        <ele>167.10059</ele>
        <time>2026-05-13T10:33:22+02:00</time>
      </trkpt>
      <trkpt lat="45.8693" lon="4.8371">
        <ele>167.2002</ele>
        <time>2026-05-13T10:33:23+02:00</time>
      </trkpt>
      <trkpt lat="45.86935" lon="4.83709">
        <ele>167.2002</ele>
        <time>2026-05-13T10:33:24+02:00</time>
      </trkpt>
      <trkpt lat="45.86941" lon="4.83707">
        <ele>167</ele>
        <time>2026-05-13T10:33:25+02:00</time>
      </trkpt>
      <trkpt lat="45.86946" lon="4.83706">
        <ele>167</ele>
        <time>2026-05-13T10:33:26+02:00</time>
      </trkpt>
      <trkpt lat="45.86952" lon="4.83706">
        <ele>167.10059</ele>
        <time>2026-05-13T10:33:27+02:00</time>
      </trkpt>
      <trkpt lat="45.86958" lon="4.83705">
        <ele>167.10059</ele>
        <time>2026-05-13T10:33:28+02:00</time>
      </trkpt>
      <trkpt lat="45.86964" lon="4.83705">
        <ele>167.10059</ele>
        <time>2026-05-13T10:33:29+02:00</time>
      </trkpt>
      <trkpt lat="45.8697" lon="4.83705">
        <ele>167.10059</ele>
        <time>2026-05-13T10:33:30+02:00</time>
      </trkpt>
      <trkpt lat="45.86976" lon="4.83705">
        <ele>167.10059</ele>
        <time>2026-05-13T10:33:31+02:00</time>
      </trkpt>
      <trkpt lat="45.86981" lon="4.83704">
        <ele>167.10059</ele>
        <time>2026-05-13T10:33:32+02:00</time>
      </trkpt>
      <trkpt lat="45.86987" lon="4.83704">
        <ele>167.2002</ele>
        <time>2026-05-13T10:33:33+02:00</time>
      </trkpt>
      <trkpt lat="45.86993" lon="4.83704">
        <ele>167.2002</ele>
        <time>2026-05-13T10:33:34+02:00</time>
      </trkpt>
      <trkpt lat="45.86998" lon="4.83704">
        <ele>167.2002</ele>
        <time>2026-05-13T10:33:35+02:00</time>
      </trkpt>
      <trkpt lat="45.87004" lon="4.83704">
        <ele>167.2002</ele>
        <time>2026-05-13T10:33:36+02:00</time>
      </trkpt>
      <trkpt lat="45.8701" lon="4.83704">
        <ele>167.2998</ele>
        <time>2026-05-13T10:33:37+02:00</time>
      </trkpt>
      <trkpt lat="45.87016" lon="4.83704">
        <ele>167.2998</ele>
        <time>2026-05-13T10:33:38+02:00</time>
      </trkpt>
      <trkpt lat="45.87021" lon="4.83704">
        <ele>167.2998</ele>
        <time>2026-05-13T10:33:39+02:00</time>
      </trkpt>
      <trkpt lat="45.87027" lon="4.83704">
        <ele>167.40039</ele>
        <time>2026-05-13T10:33:40+02:00</time>
      </trkpt>
      <trkpt lat="45.87032" lon="4.83705">
        <ele>167.40039</ele>
        <time>2026-05-13T10:33:41+02:00</time>
      </trkpt>
      <trkpt lat="45.87037" lon="4.83705">
        <ele>167.40039</ele>
        <time>2026-05-13T10:33:42+02:00</time>
      </trkpt>
      <trkpt lat="45.87043" lon="4.83705">
        <ele>167.5</ele>
        <time>2026-05-13T10:33:43+02:00</time>
      </trkpt>
      <trkpt lat="45.87048" lon="4.83705">
        <ele>167.5</ele>
        <time>2026-05-13T10:33:44+02:00</time>
      </trkpt>
      <trkpt lat="45.87053" lon="4.83706">
        <ele>167.60059</ele>
        <time>2026-05-13T10:33:45+02:00</time>
      </trkpt>
      <trkpt lat="45.87058" lon="4.83706">
        <ele>167.60059</ele>
        <time>2026-05-13T10:33:46+02:00</time>
      </trkpt>
      <trkpt lat="45.87063" lon="4.83706">
        <ele>167.60059</ele>
        <time>2026-05-13T10:33:47+02:00</time>
      </trkpt>
      <trkpt lat="45.87068" lon="4.83707">
        <ele>167.60059</ele>
        <time>2026-05-13T10:33:48+02:00</time>
      </trkpt>
      <trkpt lat="45.87072" lon="4.83708">
        <ele>168.10059</ele>
        <time>2026-05-13T10:33:49+02:00</time>
      </trkpt>
      <trkpt lat="45.87077" lon="4.83708">
        <ele>168.2002</ele>
        <time>2026-05-13T10:33:50+02:00</time>
      </trkpt>
      <trkpt lat="45.87082" lon="4.83709">
        <ele>168.2002</ele>
        <time>2026-05-13T10:33:51+02:00</time>
      </trkpt>
      <trkpt lat="45.87086" lon="4.83709">
        <ele>168.2002</ele>
        <time>2026-05-13T10:33:52+02:00</time>
      </trkpt>
      <trkpt lat="45.87092" lon="4.8371">
        <ele>168.2002</ele>
        <time>2026-05-13T10:33:53+02:00</time>
      </trkpt>
      <trkpt lat="45.87097" lon="4.8371">
        <ele>168.2002</ele>
        <time>2026-05-13T10:33:54+02:00</time>
      </trkpt>
      <trkpt lat="45.87101" lon="4.83711">
        <ele>168.2002</ele>
        <time>2026-05-13T10:33:55+02:00</time>
      </trkpt>
      <trkpt lat="45.87106" lon="4.83713">
        <ele>168.2002</ele>
        <time>2026-05-13T10:33:56+02:00</time>
      </trkpt>
      <trkpt lat="45.87113" lon="4.83714">
        <ele>168.10059</ele>
        <time>2026-05-13T10:33:57+02:00</time>
      </trkpt>
      <trkpt lat="45.87119" lon="4.83715">
        <ele>167.90039</ele>
        <time>2026-05-13T10:33:58+02:00</time>
      </trkpt>
      <trkpt lat="45.87125" lon="4.83717">
        <ele>168.2002</ele>
        <time>2026-05-13T10:33:59+02:00</time>
      </trkpt>
      <trkpt lat="45.8713" lon="4.83718">
        <ele>168.2002</ele>
        <time>2026-05-13T10:34:00+02:00</time>
      </trkpt>
      <trkpt lat="45.87136" lon="4.83719">
        <ele>168</ele>
        <time>2026-05-13T10:34:01+02:00</time>
      </trkpt>
      <trkpt lat="45.87142" lon="4.83719">
        <ele>167.7998</ele>
        <time>2026-05-13T10:34:02+02:00</time>
      </trkpt>
      <trkpt lat="45.87147" lon="4.8372">
        <ele>167.7002</ele>
        <time>2026-05-13T10:34:03+02:00</time>
      </trkpt>
      <trkpt lat="45.87153" lon="4.83721">
        <ele>167.60059</ele>
        <time>2026-05-13T10:34:04+02:00</time>
      </trkpt>
      <trkpt lat="45.87159" lon="4.83722">
        <ele>167.60059</ele>
        <time>2026-05-13T10:34:05+02:00</time>
      </trkpt>
      <trkpt lat="45.87164" lon="4.83723">
        <ele>167.5</ele>
        <time>2026-05-13T10:34:06+02:00</time>
      </trkpt>
      <trkpt lat="45.8717" lon="4.83724">
        <ele>167.5</ele>
        <time>2026-05-13T10:34:07+02:00</time>
      </trkpt>
      <trkpt lat="45.87176" lon="4.83725">
        <ele>168</ele>
        <time>2026-05-13T10:34:08+02:00</time>
      </trkpt>
      <trkpt lat="45.87181" lon="4.83726">
        <ele>167.90039</ele>
        <time>2026-05-13T10:34:09+02:00</time>
      </trkpt>
      <trkpt lat="45.87187" lon="4.83727">
        <ele>167.90039</ele>
        <time>2026-05-13T10:34:10+02:00</time>
      </trkpt>
      <trkpt lat="45.87192" lon="4.83727">
        <ele>167.7998</ele>
        <time>2026-05-13T10:34:11+02:00</time>
      </trkpt>
      <trkpt lat="45.87197" lon="4.83728">
        <ele>167.7998</ele>
        <time>2026-05-13T10:34:12+02:00</time>
      </trkpt>
      <trkpt lat="45.87202" lon="4.83729">
        <ele>167.7998</ele>
        <time>2026-05-13T10:34:13+02:00</time>
      </trkpt>
      <trkpt lat="45.87206" lon="4.83729">
        <ele>167.7002</ele>
        <time>2026-05-13T10:34:14+02:00</time>
      </trkpt>
      <trkpt lat="45.87211" lon="4.83729">
        <ele>167.7002</ele>
        <time>2026-05-13T10:34:15+02:00</time>
      </trkpt>
      <trkpt lat="45.87215" lon="4.83729">
        <ele>167.60059</ele>
        <time>2026-05-13T10:34:16+02:00</time>
      </trkpt>
      <trkpt lat="45.8722" lon="4.83729">
        <ele>167.60059</ele>
        <time>2026-05-13T10:34:17+02:00</time>
      </trkpt>
      <trkpt lat="45.87225" lon="4.83728">
        <ele>167.60059</ele>
        <time>2026-05-13T10:34:18+02:00</time>
      </trkpt>
      <trkpt lat="45.87231" lon="4.83727">
        <ele>167.5</ele>
        <time>2026-05-13T10:34:19+02:00</time>
      </trkpt>
      <trkpt lat="45.87237" lon="4.83728">
        <ele>167.40039</ele>
        <time>2026-05-13T10:34:20+02:00</time>
      </trkpt>
      <trkpt lat="45.87243" lon="4.83729">
        <ele>167.2998</ele>
        <time>2026-05-13T10:34:21+02:00</time>
      </trkpt>
      <trkpt lat="45.87249" lon="4.8373">
        <ele>167.10059</ele>
        <time>2026-05-13T10:34:22+02:00</time>
      </trkpt>
      <trkpt lat="45.87254" lon="4.83731">
        <ele>167</ele>
        <time>2026-05-13T10:34:23+02:00</time>
      </trkpt>
      <trkpt lat="45.87261" lon="4.83732">
        <ele>166.90039</ele>
        <time>2026-05-13T10:34:24+02:00</time>
      </trkpt>
      <trkpt lat="45.87266" lon="4.83733">
        <ele>166.90039</ele>
        <time>2026-05-13T10:34:25+02:00</time>
      </trkpt>
      <trkpt lat="45.87271" lon="4.83733">
        <ele>166.90039</ele>
        <time>2026-05-13T10:34:26+02:00</time>
      </trkpt>
      <trkpt lat="45.87276" lon="4.83734">
        <ele>167.10059</ele>
        <time>2026-05-13T10:34:27+02:00</time>
      </trkpt>
      <trkpt lat="45.87281" lon="4.83735">
        <ele>167.10059</ele>
        <time>2026-05-13T10:34:28+02:00</time>
      </trkpt>
      <trkpt lat="45.87286" lon="4.83736">
        <ele>167</ele>
        <time>2026-05-13T10:34:29+02:00</time>
      </trkpt>
      <trkpt lat="45.87291" lon="4.83737">
        <ele>167</ele>
        <time>2026-05-13T10:34:30+02:00</time>
      </trkpt>
      <trkpt lat="45.87296" lon="4.83738">
        <ele>167</ele>
        <time>2026-05-13T10:34:31+02:00</time>
      </trkpt>
      <trkpt lat="45.873" lon="4.83739">
        <ele>167</ele>
        <time>2026-05-13T10:34:32+02:00</time>
      </trkpt>
      <trkpt lat="45.87305" lon="4.83739">
        <ele>167</ele>
        <time>2026-05-13T10:34:33+02:00</time>
      </trkpt>
      <trkpt lat="45.8731" lon="4.83741">
        <ele>167</ele>
        <time>2026-05-13T10:34:34+02:00</time>
      </trkpt>
      <trkpt lat="45.87315" lon="4.83741">
        <ele>167</ele>
        <time>2026-05-13T10:34:35+02:00</time>
      </trkpt>
      <trkpt lat="45.8732" lon="4.83742">
        <ele>167</ele>
        <time>2026-05-13T10:34:36+02:00</time>
      </trkpt>
      <trkpt lat="45.87325" lon="4.83742">
        <ele>167</ele>
        <time>2026-05-13T10:34:37+02:00</time>
      </trkpt>
      <trkpt lat="45.8733" lon="4.83743">
        <ele>167</ele>
        <time>2026-05-13T10:34:38+02:00</time>
      </trkpt>
      <trkpt lat="45.87334" lon="4.83743">
        <ele>167</ele>
        <time>2026-05-13T10:34:39+02:00</time>
      </trkpt>
      <trkpt lat="45.87338" lon="4.83744">
        <ele>167</ele>
        <time>2026-05-13T10:34:40+02:00</time>
      </trkpt>
      <trkpt lat="45.87343" lon="4.83745">
        <ele>167</ele>
        <time>2026-05-13T10:34:41+02:00</time>
      </trkpt>
      <trkpt lat="45.87346" lon="4.83745">
        <ele>167</ele>
        <time>2026-05-13T10:34:42+02:00</time>
      </trkpt>
      <trkpt lat="45.8735" lon="4.83746">
        <ele>167</ele>
        <time>2026-05-13T10:34:43+02:00</time>
      </trkpt>
      <trkpt lat="45.87353" lon="4.83747">
        <ele>166.90039</ele>
        <time>2026-05-13T10:34:44+02:00</time>
      </trkpt>
      <trkpt lat="45.87356" lon="4.83747">
        <ele>166.90039</ele>
        <time>2026-05-13T10:34:45+02:00</time>
      </trkpt>
      <trkpt lat="45.87359" lon="4.83748">
        <ele>166.90039</ele>
        <time>2026-05-13T10:34:46+02:00</time>
      </trkpt>
      <trkpt lat="45.87362" lon="4.83749">
        <ele>166.90039</ele>
        <time>2026-05-13T10:34:47+02:00</time>
      </trkpt>
      <trkpt lat="45.87366" lon="4.8375">
        <ele>166.7998</ele>
        <time>2026-05-13T10:34:48+02:00</time>
      </trkpt>
      <trkpt lat="45.8737" lon="4.83751">
        <ele>167</ele>
        <time>2026-05-13T10:34:49+02:00</time>
      </trkpt>
      <trkpt lat="45.87374" lon="4.83752">
        <ele>167</ele>
        <time>2026-05-13T10:34:50+02:00</time>
      </trkpt>
      <trkpt lat="45.87379" lon="4.83753">
        <ele>167</ele>
        <time>2026-05-13T10:34:51+02:00</time>
      </trkpt>
      <trkpt lat="45.87383" lon="4.83753">
        <ele>167</ele>
        <time>2026-05-13T10:34:52+02:00</time>
      </trkpt>
      <trkpt lat="45.87388" lon="4.83754">
        <ele>167</ele>
        <time>2026-05-13T10:34:53+02:00</time>
      </trkpt>
      <trkpt lat="45.87392" lon="4.83755">
        <ele>167</ele>
        <time>2026-05-13T10:34:54+02:00</time>
      </trkpt>
      <trkpt lat="45.87397" lon="4.83756">
        <ele>167</ele>
        <time>2026-05-13T10:34:55+02:00</time>
      </trkpt>
      <trkpt lat="45.87401" lon="4.83757">
        <ele>167</ele>
        <time>2026-05-13T10:34:56+02:00</time>
      </trkpt>
      <trkpt lat="45.87405" lon="4.83757">
        <ele>167</ele>
        <time>2026-05-13T10:34:57+02:00</time>
      </trkpt>
      <trkpt lat="45.87409" lon="4.83758">
        <ele>167</ele>
        <time>2026-05-13T10:34:58+02:00</time>
      </trkpt>
      <trkpt lat="45.87413" lon="4.83758">
        <ele>167</ele>
        <time>2026-05-13T10:34:59+02:00</time>
      </trkpt>
      <trkpt lat="45.87417" lon="4.83759">
        <ele>167.10059</ele>
        <time>2026-05-13T10:35:00+02:00</time>
      </trkpt>
      <trkpt lat="45.87421" lon="4.83759">
        <ele>167.10059</ele>
        <time>2026-05-13T10:35:01+02:00</time>
      </trkpt>
      <trkpt lat="45.87425" lon="4.8376">
        <ele>167.10059</ele>
        <time>2026-05-13T10:35:02+02:00</time>
      </trkpt>
      <trkpt lat="45.87428" lon="4.8376">
        <ele>167.10059</ele>
        <time>2026-05-13T10:35:03+02:00</time>
      </trkpt>
      <trkpt lat="45.87431" lon="4.83761">
        <ele>167.2002</ele>
        <time>2026-05-13T10:35:04+02:00</time>
      </trkpt>
      <trkpt lat="45.87433" lon="4.8376">
        <ele>167.2002</ele>
        <time>2026-05-13T10:35:05+02:00</time>
      </trkpt>
      <trkpt lat="45.87436" lon="4.8376">
        <ele>167.2002</ele>
        <time>2026-05-13T10:35:06+02:00</time>
      </trkpt>
      <trkpt lat="45.87439" lon="4.8376">
        <ele>167.2002</ele>
        <time>2026-05-13T10:35:07+02:00</time>
      </trkpt>
      <trkpt lat="45.87443" lon="4.83761">
        <ele>167.10059</ele>
        <time>2026-05-13T10:35:08+02:00</time>
      </trkpt>
      <trkpt lat="45.87446" lon="4.83762">
        <ele>167.10059</ele>
        <time>2026-05-13T10:35:09+02:00</time>
      </trkpt>
      <trkpt lat="45.8745" lon="4.83763">
        <ele>167.10059</ele>
        <time>2026-05-13T10:35:10+02:00</time>
      </trkpt>
      <trkpt lat="45.87455" lon="4.83763">
        <ele>167</ele>
        <time>2026-05-13T10:35:11+02:00</time>
      </trkpt>
      <trkpt lat="45.87459" lon="4.83764">
        <ele>167</ele>
        <time>2026-05-13T10:35:12+02:00</time>
      </trkpt>
      <trkpt lat="45.87463" lon="4.83765">
        <ele>167</ele>
        <time>2026-05-13T10:35:13+02:00</time>
      </trkpt>
      <trkpt lat="45.87467" lon="4.83766">
        <ele>167</ele>
        <time>2026-05-13T10:35:14+02:00</time>
      </trkpt>
      <trkpt lat="45.8747" lon="4.83768">
        <ele>167.10059</ele>
        <time>2026-05-13T10:35:15+02:00</time>
      </trkpt>
      <trkpt lat="45.87473" lon="4.83769">
        <ele>167</ele>
        <time>2026-05-13T10:35:16+02:00</time>
      </trkpt>
      <trkpt lat="45.87476" lon="4.8377">
        <ele>167</ele>
        <time>2026-05-13T10:35:17+02:00</time>
      </trkpt>
      <trkpt lat="45.87481" lon="4.83771">
        <ele>167</ele>
        <time>2026-05-13T10:35:18+02:00</time>
      </trkpt>
      <trkpt lat="45.87485" lon="4.83771">
        <ele>167</ele>
        <time>2026-05-13T10:35:19+02:00</time>
      </trkpt>
      <trkpt lat="45.8749" lon="4.83771">
        <ele>167</ele>
        <time>2026-05-13T10:35:20+02:00</time>
      </trkpt>
      <trkpt lat="45.87495" lon="4.83772">
        <ele>167</ele>
        <time>2026-05-13T10:35:21+02:00</time>
      </trkpt>
      <trkpt lat="45.875" lon="4.83773">
        <ele>167</ele>
        <time>2026-05-13T10:35:22+02:00</time>
      </trkpt>
      <trkpt lat="45.87504" lon="4.83773">
        <ele>167</ele>
        <time>2026-05-13T10:35:23+02:00</time>
      </trkpt>
      <trkpt lat="45.87508" lon="4.83774">
        <ele>167</ele>
        <time>2026-05-13T10:35:24+02:00</time>
      </trkpt>
      <trkpt lat="45.8751" lon="4.83774">
        <ele>167</ele>
        <time>2026-05-13T10:35:25+02:00</time>
      </trkpt>
      <trkpt lat="45.87513" lon="4.83775">
        <ele>167</ele>
        <time>2026-05-13T10:35:26+02:00</time>
      </trkpt>
      <trkpt lat="45.87516" lon="4.83775">
        <ele>167</ele>
        <time>2026-05-13T10:35:27+02:00</time>
      </trkpt>
      <trkpt lat="45.87519" lon="4.83776">
        <ele>167.10059</ele>
        <time>2026-05-13T10:35:28+02:00</time>
      </trkpt>
      <trkpt lat="45.87522" lon="4.83778">
        <ele>167.5</ele>
        <time>2026-05-13T10:35:29+02:00</time>
      </trkpt>
      <trkpt lat="45.87526" lon="4.83779">
        <ele>167.5</ele>
        <time>2026-05-13T10:35:30+02:00</time>
      </trkpt>
      <trkpt lat="45.8753" lon="4.8378">
        <ele>167.5</ele>
        <time>2026-05-13T10:35:31+02:00</time>
      </trkpt>
      <trkpt lat="45.87535" lon="4.8378">
        <ele>167.5</ele>
        <time>2026-05-13T10:35:32+02:00</time>
      </trkpt>
      <trkpt lat="45.8754" lon="4.8378">
        <ele>167.60059</ele>
        <time>2026-05-13T10:35:33+02:00</time>
      </trkpt>
      <trkpt lat="45.87544" lon="4.83782">
        <ele>167.60059</ele>
        <time>2026-05-13T10:35:34+02:00</time>
      </trkpt>
      <trkpt lat="45.87549" lon="4.83784">
        <ele>167.60059</ele>
        <time>2026-05-13T10:35:35+02:00</time>
      </trkpt>
      <trkpt lat="45.87552" lon="4.83785">
        <ele>168.10059</ele>
        <time>2026-05-13T10:35:36+02:00</time>
      </trkpt>
      <trkpt lat="45.87557" lon="4.83785">
        <ele>168.10059</ele>
        <time>2026-05-13T10:35:37+02:00</time>
      </trkpt>
      <trkpt lat="45.87561" lon="4.83785">
        <ele>168.10059</ele>
        <time>2026-05-13T10:35:38+02:00</time>
      </trkpt>
      <trkpt lat="45.87565" lon="4.83783">
        <ele>167.60059</ele>
        <time>2026-05-13T10:35:39+02:00</time>
      </trkpt>
      <trkpt lat="45.8757" lon="4.83782">
        <ele>167.60059</ele>
        <time>2026-05-13T10:35:40+02:00</time>
      </trkpt>
      <trkpt lat="45.87575" lon="4.83782">
        <ele>167.60059</ele>
        <time>2026-05-13T10:35:41+02:00</time>
      </trkpt>
      <trkpt lat="45.8758" lon="4.83783">
        <ele>167.5</ele>
        <time>2026-05-13T10:35:42+02:00</time>
      </trkpt>
      <trkpt lat="45.87584" lon="4.83784">
        <ele>167.5</ele>
        <time>2026-05-13T10:35:43+02:00</time>
      </trkpt>
      <trkpt lat="45.87589" lon="4.83784">
        <ele>167.5</ele>
        <time>2026-05-13T10:35:44+02:00</time>
      </trkpt>
      <trkpt lat="45.87594" lon="4.83785">
        <ele>168</ele>
        <time>2026-05-13T10:35:45+02:00</time>
      </trkpt>
      <trkpt lat="45.87598" lon="4.83786">
        <ele>167.90039</ele>
        <time>2026-05-13T10:35:46+02:00</time>
      </trkpt>
      <trkpt lat="45.87603" lon="4.83787">
        <ele>167.90039</ele>
        <time>2026-05-13T10:35:47+02:00</time>
      </trkpt>
      <trkpt lat="45.87607" lon="4.83787">
        <ele>167.90039</ele>
        <time>2026-05-13T10:35:48+02:00</time>
      </trkpt>
      <trkpt lat="45.87611" lon="4.83788">
        <ele>167.90039</ele>
        <time>2026-05-13T10:35:49+02:00</time>
      </trkpt>
      <trkpt lat="45.87616" lon="4.83789">
        <ele>167.7998</ele>
        <time>2026-05-13T10:35:50+02:00</time>
      </trkpt>
      <trkpt lat="45.8762" lon="4.83789">
        <ele>167.7998</ele>
        <time>2026-05-13T10:35:51+02:00</time>
      </trkpt>
      <trkpt lat="45.87625" lon="4.8379">
        <ele>167.7998</ele>
        <time>2026-05-13T10:35:52+02:00</time>
      </trkpt>
      <trkpt lat="45.87629" lon="4.83791">
        <ele>167.7002</ele>
        <time>2026-05-13T10:35:53+02:00</time>
      </trkpt>
      <trkpt lat="45.87634" lon="4.83791">
        <ele>167.60059</ele>
        <time>2026-05-13T10:35:54+02:00</time>
      </trkpt>
      <trkpt lat="45.87638" lon="4.83791">
        <ele>167.60059</ele>
        <time>2026-05-13T10:35:55+02:00</time>
      </trkpt>
      <trkpt lat="45.87642" lon="4.83791">
        <ele>167.60059</ele>
        <time>2026-05-13T10:35:56+02:00</time>
      </trkpt>
      <trkpt lat="45.87646" lon="4.83791">
        <ele>167.5</ele>
        <time>2026-05-13T10:35:57+02:00</time>
      </trkpt>
      <trkpt lat="45.8765" lon="4.83791">
        <ele>167.5</ele>
        <time>2026-05-13T10:35:58+02:00</time>
      </trkpt>
      <trkpt lat="45.87655" lon="4.83791">
        <ele>167.5</ele>
        <time>2026-05-13T10:35:59+02:00</time>
      </trkpt>
      <trkpt lat="45.87659" lon="4.8379">
        <ele>167.5</ele>
        <time>2026-05-13T10:36:00+02:00</time>
      </trkpt>
      <trkpt lat="45.87663" lon="4.8379">
        <ele>167.40039</ele>
        <time>2026-05-13T10:36:01+02:00</time>
      </trkpt>
      <trkpt lat="45.87668" lon="4.8379">
        <ele>167.40039</ele>
        <time>2026-05-13T10:36:02+02:00</time>
      </trkpt>
      <trkpt lat="45.87671" lon="4.8379">
        <ele>167.40039</ele>
        <time>2026-05-13T10:36:03+02:00</time>
      </trkpt>
      <trkpt lat="45.87675" lon="4.8379">
        <ele>167.40039</ele>
        <time>2026-05-13T10:36:04+02:00</time>
      </trkpt>
      <trkpt lat="45.87679" lon="4.83791">
        <ele>167.40039</ele>
        <time>2026-05-13T10:36:05+02:00</time>
      </trkpt>
      <trkpt lat="45.87682" lon="4.83792">
        <ele>167.40039</ele>
        <time>2026-05-13T10:36:06+02:00</time>
      </trkpt>
      <trkpt lat="45.87686" lon="4.83793">
        <ele>167.40039</ele>
        <time>2026-05-13T10:36:07+02:00</time>
      </trkpt>
      <trkpt lat="45.8769" lon="4.83794">
        <ele>167.60059</ele>
        <time>2026-05-13T10:36:08+02:00</time>
      </trkpt>
      <trkpt lat="45.87694" lon="4.83795">
        <ele>167.5</ele>
        <time>2026-05-13T10:36:09+02:00</time>
      </trkpt>
      <trkpt lat="45.87698" lon="4.83795">
        <ele>167.5</ele>
        <time>2026-05-13T10:36:10+02:00</time>
      </trkpt>
      <trkpt lat="45.87702" lon="4.83795">
        <ele>167.5</ele>
        <time>2026-05-13T10:36:11+02:00</time>
      </trkpt>
      <trkpt lat="45.87705" lon="4.83795">
        <ele>167.40039</ele>
        <time>2026-05-13T10:36:12+02:00</time>
      </trkpt>
      <trkpt lat="45.87708" lon="4.83796">
        <ele>167.40039</ele>
        <time>2026-05-13T10:36:13+02:00</time>
      </trkpt>
      <trkpt lat="45.87712" lon="4.83796">
        <ele>167.40039</ele>
        <time>2026-05-13T10:36:14+02:00</time>
      </trkpt>
      <trkpt lat="45.87714" lon="4.83795">
        <ele>167.40039</ele>
        <time>2026-05-13T10:36:15+02:00</time>
      </trkpt>
      <trkpt lat="45.87716" lon="4.83794">
        <ele>167.40039</ele>
        <time>2026-05-13T10:36:16+02:00</time>
      </trkpt>
      <trkpt lat="45.87717" lon="4.83794">
        <ele>167.2998</ele>
        <time>2026-05-13T10:36:17+02:00</time>
      </trkpt>
      <trkpt lat="45.87718" lon="4.83794">
        <ele>167.2998</ele>
        <time>2026-05-13T10:36:18+02:00</time>
      </trkpt>
      <trkpt lat="45.87719" lon="4.83795">
        <ele>167.2998</ele>
        <time>2026-05-13T10:36:19+02:00</time>
      </trkpt>
      <trkpt lat="45.8772" lon="4.83796">
        <ele>167.2998</ele>
        <time>2026-05-13T10:36:20+02:00</time>
      </trkpt>
      <trkpt lat="45.87721" lon="4.83798">
        <ele>167.2998</ele>
        <time>2026-05-13T10:36:21+02:00</time>
      </trkpt>
      <trkpt lat="45.8772" lon="4.83799">
        <ele>167.2998</ele>
        <time>2026-05-13T10:36:22+02:00</time>
      </trkpt>
      <trkpt lat="45.87719" lon="4.838">
        <ele>167.2998</ele>
        <time>2026-05-13T10:36:23+02:00</time>
      </trkpt>
      <trkpt lat="45.87718" lon="4.83801">
        <ele>167.2998</ele>
        <time>2026-05-13T10:36:24+02:00</time>
      </trkpt>
      <trkpt lat="45.87717" lon="4.83811">
        <ele>167.90039</ele>
        <time>2026-05-13T10:36:27+02:00</time>
      </trkpt>
      <trkpt lat="45.87718" lon="4.83814">
        <ele>167.90039</ele>
        <time>2026-05-13T10:36:28+02:00</time>
      </trkpt>
      <trkpt lat="45.87719" lon="4.83817">
        <ele>167.90039</ele>
        <time>2026-05-13T10:36:29+02:00</time>
      </trkpt>
      <trkpt lat="45.87721" lon="4.83819">
        <ele>169.2002</ele>
        <time>2026-05-13T10:36:30+02:00</time>
      </trkpt>
      <trkpt lat="45.87723" lon="4.8382">
        <ele>169.10059</ele>
        <time>2026-05-13T10:36:31+02:00</time>
      </trkpt>
      <trkpt lat="45.87726" lon="4.8382">
        <ele>169.10059</ele>
        <time>2026-05-13T10:36:32+02:00</time>
      </trkpt>
      <trkpt lat="45.87728" lon="4.83819">
        <ele>169.10059</ele>
        <time>2026-05-13T10:36:33+02:00</time>
      </trkpt>
      <trkpt lat="45.87732" lon="4.83818">
        <ele>167.7998</ele>
        <time>2026-05-13T10:36:34+02:00</time>
      </trkpt>
      <trkpt lat="45.87736" lon="4.83817">
        <ele>167.7998</ele>
        <time>2026-05-13T10:36:35+02:00</time>
      </trkpt>
      <trkpt lat="45.8774" lon="4.83817">
        <ele>167.7998</ele>
        <time>2026-05-13T10:36:36+02:00</time>
      </trkpt>
      <trkpt lat="45.87744" lon="4.83816">
        <ele>167.90039</ele>
        <time>2026-05-13T10:36:37+02:00</time>
      </trkpt>
      <trkpt lat="45.87749" lon="4.83814">
        <ele>168.10059</ele>
        <time>2026-05-13T10:36:38+02:00</time>
      </trkpt>
      <trkpt lat="45.87753" lon="4.83814">
        <ele>168.2998</ele>
        <time>2026-05-13T10:36:39+02:00</time>
      </trkpt>
      <trkpt lat="45.87759" lon="4.83814">
        <ele>168.5</ele>
        <time>2026-05-13T10:36:40+02:00</time>
      </trkpt>
      <trkpt lat="45.87764" lon="4.83814">
        <ele>168.5</ele>
        <time>2026-05-13T10:36:41+02:00</time>
      </trkpt>
      <trkpt lat="45.8777" lon="4.83814">
        <ele>169.2002</ele>
        <time>2026-05-13T10:36:42+02:00</time>
      </trkpt>
      <trkpt lat="45.87776" lon="4.83812">
        <ele>169.5</ele>
        <time>2026-05-13T10:36:43+02:00</time>
      </trkpt>
      <trkpt lat="45.87781" lon="4.83811">
        <ele>169.5</ele>
        <time>2026-05-13T10:36:44+02:00</time>
      </trkpt>
      <trkpt lat="45.87786" lon="4.83809">
        <ele>168.90039</ele>
        <time>2026-05-13T10:36:45+02:00</time>
      </trkpt>
      <trkpt lat="45.87791" lon="4.83808">
        <ele>168.7002</ele>
        <time>2026-05-13T10:36:46+02:00</time>
      </trkpt>
      <trkpt lat="45.87797" lon="4.83806">
        <ele>168.5</ele>
        <time>2026-05-13T10:36:47+02:00</time>
      </trkpt>
      <trkpt lat="45.87801" lon="4.83803">
        <ele>168.5</ele>
        <time>2026-05-13T10:36:48+02:00</time>
      </trkpt>
      <trkpt lat="45.87805" lon="4.83799">
        <ele>168.10059</ele>
        <time>2026-05-13T10:36:49+02:00</time>
      </trkpt>
      <trkpt lat="45.87809" lon="4.83794">
        <ele>168.10059</ele>
        <time>2026-05-13T10:36:50+02:00</time>
      </trkpt>
      <trkpt lat="45.87811" lon="4.83788">
        <ele>167.90039</ele>
        <time>2026-05-13T10:36:51+02:00</time>
      </trkpt>
      <trkpt lat="45.87814" lon="4.83782">
        <ele>167.7998</ele>
        <time>2026-05-13T10:36:52+02:00</time>
      </trkpt>
      <trkpt lat="45.87817" lon="4.83775">
        <ele>167.60059</ele>
        <time>2026-05-13T10:36:53+02:00</time>
      </trkpt>
      <trkpt lat="45.8782" lon="4.83769">
        <ele>167.7002</ele>
        <time>2026-05-13T10:36:54+02:00</time>
      </trkpt>
      <trkpt lat="45.87823" lon="4.83763">
        <ele>167.5</ele>
        <time>2026-05-13T10:36:55+02:00</time>
      </trkpt>
      <trkpt lat="45.87827" lon="4.83758">
        <ele>167.2998</ele>
        <time>2026-05-13T10:36:56+02:00</time>
      </trkpt>
      <trkpt lat="45.8783" lon="4.83753">
        <ele>167.2998</ele>
        <time>2026-05-13T10:36:57+02:00</time>
      </trkpt>
      <trkpt lat="45.87835" lon="4.83749">
        <ele>167.2002</ele>
        <time>2026-05-13T10:36:58+02:00</time>
      </trkpt>
      <trkpt lat="45.87839" lon="4.83744">
        <ele>167.2998</ele>
        <time>2026-05-13T10:36:59+02:00</time>
      </trkpt>
      <trkpt lat="45.87843" lon="4.8374">
        <ele>167.2998</ele>
        <time>2026-05-13T10:37:00+02:00</time>
      </trkpt>
      <trkpt lat="45.87848" lon="4.83736">
        <ele>167.40039</ele>
        <time>2026-05-13T10:37:01+02:00</time>
      </trkpt>
      <trkpt lat="45.87852" lon="4.83732">
        <ele>167.2998</ele>
        <time>2026-05-13T10:37:02+02:00</time>
      </trkpt>
      <trkpt lat="45.87856" lon="4.83728">
        <ele>167.40039</ele>
        <time>2026-05-13T10:37:03+02:00</time>
      </trkpt>
      <trkpt lat="45.8786" lon="4.83724">
        <ele>167.2998</ele>
        <time>2026-05-13T10:37:04+02:00</time>
      </trkpt>
      <trkpt lat="45.87864" lon="4.8372">
        <ele>167.2998</ele>
        <time>2026-05-13T10:37:05+02:00</time>
      </trkpt>
      <trkpt lat="45.87868" lon="4.83716">
        <ele>167.2998</ele>
        <time>2026-05-13T10:37:06+02:00</time>
      </trkpt>
      <trkpt lat="45.87872" lon="4.83713">
        <ele>167.60059</ele>
        <time>2026-05-13T10:37:07+02:00</time>
      </trkpt>
      <trkpt lat="45.87876" lon="4.83709">
        <ele>167.60059</ele>
        <time>2026-05-13T10:37:08+02:00</time>
      </trkpt>
      <trkpt lat="45.8788" lon="4.83705">
        <ele>167.7002</ele>
        <time>2026-05-13T10:37:09+02:00</time>
      </trkpt>
      <trkpt lat="45.87884" lon="4.83701">
        <ele>168.2002</ele>
        <time>2026-05-13T10:37:10+02:00</time>
      </trkpt>
      <trkpt lat="45.87887" lon="4.83698">
        <ele>167.90039</ele>
        <time>2026-05-13T10:37:11+02:00</time>
      </trkpt>
      <trkpt lat="45.87892" lon="4.83693">
        <ele>168.2998</ele>
        <time>2026-05-13T10:37:12+02:00</time>
      </trkpt>
      <trkpt lat="45.87895" lon="4.8369">
        <ele>167.90039</ele>
        <time>2026-05-13T10:37:13+02:00</time>
      </trkpt>
      <trkpt lat="45.87899" lon="4.83686">
        <ele>168.2998</ele>
        <time>2026-05-13T10:37:14+02:00</time>
      </trkpt>
      <trkpt lat="45.87903" lon="4.83682">
        <ele>168.7998</ele>
        <time>2026-05-13T10:37:15+02:00</time>
      </trkpt>
      <trkpt lat="45.87907" lon="4.83679">
        <ele>168.5</ele>
        <time>2026-05-13T10:37:16+02:00</time>
      </trkpt>
      <trkpt lat="45.87911" lon="4.83675">
        <ele>169.10059</ele>
        <time>2026-05-13T10:37:17+02:00</time>
      </trkpt>
      <trkpt lat="45.87914" lon="4.83671">
        <ele>169.2002</ele>
        <time>2026-05-13T10:37:18+02:00</time>
      </trkpt>
      <trkpt lat="45.87917" lon="4.83666">
        <ele>169.2002</ele>
        <time>2026-05-13T10:37:19+02:00</time>
      </trkpt>
      <trkpt lat="45.8792" lon="4.83662">
        <ele>169.2002</ele>
        <time>2026-05-13T10:37:20+02:00</time>
      </trkpt>
      <trkpt lat="45.87922" lon="4.83657">
        <ele>169.2002</ele>
        <time>2026-05-13T10:37:21+02:00</time>
      </trkpt>
      <trkpt lat="45.87924" lon="4.83652">
        <ele>168.7998</ele>
        <time>2026-05-13T10:37:22+02:00</time>
      </trkpt>
      <trkpt lat="45.87925" lon="4.83648">
        <ele>168.7998</ele>
        <time>2026-05-13T10:37:23+02:00</time>
      </trkpt>
      <trkpt lat="45.87925" lon="4.83643">
        <ele>168.40039</ele>
        <time>2026-05-13T10:37:24+02:00</time>
      </trkpt>
      <trkpt lat="45.87925" lon="4.83637">
        <ele>168.10059</ele>
        <time>2026-05-13T10:37:25+02:00</time>
      </trkpt>
      <trkpt lat="45.87927" lon="4.83632">
        <ele>168.5</ele>
        <time>2026-05-13T10:37:26+02:00</time>
      </trkpt>
      <trkpt lat="45.8793" lon="4.83626">
        <ele>168.2002</ele>
        <time>2026-05-13T10:37:27+02:00</time>
      </trkpt>
      <trkpt lat="45.87933" lon="4.83621">
        <ele>168.2002</ele>
        <time>2026-05-13T10:37:28+02:00</time>
      </trkpt>
      <trkpt lat="45.87935" lon="4.83617">
        <ele>168.2002</ele>
        <time>2026-05-13T10:37:29+02:00</time>
      </trkpt>
      <trkpt lat="45.87938" lon="4.83612">
        <ele>168.2002</ele>
        <time>2026-05-13T10:37:30+02:00</time>
      </trkpt>
      <trkpt lat="45.8794" lon="4.8361">
        <ele>168.2002</ele>
        <time>2026-05-13T10:37:31+02:00</time>
      </trkpt>
      <trkpt lat="45.87943" lon="4.83609">
        <ele>168.2002</ele>
        <time>2026-05-13T10:37:32+02:00</time>
      </trkpt>
      <trkpt lat="45.87945" lon="4.83607">
        <ele>168.7002</ele>
        <time>2026-05-13T10:37:33+02:00</time>
      </trkpt>
      <trkpt lat="45.87948" lon="4.83605">
        <ele>168.7002</ele>
        <time>2026-05-13T10:37:34+02:00</time>
      </trkpt>
      <trkpt lat="45.8795" lon="4.83601">
        <ele>168.90039</ele>
        <time>2026-05-13T10:37:35+02:00</time>
      </trkpt>
      <trkpt lat="45.87953" lon="4.83596">
        <ele>168.90039</ele>
        <time>2026-05-13T10:37:36+02:00</time>
      </trkpt>
      <trkpt lat="45.87955" lon="4.8359">
        <ele>168.5</ele>
        <time>2026-05-13T10:37:37+02:00</time>
      </trkpt>
      <trkpt lat="45.87958" lon="4.83583">
        <ele>168.60059</ele>
        <time>2026-05-13T10:37:38+02:00</time>
      </trkpt>
      <trkpt lat="45.8796" lon="4.83576">
        <ele>168.10059</ele>
        <time>2026-05-13T10:37:39+02:00</time>
      </trkpt>
      <trkpt lat="45.87962" lon="4.83568">
        <ele>168.40039</ele>
        <time>2026-05-13T10:37:40+02:00</time>
      </trkpt>
      <trkpt lat="45.87964" lon="4.83561">
        <ele>168.2002</ele>
        <time>2026-05-13T10:37:41+02:00</time>
      </trkpt>
      <trkpt lat="45.87966" lon="4.83554">
        <ele>168.2002</ele>
        <time>2026-05-13T10:37:42+02:00</time>
      </trkpt>
      <trkpt lat="45.87968" lon="4.83547">
        <ele>168.7998</ele>
        <time>2026-05-13T10:37:43+02:00</time>
      </trkpt>
      <trkpt lat="45.8797" lon="4.83542">
        <ele>168.60059</ele>
        <time>2026-05-13T10:37:44+02:00</time>
      </trkpt>
      <trkpt lat="45.87972" lon="4.83535">
        <ele>168.2998</ele>
        <time>2026-05-13T10:37:45+02:00</time>
      </trkpt>
      <trkpt lat="45.87974" lon="4.83529">
        <ele>168.90039</ele>
        <time>2026-05-13T10:37:46+02:00</time>
      </trkpt>
      <trkpt lat="45.87975" lon="4.83522">
        <ele>168.60059</ele>
        <time>2026-05-13T10:37:47+02:00</time>
      </trkpt>
      <trkpt lat="45.87978" lon="4.83515">
        <ele>168.2002</ele>
        <time>2026-05-13T10:37:48+02:00</time>
      </trkpt>
      <trkpt lat="45.87979" lon="4.83508">
        <ele>167.7998</ele>
        <time>2026-05-13T10:37:49+02:00</time>
      </trkpt>
      <trkpt lat="45.87982" lon="4.83501">
        <ele>168.2998</ele>
        <time>2026-05-13T10:37:50+02:00</time>
      </trkpt>
      <trkpt lat="45.87983" lon="4.83494">
        <ele>168.2998</ele>
        <time>2026-05-13T10:37:51+02:00</time>
      </trkpt>
      <trkpt lat="45.87985" lon="4.83487">
        <ele>168.10059</ele>
        <time>2026-05-13T10:37:52+02:00</time>
      </trkpt>
      <trkpt lat="45.87987" lon="4.83479">
        <ele>168.7998</ele>
        <time>2026-05-13T10:37:53+02:00</time>
      </trkpt>
      <trkpt lat="45.87988" lon="4.83472">
        <ele>168.60059</ele>
        <time>2026-05-13T10:37:54+02:00</time>
      </trkpt>
      <trkpt lat="45.8799" lon="4.83465">
        <ele>168.2998</ele>
        <time>2026-05-13T10:37:55+02:00</time>
      </trkpt>
      <trkpt lat="45.87992" lon="4.83458">
        <ele>168.60059</ele>
        <time>2026-05-13T10:37:56+02:00</time>
      </trkpt>
      <trkpt lat="45.87993" lon="4.83451">
        <ele>168.60059</ele>
        <time>2026-05-13T10:37:57+02:00</time>
      </trkpt>
      <trkpt lat="45.87995" lon="4.83444">
        <ele>168.2002</ele>
        <time>2026-05-13T10:37:58+02:00</time>
      </trkpt>
      <trkpt lat="45.87996" lon="4.83437">
        <ele>167.7998</ele>
        <time>2026-05-13T10:37:59+02:00</time>
      </trkpt>
      <trkpt lat="45.87998" lon="4.8343">
        <ele>168.10059</ele>
        <time>2026-05-13T10:38:00+02:00</time>
      </trkpt>
      <trkpt lat="45.88" lon="4.83424">
        <ele>168</ele>
        <time>2026-05-13T10:38:01+02:00</time>
      </trkpt>
      <trkpt lat="45.88002" lon="4.83417">
        <ele>168</ele>
        <time>2026-05-13T10:38:02+02:00</time>
      </trkpt>
      <trkpt lat="45.88004" lon="4.8341">
        <ele>168.60059</ele>
        <time>2026-05-13T10:38:03+02:00</time>
      </trkpt>
      <trkpt lat="45.88005" lon="4.83403">
        <ele>168.5</ele>
        <time>2026-05-13T10:38:04+02:00</time>
      </trkpt>
      <trkpt lat="45.88007" lon="4.83395">
        <ele>168.2998</ele>
        <time>2026-05-13T10:38:05+02:00</time>
      </trkpt>
      <trkpt lat="45.88009" lon="4.83388">
        <ele>168.2002</ele>
        <time>2026-05-13T10:38:06+02:00</time>
      </trkpt>
      <trkpt lat="45.8801" lon="4.8338">
        <ele>168.7002</ele>
        <time>2026-05-13T10:38:07+02:00</time>
      </trkpt>
      <trkpt lat="45.88011" lon="4.83372">
        <ele>168.5</ele>
        <time>2026-05-13T10:38:08+02:00</time>
      </trkpt>
      <trkpt lat="45.88012" lon="4.83365">
        <ele>168.5</ele>
        <time>2026-05-13T10:38:09+02:00</time>
      </trkpt>
      <trkpt lat="45.88014" lon="4.83357">
        <ele>168.2998</ele>
        <time>2026-05-13T10:38:10+02:00</time>
      </trkpt>
      <trkpt lat="45.88015" lon="4.83349">
        <ele>168</ele>
        <time>2026-05-13T10:38:11+02:00</time>
      </trkpt>
      <trkpt lat="45.88015" lon="4.83341">
        <ele>167.60059</ele>
        <time>2026-05-13T10:38:12+02:00</time>
      </trkpt>
      <trkpt lat="45.88016" lon="4.83334">
        <ele>167.90039</ele>
        <time>2026-05-13T10:38:13+02:00</time>
      </trkpt>
      <trkpt lat="45.88017" lon="4.83326">
        <ele>167.7998</ele>
        <time>2026-05-13T10:38:14+02:00</time>
      </trkpt>
      <trkpt lat="45.88018" lon="4.83319">
        <ele>167.7998</ele>
        <time>2026-05-13T10:38:15+02:00</time>
      </trkpt>
      <trkpt lat="45.88019" lon="4.83311">
        <ele>167.7002</ele>
        <time>2026-05-13T10:38:16+02:00</time>
      </trkpt>
      <trkpt lat="45.88022" lon="4.83288">
        <ele>168.10059</ele>
        <time>2026-05-13T10:38:17+02:00</time>
      </trkpt>
      <trkpt lat="45.88023" lon="4.8328">
        <ele>168</ele>
        <time>2026-05-13T10:38:18+02:00</time>
      </trkpt>
      <trkpt lat="45.88024" lon="4.83273">
        <ele>168</ele>
        <time>2026-05-13T10:38:19+02:00</time>
      </trkpt>
      <trkpt lat="45.88024" lon="4.83265">
        <ele>167.7998</ele>
        <time>2026-05-13T10:38:20+02:00</time>
      </trkpt>
      <trkpt lat="45.88025" lon="4.83258">
        <ele>167.60059</ele>
        <time>2026-05-13T10:38:21+02:00</time>
      </trkpt>
      <trkpt lat="45.88025" lon="4.8325">
        <ele>167.2998</ele>
        <time>2026-05-13T10:38:22+02:00</time>
      </trkpt>
      <trkpt lat="45.88027" lon="4.83242">
        <ele>167</ele>
        <time>2026-05-13T10:38:23+02:00</time>
      </trkpt>
      <trkpt lat="45.88027" lon="4.83234">
        <ele>166.90039</ele>
        <time>2026-05-13T10:38:24+02:00</time>
      </trkpt>
      <trkpt lat="45.88028" lon="4.83227">
        <ele>167.2002</ele>
        <time>2026-05-13T10:38:25+02:00</time>
      </trkpt>
      <trkpt lat="45.88029" lon="4.83219">
        <ele>167.2002</ele>
        <time>2026-05-13T10:38:26+02:00</time>
      </trkpt>
      <trkpt lat="45.8803" lon="4.83211">
        <ele>167.2002</ele>
        <time>2026-05-13T10:38:27+02:00</time>
      </trkpt>
      <trkpt lat="45.88031" lon="4.83203">
        <ele>167.2002</ele>
        <time>2026-05-13T10:38:28+02:00</time>
      </trkpt>
      <trkpt lat="45.88031" lon="4.83196">
        <ele>167.2002</ele>
        <time>2026-05-13T10:38:29+02:00</time>
      </trkpt>
      <trkpt lat="45.88032" lon="4.83189">
        <ele>167.2002</ele>
        <time>2026-05-13T10:38:30+02:00</time>
      </trkpt>
      <trkpt lat="45.88033" lon="4.83182">
        <ele>167.2002</ele>
        <time>2026-05-13T10:38:31+02:00</time>
      </trkpt>
      <trkpt lat="45.88034" lon="4.83175">
        <ele>167.7002</ele>
        <time>2026-05-13T10:38:32+02:00</time>
      </trkpt>
      <trkpt lat="45.88035" lon="4.83168">
        <ele>167.7002</ele>
        <time>2026-05-13T10:38:33+02:00</time>
      </trkpt>
      <trkpt lat="45.88035" lon="4.83161">
        <ele>167.7002</ele>
        <time>2026-05-13T10:38:34+02:00</time>
      </trkpt>
      <trkpt lat="45.88036" lon="4.83153">
        <ele>167.7002</ele>
        <time>2026-05-13T10:38:35+02:00</time>
      </trkpt>
      <trkpt lat="45.88038" lon="4.83146">
        <ele>167.7002</ele>
        <time>2026-05-13T10:38:36+02:00</time>
      </trkpt>
      <trkpt lat="45.88038" lon="4.83138">
        <ele>167.60059</ele>
        <time>2026-05-13T10:38:37+02:00</time>
      </trkpt>
      <trkpt lat="45.8804" lon="4.83131">
        <ele>167.7998</ele>
        <time>2026-05-13T10:38:38+02:00</time>
      </trkpt>
      <trkpt lat="45.8804" lon="4.83123">
        <ele>167.5</ele>
        <time>2026-05-13T10:38:39+02:00</time>
      </trkpt>
      <trkpt lat="45.88041" lon="4.83116">
        <ele>167.5</ele>
        <time>2026-05-13T10:38:40+02:00</time>
      </trkpt>
      <trkpt lat="45.88042" lon="4.83108">
        <ele>167.2002</ele>
        <time>2026-05-13T10:38:41+02:00</time>
      </trkpt>
      <trkpt lat="45.88043" lon="4.831">
        <ele>166.90039</ele>
        <time>2026-05-13T10:38:42+02:00</time>
      </trkpt>
      <trkpt lat="45.88044" lon="4.83093">
        <ele>166.90039</ele>
        <time>2026-05-13T10:38:43+02:00</time>
      </trkpt>
      <trkpt lat="45.88045" lon="4.83085">
        <ele>167.2998</ele>
        <time>2026-05-13T10:38:44+02:00</time>
      </trkpt>
      <trkpt lat="45.88046" lon="4.83078">
        <ele>167.2998</ele>
        <time>2026-05-13T10:38:45+02:00</time>
      </trkpt>
      <trkpt lat="45.88047" lon="4.8307">
        <ele>167.2002</ele>
        <time>2026-05-13T10:38:46+02:00</time>
      </trkpt>
      <trkpt lat="45.88048" lon="4.83063">
        <ele>167.2002</ele>
        <time>2026-05-13T10:38:47+02:00</time>
      </trkpt>
      <trkpt lat="45.88049" lon="4.83055">
        <ele>167.2002</ele>
        <time>2026-05-13T10:38:48+02:00</time>
      </trkpt>
      <trkpt lat="45.88049" lon="4.83048">
        <ele>167.2002</ele>
        <time>2026-05-13T10:38:49+02:00</time>
      </trkpt>
      <trkpt lat="45.88051" lon="4.8304">
        <ele>167.2002</ele>
        <time>2026-05-13T10:38:50+02:00</time>
      </trkpt>
      <trkpt lat="45.88052" lon="4.83032">
        <ele>167.5</ele>
        <time>2026-05-13T10:38:51+02:00</time>
      </trkpt>
      <trkpt lat="45.88052" lon="4.83024">
        <ele>167.2998</ele>
        <time>2026-05-13T10:38:52+02:00</time>
      </trkpt>
      <trkpt lat="45.88053" lon="4.83016">
        <ele>167</ele>
        <time>2026-05-13T10:38:53+02:00</time>
      </trkpt>
      <trkpt lat="45.88054" lon="4.83008">
        <ele>166.7998</ele>
        <time>2026-05-13T10:38:54+02:00</time>
      </trkpt>
      <trkpt lat="45.88055" lon="4.83001">
        <ele>166.7998</ele>
        <time>2026-05-13T10:38:55+02:00</time>
      </trkpt>
      <trkpt lat="45.88056" lon="4.82993">
        <ele>166.7998</ele>
        <time>2026-05-13T10:38:56+02:00</time>
      </trkpt>
      <trkpt lat="45.88056" lon="4.82986">
        <ele>166.7998</ele>
        <time>2026-05-13T10:38:57+02:00</time>
      </trkpt>
      <trkpt lat="45.88057" lon="4.82978">
        <ele>166.90039</ele>
        <time>2026-05-13T10:38:58+02:00</time>
      </trkpt>
      <trkpt lat="45.88058" lon="4.82971">
        <ele>166.90039</ele>
        <time>2026-05-13T10:38:59+02:00</time>
      </trkpt>
      <trkpt lat="45.88059" lon="4.82963">
        <ele>166.90039</ele>
        <time>2026-05-13T10:39:00+02:00</time>
      </trkpt>
      <trkpt lat="45.8806" lon="4.82955">
        <ele>166.90039</ele>
        <time>2026-05-13T10:39:01+02:00</time>
      </trkpt>
      <trkpt lat="45.88061" lon="4.82947">
        <ele>166.90039</ele>
        <time>2026-05-13T10:39:02+02:00</time>
      </trkpt>
      <trkpt lat="45.88062" lon="4.8294">
        <ele>166.90039</ele>
        <time>2026-05-13T10:39:03+02:00</time>
      </trkpt>
      <trkpt lat="45.88063" lon="4.82932">
        <ele>167.10059</ele>
        <time>2026-05-13T10:39:04+02:00</time>
      </trkpt>
      <trkpt lat="45.88064" lon="4.82924">
        <ele>166.90039</ele>
        <time>2026-05-13T10:39:05+02:00</time>
      </trkpt>
      <trkpt lat="45.88065" lon="4.82917">
        <ele>166.7998</ele>
        <time>2026-05-13T10:39:06+02:00</time>
      </trkpt>
      <trkpt lat="45.88066" lon="4.82909">
        <ele>166.7002</ele>
        <time>2026-05-13T10:39:07+02:00</time>
      </trkpt>
      <trkpt lat="45.88067" lon="4.82901">
        <ele>166.7002</ele>
        <time>2026-05-13T10:39:08+02:00</time>
      </trkpt>
      <trkpt lat="45.88068" lon="4.82894">
        <ele>166.7998</ele>
        <time>2026-05-13T10:39:09+02:00</time>
      </trkpt>
      <trkpt lat="45.8807" lon="4.82886">
        <ele>166.7998</ele>
        <time>2026-05-13T10:39:10+02:00</time>
      </trkpt>
      <trkpt lat="45.88071" lon="4.82879">
        <ele>166.7998</ele>
        <time>2026-05-13T10:39:11+02:00</time>
      </trkpt>
      <trkpt lat="45.88072" lon="4.82871">
        <ele>166.7998</ele>
        <time>2026-05-13T10:39:12+02:00</time>
      </trkpt>
      <trkpt lat="45.88073" lon="4.82864">
        <ele>166.7998</ele>
        <time>2026-05-13T10:39:13+02:00</time>
      </trkpt>
      <trkpt lat="45.88075" lon="4.82856">
        <ele>166.90039</ele>
        <time>2026-05-13T10:39:14+02:00</time>
      </trkpt>
      <trkpt lat="45.88076" lon="4.82849">
        <ele>166.90039</ele>
        <time>2026-05-13T10:39:15+02:00</time>
      </trkpt>
      <trkpt lat="45.88077" lon="4.82842">
        <ele>166.90039</ele>
        <time>2026-05-13T10:39:16+02:00</time>
      </trkpt>
      <trkpt lat="45.88078" lon="4.82834">
        <ele>166.90039</ele>
        <time>2026-05-13T10:39:17+02:00</time>
      </trkpt>
      <trkpt lat="45.88079" lon="4.82827">
        <ele>166.7998</ele>
        <time>2026-05-13T10:39:18+02:00</time>
      </trkpt>
      <trkpt lat="45.8808" lon="4.8282">
        <ele>166.7998</ele>
        <time>2026-05-13T10:39:19+02:00</time>
      </trkpt>
      <trkpt lat="45.88081" lon="4.82813">
        <ele>166.7998</ele>
        <time>2026-05-13T10:39:20+02:00</time>
      </trkpt>
      <trkpt lat="45.88082" lon="4.82806">
        <ele>166.7998</ele>
        <time>2026-05-13T10:39:21+02:00</time>
      </trkpt>
      <trkpt lat="45.88083" lon="4.82799">
        <ele>166.7998</ele>
        <time>2026-05-13T10:39:22+02:00</time>
      </trkpt>
      <trkpt lat="45.88084" lon="4.82793">
        <ele>166.7998</ele>
        <time>2026-05-13T10:39:23+02:00</time>
      </trkpt>
      <trkpt lat="45.88085" lon="4.82786">
        <ele>166.7998</ele>
        <time>2026-05-13T10:39:24+02:00</time>
      </trkpt>
      <trkpt lat="45.88086" lon="4.82779">
        <ele>166.7998</ele>
        <time>2026-05-13T10:39:25+02:00</time>
      </trkpt>
      <trkpt lat="45.88087" lon="4.82772">
        <ele>166.7998</ele>
        <time>2026-05-13T10:39:26+02:00</time>
      </trkpt>
      <trkpt lat="45.88088" lon="4.82765">
        <ele>166.7998</ele>
        <time>2026-05-13T10:39:27+02:00</time>
      </trkpt>
      <trkpt lat="45.88088" lon="4.82759">
        <ele>166.7998</ele>
        <time>2026-05-13T10:39:28+02:00</time>
      </trkpt>
      <trkpt lat="45.88089" lon="4.82753">
        <ele>166.7998</ele>
        <time>2026-05-13T10:39:29+02:00</time>
      </trkpt>
      <trkpt lat="45.8809" lon="4.82747">
        <ele>166.7998</ele>
        <time>2026-05-13T10:39:30+02:00</time>
      </trkpt>
      <trkpt lat="45.88091" lon="4.82742">
        <ele>166.7998</ele>
        <time>2026-05-13T10:39:31+02:00</time>
      </trkpt>
      <trkpt lat="45.88092" lon="4.82735">
        <ele>166.7998</ele>
        <time>2026-05-13T10:39:32+02:00</time>
      </trkpt>
      <trkpt lat="45.88093" lon="4.82729">
        <ele>166.7998</ele>
        <time>2026-05-13T10:39:33+02:00</time>
      </trkpt>
      <trkpt lat="45.88094" lon="4.82722">
        <ele>166.7998</ele>
        <time>2026-05-13T10:39:34+02:00</time>
      </trkpt>
      <trkpt lat="45.88096" lon="4.82715">
        <ele>166.7998</ele>
        <time>2026-05-13T10:39:35+02:00</time>
      </trkpt>
      <trkpt lat="45.88097" lon="4.82708">
        <ele>166.7998</ele>
        <time>2026-05-13T10:39:36+02:00</time>
      </trkpt>
      <trkpt lat="45.88099" lon="4.82701">
        <ele>166.7002</ele>
        <time>2026-05-13T10:39:37+02:00</time>
      </trkpt>
      <trkpt lat="45.88101" lon="4.82694">
        <ele>166.7002</ele>
        <time>2026-05-13T10:39:38+02:00</time>
      </trkpt>
      <trkpt lat="45.88102" lon="4.82687">
        <ele>166.7002</ele>
        <time>2026-05-13T10:39:39+02:00</time>
      </trkpt>
      <trkpt lat="45.88104" lon="4.8268">
        <ele>166.7002</ele>
        <time>2026-05-13T10:39:40+02:00</time>
      </trkpt>
      <trkpt lat="45.88106" lon="4.82673">
        <ele>166.7998</ele>
        <time>2026-05-13T10:39:41+02:00</time>
      </trkpt>
      <trkpt lat="45.88107" lon="4.82666">
        <ele>166.7998</ele>
        <time>2026-05-13T10:39:42+02:00</time>
      </trkpt>
      <trkpt lat="45.88109" lon="4.8266">
        <ele>166.7998</ele>
        <time>2026-05-13T10:39:43+02:00</time>
      </trkpt>
      <trkpt lat="45.88111" lon="4.82653">
        <ele>166.7998</ele>
        <time>2026-05-13T10:39:44+02:00</time>
      </trkpt>
      <trkpt lat="45.88112" lon="4.82646">
        <ele>166.7998</ele>
        <time>2026-05-13T10:39:45+02:00</time>
      </trkpt>
      <trkpt lat="45.88114" lon="4.82639">
        <ele>166.7002</ele>
        <time>2026-05-13T10:39:46+02:00</time>
      </trkpt>
      <trkpt lat="45.88116" lon="4.82632">
        <ele>166.7002</ele>
        <time>2026-05-13T10:39:47+02:00</time>
      </trkpt>
      <trkpt lat="45.88118" lon="4.82625">
        <ele>166.7002</ele>
        <time>2026-05-13T10:39:48+02:00</time>
      </trkpt>
      <trkpt lat="45.88119" lon="4.82618">
        <ele>166.7002</ele>
        <time>2026-05-13T10:39:49+02:00</time>
      </trkpt>
      <trkpt lat="45.88121" lon="4.82611">
        <ele>166.7002</ele>
        <time>2026-05-13T10:39:50+02:00</time>
      </trkpt>
      <trkpt lat="45.88123" lon="4.82604">
        <ele>166.7998</ele>
        <time>2026-05-13T10:39:51+02:00</time>
      </trkpt>
      <trkpt lat="45.88125" lon="4.82597">
        <ele>166.7998</ele>
        <time>2026-05-13T10:39:52+02:00</time>
      </trkpt>
      <trkpt lat="45.88126" lon="4.8259">
        <ele>166.7998</ele>
        <time>2026-05-13T10:39:53+02:00</time>
      </trkpt>
      <trkpt lat="45.88128" lon="4.82583">
        <ele>166.7998</ele>
        <time>2026-05-13T10:39:54+02:00</time>
      </trkpt>
      <trkpt lat="45.88131" lon="4.82576">
        <ele>167.2002</ele>
        <time>2026-05-13T10:39:55+02:00</time>
      </trkpt>
      <trkpt lat="45.88133" lon="4.82569">
        <ele>167.2002</ele>
        <time>2026-05-13T10:39:56+02:00</time>
      </trkpt>
      <trkpt lat="45.88135" lon="4.82562">
        <ele>167.5</ele>
        <time>2026-05-13T10:39:57+02:00</time>
      </trkpt>
      <trkpt lat="45.88137" lon="4.82555">
        <ele>167</ele>
        <time>2026-05-13T10:39:58+02:00</time>
      </trkpt>
      <trkpt lat="45.88139" lon="4.82548">
        <ele>166.7002</ele>
        <time>2026-05-13T10:39:59+02:00</time>
      </trkpt>
      <trkpt lat="45.8814" lon="4.82541">
        <ele>166.7002</ele>
        <time>2026-05-13T10:40:00+02:00</time>
      </trkpt>
      <trkpt lat="45.88142" lon="4.82534">
        <ele>166.7998</ele>
        <time>2026-05-13T10:40:01+02:00</time>
      </trkpt>
      <trkpt lat="45.88144" lon="4.82527">
        <ele>166.7998</ele>
        <time>2026-05-13T10:40:02+02:00</time>
      </trkpt>
      <trkpt lat="45.88146" lon="4.8252">
        <ele>166.7998</ele>
        <time>2026-05-13T10:40:03+02:00</time>
      </trkpt>
      <trkpt lat="45.88147" lon="4.82513">
        <ele>166.90039</ele>
        <time>2026-05-13T10:40:04+02:00</time>
      </trkpt>
      <trkpt lat="45.88149" lon="4.82506">
        <ele>166.90039</ele>
        <time>2026-05-13T10:40:05+02:00</time>
      </trkpt>
      <trkpt lat="45.88151" lon="4.82498">
        <ele>166.90039</ele>
        <time>2026-05-13T10:40:06+02:00</time>
      </trkpt>
      <trkpt lat="45.88153" lon="4.82491">
        <ele>166.90039</ele>
        <time>2026-05-13T10:40:07+02:00</time>
      </trkpt>
      <trkpt lat="45.88155" lon="4.82484">
        <ele>166.7998</ele>
        <time>2026-05-13T10:40:08+02:00</time>
      </trkpt>
      <trkpt lat="45.88156" lon="4.82477">
        <ele>166.7002</ele>
        <time>2026-05-13T10:40:09+02:00</time>
      </trkpt>
      <trkpt lat="45.88158" lon="4.8247">
        <ele>166.7002</ele>
        <time>2026-05-13T10:40:10+02:00</time>
      </trkpt>
      <trkpt lat="45.8816" lon="4.82463">
        <ele>166.7002</ele>
        <time>2026-05-13T10:40:11+02:00</time>
      </trkpt>
      <trkpt lat="45.88162" lon="4.82456">
        <ele>166.7002</ele>
        <time>2026-05-13T10:40:12+02:00</time>
      </trkpt>
      <trkpt lat="45.88164" lon="4.82449">
        <ele>166.7002</ele>
        <time>2026-05-13T10:40:13+02:00</time>
      </trkpt>
      <trkpt lat="45.88165" lon="4.82442">
        <ele>166.90039</ele>
        <time>2026-05-13T10:40:14+02:00</time>
      </trkpt>
      <trkpt lat="45.88167" lon="4.82434">
        <ele>167</ele>
        <time>2026-05-13T10:40:15+02:00</time>
      </trkpt>
      <trkpt lat="45.88169" lon="4.82427">
        <ele>167.10059</ele>
        <time>2026-05-13T10:40:16+02:00</time>
      </trkpt>
      <trkpt lat="45.88171" lon="4.8242">
        <ele>168.10059</ele>
        <time>2026-05-13T10:40:17+02:00</time>
      </trkpt>
      <trkpt lat="45.88173" lon="4.82413">
        <ele>168.40039</ele>
        <time>2026-05-13T10:40:18+02:00</time>
      </trkpt>
      <trkpt lat="45.88175" lon="4.82406">
        <ele>168.2998</ele>
        <time>2026-05-13T10:40:19+02:00</time>
      </trkpt>
      <trkpt lat="45.88176" lon="4.82398">
        <ele>167.90039</ele>
        <time>2026-05-13T10:40:20+02:00</time>
      </trkpt>
      <trkpt lat="45.88178" lon="4.82391">
        <ele>167.7002</ele>
        <time>2026-05-13T10:40:21+02:00</time>
      </trkpt>
      <trkpt lat="45.8818" lon="4.82384">
        <ele>166.7998</ele>
        <time>2026-05-13T10:40:22+02:00</time>
      </trkpt>
      <trkpt lat="45.88182" lon="4.82376">
        <ele>166.7002</ele>
        <time>2026-05-13T10:40:23+02:00</time>
      </trkpt>
      <trkpt lat="45.88184" lon="4.82369">
        <ele>166.90039</ele>
        <time>2026-05-13T10:40:24+02:00</time>
      </trkpt>
      <trkpt lat="45.88186" lon="4.82361">
        <ele>166.90039</ele>
        <time>2026-05-13T10:40:25+02:00</time>
      </trkpt>
      <trkpt lat="45.88188" lon="4.82354">
        <ele>166.90039</ele>
        <time>2026-05-13T10:40:26+02:00</time>
      </trkpt>
      <trkpt lat="45.88189" lon="4.82347">
        <ele>167.2002</ele>
        <time>2026-05-13T10:40:27+02:00</time>
      </trkpt>
      <trkpt lat="45.88191" lon="4.8234">
        <ele>167.2002</ele>
        <time>2026-05-13T10:40:28+02:00</time>
      </trkpt>
      <trkpt lat="45.88193" lon="4.82332">
        <ele>167.40039</ele>
        <time>2026-05-13T10:40:29+02:00</time>
      </trkpt>
      <trkpt lat="45.88195" lon="4.82325">
        <ele>168.2002</ele>
        <time>2026-05-13T10:40:30+02:00</time>
      </trkpt>
      <trkpt lat="45.88197" lon="4.82318">
        <ele>168.2002</ele>
        <time>2026-05-13T10:40:31+02:00</time>
      </trkpt>
      <trkpt lat="45.88199" lon="4.82311">
        <ele>168.2002</ele>
        <time>2026-05-13T10:40:32+02:00</time>
      </trkpt>
      <trkpt lat="45.88201" lon="4.82304">
        <ele>168.2998</ele>
        <time>2026-05-13T10:40:33+02:00</time>
      </trkpt>
      <trkpt lat="45.88202" lon="4.82297">
        <ele>167.7002</ele>
        <time>2026-05-13T10:40:34+02:00</time>
      </trkpt>
      <trkpt lat="45.88204" lon="4.82289">
        <ele>167.10059</ele>
        <time>2026-05-13T10:40:35+02:00</time>
      </trkpt>
      <trkpt lat="45.88207" lon="4.82283">
        <ele>167.5</ele>
        <time>2026-05-13T10:40:36+02:00</time>
      </trkpt>
      <trkpt lat="45.88209" lon="4.82276">
        <ele>167.10059</ele>
        <time>2026-05-13T10:40:37+02:00</time>
      </trkpt>
      <trkpt lat="45.8821" lon="4.82268">
        <ele>167</ele>
        <time>2026-05-13T10:40:38+02:00</time>
      </trkpt>
      <trkpt lat="45.88213" lon="4.82261">
        <ele>167.10059</ele>
        <time>2026-05-13T10:40:39+02:00</time>
      </trkpt>
      <trkpt lat="45.88214" lon="4.82254">
        <ele>166.90039</ele>
        <time>2026-05-13T10:40:40+02:00</time>
      </trkpt>
      <trkpt lat="45.88217" lon="4.82247">
        <ele>166.7998</ele>
        <time>2026-05-13T10:40:41+02:00</time>
      </trkpt>
      <trkpt lat="45.88218" lon="4.8224">
        <ele>166.7998</ele>
        <time>2026-05-13T10:40:42+02:00</time>
      </trkpt>
      <trkpt lat="45.8822" lon="4.82233">
        <ele>166.90039</ele>
        <time>2026-05-13T10:40:43+02:00</time>
      </trkpt>
      <trkpt lat="45.88222" lon="4.82226">
        <ele>166.7998</ele>
        <time>2026-05-13T10:40:44+02:00</time>
      </trkpt>
      <trkpt lat="45.88224" lon="4.82219">
        <ele>166.7998</ele>
        <time>2026-05-13T10:40:45+02:00</time>
      </trkpt>
      <trkpt lat="45.88226" lon="4.82212">
        <ele>167</ele>
        <time>2026-05-13T10:40:46+02:00</time>
      </trkpt>
      <trkpt lat="45.88228" lon="4.82206">
        <ele>167</ele>
        <time>2026-05-13T10:40:47+02:00</time>
      </trkpt>
      <trkpt lat="45.88229" lon="4.822">
        <ele>167</ele>
        <time>2026-05-13T10:40:48+02:00</time>
      </trkpt>
      <trkpt lat="45.88231" lon="4.82193">
        <ele>167.2998</ele>
        <time>2026-05-13T10:40:49+02:00</time>
      </trkpt>
      <trkpt lat="45.88233" lon="4.82187">
        <ele>167.2998</ele>
        <time>2026-05-13T10:40:50+02:00</time>
      </trkpt>
      <trkpt lat="45.88234" lon="4.82181">
        <ele>167.2998</ele>
        <time>2026-05-13T10:40:51+02:00</time>
      </trkpt>
      <trkpt lat="45.88236" lon="4.82175">
        <ele>167.2002</ele>
        <time>2026-05-13T10:40:52+02:00</time>
      </trkpt>
      <trkpt lat="45.88237" lon="4.82169">
        <ele>167.2998</ele>
        <time>2026-05-13T10:40:53+02:00</time>
      </trkpt>
      <trkpt lat="45.88239" lon="4.82163">
        <ele>167.2998</ele>
        <time>2026-05-13T10:40:54+02:00</time>
      </trkpt>
      <trkpt lat="45.88242" lon="4.82158">
        <ele>167</ele>
        <time>2026-05-13T10:40:55+02:00</time>
      </trkpt>
      <trkpt lat="45.88245" lon="4.82152">
        <ele>167</ele>
        <time>2026-05-13T10:40:56+02:00</time>
      </trkpt>
      <trkpt lat="45.88247" lon="4.82145">
        <ele>166.90039</ele>
        <time>2026-05-13T10:40:57+02:00</time>
      </trkpt>
      <trkpt lat="45.8825" lon="4.82138">
        <ele>167.2998</ele>
        <time>2026-05-13T10:40:58+02:00</time>
      </trkpt>
      <trkpt lat="45.88254" lon="4.82131">
        <ele>167.7002</ele>
        <time>2026-05-13T10:40:59+02:00</time>
      </trkpt>
      <trkpt lat="45.88257" lon="4.82125">
        <ele>167.60059</ele>
        <time>2026-05-13T10:41:00+02:00</time>
      </trkpt>
      <trkpt lat="45.8826" lon="4.82118">
        <ele>167.5</ele>
        <time>2026-05-13T10:41:01+02:00</time>
      </trkpt>
      <trkpt lat="45.88263" lon="4.8211">
        <ele>167.5</ele>
        <time>2026-05-13T10:41:02+02:00</time>
      </trkpt>
      <trkpt lat="45.88266" lon="4.82102">
        <ele>167.60059</ele>
        <time>2026-05-13T10:41:03+02:00</time>
      </trkpt>
      <trkpt lat="45.88268" lon="4.82095">
        <ele>167.60059</ele>
        <time>2026-05-13T10:41:04+02:00</time>
      </trkpt>
      <trkpt lat="45.88271" lon="4.82088">
        <ele>167.40039</ele>
        <time>2026-05-13T10:41:05+02:00</time>
      </trkpt>
      <trkpt lat="45.88273" lon="4.82081">
        <ele>167.5</ele>
        <time>2026-05-13T10:41:06+02:00</time>
      </trkpt>
      <trkpt lat="45.88276" lon="4.82074">
        <ele>167.40039</ele>
        <time>2026-05-13T10:41:07+02:00</time>
      </trkpt>
      <trkpt lat="45.88278" lon="4.82067">
        <ele>167.2998</ele>
        <time>2026-05-13T10:41:08+02:00</time>
      </trkpt>
      <trkpt lat="45.8828" lon="4.8206">
        <ele>167.5</ele>
        <time>2026-05-13T10:41:09+02:00</time>
      </trkpt>
      <trkpt lat="45.88283" lon="4.82054">
        <ele>167.2998</ele>
        <time>2026-05-13T10:41:10+02:00</time>
      </trkpt>
      <trkpt lat="45.88286" lon="4.82047">
        <ele>167.40039</ele>
        <time>2026-05-13T10:41:11+02:00</time>
      </trkpt>
      <trkpt lat="45.88288" lon="4.8204">
        <ele>167.2002</ele>
        <time>2026-05-13T10:41:12+02:00</time>
      </trkpt>
      <trkpt lat="45.88291" lon="4.82033">
        <ele>167.10059</ele>
        <time>2026-05-13T10:41:13+02:00</time>
      </trkpt>
      <trkpt lat="45.88293" lon="4.82027">
        <ele>167.10059</ele>
        <time>2026-05-13T10:41:14+02:00</time>
      </trkpt>
      <trkpt lat="45.88295" lon="4.8202">
        <ele>166.7998</ele>
        <time>2026-05-13T10:41:15+02:00</time>
      </trkpt>
      <trkpt lat="45.88298" lon="4.82013">
        <ele>166.7998</ele>
        <time>2026-05-13T10:41:16+02:00</time>
      </trkpt>
      <trkpt lat="45.88301" lon="4.82007">
        <ele>166.7998</ele>
        <time>2026-05-13T10:41:17+02:00</time>
      </trkpt>
      <trkpt lat="45.88303" lon="4.82">
        <ele>166.90039</ele>
        <time>2026-05-13T10:41:18+02:00</time>
      </trkpt>
      <trkpt lat="45.88306" lon="4.81993">
        <ele>166.90039</ele>
        <time>2026-05-13T10:41:19+02:00</time>
      </trkpt>
      <trkpt lat="45.88308" lon="4.81987">
        <ele>167.2002</ele>
        <time>2026-05-13T10:41:20+02:00</time>
      </trkpt>
      <trkpt lat="45.88311" lon="4.8198">
        <ele>167.10059</ele>
        <time>2026-05-13T10:41:21+02:00</time>
      </trkpt>
      <trkpt lat="45.88313" lon="4.81973">
        <ele>167.10059</ele>
        <time>2026-05-13T10:41:22+02:00</time>
      </trkpt>
      <trkpt lat="45.88316" lon="4.81966">
        <ele>167.2998</ele>
        <time>2026-05-13T10:41:23+02:00</time>
      </trkpt>
      <trkpt lat="45.88319" lon="4.8196">
        <ele>167.2002</ele>
        <time>2026-05-13T10:41:24+02:00</time>
      </trkpt>
      <trkpt lat="45.88322" lon="4.81953">
        <ele>167.2998</ele>
        <time>2026-05-13T10:41:25+02:00</time>
      </trkpt>
      <trkpt lat="45.88324" lon="4.81947">
        <ele>167.10059</ele>
        <time>2026-05-13T10:41:26+02:00</time>
      </trkpt>
      <trkpt lat="45.88327" lon="4.8194">
        <ele>167.40039</ele>
        <time>2026-05-13T10:41:27+02:00</time>
      </trkpt>
      <trkpt lat="45.88329" lon="4.81933">
        <ele>167.2998</ele>
        <time>2026-05-13T10:41:28+02:00</time>
      </trkpt>
      <trkpt lat="45.88332" lon="4.81925">
        <ele>167.7002</ele>
        <time>2026-05-13T10:41:29+02:00</time>
      </trkpt>
      <trkpt lat="45.88335" lon="4.81918">
        <ele>167.5</ele>
        <time>2026-05-13T10:41:30+02:00</time>
      </trkpt>
      <trkpt lat="45.88338" lon="4.81911">
        <ele>167.7998</ele>
        <time>2026-05-13T10:41:31+02:00</time>
      </trkpt>
      <trkpt lat="45.88341" lon="4.81904">
        <ele>167.5</ele>
        <time>2026-05-13T10:41:32+02:00</time>
      </trkpt>
      <trkpt lat="45.88344" lon="4.81898">
        <ele>167.7998</ele>
        <time>2026-05-13T10:41:33+02:00</time>
      </trkpt>
      <trkpt lat="45.88348" lon="4.81891">
        <ele>167.5</ele>
        <time>2026-05-13T10:41:34+02:00</time>
      </trkpt>
      <trkpt lat="45.88351" lon="4.81885">
        <ele>167.60059</ele>
        <time>2026-05-13T10:41:35+02:00</time>
      </trkpt>
      <trkpt lat="45.88354" lon="4.81879">
        <ele>167.40039</ele>
        <time>2026-05-13T10:41:36+02:00</time>
      </trkpt>
      <trkpt lat="45.88357" lon="4.81872">
        <ele>167.90039</ele>
        <time>2026-05-13T10:41:37+02:00</time>
      </trkpt>
      <trkpt lat="45.88361" lon="4.81866">
        <ele>167.5</ele>
        <time>2026-05-13T10:41:38+02:00</time>
      </trkpt>
      <trkpt lat="45.88364" lon="4.8186">
        <ele>167.5</ele>
        <time>2026-05-13T10:41:39+02:00</time>
      </trkpt>
      <trkpt lat="45.88366" lon="4.81854">
        <ele>167.5</ele>
        <time>2026-05-13T10:41:40+02:00</time>
      </trkpt>
      <trkpt lat="45.88369" lon="4.81848">
        <ele>167.5</ele>
        <time>2026-05-13T10:41:41+02:00</time>
      </trkpt>
      <trkpt lat="45.88372" lon="4.81842">
        <ele>167.2002</ele>
        <time>2026-05-13T10:41:42+02:00</time>
      </trkpt>
      <trkpt lat="45.88375" lon="4.81836">
        <ele>167.2998</ele>
        <time>2026-05-13T10:41:43+02:00</time>
      </trkpt>
      <trkpt lat="45.88378" lon="4.8183">
        <ele>167.2998</ele>
        <time>2026-05-13T10:41:44+02:00</time>
      </trkpt>
      <trkpt lat="45.88381" lon="4.81824">
        <ele>167.2998</ele>
        <time>2026-05-13T10:41:45+02:00</time>
      </trkpt>
      <trkpt lat="45.88384" lon="4.81818">
        <ele>166.90039</ele>
        <time>2026-05-13T10:41:46+02:00</time>
      </trkpt>
      <trkpt lat="45.88387" lon="4.81812">
        <ele>167.40039</ele>
        <time>2026-05-13T10:41:47+02:00</time>
      </trkpt>
      <trkpt lat="45.8839" lon="4.81806">
        <ele>167.2002</ele>
        <time>2026-05-13T10:41:48+02:00</time>
      </trkpt>
      <trkpt lat="45.88394" lon="4.818">
        <ele>167.90039</ele>
        <time>2026-05-13T10:41:49+02:00</time>
      </trkpt>
      <trkpt lat="45.88397" lon="4.81794">
        <ele>167.90039</ele>
        <time>2026-05-13T10:41:50+02:00</time>
      </trkpt>
      <trkpt lat="45.884" lon="4.81788">
        <ele>168.7998</ele>
        <time>2026-05-13T10:41:51+02:00</time>
      </trkpt>
      <trkpt lat="45.88403" lon="4.81782">
        <ele>168.7998</ele>
        <time>2026-05-13T10:41:52+02:00</time>
      </trkpt>
      <trkpt lat="45.88406" lon="4.81776">
        <ele>168.7998</ele>
        <time>2026-05-13T10:41:53+02:00</time>
      </trkpt>
      <trkpt lat="45.88409" lon="4.8177">
        <ele>168.7998</ele>
        <time>2026-05-13T10:41:54+02:00</time>
      </trkpt>
      <trkpt lat="45.88412" lon="4.81764">
        <ele>168.2998</ele>
        <time>2026-05-13T10:41:55+02:00</time>
      </trkpt>
      <trkpt lat="45.88415" lon="4.81759">
        <ele>167.7998</ele>
        <time>2026-05-13T10:41:56+02:00</time>
      </trkpt>
      <trkpt lat="45.88418" lon="4.81754">
        <ele>168.10059</ele>
        <time>2026-05-13T10:41:57+02:00</time>
      </trkpt>
      <trkpt lat="45.88422" lon="4.81749">
        <ele>168.10059</ele>
        <time>2026-05-13T10:41:58+02:00</time>
      </trkpt>
      <trkpt lat="45.88424" lon="4.81743">
        <ele>168.10059</ele>
        <time>2026-05-13T10:41:59+02:00</time>
      </trkpt>
      <trkpt lat="45.88427" lon="4.81738">
        <ele>167.7998</ele>
        <time>2026-05-13T10:42:00+02:00</time>
      </trkpt>
      <trkpt lat="45.88429" lon="4.81733">
        <ele>167.7002</ele>
        <time>2026-05-13T10:42:01+02:00</time>
      </trkpt>
      <trkpt lat="45.88431" lon="4.81728">
        <ele>167.7002</ele>
        <time>2026-05-13T10:42:02+02:00</time>
      </trkpt>
      <trkpt lat="45.88433" lon="4.81723">
        <ele>167.40039</ele>
        <time>2026-05-13T10:42:03+02:00</time>
      </trkpt>
      <trkpt lat="45.88436" lon="4.81718">
        <ele>167.60059</ele>
        <time>2026-05-13T10:42:04+02:00</time>
      </trkpt>
      <trkpt lat="45.88439" lon="4.81713">
        <ele>167.40039</ele>
        <time>2026-05-13T10:42:05+02:00</time>
      </trkpt>
      <trkpt lat="45.88443" lon="4.81709">
        <ele>167.7002</ele>
        <time>2026-05-13T10:42:06+02:00</time>
      </trkpt>
      <trkpt lat="45.88447" lon="4.81703">
        <ele>167.60059</ele>
        <time>2026-05-13T10:42:07+02:00</time>
      </trkpt>
      <trkpt lat="45.8845" lon="4.81698">
        <ele>167.40039</ele>
        <time>2026-05-13T10:42:08+02:00</time>
      </trkpt>
      <trkpt lat="45.88453" lon="4.81693">
        <ele>167.5</ele>
        <time>2026-05-13T10:42:09+02:00</time>
      </trkpt>
      <trkpt lat="45.88457" lon="4.81688">
        <ele>167.2998</ele>
        <time>2026-05-13T10:42:10+02:00</time>
      </trkpt>
      <trkpt lat="45.88461" lon="4.81683">
        <ele>167.5</ele>
        <time>2026-05-13T10:42:11+02:00</time>
      </trkpt>
      <trkpt lat="45.88465" lon="4.81678">
        <ele>167.40039</ele>
        <time>2026-05-13T10:42:12+02:00</time>
      </trkpt>
      <trkpt lat="45.88469" lon="4.81674">
        <ele>167.40039</ele>
        <time>2026-05-13T10:42:13+02:00</time>
      </trkpt>
      <trkpt lat="45.88474" lon="4.8167">
        <ele>167.2998</ele>
        <time>2026-05-13T10:42:14+02:00</time>
      </trkpt>
      <trkpt lat="45.88478" lon="4.81666">
        <ele>167.40039</ele>
        <time>2026-05-13T10:42:15+02:00</time>
      </trkpt>
      <trkpt lat="45.88482" lon="4.81662">
        <ele>167.2998</ele>
        <time>2026-05-13T10:42:16+02:00</time>
      </trkpt>
      <trkpt lat="45.88485" lon="4.81657">
        <ele>167.2998</ele>
        <time>2026-05-13T10:42:17+02:00</time>
      </trkpt>
      <trkpt lat="45.8849" lon="4.81652">
        <ele>167.2002</ele>
        <time>2026-05-13T10:42:18+02:00</time>
      </trkpt>
      <trkpt lat="45.88494" lon="4.81647">
        <ele>167.2002</ele>
        <time>2026-05-13T10:42:19+02:00</time>
      </trkpt>
      <trkpt lat="45.88498" lon="4.81643">
        <ele>167.2002</ele>
        <time>2026-05-13T10:42:20+02:00</time>
      </trkpt>
      <trkpt lat="45.88503" lon="4.81638">
        <ele>167.2002</ele>
        <time>2026-05-13T10:42:21+02:00</time>
      </trkpt>
      <trkpt lat="45.88507" lon="4.81633">
        <ele>167.40039</ele>
        <time>2026-05-13T10:42:22+02:00</time>
      </trkpt>
      <trkpt lat="45.88511" lon="4.81627">
        <ele>167.2002</ele>
        <time>2026-05-13T10:42:23+02:00</time>
      </trkpt>
      <trkpt lat="45.88514" lon="4.81621">
        <ele>167.2002</ele>
        <time>2026-05-13T10:42:24+02:00</time>
      </trkpt>
      <trkpt lat="45.88518" lon="4.81616">
        <ele>167.40039</ele>
        <time>2026-05-13T10:42:25+02:00</time>
      </trkpt>
      <trkpt lat="45.88522" lon="4.81611">
        <ele>167.2002</ele>
        <time>2026-05-13T10:42:26+02:00</time>
      </trkpt>
      <trkpt lat="45.88526" lon="4.81606">
        <ele>167.5</ele>
        <time>2026-05-13T10:42:27+02:00</time>
      </trkpt>
      <trkpt lat="45.8853" lon="4.81601">
        <ele>167.60059</ele>
        <time>2026-05-13T10:42:28+02:00</time>
      </trkpt>
      <trkpt lat="45.88534" lon="4.81596">
        <ele>167.40039</ele>
        <time>2026-05-13T10:42:29+02:00</time>
      </trkpt>
      <trkpt lat="45.88538" lon="4.81591">
        <ele>167.60059</ele>
        <time>2026-05-13T10:42:30+02:00</time>
      </trkpt>
      <trkpt lat="45.88542" lon="4.81586">
        <ele>167.7002</ele>
        <time>2026-05-13T10:42:31+02:00</time>
      </trkpt>
      <trkpt lat="45.88545" lon="4.81581">
        <ele>167.7002</ele>
        <time>2026-05-13T10:42:32+02:00</time>
      </trkpt>
      <trkpt lat="45.88549" lon="4.81576">
        <ele>167.7002</ele>
        <time>2026-05-13T10:42:33+02:00</time>
      </trkpt>
      <trkpt lat="45.88553" lon="4.81571">
        <ele>168</ele>
        <time>2026-05-13T10:42:34+02:00</time>
      </trkpt>
      <trkpt lat="45.88556" lon="4.81566">
        <ele>167.7002</ele>
        <time>2026-05-13T10:42:35+02:00</time>
      </trkpt>
      <trkpt lat="45.8856" lon="4.81561">
        <ele>167.60059</ele>
        <time>2026-05-13T10:42:36+02:00</time>
      </trkpt>
      <trkpt lat="45.88564" lon="4.81556">
        <ele>167.60059</ele>
        <time>2026-05-13T10:42:37+02:00</time>
      </trkpt>
      <trkpt lat="45.88568" lon="4.81551">
        <ele>167.5</ele>
        <time>2026-05-13T10:42:38+02:00</time>
      </trkpt>
      <trkpt lat="45.88572" lon="4.81546">
        <ele>167.7002</ele>
        <time>2026-05-13T10:42:39+02:00</time>
      </trkpt>
      <trkpt lat="45.88576" lon="4.81541">
        <ele>167.40039</ele>
        <time>2026-05-13T10:42:40+02:00</time>
      </trkpt>
      <trkpt lat="45.8858" lon="4.81536">
        <ele>167.60059</ele>
        <time>2026-05-13T10:42:41+02:00</time>
      </trkpt>
      <trkpt lat="45.88584" lon="4.81531">
        <ele>167.60059</ele>
        <time>2026-05-13T10:42:42+02:00</time>
      </trkpt>
      <trkpt lat="45.88588" lon="4.81526">
        <ele>167.2998</ele>
        <time>2026-05-13T10:42:43+02:00</time>
      </trkpt>
      <trkpt lat="45.88591" lon="4.81521">
        <ele>167.5</ele>
        <time>2026-05-13T10:42:44+02:00</time>
      </trkpt>
      <trkpt lat="45.88595" lon="4.81516">
        <ele>167.40039</ele>
        <time>2026-05-13T10:42:45+02:00</time>
      </trkpt>
      <trkpt lat="45.88599" lon="4.81511">
        <ele>167.40039</ele>
        <time>2026-05-13T10:42:46+02:00</time>
      </trkpt>
      <trkpt lat="45.88603" lon="4.81506">
        <ele>167.40039</ele>
        <time>2026-05-13T10:42:47+02:00</time>
      </trkpt>
      <trkpt lat="45.88607" lon="4.81501">
        <ele>167.60059</ele>
        <time>2026-05-13T10:42:48+02:00</time>
      </trkpt>
      <trkpt lat="45.88611" lon="4.81496">
        <ele>167.60059</ele>
        <time>2026-05-13T10:42:49+02:00</time>
      </trkpt>
      <trkpt lat="45.88614" lon="4.81491">
        <ele>167.60059</ele>
        <time>2026-05-13T10:42:50+02:00</time>
      </trkpt>
      <trkpt lat="45.88619" lon="4.81486">
        <ele>167.90039</ele>
        <time>2026-05-13T10:42:51+02:00</time>
      </trkpt>
      <trkpt lat="45.88622" lon="4.81481">
        <ele>167.60059</ele>
        <time>2026-05-13T10:42:52+02:00</time>
      </trkpt>
      <trkpt lat="45.88626" lon="4.81476">
        <ele>168</ele>
        <time>2026-05-13T10:42:53+02:00</time>
      </trkpt>
      <trkpt lat="45.8863" lon="4.81471">
        <ele>167.7002</ele>
        <time>2026-05-13T10:42:54+02:00</time>
      </trkpt>
      <trkpt lat="45.88633" lon="4.81466">
        <ele>167.90039</ele>
        <time>2026-05-13T10:42:55+02:00</time>
      </trkpt>
      <trkpt lat="45.88637" lon="4.81462">
        <ele>168.2998</ele>
        <time>2026-05-13T10:42:56+02:00</time>
      </trkpt>
      <trkpt lat="45.8864" lon="4.81457">
        <ele>167.90039</ele>
        <time>2026-05-13T10:42:57+02:00</time>
      </trkpt>
      <trkpt lat="45.88644" lon="4.81453">
        <ele>168.2998</ele>
        <time>2026-05-13T10:42:58+02:00</time>
      </trkpt>
      <trkpt lat="45.88648" lon="4.81448">
        <ele>167.90039</ele>
        <time>2026-05-13T10:42:59+02:00</time>
      </trkpt>
      <trkpt lat="45.88651" lon="4.81443">
        <ele>168.40039</ele>
        <time>2026-05-13T10:43:00+02:00</time>
      </trkpt>
      <trkpt lat="45.88655" lon="4.81438">
        <ele>168.5</ele>
        <time>2026-05-13T10:43:01+02:00</time>
      </trkpt>
      <trkpt lat="45.88659" lon="4.81433">
        <ele>168.5</ele>
        <time>2026-05-13T10:43:02+02:00</time>
      </trkpt>
      <trkpt lat="45.88663" lon="4.81428">
        <ele>168.5</ele>
        <time>2026-05-13T10:43:03+02:00</time>
      </trkpt>
      <trkpt lat="45.88667" lon="4.81424">
        <ele>168.40039</ele>
        <time>2026-05-13T10:43:04+02:00</time>
      </trkpt>
      <trkpt lat="45.8867" lon="4.81419">
        <ele>168.40039</ele>
        <time>2026-05-13T10:43:05+02:00</time>
      </trkpt>
      <trkpt lat="45.88674" lon="4.81414">
        <ele>168.5</ele>
        <time>2026-05-13T10:43:06+02:00</time>
      </trkpt>
      <trkpt lat="45.88678" lon="4.81409">
        <ele>168.5</ele>
        <time>2026-05-13T10:43:07+02:00</time>
      </trkpt>
      <trkpt lat="45.88682" lon="4.81404">
        <ele>168.5</ele>
        <time>2026-05-13T10:43:08+02:00</time>
      </trkpt>
      <trkpt lat="45.88685" lon="4.814">
        <ele>169</ele>
        <time>2026-05-13T10:43:09+02:00</time>
      </trkpt>
      <trkpt lat="45.88689" lon="4.81395">
        <ele>168.2998</ele>
        <time>2026-05-13T10:43:10+02:00</time>
      </trkpt>
      <trkpt lat="45.88693" lon="4.8139">
        <ele>168.7002</ele>
        <time>2026-05-13T10:43:11+02:00</time>
      </trkpt>
      <trkpt lat="45.88697" lon="4.81386">
        <ele>168.40039</ele>
        <time>2026-05-13T10:43:12+02:00</time>
      </trkpt>
      <trkpt lat="45.88701" lon="4.81381">
        <ele>167.7002</ele>
        <time>2026-05-13T10:43:13+02:00</time>
      </trkpt>
      <trkpt lat="45.88704" lon="4.81376">
        <ele>168.10059</ele>
        <time>2026-05-13T10:43:14+02:00</time>
      </trkpt>
      <trkpt lat="45.88709" lon="4.81372">
        <ele>168.10059</ele>
        <time>2026-05-13T10:43:15+02:00</time>
      </trkpt>
      <trkpt lat="45.88713" lon="4.81367">
        <ele>168.10059</ele>
        <time>2026-05-13T10:43:16+02:00</time>
      </trkpt>
      <trkpt lat="45.88716" lon="4.81362">
        <ele>168.2998</ele>
        <time>2026-05-13T10:43:17+02:00</time>
      </trkpt>
      <trkpt lat="45.8872" lon="4.81357">
        <ele>168.2998</ele>
        <time>2026-05-13T10:43:18+02:00</time>
      </trkpt>
      <trkpt lat="45.88725" lon="4.81353">
        <ele>168.2002</ele>
        <time>2026-05-13T10:43:19+02:00</time>
      </trkpt>
      <trkpt lat="45.88729" lon="4.81348">
        <ele>168.7002</ele>
        <time>2026-05-13T10:43:20+02:00</time>
      </trkpt>
      <trkpt lat="45.88732" lon="4.81343">
        <ele>168.7002</ele>
        <time>2026-05-13T10:43:21+02:00</time>
      </trkpt>
      <trkpt lat="45.88736" lon="4.81338">
        <ele>168.2998</ele>
        <time>2026-05-13T10:43:22+02:00</time>
      </trkpt>
      <trkpt lat="45.8874" lon="4.81334">
        <ele>168.7998</ele>
        <time>2026-05-13T10:43:23+02:00</time>
      </trkpt>
      <trkpt lat="45.88744" lon="4.81329">
        <ele>168.7002</ele>
        <time>2026-05-13T10:43:24+02:00</time>
      </trkpt>
      <trkpt lat="45.88748" lon="4.81325">
        <ele>168.7002</ele>
        <time>2026-05-13T10:43:25+02:00</time>
      </trkpt>
      <trkpt lat="45.88751" lon="4.81321">
        <ele>168.5</ele>
        <time>2026-05-13T10:43:26+02:00</time>
      </trkpt>
      <trkpt lat="45.88755" lon="4.81316">
        <ele>168.5</ele>
        <time>2026-05-13T10:43:27+02:00</time>
      </trkpt>
      <trkpt lat="45.88759" lon="4.81311">
        <ele>168.2998</ele>
        <time>2026-05-13T10:43:28+02:00</time>
      </trkpt>
      <trkpt lat="45.88762" lon="4.81307">
        <ele>168.7002</ele>
        <time>2026-05-13T10:43:29+02:00</time>
      </trkpt>
      <trkpt lat="45.88765" lon="4.81302">
        <ele>168.2002</ele>
        <time>2026-05-13T10:43:30+02:00</time>
      </trkpt>
      <trkpt lat="45.88769" lon="4.81297">
        <ele>168.40039</ele>
        <time>2026-05-13T10:43:31+02:00</time>
      </trkpt>
      <trkpt lat="45.88773" lon="4.81293">
        <ele>167.90039</ele>
        <time>2026-05-13T10:43:32+02:00</time>
      </trkpt>
      <trkpt lat="45.88777" lon="4.81288">
        <ele>168.10059</ele>
        <time>2026-05-13T10:43:33+02:00</time>
      </trkpt>
      <trkpt lat="45.8878" lon="4.81284">
        <ele>167.7998</ele>
        <time>2026-05-13T10:43:34+02:00</time>
      </trkpt>
      <trkpt lat="45.88785" lon="4.81279">
        <ele>167.7998</ele>
        <time>2026-05-13T10:43:35+02:00</time>
      </trkpt>
      <trkpt lat="45.88788" lon="4.81274">
        <ele>167.5</ele>
        <time>2026-05-13T10:43:36+02:00</time>
      </trkpt>
      <trkpt lat="45.88792" lon="4.81269">
        <ele>167.2998</ele>
        <time>2026-05-13T10:43:37+02:00</time>
      </trkpt>
      <trkpt lat="45.88797" lon="4.81265">
        <ele>167.2998</ele>
        <time>2026-05-13T10:43:38+02:00</time>
      </trkpt>
      <trkpt lat="45.88801" lon="4.8126">
        <ele>167.2998</ele>
        <time>2026-05-13T10:43:39+02:00</time>
      </trkpt>
      <trkpt lat="45.88805" lon="4.81256">
        <ele>167.40039</ele>
        <time>2026-05-13T10:43:40+02:00</time>
      </trkpt>
      <trkpt lat="45.88809" lon="4.81251">
        <ele>167.2002</ele>
        <time>2026-05-13T10:43:41+02:00</time>
      </trkpt>
      <trkpt lat="45.88813" lon="4.81247">
        <ele>167.2998</ele>
        <time>2026-05-13T10:43:42+02:00</time>
      </trkpt>
      <trkpt lat="45.88817" lon="4.81243">
        <ele>167.2002</ele>
        <time>2026-05-13T10:43:43+02:00</time>
      </trkpt>
      <trkpt lat="45.88822" lon="4.81238">
        <ele>167.2002</ele>
        <time>2026-05-13T10:43:44+02:00</time>
      </trkpt>
      <trkpt lat="45.88826" lon="4.81234">
        <ele>167.10059</ele>
        <time>2026-05-13T10:43:45+02:00</time>
      </trkpt>
      <trkpt lat="45.8883" lon="4.8123">
        <ele>167.10059</ele>
        <time>2026-05-13T10:43:46+02:00</time>
      </trkpt>
      <trkpt lat="45.88835" lon="4.81225">
        <ele>167</ele>
        <time>2026-05-13T10:43:47+02:00</time>
      </trkpt>
      <trkpt lat="45.88839" lon="4.81221">
        <ele>167</ele>
        <time>2026-05-13T10:43:48+02:00</time>
      </trkpt>
      <trkpt lat="45.88843" lon="4.81217">
        <ele>167</ele>
        <time>2026-05-13T10:43:49+02:00</time>
      </trkpt>
      <trkpt lat="45.88848" lon="4.81213">
        <ele>167.10059</ele>
        <time>2026-05-13T10:43:50+02:00</time>
      </trkpt>
      <trkpt lat="45.88852" lon="4.81209">
        <ele>167</ele>
        <time>2026-05-13T10:43:51+02:00</time>
      </trkpt>
      <trkpt lat="45.88857" lon="4.81205">
        <ele>167</ele>
        <time>2026-05-13T10:43:52+02:00</time>
      </trkpt>
      <trkpt lat="45.88861" lon="4.812">
        <ele>167</ele>
        <time>2026-05-13T10:43:53+02:00</time>
      </trkpt>
      <trkpt lat="45.88865" lon="4.81196">
        <ele>167.10059</ele>
        <time>2026-05-13T10:43:54+02:00</time>
      </trkpt>
      <trkpt lat="45.8887" lon="4.81192">
        <ele>167.10059</ele>
        <time>2026-05-13T10:43:55+02:00</time>
      </trkpt>
      <trkpt lat="45.88875" lon="4.81188">
        <ele>167.10059</ele>
        <time>2026-05-13T10:43:56+02:00</time>
      </trkpt>
      <trkpt lat="45.88879" lon="4.81184">
        <ele>167.10059</ele>
        <time>2026-05-13T10:43:57+02:00</time>
      </trkpt>
      <trkpt lat="45.88884" lon="4.8118">
        <ele>167.2002</ele>
        <time>2026-05-13T10:43:58+02:00</time>
      </trkpt>
      <trkpt lat="45.88888" lon="4.81176">
        <ele>167.2998</ele>
        <time>2026-05-13T10:43:59+02:00</time>
      </trkpt>
      <trkpt lat="45.88893" lon="4.81172">
        <ele>167.10059</ele>
        <time>2026-05-13T10:44:00+02:00</time>
      </trkpt>
      <trkpt lat="45.88898" lon="4.81168">
        <ele>167.2002</ele>
        <time>2026-05-13T10:44:01+02:00</time>
      </trkpt>
      <trkpt lat="45.88903" lon="4.81165">
        <ele>167.2002</ele>
        <time>2026-05-13T10:44:02+02:00</time>
      </trkpt>
      <trkpt lat="45.88908" lon="4.81161">
        <ele>167.2998</ele>
        <time>2026-05-13T10:44:03+02:00</time>
      </trkpt>
      <trkpt lat="45.88913" lon="4.81157">
        <ele>167.2002</ele>
        <time>2026-05-13T10:44:04+02:00</time>
      </trkpt>
      <trkpt lat="45.88918" lon="4.81154">
        <ele>167.2998</ele>
        <time>2026-05-13T10:44:05+02:00</time>
      </trkpt>
      <trkpt lat="45.88922" lon="4.8115">
        <ele>167.2998</ele>
        <time>2026-05-13T10:44:06+02:00</time>
      </trkpt>
      <trkpt lat="45.88927" lon="4.81146">
        <ele>167.2002</ele>
        <time>2026-05-13T10:44:07+02:00</time>
      </trkpt>
      <trkpt lat="45.88932" lon="4.81142">
        <ele>167.2002</ele>
        <time>2026-05-13T10:44:08+02:00</time>
      </trkpt>
      <trkpt lat="45.88937" lon="4.81139">
        <ele>167.10059</ele>
        <time>2026-05-13T10:44:09+02:00</time>
      </trkpt>
      <trkpt lat="45.88942" lon="4.81135">
        <ele>167.10059</ele>
        <time>2026-05-13T10:44:10+02:00</time>
      </trkpt>
      <trkpt lat="45.88947" lon="4.81131">
        <ele>167</ele>
        <time>2026-05-13T10:44:11+02:00</time>
      </trkpt>
      <trkpt lat="45.88952" lon="4.81128">
        <ele>167</ele>
        <time>2026-05-13T10:44:12+02:00</time>
      </trkpt>
      <trkpt lat="45.88957" lon="4.81124">
        <ele>167</ele>
        <time>2026-05-13T10:44:13+02:00</time>
      </trkpt>
      <trkpt lat="45.88962" lon="4.81121">
        <ele>167</ele>
        <time>2026-05-13T10:44:14+02:00</time>
      </trkpt>
      <trkpt lat="45.88966" lon="4.81117">
        <ele>167</ele>
        <time>2026-05-13T10:44:15+02:00</time>
      </trkpt>
      <trkpt lat="45.88971" lon="4.81113">
        <ele>166.90039</ele>
        <time>2026-05-13T10:44:16+02:00</time>
      </trkpt>
      <trkpt lat="45.88975" lon="4.8111">
        <ele>166.90039</ele>
        <time>2026-05-13T10:44:17+02:00</time>
      </trkpt>
      <trkpt lat="45.8898" lon="4.81106">
        <ele>166.90039</ele>
        <time>2026-05-13T10:44:18+02:00</time>
      </trkpt>
      <trkpt lat="45.88985" lon="4.81103">
        <ele>166.90039</ele>
        <time>2026-05-13T10:44:19+02:00</time>
      </trkpt>
      <trkpt lat="45.8899" lon="4.81099">
        <ele>166.90039</ele>
        <time>2026-05-13T10:44:20+02:00</time>
      </trkpt>
      <trkpt lat="45.88994" lon="4.81095">
        <ele>166.90039</ele>
        <time>2026-05-13T10:44:21+02:00</time>
      </trkpt>
      <trkpt lat="45.88999" lon="4.81091">
        <ele>166.90039</ele>
        <time>2026-05-13T10:44:22+02:00</time>
      </trkpt>
      <trkpt lat="45.89004" lon="4.81088">
        <ele>166.90039</ele>
        <time>2026-05-13T10:44:23+02:00</time>
      </trkpt>
      <trkpt lat="45.89009" lon="4.81084">
        <ele>167</ele>
        <time>2026-05-13T10:44:24+02:00</time>
      </trkpt>
      <trkpt lat="45.89014" lon="4.81081">
        <ele>167</ele>
        <time>2026-05-13T10:44:25+02:00</time>
      </trkpt>
      <trkpt lat="45.89018" lon="4.81077">
        <ele>167</ele>
        <time>2026-05-13T10:44:26+02:00</time>
      </trkpt>
      <trkpt lat="45.89023" lon="4.81074">
        <ele>167.10059</ele>
        <time>2026-05-13T10:44:27+02:00</time>
      </trkpt>
      <trkpt lat="45.89028" lon="4.8107">
        <ele>167.10059</ele>
        <time>2026-05-13T10:44:28+02:00</time>
      </trkpt>
      <trkpt lat="45.89033" lon="4.81067">
        <ele>167.2002</ele>
        <time>2026-05-13T10:44:29+02:00</time>
      </trkpt>
      <trkpt lat="45.89038" lon="4.81063">
        <ele>167.10059</ele>
        <time>2026-05-13T10:44:30+02:00</time>
      </trkpt>
      <trkpt lat="45.89042" lon="4.8106">
        <ele>167.10059</ele>
        <time>2026-05-13T10:44:31+02:00</time>
      </trkpt>
      <trkpt lat="45.89047" lon="4.81056">
        <ele>167.2002</ele>
        <time>2026-05-13T10:44:32+02:00</time>
      </trkpt>
      <trkpt lat="45.89052" lon="4.81053">
        <ele>167.2002</ele>
        <time>2026-05-13T10:44:33+02:00</time>
      </trkpt>
      <trkpt lat="45.89057" lon="4.81049">
        <ele>167.2998</ele>
        <time>2026-05-13T10:44:34+02:00</time>
      </trkpt>
      <trkpt lat="45.89062" lon="4.81046">
        <ele>167.40039</ele>
        <time>2026-05-13T10:44:35+02:00</time>
      </trkpt>
      <trkpt lat="45.89066" lon="4.81042">
        <ele>167.40039</ele>
        <time>2026-05-13T10:44:36+02:00</time>
      </trkpt>
      <trkpt lat="45.89071" lon="4.81039">
        <ele>167.5</ele>
        <time>2026-05-13T10:44:37+02:00</time>
      </trkpt>
      <trkpt lat="45.89076" lon="4.81035">
        <ele>167.40039</ele>
        <time>2026-05-13T10:44:38+02:00</time>
      </trkpt>
      <trkpt lat="45.8908" lon="4.81032">
        <ele>167.5</ele>
        <time>2026-05-13T10:44:39+02:00</time>
      </trkpt>
      <trkpt lat="45.89085" lon="4.81028">
        <ele>167.40039</ele>
        <time>2026-05-13T10:44:40+02:00</time>
      </trkpt>
      <trkpt lat="45.8909" lon="4.81025">
        <ele>167.40039</ele>
        <time>2026-05-13T10:44:41+02:00</time>
      </trkpt>
      <trkpt lat="45.89095" lon="4.81021">
        <ele>167.40039</ele>
        <time>2026-05-13T10:44:42+02:00</time>
      </trkpt>
      <trkpt lat="45.891" lon="4.81018">
        <ele>167.2002</ele>
        <time>2026-05-13T10:44:43+02:00</time>
      </trkpt>
      <trkpt lat="45.89105" lon="4.81014">
        <ele>167.2998</ele>
        <time>2026-05-13T10:44:44+02:00</time>
      </trkpt>
      <trkpt lat="45.89109" lon="4.81011">
        <ele>167.10059</ele>
        <time>2026-05-13T10:44:45+02:00</time>
      </trkpt>
      <trkpt lat="45.89114" lon="4.81007">
        <ele>167.10059</ele>
        <time>2026-05-13T10:44:46+02:00</time>
      </trkpt>
      <trkpt lat="45.89119" lon="4.81004">
        <ele>167.2998</ele>
        <time>2026-05-13T10:44:47+02:00</time>
      </trkpt>
      <trkpt lat="45.89123" lon="4.81">
        <ele>167.40039</ele>
        <time>2026-05-13T10:44:48+02:00</time>
      </trkpt>
      <trkpt lat="45.89128" lon="4.80997">
        <ele>167.60059</ele>
        <time>2026-05-13T10:44:49+02:00</time>
      </trkpt>
      <trkpt lat="45.89132" lon="4.80994">
        <ele>167.40039</ele>
        <time>2026-05-13T10:44:50+02:00</time>
      </trkpt>
      <trkpt lat="45.89137" lon="4.8099">
        <ele>167.60059</ele>
        <time>2026-05-13T10:44:51+02:00</time>
      </trkpt>
      <trkpt lat="45.89142" lon="4.80986">
        <ele>167.5</ele>
        <time>2026-05-13T10:44:52+02:00</time>
      </trkpt>
      <trkpt lat="45.89147" lon="4.80983">
        <ele>167.7002</ele>
        <time>2026-05-13T10:44:53+02:00</time>
      </trkpt>
      <trkpt lat="45.89152" lon="4.8098">
        <ele>167.90039</ele>
        <time>2026-05-13T10:44:54+02:00</time>
      </trkpt>
      <trkpt lat="45.89157" lon="4.80976">
        <ele>167.90039</ele>
        <time>2026-05-13T10:44:55+02:00</time>
      </trkpt>
      <trkpt lat="45.89162" lon="4.80973">
        <ele>167.90039</ele>
        <time>2026-05-13T10:44:56+02:00</time>
      </trkpt>
      <trkpt lat="45.89167" lon="4.80969">
        <ele>167.7002</ele>
        <time>2026-05-13T10:44:57+02:00</time>
      </trkpt>
      <trkpt lat="45.89171" lon="4.80966">
        <ele>167.90039</ele>
        <time>2026-05-13T10:44:58+02:00</time>
      </trkpt>
      <trkpt lat="45.89176" lon="4.80963">
        <ele>168.10059</ele>
        <time>2026-05-13T10:44:59+02:00</time>
      </trkpt>
      <trkpt lat="45.89181" lon="4.80959">
        <ele>167.7998</ele>
        <time>2026-05-13T10:45:00+02:00</time>
      </trkpt>
      <trkpt lat="45.89186" lon="4.80956">
        <ele>168</ele>
        <time>2026-05-13T10:45:01+02:00</time>
      </trkpt>
      <trkpt lat="45.8919" lon="4.80952">
        <ele>167.7002</ele>
        <time>2026-05-13T10:45:02+02:00</time>
      </trkpt>
      <trkpt lat="45.89195" lon="4.80949">
        <ele>167.90039</ele>
        <time>2026-05-13T10:45:03+02:00</time>
      </trkpt>
      <trkpt lat="45.892" lon="4.80946">
        <ele>168.10059</ele>
        <time>2026-05-13T10:45:04+02:00</time>
      </trkpt>
      <trkpt lat="45.89205" lon="4.80943">
        <ele>168</ele>
        <time>2026-05-13T10:45:05+02:00</time>
      </trkpt>
      <trkpt lat="45.89209" lon="4.80941">
        <ele>168</ele>
        <time>2026-05-13T10:45:06+02:00</time>
      </trkpt>
      <trkpt lat="45.89214" lon="4.80939">
        <ele>168.2998</ele>
        <time>2026-05-13T10:45:07+02:00</time>
      </trkpt>
      <trkpt lat="45.89218" lon="4.80936">
        <ele>168.5</ele>
        <time>2026-05-13T10:45:08+02:00</time>
      </trkpt>
      <trkpt lat="45.89222" lon="4.80934">
        <ele>168.2002</ele>
        <time>2026-05-13T10:45:09+02:00</time>
      </trkpt>
      <trkpt lat="45.89226" lon="4.80932">
        <ele>168.2002</ele>
        <time>2026-05-13T10:45:10+02:00</time>
      </trkpt>
      <trkpt lat="45.89229" lon="4.8093">
        <ele>168.2998</ele>
        <time>2026-05-13T10:45:11+02:00</time>
      </trkpt>
      <trkpt lat="45.89232" lon="4.80929">
        <ele>168.2998</ele>
        <time>2026-05-13T10:45:12+02:00</time>
      </trkpt>
      <trkpt lat="45.89234" lon="4.80929">
        <ele>168.5</ele>
        <time>2026-05-13T10:45:13+02:00</time>
      </trkpt>
      <trkpt lat="45.89237" lon="4.8093">
        <ele>168.5</ele>
        <time>2026-05-13T10:45:14+02:00</time>
      </trkpt>
      <trkpt lat="45.89239" lon="4.80933">
        <ele>168.5</ele>
        <time>2026-05-13T10:45:15+02:00</time>
      </trkpt>
      <trkpt lat="45.8924" lon="4.80937">
        <ele>169.10059</ele>
        <time>2026-05-13T10:45:16+02:00</time>
      </trkpt>
      <trkpt lat="45.8924" lon="4.8094">
        <ele>169.10059</ele>
        <time>2026-05-13T10:45:17+02:00</time>
      </trkpt>
      <trkpt lat="45.89242" lon="4.80942">
        <ele>169.10059</ele>
        <time>2026-05-13T10:45:18+02:00</time>
      </trkpt>
      <trkpt lat="45.89244" lon="4.8094">
        <ele>169.10059</ele>
        <time>2026-05-13T10:45:19+02:00</time>
      </trkpt>
      <trkpt lat="45.89245" lon="4.80937">
        <ele>169.10059</ele>
        <time>2026-05-13T10:45:20+02:00</time>
      </trkpt>
      <trkpt lat="45.89245" lon="4.80933">
        <ele>168.7002</ele>
        <time>2026-05-13T10:45:21+02:00</time>
      </trkpt>
      <trkpt lat="45.89244" lon="4.80929">
        <ele>168.7002</ele>
        <time>2026-05-13T10:45:22+02:00</time>
      </trkpt>
      <trkpt lat="45.89243" lon="4.80925">
        <ele>168.40039</ele>
        <time>2026-05-13T10:45:23+02:00</time>
      </trkpt>
      <trkpt lat="45.89241" lon="4.80921">
        <ele>168.40039</ele>
        <time>2026-05-13T10:45:24+02:00</time>
      </trkpt>
      <trkpt lat="45.89241" lon="4.80916">
        <ele>168.10059</ele>
        <time>2026-05-13T10:45:25+02:00</time>
      </trkpt>
      <trkpt lat="45.89242" lon="4.80912">
        <ele>168.10059</ele>
        <time>2026-05-13T10:45:26+02:00</time>
      </trkpt>
      <trkpt lat="45.89245" lon="4.80909">
        <ele>167.7998</ele>
        <time>2026-05-13T10:45:27+02:00</time>
      </trkpt>
      <trkpt lat="45.89249" lon="4.80906">
        <ele>168.10059</ele>
        <time>2026-05-13T10:45:28+02:00</time>
      </trkpt>
      <trkpt lat="45.89253" lon="4.80904">
        <ele>168.40039</ele>
        <time>2026-05-13T10:45:29+02:00</time>
      </trkpt>
      <trkpt lat="45.89256" lon="4.80902">
        <ele>168.40039</ele>
        <time>2026-05-13T10:45:30+02:00</time>
      </trkpt>
      <trkpt lat="45.8926" lon="4.809">
        <ele>168.10059</ele>
        <time>2026-05-13T10:45:31+02:00</time>
      </trkpt>
      <trkpt lat="45.89264" lon="4.80897">
        <ele>168.2998</ele>
        <time>2026-05-13T10:45:32+02:00</time>
      </trkpt>
      <trkpt lat="45.89268" lon="4.80894">
        <ele>168.2998</ele>
        <time>2026-05-13T10:45:33+02:00</time>
      </trkpt>
      <trkpt lat="45.89272" lon="4.80891">
        <ele>167.90039</ele>
        <time>2026-05-13T10:45:34+02:00</time>
      </trkpt>
      <trkpt lat="45.89276" lon="4.80889">
        <ele>168</ele>
        <time>2026-05-13T10:45:35+02:00</time>
      </trkpt>
      <trkpt lat="45.8928" lon="4.80886">
        <ele>168</ele>
        <time>2026-05-13T10:45:36+02:00</time>
      </trkpt>
      <trkpt lat="45.89284" lon="4.80884">
        <ele>168.10059</ele>
        <time>2026-05-13T10:45:37+02:00</time>
      </trkpt>
      <trkpt lat="45.89287" lon="4.80881">
        <ele>167.90039</ele>
        <time>2026-05-13T10:45:38+02:00</time>
      </trkpt>
      <trkpt lat="45.89291" lon="4.80879">
        <ele>168</ele>
        <time>2026-05-13T10:45:39+02:00</time>
      </trkpt>
      <trkpt lat="45.89294" lon="4.80877">
        <ele>168.10059</ele>
        <time>2026-05-13T10:45:40+02:00</time>
      </trkpt>
      <trkpt lat="45.89297" lon="4.80875">
        <ele>168.10059</ele>
        <time>2026-05-13T10:45:41+02:00</time>
      </trkpt>
      <trkpt lat="45.89301" lon="4.80873">
        <ele>167.90039</ele>
        <time>2026-05-13T10:45:42+02:00</time>
      </trkpt>
      <trkpt lat="45.89304" lon="4.80871">
        <ele>167.90039</ele>
        <time>2026-05-13T10:45:43+02:00</time>
      </trkpt>
      <trkpt lat="45.89308" lon="4.80869">
        <ele>167.90039</ele>
        <time>2026-05-13T10:45:44+02:00</time>
      </trkpt>
      <trkpt lat="45.89311" lon="4.80867">
        <ele>167.90039</ele>
        <time>2026-05-13T10:45:45+02:00</time>
      </trkpt>
      <trkpt lat="45.89314" lon="4.80865">
        <ele>167.7002</ele>
        <time>2026-05-13T10:45:46+02:00</time>
      </trkpt>
      <trkpt lat="45.89318" lon="4.80862">
        <ele>167.7002</ele>
        <time>2026-05-13T10:45:47+02:00</time>
      </trkpt>
      <trkpt lat="45.89321" lon="4.8086">
        <ele>167.7002</ele>
        <time>2026-05-13T10:45:48+02:00</time>
      </trkpt>
      <trkpt lat="45.89325" lon="4.80858">
        <ele>167.60059</ele>
        <time>2026-05-13T10:45:49+02:00</time>
      </trkpt>
      <trkpt lat="45.89329" lon="4.80855">
        <ele>167.40039</ele>
        <time>2026-05-13T10:45:50+02:00</time>
      </trkpt>
      <trkpt lat="45.89332" lon="4.80853">
        <ele>167.40039</ele>
        <time>2026-05-13T10:45:51+02:00</time>
      </trkpt>
      <trkpt lat="45.89336" lon="4.8085">
        <ele>167.2998</ele>
        <time>2026-05-13T10:45:52+02:00</time>
      </trkpt>
      <trkpt lat="45.8934" lon="4.80848">
        <ele>167.2002</ele>
        <time>2026-05-13T10:45:53+02:00</time>
      </trkpt>
      <trkpt lat="45.89344" lon="4.80846">
        <ele>167.10059</ele>
        <time>2026-05-13T10:45:54+02:00</time>
      </trkpt>
      <trkpt lat="45.89348" lon="4.80844">
        <ele>167</ele>
        <time>2026-05-13T10:45:55+02:00</time>
      </trkpt>
      <trkpt lat="45.89352" lon="4.80841">
        <ele>167</ele>
        <time>2026-05-13T10:45:56+02:00</time>
      </trkpt>
      <trkpt lat="45.89356" lon="4.80839">
        <ele>167</ele>
        <time>2026-05-13T10:45:57+02:00</time>
      </trkpt>
      <trkpt lat="45.8936" lon="4.80836">
        <ele>167</ele>
        <time>2026-05-13T10:45:58+02:00</time>
      </trkpt>
      <trkpt lat="45.89364" lon="4.80834">
        <ele>167</ele>
        <time>2026-05-13T10:45:59+02:00</time>
      </trkpt>
      <trkpt lat="45.89367" lon="4.80831">
        <ele>166.90039</ele>
        <time>2026-05-13T10:46:00+02:00</time>
      </trkpt>
      <trkpt lat="45.89371" lon="4.80829">
        <ele>166.90039</ele>
        <time>2026-05-13T10:46:01+02:00</time>
      </trkpt>
      <trkpt lat="45.89375" lon="4.80826">
        <ele>166.90039</ele>
        <time>2026-05-13T10:46:02+02:00</time>
      </trkpt>
      <trkpt lat="45.89379" lon="4.80824">
        <ele>166.90039</ele>
        <time>2026-05-13T10:46:03+02:00</time>
      </trkpt>
      <trkpt lat="45.89383" lon="4.80822">
        <ele>166.90039</ele>
        <time>2026-05-13T10:46:04+02:00</time>
      </trkpt>
      <trkpt lat="45.89387" lon="4.8082">
        <ele>166.90039</ele>
        <time>2026-05-13T10:46:05+02:00</time>
      </trkpt>
      <trkpt lat="45.89391" lon="4.80818">
        <ele>167</ele>
        <time>2026-05-13T10:46:06+02:00</time>
      </trkpt>
      <trkpt lat="45.89395" lon="4.80815">
        <ele>167</ele>
        <time>2026-05-13T10:46:07+02:00</time>
      </trkpt>
      <trkpt lat="45.89398" lon="4.80813">
        <ele>167</ele>
        <time>2026-05-13T10:46:08+02:00</time>
      </trkpt>
      <trkpt lat="45.89402" lon="4.80811">
        <ele>167</ele>
        <time>2026-05-13T10:46:09+02:00</time>
      </trkpt>
      <trkpt lat="45.89406" lon="4.80809">
        <ele>167</ele>
        <time>2026-05-13T10:46:10+02:00</time>
      </trkpt>
      <trkpt lat="45.8941" lon="4.80807">
        <ele>167</ele>
        <time>2026-05-13T10:46:11+02:00</time>
      </trkpt>
      <trkpt lat="45.89413" lon="4.80805">
        <ele>167</ele>
        <time>2026-05-13T10:46:12+02:00</time>
      </trkpt>
      <trkpt lat="45.89416" lon="4.80803">
        <ele>167</ele>
        <time>2026-05-13T10:46:13+02:00</time>
      </trkpt>
      <trkpt lat="45.89419" lon="4.80801">
        <ele>167</ele>
        <time>2026-05-13T10:46:14+02:00</time>
      </trkpt>
      <trkpt lat="45.89422" lon="4.80799">
        <ele>167</ele>
        <time>2026-05-13T10:46:15+02:00</time>
      </trkpt>
      <trkpt lat="45.89425" lon="4.80798">
        <ele>167</ele>
        <time>2026-05-13T10:46:16+02:00</time>
      </trkpt>
      <trkpt lat="45.89428" lon="4.80796">
        <ele>167</ele>
        <time>2026-05-13T10:46:17+02:00</time>
      </trkpt>
      <trkpt lat="45.89432" lon="4.80795">
        <ele>167</ele>
        <time>2026-05-13T10:46:18+02:00</time>
      </trkpt>
      <trkpt lat="45.89435" lon="4.80793">
        <ele>167</ele>
        <time>2026-05-13T10:46:19+02:00</time>
      </trkpt>
      <trkpt lat="45.89439" lon="4.80791">
        <ele>167</ele>
        <time>2026-05-13T10:46:20+02:00</time>
      </trkpt>
      <trkpt lat="45.89443" lon="4.80789">
        <ele>167</ele>
        <time>2026-05-13T10:46:21+02:00</time>
      </trkpt>
      <trkpt lat="45.89447" lon="4.80787">
        <ele>167.10059</ele>
        <time>2026-05-13T10:46:22+02:00</time>
      </trkpt>
      <trkpt lat="45.89451" lon="4.80784">
        <ele>167.10059</ele>
        <time>2026-05-13T10:46:23+02:00</time>
      </trkpt>
      <trkpt lat="45.89454" lon="4.80781">
        <ele>167.10059</ele>
        <time>2026-05-13T10:46:24+02:00</time>
      </trkpt>
      <trkpt lat="45.89458" lon="4.8078">
        <ele>167.2002</ele>
        <time>2026-05-13T10:46:25+02:00</time>
      </trkpt>
      <trkpt lat="45.89462" lon="4.80778">
        <ele>167.40039</ele>
        <time>2026-05-13T10:46:26+02:00</time>
      </trkpt>
      <trkpt lat="45.89465" lon="4.80776">
        <ele>167.40039</ele>
        <time>2026-05-13T10:46:27+02:00</time>
      </trkpt>
      <trkpt lat="45.89469" lon="4.80774">
        <ele>167.60059</ele>
        <time>2026-05-13T10:46:28+02:00</time>
      </trkpt>
      <trkpt lat="45.89473" lon="4.80772">
        <ele>167.90039</ele>
        <time>2026-05-13T10:46:29+02:00</time>
      </trkpt>
      <trkpt lat="45.89476" lon="4.80771">
        <ele>167.7998</ele>
        <time>2026-05-13T10:46:30+02:00</time>
      </trkpt>
      <trkpt lat="45.8948" lon="4.8077">
        <ele>168</ele>
        <time>2026-05-13T10:46:31+02:00</time>
      </trkpt>
      <trkpt lat="45.89484" lon="4.80768">
        <ele>168</ele>
        <time>2026-05-13T10:46:32+02:00</time>
      </trkpt>
      <trkpt lat="45.89488" lon="4.80766">
        <ele>168.2998</ele>
        <time>2026-05-13T10:46:33+02:00</time>
      </trkpt>
      <trkpt lat="45.89493" lon="4.80763">
        <ele>168.40039</ele>
        <time>2026-05-13T10:46:34+02:00</time>
      </trkpt>
      <trkpt lat="45.89498" lon="4.80761">
        <ele>168.7002</ele>
        <time>2026-05-13T10:46:35+02:00</time>
      </trkpt>
      <trkpt lat="45.89502" lon="4.80758">
        <ele>168.7002</ele>
        <time>2026-05-13T10:46:36+02:00</time>
      </trkpt>
      <trkpt lat="45.89507" lon="4.80755">
        <ele>169</ele>
        <time>2026-05-13T10:46:37+02:00</time>
      </trkpt>
      <trkpt lat="45.89512" lon="4.80753">
        <ele>168.7998</ele>
        <time>2026-05-13T10:46:38+02:00</time>
      </trkpt>
      <trkpt lat="45.89517" lon="4.80751">
        <ele>169.10059</ele>
        <time>2026-05-13T10:46:39+02:00</time>
      </trkpt>
      <trkpt lat="45.89522" lon="4.80748">
        <ele>169.2998</ele>
        <time>2026-05-13T10:46:40+02:00</time>
      </trkpt>
      <trkpt lat="45.89527" lon="4.80745">
        <ele>169.10059</ele>
        <time>2026-05-13T10:46:41+02:00</time>
      </trkpt>
      <trkpt lat="45.89532" lon="4.80743">
        <ele>169.10059</ele>
        <time>2026-05-13T10:46:42+02:00</time>
      </trkpt>
      <trkpt lat="45.89537" lon="4.8074">
        <ele>169.5</ele>
        <time>2026-05-13T10:46:43+02:00</time>
      </trkpt>
      <trkpt lat="45.89542" lon="4.80738">
        <ele>169.90039</ele>
        <time>2026-05-13T10:46:44+02:00</time>
      </trkpt>
      <trkpt lat="45.89546" lon="4.80736">
        <ele>169.7998</ele>
        <time>2026-05-13T10:46:45+02:00</time>
      </trkpt>
      <trkpt lat="45.89551" lon="4.80734">
        <ele>169.90039</ele>
        <time>2026-05-13T10:46:46+02:00</time>
      </trkpt>
      <trkpt lat="45.89556" lon="4.80731">
        <ele>169.90039</ele>
        <time>2026-05-13T10:46:47+02:00</time>
      </trkpt>
      <trkpt lat="45.89562" lon="4.80729">
        <ele>169.40039</ele>
        <time>2026-05-13T10:46:48+02:00</time>
      </trkpt>
      <trkpt lat="45.89567" lon="4.80726">
        <ele>169.5</ele>
        <time>2026-05-13T10:46:49+02:00</time>
      </trkpt>
      <trkpt lat="45.89572" lon="4.80725">
        <ele>169.5</ele>
        <time>2026-05-13T10:46:50+02:00</time>
      </trkpt>
      <trkpt lat="45.89577" lon="4.80723">
        <ele>169.5</ele>
        <time>2026-05-13T10:46:51+02:00</time>
      </trkpt>
      <trkpt lat="45.89583" lon="4.80721">
        <ele>169.60059</ele>
        <time>2026-05-13T10:46:52+02:00</time>
      </trkpt>
      <trkpt lat="45.89588" lon="4.8072">
        <ele>169.10059</ele>
        <time>2026-05-13T10:46:53+02:00</time>
      </trkpt>
      <trkpt lat="45.89593" lon="4.80719">
        <ele>169.10059</ele>
        <time>2026-05-13T10:46:54+02:00</time>
      </trkpt>
      <trkpt lat="45.89598" lon="4.80718">
        <ele>169.10059</ele>
        <time>2026-05-13T10:46:55+02:00</time>
      </trkpt>
      <trkpt lat="45.89603" lon="4.80717">
        <ele>169.2002</ele>
        <time>2026-05-13T10:46:56+02:00</time>
      </trkpt>
      <trkpt lat="45.89608" lon="4.80716">
        <ele>169.2002</ele>
        <time>2026-05-13T10:46:57+02:00</time>
      </trkpt>
      <trkpt lat="45.89612" lon="4.80716">
        <ele>169.2998</ele>
        <time>2026-05-13T10:46:58+02:00</time>
      </trkpt>
      <trkpt lat="45.89618" lon="4.80715">
        <ele>169.40039</ele>
        <time>2026-05-13T10:46:59+02:00</time>
      </trkpt>
      <trkpt lat="45.89623" lon="4.80714">
        <ele>169.5</ele>
        <time>2026-05-13T10:47:00+02:00</time>
      </trkpt>
      <trkpt lat="45.89629" lon="4.80713">
        <ele>169.60059</ele>
        <time>2026-05-13T10:47:01+02:00</time>
      </trkpt>
      <trkpt lat="45.89634" lon="4.80712">
        <ele>169.60059</ele>
        <time>2026-05-13T10:47:02+02:00</time>
      </trkpt>
      <trkpt lat="45.89639" lon="4.8071">
        <ele>169.5</ele>
        <time>2026-05-13T10:47:03+02:00</time>
      </trkpt>
      <trkpt lat="45.89645" lon="4.80708">
        <ele>169.5</ele>
        <time>2026-05-13T10:47:04+02:00</time>
      </trkpt>
      <trkpt lat="45.89649" lon="4.80706">
        <ele>169.5</ele>
        <time>2026-05-13T10:47:05+02:00</time>
      </trkpt>
      <trkpt lat="45.89655" lon="4.80704">
        <ele>169.40039</ele>
        <time>2026-05-13T10:47:06+02:00</time>
      </trkpt>
      <trkpt lat="45.8966" lon="4.80701">
        <ele>169.10059</ele>
        <time>2026-05-13T10:47:07+02:00</time>
      </trkpt>
      <trkpt lat="45.89665" lon="4.80698">
        <ele>169.10059</ele>
        <time>2026-05-13T10:47:08+02:00</time>
      </trkpt>
      <trkpt lat="45.8967" lon="4.80696">
        <ele>169.2002</ele>
        <time>2026-05-13T10:47:09+02:00</time>
      </trkpt>
      <trkpt lat="45.89674" lon="4.80693">
        <ele>169</ele>
        <time>2026-05-13T10:47:10+02:00</time>
      </trkpt>
      <trkpt lat="45.89679" lon="4.8069">
        <ele>169.10059</ele>
        <time>2026-05-13T10:47:11+02:00</time>
      </trkpt>
      <trkpt lat="45.89684" lon="4.80687">
        <ele>169.2002</ele>
        <time>2026-05-13T10:47:12+02:00</time>
      </trkpt>
      <trkpt lat="45.89688" lon="4.80684">
        <ele>169.2998</ele>
        <time>2026-05-13T10:47:13+02:00</time>
      </trkpt>
      <trkpt lat="45.89694" lon="4.80681">
        <ele>169.5</ele>
        <time>2026-05-13T10:47:14+02:00</time>
      </trkpt>
      <trkpt lat="45.89699" lon="4.80679">
        <ele>169.5</ele>
        <time>2026-05-13T10:47:15+02:00</time>
      </trkpt>
      <trkpt lat="45.89704" lon="4.80675">
        <ele>169.5</ele>
        <time>2026-05-13T10:47:16+02:00</time>
      </trkpt>
      <trkpt lat="45.89709" lon="4.80672">
        <ele>169.60059</ele>
        <time>2026-05-13T10:47:17+02:00</time>
      </trkpt>
      <trkpt lat="45.89714" lon="4.80669">
        <ele>169.5</ele>
        <time>2026-05-13T10:47:18+02:00</time>
      </trkpt>
      <trkpt lat="45.89719" lon="4.80665">
        <ele>169.2002</ele>
        <time>2026-05-13T10:47:19+02:00</time>
      </trkpt>
      <trkpt lat="45.89724" lon="4.80661">
        <ele>169.2998</ele>
        <time>2026-05-13T10:47:20+02:00</time>
      </trkpt>
      <trkpt lat="45.89729" lon="4.80658">
        <ele>169.2002</ele>
        <time>2026-05-13T10:47:21+02:00</time>
      </trkpt>
      <trkpt lat="45.89734" lon="4.80654">
        <ele>169.5</ele>
        <time>2026-05-13T10:47:22+02:00</time>
      </trkpt>
      <trkpt lat="45.89738" lon="4.8065">
        <ele>169.7998</ele>
        <time>2026-05-13T10:47:23+02:00</time>
      </trkpt>
      <trkpt lat="45.89743" lon="4.80646">
        <ele>170.2002</ele>
        <time>2026-05-13T10:47:24+02:00</time>
      </trkpt>
      <trkpt lat="45.89748" lon="4.80641">
        <ele>169.90039</ele>
        <time>2026-05-13T10:47:25+02:00</time>
      </trkpt>
      <trkpt lat="45.89753" lon="4.80636">
        <ele>169.90039</ele>
        <time>2026-05-13T10:47:26+02:00</time>
      </trkpt>
      <trkpt lat="45.89758" lon="4.80632">
        <ele>169.2002</ele>
        <time>2026-05-13T10:47:27+02:00</time>
      </trkpt>
      <trkpt lat="45.89763" lon="4.80628">
        <ele>169.2998</ele>
        <time>2026-05-13T10:47:28+02:00</time>
      </trkpt>
      <trkpt lat="45.89768" lon="4.80624">
        <ele>168.60059</ele>
        <time>2026-05-13T10:47:29+02:00</time>
      </trkpt>
      <trkpt lat="45.89773" lon="4.8062">
        <ele>168.7002</ele>
        <time>2026-05-13T10:47:30+02:00</time>
      </trkpt>
      <trkpt lat="45.89778" lon="4.80615">
        <ele>168.2002</ele>
        <time>2026-05-13T10:47:31+02:00</time>
      </trkpt>
      <trkpt lat="45.89782" lon="4.80612">
        <ele>168.2002</ele>
        <time>2026-05-13T10:47:32+02:00</time>
      </trkpt>
      <trkpt lat="45.89787" lon="4.80608">
        <ele>167.7998</ele>
        <time>2026-05-13T10:47:33+02:00</time>
      </trkpt>
      <trkpt lat="45.89792" lon="4.80604">
        <ele>168</ele>
        <time>2026-05-13T10:47:34+02:00</time>
      </trkpt>
      <trkpt lat="45.89797" lon="4.806">
        <ele>167.7002</ele>
        <time>2026-05-13T10:47:35+02:00</time>
      </trkpt>
      <trkpt lat="45.89802" lon="4.80596">
        <ele>168</ele>
        <time>2026-05-13T10:47:36+02:00</time>
      </trkpt>
      <trkpt lat="45.89807" lon="4.80593">
        <ele>168</ele>
        <time>2026-05-13T10:47:37+02:00</time>
      </trkpt>
      <trkpt lat="45.89812" lon="4.80589">
        <ele>168</ele>
        <time>2026-05-13T10:47:38+02:00</time>
      </trkpt>
      <trkpt lat="45.89817" lon="4.80586">
        <ele>168.2998</ele>
        <time>2026-05-13T10:47:39+02:00</time>
      </trkpt>
      <trkpt lat="45.89822" lon="4.80582">
        <ele>168</ele>
        <time>2026-05-13T10:47:40+02:00</time>
      </trkpt>
      <trkpt lat="45.89827" lon="4.80579">
        <ele>168.2002</ele>
        <time>2026-05-13T10:47:41+02:00</time>
      </trkpt>
      <trkpt lat="45.89832" lon="4.80576">
        <ele>168.40039</ele>
        <time>2026-05-13T10:47:42+02:00</time>
      </trkpt>
      <trkpt lat="45.89836" lon="4.80573">
        <ele>167.7998</ele>
        <time>2026-05-13T10:47:43+02:00</time>
      </trkpt>
      <trkpt lat="45.89841" lon="4.80569">
        <ele>168</ele>
        <time>2026-05-13T10:47:44+02:00</time>
      </trkpt>
      <trkpt lat="45.89846" lon="4.80567">
        <ele>168.2002</ele>
        <time>2026-05-13T10:47:45+02:00</time>
      </trkpt>
      <trkpt lat="45.89851" lon="4.80564">
        <ele>167.7998</ele>
        <time>2026-05-13T10:47:46+02:00</time>
      </trkpt>
      <trkpt lat="45.89856" lon="4.80561">
        <ele>167.90039</ele>
        <time>2026-05-13T10:47:47+02:00</time>
      </trkpt>
      <trkpt lat="45.89861" lon="4.80559">
        <ele>167.90039</ele>
        <time>2026-05-13T10:47:48+02:00</time>
      </trkpt>
      <trkpt lat="45.89866" lon="4.80556">
        <ele>167.7002</ele>
        <time>2026-05-13T10:47:49+02:00</time>
      </trkpt>
      <trkpt lat="45.8987" lon="4.80553">
        <ele>167.90039</ele>
        <time>2026-05-13T10:47:50+02:00</time>
      </trkpt>
      <trkpt lat="45.89875" lon="4.8055">
        <ele>168.10059</ele>
        <time>2026-05-13T10:47:51+02:00</time>
      </trkpt>
      <trkpt lat="45.8988" lon="4.80548">
        <ele>168</ele>
        <time>2026-05-13T10:47:52+02:00</time>
      </trkpt>
      <trkpt lat="45.89885" lon="4.80545">
        <ele>168.10059</ele>
        <time>2026-05-13T10:47:53+02:00</time>
      </trkpt>
      <trkpt lat="45.8989" lon="4.80542">
        <ele>168.10059</ele>
        <time>2026-05-13T10:47:54+02:00</time>
      </trkpt>
      <trkpt lat="45.89895" lon="4.80538">
        <ele>167.7998</ele>
        <time>2026-05-13T10:47:55+02:00</time>
      </trkpt>
      <trkpt lat="45.899" lon="4.80535">
        <ele>167.7998</ele>
        <time>2026-05-13T10:47:56+02:00</time>
      </trkpt>
      <trkpt lat="45.89905" lon="4.80532">
        <ele>167.90039</ele>
        <time>2026-05-13T10:47:57+02:00</time>
      </trkpt>
      <trkpt lat="45.8991" lon="4.80529">
        <ele>167.5</ele>
        <time>2026-05-13T10:47:58+02:00</time>
      </trkpt>
      <trkpt lat="45.89914" lon="4.80526">
        <ele>167.5</ele>
        <time>2026-05-13T10:47:59+02:00</time>
      </trkpt>
      <trkpt lat="45.89919" lon="4.80524">
        <ele>167.60059</ele>
        <time>2026-05-13T10:48:00+02:00</time>
      </trkpt>
      <trkpt lat="45.89924" lon="4.80522">
        <ele>167.2998</ele>
        <time>2026-05-13T10:48:01+02:00</time>
      </trkpt>
      <trkpt lat="45.8993" lon="4.8052">
        <ele>167.2998</ele>
        <time>2026-05-13T10:48:02+02:00</time>
      </trkpt>
      <trkpt lat="45.89935" lon="4.80518">
        <ele>167.2998</ele>
        <time>2026-05-13T10:48:03+02:00</time>
      </trkpt>
      <trkpt lat="45.8994" lon="4.80517">
        <ele>167.2998</ele>
        <time>2026-05-13T10:48:04+02:00</time>
      </trkpt>
      <trkpt lat="45.89945" lon="4.80516">
        <ele>167.2998</ele>
        <time>2026-05-13T10:48:05+02:00</time>
      </trkpt>
      <trkpt lat="45.89951" lon="4.80515">
        <ele>167.40039</ele>
        <time>2026-05-13T10:48:06+02:00</time>
      </trkpt>
      <trkpt lat="45.89956" lon="4.80515">
        <ele>167.40039</ele>
        <time>2026-05-13T10:48:07+02:00</time>
      </trkpt>
      <trkpt lat="45.89961" lon="4.80514">
        <ele>167.10059</ele>
        <time>2026-05-13T10:48:08+02:00</time>
      </trkpt>
      <trkpt lat="45.89967" lon="4.80513">
        <ele>167.10059</ele>
        <time>2026-05-13T10:48:09+02:00</time>
      </trkpt>
      <trkpt lat="45.89972" lon="4.80513">
        <ele>167.10059</ele>
        <time>2026-05-13T10:48:10+02:00</time>
      </trkpt>
      <trkpt lat="45.89978" lon="4.80512">
        <ele>167.10059</ele>
        <time>2026-05-13T10:48:11+02:00</time>
      </trkpt>
      <trkpt lat="45.89983" lon="4.80512">
        <ele>167.2002</ele>
        <time>2026-05-13T10:48:12+02:00</time>
      </trkpt>
      <trkpt lat="45.89989" lon="4.80511">
        <ele>167.2002</ele>
        <time>2026-05-13T10:48:13+02:00</time>
      </trkpt>
      <trkpt lat="45.89994" lon="4.80511">
        <ele>167.2002</ele>
        <time>2026-05-13T10:48:14+02:00</time>
      </trkpt>
      <trkpt lat="45.89999" lon="4.80511">
        <ele>167.2002</ele>
        <time>2026-05-13T10:48:15+02:00</time>
      </trkpt>
      <trkpt lat="45.90004" lon="4.8051">
        <ele>167.2002</ele>
        <time>2026-05-13T10:48:16+02:00</time>
      </trkpt>
      <trkpt lat="45.9001" lon="4.8051">
        <ele>167.2002</ele>
        <time>2026-05-13T10:48:17+02:00</time>
      </trkpt>
      <trkpt lat="45.90016" lon="4.8051">
        <ele>167.2002</ele>
        <time>2026-05-13T10:48:18+02:00</time>
      </trkpt>
      <trkpt lat="45.90021" lon="4.8051">
        <ele>167.2002</ele>
        <time>2026-05-13T10:48:19+02:00</time>
      </trkpt>
      <trkpt lat="45.90027" lon="4.80511">
        <ele>167.2002</ele>
        <time>2026-05-13T10:48:20+02:00</time>
      </trkpt>
      <trkpt lat="45.90032" lon="4.80511">
        <ele>167.2998</ele>
        <time>2026-05-13T10:48:21+02:00</time>
      </trkpt>
      <trkpt lat="45.90037" lon="4.80512">
        <ele>167.2998</ele>
        <time>2026-05-13T10:48:22+02:00</time>
      </trkpt>
      <trkpt lat="45.90043" lon="4.80512">
        <ele>167.2998</ele>
        <time>2026-05-13T10:48:23+02:00</time>
      </trkpt>
      <trkpt lat="45.90048" lon="4.80513">
        <ele>167.2998</ele>
        <time>2026-05-13T10:48:24+02:00</time>
      </trkpt>
      <trkpt lat="45.90054" lon="4.80513">
        <ele>167.2998</ele>
        <time>2026-05-13T10:48:25+02:00</time>
      </trkpt>
      <trkpt lat="45.90059" lon="4.80514">
        <ele>167.2998</ele>
        <time>2026-05-13T10:48:26+02:00</time>
      </trkpt>
      <trkpt lat="45.90065" lon="4.80514">
        <ele>167.2998</ele>
        <time>2026-05-13T10:48:27+02:00</time>
      </trkpt>
      <trkpt lat="45.9007" lon="4.80514">
        <ele>167.2998</ele>
        <time>2026-05-13T10:48:28+02:00</time>
      </trkpt>
      <trkpt lat="45.90076" lon="4.80515">
        <ele>167.5</ele>
        <time>2026-05-13T10:48:29+02:00</time>
      </trkpt>
      <trkpt lat="45.90081" lon="4.80516">
        <ele>167.5</ele>
        <time>2026-05-13T10:48:30+02:00</time>
      </trkpt>
      <trkpt lat="45.90086" lon="4.80517">
        <ele>167.5</ele>
        <time>2026-05-13T10:48:31+02:00</time>
      </trkpt>
      <trkpt lat="45.90092" lon="4.80518">
        <ele>167.5</ele>
        <time>2026-05-13T10:48:32+02:00</time>
      </trkpt>
      <trkpt lat="45.90098" lon="4.80519">
        <ele>167.40039</ele>
        <time>2026-05-13T10:48:33+02:00</time>
      </trkpt>
      <trkpt lat="45.90103" lon="4.80521">
        <ele>167.40039</ele>
        <time>2026-05-13T10:48:34+02:00</time>
      </trkpt>
      <trkpt lat="45.90108" lon="4.80522">
        <ele>167.2998</ele>
        <time>2026-05-13T10:48:35+02:00</time>
      </trkpt>
      <trkpt lat="45.90114" lon="4.80523">
        <ele>167.2998</ele>
        <time>2026-05-13T10:48:36+02:00</time>
      </trkpt>
      <trkpt lat="45.90119" lon="4.80525">
        <ele>167.5</ele>
        <time>2026-05-13T10:48:37+02:00</time>
      </trkpt>
      <trkpt lat="45.90124" lon="4.80526">
        <ele>167.40039</ele>
        <time>2026-05-13T10:48:38+02:00</time>
      </trkpt>
      <trkpt lat="45.90129" lon="4.80528">
        <ele>167.40039</ele>
        <time>2026-05-13T10:48:39+02:00</time>
      </trkpt>
      <trkpt lat="45.90134" lon="4.8053">
        <ele>167.2998</ele>
        <time>2026-05-13T10:48:40+02:00</time>
      </trkpt>
      <trkpt lat="45.90139" lon="4.80532">
        <ele>167.5</ele>
        <time>2026-05-13T10:48:41+02:00</time>
      </trkpt>
      <trkpt lat="45.90144" lon="4.80534">
        <ele>167.40039</ele>
        <time>2026-05-13T10:48:42+02:00</time>
      </trkpt>
      <trkpt lat="45.90149" lon="4.80536">
        <ele>167.2998</ele>
        <time>2026-05-13T10:48:43+02:00</time>
      </trkpt>
      <trkpt lat="45.90155" lon="4.80538">
        <ele>167.2998</ele>
        <time>2026-05-13T10:48:44+02:00</time>
      </trkpt>
      <trkpt lat="45.9016" lon="4.8054">
        <ele>167.2002</ele>
        <time>2026-05-13T10:48:45+02:00</time>
      </trkpt>
      <trkpt lat="45.90165" lon="4.80543">
        <ele>167.5</ele>
        <time>2026-05-13T10:48:46+02:00</time>
      </trkpt>
      <trkpt lat="45.90171" lon="4.80546">
        <ele>167.40039</ele>
        <time>2026-05-13T10:48:47+02:00</time>
      </trkpt>
      <trkpt lat="45.90176" lon="4.80548">
        <ele>167.2998</ele>
        <time>2026-05-13T10:48:48+02:00</time>
      </trkpt>
      <trkpt lat="45.90181" lon="4.8055">
        <ele>167.40039</ele>
        <time>2026-05-13T10:48:49+02:00</time>
      </trkpt>
      <trkpt lat="45.90186" lon="4.80553">
        <ele>167.2998</ele>
        <time>2026-05-13T10:48:50+02:00</time>
      </trkpt>
      <trkpt lat="45.90191" lon="4.80555">
        <ele>167.2002</ele>
        <time>2026-05-13T10:48:51+02:00</time>
      </trkpt>
      <trkpt lat="45.90197" lon="4.80558">
        <ele>167.40039</ele>
        <time>2026-05-13T10:48:52+02:00</time>
      </trkpt>
      <trkpt lat="45.90202" lon="4.80561">
        <ele>167.2998</ele>
        <time>2026-05-13T10:48:53+02:00</time>
      </trkpt>
      <trkpt lat="45.90207" lon="4.80564">
        <ele>167.2998</ele>
        <time>2026-05-13T10:48:54+02:00</time>
      </trkpt>
      <trkpt lat="45.90212" lon="4.80566">
        <ele>167.2998</ele>
        <time>2026-05-13T10:48:55+02:00</time>
      </trkpt>
      <trkpt lat="45.90217" lon="4.8057">
        <ele>167.5</ele>
        <time>2026-05-13T10:48:56+02:00</time>
      </trkpt>
      <trkpt lat="45.90222" lon="4.80573">
        <ele>167.5</ele>
        <time>2026-05-13T10:48:57+02:00</time>
      </trkpt>
      <trkpt lat="45.90227" lon="4.80576">
        <ele>167.7002</ele>
        <time>2026-05-13T10:48:58+02:00</time>
      </trkpt>
      <trkpt lat="45.90232" lon="4.8058">
        <ele>167.5</ele>
        <time>2026-05-13T10:48:59+02:00</time>
      </trkpt>
      <trkpt lat="45.90237" lon="4.80583">
        <ele>167.5</ele>
        <time>2026-05-13T10:49:00+02:00</time>
      </trkpt>
      <trkpt lat="45.90242" lon="4.80587">
        <ele>167.7002</ele>
        <time>2026-05-13T10:49:01+02:00</time>
      </trkpt>
      <trkpt lat="45.90247" lon="4.8059">
        <ele>167.5</ele>
        <time>2026-05-13T10:49:02+02:00</time>
      </trkpt>
      <trkpt lat="45.90251" lon="4.80594">
        <ele>167.7002</ele>
        <time>2026-05-13T10:49:03+02:00</time>
      </trkpt>
      <trkpt lat="45.90256" lon="4.80597">
        <ele>167.5</ele>
        <time>2026-05-13T10:49:04+02:00</time>
      </trkpt>
      <trkpt lat="45.90261" lon="4.80601">
        <ele>167.7998</ele>
        <time>2026-05-13T10:49:05+02:00</time>
      </trkpt>
      <trkpt lat="45.90265" lon="4.80604">
        <ele>167.60059</ele>
        <time>2026-05-13T10:49:06+02:00</time>
      </trkpt>
      <trkpt lat="45.9027" lon="4.80607">
        <ele>167.40039</ele>
        <time>2026-05-13T10:49:07+02:00</time>
      </trkpt>
      <trkpt lat="45.90275" lon="4.80611">
        <ele>167.5</ele>
        <time>2026-05-13T10:49:08+02:00</time>
      </trkpt>
      <trkpt lat="45.9028" lon="4.80614">
        <ele>167.2998</ele>
        <time>2026-05-13T10:49:09+02:00</time>
      </trkpt>
      <trkpt lat="45.90284" lon="4.80618">
        <ele>167.7002</ele>
        <time>2026-05-13T10:49:10+02:00</time>
      </trkpt>
      <trkpt lat="45.90289" lon="4.80622">
        <ele>167.5</ele>
        <time>2026-05-13T10:49:11+02:00</time>
      </trkpt>
      <trkpt lat="45.90294" lon="4.80625">
        <ele>167.2998</ele>
        <time>2026-05-13T10:49:12+02:00</time>
      </trkpt>
      <trkpt lat="45.90298" lon="4.8063">
        <ele>167.40039</ele>
        <time>2026-05-13T10:49:13+02:00</time>
      </trkpt>
      <trkpt lat="45.90303" lon="4.80634">
        <ele>167.2002</ele>
        <time>2026-05-13T10:49:14+02:00</time>
      </trkpt>
      <trkpt lat="45.90307" lon="4.80638">
        <ele>167.5</ele>
        <time>2026-05-13T10:49:15+02:00</time>
      </trkpt>
      <trkpt lat="45.90311" lon="4.80643">
        <ele>167.40039</ele>
        <time>2026-05-13T10:49:16+02:00</time>
      </trkpt>
      <trkpt lat="45.90315" lon="4.80648">
        <ele>167.60059</ele>
        <time>2026-05-13T10:49:17+02:00</time>
      </trkpt>
      <trkpt lat="45.9032" lon="4.80653">
        <ele>167.7002</ele>
        <time>2026-05-13T10:49:18+02:00</time>
      </trkpt>
      <trkpt lat="45.90324" lon="4.80657">
        <ele>167.5</ele>
        <time>2026-05-13T10:49:19+02:00</time>
      </trkpt>
      <trkpt lat="45.90328" lon="4.80662">
        <ele>167.60059</ele>
        <time>2026-05-13T10:49:20+02:00</time>
      </trkpt>
      <trkpt lat="45.90332" lon="4.80666">
        <ele>167.60059</ele>
        <time>2026-05-13T10:49:21+02:00</time>
      </trkpt>
      <trkpt lat="45.90336" lon="4.80671">
        <ele>167.7002</ele>
        <time>2026-05-13T10:49:22+02:00</time>
      </trkpt>
      <trkpt lat="45.90339" lon="4.80676">
        <ele>167.5</ele>
        <time>2026-05-13T10:49:23+02:00</time>
      </trkpt>
      <trkpt lat="45.90343" lon="4.80681">
        <ele>167.7998</ele>
        <time>2026-05-13T10:49:24+02:00</time>
      </trkpt>
      <trkpt lat="45.90347" lon="4.80686">
        <ele>167.60059</ele>
        <time>2026-05-13T10:49:25+02:00</time>
      </trkpt>
      <trkpt lat="45.90351" lon="4.80691">
        <ele>167.60059</ele>
        <time>2026-05-13T10:49:26+02:00</time>
      </trkpt>
      <trkpt lat="45.90355" lon="4.80697">
        <ele>167.90039</ele>
        <time>2026-05-13T10:49:27+02:00</time>
      </trkpt>
      <trkpt lat="45.90359" lon="4.80701">
        <ele>167.60059</ele>
        <time>2026-05-13T10:49:28+02:00</time>
      </trkpt>
      <trkpt lat="45.90363" lon="4.80706">
        <ele>167.40039</ele>
        <time>2026-05-13T10:49:29+02:00</time>
      </trkpt>
      <trkpt lat="45.90366" lon="4.80711">
        <ele>167.40039</ele>
        <time>2026-05-13T10:49:30+02:00</time>
      </trkpt>
      <trkpt lat="45.9037" lon="4.80716">
        <ele>167.2998</ele>
        <time>2026-05-13T10:49:31+02:00</time>
      </trkpt>
      <trkpt lat="45.90373" lon="4.80722">
        <ele>167.40039</ele>
        <time>2026-05-13T10:49:32+02:00</time>
      </trkpt>
      <trkpt lat="45.90376" lon="4.80728">
        <ele>167.2002</ele>
        <time>2026-05-13T10:49:33+02:00</time>
      </trkpt>
      <trkpt lat="45.9038" lon="4.80733">
        <ele>167.2998</ele>
        <time>2026-05-13T10:49:34+02:00</time>
      </trkpt>
      <trkpt lat="45.90383" lon="4.80739">
        <ele>167.40039</ele>
        <time>2026-05-13T10:49:35+02:00</time>
      </trkpt>
      <trkpt lat="45.90386" lon="4.80745">
        <ele>167.40039</ele>
        <time>2026-05-13T10:49:36+02:00</time>
      </trkpt>
      <trkpt lat="45.90389" lon="4.8075">
        <ele>167.5</ele>
        <time>2026-05-13T10:49:37+02:00</time>
      </trkpt>
      <trkpt lat="45.90392" lon="4.80755">
        <ele>167.7002</ele>
        <time>2026-05-13T10:49:38+02:00</time>
      </trkpt>
      <trkpt lat="45.90395" lon="4.8076">
        <ele>167.40039</ele>
        <time>2026-05-13T10:49:39+02:00</time>
      </trkpt>
      <trkpt lat="45.90399" lon="4.80765">
        <ele>167.40039</ele>
        <time>2026-05-13T10:49:40+02:00</time>
      </trkpt>
      <trkpt lat="45.90403" lon="4.8077">
        <ele>167.40039</ele>
        <time>2026-05-13T10:49:41+02:00</time>
      </trkpt>
      <trkpt lat="45.90406" lon="4.80776">
        <ele>167.5</ele>
        <time>2026-05-13T10:49:42+02:00</time>
      </trkpt>
      <trkpt lat="45.90409" lon="4.80781">
        <ele>167.7002</ele>
        <time>2026-05-13T10:49:43+02:00</time>
      </trkpt>
      <trkpt lat="45.90413" lon="4.80786">
        <ele>167.5</ele>
        <time>2026-05-13T10:49:44+02:00</time>
      </trkpt>
      <trkpt lat="45.90416" lon="4.80792">
        <ele>167.60059</ele>
        <time>2026-05-13T10:49:45+02:00</time>
      </trkpt>
      <trkpt lat="45.90419" lon="4.80797">
        <ele>167.2998</ele>
        <time>2026-05-13T10:49:46+02:00</time>
      </trkpt>
      <trkpt lat="45.90422" lon="4.80803">
        <ele>167.5</ele>
        <time>2026-05-13T10:49:47+02:00</time>
      </trkpt>
      <trkpt lat="45.90424" lon="4.80808">
        <ele>167.5</ele>
        <time>2026-05-13T10:49:48+02:00</time>
      </trkpt>
      <trkpt lat="45.90427" lon="4.80813">
        <ele>167.5</ele>
        <time>2026-05-13T10:49:49+02:00</time>
      </trkpt>
      <trkpt lat="45.90429" lon="4.80818">
        <ele>167.5</ele>
        <time>2026-05-13T10:49:50+02:00</time>
      </trkpt>
      <trkpt lat="45.90432" lon="4.80823">
        <ele>167.5</ele>
        <time>2026-05-13T10:49:51+02:00</time>
      </trkpt>
      <trkpt lat="45.90435" lon="4.80827">
        <ele>167.60059</ele>
        <time>2026-05-13T10:49:52+02:00</time>
      </trkpt>
      <trkpt lat="45.90437" lon="4.80832">
        <ele>167.60059</ele>
        <time>2026-05-13T10:49:53+02:00</time>
      </trkpt>
      <trkpt lat="45.90439" lon="4.80838">
        <ele>167.7998</ele>
        <time>2026-05-13T10:49:54+02:00</time>
      </trkpt>
      <trkpt lat="45.90442" lon="4.80843">
        <ele>167.7998</ele>
        <time>2026-05-13T10:49:55+02:00</time>
      </trkpt>
      <trkpt lat="45.90445" lon="4.80849">
        <ele>167.7998</ele>
        <time>2026-05-13T10:49:56+02:00</time>
      </trkpt>
      <trkpt lat="45.90448" lon="4.80855">
        <ele>167.7998</ele>
        <time>2026-05-13T10:49:57+02:00</time>
      </trkpt>
      <trkpt lat="45.90451" lon="4.80861">
        <ele>168.10059</ele>
        <time>2026-05-13T10:49:58+02:00</time>
      </trkpt>
      <trkpt lat="45.90453" lon="4.80867">
        <ele>168.2002</ele>
        <time>2026-05-13T10:49:59+02:00</time>
      </trkpt>
      <trkpt lat="45.90456" lon="4.80873">
        <ele>168.2002</ele>
        <time>2026-05-13T10:50:00+02:00</time>
      </trkpt>
      <trkpt lat="45.90458" lon="4.80879">
        <ele>168.60059</ele>
        <time>2026-05-13T10:50:01+02:00</time>
      </trkpt>
      <trkpt lat="45.90461" lon="4.80885">
        <ele>168.7002</ele>
        <time>2026-05-13T10:50:02+02:00</time>
      </trkpt>
      <trkpt lat="45.90464" lon="4.80891">
        <ele>168.7002</ele>
        <time>2026-05-13T10:50:03+02:00</time>
      </trkpt>
      <trkpt lat="45.90466" lon="4.80897">
        <ele>168.7002</ele>
        <time>2026-05-13T10:50:04+02:00</time>
      </trkpt>
      <trkpt lat="45.90469" lon="4.80902">
        <ele>169</ele>
        <time>2026-05-13T10:50:05+02:00</time>
      </trkpt>
      <trkpt lat="45.90472" lon="4.80908">
        <ele>168.60059</ele>
        <time>2026-05-13T10:50:06+02:00</time>
      </trkpt>
      <trkpt lat="45.90475" lon="4.80913">
        <ele>168.90039</ele>
        <time>2026-05-13T10:50:07+02:00</time>
      </trkpt>
      <trkpt lat="45.90478" lon="4.80919">
        <ele>168.40039</ele>
        <time>2026-05-13T10:50:08+02:00</time>
      </trkpt>
      <trkpt lat="45.90481" lon="4.80925">
        <ele>168.40039</ele>
        <time>2026-05-13T10:50:09+02:00</time>
      </trkpt>
      <trkpt lat="45.90485" lon="4.8093">
        <ele>168.2002</ele>
        <time>2026-05-13T10:50:10+02:00</time>
      </trkpt>
      <trkpt lat="45.90489" lon="4.80935">
        <ele>168.10059</ele>
        <time>2026-05-13T10:50:11+02:00</time>
      </trkpt>
      <trkpt lat="45.90492" lon="4.8094">
        <ele>168.40039</ele>
        <time>2026-05-13T10:50:12+02:00</time>
      </trkpt>
      <trkpt lat="45.90496" lon="4.80945">
        <ele>168.7998</ele>
        <time>2026-05-13T10:50:13+02:00</time>
      </trkpt>
      <trkpt lat="45.90499" lon="4.8095">
        <ele>168.7998</ele>
        <time>2026-05-13T10:50:14+02:00</time>
      </trkpt>
      <trkpt lat="45.90503" lon="4.80955">
        <ele>169</ele>
        <time>2026-05-13T10:50:15+02:00</time>
      </trkpt>
      <trkpt lat="45.90507" lon="4.8096">
        <ele>168.60059</ele>
        <time>2026-05-13T10:50:16+02:00</time>
      </trkpt>
      <trkpt lat="45.90511" lon="4.80964">
        <ele>169</ele>
        <time>2026-05-13T10:50:17+02:00</time>
      </trkpt>
      <trkpt lat="45.90515" lon="4.80969">
        <ele>168.7002</ele>
        <time>2026-05-13T10:50:18+02:00</time>
      </trkpt>
      <trkpt lat="45.90519" lon="4.80973">
        <ele>168.7998</ele>
        <time>2026-05-13T10:50:19+02:00</time>
      </trkpt>
      <trkpt lat="45.90523" lon="4.80978">
        <ele>169.2998</ele>
        <time>2026-05-13T10:50:20+02:00</time>
      </trkpt>
      <trkpt lat="45.90527" lon="4.80982">
        <ele>169</ele>
        <time>2026-05-13T10:50:21+02:00</time>
      </trkpt>
      <trkpt lat="45.90531" lon="4.80986">
        <ele>168.7002</ele>
        <time>2026-05-13T10:50:22+02:00</time>
      </trkpt>
      <trkpt lat="45.90534" lon="4.8099">
        <ele>169.10059</ele>
        <time>2026-05-13T10:50:23+02:00</time>
      </trkpt>
      <trkpt lat="45.90537" lon="4.80994">
        <ele>168.7002</ele>
        <time>2026-05-13T10:50:24+02:00</time>
      </trkpt>
      <trkpt lat="45.90541" lon="4.80998">
        <ele>168.90039</ele>
        <time>2026-05-13T10:50:25+02:00</time>
      </trkpt>
      <trkpt lat="45.90544" lon="4.81002">
        <ele>168.5</ele>
        <time>2026-05-13T10:50:26+02:00</time>
      </trkpt>
      <trkpt lat="45.90547" lon="4.81007">
        <ele>168.7002</ele>
        <time>2026-05-13T10:50:27+02:00</time>
      </trkpt>
      <trkpt lat="45.90551" lon="4.81012">
        <ele>168.40039</ele>
        <time>2026-05-13T10:50:28+02:00</time>
      </trkpt>
      <trkpt lat="45.90554" lon="4.81017">
        <ele>168.40039</ele>
        <time>2026-05-13T10:50:29+02:00</time>
      </trkpt>
      <trkpt lat="45.90558" lon="4.81021">
        <ele>168.5</ele>
        <time>2026-05-13T10:50:30+02:00</time>
      </trkpt>
      <trkpt lat="45.90561" lon="4.81025">
        <ele>168.2998</ele>
        <time>2026-05-13T10:50:31+02:00</time>
      </trkpt>
      <trkpt lat="45.90565" lon="4.8103">
        <ele>168.40039</ele>
        <time>2026-05-13T10:50:32+02:00</time>
      </trkpt>
      <trkpt lat="45.90569" lon="4.81034">
        <ele>168.2002</ele>
        <time>2026-05-13T10:50:33+02:00</time>
      </trkpt>
      <trkpt lat="45.90573" lon="4.81038">
        <ele>168</ele>
        <time>2026-05-13T10:50:34+02:00</time>
      </trkpt>
      <trkpt lat="45.90577" lon="4.81042">
        <ele>168.2998</ele>
        <time>2026-05-13T10:50:35+02:00</time>
      </trkpt>
      <trkpt lat="45.9058" lon="4.81046">
        <ele>168.2002</ele>
        <time>2026-05-13T10:50:36+02:00</time>
      </trkpt>
      <trkpt lat="45.90584" lon="4.8105">
        <ele>168.2002</ele>
        <time>2026-05-13T10:50:37+02:00</time>
      </trkpt>
      <trkpt lat="45.90588" lon="4.81054">
        <ele>168.2002</ele>
        <time>2026-05-13T10:50:38+02:00</time>
      </trkpt>
      <trkpt lat="45.90592" lon="4.81058">
        <ele>168.2002</ele>
        <time>2026-05-13T10:50:39+02:00</time>
      </trkpt>
      <trkpt lat="45.90596" lon="4.81062">
        <ele>168</ele>
        <time>2026-05-13T10:50:40+02:00</time>
      </trkpt>
      <trkpt lat="45.906" lon="4.81066">
        <ele>168.40039</ele>
        <time>2026-05-13T10:50:41+02:00</time>
      </trkpt>
      <trkpt lat="45.90604" lon="4.8107">
        <ele>168.2998</ele>
        <time>2026-05-13T10:50:42+02:00</time>
      </trkpt>
      <trkpt lat="45.90608" lon="4.81075">
        <ele>168.40039</ele>
        <time>2026-05-13T10:50:43+02:00</time>
      </trkpt>
      <trkpt lat="45.90611" lon="4.81079">
        <ele>168.40039</ele>
        <time>2026-05-13T10:50:44+02:00</time>
      </trkpt>
      <trkpt lat="45.90615" lon="4.81083">
        <ele>168.2002</ele>
        <time>2026-05-13T10:50:45+02:00</time>
      </trkpt>
      <trkpt lat="45.90619" lon="4.81087">
        <ele>168.2002</ele>
        <time>2026-05-13T10:50:46+02:00</time>
      </trkpt>
      <trkpt lat="45.90623" lon="4.81091">
        <ele>167.7998</ele>
        <time>2026-05-13T10:50:47+02:00</time>
      </trkpt>
      <trkpt lat="45.90627" lon="4.81095">
        <ele>167.60059</ele>
        <time>2026-05-13T10:50:48+02:00</time>
      </trkpt>
      <trkpt lat="45.90631" lon="4.81099">
        <ele>167.60059</ele>
        <time>2026-05-13T10:50:49+02:00</time>
      </trkpt>
      <trkpt lat="45.90635" lon="4.81103">
        <ele>167.5</ele>
        <time>2026-05-13T10:50:50+02:00</time>
      </trkpt>
      <trkpt lat="45.90639" lon="4.81106">
        <ele>167.5</ele>
        <time>2026-05-13T10:50:51+02:00</time>
      </trkpt>
      <trkpt lat="45.90643" lon="4.8111">
        <ele>167.60059</ele>
        <time>2026-05-13T10:50:52+02:00</time>
      </trkpt>
      <trkpt lat="45.90648" lon="4.81114">
        <ele>167.60059</ele>
        <time>2026-05-13T10:50:53+02:00</time>
      </trkpt>
      <trkpt lat="45.90652" lon="4.81117">
        <ele>167.7002</ele>
        <time>2026-05-13T10:50:54+02:00</time>
      </trkpt>
      <trkpt lat="45.90656" lon="4.81121">
        <ele>167.60059</ele>
        <time>2026-05-13T10:50:55+02:00</time>
      </trkpt>
      <trkpt lat="45.9066" lon="4.81124">
        <ele>167.7002</ele>
        <time>2026-05-13T10:50:56+02:00</time>
      </trkpt>
      <trkpt lat="45.90664" lon="4.81128">
        <ele>167.60059</ele>
        <time>2026-05-13T10:50:57+02:00</time>
      </trkpt>
      <trkpt lat="45.90669" lon="4.81131">
        <ele>167.5</ele>
        <time>2026-05-13T10:50:58+02:00</time>
      </trkpt>
      <trkpt lat="45.90674" lon="4.81134">
        <ele>167.60059</ele>
        <time>2026-05-13T10:50:59+02:00</time>
      </trkpt>
      <trkpt lat="45.90678" lon="4.81137">
        <ele>167.60059</ele>
        <time>2026-05-13T10:51:00+02:00</time>
      </trkpt>
      <trkpt lat="45.90682" lon="4.8114">
        <ele>167.5</ele>
        <time>2026-05-13T10:51:01+02:00</time>
      </trkpt>
      <trkpt lat="45.90687" lon="4.81143">
        <ele>167.5</ele>
        <time>2026-05-13T10:51:02+02:00</time>
      </trkpt>
      <trkpt lat="45.90692" lon="4.81146">
        <ele>167.40039</ele>
        <time>2026-05-13T10:51:03+02:00</time>
      </trkpt>
      <trkpt lat="45.90696" lon="4.81149">
        <ele>167.40039</ele>
        <time>2026-05-13T10:51:04+02:00</time>
      </trkpt>
      <trkpt lat="45.90701" lon="4.81152">
        <ele>167.2998</ele>
        <time>2026-05-13T10:51:05+02:00</time>
      </trkpt>
      <trkpt lat="45.90705" lon="4.81155">
        <ele>167.2998</ele>
        <time>2026-05-13T10:51:06+02:00</time>
      </trkpt>
      <trkpt lat="45.9071" lon="4.81158">
        <ele>167.40039</ele>
        <time>2026-05-13T10:51:07+02:00</time>
      </trkpt>
      <trkpt lat="45.90715" lon="4.81161">
        <ele>167.60059</ele>
        <time>2026-05-13T10:51:08+02:00</time>
      </trkpt>
      <trkpt lat="45.90719" lon="4.81163">
        <ele>167.7002</ele>
        <time>2026-05-13T10:51:09+02:00</time>
      </trkpt>
      <trkpt lat="45.90724" lon="4.81165">
        <ele>167.7002</ele>
        <time>2026-05-13T10:51:10+02:00</time>
      </trkpt>
      <trkpt lat="45.90729" lon="4.81168">
        <ele>168</ele>
        <time>2026-05-13T10:51:11+02:00</time>
      </trkpt>
      <trkpt lat="45.90733" lon="4.8117">
        <ele>168</ele>
        <time>2026-05-13T10:51:12+02:00</time>
      </trkpt>
      <trkpt lat="45.90738" lon="4.81173">
        <ele>167.90039</ele>
        <time>2026-05-13T10:51:13+02:00</time>
      </trkpt>
      <trkpt lat="45.90743" lon="4.81175">
        <ele>167.90039</ele>
        <time>2026-05-13T10:51:14+02:00</time>
      </trkpt>
      <trkpt lat="45.90748" lon="4.81177">
        <ele>168.5</ele>
        <time>2026-05-13T10:51:15+02:00</time>
      </trkpt>
      <trkpt lat="45.90753" lon="4.81179">
        <ele>168.10059</ele>
        <time>2026-05-13T10:51:16+02:00</time>
      </trkpt>
      <trkpt lat="45.90758" lon="4.81181">
        <ele>167.7998</ele>
        <time>2026-05-13T10:51:17+02:00</time>
      </trkpt>
      <trkpt lat="45.90762" lon="4.81183">
        <ele>167.7998</ele>
        <time>2026-05-13T10:51:18+02:00</time>
      </trkpt>
      <trkpt lat="45.90767" lon="4.81184">
        <ele>167.5</ele>
        <time>2026-05-13T10:51:19+02:00</time>
      </trkpt>
      <trkpt lat="45.90773" lon="4.81186">
        <ele>167.60059</ele>
        <time>2026-05-13T10:51:20+02:00</time>
      </trkpt>
      <trkpt lat="45.90778" lon="4.81188">
        <ele>167.7002</ele>
        <time>2026-05-13T10:51:21+02:00</time>
      </trkpt>
      <trkpt lat="45.90783" lon="4.81189">
        <ele>167.90039</ele>
        <time>2026-05-13T10:51:22+02:00</time>
      </trkpt>
      <trkpt lat="45.90788" lon="4.81191">
        <ele>167.90039</ele>
        <time>2026-05-13T10:51:23+02:00</time>
      </trkpt>
      <trkpt lat="45.90793" lon="4.81192">
        <ele>167.90039</ele>
        <time>2026-05-13T10:51:24+02:00</time>
      </trkpt>
      <trkpt lat="45.90798" lon="4.81194">
        <ele>168.2998</ele>
        <time>2026-05-13T10:51:25+02:00</time>
      </trkpt>
      <trkpt lat="45.90803" lon="4.81195">
        <ele>168.2998</ele>
        <time>2026-05-13T10:51:26+02:00</time>
      </trkpt>
      <trkpt lat="45.90808" lon="4.81197">
        <ele>168.2998</ele>
        <time>2026-05-13T10:51:27+02:00</time>
      </trkpt>
      <trkpt lat="45.90813" lon="4.81198">
        <ele>168.2002</ele>
        <time>2026-05-13T10:51:28+02:00</time>
      </trkpt>
      <trkpt lat="45.90818" lon="4.812">
        <ele>168.2002</ele>
        <time>2026-05-13T10:51:29+02:00</time>
      </trkpt>
      <trkpt lat="45.90823" lon="4.81201">
        <ele>168.10059</ele>
        <time>2026-05-13T10:51:30+02:00</time>
      </trkpt>
      <trkpt lat="45.90828" lon="4.81203">
        <ele>169</ele>
        <time>2026-05-13T10:51:31+02:00</time>
      </trkpt>
      <trkpt lat="45.90832" lon="4.81205">
        <ele>168.90039</ele>
        <time>2026-05-13T10:51:32+02:00</time>
      </trkpt>
      <trkpt lat="45.90838" lon="4.81206">
        <ele>168.7002</ele>
        <time>2026-05-13T10:51:33+02:00</time>
      </trkpt>
      <trkpt lat="45.90842" lon="4.81208">
        <ele>168.2002</ele>
        <time>2026-05-13T10:51:34+02:00</time>
      </trkpt>
      <trkpt lat="45.90847" lon="4.8121">
        <ele>167.7998</ele>
        <time>2026-05-13T10:51:35+02:00</time>
      </trkpt>
      <trkpt lat="45.90852" lon="4.81211">
        <ele>167.7998</ele>
        <time>2026-05-13T10:51:36+02:00</time>
      </trkpt>
      <trkpt lat="45.90857" lon="4.81213">
        <ele>167</ele>
        <time>2026-05-13T10:51:37+02:00</time>
      </trkpt>
      <trkpt lat="45.90862" lon="4.81215">
        <ele>166.90039</ele>
        <time>2026-05-13T10:51:38+02:00</time>
      </trkpt>
      <trkpt lat="45.90867" lon="4.81217">
        <ele>167.10059</ele>
        <time>2026-05-13T10:51:39+02:00</time>
      </trkpt>
      <trkpt lat="45.90872" lon="4.81218">
        <ele>167.2998</ele>
        <time>2026-05-13T10:51:40+02:00</time>
      </trkpt>
      <trkpt lat="45.90877" lon="4.8122">
        <ele>167.90039</ele>
        <time>2026-05-13T10:51:41+02:00</time>
      </trkpt>
      <trkpt lat="45.90883" lon="4.81221">
        <ele>167.7998</ele>
        <time>2026-05-13T10:51:42+02:00</time>
      </trkpt>
      <trkpt lat="45.90888" lon="4.81223">
        <ele>167.7998</ele>
        <time>2026-05-13T10:51:43+02:00</time>
      </trkpt>
      <trkpt lat="45.90893" lon="4.81224">
        <ele>167.7002</ele>
        <time>2026-05-13T10:51:44+02:00</time>
      </trkpt>
      <trkpt lat="45.90898" lon="4.81225">
        <ele>167.60059</ele>
        <time>2026-05-13T10:51:45+02:00</time>
      </trkpt>
      <trkpt lat="45.90902" lon="4.81227">
        <ele>167.5</ele>
        <time>2026-05-13T10:51:46+02:00</time>
      </trkpt>
      <trkpt lat="45.90907" lon="4.81228">
        <ele>167.5</ele>
        <time>2026-05-13T10:51:47+02:00</time>
      </trkpt>
      <trkpt lat="45.90913" lon="4.81229">
        <ele>167.5</ele>
        <time>2026-05-13T10:51:48+02:00</time>
      </trkpt>
      <trkpt lat="45.90918" lon="4.8123">
        <ele>167.5</ele>
        <time>2026-05-13T10:51:49+02:00</time>
      </trkpt>
      <trkpt lat="45.90923" lon="4.81232">
        <ele>167.7002</ele>
        <time>2026-05-13T10:51:50+02:00</time>
      </trkpt>
      <trkpt lat="45.90928" lon="4.81233">
        <ele>167.7998</ele>
        <time>2026-05-13T10:51:51+02:00</time>
      </trkpt>
      <trkpt lat="45.90933" lon="4.81234">
        <ele>168.10059</ele>
        <time>2026-05-13T10:51:52+02:00</time>
      </trkpt>
      <trkpt lat="45.90938" lon="4.81235">
        <ele>168.5</ele>
        <time>2026-05-13T10:51:53+02:00</time>
      </trkpt>
      <trkpt lat="45.90943" lon="4.81236">
        <ele>169.2998</ele>
        <time>2026-05-13T10:51:54+02:00</time>
      </trkpt>
      <trkpt lat="45.90947" lon="4.81237">
        <ele>169.2998</ele>
        <time>2026-05-13T10:51:55+02:00</time>
      </trkpt>
      <trkpt lat="45.90952" lon="4.81238">
        <ele>169.40039</ele>
        <time>2026-05-13T10:51:56+02:00</time>
      </trkpt>
      <trkpt lat="45.90956" lon="4.81239">
        <ele>169.40039</ele>
        <time>2026-05-13T10:51:57+02:00</time>
      </trkpt>
      <trkpt lat="45.90962" lon="4.8124">
        <ele>169.40039</ele>
        <time>2026-05-13T10:51:58+02:00</time>
      </trkpt>
      <trkpt lat="45.90967" lon="4.81241">
        <ele>169.40039</ele>
        <time>2026-05-13T10:51:59+02:00</time>
      </trkpt>
      <trkpt lat="45.90971" lon="4.81243">
        <ele>169.40039</ele>
        <time>2026-05-13T10:52:00+02:00</time>
      </trkpt>
      <trkpt lat="45.90976" lon="4.81243">
        <ele>169.40039</ele>
        <time>2026-05-13T10:52:01+02:00</time>
      </trkpt>
      <trkpt lat="45.90981" lon="4.81244">
        <ele>169.2998</ele>
        <time>2026-05-13T10:52:02+02:00</time>
      </trkpt>
      <trkpt lat="45.90985" lon="4.81244">
        <ele>169.2998</ele>
        <time>2026-05-13T10:52:03+02:00</time>
      </trkpt>
      <trkpt lat="45.90989" lon="4.81245">
        <ele>169.5</ele>
        <time>2026-05-13T10:52:04+02:00</time>
      </trkpt>
      <trkpt lat="45.90994" lon="4.81244">
        <ele>169.2998</ele>
        <time>2026-05-13T10:52:05+02:00</time>
      </trkpt>
      <trkpt lat="45.90999" lon="4.81243">
        <ele>169.2002</ele>
        <time>2026-05-13T10:52:06+02:00</time>
      </trkpt>
      <trkpt lat="45.91003" lon="4.81241">
        <ele>169.2002</ele>
        <time>2026-05-13T10:52:07+02:00</time>
      </trkpt>
      <trkpt lat="45.91008" lon="4.81239">
        <ele>169.10059</ele>
        <time>2026-05-13T10:52:08+02:00</time>
      </trkpt>
      <trkpt lat="45.91012" lon="4.81235">
        <ele>168.7998</ele>
        <time>2026-05-13T10:52:09+02:00</time>
      </trkpt>
      <trkpt lat="45.91016" lon="4.81231">
        <ele>168.7998</ele>
        <time>2026-05-13T10:52:10+02:00</time>
      </trkpt>
      <trkpt lat="45.9102" lon="4.81227">
        <ele>168.7002</ele>
        <time>2026-05-13T10:52:11+02:00</time>
      </trkpt>
      <trkpt lat="45.91023" lon="4.81222">
        <ele>168.2998</ele>
        <time>2026-05-13T10:52:12+02:00</time>
      </trkpt>
      <trkpt lat="45.91026" lon="4.81217">
        <ele>167.7998</ele>
        <time>2026-05-13T10:52:13+02:00</time>
      </trkpt>
      <trkpt lat="45.91029" lon="4.81212">
        <ele>167.7998</ele>
        <time>2026-05-13T10:52:14+02:00</time>
      </trkpt>
      <trkpt lat="45.91033" lon="4.81207">
        <ele>167.5</ele>
        <time>2026-05-13T10:52:15+02:00</time>
      </trkpt>
      <trkpt lat="45.91036" lon="4.81202">
        <ele>167.5</ele>
        <time>2026-05-13T10:52:16+02:00</time>
      </trkpt>
      <trkpt lat="45.91039" lon="4.81197">
        <ele>167.2002</ele>
        <time>2026-05-13T10:52:17+02:00</time>
      </trkpt>
      <trkpt lat="45.91044" lon="4.81193">
        <ele>167.2002</ele>
        <time>2026-05-13T10:52:18+02:00</time>
      </trkpt>
      <trkpt lat="45.91048" lon="4.8119">
        <ele>167</ele>
        <time>2026-05-13T10:52:19+02:00</time>
      </trkpt>
      <trkpt lat="45.91052" lon="4.81186">
        <ele>167</ele>
        <time>2026-05-13T10:52:20+02:00</time>
      </trkpt>
      <trkpt lat="45.91057" lon="4.81184">
        <ele>166.90039</ele>
        <time>2026-05-13T10:52:21+02:00</time>
      </trkpt>
      <trkpt lat="45.91061" lon="4.81181">
        <ele>166.90039</ele>
        <time>2026-05-13T10:52:22+02:00</time>
      </trkpt>
      <trkpt lat="45.91066" lon="4.81179">
        <ele>166.90039</ele>
        <time>2026-05-13T10:52:23+02:00</time>
      </trkpt>
      <trkpt lat="45.91071" lon="4.81178">
        <ele>166.90039</ele>
        <time>2026-05-13T10:52:24+02:00</time>
      </trkpt>
      <trkpt lat="45.91076" lon="4.81176">
        <ele>166.90039</ele>
        <time>2026-05-13T10:52:25+02:00</time>
      </trkpt>
      <trkpt lat="45.91081" lon="4.81175">
        <ele>166.90039</ele>
        <time>2026-05-13T10:52:26+02:00</time>
      </trkpt>
      <trkpt lat="45.91086" lon="4.81174">
        <ele>166.90039</ele>
        <time>2026-05-13T10:52:27+02:00</time>
      </trkpt>
      <trkpt lat="45.91091" lon="4.81174">
        <ele>166.90039</ele>
        <time>2026-05-13T10:52:28+02:00</time>
      </trkpt>
      <trkpt lat="45.91096" lon="4.81173">
        <ele>166.90039</ele>
        <time>2026-05-13T10:52:29+02:00</time>
      </trkpt>
      <trkpt lat="45.91101" lon="4.81173">
        <ele>166.90039</ele>
        <time>2026-05-13T10:52:30+02:00</time>
      </trkpt>
      <trkpt lat="45.91107" lon="4.81173">
        <ele>166.90039</ele>
        <time>2026-05-13T10:52:31+02:00</time>
      </trkpt>
      <trkpt lat="45.91112" lon="4.81172">
        <ele>166.90039</ele>
        <time>2026-05-13T10:52:32+02:00</time>
      </trkpt>
      <trkpt lat="45.91117" lon="4.81172">
        <ele>166.90039</ele>
        <time>2026-05-13T10:52:33+02:00</time>
      </trkpt>
      <trkpt lat="45.91122" lon="4.81171">
        <ele>166.90039</ele>
        <time>2026-05-13T10:52:34+02:00</time>
      </trkpt>
      <trkpt lat="45.91127" lon="4.81171">
        <ele>166.90039</ele>
        <time>2026-05-13T10:52:35+02:00</time>
      </trkpt>
      <trkpt lat="45.91132" lon="4.8117">
        <ele>166.90039</ele>
        <time>2026-05-13T10:52:36+02:00</time>
      </trkpt>
      <trkpt lat="45.91137" lon="4.81169">
        <ele>166.90039</ele>
        <time>2026-05-13T10:52:37+02:00</time>
      </trkpt>
      <trkpt lat="45.91142" lon="4.81169">
        <ele>167</ele>
        <time>2026-05-13T10:52:38+02:00</time>
      </trkpt>
      <trkpt lat="45.91148" lon="4.81168">
        <ele>167.10059</ele>
        <time>2026-05-13T10:52:39+02:00</time>
      </trkpt>
      <trkpt lat="45.91153" lon="4.81167">
        <ele>167.2002</ele>
        <time>2026-05-13T10:52:40+02:00</time>
      </trkpt>
      <trkpt lat="45.91158" lon="4.81166">
        <ele>167.2002</ele>
        <time>2026-05-13T10:52:41+02:00</time>
      </trkpt>
      <trkpt lat="45.91163" lon="4.81165">
        <ele>167.2002</ele>
        <time>2026-05-13T10:52:42+02:00</time>
      </trkpt>
      <trkpt lat="45.91168" lon="4.81165">
        <ele>167.2998</ele>
        <time>2026-05-13T10:52:43+02:00</time>
      </trkpt>
      <trkpt lat="45.91174" lon="4.81164">
        <ele>167.5</ele>
        <time>2026-05-13T10:52:44+02:00</time>
      </trkpt>
      <trkpt lat="45.91189" lon="4.81162">
        <ele>167.60059</ele>
        <time>2026-05-13T10:52:45+02:00</time>
      </trkpt>
      <trkpt lat="45.91194" lon="4.81161">
        <ele>167.7002</ele>
        <time>2026-05-13T10:52:46+02:00</time>
      </trkpt>
      <trkpt lat="45.91199" lon="4.81161">
        <ele>167.7002</ele>
        <time>2026-05-13T10:52:47+02:00</time>
      </trkpt>
      <trkpt lat="45.91204" lon="4.8116">
        <ele>167.7002</ele>
        <time>2026-05-13T10:52:48+02:00</time>
      </trkpt>
      <trkpt lat="45.91209" lon="4.81159">
        <ele>167.60059</ele>
        <time>2026-05-13T10:52:49+02:00</time>
      </trkpt>
      <trkpt lat="45.91214" lon="4.81159">
        <ele>167.60059</ele>
        <time>2026-05-13T10:52:50+02:00</time>
      </trkpt>
      <trkpt lat="45.91219" lon="4.81159">
        <ele>167.60059</ele>
        <time>2026-05-13T10:52:51+02:00</time>
      </trkpt>
      <trkpt lat="45.91224" lon="4.81159">
        <ele>167.60059</ele>
        <time>2026-05-13T10:52:52+02:00</time>
      </trkpt>
      <trkpt lat="45.91229" lon="4.81159">
        <ele>167.60059</ele>
        <time>2026-05-13T10:52:53+02:00</time>
      </trkpt>
      <trkpt lat="45.91234" lon="4.81158">
        <ele>167.2998</ele>
        <time>2026-05-13T10:52:54+02:00</time>
      </trkpt>
      <trkpt lat="45.91239" lon="4.81158">
        <ele>167.2998</ele>
        <time>2026-05-13T10:52:55+02:00</time>
      </trkpt>
      <trkpt lat="45.91244" lon="4.81158">
        <ele>167.2998</ele>
        <time>2026-05-13T10:52:56+02:00</time>
      </trkpt>
      <trkpt lat="45.91249" lon="4.81158">
        <ele>167.2998</ele>
        <time>2026-05-13T10:52:57+02:00</time>
      </trkpt>
      <trkpt lat="45.91254" lon="4.81159">
        <ele>167.5</ele>
        <time>2026-05-13T10:52:58+02:00</time>
      </trkpt>
      <trkpt lat="45.91259" lon="4.81159">
        <ele>167.40039</ele>
        <time>2026-05-13T10:52:59+02:00</time>
      </trkpt>
      <trkpt lat="45.91264" lon="4.81159">
        <ele>167.40039</ele>
        <time>2026-05-13T10:53:00+02:00</time>
      </trkpt>
      <trkpt lat="45.91269" lon="4.8116">
        <ele>167.40039</ele>
        <time>2026-05-13T10:53:01+02:00</time>
      </trkpt>
      <trkpt lat="45.91273" lon="4.8116">
        <ele>167.40039</ele>
        <time>2026-05-13T10:53:02+02:00</time>
      </trkpt>
      <trkpt lat="45.91278" lon="4.81161">
        <ele>167.40039</ele>
        <time>2026-05-13T10:53:03+02:00</time>
      </trkpt>
      <trkpt lat="45.91282" lon="4.81161">
        <ele>167.40039</ele>
        <time>2026-05-13T10:53:04+02:00</time>
      </trkpt>
      <trkpt lat="45.91287" lon="4.81161">
        <ele>167.2998</ele>
        <time>2026-05-13T10:53:05+02:00</time>
      </trkpt>
      <trkpt lat="45.91292" lon="4.81161">
        <ele>167.2998</ele>
        <time>2026-05-13T10:53:06+02:00</time>
      </trkpt>
      <trkpt lat="45.91297" lon="4.81162">
        <ele>167.2002</ele>
        <time>2026-05-13T10:53:07+02:00</time>
      </trkpt>
      <trkpt lat="45.91301" lon="4.81162">
        <ele>167.2002</ele>
        <time>2026-05-13T10:53:08+02:00</time>
      </trkpt>
      <trkpt lat="45.91306" lon="4.81162">
        <ele>167.2002</ele>
        <time>2026-05-13T10:53:09+02:00</time>
      </trkpt>
      <trkpt lat="45.91311" lon="4.81162">
        <ele>167.10059</ele>
        <time>2026-05-13T10:53:10+02:00</time>
      </trkpt>
      <trkpt lat="45.91315" lon="4.81162">
        <ele>167.10059</ele>
        <time>2026-05-13T10:53:11+02:00</time>
      </trkpt>
      <trkpt lat="45.91319" lon="4.81162">
        <ele>167.10059</ele>
        <time>2026-05-13T10:53:12+02:00</time>
      </trkpt>
      <trkpt lat="45.91324" lon="4.81162">
        <ele>167.10059</ele>
        <time>2026-05-13T10:53:13+02:00</time>
      </trkpt>
      <trkpt lat="45.91328" lon="4.81162">
        <ele>167.10059</ele>
        <time>2026-05-13T10:53:14+02:00</time>
      </trkpt>
      <trkpt lat="45.91333" lon="4.81161">
        <ele>167.10059</ele>
        <time>2026-05-13T10:53:15+02:00</time>
      </trkpt>
      <trkpt lat="45.91337" lon="4.81161">
        <ele>167.10059</ele>
        <time>2026-05-13T10:53:16+02:00</time>
      </trkpt>
      <trkpt lat="45.91342" lon="4.81161">
        <ele>167.10059</ele>
        <time>2026-05-13T10:53:17+02:00</time>
      </trkpt>
      <trkpt lat="45.91347" lon="4.81161">
        <ele>167.10059</ele>
        <time>2026-05-13T10:53:18+02:00</time>
      </trkpt>
      <trkpt lat="45.91352" lon="4.81162">
        <ele>167.10059</ele>
        <time>2026-05-13T10:53:19+02:00</time>
      </trkpt>
      <trkpt lat="45.91357" lon="4.81162">
        <ele>167.10059</ele>
        <time>2026-05-13T10:53:20+02:00</time>
      </trkpt>
      <trkpt lat="45.91362" lon="4.81163">
        <ele>167</ele>
        <time>2026-05-13T10:53:21+02:00</time>
      </trkpt>
      <trkpt lat="45.91367" lon="4.81164">
        <ele>167</ele>
        <time>2026-05-13T10:53:22+02:00</time>
      </trkpt>
      <trkpt lat="45.91372" lon="4.81164">
        <ele>167</ele>
        <time>2026-05-13T10:53:23+02:00</time>
      </trkpt>
      <trkpt lat="45.91377" lon="4.81166">
        <ele>167</ele>
        <time>2026-05-13T10:53:24+02:00</time>
      </trkpt>
      <trkpt lat="45.91382" lon="4.81167">
        <ele>167</ele>
        <time>2026-05-13T10:53:25+02:00</time>
      </trkpt>
      <trkpt lat="45.91387" lon="4.81169">
        <ele>167</ele>
        <time>2026-05-13T10:53:26+02:00</time>
      </trkpt>
      <trkpt lat="45.91392" lon="4.81171">
        <ele>166.90039</ele>
        <time>2026-05-13T10:53:27+02:00</time>
      </trkpt>
      <trkpt lat="45.91396" lon="4.81174">
        <ele>166.90039</ele>
        <time>2026-05-13T10:53:28+02:00</time>
      </trkpt>
      <trkpt lat="45.91401" lon="4.81176">
        <ele>167</ele>
        <time>2026-05-13T10:53:29+02:00</time>
      </trkpt>
      <trkpt lat="45.91406" lon="4.81179">
        <ele>167</ele>
        <time>2026-05-13T10:53:30+02:00</time>
      </trkpt>
      <trkpt lat="45.9141" lon="4.81182">
        <ele>167</ele>
        <time>2026-05-13T10:53:31+02:00</time>
      </trkpt>
      <trkpt lat="45.91414" lon="4.81185">
        <ele>167.10059</ele>
        <time>2026-05-13T10:53:32+02:00</time>
      </trkpt>
      <trkpt lat="45.91419" lon="4.81188">
        <ele>167.10059</ele>
        <time>2026-05-13T10:53:33+02:00</time>
      </trkpt>
      <trkpt lat="45.91423" lon="4.81191">
        <ele>167.10059</ele>
        <time>2026-05-13T10:53:34+02:00</time>
      </trkpt>
      <trkpt lat="45.91427" lon="4.81195">
        <ele>167.2002</ele>
        <time>2026-05-13T10:53:35+02:00</time>
      </trkpt>
      <trkpt lat="45.91431" lon="4.81198">
        <ele>167.2002</ele>
        <time>2026-05-13T10:53:36+02:00</time>
      </trkpt>
      <trkpt lat="45.91435" lon="4.81202">
        <ele>167.40039</ele>
        <time>2026-05-13T10:53:37+02:00</time>
      </trkpt>
      <trkpt lat="45.9144" lon="4.81205">
        <ele>167.40039</ele>
        <time>2026-05-13T10:53:38+02:00</time>
      </trkpt>
      <trkpt lat="45.91445" lon="4.81207">
        <ele>167.40039</ele>
        <time>2026-05-13T10:53:39+02:00</time>
      </trkpt>
      <trkpt lat="45.9145" lon="4.81209">
        <ele>167.2998</ele>
        <time>2026-05-13T10:53:40+02:00</time>
      </trkpt>
      <trkpt lat="45.91455" lon="4.81211">
        <ele>167.5</ele>
        <time>2026-05-13T10:53:41+02:00</time>
      </trkpt>
      <trkpt lat="45.9146" lon="4.81212">
        <ele>167.5</ele>
        <time>2026-05-13T10:53:42+02:00</time>
      </trkpt>
      <trkpt lat="45.91465" lon="4.81213">
        <ele>167.5</ele>
        <time>2026-05-13T10:53:43+02:00</time>
      </trkpt>
      <trkpt lat="45.9147" lon="4.81213">
        <ele>167.5</ele>
        <time>2026-05-13T10:53:44+02:00</time>
      </trkpt>
      <trkpt lat="45.91475" lon="4.81215">
        <ele>167.5</ele>
        <time>2026-05-13T10:53:45+02:00</time>
      </trkpt>
      <trkpt lat="45.9148" lon="4.81215">
        <ele>167.40039</ele>
        <time>2026-05-13T10:53:46+02:00</time>
      </trkpt>
      <trkpt lat="45.91485" lon="4.81215">
        <ele>167.40039</ele>
        <time>2026-05-13T10:53:47+02:00</time>
      </trkpt>
      <trkpt lat="45.9149" lon="4.81215">
        <ele>167.40039</ele>
        <time>2026-05-13T10:53:48+02:00</time>
      </trkpt>
      <trkpt lat="45.91496" lon="4.81215">
        <ele>167.5</ele>
        <time>2026-05-13T10:53:49+02:00</time>
      </trkpt>
      <trkpt lat="45.91501" lon="4.81215">
        <ele>167.90039</ele>
        <time>2026-05-13T10:53:50+02:00</time>
      </trkpt>
      <trkpt lat="45.91506" lon="4.81214">
        <ele>168.2002</ele>
        <time>2026-05-13T10:53:51+02:00</time>
      </trkpt>
      <trkpt lat="45.91512" lon="4.81214">
        <ele>168.40039</ele>
        <time>2026-05-13T10:53:52+02:00</time>
      </trkpt>
      <trkpt lat="45.91517" lon="4.81213">
        <ele>168.40039</ele>
        <time>2026-05-13T10:53:53+02:00</time>
      </trkpt>
      <trkpt lat="45.91522" lon="4.81213">
        <ele>168.40039</ele>
        <time>2026-05-13T10:53:54+02:00</time>
      </trkpt>
      <trkpt lat="45.91527" lon="4.81213">
        <ele>168.40039</ele>
        <time>2026-05-13T10:53:55+02:00</time>
      </trkpt>
      <trkpt lat="45.91532" lon="4.81212">
        <ele>168.2998</ele>
        <time>2026-05-13T10:53:56+02:00</time>
      </trkpt>
      <trkpt lat="45.91537" lon="4.81212">
        <ele>168.2998</ele>
        <time>2026-05-13T10:53:57+02:00</time>
      </trkpt>
      <trkpt lat="45.91542" lon="4.81212">
        <ele>168.2998</ele>
        <time>2026-05-13T10:53:58+02:00</time>
      </trkpt>
      <trkpt lat="45.91547" lon="4.81212">
        <ele>168.2998</ele>
        <time>2026-05-13T10:53:59+02:00</time>
      </trkpt>
      <trkpt lat="45.91552" lon="4.81212">
        <ele>168.2998</ele>
        <time>2026-05-13T10:54:00+02:00</time>
      </trkpt>
      <trkpt lat="45.91558" lon="4.81212">
        <ele>168.2998</ele>
        <time>2026-05-13T10:54:01+02:00</time>
      </trkpt>
      <trkpt lat="45.91563" lon="4.81212">
        <ele>168.2998</ele>
        <time>2026-05-13T10:54:02+02:00</time>
      </trkpt>
      <trkpt lat="45.91568" lon="4.81211">
        <ele>168.2998</ele>
        <time>2026-05-13T10:54:03+02:00</time>
      </trkpt>
      <trkpt lat="45.91573" lon="4.81211">
        <ele>168.2998</ele>
        <time>2026-05-13T10:54:04+02:00</time>
      </trkpt>
      <trkpt lat="45.91579" lon="4.81211">
        <ele>168.2998</ele>
        <time>2026-05-13T10:54:05+02:00</time>
      </trkpt>
      <trkpt lat="45.91584" lon="4.81211">
        <ele>168.2998</ele>
        <time>2026-05-13T10:54:06+02:00</time>
      </trkpt>
      <trkpt lat="45.91589" lon="4.81211">
        <ele>168.40039</ele>
        <time>2026-05-13T10:54:07+02:00</time>
      </trkpt>
      <trkpt lat="45.91594" lon="4.81211">
        <ele>168.40039</ele>
        <time>2026-05-13T10:54:08+02:00</time>
      </trkpt>
      <trkpt lat="45.91599" lon="4.8121">
        <ele>168.40039</ele>
        <time>2026-05-13T10:54:09+02:00</time>
      </trkpt>
      <trkpt lat="45.91604" lon="4.8121">
        <ele>168.40039</ele>
        <time>2026-05-13T10:54:10+02:00</time>
      </trkpt>
      <trkpt lat="45.91609" lon="4.8121">
        <ele>168.5</ele>
        <time>2026-05-13T10:54:11+02:00</time>
      </trkpt>
      <trkpt lat="45.91613" lon="4.8121">
        <ele>168.5</ele>
        <time>2026-05-13T10:54:12+02:00</time>
      </trkpt>
      <trkpt lat="45.91618" lon="4.8121">
        <ele>168.60059</ele>
        <time>2026-05-13T10:54:13+02:00</time>
      </trkpt>
      <trkpt lat="45.91623" lon="4.8121">
        <ele>168.60059</ele>
        <time>2026-05-13T10:54:14+02:00</time>
      </trkpt>
      <trkpt lat="45.91628" lon="4.8121">
        <ele>168.60059</ele>
        <time>2026-05-13T10:54:15+02:00</time>
      </trkpt>
      <trkpt lat="45.91633" lon="4.81209">
        <ele>168</ele>
        <time>2026-05-13T10:54:16+02:00</time>
      </trkpt>
      <trkpt lat="45.91637" lon="4.81209">
        <ele>168</ele>
        <time>2026-05-13T10:54:17+02:00</time>
      </trkpt>
      <trkpt lat="45.91642" lon="4.81209">
        <ele>167.90039</ele>
        <time>2026-05-13T10:54:18+02:00</time>
      </trkpt>
      <trkpt lat="45.91647" lon="4.81209">
        <ele>167.90039</ele>
        <time>2026-05-13T10:54:19+02:00</time>
      </trkpt>
      <trkpt lat="45.91652" lon="4.81209">
        <ele>167.90039</ele>
        <time>2026-05-13T10:54:20+02:00</time>
      </trkpt>
      <trkpt lat="45.91657" lon="4.81208">
        <ele>167.90039</ele>
        <time>2026-05-13T10:54:21+02:00</time>
      </trkpt>
      <trkpt lat="45.91661" lon="4.81208">
        <ele>167.7998</ele>
        <time>2026-05-13T10:54:22+02:00</time>
      </trkpt>
      <trkpt lat="45.91666" lon="4.81208">
        <ele>167.7998</ele>
        <time>2026-05-13T10:54:23+02:00</time>
      </trkpt>
      <trkpt lat="45.91671" lon="4.81208">
        <ele>167.7002</ele>
        <time>2026-05-13T10:54:24+02:00</time>
      </trkpt>
      <trkpt lat="45.91675" lon="4.81207">
        <ele>167.7002</ele>
        <time>2026-05-13T10:54:25+02:00</time>
      </trkpt>
      <trkpt lat="45.9168" lon="4.81206">
        <ele>167.60059</ele>
        <time>2026-05-13T10:54:26+02:00</time>
      </trkpt>
      <trkpt lat="45.91684" lon="4.81205">
        <ele>167.60059</ele>
        <time>2026-05-13T10:54:27+02:00</time>
      </trkpt>
      <trkpt lat="45.91688" lon="4.81204">
        <ele>167.60059</ele>
        <time>2026-05-13T10:54:28+02:00</time>
      </trkpt>
      <trkpt lat="45.91693" lon="4.81204">
        <ele>167.5</ele>
        <time>2026-05-13T10:54:29+02:00</time>
      </trkpt>
      <trkpt lat="45.91697" lon="4.81202">
        <ele>167.5</ele>
        <time>2026-05-13T10:54:30+02:00</time>
      </trkpt>
      <trkpt lat="45.91702" lon="4.81202">
        <ele>167.5</ele>
        <time>2026-05-13T10:54:31+02:00</time>
      </trkpt>
      <trkpt lat="45.91707" lon="4.812">
        <ele>167.2998</ele>
        <time>2026-05-13T10:54:32+02:00</time>
      </trkpt>
      <trkpt lat="45.91712" lon="4.81199">
        <ele>167.2998</ele>
        <time>2026-05-13T10:54:33+02:00</time>
      </trkpt>
      <trkpt lat="45.91717" lon="4.81198">
        <ele>167.2998</ele>
        <time>2026-05-13T10:54:34+02:00</time>
      </trkpt>
      <trkpt lat="45.91723" lon="4.81198">
        <ele>167.40039</ele>
        <time>2026-05-13T10:54:35+02:00</time>
      </trkpt>
      <trkpt lat="45.91728" lon="4.81197">
        <ele>167.40039</ele>
        <time>2026-05-13T10:54:36+02:00</time>
      </trkpt>
      <trkpt lat="45.91733" lon="4.81196">
        <ele>167.40039</ele>
        <time>2026-05-13T10:54:37+02:00</time>
      </trkpt>
      <trkpt lat="45.91738" lon="4.81195">
        <ele>167.5</ele>
        <time>2026-05-13T10:54:38+02:00</time>
      </trkpt>
      <trkpt lat="45.91744" lon="4.81194">
        <ele>167.5</ele>
        <time>2026-05-13T10:54:39+02:00</time>
      </trkpt>
      <trkpt lat="45.91749" lon="4.81193">
        <ele>167.60059</ele>
        <time>2026-05-13T10:54:40+02:00</time>
      </trkpt>
      <trkpt lat="45.91754" lon="4.81192">
        <ele>167.2998</ele>
        <time>2026-05-13T10:54:41+02:00</time>
      </trkpt>
      <trkpt lat="45.91759" lon="4.81191">
        <ele>167.2998</ele>
        <time>2026-05-13T10:54:42+02:00</time>
      </trkpt>
      <trkpt lat="45.91763" lon="4.8119">
        <ele>167.2998</ele>
        <time>2026-05-13T10:54:43+02:00</time>
      </trkpt>
      <trkpt lat="45.91768" lon="4.81189">
        <ele>167.2998</ele>
        <time>2026-05-13T10:54:44+02:00</time>
      </trkpt>
      <trkpt lat="45.91773" lon="4.81188">
        <ele>167.2998</ele>
        <time>2026-05-13T10:54:45+02:00</time>
      </trkpt>
      <trkpt lat="45.91778" lon="4.81187">
        <ele>167.2998</ele>
        <time>2026-05-13T10:54:46+02:00</time>
      </trkpt>
      <trkpt lat="45.91783" lon="4.81186">
        <ele>167.2998</ele>
        <time>2026-05-13T10:54:47+02:00</time>
      </trkpt>
      <trkpt lat="45.91788" lon="4.81185">
        <ele>167.2998</ele>
        <time>2026-05-13T10:54:48+02:00</time>
      </trkpt>
      <trkpt lat="45.91792" lon="4.81184">
        <ele>167.10059</ele>
        <time>2026-05-13T10:54:49+02:00</time>
      </trkpt>
      <trkpt lat="45.91797" lon="4.81182">
        <ele>167.10059</ele>
        <time>2026-05-13T10:54:50+02:00</time>
      </trkpt>
      <trkpt lat="45.91802" lon="4.81181">
        <ele>167.10059</ele>
        <time>2026-05-13T10:54:51+02:00</time>
      </trkpt>
      <trkpt lat="45.91807" lon="4.8118">
        <ele>167.2002</ele>
        <time>2026-05-13T10:54:52+02:00</time>
      </trkpt>
      <trkpt lat="45.91812" lon="4.81179">
        <ele>167.2002</ele>
        <time>2026-05-13T10:54:53+02:00</time>
      </trkpt>
      <trkpt lat="45.91817" lon="4.81178">
        <ele>167.2002</ele>
        <time>2026-05-13T10:54:54+02:00</time>
      </trkpt>
      <trkpt lat="45.91822" lon="4.81177">
        <ele>167.2998</ele>
        <time>2026-05-13T10:54:55+02:00</time>
      </trkpt>
      <trkpt lat="45.91827" lon="4.81177">
        <ele>167.2002</ele>
        <time>2026-05-13T10:54:56+02:00</time>
      </trkpt>
      <trkpt lat="45.91832" lon="4.81176">
        <ele>167.10059</ele>
        <time>2026-05-13T10:54:57+02:00</time>
      </trkpt>
      <trkpt lat="45.91837" lon="4.81176">
        <ele>167.10059</ele>
        <time>2026-05-13T10:54:58+02:00</time>
      </trkpt>
      <trkpt lat="45.91841" lon="4.81175">
        <ele>167</ele>
        <time>2026-05-13T10:54:59+02:00</time>
      </trkpt>
      <trkpt lat="45.91846" lon="4.81173">
        <ele>166.90039</ele>
        <time>2026-05-13T10:55:00+02:00</time>
      </trkpt>
      <trkpt lat="45.91851" lon="4.81172">
        <ele>167</ele>
        <time>2026-05-13T10:55:01+02:00</time>
      </trkpt>
      <trkpt lat="45.91856" lon="4.81171">
        <ele>167.10059</ele>
        <time>2026-05-13T10:55:02+02:00</time>
      </trkpt>
      <trkpt lat="45.91861" lon="4.8117">
        <ele>167.10059</ele>
        <time>2026-05-13T10:55:03+02:00</time>
      </trkpt>
      <trkpt lat="45.91866" lon="4.81168">
        <ele>167.2002</ele>
        <time>2026-05-13T10:55:04+02:00</time>
      </trkpt>
      <trkpt lat="45.9187" lon="4.81166">
        <ele>167.10059</ele>
        <time>2026-05-13T10:55:05+02:00</time>
      </trkpt>
      <trkpt lat="45.91875" lon="4.81165">
        <ele>167.2002</ele>
        <time>2026-05-13T10:55:06+02:00</time>
      </trkpt>
      <trkpt lat="45.91879" lon="4.81164">
        <ele>167.2002</ele>
        <time>2026-05-13T10:55:07+02:00</time>
      </trkpt>
      <trkpt lat="45.91882" lon="4.81163">
        <ele>167.2998</ele>
        <time>2026-05-13T10:55:08+02:00</time>
      </trkpt>
      <trkpt lat="45.91886" lon="4.81162">
        <ele>167.40039</ele>
        <time>2026-05-13T10:55:09+02:00</time>
      </trkpt>
      <trkpt lat="45.91889" lon="4.81161">
        <ele>167.40039</ele>
        <time>2026-05-13T10:55:10+02:00</time>
      </trkpt>
      <trkpt lat="45.91891" lon="4.81161">
        <ele>167.40039</ele>
        <time>2026-05-13T10:55:11+02:00</time>
      </trkpt>
      <trkpt lat="45.91893" lon="4.8116">
        <ele>167.40039</ele>
        <time>2026-05-13T10:55:12+02:00</time>
      </trkpt>
      <trkpt lat="45.91894" lon="4.81158">
        <ele>167.2002</ele>
        <time>2026-05-13T10:55:13+02:00</time>
      </trkpt>
      <trkpt lat="45.91895" lon="4.81157">
        <ele>167.2002</ele>
        <time>2026-05-13T10:55:14+02:00</time>
      </trkpt>
      <trkpt lat="45.91897" lon="4.81155">
        <ele>167.2002</ele>
        <time>2026-05-13T10:55:15+02:00</time>
      </trkpt>
      <trkpt lat="45.91899" lon="4.81154">
        <ele>167.2002</ele>
        <time>2026-05-13T10:55:16+02:00</time>
      </trkpt>
      <trkpt lat="45.91902" lon="4.81152">
        <ele>167.2002</ele>
        <time>2026-05-13T10:55:17+02:00</time>
      </trkpt>
      <trkpt lat="45.91905" lon="4.8115">
        <ele>167.2998</ele>
        <time>2026-05-13T10:55:18+02:00</time>
      </trkpt>
      <trkpt lat="45.91908" lon="4.81148">
        <ele>167.10059</ele>
        <time>2026-05-13T10:55:19+02:00</time>
      </trkpt>
      <trkpt lat="45.91913" lon="4.81146">
        <ele>167.2002</ele>
        <time>2026-05-13T10:55:20+02:00</time>
      </trkpt>
      <trkpt lat="45.91918" lon="4.81143">
        <ele>167.2002</ele>
        <time>2026-05-13T10:55:21+02:00</time>
      </trkpt>
      <trkpt lat="45.91923" lon="4.81141">
        <ele>167.10059</ele>
        <time>2026-05-13T10:55:22+02:00</time>
      </trkpt>
      <trkpt lat="45.91928" lon="4.81139">
        <ele>167.2002</ele>
        <time>2026-05-13T10:55:23+02:00</time>
      </trkpt>
      <trkpt lat="45.91933" lon="4.81137">
        <ele>167.2002</ele>
        <time>2026-05-13T10:55:24+02:00</time>
      </trkpt>
      <trkpt lat="45.91939" lon="4.81134">
        <ele>167.2002</ele>
        <time>2026-05-13T10:55:25+02:00</time>
      </trkpt>
      <trkpt lat="45.91944" lon="4.81132">
        <ele>167.10059</ele>
        <time>2026-05-13T10:55:26+02:00</time>
      </trkpt>
      <trkpt lat="45.9195" lon="4.81129">
        <ele>167.2998</ele>
        <time>2026-05-13T10:55:27+02:00</time>
      </trkpt>
      <trkpt lat="45.91954" lon="4.81127">
        <ele>167.5</ele>
        <time>2026-05-13T10:55:28+02:00</time>
      </trkpt>
      <trkpt lat="45.9196" lon="4.81124">
        <ele>167.7002</ele>
        <time>2026-05-13T10:55:29+02:00</time>
      </trkpt>
      <trkpt lat="45.91966" lon="4.8112">
        <ele>167.7002</ele>
        <time>2026-05-13T10:55:30+02:00</time>
      </trkpt>
      <trkpt lat="45.91971" lon="4.81117">
        <ele>167.90039</ele>
        <time>2026-05-13T10:55:31+02:00</time>
      </trkpt>
      <trkpt lat="45.91976" lon="4.81114">
        <ele>167.7002</ele>
        <time>2026-05-13T10:55:32+02:00</time>
      </trkpt>
      <trkpt lat="45.91981" lon="4.8111">
        <ele>167.7998</ele>
        <time>2026-05-13T10:55:33+02:00</time>
      </trkpt>
      <trkpt lat="45.91985" lon="4.81107">
        <ele>167.7998</ele>
        <time>2026-05-13T10:55:34+02:00</time>
      </trkpt>
      <trkpt lat="45.91988" lon="4.81105">
        <ele>167.7002</ele>
        <time>2026-05-13T10:55:35+02:00</time>
      </trkpt>
      <trkpt lat="45.91991" lon="4.81103">
        <ele>167.7002</ele>
        <time>2026-05-13T10:55:36+02:00</time>
      </trkpt>
      <trkpt lat="45.91993" lon="4.81099">
        <ele>167.7002</ele>
        <time>2026-05-13T10:55:37+02:00</time>
      </trkpt>
      <trkpt lat="45.91996" lon="4.81096">
        <ele>167.60059</ele>
        <time>2026-05-13T10:55:38+02:00</time>
      </trkpt>
      <trkpt lat="45.92" lon="4.81093">
        <ele>167.7998</ele>
        <time>2026-05-13T10:55:39+02:00</time>
      </trkpt>
      <trkpt lat="45.92003" lon="4.8109">
        <ele>167.7998</ele>
        <time>2026-05-13T10:55:40+02:00</time>
      </trkpt>
      <trkpt lat="45.92007" lon="4.81088">
        <ele>167.7998</ele>
        <time>2026-05-13T10:55:41+02:00</time>
      </trkpt>
      <trkpt lat="45.9201" lon="4.81086">
        <ele>167.7998</ele>
        <time>2026-05-13T10:55:42+02:00</time>
      </trkpt>
      <trkpt lat="45.92014" lon="4.81084">
        <ele>168</ele>
        <time>2026-05-13T10:55:43+02:00</time>
      </trkpt>
      <trkpt lat="45.92017" lon="4.81085">
        <ele>168.10059</ele>
        <time>2026-05-13T10:55:44+02:00</time>
      </trkpt>
      <trkpt lat="45.92021" lon="4.81086">
        <ele>168.10059</ele>
        <time>2026-05-13T10:55:45+02:00</time>
      </trkpt>
      <trkpt lat="45.92025" lon="4.81085">
        <ele>168.2998</ele>
        <time>2026-05-13T10:55:46+02:00</time>
      </trkpt>
      <trkpt lat="45.92028" lon="4.81082">
        <ele>168.2998</ele>
        <time>2026-05-13T10:55:47+02:00</time>
      </trkpt>
      <trkpt lat="45.92031" lon="4.81079">
        <ele>167.7998</ele>
        <time>2026-05-13T10:55:48+02:00</time>
      </trkpt>
      <trkpt lat="45.92035" lon="4.81076">
        <ele>167.90039</ele>
        <time>2026-05-13T10:55:49+02:00</time>
      </trkpt>
      <trkpt lat="45.92038" lon="4.81072">
        <ele>167.60059</ele>
        <time>2026-05-13T10:55:50+02:00</time>
      </trkpt>
      <trkpt lat="45.92043" lon="4.81069">
        <ele>167.7002</ele>
        <time>2026-05-13T10:55:51+02:00</time>
      </trkpt>
      <trkpt lat="45.92046" lon="4.81065">
        <ele>167.7002</ele>
        <time>2026-05-13T10:55:52+02:00</time>
      </trkpt>
      <trkpt lat="45.9205" lon="4.8106">
        <ele>167.60059</ele>
        <time>2026-05-13T10:55:53+02:00</time>
      </trkpt>
      <trkpt lat="45.92054" lon="4.81057">
        <ele>167.7002</ele>
        <time>2026-05-13T10:55:54+02:00</time>
      </trkpt>
      <trkpt lat="45.92059" lon="4.81054">
        <ele>167.60059</ele>
        <time>2026-05-13T10:55:55+02:00</time>
      </trkpt>
      <trkpt lat="45.92064" lon="4.8105">
        <ele>167.60059</ele>
        <time>2026-05-13T10:55:56+02:00</time>
      </trkpt>
      <trkpt lat="45.92068" lon="4.81047">
        <ele>167.60059</ele>
        <time>2026-05-13T10:55:57+02:00</time>
      </trkpt>
      <trkpt lat="45.92072" lon="4.81044">
        <ele>167.40039</ele>
        <time>2026-05-13T10:55:58+02:00</time>
      </trkpt>
      <trkpt lat="45.92077" lon="4.8104">
        <ele>167.5</ele>
        <time>2026-05-13T10:55:59+02:00</time>
      </trkpt>
      <trkpt lat="45.92082" lon="4.81036">
        <ele>167.2998</ele>
        <time>2026-05-13T10:56:00+02:00</time>
      </trkpt>
      <trkpt lat="45.92086" lon="4.81033">
        <ele>167.40039</ele>
        <time>2026-05-13T10:56:01+02:00</time>
      </trkpt>
      <trkpt lat="45.92091" lon="4.81029">
        <ele>167.2998</ele>
        <time>2026-05-13T10:56:02+02:00</time>
      </trkpt>
      <trkpt lat="45.92096" lon="4.81026">
        <ele>167.40039</ele>
        <time>2026-05-13T10:56:03+02:00</time>
      </trkpt>
      <trkpt lat="45.921" lon="4.81023">
        <ele>167.40039</ele>
        <time>2026-05-13T10:56:04+02:00</time>
      </trkpt>
      <trkpt lat="45.92105" lon="4.81019">
        <ele>167.2998</ele>
        <time>2026-05-13T10:56:05+02:00</time>
      </trkpt>
      <trkpt lat="45.9211" lon="4.81016">
        <ele>167.5</ele>
        <time>2026-05-13T10:56:06+02:00</time>
      </trkpt>
      <trkpt lat="45.92114" lon="4.81011">
        <ele>167.5</ele>
        <time>2026-05-13T10:56:07+02:00</time>
      </trkpt>
      <trkpt lat="45.92119" lon="4.81006">
        <ele>167.7002</ele>
        <time>2026-05-13T10:56:08+02:00</time>
      </trkpt>
      <trkpt lat="45.92122" lon="4.81">
        <ele>167.5</ele>
        <time>2026-05-13T10:56:09+02:00</time>
      </trkpt>
      <trkpt lat="45.92126" lon="4.80994">
        <ele>167.40039</ele>
        <time>2026-05-13T10:56:10+02:00</time>
      </trkpt>
      <trkpt lat="45.9213" lon="4.80988">
        <ele>167.40039</ele>
        <time>2026-05-13T10:56:11+02:00</time>
      </trkpt>
      <trkpt lat="45.92134" lon="4.80983">
        <ele>167.2998</ele>
        <time>2026-05-13T10:56:12+02:00</time>
      </trkpt>
      <trkpt lat="45.92138" lon="4.80978">
        <ele>167.60059</ele>
        <time>2026-05-13T10:56:13+02:00</time>
      </trkpt>
      <trkpt lat="45.92143" lon="4.80973">
        <ele>167.7002</ele>
        <time>2026-05-13T10:56:14+02:00</time>
      </trkpt>
      <trkpt lat="45.92147" lon="4.80969">
        <ele>167.5</ele>
        <time>2026-05-13T10:56:15+02:00</time>
      </trkpt>
      <trkpt lat="45.92152" lon="4.80964">
        <ele>168</ele>
        <time>2026-05-13T10:56:16+02:00</time>
      </trkpt>
      <trkpt lat="45.92156" lon="4.8096">
        <ele>168</ele>
        <time>2026-05-13T10:56:17+02:00</time>
      </trkpt>
      <trkpt lat="45.9216" lon="4.80955">
        <ele>168</ele>
        <time>2026-05-13T10:56:18+02:00</time>
      </trkpt>
      <trkpt lat="45.92164" lon="4.8095">
        <ele>167.90039</ele>
        <time>2026-05-13T10:56:19+02:00</time>
      </trkpt>
      <trkpt lat="45.92168" lon="4.80946">
        <ele>168.40039</ele>
        <time>2026-05-13T10:56:20+02:00</time>
      </trkpt>
      <trkpt lat="45.92172" lon="4.80941">
        <ele>168</ele>
        <time>2026-05-13T10:56:21+02:00</time>
      </trkpt>
      <trkpt lat="45.92176" lon="4.80936">
        <ele>168.40039</ele>
        <time>2026-05-13T10:56:22+02:00</time>
      </trkpt>
      <trkpt lat="45.9218" lon="4.80929">
        <ele>168.2998</ele>
        <time>2026-05-13T10:56:23+02:00</time>
      </trkpt>
      <trkpt lat="45.92182" lon="4.80923">
        <ele>167.7998</ele>
        <time>2026-05-13T10:56:24+02:00</time>
      </trkpt>
      <trkpt lat="45.92185" lon="4.80916">
        <ele>167.5</ele>
        <time>2026-05-13T10:56:25+02:00</time>
      </trkpt>
      <trkpt lat="45.92189" lon="4.8091">
        <ele>167.5</ele>
        <time>2026-05-13T10:56:26+02:00</time>
      </trkpt>
      <trkpt lat="45.92192" lon="4.80903">
        <ele>167.2002</ele>
        <time>2026-05-13T10:56:27+02:00</time>
      </trkpt>
      <trkpt lat="45.92196" lon="4.80897">
        <ele>167</ele>
        <time>2026-05-13T10:56:28+02:00</time>
      </trkpt>
      <trkpt lat="45.922" lon="4.80891">
        <ele>167</ele>
        <time>2026-05-13T10:56:29+02:00</time>
      </trkpt>
      <trkpt lat="45.92203" lon="4.80884">
        <ele>167.2002</ele>
        <time>2026-05-13T10:56:30+02:00</time>
      </trkpt>
      <trkpt lat="45.92207" lon="4.80878">
        <ele>167</ele>
        <time>2026-05-13T10:56:31+02:00</time>
      </trkpt>
      <trkpt lat="45.92211" lon="4.80871">
        <ele>166.90039</ele>
        <time>2026-05-13T10:56:32+02:00</time>
      </trkpt>
      <trkpt lat="45.92213" lon="4.80865">
        <ele>166.7998</ele>
        <time>2026-05-13T10:56:33+02:00</time>
      </trkpt>
      <trkpt lat="45.92217" lon="4.80858">
        <ele>166.90039</ele>
        <time>2026-05-13T10:56:34+02:00</time>
      </trkpt>
      <trkpt lat="45.9222" lon="4.80853">
        <ele>166.90039</ele>
        <time>2026-05-13T10:56:35+02:00</time>
      </trkpt>
      <trkpt lat="45.92224" lon="4.80847">
        <ele>166.90039</ele>
        <time>2026-05-13T10:56:36+02:00</time>
      </trkpt>
      <trkpt lat="45.92227" lon="4.80841">
        <ele>167</ele>
        <time>2026-05-13T10:56:37+02:00</time>
      </trkpt>
      <trkpt lat="45.92231" lon="4.80835">
        <ele>166.90039</ele>
        <time>2026-05-13T10:56:38+02:00</time>
      </trkpt>
      <trkpt lat="45.92234" lon="4.80828">
        <ele>166.90039</ele>
        <time>2026-05-13T10:56:39+02:00</time>
      </trkpt>
      <trkpt lat="45.92238" lon="4.80822">
        <ele>166.90039</ele>
        <time>2026-05-13T10:56:40+02:00</time>
      </trkpt>
      <trkpt lat="45.92241" lon="4.80815">
        <ele>166.90039</ele>
        <time>2026-05-13T10:56:41+02:00</time>
      </trkpt>
      <trkpt lat="45.92243" lon="4.80809">
        <ele>166.90039</ele>
        <time>2026-05-13T10:56:42+02:00</time>
      </trkpt>
      <trkpt lat="45.92246" lon="4.80802">
        <ele>166.90039</ele>
        <time>2026-05-13T10:56:43+02:00</time>
      </trkpt>
      <trkpt lat="45.92249" lon="4.80796">
        <ele>166.7998</ele>
        <time>2026-05-13T10:56:44+02:00</time>
      </trkpt>
      <trkpt lat="45.92251" lon="4.80789">
        <ele>166.90039</ele>
        <time>2026-05-13T10:56:45+02:00</time>
      </trkpt>
      <trkpt lat="45.92254" lon="4.80782">
        <ele>166.90039</ele>
        <time>2026-05-13T10:56:46+02:00</time>
      </trkpt>
      <trkpt lat="45.92257" lon="4.80775">
        <ele>166.90039</ele>
        <time>2026-05-13T10:56:47+02:00</time>
      </trkpt>
      <trkpt lat="45.92259" lon="4.80768">
        <ele>166.90039</ele>
        <time>2026-05-13T10:56:48+02:00</time>
      </trkpt>
      <trkpt lat="45.92261" lon="4.80762">
        <ele>166.90039</ele>
        <time>2026-05-13T10:56:49+02:00</time>
      </trkpt>
      <trkpt lat="45.92264" lon="4.80755">
        <ele>166.90039</ele>
        <time>2026-05-13T10:56:50+02:00</time>
      </trkpt>
      <trkpt lat="45.92266" lon="4.80748">
        <ele>166.90039</ele>
        <time>2026-05-13T10:56:51+02:00</time>
      </trkpt>
      <trkpt lat="45.92269" lon="4.80741">
        <ele>166.90039</ele>
        <time>2026-05-13T10:56:52+02:00</time>
      </trkpt>
      <trkpt lat="45.92271" lon="4.80734">
        <ele>166.90039</ele>
        <time>2026-05-13T10:56:53+02:00</time>
      </trkpt>
      <trkpt lat="45.92273" lon="4.80727">
        <ele>166.90039</ele>
        <time>2026-05-13T10:56:54+02:00</time>
      </trkpt>
      <trkpt lat="45.92275" lon="4.8072">
        <ele>166.90039</ele>
        <time>2026-05-13T10:56:55+02:00</time>
      </trkpt>
      <trkpt lat="45.92277" lon="4.80712">
        <ele>166.90039</ele>
        <time>2026-05-13T10:56:56+02:00</time>
      </trkpt>
      <trkpt lat="45.92279" lon="4.80705">
        <ele>166.90039</ele>
        <time>2026-05-13T10:56:57+02:00</time>
      </trkpt>
      <trkpt lat="45.92281" lon="4.80698">
        <ele>166.90039</ele>
        <time>2026-05-13T10:56:58+02:00</time>
      </trkpt>
      <trkpt lat="45.92282" lon="4.80691">
        <ele>166.90039</ele>
        <time>2026-05-13T10:56:59+02:00</time>
      </trkpt>
      <trkpt lat="45.92284" lon="4.80683">
        <ele>166.90039</ele>
        <time>2026-05-13T10:57:00+02:00</time>
      </trkpt>
      <trkpt lat="45.92286" lon="4.80676">
        <ele>166.90039</ele>
        <time>2026-05-13T10:57:01+02:00</time>
      </trkpt>
      <trkpt lat="45.92287" lon="4.80669">
        <ele>166.90039</ele>
        <time>2026-05-13T10:57:02+02:00</time>
      </trkpt>
      <trkpt lat="45.92289" lon="4.80661">
        <ele>166.90039</ele>
        <time>2026-05-13T10:57:03+02:00</time>
      </trkpt>
      <trkpt lat="45.9229" lon="4.80654">
        <ele>166.90039</ele>
        <time>2026-05-13T10:57:04+02:00</time>
      </trkpt>
      <trkpt lat="45.92291" lon="4.80647">
        <ele>166.90039</ele>
        <time>2026-05-13T10:57:05+02:00</time>
      </trkpt>
      <trkpt lat="45.92293" lon="4.80639">
        <ele>166.90039</ele>
        <time>2026-05-13T10:57:06+02:00</time>
      </trkpt>
      <trkpt lat="45.92294" lon="4.80632">
        <ele>166.90039</ele>
        <time>2026-05-13T10:57:07+02:00</time>
      </trkpt>
      <trkpt lat="45.92296" lon="4.80624">
        <ele>166.90039</ele>
        <time>2026-05-13T10:57:08+02:00</time>
      </trkpt>
      <trkpt lat="45.92297" lon="4.80617">
        <ele>166.90039</ele>
        <time>2026-05-13T10:57:09+02:00</time>
      </trkpt>
      <trkpt lat="45.92299" lon="4.8061">
        <ele>166.90039</ele>
        <time>2026-05-13T10:57:10+02:00</time>
      </trkpt>
      <trkpt lat="45.92301" lon="4.80602">
        <ele>166.90039</ele>
        <time>2026-05-13T10:57:11+02:00</time>
      </trkpt>
      <trkpt lat="45.92302" lon="4.80595">
        <ele>166.90039</ele>
        <time>2026-05-13T10:57:12+02:00</time>
      </trkpt>
      <trkpt lat="45.92304" lon="4.80587">
        <ele>166.90039</ele>
        <time>2026-05-13T10:57:13+02:00</time>
      </trkpt>
      <trkpt lat="45.92305" lon="4.8058">
        <ele>166.90039</ele>
        <time>2026-05-13T10:57:14+02:00</time>
      </trkpt>
      <trkpt lat="45.92307" lon="4.80572">
        <ele>166.90039</ele>
        <time>2026-05-13T10:57:15+02:00</time>
      </trkpt>
      <trkpt lat="45.92309" lon="4.80564">
        <ele>166.90039</ele>
        <time>2026-05-13T10:57:16+02:00</time>
      </trkpt>
      <trkpt lat="45.9231" lon="4.80557">
        <ele>166.90039</ele>
        <time>2026-05-13T10:57:17+02:00</time>
      </trkpt>
      <trkpt lat="45.92311" lon="4.8055">
        <ele>166.90039</ele>
        <time>2026-05-13T10:57:18+02:00</time>
      </trkpt>
      <trkpt lat="45.92312" lon="4.80543">
        <ele>166.90039</ele>
        <time>2026-05-13T10:57:19+02:00</time>
      </trkpt>
      <trkpt lat="45.92314" lon="4.80535">
        <ele>166.90039</ele>
        <time>2026-05-13T10:57:20+02:00</time>
      </trkpt>
      <trkpt lat="45.92315" lon="4.80528">
        <ele>166.90039</ele>
        <time>2026-05-13T10:57:21+02:00</time>
      </trkpt>
      <trkpt lat="45.92317" lon="4.8052">
        <ele>166.90039</ele>
        <time>2026-05-13T10:57:22+02:00</time>
      </trkpt>
      <trkpt lat="45.92318" lon="4.80513">
        <ele>166.90039</ele>
        <time>2026-05-13T10:57:23+02:00</time>
      </trkpt>
      <trkpt lat="45.92319" lon="4.80506">
        <ele>166.90039</ele>
        <time>2026-05-13T10:57:24+02:00</time>
      </trkpt>
      <trkpt lat="45.92321" lon="4.80498">
        <ele>166.90039</ele>
        <time>2026-05-13T10:57:25+02:00</time>
      </trkpt>
      <trkpt lat="45.92322" lon="4.80491">
        <ele>167</ele>
        <time>2026-05-13T10:57:26+02:00</time>
      </trkpt>
      <trkpt lat="45.92323" lon="4.80484">
        <ele>166.90039</ele>
        <time>2026-05-13T10:57:27+02:00</time>
      </trkpt>
      <trkpt lat="45.92324" lon="4.80476">
        <ele>166.90039</ele>
        <time>2026-05-13T10:57:28+02:00</time>
      </trkpt>
      <trkpt lat="45.92325" lon="4.80469">
        <ele>166.90039</ele>
        <time>2026-05-13T10:57:29+02:00</time>
      </trkpt>
      <trkpt lat="45.92326" lon="4.80461">
        <ele>166.90039</ele>
        <time>2026-05-13T10:57:30+02:00</time>
      </trkpt>
      <trkpt lat="45.92327" lon="4.80454">
        <ele>166.90039</ele>
        <time>2026-05-13T10:57:31+02:00</time>
      </trkpt>
      <trkpt lat="45.92328" lon="4.80447">
        <ele>167</ele>
        <time>2026-05-13T10:57:32+02:00</time>
      </trkpt>
      <trkpt lat="45.9233" lon="4.80439">
        <ele>166.90039</ele>
        <time>2026-05-13T10:57:33+02:00</time>
      </trkpt>
      <trkpt lat="45.92331" lon="4.80432">
        <ele>166.90039</ele>
        <time>2026-05-13T10:57:34+02:00</time>
      </trkpt>
      <trkpt lat="45.92332" lon="4.80424">
        <ele>166.90039</ele>
        <time>2026-05-13T10:57:35+02:00</time>
      </trkpt>
      <trkpt lat="45.92334" lon="4.80417">
        <ele>167.10059</ele>
        <time>2026-05-13T10:57:36+02:00</time>
      </trkpt>
      <trkpt lat="45.92335" lon="4.80409">
        <ele>167.2002</ele>
        <time>2026-05-13T10:57:37+02:00</time>
      </trkpt>
      <trkpt lat="45.92336" lon="4.80402">
        <ele>167.2002</ele>
        <time>2026-05-13T10:57:38+02:00</time>
      </trkpt>
      <trkpt lat="45.92338" lon="4.80394">
        <ele>167.10059</ele>
        <time>2026-05-13T10:57:39+02:00</time>
      </trkpt>
      <trkpt lat="45.92339" lon="4.80387">
        <ele>167.10059</ele>
        <time>2026-05-13T10:57:40+02:00</time>
      </trkpt>
      <trkpt lat="45.92341" lon="4.80379">
        <ele>167.2002</ele>
        <time>2026-05-13T10:57:41+02:00</time>
      </trkpt>
      <trkpt lat="45.92342" lon="4.80372">
        <ele>166.90039</ele>
        <time>2026-05-13T10:57:42+02:00</time>
      </trkpt>
      <trkpt lat="45.92343" lon="4.80364">
        <ele>166.7998</ele>
        <time>2026-05-13T10:57:43+02:00</time>
      </trkpt>
      <trkpt lat="45.92344" lon="4.80357">
        <ele>166.90039</ele>
        <time>2026-05-13T10:57:44+02:00</time>
      </trkpt>
      <trkpt lat="45.92346" lon="4.8035">
        <ele>166.90039</ele>
        <time>2026-05-13T10:57:45+02:00</time>
      </trkpt>
      <trkpt lat="45.92347" lon="4.80343">
        <ele>166.90039</ele>
        <time>2026-05-13T10:57:46+02:00</time>
      </trkpt>
      <trkpt lat="45.92348" lon="4.80335">
        <ele>166.90039</ele>
        <time>2026-05-13T10:57:47+02:00</time>
      </trkpt>
      <trkpt lat="45.92349" lon="4.80328">
        <ele>166.90039</ele>
        <time>2026-05-13T10:57:48+02:00</time>
      </trkpt>
      <trkpt lat="45.92351" lon="4.80321">
        <ele>166.90039</ele>
        <time>2026-05-13T10:57:49+02:00</time>
      </trkpt>
      <trkpt lat="45.92352" lon="4.80313">
        <ele>166.90039</ele>
        <time>2026-05-13T10:57:50+02:00</time>
      </trkpt>
      <trkpt lat="45.92354" lon="4.80306">
        <ele>166.90039</ele>
        <time>2026-05-13T10:57:51+02:00</time>
      </trkpt>
      <trkpt lat="45.92355" lon="4.80299">
        <ele>166.90039</ele>
        <time>2026-05-13T10:57:52+02:00</time>
      </trkpt>
      <trkpt lat="45.92356" lon="4.80291">
        <ele>166.90039</ele>
        <time>2026-05-13T10:57:53+02:00</time>
      </trkpt>
      <trkpt lat="45.92357" lon="4.80284">
        <ele>166.90039</ele>
        <time>2026-05-13T10:57:54+02:00</time>
      </trkpt>
      <trkpt lat="45.92359" lon="4.80277">
        <ele>166.90039</ele>
        <time>2026-05-13T10:57:55+02:00</time>
      </trkpt>
      <trkpt lat="45.92359" lon="4.80269">
        <ele>166.90039</ele>
        <time>2026-05-13T10:57:56+02:00</time>
      </trkpt>
      <trkpt lat="45.92361" lon="4.80262">
        <ele>166.90039</ele>
        <time>2026-05-13T10:57:57+02:00</time>
      </trkpt>
      <trkpt lat="45.92362" lon="4.80254">
        <ele>166.90039</ele>
        <time>2026-05-13T10:57:58+02:00</time>
      </trkpt>
      <trkpt lat="45.92363" lon="4.80247">
        <ele>166.90039</ele>
        <time>2026-05-13T10:57:59+02:00</time>
      </trkpt>
      <trkpt lat="45.92364" lon="4.80239">
        <ele>166.90039</ele>
        <time>2026-05-13T10:58:00+02:00</time>
      </trkpt>
      <trkpt lat="45.92365" lon="4.80232">
        <ele>166.90039</ele>
        <time>2026-05-13T10:58:01+02:00</time>
      </trkpt>
      <trkpt lat="45.92367" lon="4.80224">
        <ele>166.90039</ele>
        <time>2026-05-13T10:58:02+02:00</time>
      </trkpt>
      <trkpt lat="45.92368" lon="4.80217">
        <ele>166.90039</ele>
        <time>2026-05-13T10:58:03+02:00</time>
      </trkpt>
      <trkpt lat="45.92369" lon="4.80209">
        <ele>166.90039</ele>
        <time>2026-05-13T10:58:04+02:00</time>
      </trkpt>
      <trkpt lat="45.9237" lon="4.80202">
        <ele>166.90039</ele>
        <time>2026-05-13T10:58:05+02:00</time>
      </trkpt>
      <trkpt lat="45.92371" lon="4.80194">
        <ele>166.90039</ele>
        <time>2026-05-13T10:58:06+02:00</time>
      </trkpt>
      <trkpt lat="45.92371" lon="4.80186">
        <ele>166.7998</ele>
        <time>2026-05-13T10:58:07+02:00</time>
      </trkpt>
      <trkpt lat="45.92372" lon="4.80178">
        <ele>166.7002</ele>
        <time>2026-05-13T10:58:08+02:00</time>
      </trkpt>
      <trkpt lat="45.92373" lon="4.80171">
        <ele>166.7002</ele>
        <time>2026-05-13T10:58:09+02:00</time>
      </trkpt>
      <trkpt lat="45.92374" lon="4.80163">
        <ele>166.7002</ele>
        <time>2026-05-13T10:58:10+02:00</time>
      </trkpt>
      <trkpt lat="45.92375" lon="4.80155">
        <ele>166.60059</ele>
        <time>2026-05-13T10:58:11+02:00</time>
      </trkpt>
      <trkpt lat="45.92375" lon="4.80148">
        <ele>166.60059</ele>
        <time>2026-05-13T10:58:12+02:00</time>
      </trkpt>
      <trkpt lat="45.92376" lon="4.8014">
        <ele>166.60059</ele>
        <time>2026-05-13T10:58:13+02:00</time>
      </trkpt>
      <trkpt lat="45.92376" lon="4.80132">
        <ele>166.60059</ele>
        <time>2026-05-13T10:58:14+02:00</time>
      </trkpt>
      <trkpt lat="45.92376" lon="4.80124">
        <ele>166.60059</ele>
        <time>2026-05-13T10:58:15+02:00</time>
      </trkpt>
      <trkpt lat="45.92376" lon="4.80116">
        <ele>166.60059</ele>
        <time>2026-05-13T10:58:16+02:00</time>
      </trkpt>
      <trkpt lat="45.92376" lon="4.80108">
        <ele>166.60059</ele>
        <time>2026-05-13T10:58:17+02:00</time>
      </trkpt>
      <trkpt lat="45.92376" lon="4.801">
        <ele>166.60059</ele>
        <time>2026-05-13T10:58:18+02:00</time>
      </trkpt>
      <trkpt lat="45.92376" lon="4.80091">
        <ele>166.60059</ele>
        <time>2026-05-13T10:58:19+02:00</time>
      </trkpt>
      <trkpt lat="45.92376" lon="4.80083">
        <ele>166.60059</ele>
        <time>2026-05-13T10:58:20+02:00</time>
      </trkpt>
      <trkpt lat="45.92376" lon="4.80075">
        <ele>166.7002</ele>
        <time>2026-05-13T10:58:21+02:00</time>
      </trkpt>
      <trkpt lat="45.92376" lon="4.80067">
        <ele>166.7002</ele>
        <time>2026-05-13T10:58:22+02:00</time>
      </trkpt>
      <trkpt lat="45.92376" lon="4.80059">
        <ele>166.7002</ele>
        <time>2026-05-13T10:58:23+02:00</time>
      </trkpt>
      <trkpt lat="45.92376" lon="4.80052">
        <ele>166.7002</ele>
        <time>2026-05-13T10:58:24+02:00</time>
      </trkpt>
      <trkpt lat="45.92375" lon="4.80044">
        <ele>166.7998</ele>
        <time>2026-05-13T10:58:25+02:00</time>
      </trkpt>
      <trkpt lat="45.92375" lon="4.80036">
        <ele>166.90039</ele>
        <time>2026-05-13T10:58:26+02:00</time>
      </trkpt>
      <trkpt lat="45.92374" lon="4.80028">
        <ele>167</ele>
        <time>2026-05-13T10:58:27+02:00</time>
      </trkpt>
      <trkpt lat="45.92373" lon="4.8002">
        <ele>167.2998</ele>
        <time>2026-05-13T10:58:28+02:00</time>
      </trkpt>
      <trkpt lat="45.92373" lon="4.80012">
        <ele>167.7002</ele>
        <time>2026-05-13T10:58:29+02:00</time>
      </trkpt>
      <trkpt lat="45.92372" lon="4.80004">
        <ele>168</ele>
        <time>2026-05-13T10:58:30+02:00</time>
      </trkpt>
      <trkpt lat="45.92371" lon="4.79996">
        <ele>168.2002</ele>
        <time>2026-05-13T10:58:31+02:00</time>
      </trkpt>
      <trkpt lat="45.92371" lon="4.79989">
        <ele>168.5</ele>
        <time>2026-05-13T10:58:32+02:00</time>
      </trkpt>
      <trkpt lat="45.9237" lon="4.79981">
        <ele>168.60059</ele>
        <time>2026-05-13T10:58:33+02:00</time>
      </trkpt>
      <trkpt lat="45.9237" lon="4.79973">
        <ele>168.7002</ele>
        <time>2026-05-13T10:58:34+02:00</time>
      </trkpt>
      <trkpt lat="45.92369" lon="4.79966">
        <ele>168</ele>
        <time>2026-05-13T10:58:35+02:00</time>
      </trkpt>
      <trkpt lat="45.92368" lon="4.79958">
        <ele>168</ele>
        <time>2026-05-13T10:58:36+02:00</time>
      </trkpt>
      <trkpt lat="45.92368" lon="4.7995">
        <ele>168.10059</ele>
        <time>2026-05-13T10:58:37+02:00</time>
      </trkpt>
      <trkpt lat="45.92368" lon="4.79943">
        <ele>168.2002</ele>
        <time>2026-05-13T10:58:38+02:00</time>
      </trkpt>
      <trkpt lat="45.92367" lon="4.79935">
        <ele>168.2002</ele>
        <time>2026-05-13T10:58:39+02:00</time>
      </trkpt>
      <trkpt lat="45.92367" lon="4.79928">
        <ele>168.2998</ele>
        <time>2026-05-13T10:58:40+02:00</time>
      </trkpt>
      <trkpt lat="45.92367" lon="4.7992">
        <ele>168.2998</ele>
        <time>2026-05-13T10:58:41+02:00</time>
      </trkpt>
      <trkpt lat="45.92366" lon="4.79912">
        <ele>168.40039</ele>
        <time>2026-05-13T10:58:42+02:00</time>
      </trkpt>
      <trkpt lat="45.92365" lon="4.79905">
        <ele>168.2998</ele>
        <time>2026-05-13T10:58:43+02:00</time>
      </trkpt>
      <trkpt lat="45.92365" lon="4.79897">
        <ele>168.2998</ele>
        <time>2026-05-13T10:58:44+02:00</time>
      </trkpt>
      <trkpt lat="45.92365" lon="4.79889">
        <ele>168.2998</ele>
        <time>2026-05-13T10:58:45+02:00</time>
      </trkpt>
      <trkpt lat="45.92364" lon="4.79881">
        <ele>168.2998</ele>
        <time>2026-05-13T10:58:46+02:00</time>
      </trkpt>
      <trkpt lat="45.92363" lon="4.79872">
        <ele>167.60059</ele>
        <time>2026-05-13T10:58:47+02:00</time>
      </trkpt>
      <trkpt lat="45.92363" lon="4.79864">
        <ele>167.60059</ele>
        <time>2026-05-13T10:58:48+02:00</time>
      </trkpt>
      <trkpt lat="45.92363" lon="4.79856">
        <ele>167.60059</ele>
        <time>2026-05-13T10:58:49+02:00</time>
      </trkpt>
      <trkpt lat="45.92362" lon="4.79847">
        <ele>167.60059</ele>
        <time>2026-05-13T10:58:50+02:00</time>
      </trkpt>
      <trkpt lat="45.92362" lon="4.79838">
        <ele>167.60059</ele>
        <time>2026-05-13T10:58:51+02:00</time>
      </trkpt>
      <trkpt lat="45.92361" lon="4.79829">
        <ele>167.60059</ele>
        <time>2026-05-13T10:58:52+02:00</time>
      </trkpt>
      <trkpt lat="45.9236" lon="4.79821">
        <ele>167.60059</ele>
        <time>2026-05-13T10:58:53+02:00</time>
      </trkpt>
      <trkpt lat="45.92359" lon="4.79812">
        <ele>167.60059</ele>
        <time>2026-05-13T10:58:54+02:00</time>
      </trkpt>
      <trkpt lat="45.92359" lon="4.79804">
        <ele>167.60059</ele>
        <time>2026-05-13T10:58:55+02:00</time>
      </trkpt>
      <trkpt lat="45.92357" lon="4.79796">
        <ele>167.2002</ele>
        <time>2026-05-13T10:58:56+02:00</time>
      </trkpt>
      <trkpt lat="45.92356" lon="4.79788">
        <ele>167.2002</ele>
        <time>2026-05-13T10:58:57+02:00</time>
      </trkpt>
      <trkpt lat="45.92355" lon="4.7978">
        <ele>167.2002</ele>
        <time>2026-05-13T10:58:58+02:00</time>
      </trkpt>
      <trkpt lat="45.92355" lon="4.79772">
        <ele>167.10059</ele>
        <time>2026-05-13T10:58:59+02:00</time>
      </trkpt>
      <trkpt lat="45.92354" lon="4.79765">
        <ele>167.10059</ele>
        <time>2026-05-13T10:59:00+02:00</time>
      </trkpt>
      <trkpt lat="45.92354" lon="4.79757">
        <ele>167.10059</ele>
        <time>2026-05-13T10:59:01+02:00</time>
      </trkpt>
      <trkpt lat="45.92354" lon="4.79749">
        <ele>167.10059</ele>
        <time>2026-05-13T10:59:02+02:00</time>
      </trkpt>
      <trkpt lat="45.92353" lon="4.79741">
        <ele>167.2998</ele>
        <time>2026-05-13T10:59:03+02:00</time>
      </trkpt>
      <trkpt lat="45.92352" lon="4.79733">
        <ele>167.5</ele>
        <time>2026-05-13T10:59:04+02:00</time>
      </trkpt>
      <trkpt lat="45.92351" lon="4.79725">
        <ele>167.10059</ele>
        <time>2026-05-13T10:59:05+02:00</time>
      </trkpt>
      <trkpt lat="45.92351" lon="4.79718">
        <ele>167.2002</ele>
        <time>2026-05-13T10:59:06+02:00</time>
      </trkpt>
      <trkpt lat="45.9235" lon="4.7971">
        <ele>167.40039</ele>
        <time>2026-05-13T10:59:07+02:00</time>
      </trkpt>
      <trkpt lat="45.9235" lon="4.79702">
        <ele>167.7002</ele>
        <time>2026-05-13T10:59:08+02:00</time>
      </trkpt>
      <trkpt lat="45.92349" lon="4.79694">
        <ele>167.90039</ele>
        <time>2026-05-13T10:59:09+02:00</time>
      </trkpt>
      <trkpt lat="45.92348" lon="4.79686">
        <ele>168</ele>
        <time>2026-05-13T10:59:10+02:00</time>
      </trkpt>
      <trkpt lat="45.92347" lon="4.79678">
        <ele>168.10059</ele>
        <time>2026-05-13T10:59:11+02:00</time>
      </trkpt>
      <trkpt lat="45.92346" lon="4.7967">
        <ele>168.10059</ele>
        <time>2026-05-13T10:59:12+02:00</time>
      </trkpt>
      <trkpt lat="45.92346" lon="4.79663">
        <ele>168.10059</ele>
        <time>2026-05-13T10:59:13+02:00</time>
      </trkpt>
      <trkpt lat="45.92345" lon="4.79655">
        <ele>167.7998</ele>
        <time>2026-05-13T10:59:14+02:00</time>
      </trkpt>
      <trkpt lat="45.92344" lon="4.79648">
        <ele>167.7998</ele>
        <time>2026-05-13T10:59:15+02:00</time>
      </trkpt>
      <trkpt lat="45.92343" lon="4.79641">
        <ele>167.7998</ele>
        <time>2026-05-13T10:59:16+02:00</time>
      </trkpt>
      <trkpt lat="45.92342" lon="4.79633">
        <ele>167.7002</ele>
        <time>2026-05-13T10:59:17+02:00</time>
      </trkpt>
      <trkpt lat="45.92341" lon="4.79625">
        <ele>167.7998</ele>
        <time>2026-05-13T10:59:18+02:00</time>
      </trkpt>
      <trkpt lat="45.92341" lon="4.79617">
        <ele>167.7002</ele>
        <time>2026-05-13T10:59:19+02:00</time>
      </trkpt>
      <trkpt lat="45.9234" lon="4.79609">
        <ele>167.7002</ele>
        <time>2026-05-13T10:59:20+02:00</time>
      </trkpt>
      <trkpt lat="45.92339" lon="4.79601">
        <ele>167.2998</ele>
        <time>2026-05-13T10:59:21+02:00</time>
      </trkpt>
      <trkpt lat="45.92338" lon="4.79594">
        <ele>167.5</ele>
        <time>2026-05-13T10:59:22+02:00</time>
      </trkpt>
      <trkpt lat="45.92338" lon="4.79585">
        <ele>168.10059</ele>
        <time>2026-05-13T10:59:23+02:00</time>
      </trkpt>
      <trkpt lat="45.92338" lon="4.79578">
        <ele>169</ele>
        <time>2026-05-13T10:59:24+02:00</time>
      </trkpt>
      <trkpt lat="45.92337" lon="4.7957">
        <ele>169.90039</ele>
        <time>2026-05-13T10:59:25+02:00</time>
      </trkpt>
      <trkpt lat="45.92336" lon="4.79562">
        <ele>169.90039</ele>
        <time>2026-05-13T10:59:26+02:00</time>
      </trkpt>
      <trkpt lat="45.92336" lon="4.79554">
        <ele>170.5</ele>
        <time>2026-05-13T10:59:27+02:00</time>
      </trkpt>
      <trkpt lat="45.92335" lon="4.79546">
        <ele>171.10059</ele>
        <time>2026-05-13T10:59:28+02:00</time>
      </trkpt>
      <trkpt lat="45.92334" lon="4.79538">
        <ele>171.60059</ele>
        <time>2026-05-13T10:59:29+02:00</time>
      </trkpt>
      <trkpt lat="45.92333" lon="4.79531">
        <ele>171.7002</ele>
        <time>2026-05-13T10:59:30+02:00</time>
      </trkpt>
      <trkpt lat="45.92332" lon="4.79523">
        <ele>171.7998</ele>
        <time>2026-05-13T10:59:31+02:00</time>
      </trkpt>
      <trkpt lat="45.92331" lon="4.79515">
        <ele>171.90039</ele>
        <time>2026-05-13T10:59:32+02:00</time>
      </trkpt>
      <trkpt lat="45.9233" lon="4.79507">
        <ele>171.90039</ele>
        <time>2026-05-13T10:59:33+02:00</time>
      </trkpt>
      <trkpt lat="45.92329" lon="4.79499">
        <ele>171.90039</ele>
        <time>2026-05-13T10:59:34+02:00</time>
      </trkpt>
      <trkpt lat="45.92327" lon="4.79491">
        <ele>170.90039</ele>
        <time>2026-05-13T10:59:35+02:00</time>
      </trkpt>
      <trkpt lat="45.92326" lon="4.79483">
        <ele>170.7998</ele>
        <time>2026-05-13T10:59:36+02:00</time>
      </trkpt>
      <trkpt lat="45.92326" lon="4.79475">
        <ele>170.7998</ele>
        <time>2026-05-13T10:59:37+02:00</time>
      </trkpt>
      <trkpt lat="45.92325" lon="4.79467">
        <ele>170.7998</ele>
        <time>2026-05-13T10:59:38+02:00</time>
      </trkpt>
      <trkpt lat="45.92324" lon="4.79459">
        <ele>170.7998</ele>
        <time>2026-05-13T10:59:39+02:00</time>
      </trkpt>
      <trkpt lat="45.92323" lon="4.79451">
        <ele>170.7998</ele>
        <time>2026-05-13T10:59:40+02:00</time>
      </trkpt>
      <trkpt lat="45.92323" lon="4.79442">
        <ele>170.7998</ele>
        <time>2026-05-13T10:59:41+02:00</time>
      </trkpt>
      <trkpt lat="45.92322" lon="4.79435">
        <ele>170.7002</ele>
        <time>2026-05-13T10:59:42+02:00</time>
      </trkpt>
      <trkpt lat="45.92321" lon="4.79427">
        <ele>169.40039</ele>
        <time>2026-05-13T10:59:43+02:00</time>
      </trkpt>
      <trkpt lat="45.9232" lon="4.79419">
        <ele>169.40039</ele>
        <time>2026-05-13T10:59:44+02:00</time>
      </trkpt>
      <trkpt lat="45.9232" lon="4.79411">
        <ele>169.40039</ele>
        <time>2026-05-13T10:59:45+02:00</time>
      </trkpt>
      <trkpt lat="45.9232" lon="4.79403">
        <ele>169.2998</ele>
        <time>2026-05-13T10:59:46+02:00</time>
      </trkpt>
      <trkpt lat="45.9232" lon="4.79395">
        <ele>169.2998</ele>
        <time>2026-05-13T10:59:47+02:00</time>
      </trkpt>
      <trkpt lat="45.9232" lon="4.79388">
        <ele>169.2998</ele>
        <time>2026-05-13T10:59:48+02:00</time>
      </trkpt>
      <trkpt lat="45.92319" lon="4.7938">
        <ele>169.2002</ele>
        <time>2026-05-13T10:59:49+02:00</time>
      </trkpt>
      <trkpt lat="45.92319" lon="4.79372">
        <ele>169.2002</ele>
        <time>2026-05-13T10:59:50+02:00</time>
      </trkpt>
      <trkpt lat="45.92319" lon="4.79365">
        <ele>169.2002</ele>
        <time>2026-05-13T10:59:51+02:00</time>
      </trkpt>
      <trkpt lat="45.92319" lon="4.79357">
        <ele>169.2998</ele>
        <time>2026-05-13T10:59:52+02:00</time>
      </trkpt>
      <trkpt lat="45.92319" lon="4.7935">
        <ele>169.2998</ele>
        <time>2026-05-13T10:59:53+02:00</time>
      </trkpt>
      <trkpt lat="45.92319" lon="4.79342">
        <ele>169.2998</ele>
        <time>2026-05-13T10:59:54+02:00</time>
      </trkpt>
      <trkpt lat="45.92319" lon="4.79334">
        <ele>169.10059</ele>
        <time>2026-05-13T10:59:55+02:00</time>
      </trkpt>
      <trkpt lat="45.9232" lon="4.79327">
        <ele>168.5</ele>
        <time>2026-05-13T10:59:56+02:00</time>
      </trkpt>
      <trkpt lat="45.92319" lon="4.79319">
        <ele>167.60059</ele>
        <time>2026-05-13T10:59:57+02:00</time>
      </trkpt>
      <trkpt lat="45.92319" lon="4.79311">
        <ele>166.90039</ele>
        <time>2026-05-13T10:59:58+02:00</time>
      </trkpt>
      <trkpt lat="45.92319" lon="4.79303">
        <ele>166.7998</ele>
        <time>2026-05-13T10:59:59+02:00</time>
      </trkpt>
      <trkpt lat="45.9232" lon="4.79296">
        <ele>166.7998</ele>
        <time>2026-05-13T11:00:00+02:00</time>
      </trkpt>
      <trkpt lat="45.9232" lon="4.79288">
        <ele>166.7998</ele>
        <time>2026-05-13T11:00:01+02:00</time>
      </trkpt>
      <trkpt lat="45.9232" lon="4.7928">
        <ele>166.90039</ele>
        <time>2026-05-13T11:00:02+02:00</time>
      </trkpt>
      <trkpt lat="45.92321" lon="4.79272">
        <ele>166.90039</ele>
        <time>2026-05-13T11:00:03+02:00</time>
      </trkpt>
      <trkpt lat="45.92322" lon="4.79265">
        <ele>167</ele>
        <time>2026-05-13T11:00:04+02:00</time>
      </trkpt>
      <trkpt lat="45.92324" lon="4.79257">
        <ele>167</ele>
        <time>2026-05-13T11:00:05+02:00</time>
      </trkpt>
      <trkpt lat="45.92325" lon="4.7925">
        <ele>167</ele>
        <time>2026-05-13T11:00:06+02:00</time>
      </trkpt>
      <trkpt lat="45.92327" lon="4.79242">
        <ele>167</ele>
        <time>2026-05-13T11:00:07+02:00</time>
      </trkpt>
      <trkpt lat="45.92329" lon="4.79235">
        <ele>167.2002</ele>
        <time>2026-05-13T11:00:08+02:00</time>
      </trkpt>
      <trkpt lat="45.92331" lon="4.79228">
        <ele>167.2002</ele>
        <time>2026-05-13T11:00:09+02:00</time>
      </trkpt>
      <trkpt lat="45.92333" lon="4.79221">
        <ele>167</ele>
        <time>2026-05-13T11:00:10+02:00</time>
      </trkpt>
      <trkpt lat="45.92335" lon="4.79214">
        <ele>167</ele>
        <time>2026-05-13T11:00:11+02:00</time>
      </trkpt>
      <trkpt lat="45.92337" lon="4.79207">
        <ele>166.7998</ele>
        <time>2026-05-13T11:00:12+02:00</time>
      </trkpt>
      <trkpt lat="45.92339" lon="4.792">
        <ele>166.90039</ele>
        <time>2026-05-13T11:00:13+02:00</time>
      </trkpt>
      <trkpt lat="45.92342" lon="4.79194">
        <ele>166.90039</ele>
        <time>2026-05-13T11:00:14+02:00</time>
      </trkpt>
      <trkpt lat="45.92344" lon="4.79188">
        <ele>166.90039</ele>
        <time>2026-05-13T11:00:15+02:00</time>
      </trkpt>
      <trkpt lat="45.92347" lon="4.79182">
        <ele>166.90039</ele>
        <time>2026-05-13T11:00:16+02:00</time>
      </trkpt>
      <trkpt lat="45.9235" lon="4.79175">
        <ele>166.7998</ele>
        <time>2026-05-13T11:00:17+02:00</time>
      </trkpt>
      <trkpt lat="45.92353" lon="4.79169">
        <ele>166.7998</ele>
        <time>2026-05-13T11:00:18+02:00</time>
      </trkpt>
      <trkpt lat="45.92356" lon="4.79163">
        <ele>166.7998</ele>
        <time>2026-05-13T11:00:19+02:00</time>
      </trkpt>
      <trkpt lat="45.92359" lon="4.79157">
        <ele>166.90039</ele>
        <time>2026-05-13T11:00:20+02:00</time>
      </trkpt>
      <trkpt lat="45.92361" lon="4.7915">
        <ele>166.90039</ele>
        <time>2026-05-13T11:00:21+02:00</time>
      </trkpt>
      <trkpt lat="45.92364" lon="4.79144">
        <ele>167.10059</ele>
        <time>2026-05-13T11:00:22+02:00</time>
      </trkpt>
      <trkpt lat="45.92367" lon="4.79137">
        <ele>167.10059</ele>
        <time>2026-05-13T11:00:23+02:00</time>
      </trkpt>
      <trkpt lat="45.92371" lon="4.79131">
        <ele>167.2002</ele>
        <time>2026-05-13T11:00:24+02:00</time>
      </trkpt>
      <trkpt lat="45.92374" lon="4.79124">
        <ele>167</ele>
        <time>2026-05-13T11:00:25+02:00</time>
      </trkpt>
      <trkpt lat="45.92377" lon="4.79118">
        <ele>167.2002</ele>
        <time>2026-05-13T11:00:26+02:00</time>
      </trkpt>
      <trkpt lat="45.92381" lon="4.79112">
        <ele>167</ele>
        <time>2026-05-13T11:00:27+02:00</time>
      </trkpt>
      <trkpt lat="45.92384" lon="4.79106">
        <ele>167</ele>
        <time>2026-05-13T11:00:28+02:00</time>
      </trkpt>
      <trkpt lat="45.92388" lon="4.79101">
        <ele>167.2998</ele>
        <time>2026-05-13T11:00:29+02:00</time>
      </trkpt>
      <trkpt lat="45.92391" lon="4.79095">
        <ele>167.10059</ele>
        <time>2026-05-13T11:00:30+02:00</time>
      </trkpt>
      <trkpt lat="45.92395" lon="4.79089">
        <ele>167.10059</ele>
        <time>2026-05-13T11:00:31+02:00</time>
      </trkpt>
      <trkpt lat="45.92398" lon="4.79084">
        <ele>167.10059</ele>
        <time>2026-05-13T11:00:32+02:00</time>
      </trkpt>
      <trkpt lat="45.92401" lon="4.79078">
        <ele>167.10059</ele>
        <time>2026-05-13T11:00:33+02:00</time>
      </trkpt>
      <trkpt lat="45.92404" lon="4.79073">
        <ele>167.10059</ele>
        <time>2026-05-13T11:00:34+02:00</time>
      </trkpt>
      <trkpt lat="45.92408" lon="4.79068">
        <ele>167.2002</ele>
        <time>2026-05-13T11:00:35+02:00</time>
      </trkpt>
      <trkpt lat="45.9241" lon="4.79063">
        <ele>167.10059</ele>
        <time>2026-05-13T11:00:36+02:00</time>
      </trkpt>
      <trkpt lat="45.92414" lon="4.79058">
        <ele>167.40039</ele>
        <time>2026-05-13T11:00:37+02:00</time>
      </trkpt>
      <trkpt lat="45.92417" lon="4.79053">
        <ele>167.40039</ele>
        <time>2026-05-13T11:00:38+02:00</time>
      </trkpt>
      <trkpt lat="45.9242" lon="4.79048">
        <ele>167.40039</ele>
        <time>2026-05-13T11:00:39+02:00</time>
      </trkpt>
      <trkpt lat="45.92423" lon="4.79043">
        <ele>167.2002</ele>
        <time>2026-05-13T11:00:40+02:00</time>
      </trkpt>
      <trkpt lat="45.92426" lon="4.79038">
        <ele>167.2002</ele>
        <time>2026-05-13T11:00:41+02:00</time>
      </trkpt>
      <trkpt lat="45.92429" lon="4.79033">
        <ele>167.40039</ele>
        <time>2026-05-13T11:00:42+02:00</time>
      </trkpt>
      <trkpt lat="45.92432" lon="4.79028">
        <ele>167.2002</ele>
        <time>2026-05-13T11:00:43+02:00</time>
      </trkpt>
      <trkpt lat="45.92435" lon="4.79023">
        <ele>167.40039</ele>
        <time>2026-05-13T11:00:44+02:00</time>
      </trkpt>
      <trkpt lat="45.92439" lon="4.79018">
        <ele>167.2002</ele>
        <time>2026-05-13T11:00:45+02:00</time>
      </trkpt>
      <trkpt lat="45.92442" lon="4.79013">
        <ele>167.40039</ele>
        <time>2026-05-13T11:00:46+02:00</time>
      </trkpt>
      <trkpt lat="45.92446" lon="4.79008">
        <ele>167.10059</ele>
        <time>2026-05-13T11:00:47+02:00</time>
      </trkpt>
      <trkpt lat="45.9245" lon="4.79004">
        <ele>167.2998</ele>
        <time>2026-05-13T11:00:48+02:00</time>
      </trkpt>
      <trkpt lat="45.92454" lon="4.79">
        <ele>167.2998</ele>
        <time>2026-05-13T11:00:49+02:00</time>
      </trkpt>
      <trkpt lat="45.92458" lon="4.78996">
        <ele>167.2998</ele>
        <time>2026-05-13T11:00:50+02:00</time>
      </trkpt>
      <trkpt lat="45.92462" lon="4.78992">
        <ele>167.40039</ele>
        <time>2026-05-13T11:00:51+02:00</time>
      </trkpt>
      <trkpt lat="45.92465" lon="4.78988">
        <ele>167.5</ele>
        <time>2026-05-13T11:00:52+02:00</time>
      </trkpt>
      <trkpt lat="45.92469" lon="4.78984">
        <ele>167.2002</ele>
        <time>2026-05-13T11:00:53+02:00</time>
      </trkpt>
      <trkpt lat="45.92473" lon="4.7898">
        <ele>167.2998</ele>
        <time>2026-05-13T11:00:54+02:00</time>
      </trkpt>
      <trkpt lat="45.92477" lon="4.78977">
        <ele>167</ele>
        <time>2026-05-13T11:00:55+02:00</time>
      </trkpt>
      <trkpt lat="45.9248" lon="4.78973">
        <ele>167</ele>
        <time>2026-05-13T11:00:56+02:00</time>
      </trkpt>
      <trkpt lat="45.92484" lon="4.7897">
        <ele>167.2002</ele>
        <time>2026-05-13T11:00:57+02:00</time>
      </trkpt>
      <trkpt lat="45.92488" lon="4.78966">
        <ele>166.90039</ele>
        <time>2026-05-13T11:00:58+02:00</time>
      </trkpt>
      <trkpt lat="45.92492" lon="4.78963">
        <ele>167.2002</ele>
        <time>2026-05-13T11:00:59+02:00</time>
      </trkpt>
      <trkpt lat="45.92495" lon="4.78959">
        <ele>167.2998</ele>
        <time>2026-05-13T11:01:00+02:00</time>
      </trkpt>
      <trkpt lat="45.92499" lon="4.78955">
        <ele>167.2998</ele>
        <time>2026-05-13T11:01:01+02:00</time>
      </trkpt>
      <trkpt lat="45.92503" lon="4.78952">
        <ele>167.2998</ele>
        <time>2026-05-13T11:01:02+02:00</time>
      </trkpt>
      <trkpt lat="45.92508" lon="4.78949">
        <ele>167.40039</ele>
        <time>2026-05-13T11:01:03+02:00</time>
      </trkpt>
      <trkpt lat="45.92511" lon="4.78945">
        <ele>167.40039</ele>
        <time>2026-05-13T11:01:04+02:00</time>
      </trkpt>
      <trkpt lat="45.92516" lon="4.78942">
        <ele>167.10059</ele>
        <time>2026-05-13T11:01:05+02:00</time>
      </trkpt>
      <trkpt lat="45.9252" lon="4.78939">
        <ele>167.2002</ele>
        <time>2026-05-13T11:01:06+02:00</time>
      </trkpt>
      <trkpt lat="45.92524" lon="4.78936">
        <ele>167.2002</ele>
        <time>2026-05-13T11:01:07+02:00</time>
      </trkpt>
      <trkpt lat="45.92528" lon="4.78933">
        <ele>166.90039</ele>
        <time>2026-05-13T11:01:08+02:00</time>
      </trkpt>
      <trkpt lat="45.92533" lon="4.7893">
        <ele>167.10059</ele>
        <time>2026-05-13T11:01:09+02:00</time>
      </trkpt>
      <trkpt lat="45.92537" lon="4.78926">
        <ele>167.2002</ele>
        <time>2026-05-13T11:01:10+02:00</time>
      </trkpt>
      <trkpt lat="45.92542" lon="4.78924">
        <ele>167.2002</ele>
        <time>2026-05-13T11:01:11+02:00</time>
      </trkpt>
      <trkpt lat="45.92547" lon="4.78921">
        <ele>167.5</ele>
        <time>2026-05-13T11:01:12+02:00</time>
      </trkpt>
      <trkpt lat="45.92552" lon="4.78918">
        <ele>167.40039</ele>
        <time>2026-05-13T11:01:13+02:00</time>
      </trkpt>
      <trkpt lat="45.92556" lon="4.78916">
        <ele>167.40039</ele>
        <time>2026-05-13T11:01:14+02:00</time>
      </trkpt>
      <trkpt lat="45.92561" lon="4.78914">
        <ele>167.5</ele>
        <time>2026-05-13T11:01:15+02:00</time>
      </trkpt>
      <trkpt lat="45.92565" lon="4.78912">
        <ele>167.5</ele>
        <time>2026-05-13T11:01:16+02:00</time>
      </trkpt>
      <trkpt lat="45.92569" lon="4.78911">
        <ele>167.60059</ele>
        <time>2026-05-13T11:01:17+02:00</time>
      </trkpt>
      <trkpt lat="45.92574" lon="4.7891">
        <ele>167.7002</ele>
        <time>2026-05-13T11:01:18+02:00</time>
      </trkpt>
      <trkpt lat="45.92579" lon="4.78908">
        <ele>167.40039</ele>
        <time>2026-05-13T11:01:19+02:00</time>
      </trkpt>
      <trkpt lat="45.92584" lon="4.78906">
        <ele>167.40039</ele>
        <time>2026-05-13T11:01:20+02:00</time>
      </trkpt>
      <trkpt lat="45.92589" lon="4.78903">
        <ele>167.5</ele>
        <time>2026-05-13T11:01:21+02:00</time>
      </trkpt>
      <trkpt lat="45.92594" lon="4.78901">
        <ele>167.60059</ele>
        <time>2026-05-13T11:01:22+02:00</time>
      </trkpt>
      <trkpt lat="45.92598" lon="4.78898">
        <ele>167.40039</ele>
        <time>2026-05-13T11:01:23+02:00</time>
      </trkpt>
      <trkpt lat="45.92603" lon="4.78897">
        <ele>167.40039</ele>
        <time>2026-05-13T11:01:24+02:00</time>
      </trkpt>
      <trkpt lat="45.92608" lon="4.78894">
        <ele>167.40039</ele>
        <time>2026-05-13T11:01:25+02:00</time>
      </trkpt>
      <trkpt lat="45.92613" lon="4.78891">
        <ele>167.2998</ele>
        <time>2026-05-13T11:01:26+02:00</time>
      </trkpt>
      <trkpt lat="45.92618" lon="4.78888">
        <ele>167.40039</ele>
        <time>2026-05-13T11:01:27+02:00</time>
      </trkpt>
      <trkpt lat="45.92622" lon="4.78886">
        <ele>167.5</ele>
        <time>2026-05-13T11:01:28+02:00</time>
      </trkpt>
      <trkpt lat="45.92627" lon="4.78883">
        <ele>167.60059</ele>
        <time>2026-05-13T11:01:29+02:00</time>
      </trkpt>
      <trkpt lat="45.92632" lon="4.7888">
        <ele>167.7002</ele>
        <time>2026-05-13T11:01:30+02:00</time>
      </trkpt>
      <trkpt lat="45.92637" lon="4.78877">
        <ele>167.7002</ele>
        <time>2026-05-13T11:01:31+02:00</time>
      </trkpt>
      <trkpt lat="45.92642" lon="4.78874">
        <ele>167.7002</ele>
        <time>2026-05-13T11:01:32+02:00</time>
      </trkpt>
      <trkpt lat="45.92647" lon="4.78871">
        <ele>167.7002</ele>
        <time>2026-05-13T11:01:33+02:00</time>
      </trkpt>
      <trkpt lat="45.92651" lon="4.78868">
        <ele>167.7002</ele>
        <time>2026-05-13T11:01:34+02:00</time>
      </trkpt>
      <trkpt lat="45.92656" lon="4.78865">
        <ele>167.5</ele>
        <time>2026-05-13T11:01:35+02:00</time>
      </trkpt>
      <trkpt lat="45.92661" lon="4.78862">
        <ele>167.5</ele>
        <time>2026-05-13T11:01:36+02:00</time>
      </trkpt>
      <trkpt lat="45.92667" lon="4.78859">
        <ele>167.60059</ele>
        <time>2026-05-13T11:01:37+02:00</time>
      </trkpt>
      <trkpt lat="45.92672" lon="4.78856">
        <ele>167.40039</ele>
        <time>2026-05-13T11:01:38+02:00</time>
      </trkpt>
      <trkpt lat="45.92677" lon="4.78853">
        <ele>167.40039</ele>
        <time>2026-05-13T11:01:39+02:00</time>
      </trkpt>
      <trkpt lat="45.92681" lon="4.7885">
        <ele>167.5</ele>
        <time>2026-05-13T11:01:40+02:00</time>
      </trkpt>
      <trkpt lat="45.92686" lon="4.78847">
        <ele>167.5</ele>
        <time>2026-05-13T11:01:41+02:00</time>
      </trkpt>
      <trkpt lat="45.9269" lon="4.78844">
        <ele>167.5</ele>
        <time>2026-05-13T11:01:42+02:00</time>
      </trkpt>
      <trkpt lat="45.92695" lon="4.78842">
        <ele>167.7002</ele>
        <time>2026-05-13T11:01:43+02:00</time>
      </trkpt>
      <trkpt lat="45.92699" lon="4.78839">
        <ele>167.7998</ele>
        <time>2026-05-13T11:01:44+02:00</time>
      </trkpt>
      <trkpt lat="45.92704" lon="4.78836">
        <ele>167.90039</ele>
        <time>2026-05-13T11:01:45+02:00</time>
      </trkpt>
      <trkpt lat="45.92709" lon="4.78833">
        <ele>167.90039</ele>
        <time>2026-05-13T11:01:46+02:00</time>
      </trkpt>
      <trkpt lat="45.92714" lon="4.78829">
        <ele>167.7002</ele>
        <time>2026-05-13T11:01:47+02:00</time>
      </trkpt>
      <trkpt lat="45.92718" lon="4.78826">
        <ele>167.7998</ele>
        <time>2026-05-13T11:01:48+02:00</time>
      </trkpt>
      <trkpt lat="45.92724" lon="4.78822">
        <ele>167.5</ele>
        <time>2026-05-13T11:01:49+02:00</time>
      </trkpt>
      <trkpt lat="45.92729" lon="4.78818">
        <ele>167.7002</ele>
        <time>2026-05-13T11:01:50+02:00</time>
      </trkpt>
      <trkpt lat="45.92734" lon="4.78814">
        <ele>167.7002</ele>
        <time>2026-05-13T11:01:51+02:00</time>
      </trkpt>
      <trkpt lat="45.92739" lon="4.78811">
        <ele>167.7002</ele>
        <time>2026-05-13T11:01:52+02:00</time>
      </trkpt>
      <trkpt lat="45.92744" lon="4.78808">
        <ele>168</ele>
        <time>2026-05-13T11:01:53+02:00</time>
      </trkpt>
      <trkpt lat="45.92749" lon="4.78805">
        <ele>168</ele>
        <time>2026-05-13T11:01:54+02:00</time>
      </trkpt>
      <trkpt lat="45.92754" lon="4.78801">
        <ele>168.10059</ele>
        <time>2026-05-13T11:01:55+02:00</time>
      </trkpt>
      <trkpt lat="45.92759" lon="4.78797">
        <ele>167.90039</ele>
        <time>2026-05-13T11:01:56+02:00</time>
      </trkpt>
      <trkpt lat="45.92764" lon="4.78794">
        <ele>168</ele>
        <time>2026-05-13T11:01:57+02:00</time>
      </trkpt>
      <trkpt lat="45.92768" lon="4.7879">
        <ele>168</ele>
        <time>2026-05-13T11:01:58+02:00</time>
      </trkpt>
      <trkpt lat="45.92773" lon="4.78786">
        <ele>167.7002</ele>
        <time>2026-05-13T11:01:59+02:00</time>
      </trkpt>
      <trkpt lat="45.92778" lon="4.78782">
        <ele>167.90039</ele>
        <time>2026-05-13T11:02:00+02:00</time>
      </trkpt>
      <trkpt lat="45.92783" lon="4.78779">
        <ele>167.7998</ele>
        <time>2026-05-13T11:02:01+02:00</time>
      </trkpt>
      <trkpt lat="45.92787" lon="4.78775">
        <ele>168</ele>
        <time>2026-05-13T11:02:02+02:00</time>
      </trkpt>
      <trkpt lat="45.92792" lon="4.78772">
        <ele>167.7998</ele>
        <time>2026-05-13T11:02:03+02:00</time>
      </trkpt>
      <trkpt lat="45.92796" lon="4.78769">
        <ele>167.90039</ele>
        <time>2026-05-13T11:02:04+02:00</time>
      </trkpt>
      <trkpt lat="45.92801" lon="4.78765">
        <ele>168</ele>
        <time>2026-05-13T11:02:05+02:00</time>
      </trkpt>
      <trkpt lat="45.92806" lon="4.78762">
        <ele>167.90039</ele>
        <time>2026-05-13T11:02:06+02:00</time>
      </trkpt>
      <trkpt lat="45.92811" lon="4.78759">
        <ele>167.90039</ele>
        <time>2026-05-13T11:02:07+02:00</time>
      </trkpt>
      <trkpt lat="45.92814" lon="4.78757">
        <ele>167.90039</ele>
        <time>2026-05-13T11:02:08+02:00</time>
      </trkpt>
      <trkpt lat="45.92819" lon="4.78754">
        <ele>167.7002</ele>
        <time>2026-05-13T11:02:09+02:00</time>
      </trkpt>
      <trkpt lat="45.92822" lon="4.78752">
        <ele>167.7002</ele>
        <time>2026-05-13T11:02:10+02:00</time>
      </trkpt>
      <trkpt lat="45.92827" lon="4.78748">
        <ele>167.7002</ele>
        <time>2026-05-13T11:02:11+02:00</time>
      </trkpt>
      <trkpt lat="45.92831" lon="4.78745">
        <ele>167.40039</ele>
        <time>2026-05-13T11:02:12+02:00</time>
      </trkpt>
      <trkpt lat="45.92835" lon="4.78741">
        <ele>167.40039</ele>
        <time>2026-05-13T11:02:13+02:00</time>
      </trkpt>
      <trkpt lat="45.9284" lon="4.78738">
        <ele>167.5</ele>
        <time>2026-05-13T11:02:14+02:00</time>
      </trkpt>
      <trkpt lat="45.92845" lon="4.78734">
        <ele>167.5</ele>
        <time>2026-05-13T11:02:15+02:00</time>
      </trkpt>
      <trkpt lat="45.92849" lon="4.78731">
        <ele>167.7002</ele>
        <time>2026-05-13T11:02:16+02:00</time>
      </trkpt>
      <trkpt lat="45.92854" lon="4.78728">
        <ele>167.7002</ele>
        <time>2026-05-13T11:02:17+02:00</time>
      </trkpt>
      <trkpt lat="45.92859" lon="4.78725">
        <ele>167.7002</ele>
        <time>2026-05-13T11:02:18+02:00</time>
      </trkpt>
      <trkpt lat="45.92864" lon="4.78722">
        <ele>167.7002</ele>
        <time>2026-05-13T11:02:19+02:00</time>
      </trkpt>
      <trkpt lat="45.92869" lon="4.78719">
        <ele>167.60059</ele>
        <time>2026-05-13T11:02:20+02:00</time>
      </trkpt>
      <trkpt lat="45.92873" lon="4.78716">
        <ele>167.60059</ele>
        <time>2026-05-13T11:02:21+02:00</time>
      </trkpt>
      <trkpt lat="45.92878" lon="4.78712">
        <ele>167.5</ele>
        <time>2026-05-13T11:02:22+02:00</time>
      </trkpt>
      <trkpt lat="45.92882" lon="4.78709">
        <ele>167.5</ele>
        <time>2026-05-13T11:02:23+02:00</time>
      </trkpt>
      <trkpt lat="45.92887" lon="4.78706">
        <ele>167.60059</ele>
        <time>2026-05-13T11:02:24+02:00</time>
      </trkpt>
      <trkpt lat="45.92892" lon="4.78702">
        <ele>167.5</ele>
        <time>2026-05-13T11:02:25+02:00</time>
      </trkpt>
      <trkpt lat="45.92896" lon="4.78699">
        <ele>167.60059</ele>
        <time>2026-05-13T11:02:26+02:00</time>
      </trkpt>
      <trkpt lat="45.92901" lon="4.78696">
        <ele>167.7002</ele>
        <time>2026-05-13T11:02:27+02:00</time>
      </trkpt>
      <trkpt lat="45.92906" lon="4.78693">
        <ele>167.60059</ele>
        <time>2026-05-13T11:02:28+02:00</time>
      </trkpt>
      <trkpt lat="45.9291" lon="4.78689">
        <ele>167.60059</ele>
        <time>2026-05-13T11:02:29+02:00</time>
      </trkpt>
      <trkpt lat="45.92915" lon="4.78686">
        <ele>167.60059</ele>
        <time>2026-05-13T11:02:30+02:00</time>
      </trkpt>
      <trkpt lat="45.92919" lon="4.78684">
        <ele>167.60059</ele>
        <time>2026-05-13T11:02:31+02:00</time>
      </trkpt>
      <trkpt lat="45.92923" lon="4.78681">
        <ele>167.60059</ele>
        <time>2026-05-13T11:02:32+02:00</time>
      </trkpt>
      <trkpt lat="45.92928" lon="4.78678">
        <ele>167.60059</ele>
        <time>2026-05-13T11:02:33+02:00</time>
      </trkpt>
      <trkpt lat="45.92932" lon="4.78675">
        <ele>167.5</ele>
        <time>2026-05-13T11:02:34+02:00</time>
      </trkpt>
      <trkpt lat="45.92936" lon="4.78671">
        <ele>167.5</ele>
        <time>2026-05-13T11:02:35+02:00</time>
      </trkpt>
      <trkpt lat="45.92941" lon="4.78668">
        <ele>167.40039</ele>
        <time>2026-05-13T11:02:36+02:00</time>
      </trkpt>
      <trkpt lat="45.92945" lon="4.78665">
        <ele>167.40039</ele>
        <time>2026-05-13T11:02:37+02:00</time>
      </trkpt>
      <trkpt lat="45.9295" lon="4.78661">
        <ele>167.5</ele>
        <time>2026-05-13T11:02:38+02:00</time>
      </trkpt>
      <trkpt lat="45.92954" lon="4.78658">
        <ele>167.5</ele>
        <time>2026-05-13T11:02:39+02:00</time>
      </trkpt>
      <trkpt lat="45.92959" lon="4.78655">
        <ele>167.60059</ele>
        <time>2026-05-13T11:02:40+02:00</time>
      </trkpt>
      <trkpt lat="45.92963" lon="4.78651">
        <ele>167.60059</ele>
        <time>2026-05-13T11:02:41+02:00</time>
      </trkpt>
      <trkpt lat="45.92967" lon="4.78647">
        <ele>167.60059</ele>
        <time>2026-05-13T11:02:42+02:00</time>
      </trkpt>
      <trkpt lat="45.92972" lon="4.78643">
        <ele>167.60059</ele>
        <time>2026-05-13T11:02:43+02:00</time>
      </trkpt>
      <trkpt lat="45.92977" lon="4.78639">
        <ele>167.60059</ele>
        <time>2026-05-13T11:02:44+02:00</time>
      </trkpt>
      <trkpt lat="45.92981" lon="4.78636">
        <ele>167.7002</ele>
        <time>2026-05-13T11:02:45+02:00</time>
      </trkpt>
      <trkpt lat="45.92985" lon="4.78632">
        <ele>167.60059</ele>
        <time>2026-05-13T11:02:46+02:00</time>
      </trkpt>
      <trkpt lat="45.9299" lon="4.78629">
        <ele>167.7002</ele>
        <time>2026-05-13T11:02:47+02:00</time>
      </trkpt>
      <trkpt lat="45.92994" lon="4.78625">
        <ele>167.60059</ele>
        <time>2026-05-13T11:02:48+02:00</time>
      </trkpt>
      <trkpt lat="45.92999" lon="4.78622">
        <ele>167.7002</ele>
        <time>2026-05-13T11:02:49+02:00</time>
      </trkpt>
      <trkpt lat="45.93003" lon="4.78618">
        <ele>167.7998</ele>
        <time>2026-05-13T11:02:50+02:00</time>
      </trkpt>
      <trkpt lat="45.93007" lon="4.78615">
        <ele>167.7002</ele>
        <time>2026-05-13T11:02:51+02:00</time>
      </trkpt>
      <trkpt lat="45.93012" lon="4.78612">
        <ele>167.7002</ele>
        <time>2026-05-13T11:02:52+02:00</time>
      </trkpt>
      <trkpt lat="45.93017" lon="4.78609">
        <ele>167.60059</ele>
        <time>2026-05-13T11:02:53+02:00</time>
      </trkpt>
      <trkpt lat="45.93021" lon="4.78605">
        <ele>167.60059</ele>
        <time>2026-05-13T11:02:54+02:00</time>
      </trkpt>
      <trkpt lat="45.93025" lon="4.78602">
        <ele>167.60059</ele>
        <time>2026-05-13T11:02:55+02:00</time>
      </trkpt>
      <trkpt lat="45.9303" lon="4.78599">
        <ele>167.5</ele>
        <time>2026-05-13T11:02:56+02:00</time>
      </trkpt>
      <trkpt lat="45.93034" lon="4.78596">
        <ele>167.5</ele>
        <time>2026-05-13T11:02:57+02:00</time>
      </trkpt>
      <trkpt lat="45.93039" lon="4.78593">
        <ele>167.60059</ele>
        <time>2026-05-13T11:02:58+02:00</time>
      </trkpt>
      <trkpt lat="45.93043" lon="4.7859">
        <ele>167.5</ele>
        <time>2026-05-13T11:02:59+02:00</time>
      </trkpt>
      <trkpt lat="45.93047" lon="4.78586">
        <ele>167.60059</ele>
        <time>2026-05-13T11:03:00+02:00</time>
      </trkpt>
      <trkpt lat="45.93052" lon="4.78583">
        <ele>167.60059</ele>
        <time>2026-05-13T11:03:01+02:00</time>
      </trkpt>
      <trkpt lat="45.93056" lon="4.7858">
        <ele>167.7002</ele>
        <time>2026-05-13T11:03:02+02:00</time>
      </trkpt>
      <trkpt lat="45.9306" lon="4.78577">
        <ele>167.7002</ele>
        <time>2026-05-13T11:03:03+02:00</time>
      </trkpt>
      <trkpt lat="45.93065" lon="4.78574">
        <ele>167.60059</ele>
        <time>2026-05-13T11:03:04+02:00</time>
      </trkpt>
      <trkpt lat="45.93069" lon="4.78571">
        <ele>167.7002</ele>
        <time>2026-05-13T11:03:05+02:00</time>
      </trkpt>
      <trkpt lat="45.93074" lon="4.78567">
        <ele>167.7002</ele>
        <time>2026-05-13T11:03:06+02:00</time>
      </trkpt>
      <trkpt lat="45.93078" lon="4.78564">
        <ele>167.60059</ele>
        <time>2026-05-13T11:03:07+02:00</time>
      </trkpt>
      <trkpt lat="45.93083" lon="4.78561">
        <ele>167.60059</ele>
        <time>2026-05-13T11:03:08+02:00</time>
      </trkpt>
      <trkpt lat="45.93087" lon="4.78558">
        <ele>167.7002</ele>
        <time>2026-05-13T11:03:09+02:00</time>
      </trkpt>
      <trkpt lat="45.93092" lon="4.78555">
        <ele>167.60059</ele>
        <time>2026-05-13T11:03:10+02:00</time>
      </trkpt>
      <trkpt lat="45.93096" lon="4.78552">
        <ele>167.60059</ele>
        <time>2026-05-13T11:03:11+02:00</time>
      </trkpt>
      <trkpt lat="45.931" lon="4.78548">
        <ele>167.60059</ele>
        <time>2026-05-13T11:03:12+02:00</time>
      </trkpt>
      <trkpt lat="45.93105" lon="4.78545">
        <ele>167.60059</ele>
        <time>2026-05-13T11:03:13+02:00</time>
      </trkpt>
      <trkpt lat="45.9311" lon="4.78542">
        <ele>167.7002</ele>
        <time>2026-05-13T11:03:14+02:00</time>
      </trkpt>
      <trkpt lat="45.93114" lon="4.78539">
        <ele>167.60059</ele>
        <time>2026-05-13T11:03:15+02:00</time>
      </trkpt>
      <trkpt lat="45.93118" lon="4.78535">
        <ele>167.60059</ele>
        <time>2026-05-13T11:03:16+02:00</time>
      </trkpt>
      <trkpt lat="45.93123" lon="4.78532">
        <ele>167.7002</ele>
        <time>2026-05-13T11:03:17+02:00</time>
      </trkpt>
      <trkpt lat="45.93128" lon="4.78529">
        <ele>167.60059</ele>
        <time>2026-05-13T11:03:18+02:00</time>
      </trkpt>
      <trkpt lat="45.93132" lon="4.78526">
        <ele>167.60059</ele>
        <time>2026-05-13T11:03:19+02:00</time>
      </trkpt>
      <trkpt lat="45.93136" lon="4.78522">
        <ele>167.40039</ele>
        <time>2026-05-13T11:03:20+02:00</time>
      </trkpt>
      <trkpt lat="45.93141" lon="4.78519">
        <ele>167.5</ele>
        <time>2026-05-13T11:03:21+02:00</time>
      </trkpt>
      <trkpt lat="45.93146" lon="4.78516">
        <ele>167.5</ele>
        <time>2026-05-13T11:03:22+02:00</time>
      </trkpt>
      <trkpt lat="45.9315" lon="4.78513">
        <ele>167.40039</ele>
        <time>2026-05-13T11:03:23+02:00</time>
      </trkpt>
      <trkpt lat="45.93155" lon="4.78509">
        <ele>167.5</ele>
        <time>2026-05-13T11:03:24+02:00</time>
      </trkpt>
      <trkpt lat="45.93159" lon="4.78506">
        <ele>167.5</ele>
        <time>2026-05-13T11:03:25+02:00</time>
      </trkpt>
      <trkpt lat="45.93164" lon="4.78503">
        <ele>167.60059</ele>
        <time>2026-05-13T11:03:26+02:00</time>
      </trkpt>
      <trkpt lat="45.93168" lon="4.785">
        <ele>167.60059</ele>
        <time>2026-05-13T11:03:27+02:00</time>
      </trkpt>
      <trkpt lat="45.93173" lon="4.78497">
        <ele>167.60059</ele>
        <time>2026-05-13T11:03:28+02:00</time>
      </trkpt>
      <trkpt lat="45.93177" lon="4.78494">
        <ele>167.60059</ele>
        <time>2026-05-13T11:03:29+02:00</time>
      </trkpt>
      <trkpt lat="45.93181" lon="4.78491">
        <ele>167.60059</ele>
        <time>2026-05-13T11:03:30+02:00</time>
      </trkpt>
      <trkpt lat="45.93186" lon="4.78488">
        <ele>167.5</ele>
        <time>2026-05-13T11:03:31+02:00</time>
      </trkpt>
      <trkpt lat="45.9319" lon="4.78485">
        <ele>167.60059</ele>
        <time>2026-05-13T11:03:32+02:00</time>
      </trkpt>
      <trkpt lat="45.93194" lon="4.78481">
        <ele>167.7002</ele>
        <time>2026-05-13T11:03:33+02:00</time>
      </trkpt>
      <trkpt lat="45.93199" lon="4.78478">
        <ele>167.60059</ele>
        <time>2026-05-13T11:03:34+02:00</time>
      </trkpt>
      <trkpt lat="45.93203" lon="4.78475">
        <ele>167.60059</ele>
        <time>2026-05-13T11:03:35+02:00</time>
      </trkpt>
      <trkpt lat="45.93207" lon="4.78472">
        <ele>167.7002</ele>
        <time>2026-05-13T11:03:36+02:00</time>
      </trkpt>
      <trkpt lat="45.93212" lon="4.78469">
        <ele>167.60059</ele>
        <time>2026-05-13T11:03:37+02:00</time>
      </trkpt>
      <trkpt lat="45.93216" lon="4.78466">
        <ele>167.60059</ele>
        <time>2026-05-13T11:03:38+02:00</time>
      </trkpt>
      <trkpt lat="45.93221" lon="4.78462">
        <ele>167.60059</ele>
        <time>2026-05-13T11:03:39+02:00</time>
      </trkpt>
      <trkpt lat="45.93225" lon="4.78459">
        <ele>167.7002</ele>
        <time>2026-05-13T11:03:40+02:00</time>
      </trkpt>
      <trkpt lat="45.93229" lon="4.78456">
        <ele>167.7998</ele>
        <time>2026-05-13T11:03:41+02:00</time>
      </trkpt>
      <trkpt lat="45.93233" lon="4.78453">
        <ele>167.7002</ele>
        <time>2026-05-13T11:03:42+02:00</time>
      </trkpt>
      <trkpt lat="45.93237" lon="4.7845">
        <ele>167.7998</ele>
        <time>2026-05-13T11:03:43+02:00</time>
      </trkpt>
      <trkpt lat="45.93242" lon="4.78447">
        <ele>167.90039</ele>
        <time>2026-05-13T11:03:44+02:00</time>
      </trkpt>
      <trkpt lat="45.93247" lon="4.78444">
        <ele>167.7998</ele>
        <time>2026-05-13T11:03:45+02:00</time>
      </trkpt>
      <trkpt lat="45.93251" lon="4.78441">
        <ele>167.7998</ele>
        <time>2026-05-13T11:03:46+02:00</time>
      </trkpt>
      <trkpt lat="45.93255" lon="4.78438">
        <ele>167.90039</ele>
        <time>2026-05-13T11:03:47+02:00</time>
      </trkpt>
      <trkpt lat="45.9326" lon="4.78436">
        <ele>167.7002</ele>
        <time>2026-05-13T11:03:48+02:00</time>
      </trkpt>
      <trkpt lat="45.93264" lon="4.78433">
        <ele>167.7002</ele>
        <time>2026-05-13T11:03:49+02:00</time>
      </trkpt>
      <trkpt lat="45.93268" lon="4.7843">
        <ele>167.90039</ele>
        <time>2026-05-13T11:03:50+02:00</time>
      </trkpt>
      <trkpt lat="45.93273" lon="4.78427">
        <ele>167.60059</ele>
        <time>2026-05-13T11:03:51+02:00</time>
      </trkpt>
      <trkpt lat="45.93277" lon="4.78423">
        <ele>167.7998</ele>
        <time>2026-05-13T11:03:52+02:00</time>
      </trkpt>
      <trkpt lat="45.93281" lon="4.7842">
        <ele>167.5</ele>
        <time>2026-05-13T11:03:53+02:00</time>
      </trkpt>
      <trkpt lat="45.93285" lon="4.78417">
        <ele>167.60059</ele>
        <time>2026-05-13T11:03:54+02:00</time>
      </trkpt>
      <trkpt lat="45.93289" lon="4.78414">
        <ele>167.7002</ele>
        <time>2026-05-13T11:03:55+02:00</time>
      </trkpt>
      <trkpt lat="45.93294" lon="4.78411">
        <ele>167.5</ele>
        <time>2026-05-13T11:03:56+02:00</time>
      </trkpt>
      <trkpt lat="45.93298" lon="4.78408">
        <ele>167.60059</ele>
        <time>2026-05-13T11:03:57+02:00</time>
      </trkpt>
      <trkpt lat="45.93302" lon="4.78405">
        <ele>167.7998</ele>
        <time>2026-05-13T11:03:58+02:00</time>
      </trkpt>
      <trkpt lat="45.93306" lon="4.78402">
        <ele>167.5</ele>
        <time>2026-05-13T11:03:59+02:00</time>
      </trkpt>
      <trkpt lat="45.93311" lon="4.78399">
        <ele>167.7002</ele>
        <time>2026-05-13T11:04:00+02:00</time>
      </trkpt>
      <trkpt lat="45.93314" lon="4.78396">
        <ele>167.7998</ele>
        <time>2026-05-13T11:04:01+02:00</time>
      </trkpt>
      <trkpt lat="45.93319" lon="4.78392">
        <ele>167.60059</ele>
        <time>2026-05-13T11:04:02+02:00</time>
      </trkpt>
      <trkpt lat="45.93323" lon="4.78389">
        <ele>167.60059</ele>
        <time>2026-05-13T11:04:03+02:00</time>
      </trkpt>
      <trkpt lat="45.93327" lon="4.78386">
        <ele>167.7002</ele>
        <time>2026-05-13T11:04:04+02:00</time>
      </trkpt>
      <trkpt lat="45.93331" lon="4.78383">
        <ele>167.5</ele>
        <time>2026-05-13T11:04:05+02:00</time>
      </trkpt>
      <trkpt lat="45.93336" lon="4.7838">
        <ele>167.5</ele>
        <time>2026-05-13T11:04:06+02:00</time>
      </trkpt>
      <trkpt lat="45.9334" lon="4.78378">
        <ele>167.7002</ele>
        <time>2026-05-13T11:04:07+02:00</time>
      </trkpt>
      <trkpt lat="45.93344" lon="4.78375">
        <ele>167.5</ele>
        <time>2026-05-13T11:04:08+02:00</time>
      </trkpt>
      <trkpt lat="45.93348" lon="4.78372">
        <ele>167.5</ele>
        <time>2026-05-13T11:04:09+02:00</time>
      </trkpt>
      <trkpt lat="45.93352" lon="4.78369">
        <ele>167.7998</ele>
        <time>2026-05-13T11:04:10+02:00</time>
      </trkpt>
      <trkpt lat="45.93356" lon="4.78366">
        <ele>167.90039</ele>
        <time>2026-05-13T11:04:11+02:00</time>
      </trkpt>
      <trkpt lat="45.93361" lon="4.78362">
        <ele>168.10059</ele>
        <time>2026-05-13T11:04:12+02:00</time>
      </trkpt>
      <trkpt lat="45.93365" lon="4.78359">
        <ele>167.7002</ele>
        <time>2026-05-13T11:04:13+02:00</time>
      </trkpt>
      <trkpt lat="45.93369" lon="4.78356">
        <ele>167.90039</ele>
        <time>2026-05-13T11:04:14+02:00</time>
      </trkpt>
      <trkpt lat="45.93374" lon="4.78353">
        <ele>168.10059</ele>
        <time>2026-05-13T11:04:15+02:00</time>
      </trkpt>
      <trkpt lat="45.93379" lon="4.78351">
        <ele>167.7998</ele>
        <time>2026-05-13T11:04:16+02:00</time>
      </trkpt>
      <trkpt lat="45.93383" lon="4.78348">
        <ele>167.7998</ele>
        <time>2026-05-13T11:04:17+02:00</time>
      </trkpt>
      <trkpt lat="45.93387" lon="4.78346">
        <ele>168.10059</ele>
        <time>2026-05-13T11:04:18+02:00</time>
      </trkpt>
      <trkpt lat="45.93391" lon="4.78343">
        <ele>168.40039</ele>
        <time>2026-05-13T11:04:19+02:00</time>
      </trkpt>
      <trkpt lat="45.93395" lon="4.7834">
        <ele>168.10059</ele>
        <time>2026-05-13T11:04:20+02:00</time>
      </trkpt>
      <trkpt lat="45.934" lon="4.78337">
        <ele>168.5</ele>
        <time>2026-05-13T11:04:21+02:00</time>
      </trkpt>
      <trkpt lat="45.93404" lon="4.78335">
        <ele>168.7998</ele>
        <time>2026-05-13T11:04:22+02:00</time>
      </trkpt>
      <trkpt lat="45.93409" lon="4.78332">
        <ele>168.60059</ele>
        <time>2026-05-13T11:04:23+02:00</time>
      </trkpt>
      <trkpt lat="45.93413" lon="4.7833">
        <ele>168.60059</ele>
        <time>2026-05-13T11:04:24+02:00</time>
      </trkpt>
      <trkpt lat="45.93417" lon="4.78326">
        <ele>168.7998</ele>
        <time>2026-05-13T11:04:25+02:00</time>
      </trkpt>
      <trkpt lat="45.93421" lon="4.78324">
        <ele>168.40039</ele>
        <time>2026-05-13T11:04:26+02:00</time>
      </trkpt>
      <trkpt lat="45.93426" lon="4.78321">
        <ele>168.60059</ele>
        <time>2026-05-13T11:04:27+02:00</time>
      </trkpt>
      <trkpt lat="45.9343" lon="4.78318">
        <ele>168.60059</ele>
        <time>2026-05-13T11:04:28+02:00</time>
      </trkpt>
      <trkpt lat="45.93435" lon="4.78315">
        <ele>168.2002</ele>
        <time>2026-05-13T11:04:29+02:00</time>
      </trkpt>
      <trkpt lat="45.93439" lon="4.78312">
        <ele>168.40039</ele>
        <time>2026-05-13T11:04:30+02:00</time>
      </trkpt>
      <trkpt lat="45.93443" lon="4.78309">
        <ele>168.40039</ele>
        <time>2026-05-13T11:04:31+02:00</time>
      </trkpt>
      <trkpt lat="45.93447" lon="4.78306">
        <ele>167.90039</ele>
        <time>2026-05-13T11:04:32+02:00</time>
      </trkpt>
      <trkpt lat="45.93451" lon="4.78303">
        <ele>168.2998</ele>
        <time>2026-05-13T11:04:33+02:00</time>
      </trkpt>
      <trkpt lat="45.93455" lon="4.783">
        <ele>167.7002</ele>
        <time>2026-05-13T11:04:34+02:00</time>
      </trkpt>
      <trkpt lat="45.93459" lon="4.78297">
        <ele>168.2002</ele>
        <time>2026-05-13T11:04:35+02:00</time>
      </trkpt>
      <trkpt lat="45.93464" lon="4.78294">
        <ele>168.7002</ele>
        <time>2026-05-13T11:04:36+02:00</time>
      </trkpt>
      <trkpt lat="45.93467" lon="4.7829">
        <ele>168.2002</ele>
        <time>2026-05-13T11:04:37+02:00</time>
      </trkpt>
      <trkpt lat="45.93471" lon="4.78286">
        <ele>168.5</ele>
        <time>2026-05-13T11:04:38+02:00</time>
      </trkpt>
      <trkpt lat="45.93475" lon="4.78282">
        <ele>168.2002</ele>
        <time>2026-05-13T11:04:39+02:00</time>
      </trkpt>
      <trkpt lat="45.93479" lon="4.78278">
        <ele>168.2002</ele>
        <time>2026-05-13T11:04:40+02:00</time>
      </trkpt>
      <trkpt lat="45.93483" lon="4.78274">
        <ele>167.7998</ele>
        <time>2026-05-13T11:04:41+02:00</time>
      </trkpt>
      <trkpt lat="45.93487" lon="4.78271">
        <ele>168</ele>
        <time>2026-05-13T11:04:42+02:00</time>
      </trkpt>
      <trkpt lat="45.93491" lon="4.78267">
        <ele>168</ele>
        <time>2026-05-13T11:04:43+02:00</time>
      </trkpt>
      <trkpt lat="45.93495" lon="4.78263">
        <ele>167.7998</ele>
        <time>2026-05-13T11:04:44+02:00</time>
      </trkpt>
      <trkpt lat="45.93499" lon="4.78259">
        <ele>168.2998</ele>
        <time>2026-05-13T11:04:45+02:00</time>
      </trkpt>
      <trkpt lat="45.93503" lon="4.78255">
        <ele>168</ele>
        <time>2026-05-13T11:04:46+02:00</time>
      </trkpt>
      <trkpt lat="45.93507" lon="4.78251">
        <ele>168.5</ele>
        <time>2026-05-13T11:04:47+02:00</time>
      </trkpt>
      <trkpt lat="45.93511" lon="4.78248">
        <ele>168.40039</ele>
        <time>2026-05-13T11:04:48+02:00</time>
      </trkpt>
      <trkpt lat="45.93514" lon="4.78244">
        <ele>168.40039</ele>
        <time>2026-05-13T11:04:49+02:00</time>
      </trkpt>
      <trkpt lat="45.93517" lon="4.7824">
        <ele>168.7998</ele>
        <time>2026-05-13T11:04:50+02:00</time>
      </trkpt>
      <trkpt lat="45.9352" lon="4.78236">
        <ele>168.2998</ele>
        <time>2026-05-13T11:04:51+02:00</time>
      </trkpt>
      <trkpt lat="45.93524" lon="4.78232">
        <ele>168.7002</ele>
        <time>2026-05-13T11:04:52+02:00</time>
      </trkpt>
      <trkpt lat="45.93527" lon="4.78228">
        <ele>168.2998</ele>
        <time>2026-05-13T11:04:53+02:00</time>
      </trkpt>
      <trkpt lat="45.93531" lon="4.78225">
        <ele>168.60059</ele>
        <time>2026-05-13T11:04:54+02:00</time>
      </trkpt>
      <trkpt lat="45.93535" lon="4.78221">
        <ele>168.40039</ele>
        <time>2026-05-13T11:04:55+02:00</time>
      </trkpt>
      <trkpt lat="45.93539" lon="4.78218">
        <ele>168.40039</ele>
        <time>2026-05-13T11:04:56+02:00</time>
      </trkpt>
      <trkpt lat="45.93543" lon="4.78215">
        <ele>168.60059</ele>
        <time>2026-05-13T11:04:57+02:00</time>
      </trkpt>
      <trkpt lat="45.93547" lon="4.78212">
        <ele>168.2002</ele>
        <time>2026-05-13T11:04:58+02:00</time>
      </trkpt>
      <trkpt lat="45.93551" lon="4.78209">
        <ele>168.2002</ele>
        <time>2026-05-13T11:04:59+02:00</time>
      </trkpt>
      <trkpt lat="45.93554" lon="4.78206">
        <ele>168.2998</ele>
        <time>2026-05-13T11:05:00+02:00</time>
      </trkpt>
      <trkpt lat="45.93559" lon="4.78204">
        <ele>167.90039</ele>
        <time>2026-05-13T11:05:01+02:00</time>
      </trkpt>
      <trkpt lat="45.93563" lon="4.78202">
        <ele>167.90039</ele>
        <time>2026-05-13T11:05:02+02:00</time>
      </trkpt>
      <trkpt lat="45.93567" lon="4.78199">
        <ele>168</ele>
        <time>2026-05-13T11:05:03+02:00</time>
      </trkpt>
      <trkpt lat="45.93572" lon="4.78197">
        <ele>167.60059</ele>
        <time>2026-05-13T11:05:04+02:00</time>
      </trkpt>
      <trkpt lat="45.93577" lon="4.78194">
        <ele>167.7002</ele>
        <time>2026-05-13T11:05:05+02:00</time>
      </trkpt>
      <trkpt lat="45.93581" lon="4.78191">
        <ele>167.7002</ele>
        <time>2026-05-13T11:05:06+02:00</time>
      </trkpt>
      <trkpt lat="45.93585" lon="4.78189">
        <ele>168</ele>
        <time>2026-05-13T11:05:07+02:00</time>
      </trkpt>
      <trkpt lat="45.93589" lon="4.78186">
        <ele>167.90039</ele>
        <time>2026-05-13T11:05:08+02:00</time>
      </trkpt>
      <trkpt lat="45.93593" lon="4.78184">
        <ele>167.90039</ele>
        <time>2026-05-13T11:05:09+02:00</time>
      </trkpt>
      <trkpt lat="45.93598" lon="4.78182">
        <ele>168.10059</ele>
        <time>2026-05-13T11:05:10+02:00</time>
      </trkpt>
      <trkpt lat="45.93602" lon="4.78179">
        <ele>167.90039</ele>
        <time>2026-05-13T11:05:11+02:00</time>
      </trkpt>
      <trkpt lat="45.93606" lon="4.78177">
        <ele>168</ele>
        <time>2026-05-13T11:05:12+02:00</time>
      </trkpt>
      <trkpt lat="45.9361" lon="4.78174">
        <ele>168</ele>
        <time>2026-05-13T11:05:13+02:00</time>
      </trkpt>
      <trkpt lat="45.93615" lon="4.78171">
        <ele>167.7998</ele>
        <time>2026-05-13T11:05:14+02:00</time>
      </trkpt>
      <trkpt lat="45.93619" lon="4.78169">
        <ele>167.7998</ele>
        <time>2026-05-13T11:05:15+02:00</time>
      </trkpt>
      <trkpt lat="45.93624" lon="4.78166">
        <ele>167.90039</ele>
        <time>2026-05-13T11:05:16+02:00</time>
      </trkpt>
      <trkpt lat="45.93628" lon="4.78164">
        <ele>167.90039</ele>
        <time>2026-05-13T11:05:17+02:00</time>
      </trkpt>
      <trkpt lat="45.93633" lon="4.78161">
        <ele>167.60059</ele>
        <time>2026-05-13T11:05:18+02:00</time>
      </trkpt>
      <trkpt lat="45.93638" lon="4.78159">
        <ele>167.7002</ele>
        <time>2026-05-13T11:05:19+02:00</time>
      </trkpt>
      <trkpt lat="45.93642" lon="4.78156">
        <ele>167.90039</ele>
        <time>2026-05-13T11:05:20+02:00</time>
      </trkpt>
      <trkpt lat="45.93647" lon="4.78153">
        <ele>167.7002</ele>
        <time>2026-05-13T11:05:21+02:00</time>
      </trkpt>
      <trkpt lat="45.93651" lon="4.7815">
        <ele>167.7002</ele>
        <time>2026-05-13T11:05:22+02:00</time>
      </trkpt>
      <trkpt lat="45.93656" lon="4.78148">
        <ele>168.10059</ele>
        <time>2026-05-13T11:05:23+02:00</time>
      </trkpt>
      <trkpt lat="45.9366" lon="4.78145">
        <ele>168</ele>
        <time>2026-05-13T11:05:24+02:00</time>
      </trkpt>
      <trkpt lat="45.93664" lon="4.78142">
        <ele>168</ele>
        <time>2026-05-13T11:05:25+02:00</time>
      </trkpt>
      <trkpt lat="45.93669" lon="4.78139">
        <ele>168.2998</ele>
        <time>2026-05-13T11:05:26+02:00</time>
      </trkpt>
      <trkpt lat="45.93673" lon="4.78135">
        <ele>168.10059</ele>
        <time>2026-05-13T11:05:27+02:00</time>
      </trkpt>
      <trkpt lat="45.93678" lon="4.78132">
        <ele>168.40039</ele>
        <time>2026-05-13T11:05:28+02:00</time>
      </trkpt>
      <trkpt lat="45.93682" lon="4.78128">
        <ele>167.90039</ele>
        <time>2026-05-13T11:05:29+02:00</time>
      </trkpt>
      <trkpt lat="45.93686" lon="4.78125">
        <ele>168.10059</ele>
        <time>2026-05-13T11:05:30+02:00</time>
      </trkpt>
      <trkpt lat="45.9369" lon="4.78121">
        <ele>168.5</ele>
        <time>2026-05-13T11:05:31+02:00</time>
      </trkpt>
      <trkpt lat="45.93694" lon="4.78117">
        <ele>167.90039</ele>
        <time>2026-05-13T11:05:32+02:00</time>
      </trkpt>
      <trkpt lat="45.93698" lon="4.78113">
        <ele>168.40039</ele>
        <time>2026-05-13T11:05:33+02:00</time>
      </trkpt>
      <trkpt lat="45.93702" lon="4.78109">
        <ele>168.40039</ele>
        <time>2026-05-13T11:05:34+02:00</time>
      </trkpt>
      <trkpt lat="45.93706" lon="4.78105">
        <ele>168.40039</ele>
        <time>2026-05-13T11:05:35+02:00</time>
      </trkpt>
      <trkpt lat="45.9371" lon="4.78101">
        <ele>168.2998</ele>
        <time>2026-05-13T11:05:36+02:00</time>
      </trkpt>
      <trkpt lat="45.93714" lon="4.78096">
        <ele>168.60059</ele>
        <time>2026-05-13T11:05:37+02:00</time>
      </trkpt>
      <trkpt lat="45.93718" lon="4.78091">
        <ele>168</ele>
        <time>2026-05-13T11:05:38+02:00</time>
      </trkpt>
      <trkpt lat="45.93722" lon="4.78087">
        <ele>168.2998</ele>
        <time>2026-05-13T11:05:39+02:00</time>
      </trkpt>
      <trkpt lat="45.93726" lon="4.78082">
        <ele>167.90039</ele>
        <time>2026-05-13T11:05:40+02:00</time>
      </trkpt>
      <trkpt lat="45.93729" lon="4.78077">
        <ele>167.90039</ele>
        <time>2026-05-13T11:05:41+02:00</time>
      </trkpt>
      <trkpt lat="45.93733" lon="4.78073">
        <ele>167.7998</ele>
        <time>2026-05-13T11:05:42+02:00</time>
      </trkpt>
      <trkpt lat="45.93736" lon="4.78068">
        <ele>167.60059</ele>
        <time>2026-05-13T11:05:43+02:00</time>
      </trkpt>
      <trkpt lat="45.93741" lon="4.78064">
        <ele>168.2002</ele>
        <time>2026-05-13T11:05:44+02:00</time>
      </trkpt>
      <trkpt lat="45.93744" lon="4.78059">
        <ele>168.2002</ele>
        <time>2026-05-13T11:05:45+02:00</time>
      </trkpt>
      <trkpt lat="45.93747" lon="4.78055">
        <ele>168.2002</ele>
        <time>2026-05-13T11:05:46+02:00</time>
      </trkpt>
      <trkpt lat="45.93751" lon="4.7805">
        <ele>168.10059</ele>
        <time>2026-05-13T11:05:47+02:00</time>
      </trkpt>
      <trkpt lat="45.93755" lon="4.78046">
        <ele>168.7998</ele>
        <time>2026-05-13T11:05:48+02:00</time>
      </trkpt>
      <trkpt lat="45.93759" lon="4.78041">
        <ele>168</ele>
        <time>2026-05-13T11:05:49+02:00</time>
      </trkpt>
      <trkpt lat="45.93762" lon="4.78036">
        <ele>168.7998</ele>
        <time>2026-05-13T11:05:50+02:00</time>
      </trkpt>
      <trkpt lat="45.93766" lon="4.78032">
        <ele>168.40039</ele>
        <time>2026-05-13T11:05:51+02:00</time>
      </trkpt>
      <trkpt lat="45.93769" lon="4.78027">
        <ele>169</ele>
        <time>2026-05-13T11:05:52+02:00</time>
      </trkpt>
      <trkpt lat="45.93773" lon="4.78023">
        <ele>168.90039</ele>
        <time>2026-05-13T11:05:53+02:00</time>
      </trkpt>
      <trkpt lat="45.93776" lon="4.78018">
        <ele>168.90039</ele>
        <time>2026-05-13T11:05:54+02:00</time>
      </trkpt>
      <trkpt lat="45.93779" lon="4.78014">
        <ele>168.90039</ele>
        <time>2026-05-13T11:05:55+02:00</time>
      </trkpt>
      <trkpt lat="45.93782" lon="4.7801">
        <ele>168.90039</ele>
        <time>2026-05-13T11:05:56+02:00</time>
      </trkpt>
      <trkpt lat="45.93785" lon="4.78006">
        <ele>169</ele>
        <time>2026-05-13T11:05:57+02:00</time>
      </trkpt>
      <trkpt lat="45.93788" lon="4.78003">
        <ele>169</ele>
        <time>2026-05-13T11:05:58+02:00</time>
      </trkpt>
      <trkpt lat="45.93792" lon="4.77999">
        <ele>169.10059</ele>
        <time>2026-05-13T11:05:59+02:00</time>
      </trkpt>
      <trkpt lat="45.93796" lon="4.77995">
        <ele>169.60059</ele>
        <time>2026-05-13T11:06:00+02:00</time>
      </trkpt>
      <trkpt lat="45.938" lon="4.7799">
        <ele>168.90039</ele>
        <time>2026-05-13T11:06:01+02:00</time>
      </trkpt>
      <trkpt lat="45.93804" lon="4.77986">
        <ele>169.5</ele>
        <time>2026-05-13T11:06:02+02:00</time>
      </trkpt>
      <trkpt lat="45.93807" lon="4.77981">
        <ele>168.90039</ele>
        <time>2026-05-13T11:06:03+02:00</time>
      </trkpt>
      <trkpt lat="45.93811" lon="4.77976">
        <ele>169.5</ele>
        <time>2026-05-13T11:06:04+02:00</time>
      </trkpt>
      <trkpt lat="45.93815" lon="4.7797">
        <ele>169.40039</ele>
        <time>2026-05-13T11:06:05+02:00</time>
      </trkpt>
      <trkpt lat="45.93819" lon="4.77965">
        <ele>168.7998</ele>
        <time>2026-05-13T11:06:06+02:00</time>
      </trkpt>
      <trkpt lat="45.93823" lon="4.7796">
        <ele>169.10059</ele>
        <time>2026-05-13T11:06:07+02:00</time>
      </trkpt>
      <trkpt lat="45.93827" lon="4.77955">
        <ele>168.7002</ele>
        <time>2026-05-13T11:06:08+02:00</time>
      </trkpt>
      <trkpt lat="45.93831" lon="4.7795">
        <ele>168.7002</ele>
        <time>2026-05-13T11:06:09+02:00</time>
      </trkpt>
      <trkpt lat="45.93834" lon="4.77945">
        <ele>168.2002</ele>
        <time>2026-05-13T11:06:10+02:00</time>
      </trkpt>
      <trkpt lat="45.93838" lon="4.7794">
        <ele>168.90039</ele>
        <time>2026-05-13T11:06:11+02:00</time>
      </trkpt>
      <trkpt lat="45.93842" lon="4.77934">
        <ele>168.10059</ele>
        <time>2026-05-13T11:06:12+02:00</time>
      </trkpt>
      <trkpt lat="45.93845" lon="4.77929">
        <ele>168.5</ele>
        <time>2026-05-13T11:06:13+02:00</time>
      </trkpt>
      <trkpt lat="45.93849" lon="4.77924">
        <ele>168.5</ele>
        <time>2026-05-13T11:06:14+02:00</time>
      </trkpt>
      <trkpt lat="45.93852" lon="4.77919">
        <ele>168.60059</ele>
        <time>2026-05-13T11:06:15+02:00</time>
      </trkpt>
      <trkpt lat="45.93855" lon="4.77914">
        <ele>168.60059</ele>
        <time>2026-05-13T11:06:16+02:00</time>
      </trkpt>
      <trkpt lat="45.93859" lon="4.77909">
        <ele>168.5</ele>
        <time>2026-05-13T11:06:17+02:00</time>
      </trkpt>
      <trkpt lat="45.93863" lon="4.77904">
        <ele>168.7002</ele>
        <time>2026-05-13T11:06:18+02:00</time>
      </trkpt>
      <trkpt lat="45.93866" lon="4.77898">
        <ele>168.7002</ele>
        <time>2026-05-13T11:06:19+02:00</time>
      </trkpt>
      <trkpt lat="45.9387" lon="4.77893">
        <ele>169.10059</ele>
        <time>2026-05-13T11:06:20+02:00</time>
      </trkpt>
      <trkpt lat="45.93874" lon="4.77888">
        <ele>169.2002</ele>
        <time>2026-05-13T11:06:21+02:00</time>
      </trkpt>
      <trkpt lat="45.93877" lon="4.77883">
        <ele>169.2002</ele>
        <time>2026-05-13T11:06:22+02:00</time>
      </trkpt>
      <trkpt lat="45.9388" lon="4.77878">
        <ele>169.2002</ele>
        <time>2026-05-13T11:06:23+02:00</time>
      </trkpt>
      <trkpt lat="45.93883" lon="4.77874">
        <ele>169.2002</ele>
        <time>2026-05-13T11:06:24+02:00</time>
      </trkpt>
      <trkpt lat="45.93885" lon="4.77869">
        <ele>168.2998</ele>
        <time>2026-05-13T11:06:25+02:00</time>
      </trkpt>
      <trkpt lat="45.93887" lon="4.77864">
        <ele>169.5</ele>
        <time>2026-05-13T11:06:26+02:00</time>
      </trkpt>
      <trkpt lat="45.93889" lon="4.77859">
        <ele>168.90039</ele>
        <time>2026-05-13T11:06:27+02:00</time>
      </trkpt>
      <trkpt lat="45.93891" lon="4.77854">
        <ele>168.90039</ele>
        <time>2026-05-13T11:06:28+02:00</time>
      </trkpt>
      <trkpt lat="45.93892" lon="4.77847">
        <ele>169</ele>
        <time>2026-05-13T11:06:29+02:00</time>
      </trkpt>
      <trkpt lat="45.93894" lon="4.7784">
        <ele>168.10059</ele>
        <time>2026-05-13T11:06:30+02:00</time>
      </trkpt>
      <trkpt lat="45.93896" lon="4.77833">
        <ele>167.40039</ele>
        <time>2026-05-13T11:06:31+02:00</time>
      </trkpt>
      <trkpt lat="45.93898" lon="4.77826">
        <ele>167.7002</ele>
        <time>2026-05-13T11:06:32+02:00</time>
      </trkpt>
      <trkpt lat="45.939" lon="4.77819">
        <ele>167.60059</ele>
        <time>2026-05-13T11:06:33+02:00</time>
      </trkpt>
      <trkpt lat="45.93902" lon="4.77812">
        <ele>167.60059</ele>
        <time>2026-05-13T11:06:34+02:00</time>
      </trkpt>
      <trkpt lat="45.93905" lon="4.77804">
        <ele>167.5</ele>
        <time>2026-05-13T11:06:35+02:00</time>
      </trkpt>
      <trkpt lat="45.93907" lon="4.77797">
        <ele>167.10059</ele>
        <time>2026-05-13T11:06:36+02:00</time>
      </trkpt>
      <trkpt lat="45.93909" lon="4.77789">
        <ele>167.10059</ele>
        <time>2026-05-13T11:06:37+02:00</time>
      </trkpt>
      <trkpt lat="45.93912" lon="4.77783">
        <ele>167.2998</ele>
        <time>2026-05-13T11:06:38+02:00</time>
      </trkpt>
      <trkpt lat="45.93915" lon="4.77776">
        <ele>167.40039</ele>
        <time>2026-05-13T11:06:39+02:00</time>
      </trkpt>
      <trkpt lat="45.93918" lon="4.77769">
        <ele>167.7998</ele>
        <time>2026-05-13T11:06:40+02:00</time>
      </trkpt>
      <trkpt lat="45.93921" lon="4.77762">
        <ele>167.7998</ele>
        <time>2026-05-13T11:06:41+02:00</time>
      </trkpt>
      <trkpt lat="45.93924" lon="4.77755">
        <ele>168.2998</ele>
        <time>2026-05-13T11:06:42+02:00</time>
      </trkpt>
      <trkpt lat="45.93927" lon="4.77748">
        <ele>167.90039</ele>
        <time>2026-05-13T11:06:43+02:00</time>
      </trkpt>
      <trkpt lat="45.9393" lon="4.77742">
        <ele>167.7002</ele>
        <time>2026-05-13T11:06:44+02:00</time>
      </trkpt>
      <trkpt lat="45.93933" lon="4.77735">
        <ele>167.7002</ele>
        <time>2026-05-13T11:06:45+02:00</time>
      </trkpt>
      <trkpt lat="45.93936" lon="4.77728">
        <ele>167.7002</ele>
        <time>2026-05-13T11:06:46+02:00</time>
      </trkpt>
      <trkpt lat="45.93939" lon="4.77721">
        <ele>167.7002</ele>
        <time>2026-05-13T11:06:47+02:00</time>
      </trkpt>
      <trkpt lat="45.93941" lon="4.77714">
        <ele>167.90039</ele>
        <time>2026-05-13T11:06:48+02:00</time>
      </trkpt>
      <trkpt lat="45.93944" lon="4.77707">
        <ele>167.5</ele>
        <time>2026-05-13T11:06:49+02:00</time>
      </trkpt>
      <trkpt lat="45.93947" lon="4.777">
        <ele>167.60059</ele>
        <time>2026-05-13T11:06:50+02:00</time>
      </trkpt>
      <trkpt lat="45.93949" lon="4.77693">
        <ele>167</ele>
        <time>2026-05-13T11:06:51+02:00</time>
      </trkpt>
      <trkpt lat="45.93951" lon="4.77686">
        <ele>167.10059</ele>
        <time>2026-05-13T11:06:52+02:00</time>
      </trkpt>
      <trkpt lat="45.93953" lon="4.77679">
        <ele>167.5</ele>
        <time>2026-05-13T11:06:53+02:00</time>
      </trkpt>
      <trkpt lat="45.93956" lon="4.77672">
        <ele>167.60059</ele>
        <time>2026-05-13T11:06:54+02:00</time>
      </trkpt>
      <trkpt lat="45.93958" lon="4.77665">
        <ele>168.10059</ele>
        <time>2026-05-13T11:06:55+02:00</time>
      </trkpt>
      <trkpt lat="45.9396" lon="4.77657">
        <ele>168.10059</ele>
        <time>2026-05-13T11:06:56+02:00</time>
      </trkpt>
      <trkpt lat="45.93962" lon="4.7765">
        <ele>167.90039</ele>
        <time>2026-05-13T11:06:57+02:00</time>
      </trkpt>
      <trkpt lat="45.93964" lon="4.77642">
        <ele>168</ele>
        <time>2026-05-13T11:06:58+02:00</time>
      </trkpt>
      <trkpt lat="45.93965" lon="4.77635">
        <ele>167.2998</ele>
        <time>2026-05-13T11:06:59+02:00</time>
      </trkpt>
      <trkpt lat="45.93967" lon="4.77627">
        <ele>167</ele>
        <time>2026-05-13T11:07:00+02:00</time>
      </trkpt>
      <trkpt lat="45.93968" lon="4.7762">
        <ele>167</ele>
        <time>2026-05-13T11:07:01+02:00</time>
      </trkpt>
      <trkpt lat="45.93969" lon="4.77614">
        <ele>167</ele>
        <time>2026-05-13T11:07:02+02:00</time>
      </trkpt>
      <trkpt lat="45.93969" lon="4.77607">
        <ele>167.10059</ele>
        <time>2026-05-13T11:07:03+02:00</time>
      </trkpt>
      <trkpt lat="45.9397" lon="4.776">
        <ele>167.40039</ele>
        <time>2026-05-13T11:07:04+02:00</time>
      </trkpt>
      <trkpt lat="45.93972" lon="4.77593">
        <ele>167.5</ele>
        <time>2026-05-13T11:07:05+02:00</time>
      </trkpt>
      <trkpt lat="45.93973" lon="4.77586">
        <ele>167.5</ele>
        <time>2026-05-13T11:07:06+02:00</time>
      </trkpt>
      <trkpt lat="45.93974" lon="4.77579">
        <ele>167.60059</ele>
        <time>2026-05-13T11:07:07+02:00</time>
      </trkpt>
      <trkpt lat="45.93975" lon="4.77571">
        <ele>168.10059</ele>
        <time>2026-05-13T11:07:08+02:00</time>
      </trkpt>
      <trkpt lat="45.93976" lon="4.77564">
        <ele>168.10059</ele>
        <time>2026-05-13T11:07:09+02:00</time>
      </trkpt>
      <trkpt lat="45.93977" lon="4.77557">
        <ele>168.10059</ele>
        <time>2026-05-13T11:07:10+02:00</time>
      </trkpt>
      <trkpt lat="45.93979" lon="4.77549">
        <ele>167.90039</ele>
        <time>2026-05-13T11:07:11+02:00</time>
      </trkpt>
      <trkpt lat="45.9398" lon="4.77542">
        <ele>167.60059</ele>
        <time>2026-05-13T11:07:12+02:00</time>
      </trkpt>
      <trkpt lat="45.93984" lon="4.77522">
        <ele>167</ele>
        <time>2026-05-13T11:07:13+02:00</time>
      </trkpt>
      <trkpt lat="45.93984" lon="4.77515">
        <ele>167.10059</ele>
        <time>2026-05-13T11:07:14+02:00</time>
      </trkpt>
      <trkpt lat="45.93985" lon="4.77508">
        <ele>167.10059</ele>
        <time>2026-05-13T11:07:15+02:00</time>
      </trkpt>
      <trkpt lat="45.93986" lon="4.77501">
        <ele>167.2002</ele>
        <time>2026-05-13T11:07:16+02:00</time>
      </trkpt>
      <trkpt lat="45.93987" lon="4.77495">
        <ele>167.2002</ele>
        <time>2026-05-13T11:07:17+02:00</time>
      </trkpt>
      <trkpt lat="45.93988" lon="4.77488">
        <ele>167.5</ele>
        <time>2026-05-13T11:07:18+02:00</time>
      </trkpt>
      <trkpt lat="45.93989" lon="4.77482">
        <ele>167.60059</ele>
        <time>2026-05-13T11:07:19+02:00</time>
      </trkpt>
      <trkpt lat="45.93991" lon="4.77475">
        <ele>167.60059</ele>
        <time>2026-05-13T11:07:20+02:00</time>
      </trkpt>
      <trkpt lat="45.93992" lon="4.77469">
        <ele>167.60059</ele>
        <time>2026-05-13T11:07:21+02:00</time>
      </trkpt>
      <trkpt lat="45.93992" lon="4.77462">
        <ele>167.7002</ele>
        <time>2026-05-13T11:07:22+02:00</time>
      </trkpt>
      <trkpt lat="45.93993" lon="4.77456">
        <ele>168.5</ele>
        <time>2026-05-13T11:07:23+02:00</time>
      </trkpt>
      <trkpt lat="45.93994" lon="4.7745">
        <ele>168.7002</ele>
        <time>2026-05-13T11:07:24+02:00</time>
      </trkpt>
      <trkpt lat="45.93995" lon="4.77443">
        <ele>168.7002</ele>
        <time>2026-05-13T11:07:25+02:00</time>
      </trkpt>
      <trkpt lat="45.93996" lon="4.77437">
        <ele>168.90039</ele>
        <time>2026-05-13T11:07:26+02:00</time>
      </trkpt>
      <trkpt lat="45.93997" lon="4.7743">
        <ele>169</ele>
        <time>2026-05-13T11:07:27+02:00</time>
      </trkpt>
      <trkpt lat="45.93997" lon="4.77424">
        <ele>169</ele>
        <time>2026-05-13T11:07:28+02:00</time>
      </trkpt>
      <trkpt lat="45.93998" lon="4.77417">
        <ele>169</ele>
        <time>2026-05-13T11:07:29+02:00</time>
      </trkpt>
      <trkpt lat="45.93998" lon="4.77412">
        <ele>169.10059</ele>
        <time>2026-05-13T11:07:30+02:00</time>
      </trkpt>
      <trkpt lat="45.93999" lon="4.77406">
        <ele>170.60059</ele>
        <time>2026-05-13T11:07:31+02:00</time>
      </trkpt>
      <trkpt lat="45.94" lon="4.77401">
        <ele>170.60059</ele>
        <time>2026-05-13T11:07:32+02:00</time>
      </trkpt>
      <trkpt lat="45.94" lon="4.77396">
        <ele>170.40039</ele>
        <time>2026-05-13T11:07:33+02:00</time>
      </trkpt>
      <trkpt lat="45.94001" lon="4.77391">
        <ele>170.40039</ele>
        <time>2026-05-13T11:07:34+02:00</time>
      </trkpt>
      <trkpt lat="45.94002" lon="4.77387">
        <ele>170.2998</ele>
        <time>2026-05-13T11:07:35+02:00</time>
      </trkpt>
      <trkpt lat="45.94002" lon="4.77383">
        <ele>170.2998</ele>
        <time>2026-05-13T11:07:36+02:00</time>
      </trkpt>
      <trkpt lat="45.94002" lon="4.77379">
        <ele>170.10059</ele>
        <time>2026-05-13T11:07:37+02:00</time>
      </trkpt>
      <trkpt lat="45.94" lon="4.77377">
        <ele>170.10059</ele>
        <time>2026-05-13T11:07:38+02:00</time>
      </trkpt>
      <trkpt lat="45.93998" lon="4.77374">
        <ele>168.7998</ele>
        <time>2026-05-13T11:07:39+02:00</time>
      </trkpt>
      <trkpt lat="45.93997" lon="4.77369">
        <ele>168.7998</ele>
        <time>2026-05-13T11:07:40+02:00</time>
      </trkpt>
      <trkpt lat="45.93997" lon="4.77364">
        <ele>168.7002</ele>
        <time>2026-05-13T11:07:41+02:00</time>
      </trkpt>
      <trkpt lat="45.93997" lon="4.77358">
        <ele>168.7002</ele>
        <time>2026-05-13T11:07:42+02:00</time>
      </trkpt>
      <trkpt lat="45.93997" lon="4.77351">
        <ele>168.60059</ele>
        <time>2026-05-13T11:07:43+02:00</time>
      </trkpt>
      <trkpt lat="45.93998" lon="4.77345">
        <ele>168.5</ele>
        <time>2026-05-13T11:07:44+02:00</time>
      </trkpt>
      <trkpt lat="45.93998" lon="4.77338">
        <ele>168.5</ele>
        <time>2026-05-13T11:07:45+02:00</time>
      </trkpt>
      <trkpt lat="45.93999" lon="4.77331">
        <ele>169.2002</ele>
        <time>2026-05-13T11:07:46+02:00</time>
      </trkpt>
      <trkpt lat="45.94" lon="4.77325">
        <ele>169.10059</ele>
        <time>2026-05-13T11:07:47+02:00</time>
      </trkpt>
      <trkpt lat="45.94002" lon="4.77319">
        <ele>169</ele>
        <time>2026-05-13T11:07:48+02:00</time>
      </trkpt>
      <trkpt lat="45.94002" lon="4.77313">
        <ele>168.90039</ele>
        <time>2026-05-13T11:07:49+02:00</time>
      </trkpt>
      <trkpt lat="45.94002" lon="4.77307">
        <ele>168.90039</ele>
        <time>2026-05-13T11:07:50+02:00</time>
      </trkpt>
      <trkpt lat="45.94" lon="4.77301">
        <ele>168.7998</ele>
        <time>2026-05-13T11:07:51+02:00</time>
      </trkpt>
      <trkpt lat="45.93999" lon="4.77296">
        <ele>168.7998</ele>
        <time>2026-05-13T11:07:52+02:00</time>
      </trkpt>
      <trkpt lat="45.94" lon="4.7729">
        <ele>168.7998</ele>
        <time>2026-05-13T11:07:53+02:00</time>
      </trkpt>
      <trkpt lat="45.94" lon="4.77283">
        <ele>168.7002</ele>
        <time>2026-05-13T11:07:54+02:00</time>
      </trkpt>
      <trkpt lat="45.93999" lon="4.77275">
        <ele>168.60059</ele>
        <time>2026-05-13T11:07:55+02:00</time>
      </trkpt>
      <trkpt lat="45.93997" lon="4.77268">
        <ele>168.10059</ele>
        <time>2026-05-13T11:07:56+02:00</time>
      </trkpt>
      <trkpt lat="45.93996" lon="4.77261">
        <ele>168</ele>
        <time>2026-05-13T11:07:57+02:00</time>
      </trkpt>
      <trkpt lat="45.93996" lon="4.77254">
        <ele>168</ele>
        <time>2026-05-13T11:07:58+02:00</time>
      </trkpt>
      <trkpt lat="45.93997" lon="4.77247">
        <ele>168</ele>
        <time>2026-05-13T11:07:59+02:00</time>
      </trkpt>
      <trkpt lat="45.93998" lon="4.7724">
        <ele>167.90039</ele>
        <time>2026-05-13T11:08:00+02:00</time>
      </trkpt>
      <trkpt lat="45.93999" lon="4.77233">
        <ele>168.2998</ele>
        <time>2026-05-13T11:08:01+02:00</time>
      </trkpt>
      <trkpt lat="45.93999" lon="4.77226">
        <ele>168.2998</ele>
        <time>2026-05-13T11:08:02+02:00</time>
      </trkpt>
      <trkpt lat="45.93999" lon="4.77219">
        <ele>168.2998</ele>
        <time>2026-05-13T11:08:03+02:00</time>
      </trkpt>
      <trkpt lat="45.93998" lon="4.77212">
        <ele>167.90039</ele>
        <time>2026-05-13T11:08:04+02:00</time>
      </trkpt>
      <trkpt lat="45.93998" lon="4.77205">
        <ele>167.90039</ele>
        <time>2026-05-13T11:08:05+02:00</time>
      </trkpt>
      <trkpt lat="45.93998" lon="4.77198">
        <ele>167.90039</ele>
        <time>2026-05-13T11:08:06+02:00</time>
      </trkpt>
      <trkpt lat="45.93998" lon="4.77191">
        <ele>167.90039</ele>
        <time>2026-05-13T11:08:07+02:00</time>
      </trkpt>
      <trkpt lat="45.93998" lon="4.77184">
        <ele>167.90039</ele>
        <time>2026-05-13T11:08:08+02:00</time>
      </trkpt>
      <trkpt lat="45.93998" lon="4.77177">
        <ele>167.90039</ele>
        <time>2026-05-13T11:08:09+02:00</time>
      </trkpt>
      <trkpt lat="45.93998" lon="4.77171">
        <ele>167.90039</ele>
        <time>2026-05-13T11:08:10+02:00</time>
      </trkpt>
      <trkpt lat="45.93999" lon="4.77164">
        <ele>168.10059</ele>
        <time>2026-05-13T11:08:11+02:00</time>
      </trkpt>
      <trkpt lat="45.93998" lon="4.77158">
        <ele>167.90039</ele>
        <time>2026-05-13T11:08:12+02:00</time>
      </trkpt>
      <trkpt lat="45.93998" lon="4.77151">
        <ele>167.90039</ele>
        <time>2026-05-13T11:08:13+02:00</time>
      </trkpt>
      <trkpt lat="45.93997" lon="4.77145">
        <ele>167.90039</ele>
        <time>2026-05-13T11:08:14+02:00</time>
      </trkpt>
      <trkpt lat="45.93996" lon="4.77138">
        <ele>167.90039</ele>
        <time>2026-05-13T11:08:15+02:00</time>
      </trkpt>
      <trkpt lat="45.93995" lon="4.77132">
        <ele>167.90039</ele>
        <time>2026-05-13T11:08:16+02:00</time>
      </trkpt>
      <trkpt lat="45.93994" lon="4.77125">
        <ele>167.90039</ele>
        <time>2026-05-13T11:08:17+02:00</time>
      </trkpt>
      <trkpt lat="45.93993" lon="4.77118">
        <ele>167.90039</ele>
        <time>2026-05-13T11:08:18+02:00</time>
      </trkpt>
      <trkpt lat="45.93991" lon="4.77112">
        <ele>167.7002</ele>
        <time>2026-05-13T11:08:19+02:00</time>
      </trkpt>
      <trkpt lat="45.9399" lon="4.77105">
        <ele>167.7002</ele>
        <time>2026-05-13T11:08:20+02:00</time>
      </trkpt>
      <trkpt lat="45.93988" lon="4.77098">
        <ele>167.7002</ele>
        <time>2026-05-13T11:08:21+02:00</time>
      </trkpt>
      <trkpt lat="45.93986" lon="4.77092">
        <ele>167.60059</ele>
        <time>2026-05-13T11:08:22+02:00</time>
      </trkpt>
      <trkpt lat="45.93985" lon="4.77085">
        <ele>167.60059</ele>
        <time>2026-05-13T11:08:23+02:00</time>
      </trkpt>
      <trkpt lat="45.93983" lon="4.77079">
        <ele>167.7002</ele>
        <time>2026-05-13T11:08:24+02:00</time>
      </trkpt>
      <trkpt lat="45.93981" lon="4.77073">
        <ele>167.7002</ele>
        <time>2026-05-13T11:08:25+02:00</time>
      </trkpt>
      <trkpt lat="45.93979" lon="4.77067">
        <ele>167.7998</ele>
        <time>2026-05-13T11:08:26+02:00</time>
      </trkpt>
      <trkpt lat="45.93978" lon="4.77061">
        <ele>167.7998</ele>
        <time>2026-05-13T11:08:27+02:00</time>
      </trkpt>
      <trkpt lat="45.93976" lon="4.77056">
        <ele>167.7998</ele>
        <time>2026-05-13T11:08:28+02:00</time>
      </trkpt>
      <trkpt lat="45.93974" lon="4.7705">
        <ele>167.7998</ele>
        <time>2026-05-13T11:08:29+02:00</time>
      </trkpt>
      <trkpt lat="45.93973" lon="4.77045">
        <ele>167.7998</ele>
        <time>2026-05-13T11:08:30+02:00</time>
      </trkpt>
      <trkpt lat="45.93971" lon="4.77039">
        <ele>167.7998</ele>
        <time>2026-05-13T11:08:31+02:00</time>
      </trkpt>
      <trkpt lat="45.93969" lon="4.77033">
        <ele>167.7002</ele>
        <time>2026-05-13T11:08:32+02:00</time>
      </trkpt>
      <trkpt lat="45.93968" lon="4.77027">
        <ele>167.7002</ele>
        <time>2026-05-13T11:08:33+02:00</time>
      </trkpt>
      <trkpt lat="45.93966" lon="4.77021">
        <ele>167.7002</ele>
        <time>2026-05-13T11:08:34+02:00</time>
      </trkpt>
      <trkpt lat="45.93965" lon="4.77015">
        <ele>167.7002</ele>
        <time>2026-05-13T11:08:35+02:00</time>
      </trkpt>
      <trkpt lat="45.93963" lon="4.77009">
        <ele>167.60059</ele>
        <time>2026-05-13T11:08:36+02:00</time>
      </trkpt>
      <trkpt lat="45.93962" lon="4.77003">
        <ele>167.5</ele>
        <time>2026-05-13T11:08:37+02:00</time>
      </trkpt>
      <trkpt lat="45.9396" lon="4.76998">
        <ele>167.5</ele>
        <time>2026-05-13T11:08:38+02:00</time>
      </trkpt>
      <trkpt lat="45.93958" lon="4.76992">
        <ele>167.5</ele>
        <time>2026-05-13T11:08:39+02:00</time>
      </trkpt>
      <trkpt lat="45.93957" lon="4.76986">
        <ele>167.7002</ele>
        <time>2026-05-13T11:08:40+02:00</time>
      </trkpt>
      <trkpt lat="45.93955" lon="4.76981">
        <ele>167.7002</ele>
        <time>2026-05-13T11:08:41+02:00</time>
      </trkpt>
      <trkpt lat="45.93953" lon="4.76975">
        <ele>167.90039</ele>
        <time>2026-05-13T11:08:42+02:00</time>
      </trkpt>
      <trkpt lat="45.93951" lon="4.76969">
        <ele>167.90039</ele>
        <time>2026-05-13T11:08:43+02:00</time>
      </trkpt>
      <trkpt lat="45.93949" lon="4.76963">
        <ele>167.90039</ele>
        <time>2026-05-13T11:08:44+02:00</time>
      </trkpt>
      <trkpt lat="45.93948" lon="4.76957">
        <ele>168.10059</ele>
        <time>2026-05-13T11:08:45+02:00</time>
      </trkpt>
      <trkpt lat="45.93947" lon="4.76951">
        <ele>168.10059</ele>
        <time>2026-05-13T11:08:46+02:00</time>
      </trkpt>
      <trkpt lat="45.93946" lon="4.76945">
        <ele>168.10059</ele>
        <time>2026-05-13T11:08:47+02:00</time>
      </trkpt>
      <trkpt lat="45.93945" lon="4.76939">
        <ele>167.60059</ele>
        <time>2026-05-13T11:08:48+02:00</time>
      </trkpt>
      <trkpt lat="45.93944" lon="4.76933">
        <ele>167.5</ele>
        <time>2026-05-13T11:08:49+02:00</time>
      </trkpt>
      <trkpt lat="45.93943" lon="4.76927">
        <ele>167.5</ele>
        <time>2026-05-13T11:08:50+02:00</time>
      </trkpt>
      <trkpt lat="45.93943" lon="4.7692">
        <ele>167.90039</ele>
        <time>2026-05-13T11:08:51+02:00</time>
      </trkpt>
      <trkpt lat="45.93942" lon="4.76914">
        <ele>168.7002</ele>
        <time>2026-05-13T11:08:52+02:00</time>
      </trkpt>
      <trkpt lat="45.93942" lon="4.76908">
        <ele>170.2002</ele>
        <time>2026-05-13T11:08:53+02:00</time>
      </trkpt>
      <trkpt lat="45.93941" lon="4.76902">
        <ele>170.2002</ele>
        <time>2026-05-13T11:08:54+02:00</time>
      </trkpt>
      <trkpt lat="45.9394" lon="4.76896">
        <ele>171.7998</ele>
        <time>2026-05-13T11:08:55+02:00</time>
      </trkpt>
      <trkpt lat="45.93939" lon="4.7689">
        <ele>172.2998</ele>
        <time>2026-05-13T11:08:56+02:00</time>
      </trkpt>
      <trkpt lat="45.93937" lon="4.76885">
        <ele>172.2998</ele>
        <time>2026-05-13T11:08:57+02:00</time>
      </trkpt>
      <trkpt lat="45.93935" lon="4.76879">
        <ele>172.60059</ele>
        <time>2026-05-13T11:08:58+02:00</time>
      </trkpt>
      <trkpt lat="45.93933" lon="4.76873">
        <ele>171</ele>
        <time>2026-05-13T11:08:59+02:00</time>
      </trkpt>
      <trkpt lat="45.9393" lon="4.76867">
        <ele>171</ele>
        <time>2026-05-13T11:09:00+02:00</time>
      </trkpt>
      <trkpt lat="45.93927" lon="4.76862">
        <ele>169.2002</ele>
        <time>2026-05-13T11:09:01+02:00</time>
      </trkpt>
      <trkpt lat="45.93924" lon="4.76857">
        <ele>169.7002</ele>
        <time>2026-05-13T11:09:02+02:00</time>
      </trkpt>
      <trkpt lat="45.9392" lon="4.76852">
        <ele>168.5</ele>
        <time>2026-05-13T11:09:03+02:00</time>
      </trkpt>
      <trkpt lat="45.93917" lon="4.76846">
        <ele>170.2002</ele>
        <time>2026-05-13T11:09:04+02:00</time>
      </trkpt>
      <trkpt lat="45.93914" lon="4.76842">
        <ele>169.60059</ele>
        <time>2026-05-13T11:09:05+02:00</time>
      </trkpt>
      <trkpt lat="45.9391" lon="4.76837">
        <ele>171.5</ele>
        <time>2026-05-13T11:09:06+02:00</time>
      </trkpt>
      <trkpt lat="45.93907" lon="4.76832">
        <ele>171.2998</ele>
        <time>2026-05-13T11:09:07+02:00</time>
      </trkpt>
      <trkpt lat="45.93903" lon="4.76826">
        <ele>169.40039</ele>
        <time>2026-05-13T11:09:08+02:00</time>
      </trkpt>
      <trkpt lat="45.939" lon="4.76821">
        <ele>169.5</ele>
        <time>2026-05-13T11:09:09+02:00</time>
      </trkpt>
      <trkpt lat="45.93896" lon="4.76816">
        <ele>168.10059</ele>
        <time>2026-05-13T11:09:10+02:00</time>
      </trkpt>
      <trkpt lat="45.93892" lon="4.76811">
        <ele>168.2998</ele>
        <time>2026-05-13T11:09:11+02:00</time>
      </trkpt>
      <trkpt lat="45.93889" lon="4.76806">
        <ele>168.2002</ele>
        <time>2026-05-13T11:09:12+02:00</time>
      </trkpt>
      <trkpt lat="45.93885" lon="4.76801">
        <ele>167.90039</ele>
        <time>2026-05-13T11:09:13+02:00</time>
      </trkpt>
      <trkpt lat="45.93882" lon="4.76795">
        <ele>168.40039</ele>
        <time>2026-05-13T11:09:14+02:00</time>
      </trkpt>
      <trkpt lat="45.93878" lon="4.7679">
        <ele>168.10059</ele>
        <time>2026-05-13T11:09:15+02:00</time>
      </trkpt>
      <trkpt lat="45.93874" lon="4.76784">
        <ele>168.7002</ele>
        <time>2026-05-13T11:09:16+02:00</time>
      </trkpt>
      <trkpt lat="45.93871" lon="4.76778">
        <ele>168.2002</ele>
        <time>2026-05-13T11:09:17+02:00</time>
      </trkpt>
      <trkpt lat="45.93868" lon="4.76773">
        <ele>168.2002</ele>
        <time>2026-05-13T11:09:18+02:00</time>
      </trkpt>
      <trkpt lat="45.93864" lon="4.76767">
        <ele>167.7002</ele>
        <time>2026-05-13T11:09:19+02:00</time>
      </trkpt>
      <trkpt lat="45.93861" lon="4.76762">
        <ele>167.40039</ele>
        <time>2026-05-13T11:09:20+02:00</time>
      </trkpt>
      <trkpt lat="45.93857" lon="4.76756">
        <ele>167.40039</ele>
        <time>2026-05-13T11:09:21+02:00</time>
      </trkpt>
      <trkpt lat="45.93854" lon="4.76751">
        <ele>167.5</ele>
        <time>2026-05-13T11:09:22+02:00</time>
      </trkpt>
      <trkpt lat="45.9385" lon="4.76745">
        <ele>167.60059</ele>
        <time>2026-05-13T11:09:23+02:00</time>
      </trkpt>
      <trkpt lat="45.93847" lon="4.7674">
        <ele>167.7998</ele>
        <time>2026-05-13T11:09:24+02:00</time>
      </trkpt>
      <trkpt lat="45.93844" lon="4.76735">
        <ele>167.7998</ele>
        <time>2026-05-13T11:09:25+02:00</time>
      </trkpt>
      <trkpt lat="45.93841" lon="4.76729">
        <ele>167.7998</ele>
        <time>2026-05-13T11:09:26+02:00</time>
      </trkpt>
      <trkpt lat="45.93837" lon="4.76724">
        <ele>167.7002</ele>
        <time>2026-05-13T11:09:27+02:00</time>
      </trkpt>
      <trkpt lat="45.93834" lon="4.76719">
        <ele>167.7002</ele>
        <time>2026-05-13T11:09:28+02:00</time>
      </trkpt>
      <trkpt lat="45.93831" lon="4.76713">
        <ele>167.7002</ele>
        <time>2026-05-13T11:09:29+02:00</time>
      </trkpt>
      <trkpt lat="45.93828" lon="4.76708">
        <ele>167.7002</ele>
        <time>2026-05-13T11:09:30+02:00</time>
      </trkpt>
      <trkpt lat="45.93826" lon="4.76703">
        <ele>167.7998</ele>
        <time>2026-05-13T11:09:31+02:00</time>
      </trkpt>
      <trkpt lat="45.93823" lon="4.76699">
        <ele>167.7998</ele>
        <time>2026-05-13T11:09:32+02:00</time>
      </trkpt>
      <trkpt lat="45.9382" lon="4.76693">
        <ele>167.90039</ele>
        <time>2026-05-13T11:09:33+02:00</time>
      </trkpt>
      <trkpt lat="45.93818" lon="4.76688">
        <ele>167.7998</ele>
        <time>2026-05-13T11:09:34+02:00</time>
      </trkpt>
      <trkpt lat="45.93815" lon="4.76683">
        <ele>167.7998</ele>
        <time>2026-05-13T11:09:35+02:00</time>
      </trkpt>
      <trkpt lat="45.93812" lon="4.76678">
        <ele>167.7998</ele>
        <time>2026-05-13T11:09:36+02:00</time>
      </trkpt>
      <trkpt lat="45.93809" lon="4.76672">
        <ele>167.7002</ele>
        <time>2026-05-13T11:09:37+02:00</time>
      </trkpt>
      <trkpt lat="45.93807" lon="4.76667">
        <ele>167.7002</ele>
        <time>2026-05-13T11:09:38+02:00</time>
      </trkpt>
      <trkpt lat="45.93804" lon="4.76662">
        <ele>167.7002</ele>
        <time>2026-05-13T11:09:39+02:00</time>
      </trkpt>
      <trkpt lat="45.93802" lon="4.76657">
        <ele>167.7998</ele>
        <time>2026-05-13T11:09:40+02:00</time>
      </trkpt>
      <trkpt lat="45.938" lon="4.76651">
        <ele>167.7998</ele>
        <time>2026-05-13T11:09:41+02:00</time>
      </trkpt>
      <trkpt lat="45.93797" lon="4.76645">
        <ele>167.7998</ele>
        <time>2026-05-13T11:09:42+02:00</time>
      </trkpt>
      <trkpt lat="45.93795" lon="4.76639">
        <ele>167.7998</ele>
        <time>2026-05-13T11:09:43+02:00</time>
      </trkpt>
      <trkpt lat="45.93792" lon="4.76633">
        <ele>167.7998</ele>
        <time>2026-05-13T11:09:44+02:00</time>
      </trkpt>
      <trkpt lat="45.93789" lon="4.76627">
        <ele>167.7998</ele>
        <time>2026-05-13T11:09:45+02:00</time>
      </trkpt>
      <trkpt lat="45.93788" lon="4.76621">
        <ele>167.7998</ele>
        <time>2026-05-13T11:09:46+02:00</time>
      </trkpt>
      <trkpt lat="45.93785" lon="4.76615">
        <ele>167.7998</ele>
        <time>2026-05-13T11:09:47+02:00</time>
      </trkpt>
      <trkpt lat="45.93783" lon="4.76608">
        <ele>167.7002</ele>
        <time>2026-05-13T11:09:48+02:00</time>
      </trkpt>
      <trkpt lat="45.93781" lon="4.76602">
        <ele>167.7002</ele>
        <time>2026-05-13T11:09:49+02:00</time>
      </trkpt>
      <trkpt lat="45.93778" lon="4.76595">
        <ele>167.7998</ele>
        <time>2026-05-13T11:09:50+02:00</time>
      </trkpt>
      <trkpt lat="45.93776" lon="4.76589">
        <ele>167.7998</ele>
        <time>2026-05-13T11:09:51+02:00</time>
      </trkpt>
      <trkpt lat="45.93774" lon="4.76583">
        <ele>167.7998</ele>
        <time>2026-05-13T11:09:52+02:00</time>
      </trkpt>
      <trkpt lat="45.93772" lon="4.76577">
        <ele>167.7998</ele>
        <time>2026-05-13T11:09:53+02:00</time>
      </trkpt>
      <trkpt lat="45.9377" lon="4.7657">
        <ele>167.7998</ele>
        <time>2026-05-13T11:09:54+02:00</time>
      </trkpt>
      <trkpt lat="45.93768" lon="4.76564">
        <ele>167.90039</ele>
        <time>2026-05-13T11:09:55+02:00</time>
      </trkpt>
      <trkpt lat="45.93765" lon="4.76557">
        <ele>167.7998</ele>
        <time>2026-05-13T11:09:56+02:00</time>
      </trkpt>
      <trkpt lat="45.93763" lon="4.76551">
        <ele>167.7998</ele>
        <time>2026-05-13T11:09:57+02:00</time>
      </trkpt>
      <trkpt lat="45.9376" lon="4.76544">
        <ele>167.7002</ele>
        <time>2026-05-13T11:09:58+02:00</time>
      </trkpt>
      <trkpt lat="45.93758" lon="4.76538">
        <ele>167.7002</ele>
        <time>2026-05-13T11:09:59+02:00</time>
      </trkpt>
      <trkpt lat="45.93756" lon="4.76531">
        <ele>167.7002</ele>
        <time>2026-05-13T11:10:00+02:00</time>
      </trkpt>
      <trkpt lat="45.93754" lon="4.76524">
        <ele>167.7002</ele>
        <time>2026-05-13T11:10:01+02:00</time>
      </trkpt>
      <trkpt lat="45.93752" lon="4.76517">
        <ele>167.7998</ele>
        <time>2026-05-13T11:10:02+02:00</time>
      </trkpt>
      <trkpt lat="45.93749" lon="4.7651">
        <ele>167.7998</ele>
        <time>2026-05-13T11:10:03+02:00</time>
      </trkpt>
      <trkpt lat="45.93747" lon="4.76504">
        <ele>167.7998</ele>
        <time>2026-05-13T11:10:04+02:00</time>
      </trkpt>
      <trkpt lat="45.93744" lon="4.76497">
        <ele>167.90039</ele>
        <time>2026-05-13T11:10:05+02:00</time>
      </trkpt>
      <trkpt lat="45.93742" lon="4.7649">
        <ele>167.7998</ele>
        <time>2026-05-13T11:10:06+02:00</time>
      </trkpt>
      <trkpt lat="45.9374" lon="4.76483">
        <ele>167.90039</ele>
        <time>2026-05-13T11:10:07+02:00</time>
      </trkpt>
      <trkpt lat="45.93737" lon="4.76477">
        <ele>168.10059</ele>
        <time>2026-05-13T11:10:08+02:00</time>
      </trkpt>
      <trkpt lat="45.93735" lon="4.7647">
        <ele>168.2002</ele>
        <time>2026-05-13T11:10:09+02:00</time>
      </trkpt>
      <trkpt lat="45.93733" lon="4.76464">
        <ele>168.2002</ele>
        <time>2026-05-13T11:10:10+02:00</time>
      </trkpt>
      <trkpt lat="45.9373" lon="4.76457">
        <ele>168.2002</ele>
        <time>2026-05-13T11:10:11+02:00</time>
      </trkpt>
      <trkpt lat="45.93728" lon="4.76451">
        <ele>168.2002</ele>
        <time>2026-05-13T11:10:12+02:00</time>
      </trkpt>
      <trkpt lat="45.93726" lon="4.76444">
        <ele>168.2998</ele>
        <time>2026-05-13T11:10:13+02:00</time>
      </trkpt>
      <trkpt lat="45.93724" lon="4.76438">
        <ele>168</ele>
        <time>2026-05-13T11:10:14+02:00</time>
      </trkpt>
      <trkpt lat="45.93722" lon="4.76431">
        <ele>168</ele>
        <time>2026-05-13T11:10:15+02:00</time>
      </trkpt>
      <trkpt lat="45.9372" lon="4.76424">
        <ele>168.10059</ele>
        <time>2026-05-13T11:10:16+02:00</time>
      </trkpt>
      <trkpt lat="45.93718" lon="4.76418">
        <ele>168.10059</ele>
        <time>2026-05-13T11:10:17+02:00</time>
      </trkpt>
      <trkpt lat="45.93716" lon="4.76412">
        <ele>168.10059</ele>
        <time>2026-05-13T11:10:18+02:00</time>
      </trkpt>
      <trkpt lat="45.93714" lon="4.76407">
        <ele>168.2998</ele>
        <time>2026-05-13T11:10:19+02:00</time>
      </trkpt>
      <trkpt lat="45.93712" lon="4.76402">
        <ele>168.2998</ele>
        <time>2026-05-13T11:10:20+02:00</time>
      </trkpt>
      <trkpt lat="45.93709" lon="4.76397">
        <ele>168.2998</ele>
        <time>2026-05-13T11:10:21+02:00</time>
      </trkpt>
      <trkpt lat="45.93707" lon="4.76391">
        <ele>168.5</ele>
        <time>2026-05-13T11:10:22+02:00</time>
      </trkpt>
      <trkpt lat="45.93706" lon="4.76385">
        <ele>168.2998</ele>
        <time>2026-05-13T11:10:23+02:00</time>
      </trkpt>
      <trkpt lat="45.93704" lon="4.76378">
        <ele>168.2998</ele>
        <time>2026-05-13T11:10:24+02:00</time>
      </trkpt>
      <trkpt lat="45.93702" lon="4.76372">
        <ele>168.40039</ele>
        <time>2026-05-13T11:10:25+02:00</time>
      </trkpt>
      <trkpt lat="45.93699" lon="4.76365">
        <ele>168.10059</ele>
        <time>2026-05-13T11:10:26+02:00</time>
      </trkpt>
      <trkpt lat="45.93697" lon="4.76358">
        <ele>168.2998</ele>
        <time>2026-05-13T11:10:27+02:00</time>
      </trkpt>
      <trkpt lat="45.93695" lon="4.76352">
        <ele>168.2998</ele>
        <time>2026-05-13T11:10:28+02:00</time>
      </trkpt>
      <trkpt lat="45.93693" lon="4.76345">
        <ele>168.2998</ele>
        <time>2026-05-13T11:10:29+02:00</time>
      </trkpt>
      <trkpt lat="45.93691" lon="4.76338">
        <ele>168.60059</ele>
        <time>2026-05-13T11:10:30+02:00</time>
      </trkpt>
      <trkpt lat="45.93689" lon="4.76331">
        <ele>168.7998</ele>
        <time>2026-05-13T11:10:31+02:00</time>
      </trkpt>
      <trkpt lat="45.93686" lon="4.76324">
        <ele>168.7998</ele>
        <time>2026-05-13T11:10:32+02:00</time>
      </trkpt>
      <trkpt lat="45.93684" lon="4.76317">
        <ele>169</ele>
        <time>2026-05-13T11:10:33+02:00</time>
      </trkpt>
      <trkpt lat="45.93682" lon="4.76311">
        <ele>168.7002</ele>
        <time>2026-05-13T11:10:34+02:00</time>
      </trkpt>
      <trkpt lat="45.9368" lon="4.76304">
        <ele>168.7998</ele>
        <time>2026-05-13T11:10:35+02:00</time>
      </trkpt>
      <trkpt lat="45.93677" lon="4.76297">
        <ele>169.10059</ele>
        <time>2026-05-13T11:10:36+02:00</time>
      </trkpt>
      <trkpt lat="45.93675" lon="4.7629">
        <ele>169.2002</ele>
        <time>2026-05-13T11:10:37+02:00</time>
      </trkpt>
      <trkpt lat="45.93673" lon="4.76284">
        <ele>169.2002</ele>
        <time>2026-05-13T11:10:38+02:00</time>
      </trkpt>
      <trkpt lat="45.93671" lon="4.76278">
        <ele>169.7002</ele>
        <time>2026-05-13T11:10:39+02:00</time>
      </trkpt>
      <trkpt lat="45.93669" lon="4.76272">
        <ele>170.2998</ele>
        <time>2026-05-13T11:10:40+02:00</time>
      </trkpt>
      <trkpt lat="45.93667" lon="4.76267">
        <ele>170.2998</ele>
        <time>2026-05-13T11:10:41+02:00</time>
      </trkpt>
      <trkpt lat="45.93665" lon="4.76261">
        <ele>170.2002</ele>
        <time>2026-05-13T11:10:42+02:00</time>
      </trkpt>
      <trkpt lat="45.93662" lon="4.76255">
        <ele>169.7998</ele>
        <time>2026-05-13T11:10:43+02:00</time>
      </trkpt>
      <trkpt lat="45.9366" lon="4.76249">
        <ele>169.7998</ele>
        <time>2026-05-13T11:10:44+02:00</time>
      </trkpt>
      <trkpt lat="45.93658" lon="4.76243">
        <ele>169.10059</ele>
        <time>2026-05-13T11:10:45+02:00</time>
      </trkpt>
      <trkpt lat="45.93656" lon="4.76238">
        <ele>169</ele>
        <time>2026-05-13T11:10:46+02:00</time>
      </trkpt>
      <trkpt lat="45.93654" lon="4.76232">
        <ele>169</ele>
        <time>2026-05-13T11:10:47+02:00</time>
      </trkpt>
      <trkpt lat="45.93652" lon="4.76228">
        <ele>168.5</ele>
        <time>2026-05-13T11:10:48+02:00</time>
      </trkpt>
      <trkpt lat="45.93651" lon="4.76223">
        <ele>168.5</ele>
        <time>2026-05-13T11:10:49+02:00</time>
      </trkpt>
      <trkpt lat="45.9365" lon="4.76218">
        <ele>168.60059</ele>
        <time>2026-05-13T11:10:50+02:00</time>
      </trkpt>
      <trkpt lat="45.93649" lon="4.76213">
        <ele>168.7002</ele>
        <time>2026-05-13T11:10:51+02:00</time>
      </trkpt>
      <trkpt lat="45.93647" lon="4.76209">
        <ele>168.7002</ele>
        <time>2026-05-13T11:10:52+02:00</time>
      </trkpt>
      <trkpt lat="45.93645" lon="4.76204">
        <ele>168.2998</ele>
        <time>2026-05-13T11:10:53+02:00</time>
      </trkpt>
      <trkpt lat="45.93643" lon="4.76199">
        <ele>168.2998</ele>
        <time>2026-05-13T11:10:54+02:00</time>
      </trkpt>
      <trkpt lat="45.93642" lon="4.76194">
        <ele>168.60059</ele>
        <time>2026-05-13T11:10:55+02:00</time>
      </trkpt>
      <trkpt lat="45.9364" lon="4.7619">
        <ele>168.2998</ele>
        <time>2026-05-13T11:10:56+02:00</time>
      </trkpt>
      <trkpt lat="45.93638" lon="4.76186">
        <ele>168.60059</ele>
        <time>2026-05-13T11:10:57+02:00</time>
      </trkpt>
      <trkpt lat="45.93637" lon="4.76183">
        <ele>168.60059</ele>
        <time>2026-05-13T11:10:58+02:00</time>
      </trkpt>
      <trkpt lat="45.93636" lon="4.76179">
        <ele>168.90039</ele>
        <time>2026-05-13T11:10:59+02:00</time>
      </trkpt>
      <trkpt lat="45.93635" lon="4.76175">
        <ele>168.90039</ele>
        <time>2026-05-13T11:11:00+02:00</time>
      </trkpt>
      <trkpt lat="45.93633" lon="4.76172">
        <ele>168.60059</ele>
        <time>2026-05-13T11:11:01+02:00</time>
      </trkpt>
      <trkpt lat="45.93633" lon="4.76169">
        <ele>168.7998</ele>
        <time>2026-05-13T11:11:02+02:00</time>
      </trkpt>
      <trkpt lat="45.93631" lon="4.76166">
        <ele>168.7998</ele>
        <time>2026-05-13T11:11:03+02:00</time>
      </trkpt>
      <trkpt lat="45.9363" lon="4.76162">
        <ele>168.90039</ele>
        <time>2026-05-13T11:11:04+02:00</time>
      </trkpt>
      <trkpt lat="45.93629" lon="4.7616">
        <ele>168.90039</ele>
        <time>2026-05-13T11:11:05+02:00</time>
      </trkpt>
      <trkpt lat="45.93628" lon="4.76158">
        <ele>168.5</ele>
        <time>2026-05-13T11:11:06+02:00</time>
      </trkpt>
      <trkpt lat="45.93628" lon="4.76156">
        <ele>168.5</ele>
        <time>2026-05-13T11:11:07+02:00</time>
      </trkpt>
      <trkpt lat="45.93628" lon="4.76153">
        <ele>168.60059</ele>
        <time>2026-05-13T11:11:08+02:00</time>
      </trkpt>
      <trkpt lat="45.93627" lon="4.76151">
        <ele>168.60059</ele>
        <time>2026-05-13T11:11:09+02:00</time>
      </trkpt>
      <trkpt lat="45.93626" lon="4.76147">
        <ele>168.60059</ele>
        <time>2026-05-13T11:11:10+02:00</time>
      </trkpt>
      <trkpt lat="45.93625" lon="4.76143">
        <ele>168.7998</ele>
        <time>2026-05-13T11:11:11+02:00</time>
      </trkpt>
      <trkpt lat="45.93623" lon="4.7614">
        <ele>168.7998</ele>
        <time>2026-05-13T11:11:12+02:00</time>
      </trkpt>
      <trkpt lat="45.93622" lon="4.76135">
        <ele>168.7002</ele>
        <time>2026-05-13T11:11:13+02:00</time>
      </trkpt>
      <trkpt lat="45.9362" lon="4.76131">
        <ele>168.7002</ele>
        <time>2026-05-13T11:11:14+02:00</time>
      </trkpt>
      <trkpt lat="45.93619" lon="4.76126">
        <ele>169.10059</ele>
        <time>2026-05-13T11:11:15+02:00</time>
      </trkpt>
      <trkpt lat="45.93617" lon="4.76121">
        <ele>168.7998</ele>
        <time>2026-05-13T11:11:16+02:00</time>
      </trkpt>
      <trkpt lat="45.93615" lon="4.76116">
        <ele>169.2002</ele>
        <time>2026-05-13T11:11:17+02:00</time>
      </trkpt>
      <trkpt lat="45.93614" lon="4.76112">
        <ele>169.2002</ele>
        <time>2026-05-13T11:11:18+02:00</time>
      </trkpt>
      <trkpt lat="45.93612" lon="4.76107">
        <ele>169.60059</ele>
        <time>2026-05-13T11:11:19+02:00</time>
      </trkpt>
      <trkpt lat="45.93611" lon="4.76103">
        <ele>169.60059</ele>
        <time>2026-05-13T11:11:20+02:00</time>
      </trkpt>
      <trkpt lat="45.93609" lon="4.76099">
        <ele>170</ele>
        <time>2026-05-13T11:11:21+02:00</time>
      </trkpt>
      <trkpt lat="45.93608" lon="4.76096">
        <ele>170</ele>
        <time>2026-05-13T11:11:22+02:00</time>
      </trkpt>
      <trkpt lat="45.93607" lon="4.76092">
        <ele>170.40039</ele>
        <time>2026-05-13T11:11:23+02:00</time>
      </trkpt>
      <trkpt lat="45.93606" lon="4.76089">
        <ele>170.40039</ele>
        <time>2026-05-13T11:11:24+02:00</time>
      </trkpt>
      <trkpt lat="45.93605" lon="4.76085">
        <ele>170.7002</ele>
        <time>2026-05-13T11:11:25+02:00</time>
      </trkpt>
      <trkpt lat="45.93604" lon="4.76083">
        <ele>170.2998</ele>
        <time>2026-05-13T11:11:26+02:00</time>
      </trkpt>
      <trkpt lat="45.93604" lon="4.76082">
        <ele>170.2998</ele>
        <time>2026-05-13T11:11:27+02:00</time>
      </trkpt>
      <trkpt lat="45.93604" lon="4.76081">
        <ele>170.2998</ele>
        <time>2026-05-13T11:11:28+02:00</time>
      </trkpt>
      <trkpt lat="45.93604" lon="4.76081">
        <ele>170.2998</ele>
        <time>2026-05-13T11:11:29+02:00</time>
      </trkpt>
      <trkpt lat="45.93604" lon="4.76081">
        <ele>170.2998</ele>
        <time>2026-05-13T11:11:30+02:00</time>
      </trkpt>
      <trkpt lat="45.93604" lon="4.76081">
        <ele>170.2998</ele>
        <time>2026-05-13T11:11:31+02:00</time>
      </trkpt>
      <trkpt lat="45.93604" lon="4.76081">
        <ele>170.2998</ele>
        <time>2026-05-13T11:27:06+02:00</time>
      </trkpt>
      <trkpt lat="45.93604" lon="4.76081">
        <ele>170.2998</ele>
        <time>2026-05-13T11:27:07+02:00</time>
      </trkpt>
      <trkpt lat="45.93604" lon="4.76081">
        <ele>170.2998</ele>
        <time>2026-05-13T11:27:08+02:00</time>
      </trkpt>
      <trkpt lat="45.93604" lon="4.76081">
        <ele>170.2998</ele>
        <time>2026-05-13T11:27:09+02:00</time>
      </trkpt>
      <trkpt lat="45.93604" lon="4.76081">
        <ele>170.2998</ele>
        <time>2026-05-13T11:27:10+02:00</time>
      </trkpt>
      <trkpt lat="45.93604" lon="4.76081">
        <ele>170.2998</ele>
        <time>2026-05-13T11:27:11+02:00</time>
      </trkpt>
      <trkpt lat="45.93604" lon="4.76081">
        <ele>170.2998</ele>
        <time>2026-05-13T11:27:12+02:00</time>
      </trkpt>
      <trkpt lat="45.93604" lon="4.76081">
        <ele>170.2998</ele>
        <time>2026-05-13T11:27:13+02:00</time>
      </trkpt>
      <trkpt lat="45.93604" lon="4.76081">
        <ele>170.2998</ele>
        <time>2026-05-13T11:27:14+02:00</time>
      </trkpt>
      <trkpt lat="45.93604" lon="4.76081">
        <ele>170.2998</ele>
        <time>2026-05-13T11:27:15+02:00</time>
      </trkpt>
      <trkpt lat="45.93604" lon="4.76081">
        <ele>170.2998</ele>
        <time>2026-05-13T11:27:16+02:00</time>
      </trkpt>
      <trkpt lat="45.93604" lon="4.76081">
        <ele>170.2998</ele>
        <time>2026-05-13T11:27:17+02:00</time>
      </trkpt>
      <trkpt lat="45.93604" lon="4.76081">
        <ele>170.2998</ele>
        <time>2026-05-13T11:27:18+02:00</time>
      </trkpt>
      <trkpt lat="45.93597" lon="4.76064">
        <ele>169.7002</ele>
        <time>2026-05-13T11:27:19+02:00</time>
      </trkpt>
      <trkpt lat="45.93596" lon="4.76062">
        <ele>169.7002</ele>
        <time>2026-05-13T11:27:20+02:00</time>
      </trkpt>
      <trkpt lat="45.93594" lon="4.76059">
        <ele>169.7002</ele>
        <time>2026-05-13T11:27:21+02:00</time>
      </trkpt>
      <trkpt lat="45.93593" lon="4.76056">
        <ele>168.60059</ele>
        <time>2026-05-13T11:27:22+02:00</time>
      </trkpt>
      <trkpt lat="45.93592" lon="4.76053">
        <ele>168.60059</ele>
        <time>2026-05-13T11:27:23+02:00</time>
      </trkpt>
      <trkpt lat="45.93591" lon="4.7605">
        <ele>168.60059</ele>
        <time>2026-05-13T11:27:24+02:00</time>
      </trkpt>
      <trkpt lat="45.9359" lon="4.76046">
        <ele>168.60059</ele>
        <time>2026-05-13T11:27:25+02:00</time>
      </trkpt>
      <trkpt lat="45.93589" lon="4.76041">
        <ele>168.5</ele>
        <time>2026-05-13T11:27:26+02:00</time>
      </trkpt>
      <trkpt lat="45.93587" lon="4.76037">
        <ele>168.5</ele>
        <time>2026-05-13T11:27:27+02:00</time>
      </trkpt>
      <trkpt lat="45.93586" lon="4.76032">
        <ele>167.90039</ele>
        <time>2026-05-13T11:27:28+02:00</time>
      </trkpt>
      <trkpt lat="45.93584" lon="4.76027">
        <ele>167.90039</ele>
        <time>2026-05-13T11:27:29+02:00</time>
      </trkpt>
      <trkpt lat="45.93582" lon="4.76022">
        <ele>168</ele>
        <time>2026-05-13T11:27:30+02:00</time>
      </trkpt>
      <trkpt lat="45.9358" lon="4.76017">
        <ele>167.7998</ele>
        <time>2026-05-13T11:27:31+02:00</time>
      </trkpt>
      <trkpt lat="45.93578" lon="4.76012">
        <ele>167.90039</ele>
        <time>2026-05-13T11:27:32+02:00</time>
      </trkpt>
      <trkpt lat="45.93577" lon="4.76006">
        <ele>168</ele>
        <time>2026-05-13T11:27:33+02:00</time>
      </trkpt>
      <trkpt lat="45.93575" lon="4.76001">
        <ele>167.90039</ele>
        <time>2026-05-13T11:27:34+02:00</time>
      </trkpt>
      <trkpt lat="45.93573" lon="4.75995">
        <ele>168.10059</ele>
        <time>2026-05-13T11:27:35+02:00</time>
      </trkpt>
      <trkpt lat="45.93571" lon="4.7599">
        <ele>168.40039</ele>
        <time>2026-05-13T11:27:36+02:00</time>
      </trkpt>
      <trkpt lat="45.93569" lon="4.75984">
        <ele>168.40039</ele>
        <time>2026-05-13T11:27:37+02:00</time>
      </trkpt>
      <trkpt lat="45.93568" lon="4.75978">
        <ele>168.5</ele>
        <time>2026-05-13T11:27:38+02:00</time>
      </trkpt>
      <trkpt lat="45.93566" lon="4.75973">
        <ele>168.90039</ele>
        <time>2026-05-13T11:27:39+02:00</time>
      </trkpt>
      <trkpt lat="45.93564" lon="4.75967">
        <ele>168.90039</ele>
        <time>2026-05-13T11:27:40+02:00</time>
      </trkpt>
      <trkpt lat="45.93562" lon="4.75961">
        <ele>168.2998</ele>
        <time>2026-05-13T11:27:41+02:00</time>
      </trkpt>
      <trkpt lat="45.93561" lon="4.75955">
        <ele>168.2998</ele>
        <time>2026-05-13T11:27:42+02:00</time>
      </trkpt>
      <trkpt lat="45.93559" lon="4.75949">
        <ele>168.2998</ele>
        <time>2026-05-13T11:27:43+02:00</time>
      </trkpt>
      <trkpt lat="45.93557" lon="4.75943">
        <ele>167.90039</ele>
        <time>2026-05-13T11:27:44+02:00</time>
      </trkpt>
      <trkpt lat="45.93556" lon="4.75937">
        <ele>167.90039</ele>
        <time>2026-05-13T11:27:45+02:00</time>
      </trkpt>
      <trkpt lat="45.93553" lon="4.7593">
        <ele>167.90039</ele>
        <time>2026-05-13T11:27:46+02:00</time>
      </trkpt>
      <trkpt lat="45.93551" lon="4.75924">
        <ele>167.7998</ele>
        <time>2026-05-13T11:27:47+02:00</time>
      </trkpt>
      <trkpt lat="45.93549" lon="4.75917">
        <ele>167.7998</ele>
        <time>2026-05-13T11:27:48+02:00</time>
      </trkpt>
      <trkpt lat="45.93546" lon="4.75911">
        <ele>167.7998</ele>
        <time>2026-05-13T11:27:49+02:00</time>
      </trkpt>
      <trkpt lat="45.93544" lon="4.75904">
        <ele>167.7998</ele>
        <time>2026-05-13T11:27:50+02:00</time>
      </trkpt>
      <trkpt lat="45.93542" lon="4.75898">
        <ele>167.7998</ele>
        <time>2026-05-13T11:27:51+02:00</time>
      </trkpt>
      <trkpt lat="45.9354" lon="4.75891">
        <ele>167.7998</ele>
        <time>2026-05-13T11:27:52+02:00</time>
      </trkpt>
      <trkpt lat="45.93538" lon="4.75885">
        <ele>167.90039</ele>
        <time>2026-05-13T11:27:53+02:00</time>
      </trkpt>
      <trkpt lat="45.93536" lon="4.75879">
        <ele>167.7998</ele>
        <time>2026-05-13T11:27:54+02:00</time>
      </trkpt>
      <trkpt lat="45.93534" lon="4.75872">
        <ele>167.7998</ele>
        <time>2026-05-13T11:27:55+02:00</time>
      </trkpt>
      <trkpt lat="45.93532" lon="4.75865">
        <ele>167.90039</ele>
        <time>2026-05-13T11:27:56+02:00</time>
      </trkpt>
      <trkpt lat="45.93531" lon="4.75859">
        <ele>167.90039</ele>
        <time>2026-05-13T11:27:57+02:00</time>
      </trkpt>
      <trkpt lat="45.9353" lon="4.75853">
        <ele>167.90039</ele>
        <time>2026-05-13T11:27:58+02:00</time>
      </trkpt>
      <trkpt lat="45.93531" lon="4.75846">
        <ele>167.90039</ele>
        <time>2026-05-13T11:27:59+02:00</time>
      </trkpt>
      <trkpt lat="45.9353" lon="4.7584">
        <ele>167.90039</ele>
        <time>2026-05-13T11:28:00+02:00</time>
      </trkpt>
      <trkpt lat="45.93531" lon="4.75833">
        <ele>167.90039</ele>
        <time>2026-05-13T11:28:01+02:00</time>
      </trkpt>
      <trkpt lat="45.9353" lon="4.75826">
        <ele>167.90039</ele>
        <time>2026-05-13T11:28:02+02:00</time>
      </trkpt>
      <trkpt lat="45.9353" lon="4.75819">
        <ele>167.90039</ele>
        <time>2026-05-13T11:28:03+02:00</time>
      </trkpt>
      <trkpt lat="45.93531" lon="4.75812">
        <ele>167.90039</ele>
        <time>2026-05-13T11:28:04+02:00</time>
      </trkpt>
      <trkpt lat="45.93532" lon="4.75806">
        <ele>167.90039</ele>
        <time>2026-05-13T11:28:05+02:00</time>
      </trkpt>
      <trkpt lat="45.93533" lon="4.75799">
        <ele>167.90039</ele>
        <time>2026-05-13T11:28:06+02:00</time>
      </trkpt>
      <trkpt lat="45.93533" lon="4.75792">
        <ele>167.7998</ele>
        <time>2026-05-13T11:28:07+02:00</time>
      </trkpt>
      <trkpt lat="45.93535" lon="4.75786">
        <ele>167.7998</ele>
        <time>2026-05-13T11:28:08+02:00</time>
      </trkpt>
      <trkpt lat="45.93536" lon="4.75779">
        <ele>167.7998</ele>
        <time>2026-05-13T11:28:09+02:00</time>
      </trkpt>
      <trkpt lat="45.93537" lon="4.75773">
        <ele>167.7998</ele>
        <time>2026-05-13T11:28:10+02:00</time>
      </trkpt>
      <trkpt lat="45.93538" lon="4.75766">
        <ele>167.7998</ele>
        <time>2026-05-13T11:28:11+02:00</time>
      </trkpt>
      <trkpt lat="45.93539" lon="4.75759">
        <ele>167.7998</ele>
        <time>2026-05-13T11:28:12+02:00</time>
      </trkpt>
      <trkpt lat="45.9354" lon="4.75752">
        <ele>167.7998</ele>
        <time>2026-05-13T11:28:13+02:00</time>
      </trkpt>
      <trkpt lat="45.93541" lon="4.75747">
        <ele>167.7998</ele>
        <time>2026-05-13T11:28:14+02:00</time>
      </trkpt>
      <trkpt lat="45.93542" lon="4.75739">
        <ele>167.7998</ele>
        <time>2026-05-13T11:28:15+02:00</time>
      </trkpt>
      <trkpt lat="45.93543" lon="4.75732">
        <ele>167.7998</ele>
        <time>2026-05-13T11:28:16+02:00</time>
      </trkpt>
      <trkpt lat="45.93544" lon="4.75726">
        <ele>167.7998</ele>
        <time>2026-05-13T11:28:17+02:00</time>
      </trkpt>
      <trkpt lat="45.93545" lon="4.75719">
        <ele>167.90039</ele>
        <time>2026-05-13T11:28:18+02:00</time>
      </trkpt>
      <trkpt lat="45.93546" lon="4.75712">
        <ele>168</ele>
        <time>2026-05-13T11:28:19+02:00</time>
      </trkpt>
      <trkpt lat="45.93547" lon="4.75705">
        <ele>168.10059</ele>
        <time>2026-05-13T11:28:20+02:00</time>
      </trkpt>
      <trkpt lat="45.93548" lon="4.75697">
        <ele>168.10059</ele>
        <time>2026-05-13T11:28:21+02:00</time>
      </trkpt>
      <trkpt lat="45.93549" lon="4.7569">
        <ele>168.10059</ele>
        <time>2026-05-13T11:28:22+02:00</time>
      </trkpt>
      <trkpt lat="45.9355" lon="4.75683">
        <ele>168.10059</ele>
        <time>2026-05-13T11:28:23+02:00</time>
      </trkpt>
      <trkpt lat="45.93552" lon="4.75676">
        <ele>168.5</ele>
        <time>2026-05-13T11:28:24+02:00</time>
      </trkpt>
      <trkpt lat="45.93553" lon="4.75669">
        <ele>168.5</ele>
        <time>2026-05-13T11:28:25+02:00</time>
      </trkpt>
      <trkpt lat="45.93554" lon="4.75662">
        <ele>168.40039</ele>
        <time>2026-05-13T11:28:26+02:00</time>
      </trkpt>
      <trkpt lat="45.93555" lon="4.75654">
        <ele>168.10059</ele>
        <time>2026-05-13T11:28:27+02:00</time>
      </trkpt>
      <trkpt lat="45.93556" lon="4.75647">
        <ele>167.90039</ele>
        <time>2026-05-13T11:28:28+02:00</time>
      </trkpt>
      <trkpt lat="45.93556" lon="4.75639">
        <ele>167.7002</ele>
        <time>2026-05-13T11:28:29+02:00</time>
      </trkpt>
      <trkpt lat="45.93557" lon="4.75632">
        <ele>167.7002</ele>
        <time>2026-05-13T11:28:30+02:00</time>
      </trkpt>
      <trkpt lat="45.93559" lon="4.75625">
        <ele>167.90039</ele>
        <time>2026-05-13T11:28:31+02:00</time>
      </trkpt>
      <trkpt lat="45.93559" lon="4.75618">
        <ele>167.90039</ele>
        <time>2026-05-13T11:28:32+02:00</time>
      </trkpt>
      <trkpt lat="45.9356" lon="4.75611">
        <ele>167.90039</ele>
        <time>2026-05-13T11:28:33+02:00</time>
      </trkpt>
      <trkpt lat="45.9356" lon="4.75604">
        <ele>167.90039</ele>
        <time>2026-05-13T11:28:34+02:00</time>
      </trkpt>
      <trkpt lat="45.93561" lon="4.75596">
        <ele>167.90039</ele>
        <time>2026-05-13T11:28:35+02:00</time>
      </trkpt>
      <trkpt lat="45.93561" lon="4.75589">
        <ele>167.90039</ele>
        <time>2026-05-13T11:28:36+02:00</time>
      </trkpt>
      <trkpt lat="45.93562" lon="4.75581">
        <ele>167.90039</ele>
        <time>2026-05-13T11:28:37+02:00</time>
      </trkpt>
      <trkpt lat="45.93564" lon="4.75574">
        <ele>168.10059</ele>
        <time>2026-05-13T11:28:38+02:00</time>
      </trkpt>
      <trkpt lat="45.93564" lon="4.75566">
        <ele>168.10059</ele>
        <time>2026-05-13T11:28:39+02:00</time>
      </trkpt>
      <trkpt lat="45.93565" lon="4.75558">
        <ele>168</ele>
        <time>2026-05-13T11:28:40+02:00</time>
      </trkpt>
      <trkpt lat="45.93566" lon="4.7555">
        <ele>167.90039</ele>
        <time>2026-05-13T11:28:41+02:00</time>
      </trkpt>
      <trkpt lat="45.93567" lon="4.75543">
        <ele>167.7998</ele>
        <time>2026-05-13T11:28:42+02:00</time>
      </trkpt>
      <trkpt lat="45.93569" lon="4.75535">
        <ele>167.7998</ele>
        <time>2026-05-13T11:28:43+02:00</time>
      </trkpt>
      <trkpt lat="45.9357" lon="4.75527">
        <ele>167.7998</ele>
        <time>2026-05-13T11:28:44+02:00</time>
      </trkpt>
      <trkpt lat="45.93572" lon="4.7552">
        <ele>167.7998</ele>
        <time>2026-05-13T11:28:45+02:00</time>
      </trkpt>
      <trkpt lat="45.93572" lon="4.75512">
        <ele>167.7998</ele>
        <time>2026-05-13T11:28:46+02:00</time>
      </trkpt>
      <trkpt lat="45.93573" lon="4.75504">
        <ele>167.7998</ele>
        <time>2026-05-13T11:28:47+02:00</time>
      </trkpt>
      <trkpt lat="45.93574" lon="4.75496">
        <ele>167.7998</ele>
        <time>2026-05-13T11:28:48+02:00</time>
      </trkpt>
      <trkpt lat="45.93575" lon="4.75489">
        <ele>167.7998</ele>
        <time>2026-05-13T11:28:49+02:00</time>
      </trkpt>
      <trkpt lat="45.93575" lon="4.75481">
        <ele>167.7998</ele>
        <time>2026-05-13T11:28:50+02:00</time>
      </trkpt>
      <trkpt lat="45.93577" lon="4.75473">
        <ele>167.90039</ele>
        <time>2026-05-13T11:28:51+02:00</time>
      </trkpt>
      <trkpt lat="45.93578" lon="4.75466">
        <ele>167.90039</ele>
        <time>2026-05-13T11:28:52+02:00</time>
      </trkpt>
      <trkpt lat="45.93579" lon="4.75459">
        <ele>167.90039</ele>
        <time>2026-05-13T11:28:53+02:00</time>
      </trkpt>
      <trkpt lat="45.9358" lon="4.75451">
        <ele>167.90039</ele>
        <time>2026-05-13T11:28:54+02:00</time>
      </trkpt>
      <trkpt lat="45.93581" lon="4.75444">
        <ele>167.90039</ele>
        <time>2026-05-13T11:28:55+02:00</time>
      </trkpt>
      <trkpt lat="45.93582" lon="4.75437">
        <ele>168</ele>
        <time>2026-05-13T11:28:56+02:00</time>
      </trkpt>
      <trkpt lat="45.93583" lon="4.7543">
        <ele>168</ele>
        <time>2026-05-13T11:28:57+02:00</time>
      </trkpt>
      <trkpt lat="45.93585" lon="4.75423">
        <ele>167.90039</ele>
        <time>2026-05-13T11:28:58+02:00</time>
      </trkpt>
      <trkpt lat="45.93586" lon="4.75415">
        <ele>167.90039</ele>
        <time>2026-05-13T11:28:59+02:00</time>
      </trkpt>
      <trkpt lat="45.93587" lon="4.75408">
        <ele>167.90039</ele>
        <time>2026-05-13T11:29:00+02:00</time>
      </trkpt>
      <trkpt lat="45.93588" lon="4.75401">
        <ele>167.7998</ele>
        <time>2026-05-13T11:29:01+02:00</time>
      </trkpt>
      <trkpt lat="45.9359" lon="4.75394">
        <ele>167.7998</ele>
        <time>2026-05-13T11:29:02+02:00</time>
      </trkpt>
      <trkpt lat="45.93591" lon="4.75386">
        <ele>167.90039</ele>
        <time>2026-05-13T11:29:03+02:00</time>
      </trkpt>
      <trkpt lat="45.93593" lon="4.75379">
        <ele>167.90039</ele>
        <time>2026-05-13T11:29:04+02:00</time>
      </trkpt>
      <trkpt lat="45.93594" lon="4.75372">
        <ele>167.90039</ele>
        <time>2026-05-13T11:29:05+02:00</time>
      </trkpt>
      <trkpt lat="45.93596" lon="4.75365">
        <ele>167.90039</ele>
        <time>2026-05-13T11:29:06+02:00</time>
      </trkpt>
      <trkpt lat="45.93598" lon="4.75358">
        <ele>167.90039</ele>
        <time>2026-05-13T11:29:07+02:00</time>
      </trkpt>
      <trkpt lat="45.93599" lon="4.75351">
        <ele>167.90039</ele>
        <time>2026-05-13T11:29:08+02:00</time>
      </trkpt>
      <trkpt lat="45.936" lon="4.75344">
        <ele>168</ele>
        <time>2026-05-13T11:29:09+02:00</time>
      </trkpt>
      <trkpt lat="45.93601" lon="4.75336">
        <ele>168</ele>
        <time>2026-05-13T11:29:10+02:00</time>
      </trkpt>
      <trkpt lat="45.93602" lon="4.75329">
        <ele>168</ele>
        <time>2026-05-13T11:29:11+02:00</time>
      </trkpt>
      <trkpt lat="45.93603" lon="4.75321">
        <ele>167.90039</ele>
        <time>2026-05-13T11:29:12+02:00</time>
      </trkpt>
      <trkpt lat="45.93604" lon="4.75314">
        <ele>167.90039</ele>
        <time>2026-05-13T11:29:13+02:00</time>
      </trkpt>
      <trkpt lat="45.93606" lon="4.75306">
        <ele>167.90039</ele>
        <time>2026-05-13T11:29:14+02:00</time>
      </trkpt>
      <trkpt lat="45.93607" lon="4.75298">
        <ele>167.90039</ele>
        <time>2026-05-13T11:29:15+02:00</time>
      </trkpt>
      <trkpt lat="45.93609" lon="4.75291">
        <ele>167.90039</ele>
        <time>2026-05-13T11:29:16+02:00</time>
      </trkpt>
      <trkpt lat="45.9361" lon="4.75283">
        <ele>167.90039</ele>
        <time>2026-05-13T11:29:17+02:00</time>
      </trkpt>
      <trkpt lat="45.93611" lon="4.75276">
        <ele>167.90039</ele>
        <time>2026-05-13T11:29:18+02:00</time>
      </trkpt>
      <trkpt lat="45.93613" lon="4.75269">
        <ele>167.90039</ele>
        <time>2026-05-13T11:29:19+02:00</time>
      </trkpt>
      <trkpt lat="45.93614" lon="4.75261">
        <ele>167.90039</ele>
        <time>2026-05-13T11:29:20+02:00</time>
      </trkpt>
      <trkpt lat="45.93616" lon="4.75254">
        <ele>167.90039</ele>
        <time>2026-05-13T11:29:21+02:00</time>
      </trkpt>
      <trkpt lat="45.93618" lon="4.75247">
        <ele>167.90039</ele>
        <time>2026-05-13T11:29:22+02:00</time>
      </trkpt>
      <trkpt lat="45.93619" lon="4.75241">
        <ele>167.90039</ele>
        <time>2026-05-13T11:29:23+02:00</time>
      </trkpt>
      <trkpt lat="45.93621" lon="4.75233">
        <ele>167.90039</ele>
        <time>2026-05-13T11:29:24+02:00</time>
      </trkpt>
      <trkpt lat="45.93623" lon="4.75227">
        <ele>167.90039</ele>
        <time>2026-05-13T11:29:25+02:00</time>
      </trkpt>
      <trkpt lat="45.93625" lon="4.7522">
        <ele>167.90039</ele>
        <time>2026-05-13T11:29:26+02:00</time>
      </trkpt>
      <trkpt lat="45.93627" lon="4.75214">
        <ele>167.90039</ele>
        <time>2026-05-13T11:29:27+02:00</time>
      </trkpt>
      <trkpt lat="45.93628" lon="4.75208">
        <ele>167.90039</ele>
        <time>2026-05-13T11:29:28+02:00</time>
      </trkpt>
      <trkpt lat="45.9363" lon="4.75201">
        <ele>167.90039</ele>
        <time>2026-05-13T11:29:29+02:00</time>
      </trkpt>
      <trkpt lat="45.93632" lon="4.75194">
        <ele>167.90039</ele>
        <time>2026-05-13T11:29:30+02:00</time>
      </trkpt>
      <trkpt lat="45.93634" lon="4.75188">
        <ele>167.90039</ele>
        <time>2026-05-13T11:29:31+02:00</time>
      </trkpt>
      <trkpt lat="45.93636" lon="4.75181">
        <ele>167.90039</ele>
        <time>2026-05-13T11:29:32+02:00</time>
      </trkpt>
      <trkpt lat="45.93639" lon="4.75174">
        <ele>167.90039</ele>
        <time>2026-05-13T11:29:33+02:00</time>
      </trkpt>
      <trkpt lat="45.93641" lon="4.75168">
        <ele>167.7998</ele>
        <time>2026-05-13T11:29:34+02:00</time>
      </trkpt>
      <trkpt lat="45.93643" lon="4.75162">
        <ele>167.7998</ele>
        <time>2026-05-13T11:29:35+02:00</time>
      </trkpt>
      <trkpt lat="45.93645" lon="4.75156">
        <ele>167.90039</ele>
        <time>2026-05-13T11:29:36+02:00</time>
      </trkpt>
      <trkpt lat="45.93648" lon="4.75151">
        <ele>167.90039</ele>
        <time>2026-05-13T11:29:37+02:00</time>
      </trkpt>
      <trkpt lat="45.9365" lon="4.75145">
        <ele>167.90039</ele>
        <time>2026-05-13T11:29:38+02:00</time>
      </trkpt>
      <trkpt lat="45.93652" lon="4.75139">
        <ele>167.90039</ele>
        <time>2026-05-13T11:29:39+02:00</time>
      </trkpt>
      <trkpt lat="45.93655" lon="4.75133">
        <ele>167.90039</ele>
        <time>2026-05-13T11:29:40+02:00</time>
      </trkpt>
      <trkpt lat="45.93658" lon="4.75128">
        <ele>167.90039</ele>
        <time>2026-05-13T11:29:41+02:00</time>
      </trkpt>
      <trkpt lat="45.93661" lon="4.75122">
        <ele>167.90039</ele>
        <time>2026-05-13T11:29:42+02:00</time>
      </trkpt>
      <trkpt lat="45.93663" lon="4.75116">
        <ele>167.90039</ele>
        <time>2026-05-13T11:29:43+02:00</time>
      </trkpt>
      <trkpt lat="45.93665" lon="4.7511">
        <ele>167.90039</ele>
        <time>2026-05-13T11:29:44+02:00</time>
      </trkpt>
      <trkpt lat="45.93668" lon="4.75104">
        <ele>167.90039</ele>
        <time>2026-05-13T11:29:45+02:00</time>
      </trkpt>
      <trkpt lat="45.9367" lon="4.75098">
        <ele>167.90039</ele>
        <time>2026-05-13T11:29:46+02:00</time>
      </trkpt>
      <trkpt lat="45.93673" lon="4.75092">
        <ele>167.90039</ele>
        <time>2026-05-13T11:29:47+02:00</time>
      </trkpt>
      <trkpt lat="45.93676" lon="4.75085">
        <ele>167.90039</ele>
        <time>2026-05-13T11:29:48+02:00</time>
      </trkpt>
      <trkpt lat="45.93679" lon="4.75079">
        <ele>167.90039</ele>
        <time>2026-05-13T11:29:49+02:00</time>
      </trkpt>
      <trkpt lat="45.93681" lon="4.75072">
        <ele>167.90039</ele>
        <time>2026-05-13T11:29:50+02:00</time>
      </trkpt>
      <trkpt lat="45.93684" lon="4.75066">
        <ele>167.90039</ele>
        <time>2026-05-13T11:29:51+02:00</time>
      </trkpt>
      <trkpt lat="45.93688" lon="4.7506">
        <ele>167.90039</ele>
        <time>2026-05-13T11:29:52+02:00</time>
      </trkpt>
      <trkpt lat="45.9369" lon="4.75053">
        <ele>167.90039</ele>
        <time>2026-05-13T11:29:53+02:00</time>
      </trkpt>
      <trkpt lat="45.93693" lon="4.75046">
        <ele>167.90039</ele>
        <time>2026-05-13T11:29:54+02:00</time>
      </trkpt>
      <trkpt lat="45.93696" lon="4.7504">
        <ele>167.90039</ele>
        <time>2026-05-13T11:29:55+02:00</time>
      </trkpt>
      <trkpt lat="45.93699" lon="4.75034">
        <ele>167.90039</ele>
        <time>2026-05-13T11:29:56+02:00</time>
      </trkpt>
      <trkpt lat="45.93702" lon="4.75028">
        <ele>167.90039</ele>
        <time>2026-05-13T11:29:57+02:00</time>
      </trkpt>
      <trkpt lat="45.93704" lon="4.75021">
        <ele>167.90039</ele>
        <time>2026-05-13T11:29:58+02:00</time>
      </trkpt>
      <trkpt lat="45.93707" lon="4.75015">
        <ele>167.90039</ele>
        <time>2026-05-13T11:29:59+02:00</time>
      </trkpt>
      <trkpt lat="45.9371" lon="4.75008">
        <ele>167.90039</ele>
        <time>2026-05-13T11:30:00+02:00</time>
      </trkpt>
      <trkpt lat="45.93713" lon="4.75002">
        <ele>167.90039</ele>
        <time>2026-05-13T11:30:01+02:00</time>
      </trkpt>
      <trkpt lat="45.93715" lon="4.74996">
        <ele>167.90039</ele>
        <time>2026-05-13T11:30:02+02:00</time>
      </trkpt>
      <trkpt lat="45.93718" lon="4.7499">
        <ele>167.90039</ele>
        <time>2026-05-13T11:30:03+02:00</time>
      </trkpt>
      <trkpt lat="45.93721" lon="4.74983">
        <ele>167.90039</ele>
        <time>2026-05-13T11:30:04+02:00</time>
      </trkpt>
      <trkpt lat="45.93724" lon="4.74977">
        <ele>167.90039</ele>
        <time>2026-05-13T11:30:05+02:00</time>
      </trkpt>
      <trkpt lat="45.93727" lon="4.74971">
        <ele>167.90039</ele>
        <time>2026-05-13T11:30:06+02:00</time>
      </trkpt>
      <trkpt lat="45.9373" lon="4.74964">
        <ele>167.90039</ele>
        <time>2026-05-13T11:30:07+02:00</time>
      </trkpt>
      <trkpt lat="45.93733" lon="4.74957">
        <ele>167.90039</ele>
        <time>2026-05-13T11:30:08+02:00</time>
      </trkpt>
      <trkpt lat="45.93736" lon="4.7495">
        <ele>167.90039</ele>
        <time>2026-05-13T11:30:09+02:00</time>
      </trkpt>
      <trkpt lat="45.93739" lon="4.74943">
        <ele>168</ele>
        <time>2026-05-13T11:30:10+02:00</time>
      </trkpt>
      <trkpt lat="45.93742" lon="4.74937">
        <ele>168</ele>
        <time>2026-05-13T11:30:11+02:00</time>
      </trkpt>
      <trkpt lat="45.93745" lon="4.7493">
        <ele>168.10059</ele>
        <time>2026-05-13T11:30:12+02:00</time>
      </trkpt>
      <trkpt lat="45.93748" lon="4.74924">
        <ele>168</ele>
        <time>2026-05-13T11:30:13+02:00</time>
      </trkpt>
      <trkpt lat="45.93751" lon="4.74917">
        <ele>168</ele>
        <time>2026-05-13T11:30:14+02:00</time>
      </trkpt>
      <trkpt lat="45.93755" lon="4.74911">
        <ele>168.2002</ele>
        <time>2026-05-13T11:30:15+02:00</time>
      </trkpt>
      <trkpt lat="45.93758" lon="4.74904">
        <ele>168</ele>
        <time>2026-05-13T11:30:16+02:00</time>
      </trkpt>
      <trkpt lat="45.93762" lon="4.74898">
        <ele>168.10059</ele>
        <time>2026-05-13T11:30:17+02:00</time>
      </trkpt>
      <trkpt lat="45.93765" lon="4.74891">
        <ele>168</ele>
        <time>2026-05-13T11:30:18+02:00</time>
      </trkpt>
      <trkpt lat="45.93768" lon="4.74885">
        <ele>168.10059</ele>
        <time>2026-05-13T11:30:19+02:00</time>
      </trkpt>
      <trkpt lat="45.93772" lon="4.74879">
        <ele>168.10059</ele>
        <time>2026-05-13T11:30:20+02:00</time>
      </trkpt>
      <trkpt lat="45.93776" lon="4.74873">
        <ele>167.90039</ele>
        <time>2026-05-13T11:30:21+02:00</time>
      </trkpt>
      <trkpt lat="45.9378" lon="4.74867">
        <ele>168.10059</ele>
        <time>2026-05-13T11:30:22+02:00</time>
      </trkpt>
      <trkpt lat="45.93783" lon="4.74861">
        <ele>168</ele>
        <time>2026-05-13T11:30:23+02:00</time>
      </trkpt>
      <trkpt lat="45.93786" lon="4.74855">
        <ele>168.10059</ele>
        <time>2026-05-13T11:30:24+02:00</time>
      </trkpt>
      <trkpt lat="45.9379" lon="4.74849">
        <ele>168.10059</ele>
        <time>2026-05-13T11:30:25+02:00</time>
      </trkpt>
      <trkpt lat="45.93793" lon="4.74843">
        <ele>168.10059</ele>
        <time>2026-05-13T11:30:26+02:00</time>
      </trkpt>
      <trkpt lat="45.93797" lon="4.74837">
        <ele>168.10059</ele>
        <time>2026-05-13T11:30:27+02:00</time>
      </trkpt>
      <trkpt lat="45.938" lon="4.74831">
        <ele>168</ele>
        <time>2026-05-13T11:30:28+02:00</time>
      </trkpt>
      <trkpt lat="45.93804" lon="4.74824">
        <ele>168.10059</ele>
        <time>2026-05-13T11:30:29+02:00</time>
      </trkpt>
      <trkpt lat="45.93807" lon="4.74818">
        <ele>168.10059</ele>
        <time>2026-05-13T11:30:30+02:00</time>
      </trkpt>
      <trkpt lat="45.9381" lon="4.74812">
        <ele>168.2002</ele>
        <time>2026-05-13T11:30:31+02:00</time>
      </trkpt>
      <trkpt lat="45.93813" lon="4.74805">
        <ele>168.2002</ele>
        <time>2026-05-13T11:30:32+02:00</time>
      </trkpt>
      <trkpt lat="45.93816" lon="4.74799">
        <ele>168.2998</ele>
        <time>2026-05-13T11:30:33+02:00</time>
      </trkpt>
      <trkpt lat="45.9382" lon="4.74792">
        <ele>168.2998</ele>
        <time>2026-05-13T11:30:34+02:00</time>
      </trkpt>
      <trkpt lat="45.93822" lon="4.74786">
        <ele>168.2998</ele>
        <time>2026-05-13T11:30:35+02:00</time>
      </trkpt>
      <trkpt lat="45.93825" lon="4.74781">
        <ele>168.2998</ele>
        <time>2026-05-13T11:30:36+02:00</time>
      </trkpt>
      <trkpt lat="45.93828" lon="4.74774">
        <ele>168.40039</ele>
        <time>2026-05-13T11:30:37+02:00</time>
      </trkpt>
      <trkpt lat="45.93831" lon="4.74769">
        <ele>168.40039</ele>
        <time>2026-05-13T11:30:38+02:00</time>
      </trkpt>
      <trkpt lat="45.93834" lon="4.74763">
        <ele>168.60059</ele>
        <time>2026-05-13T11:30:39+02:00</time>
      </trkpt>
      <trkpt lat="45.93837" lon="4.74756">
        <ele>168.60059</ele>
        <time>2026-05-13T11:30:40+02:00</time>
      </trkpt>
      <trkpt lat="45.93839" lon="4.7475">
        <ele>168.7998</ele>
        <time>2026-05-13T11:30:41+02:00</time>
      </trkpt>
      <trkpt lat="45.93842" lon="4.74744">
        <ele>168.90039</ele>
        <time>2026-05-13T11:30:42+02:00</time>
      </trkpt>
      <trkpt lat="45.93845" lon="4.74738">
        <ele>169.2002</ele>
        <time>2026-05-13T11:30:43+02:00</time>
      </trkpt>
      <trkpt lat="45.93848" lon="4.74731">
        <ele>169.2002</ele>
        <time>2026-05-13T11:30:44+02:00</time>
      </trkpt>
      <trkpt lat="45.93851" lon="4.74725">
        <ele>169.60059</ele>
        <time>2026-05-13T11:30:45+02:00</time>
      </trkpt>
      <trkpt lat="45.93854" lon="4.74719">
        <ele>169.7998</ele>
        <time>2026-05-13T11:30:46+02:00</time>
      </trkpt>
      <trkpt lat="45.93863" lon="4.74694">
        <ele>170.40039</ele>
        <time>2026-05-13T11:30:49+02:00</time>
      </trkpt>
      <trkpt lat="45.93865" lon="4.74687">
        <ele>170.40039</ele>
        <time>2026-05-13T11:30:50+02:00</time>
      </trkpt>
      <trkpt lat="45.93867" lon="4.74681">
        <ele>170.5</ele>
        <time>2026-05-13T11:30:51+02:00</time>
      </trkpt>
      <trkpt lat="45.9387" lon="4.74674">
        <ele>170.7998</ele>
        <time>2026-05-13T11:30:52+02:00</time>
      </trkpt>
      <trkpt lat="45.93872" lon="4.74667">
        <ele>170.90039</ele>
        <time>2026-05-13T11:30:53+02:00</time>
      </trkpt>
      <trkpt lat="45.93874" lon="4.7466">
        <ele>171.10059</ele>
        <time>2026-05-13T11:30:54+02:00</time>
      </trkpt>
      <trkpt lat="45.93877" lon="4.74652">
        <ele>171.10059</ele>
        <time>2026-05-13T11:30:55+02:00</time>
      </trkpt>
      <trkpt lat="45.93879" lon="4.74645">
        <ele>171.10059</ele>
        <time>2026-05-13T11:30:56+02:00</time>
      </trkpt>
      <trkpt lat="45.93882" lon="4.74638">
        <ele>171.10059</ele>
        <time>2026-05-13T11:30:57+02:00</time>
      </trkpt>
      <trkpt lat="45.93884" lon="4.7463">
        <ele>171</ele>
        <time>2026-05-13T11:30:58+02:00</time>
      </trkpt>
      <trkpt lat="45.93887" lon="4.74622">
        <ele>171</ele>
        <time>2026-05-13T11:30:59+02:00</time>
      </trkpt>
      <trkpt lat="45.93889" lon="4.74615">
        <ele>170.90039</ele>
        <time>2026-05-13T11:31:00+02:00</time>
      </trkpt>
      <trkpt lat="45.93891" lon="4.74607">
        <ele>170.7998</ele>
        <time>2026-05-13T11:31:01+02:00</time>
      </trkpt>
      <trkpt lat="45.93893" lon="4.74599">
        <ele>170.7998</ele>
        <time>2026-05-13T11:31:02+02:00</time>
      </trkpt>
      <trkpt lat="45.93895" lon="4.74591">
        <ele>170.7002</ele>
        <time>2026-05-13T11:31:03+02:00</time>
      </trkpt>
      <trkpt lat="45.93897" lon="4.74583">
        <ele>170.7002</ele>
        <time>2026-05-13T11:31:04+02:00</time>
      </trkpt>
      <trkpt lat="45.93899" lon="4.74576">
        <ele>170.7002</ele>
        <time>2026-05-13T11:31:05+02:00</time>
      </trkpt>
      <trkpt lat="45.93901" lon="4.74568">
        <ele>170.7002</ele>
        <time>2026-05-13T11:31:06+02:00</time>
      </trkpt>
      <trkpt lat="45.93903" lon="4.7456">
        <ele>170.7002</ele>
        <time>2026-05-13T11:31:07+02:00</time>
      </trkpt>
      <trkpt lat="45.93904" lon="4.74552">
        <ele>170.7002</ele>
        <time>2026-05-13T11:31:08+02:00</time>
      </trkpt>
      <trkpt lat="45.93905" lon="4.74544">
        <ele>170.7002</ele>
        <time>2026-05-13T11:31:09+02:00</time>
      </trkpt>
      <trkpt lat="45.93907" lon="4.74536">
        <ele>170.60059</ele>
        <time>2026-05-13T11:31:10+02:00</time>
      </trkpt>
      <trkpt lat="45.93907" lon="4.74527">
        <ele>170.40039</ele>
        <time>2026-05-13T11:31:11+02:00</time>
      </trkpt>
      <trkpt lat="45.93908" lon="4.74519">
        <ele>170.2998</ele>
        <time>2026-05-13T11:31:12+02:00</time>
      </trkpt>
      <trkpt lat="45.93908" lon="4.74511">
        <ele>170</ele>
        <time>2026-05-13T11:31:13+02:00</time>
      </trkpt>
      <trkpt lat="45.93908" lon="4.74503">
        <ele>169.90039</ele>
        <time>2026-05-13T11:31:14+02:00</time>
      </trkpt>
      <trkpt lat="45.93908" lon="4.74495">
        <ele>169.7002</ele>
        <time>2026-05-13T11:31:15+02:00</time>
      </trkpt>
      <trkpt lat="45.93908" lon="4.74487">
        <ele>169.5</ele>
        <time>2026-05-13T11:31:16+02:00</time>
      </trkpt>
      <trkpt lat="45.93908" lon="4.74479">
        <ele>169.40039</ele>
        <time>2026-05-13T11:31:17+02:00</time>
      </trkpt>
      <trkpt lat="45.93909" lon="4.74472">
        <ele>169.5</ele>
        <time>2026-05-13T11:31:18+02:00</time>
      </trkpt>
      <trkpt lat="45.9391" lon="4.74464">
        <ele>169.60059</ele>
        <time>2026-05-13T11:31:19+02:00</time>
      </trkpt>
      <trkpt lat="45.93909" lon="4.74456">
        <ele>169.60059</ele>
        <time>2026-05-13T11:31:20+02:00</time>
      </trkpt>
      <trkpt lat="45.93909" lon="4.74448">
        <ele>169.90039</ele>
        <time>2026-05-13T11:31:21+02:00</time>
      </trkpt>
      <trkpt lat="45.93908" lon="4.74439">
        <ele>170.2998</ele>
        <time>2026-05-13T11:31:22+02:00</time>
      </trkpt>
      <trkpt lat="45.93908" lon="4.74431">
        <ele>170.60059</ele>
        <time>2026-05-13T11:31:23+02:00</time>
      </trkpt>
      <trkpt lat="45.93908" lon="4.74423">
        <ele>171.2002</ele>
        <time>2026-05-13T11:31:24+02:00</time>
      </trkpt>
      <trkpt lat="45.93908" lon="4.74414">
        <ele>171.7002</ele>
        <time>2026-05-13T11:31:25+02:00</time>
      </trkpt>
      <trkpt lat="45.93907" lon="4.74406">
        <ele>172</ele>
        <time>2026-05-13T11:31:26+02:00</time>
      </trkpt>
      <trkpt lat="45.93907" lon="4.74398">
        <ele>172.10059</ele>
        <time>2026-05-13T11:31:27+02:00</time>
      </trkpt>
      <trkpt lat="45.93905" lon="4.7439">
        <ele>172</ele>
        <time>2026-05-13T11:31:28+02:00</time>
      </trkpt>
      <trkpt lat="45.93905" lon="4.74382">
        <ele>171.90039</ele>
        <time>2026-05-13T11:31:29+02:00</time>
      </trkpt>
      <trkpt lat="45.93905" lon="4.74374">
        <ele>171.7002</ele>
        <time>2026-05-13T11:31:30+02:00</time>
      </trkpt>
      <trkpt lat="45.93904" lon="4.74365">
        <ele>171.5</ele>
        <time>2026-05-13T11:31:31+02:00</time>
      </trkpt>
      <trkpt lat="45.93904" lon="4.74357">
        <ele>171.40039</ele>
        <time>2026-05-13T11:31:32+02:00</time>
      </trkpt>
      <trkpt lat="45.93904" lon="4.74349">
        <ele>171.2002</ele>
        <time>2026-05-13T11:31:33+02:00</time>
      </trkpt>
      <trkpt lat="45.93903" lon="4.7434">
        <ele>170.90039</ele>
        <time>2026-05-13T11:31:34+02:00</time>
      </trkpt>
      <trkpt lat="45.93903" lon="4.74332">
        <ele>170.7998</ele>
        <time>2026-05-13T11:31:35+02:00</time>
      </trkpt>
      <trkpt lat="45.93903" lon="4.74324">
        <ele>170.7998</ele>
        <time>2026-05-13T11:31:36+02:00</time>
      </trkpt>
      <trkpt lat="45.93903" lon="4.74316">
        <ele>170.7002</ele>
        <time>2026-05-13T11:31:37+02:00</time>
      </trkpt>
      <trkpt lat="45.93903" lon="4.74307">
        <ele>170.60059</ele>
        <time>2026-05-13T11:31:38+02:00</time>
      </trkpt>
      <trkpt lat="45.93904" lon="4.74299">
        <ele>170.60059</ele>
        <time>2026-05-13T11:31:39+02:00</time>
      </trkpt>
      <trkpt lat="45.93904" lon="4.74292">
        <ele>170.60059</ele>
        <time>2026-05-13T11:31:40+02:00</time>
      </trkpt>
      <trkpt lat="45.93904" lon="4.74284">
        <ele>170.5</ele>
        <time>2026-05-13T11:31:41+02:00</time>
      </trkpt>
      <trkpt lat="45.93904" lon="4.74277">
        <ele>170.40039</ele>
        <time>2026-05-13T11:31:42+02:00</time>
      </trkpt>
      <trkpt lat="45.93903" lon="4.74269">
        <ele>170.10059</ele>
        <time>2026-05-13T11:31:43+02:00</time>
      </trkpt>
      <trkpt lat="45.93904" lon="4.74261">
        <ele>170.2002</ele>
        <time>2026-05-13T11:31:44+02:00</time>
      </trkpt>
      <trkpt lat="45.93905" lon="4.74254">
        <ele>170.10059</ele>
        <time>2026-05-13T11:31:45+02:00</time>
      </trkpt>
      <trkpt lat="45.93905" lon="4.74246">
        <ele>170</ele>
        <time>2026-05-13T11:31:46+02:00</time>
      </trkpt>
      <trkpt lat="45.93906" lon="4.74238">
        <ele>169.90039</ele>
        <time>2026-05-13T11:31:47+02:00</time>
      </trkpt>
      <trkpt lat="45.93907" lon="4.74229">
        <ele>169.7998</ele>
        <time>2026-05-13T11:31:48+02:00</time>
      </trkpt>
      <trkpt lat="45.93907" lon="4.74221">
        <ele>169.7002</ele>
        <time>2026-05-13T11:31:49+02:00</time>
      </trkpt>
      <trkpt lat="45.93907" lon="4.74212">
        <ele>169.60059</ele>
        <time>2026-05-13T11:31:50+02:00</time>
      </trkpt>
      <trkpt lat="45.93908" lon="4.74204">
        <ele>169.40039</ele>
        <time>2026-05-13T11:31:51+02:00</time>
      </trkpt>
      <trkpt lat="45.93908" lon="4.74196">
        <ele>169.40039</ele>
        <time>2026-05-13T11:31:52+02:00</time>
      </trkpt>
      <trkpt lat="45.93909" lon="4.74187">
        <ele>169.2998</ele>
        <time>2026-05-13T11:31:53+02:00</time>
      </trkpt>
      <trkpt lat="45.9391" lon="4.74179">
        <ele>169.40039</ele>
        <time>2026-05-13T11:31:54+02:00</time>
      </trkpt>
      <trkpt lat="45.9391" lon="4.74171">
        <ele>169.40039</ele>
        <time>2026-05-13T11:31:55+02:00</time>
      </trkpt>
      <trkpt lat="45.93911" lon="4.74162">
        <ele>169.40039</ele>
        <time>2026-05-13T11:31:56+02:00</time>
      </trkpt>
      <trkpt lat="45.93911" lon="4.74154">
        <ele>169.5</ele>
        <time>2026-05-13T11:31:57+02:00</time>
      </trkpt>
      <trkpt lat="45.93912" lon="4.74146">
        <ele>169.5</ele>
        <time>2026-05-13T11:31:58+02:00</time>
      </trkpt>
      <trkpt lat="45.93913" lon="4.74138">
        <ele>169.60059</ele>
        <time>2026-05-13T11:31:59+02:00</time>
      </trkpt>
      <trkpt lat="45.93913" lon="4.74129">
        <ele>169.7998</ele>
        <time>2026-05-13T11:32:00+02:00</time>
      </trkpt>
      <trkpt lat="45.93914" lon="4.74121">
        <ele>170</ele>
        <time>2026-05-13T11:32:01+02:00</time>
      </trkpt>
      <trkpt lat="45.93915" lon="4.74113">
        <ele>170.10059</ele>
        <time>2026-05-13T11:32:02+02:00</time>
      </trkpt>
      <trkpt lat="45.93915" lon="4.74104">
        <ele>170.10059</ele>
        <time>2026-05-13T11:32:03+02:00</time>
      </trkpt>
      <trkpt lat="45.93916" lon="4.74096">
        <ele>170.2002</ele>
        <time>2026-05-13T11:32:04+02:00</time>
      </trkpt>
      <trkpt lat="45.93916" lon="4.74088">
        <ele>170</ele>
        <time>2026-05-13T11:32:05+02:00</time>
      </trkpt>
      <trkpt lat="45.93917" lon="4.74079">
        <ele>169.90039</ele>
        <time>2026-05-13T11:32:06+02:00</time>
      </trkpt>
      <trkpt lat="45.93918" lon="4.74071">
        <ele>170</ele>
        <time>2026-05-13T11:32:07+02:00</time>
      </trkpt>
      <trkpt lat="45.93918" lon="4.74063">
        <ele>170</ele>
        <time>2026-05-13T11:32:08+02:00</time>
      </trkpt>
      <trkpt lat="45.93919" lon="4.74055">
        <ele>170.10059</ele>
        <time>2026-05-13T11:32:09+02:00</time>
      </trkpt>
      <trkpt lat="45.9392" lon="4.74047">
        <ele>170.10059</ele>
        <time>2026-05-13T11:32:10+02:00</time>
      </trkpt>
      <trkpt lat="45.93921" lon="4.74038">
        <ele>170.2002</ele>
        <time>2026-05-13T11:32:11+02:00</time>
      </trkpt>
      <trkpt lat="45.93922" lon="4.74031">
        <ele>171.10059</ele>
        <time>2026-05-13T11:32:12+02:00</time>
      </trkpt>
      <trkpt lat="45.93923" lon="4.74023">
        <ele>171.2002</ele>
        <time>2026-05-13T11:32:13+02:00</time>
      </trkpt>
      <trkpt lat="45.93924" lon="4.74015">
        <ele>171.2998</ele>
        <time>2026-05-13T11:32:14+02:00</time>
      </trkpt>
      <trkpt lat="45.93924" lon="4.74007">
        <ele>171.5</ele>
        <time>2026-05-13T11:32:15+02:00</time>
      </trkpt>
      <trkpt lat="45.93925" lon="4.73999">
        <ele>171.60059</ele>
        <time>2026-05-13T11:32:16+02:00</time>
      </trkpt>
      <trkpt lat="45.93926" lon="4.73992">
        <ele>171.60059</ele>
        <time>2026-05-13T11:32:17+02:00</time>
      </trkpt>
      <trkpt lat="45.93927" lon="4.73984">
        <ele>171.7002</ele>
        <time>2026-05-13T11:32:18+02:00</time>
      </trkpt>
      <trkpt lat="45.93928" lon="4.73976">
        <ele>172.5</ele>
        <time>2026-05-13T11:32:19+02:00</time>
      </trkpt>
      <trkpt lat="45.93928" lon="4.73969">
        <ele>172.60059</ele>
        <time>2026-05-13T11:32:20+02:00</time>
      </trkpt>
      <trkpt lat="45.93929" lon="4.73961">
        <ele>172.7002</ele>
        <time>2026-05-13T11:32:21+02:00</time>
      </trkpt>
      <trkpt lat="45.9393" lon="4.73954">
        <ele>172.5</ele>
        <time>2026-05-13T11:32:22+02:00</time>
      </trkpt>
      <trkpt lat="45.93931" lon="4.73946">
        <ele>172.2998</ele>
        <time>2026-05-13T11:32:23+02:00</time>
      </trkpt>
      <trkpt lat="45.93932" lon="4.73939">
        <ele>171.7998</ele>
        <time>2026-05-13T11:32:24+02:00</time>
      </trkpt>
      <trkpt lat="45.93932" lon="4.73932">
        <ele>171.7998</ele>
        <time>2026-05-13T11:32:25+02:00</time>
      </trkpt>
      <trkpt lat="45.93933" lon="4.73926">
        <ele>171.2998</ele>
        <time>2026-05-13T11:32:26+02:00</time>
      </trkpt>
      <trkpt lat="45.93934" lon="4.73918">
        <ele>171.5</ele>
        <time>2026-05-13T11:32:27+02:00</time>
      </trkpt>
      <trkpt lat="45.93935" lon="4.73911">
        <ele>171.5</ele>
        <time>2026-05-13T11:32:28+02:00</time>
      </trkpt>
      <trkpt lat="45.93936" lon="4.73904">
        <ele>171.40039</ele>
        <time>2026-05-13T11:32:29+02:00</time>
      </trkpt>
      <trkpt lat="45.93936" lon="4.73897">
        <ele>171.2998</ele>
        <time>2026-05-13T11:32:30+02:00</time>
      </trkpt>
      <trkpt lat="45.93937" lon="4.73891">
        <ele>171.2998</ele>
        <time>2026-05-13T11:32:31+02:00</time>
      </trkpt>
      <trkpt lat="45.93938" lon="4.73885">
        <ele>171.2002</ele>
        <time>2026-05-13T11:32:32+02:00</time>
      </trkpt>
      <trkpt lat="45.93938" lon="4.73878">
        <ele>171.2002</ele>
        <time>2026-05-13T11:32:33+02:00</time>
      </trkpt>
      <trkpt lat="45.93939" lon="4.73871">
        <ele>171.2002</ele>
        <time>2026-05-13T11:32:34+02:00</time>
      </trkpt>
      <trkpt lat="45.9394" lon="4.73864">
        <ele>172.10059</ele>
        <time>2026-05-13T11:32:35+02:00</time>
      </trkpt>
      <trkpt lat="45.93941" lon="4.73857">
        <ele>172.10059</ele>
        <time>2026-05-13T11:32:36+02:00</time>
      </trkpt>
      <trkpt lat="45.93942" lon="4.73851">
        <ele>171.90039</ele>
        <time>2026-05-13T11:32:37+02:00</time>
      </trkpt>
      <trkpt lat="45.93942" lon="4.73844">
        <ele>171.60059</ele>
        <time>2026-05-13T11:32:38+02:00</time>
      </trkpt>
      <trkpt lat="45.93943" lon="4.73837">
        <ele>171.60059</ele>
        <time>2026-05-13T11:32:39+02:00</time>
      </trkpt>
      <trkpt lat="45.93944" lon="4.7383">
        <ele>171.10059</ele>
        <time>2026-05-13T11:32:40+02:00</time>
      </trkpt>
      <trkpt lat="45.93944" lon="4.73823">
        <ele>170.60059</ele>
        <time>2026-05-13T11:32:41+02:00</time>
      </trkpt>
      <trkpt lat="45.93945" lon="4.73817">
        <ele>170.40039</ele>
        <time>2026-05-13T11:32:42+02:00</time>
      </trkpt>
      <trkpt lat="45.93946" lon="4.7381">
        <ele>170.90039</ele>
        <time>2026-05-13T11:32:43+02:00</time>
      </trkpt>
      <trkpt lat="45.93947" lon="4.73802">
        <ele>170.7998</ele>
        <time>2026-05-13T11:32:44+02:00</time>
      </trkpt>
      <trkpt lat="45.93948" lon="4.73795">
        <ele>170.7998</ele>
        <time>2026-05-13T11:32:45+02:00</time>
      </trkpt>
      <trkpt lat="45.93948" lon="4.73789">
        <ele>170.7002</ele>
        <time>2026-05-13T11:32:46+02:00</time>
      </trkpt>
      <trkpt lat="45.93949" lon="4.73781">
        <ele>170.60059</ele>
        <time>2026-05-13T11:32:47+02:00</time>
      </trkpt>
      <trkpt lat="45.9395" lon="4.73774">
        <ele>170.60059</ele>
        <time>2026-05-13T11:32:48+02:00</time>
      </trkpt>
      <trkpt lat="45.93952" lon="4.73767">
        <ele>171.60059</ele>
        <time>2026-05-13T11:32:49+02:00</time>
      </trkpt>
      <trkpt lat="45.93952" lon="4.7376">
        <ele>171.60059</ele>
        <time>2026-05-13T11:32:50+02:00</time>
      </trkpt>
      <trkpt lat="45.93953" lon="4.73753">
        <ele>171.5</ele>
        <time>2026-05-13T11:32:51+02:00</time>
      </trkpt>
      <trkpt lat="45.93953" lon="4.73746">
        <ele>171.2998</ele>
        <time>2026-05-13T11:32:52+02:00</time>
      </trkpt>
      <trkpt lat="45.93954" lon="4.73739">
        <ele>170.90039</ele>
        <time>2026-05-13T11:32:53+02:00</time>
      </trkpt>
      <trkpt lat="45.93955" lon="4.73731">
        <ele>170.5</ele>
        <time>2026-05-13T11:32:54+02:00</time>
      </trkpt>
      <trkpt lat="45.93955" lon="4.73724">
        <ele>170.2002</ele>
        <time>2026-05-13T11:32:55+02:00</time>
      </trkpt>
      <trkpt lat="45.93956" lon="4.73717">
        <ele>170.2002</ele>
        <time>2026-05-13T11:32:56+02:00</time>
      </trkpt>
      <trkpt lat="45.93957" lon="4.7371">
        <ele>169.90039</ele>
        <time>2026-05-13T11:32:57+02:00</time>
      </trkpt>
      <trkpt lat="45.93958" lon="4.73702">
        <ele>170.2998</ele>
        <time>2026-05-13T11:32:58+02:00</time>
      </trkpt>
      <trkpt lat="45.9396" lon="4.73695">
        <ele>170</ele>
        <time>2026-05-13T11:32:59+02:00</time>
      </trkpt>
      <trkpt lat="45.93961" lon="4.73688">
        <ele>169.7998</ele>
        <time>2026-05-13T11:33:00+02:00</time>
      </trkpt>
      <trkpt lat="45.93963" lon="4.73681">
        <ele>169.7002</ele>
        <time>2026-05-13T11:33:01+02:00</time>
      </trkpt>
      <trkpt lat="45.93964" lon="4.73674">
        <ele>170.40039</ele>
        <time>2026-05-13T11:33:02+02:00</time>
      </trkpt>
      <trkpt lat="45.93965" lon="4.73666">
        <ele>170.10059</ele>
        <time>2026-05-13T11:33:03+02:00</time>
      </trkpt>
      <trkpt lat="45.93966" lon="4.73659">
        <ele>169.7998</ele>
        <time>2026-05-13T11:33:04+02:00</time>
      </trkpt>
      <trkpt lat="45.93968" lon="4.73651">
        <ele>169.40039</ele>
        <time>2026-05-13T11:33:05+02:00</time>
      </trkpt>
      <trkpt lat="45.93969" lon="4.73644">
        <ele>169</ele>
        <time>2026-05-13T11:33:06+02:00</time>
      </trkpt>
      <trkpt lat="45.93971" lon="4.73637">
        <ele>169.2002</ele>
        <time>2026-05-13T11:33:07+02:00</time>
      </trkpt>
      <trkpt lat="45.93973" lon="4.7363">
        <ele>168.90039</ele>
        <time>2026-05-13T11:33:08+02:00</time>
      </trkpt>
      <trkpt lat="45.93974" lon="4.73623">
        <ele>168.90039</ele>
        <time>2026-05-13T11:33:09+02:00</time>
      </trkpt>
      <trkpt lat="45.93976" lon="4.73615">
        <ele>169.40039</ele>
        <time>2026-05-13T11:33:10+02:00</time>
      </trkpt>
      <trkpt lat="45.93978" lon="4.73608">
        <ele>169.2002</ele>
        <time>2026-05-13T11:33:11+02:00</time>
      </trkpt>
      <trkpt lat="45.9398" lon="4.73601">
        <ele>169</ele>
        <time>2026-05-13T11:33:12+02:00</time>
      </trkpt>
      <trkpt lat="45.93982" lon="4.73594">
        <ele>169.2002</ele>
        <time>2026-05-13T11:33:13+02:00</time>
      </trkpt>
      <trkpt lat="45.93984" lon="4.73587">
        <ele>168.90039</ele>
        <time>2026-05-13T11:33:14+02:00</time>
      </trkpt>
      <trkpt lat="45.93986" lon="4.7358">
        <ele>168.90039</ele>
        <time>2026-05-13T11:33:15+02:00</time>
      </trkpt>
      <trkpt lat="45.93989" lon="4.73573">
        <ele>169</ele>
        <time>2026-05-13T11:33:16+02:00</time>
      </trkpt>
      <trkpt lat="45.93991" lon="4.73566">
        <ele>168.60059</ele>
        <time>2026-05-13T11:33:17+02:00</time>
      </trkpt>
      <trkpt lat="45.93993" lon="4.73559">
        <ele>168.7998</ele>
        <time>2026-05-13T11:33:18+02:00</time>
      </trkpt>
      <trkpt lat="45.93995" lon="4.73552">
        <ele>168.5</ele>
        <time>2026-05-13T11:33:19+02:00</time>
      </trkpt>
      <trkpt lat="45.93998" lon="4.73545">
        <ele>168.2002</ele>
        <time>2026-05-13T11:33:20+02:00</time>
      </trkpt>
      <trkpt lat="45.94001" lon="4.73539">
        <ele>168.5</ele>
        <time>2026-05-13T11:33:21+02:00</time>
      </trkpt>
      <trkpt lat="45.94003" lon="4.73532">
        <ele>168.2002</ele>
        <time>2026-05-13T11:33:22+02:00</time>
      </trkpt>
      <trkpt lat="45.94006" lon="4.73525">
        <ele>168.2002</ele>
        <time>2026-05-13T11:33:23+02:00</time>
      </trkpt>
      <trkpt lat="45.9401" lon="4.73519">
        <ele>168.10059</ele>
        <time>2026-05-13T11:33:24+02:00</time>
      </trkpt>
      <trkpt lat="45.94013" lon="4.73512">
        <ele>168.40039</ele>
        <time>2026-05-13T11:33:25+02:00</time>
      </trkpt>
      <trkpt lat="45.94016" lon="4.73506">
        <ele>168.2002</ele>
        <time>2026-05-13T11:33:26+02:00</time>
      </trkpt>
      <trkpt lat="45.94019" lon="4.735">
        <ele>168.10059</ele>
        <time>2026-05-13T11:33:27+02:00</time>
      </trkpt>
      <trkpt lat="45.94022" lon="4.73493">
        <ele>167.90039</ele>
        <time>2026-05-13T11:33:28+02:00</time>
      </trkpt>
      <trkpt lat="45.94025" lon="4.73487">
        <ele>168.10059</ele>
        <time>2026-05-13T11:33:29+02:00</time>
      </trkpt>
      <trkpt lat="45.94029" lon="4.73481">
        <ele>168.60059</ele>
        <time>2026-05-13T11:33:30+02:00</time>
      </trkpt>
      <trkpt lat="45.94032" lon="4.73475">
        <ele>168.5</ele>
        <time>2026-05-13T11:33:31+02:00</time>
      </trkpt>
      <trkpt lat="45.94035" lon="4.73469">
        <ele>168.90039</ele>
        <time>2026-05-13T11:33:32+02:00</time>
      </trkpt>
      <trkpt lat="45.94038" lon="4.73463">
        <ele>168.7002</ele>
        <time>2026-05-13T11:33:33+02:00</time>
      </trkpt>
      <trkpt lat="45.94042" lon="4.73457">
        <ele>168.90039</ele>
        <time>2026-05-13T11:33:34+02:00</time>
      </trkpt>
      <trkpt lat="45.94045" lon="4.73452">
        <ele>168.90039</ele>
        <time>2026-05-13T11:33:35+02:00</time>
      </trkpt>
      <trkpt lat="45.94048" lon="4.73445">
        <ele>168.90039</ele>
        <time>2026-05-13T11:33:36+02:00</time>
      </trkpt>
      <trkpt lat="45.94052" lon="4.73439">
        <ele>168.60059</ele>
        <time>2026-05-13T11:33:37+02:00</time>
      </trkpt>
      <trkpt lat="45.94055" lon="4.73433">
        <ele>168.7002</ele>
        <time>2026-05-13T11:33:38+02:00</time>
      </trkpt>
      <trkpt lat="45.94059" lon="4.73427">
        <ele>169.2002</ele>
        <time>2026-05-13T11:33:39+02:00</time>
      </trkpt>
      <trkpt lat="45.94062" lon="4.73421">
        <ele>168.90039</ele>
        <time>2026-05-13T11:33:40+02:00</time>
      </trkpt>
      <trkpt lat="45.94066" lon="4.73415">
        <ele>168.90039</ele>
        <time>2026-05-13T11:33:41+02:00</time>
      </trkpt>
      <trkpt lat="45.94069" lon="4.73409">
        <ele>168.90039</ele>
        <time>2026-05-13T11:33:42+02:00</time>
      </trkpt>
      <trkpt lat="45.94073" lon="4.73402">
        <ele>168.90039</ele>
        <time>2026-05-13T11:33:43+02:00</time>
      </trkpt>
      <trkpt lat="45.94076" lon="4.73397">
        <ele>168.60059</ele>
        <time>2026-05-13T11:33:44+02:00</time>
      </trkpt>
      <trkpt lat="45.9408" lon="4.73391">
        <ele>168.90039</ele>
        <time>2026-05-13T11:33:45+02:00</time>
      </trkpt>
      <trkpt lat="45.94084" lon="4.73385">
        <ele>168.90039</ele>
        <time>2026-05-13T11:33:46+02:00</time>
      </trkpt>
      <trkpt lat="45.94087" lon="4.7338">
        <ele>168.5</ele>
        <time>2026-05-13T11:33:47+02:00</time>
      </trkpt>
      <trkpt lat="45.94091" lon="4.73374">
        <ele>168.7002</ele>
        <time>2026-05-13T11:33:48+02:00</time>
      </trkpt>
      <trkpt lat="45.94095" lon="4.73368">
        <ele>168.40039</ele>
        <time>2026-05-13T11:33:49+02:00</time>
      </trkpt>
      <trkpt lat="45.94098" lon="4.73363">
        <ele>168</ele>
        <time>2026-05-13T11:33:50+02:00</time>
      </trkpt>
      <trkpt lat="45.94102" lon="4.73357">
        <ele>168.2002</ele>
        <time>2026-05-13T11:33:51+02:00</time>
      </trkpt>
      <trkpt lat="45.94106" lon="4.73351">
        <ele>167.90039</ele>
        <time>2026-05-13T11:33:52+02:00</time>
      </trkpt>
      <trkpt lat="45.94109" lon="4.73346">
        <ele>168.10059</ele>
        <time>2026-05-13T11:33:53+02:00</time>
      </trkpt>
      <trkpt lat="45.94113" lon="4.7334">
        <ele>168.40039</ele>
        <time>2026-05-13T11:33:54+02:00</time>
      </trkpt>
      <trkpt lat="45.94117" lon="4.73334">
        <ele>168.10059</ele>
        <time>2026-05-13T11:33:55+02:00</time>
      </trkpt>
      <trkpt lat="45.94121" lon="4.73329">
        <ele>168</ele>
        <time>2026-05-13T11:33:56+02:00</time>
      </trkpt>
      <trkpt lat="45.94124" lon="4.73323">
        <ele>168</ele>
        <time>2026-05-13T11:33:57+02:00</time>
      </trkpt>
      <trkpt lat="45.94128" lon="4.73318">
        <ele>168</ele>
        <time>2026-05-13T11:33:58+02:00</time>
      </trkpt>
      <trkpt lat="45.94132" lon="4.73312">
        <ele>168.10059</ele>
        <time>2026-05-13T11:33:59+02:00</time>
      </trkpt>
      <trkpt lat="45.94135" lon="4.73307">
        <ele>168.10059</ele>
        <time>2026-05-13T11:34:00+02:00</time>
      </trkpt>
      <trkpt lat="45.94139" lon="4.73302">
        <ele>168.2002</ele>
        <time>2026-05-13T11:34:01+02:00</time>
      </trkpt>
      <trkpt lat="45.94143" lon="4.73296">
        <ele>168.10059</ele>
        <time>2026-05-13T11:34:02+02:00</time>
      </trkpt>
      <trkpt lat="45.94147" lon="4.73291">
        <ele>168.10059</ele>
        <time>2026-05-13T11:34:03+02:00</time>
      </trkpt>
      <trkpt lat="45.94151" lon="4.73285">
        <ele>168</ele>
        <time>2026-05-13T11:34:04+02:00</time>
      </trkpt>
      <trkpt lat="45.94156" lon="4.73279">
        <ele>168.2002</ele>
        <time>2026-05-13T11:34:05+02:00</time>
      </trkpt>
      <trkpt lat="45.9416" lon="4.73274">
        <ele>168.40039</ele>
        <time>2026-05-13T11:34:06+02:00</time>
      </trkpt>
      <trkpt lat="45.94164" lon="4.7327">
        <ele>168.2002</ele>
        <time>2026-05-13T11:34:07+02:00</time>
      </trkpt>
      <trkpt lat="45.94169" lon="4.73265">
        <ele>168.40039</ele>
        <time>2026-05-13T11:34:08+02:00</time>
      </trkpt>
      <trkpt lat="45.94174" lon="4.73261">
        <ele>168.2998</ele>
        <time>2026-05-13T11:34:09+02:00</time>
      </trkpt>
      <trkpt lat="45.94178" lon="4.73257">
        <ele>168.60059</ele>
        <time>2026-05-13T11:34:10+02:00</time>
      </trkpt>
      <trkpt lat="45.94182" lon="4.73253">
        <ele>168.2998</ele>
        <time>2026-05-13T11:34:11+02:00</time>
      </trkpt>
      <trkpt lat="45.94187" lon="4.73248">
        <ele>168.60059</ele>
        <time>2026-05-13T11:34:12+02:00</time>
      </trkpt>
      <trkpt lat="45.94192" lon="4.73244">
        <ele>168.5</ele>
        <time>2026-05-13T11:34:13+02:00</time>
      </trkpt>
      <trkpt lat="45.94196" lon="4.7324">
        <ele>168.60059</ele>
        <time>2026-05-13T11:34:14+02:00</time>
      </trkpt>
      <trkpt lat="45.94201" lon="4.73236">
        <ele>168.2998</ele>
        <time>2026-05-13T11:34:15+02:00</time>
      </trkpt>
      <trkpt lat="45.94207" lon="4.73232">
        <ele>168.40039</ele>
        <time>2026-05-13T11:34:16+02:00</time>
      </trkpt>
      <trkpt lat="45.94212" lon="4.73228">
        <ele>168.5</ele>
        <time>2026-05-13T11:34:17+02:00</time>
      </trkpt>
      <trkpt lat="45.94217" lon="4.73223">
        <ele>168.2998</ele>
        <time>2026-05-13T11:34:18+02:00</time>
      </trkpt>
      <trkpt lat="45.94222" lon="4.73219">
        <ele>168.60059</ele>
        <time>2026-05-13T11:34:19+02:00</time>
      </trkpt>
      <trkpt lat="45.94227" lon="4.73215">
        <ele>168.60059</ele>
        <time>2026-05-13T11:34:20+02:00</time>
      </trkpt>
      <trkpt lat="45.94232" lon="4.73211">
        <ele>168.7998</ele>
        <time>2026-05-13T11:34:21+02:00</time>
      </trkpt>
      <trkpt lat="45.94237" lon="4.73207">
        <ele>168.5</ele>
        <time>2026-05-13T11:34:22+02:00</time>
      </trkpt>
      <trkpt lat="45.94242" lon="4.73203">
        <ele>168.7002</ele>
        <time>2026-05-13T11:34:23+02:00</time>
      </trkpt>
      <trkpt lat="45.94247" lon="4.73198">
        <ele>168.60059</ele>
        <time>2026-05-13T11:34:24+02:00</time>
      </trkpt>
      <trkpt lat="45.94252" lon="4.73194">
        <ele>168.7002</ele>
        <time>2026-05-13T11:34:25+02:00</time>
      </trkpt>
      <trkpt lat="45.94257" lon="4.7319">
        <ele>168.60059</ele>
        <time>2026-05-13T11:34:26+02:00</time>
      </trkpt>
      <trkpt lat="45.94262" lon="4.73187">
        <ele>168.7002</ele>
        <time>2026-05-13T11:34:27+02:00</time>
      </trkpt>
      <trkpt lat="45.94267" lon="4.73183">
        <ele>168.5</ele>
        <time>2026-05-13T11:34:28+02:00</time>
      </trkpt>
      <trkpt lat="45.94272" lon="4.73179">
        <ele>168.60059</ele>
        <time>2026-05-13T11:34:29+02:00</time>
      </trkpt>
      <trkpt lat="45.94277" lon="4.73175">
        <ele>168.40039</ele>
        <time>2026-05-13T11:34:30+02:00</time>
      </trkpt>
      <trkpt lat="45.94282" lon="4.73171">
        <ele>168.60059</ele>
        <time>2026-05-13T11:34:31+02:00</time>
      </trkpt>
      <trkpt lat="45.94286" lon="4.73167">
        <ele>168.40039</ele>
        <time>2026-05-13T11:34:32+02:00</time>
      </trkpt>
      <trkpt lat="45.94291" lon="4.73163">
        <ele>168.40039</ele>
        <time>2026-05-13T11:34:33+02:00</time>
      </trkpt>
      <trkpt lat="45.94296" lon="4.73159">
        <ele>168.7002</ele>
        <time>2026-05-13T11:34:34+02:00</time>
      </trkpt>
      <trkpt lat="45.94301" lon="4.73155">
        <ele>168.7002</ele>
        <time>2026-05-13T11:34:35+02:00</time>
      </trkpt>
      <trkpt lat="45.94306" lon="4.73152">
        <ele>169</ele>
        <time>2026-05-13T11:34:36+02:00</time>
      </trkpt>
      <trkpt lat="45.94311" lon="4.73148">
        <ele>168.7998</ele>
        <time>2026-05-13T11:34:37+02:00</time>
      </trkpt>
      <trkpt lat="45.94315" lon="4.73144">
        <ele>168.7998</ele>
        <time>2026-05-13T11:34:38+02:00</time>
      </trkpt>
      <trkpt lat="45.9432" lon="4.7314">
        <ele>168.60059</ele>
        <time>2026-05-13T11:34:39+02:00</time>
      </trkpt>
      <trkpt lat="45.94325" lon="4.73136">
        <ele>168.7998</ele>
        <time>2026-05-13T11:34:40+02:00</time>
      </trkpt>
      <trkpt lat="45.9433" lon="4.73132">
        <ele>168.60059</ele>
        <time>2026-05-13T11:34:41+02:00</time>
      </trkpt>
      <trkpt lat="45.94334" lon="4.73128">
        <ele>168.90039</ele>
        <time>2026-05-13T11:34:42+02:00</time>
      </trkpt>
      <trkpt lat="45.94339" lon="4.73124">
        <ele>168.5</ele>
        <time>2026-05-13T11:34:43+02:00</time>
      </trkpt>
      <trkpt lat="45.94344" lon="4.7312">
        <ele>168.7998</ele>
        <time>2026-05-13T11:34:44+02:00</time>
      </trkpt>
      <trkpt lat="45.94348" lon="4.73116">
        <ele>169.10059</ele>
        <time>2026-05-13T11:34:45+02:00</time>
      </trkpt>
      <trkpt lat="45.94353" lon="4.73112">
        <ele>169</ele>
        <time>2026-05-13T11:34:46+02:00</time>
      </trkpt>
      <trkpt lat="45.94358" lon="4.73108">
        <ele>169.2002</ele>
        <time>2026-05-13T11:34:47+02:00</time>
      </trkpt>
      <trkpt lat="45.94362" lon="4.73104">
        <ele>168.7998</ele>
        <time>2026-05-13T11:34:48+02:00</time>
      </trkpt>
      <trkpt lat="45.94367" lon="4.731">
        <ele>169</ele>
        <time>2026-05-13T11:34:49+02:00</time>
      </trkpt>
      <trkpt lat="45.94372" lon="4.73096">
        <ele>168.7998</ele>
        <time>2026-05-13T11:34:50+02:00</time>
      </trkpt>
      <trkpt lat="45.94377" lon="4.73092">
        <ele>169</ele>
        <time>2026-05-13T11:34:51+02:00</time>
      </trkpt>
      <trkpt lat="45.94382" lon="4.73088">
        <ele>168.90039</ele>
        <time>2026-05-13T11:34:52+02:00</time>
      </trkpt>
      <trkpt lat="45.94386" lon="4.73084">
        <ele>168.90039</ele>
        <time>2026-05-13T11:34:53+02:00</time>
      </trkpt>
      <trkpt lat="45.94392" lon="4.7308">
        <ele>168.7998</ele>
        <time>2026-05-13T11:34:54+02:00</time>
      </trkpt>
      <trkpt lat="45.94396" lon="4.73075">
        <ele>169</ele>
        <time>2026-05-13T11:34:55+02:00</time>
      </trkpt>
      <trkpt lat="45.94401" lon="4.73071">
        <ele>168.7002</ele>
        <time>2026-05-13T11:34:56+02:00</time>
      </trkpt>
      <trkpt lat="45.94405" lon="4.73066">
        <ele>168.7998</ele>
        <time>2026-05-13T11:34:57+02:00</time>
      </trkpt>
      <trkpt lat="45.9441" lon="4.73061">
        <ele>168.5</ele>
        <time>2026-05-13T11:34:58+02:00</time>
      </trkpt>
      <trkpt lat="45.94414" lon="4.73055">
        <ele>168.2998</ele>
        <time>2026-05-13T11:34:59+02:00</time>
      </trkpt>
      <trkpt lat="45.94418" lon="4.7305">
        <ele>168.2998</ele>
        <time>2026-05-13T11:35:00+02:00</time>
      </trkpt>
      <trkpt lat="45.94422" lon="4.73044">
        <ele>168.10059</ele>
        <time>2026-05-13T11:35:01+02:00</time>
      </trkpt>
      <trkpt lat="45.94426" lon="4.73039">
        <ele>168.10059</ele>
        <time>2026-05-13T11:35:02+02:00</time>
      </trkpt>
      <trkpt lat="45.94431" lon="4.73033">
        <ele>168</ele>
        <time>2026-05-13T11:35:03+02:00</time>
      </trkpt>
      <trkpt lat="45.94435" lon="4.73029">
        <ele>168.10059</ele>
        <time>2026-05-13T11:35:04+02:00</time>
      </trkpt>
      <trkpt lat="45.94439" lon="4.73024">
        <ele>168.10059</ele>
        <time>2026-05-13T11:35:05+02:00</time>
      </trkpt>
      <trkpt lat="45.94443" lon="4.7302">
        <ele>168.10059</ele>
        <time>2026-05-13T11:35:06+02:00</time>
      </trkpt>
      <trkpt lat="45.94447" lon="4.73017">
        <ele>168.2002</ele>
        <time>2026-05-13T11:35:07+02:00</time>
      </trkpt>
      <trkpt lat="45.94452" lon="4.73015">
        <ele>168.2002</ele>
        <time>2026-05-13T11:35:08+02:00</time>
      </trkpt>
      <trkpt lat="45.94456" lon="4.73014">
        <ele>168.2998</ele>
        <time>2026-05-13T11:35:09+02:00</time>
      </trkpt>
      <trkpt lat="45.94461" lon="4.73014">
        <ele>168.2998</ele>
        <time>2026-05-13T11:35:10+02:00</time>
      </trkpt>
      <trkpt lat="45.94466" lon="4.73015">
        <ele>168.40039</ele>
        <time>2026-05-13T11:35:11+02:00</time>
      </trkpt>
      <trkpt lat="45.94471" lon="4.73015">
        <ele>168.5</ele>
        <time>2026-05-13T11:35:12+02:00</time>
      </trkpt>
      <trkpt lat="45.94476" lon="4.73015">
        <ele>168.5</ele>
        <time>2026-05-13T11:35:13+02:00</time>
      </trkpt>
      <trkpt lat="45.94482" lon="4.73015">
        <ele>168.60059</ele>
        <time>2026-05-13T11:35:14+02:00</time>
      </trkpt>
      <trkpt lat="45.94487" lon="4.73015">
        <ele>168.7002</ele>
        <time>2026-05-13T11:35:15+02:00</time>
      </trkpt>
      <trkpt lat="45.94491" lon="4.73014">
        <ele>168.7998</ele>
        <time>2026-05-13T11:35:16+02:00</time>
      </trkpt>
      <trkpt lat="45.94496" lon="4.73014">
        <ele>168.90039</ele>
        <time>2026-05-13T11:35:17+02:00</time>
      </trkpt>
      <trkpt lat="45.94501" lon="4.73013">
        <ele>168.90039</ele>
        <time>2026-05-13T11:35:18+02:00</time>
      </trkpt>
      <trkpt lat="45.94506" lon="4.73013">
        <ele>168.90039</ele>
        <time>2026-05-13T11:35:19+02:00</time>
      </trkpt>
      <trkpt lat="45.94511" lon="4.73013">
        <ele>169</ele>
        <time>2026-05-13T11:35:20+02:00</time>
      </trkpt>
      <trkpt lat="45.94516" lon="4.73012">
        <ele>168.60059</ele>
        <time>2026-05-13T11:35:21+02:00</time>
      </trkpt>
      <trkpt lat="45.94521" lon="4.73012">
        <ele>168.60059</ele>
        <time>2026-05-13T11:35:22+02:00</time>
      </trkpt>
      <trkpt lat="45.94526" lon="4.73012">
        <ele>168.7002</ele>
        <time>2026-05-13T11:35:23+02:00</time>
      </trkpt>
      <trkpt lat="45.9453" lon="4.73011">
        <ele>168.7002</ele>
        <time>2026-05-13T11:35:24+02:00</time>
      </trkpt>
      <trkpt lat="45.94535" lon="4.73011">
        <ele>168.7002</ele>
        <time>2026-05-13T11:35:25+02:00</time>
      </trkpt>
      <trkpt lat="45.9454" lon="4.7301">
        <ele>168.7998</ele>
        <time>2026-05-13T11:35:26+02:00</time>
      </trkpt>
      <trkpt lat="45.94545" lon="4.7301">
        <ele>168.7998</ele>
        <time>2026-05-13T11:35:27+02:00</time>
      </trkpt>
      <trkpt lat="45.94549" lon="4.73011">
        <ele>168.90039</ele>
        <time>2026-05-13T11:35:28+02:00</time>
      </trkpt>
      <trkpt lat="45.94554" lon="4.73011">
        <ele>169</ele>
        <time>2026-05-13T11:35:29+02:00</time>
      </trkpt>
      <trkpt lat="45.94559" lon="4.73012">
        <ele>169</ele>
        <time>2026-05-13T11:35:30+02:00</time>
      </trkpt>
      <trkpt lat="45.94564" lon="4.73012">
        <ele>169.2002</ele>
        <time>2026-05-13T11:35:31+02:00</time>
      </trkpt>
      <trkpt lat="45.94569" lon="4.73013">
        <ele>169.90039</ele>
        <time>2026-05-13T11:35:32+02:00</time>
      </trkpt>
      <trkpt lat="45.94574" lon="4.73013">
        <ele>170</ele>
        <time>2026-05-13T11:35:33+02:00</time>
      </trkpt>
      <trkpt lat="45.94578" lon="4.73014">
        <ele>170.2002</ele>
        <time>2026-05-13T11:35:34+02:00</time>
      </trkpt>
      <trkpt lat="45.94583" lon="4.73015">
        <ele>170.2002</ele>
        <time>2026-05-13T11:35:35+02:00</time>
      </trkpt>
      <trkpt lat="45.94589" lon="4.73016">
        <ele>170.40039</ele>
        <time>2026-05-13T11:35:36+02:00</time>
      </trkpt>
      <trkpt lat="45.94594" lon="4.73017">
        <ele>170.60059</ele>
        <time>2026-05-13T11:35:37+02:00</time>
      </trkpt>
      <trkpt lat="45.94598" lon="4.73017">
        <ele>170.90039</ele>
        <time>2026-05-13T11:35:38+02:00</time>
      </trkpt>
      <trkpt lat="45.94603" lon="4.73018">
        <ele>171.10059</ele>
        <time>2026-05-13T11:35:39+02:00</time>
      </trkpt>
      <trkpt lat="45.94608" lon="4.73019">
        <ele>171.10059</ele>
        <time>2026-05-13T11:35:40+02:00</time>
      </trkpt>
      <trkpt lat="45.94612" lon="4.73019">
        <ele>171.10059</ele>
        <time>2026-05-13T11:35:41+02:00</time>
      </trkpt>
      <trkpt lat="45.94617" lon="4.7302">
        <ele>170.90039</ele>
        <time>2026-05-13T11:35:42+02:00</time>
      </trkpt>
      <trkpt lat="45.94623" lon="4.73021">
        <ele>170.7998</ele>
        <time>2026-05-13T11:35:43+02:00</time>
      </trkpt>
      <trkpt lat="45.94628" lon="4.73022">
        <ele>171.40039</ele>
        <time>2026-05-13T11:35:44+02:00</time>
      </trkpt>
      <trkpt lat="45.94633" lon="4.73023">
        <ele>171.5</ele>
        <time>2026-05-13T11:35:45+02:00</time>
      </trkpt>
      <trkpt lat="45.94639" lon="4.73025">
        <ele>171.7002</ele>
        <time>2026-05-13T11:35:46+02:00</time>
      </trkpt>
      <trkpt lat="45.94644" lon="4.73027">
        <ele>171.90039</ele>
        <time>2026-05-13T11:35:47+02:00</time>
      </trkpt>
      <trkpt lat="45.94649" lon="4.73028">
        <ele>171.90039</ele>
        <time>2026-05-13T11:35:48+02:00</time>
      </trkpt>
      <trkpt lat="45.94655" lon="4.73029">
        <ele>172</ele>
        <time>2026-05-13T11:35:49+02:00</time>
      </trkpt>
      <trkpt lat="45.9466" lon="4.7303">
        <ele>172</ele>
        <time>2026-05-13T11:35:50+02:00</time>
      </trkpt>
      <trkpt lat="45.94666" lon="4.73032">
        <ele>172.2002</ele>
        <time>2026-05-13T11:35:51+02:00</time>
      </trkpt>
      <trkpt lat="45.94671" lon="4.73033">
        <ele>172.2002</ele>
        <time>2026-05-13T11:35:52+02:00</time>
      </trkpt>
      <trkpt lat="45.94677" lon="4.73035">
        <ele>172.10059</ele>
        <time>2026-05-13T11:35:53+02:00</time>
      </trkpt>
      <trkpt lat="45.94682" lon="4.73037">
        <ele>172</ele>
        <time>2026-05-13T11:35:54+02:00</time>
      </trkpt>
      <trkpt lat="45.94687" lon="4.73039">
        <ele>172.2002</ele>
        <time>2026-05-13T11:35:55+02:00</time>
      </trkpt>
      <trkpt lat="45.94693" lon="4.73042">
        <ele>172.2002</ele>
        <time>2026-05-13T11:35:56+02:00</time>
      </trkpt>
      <trkpt lat="45.94698" lon="4.73044">
        <ele>172.10059</ele>
        <time>2026-05-13T11:35:57+02:00</time>
      </trkpt>
      <trkpt lat="45.94704" lon="4.73046">
        <ele>172.10059</ele>
        <time>2026-05-13T11:35:58+02:00</time>
      </trkpt>
      <trkpt lat="45.94709" lon="4.73049">
        <ele>172.2002</ele>
        <time>2026-05-13T11:35:59+02:00</time>
      </trkpt>
      <trkpt lat="45.94714" lon="4.73051">
        <ele>172.10059</ele>
        <time>2026-05-13T11:36:00+02:00</time>
      </trkpt>
      <trkpt lat="45.94719" lon="4.73053">
        <ele>172</ele>
        <time>2026-05-13T11:36:01+02:00</time>
      </trkpt>
      <trkpt lat="45.94724" lon="4.73056">
        <ele>171.90039</ele>
        <time>2026-05-13T11:36:02+02:00</time>
      </trkpt>
      <trkpt lat="45.94729" lon="4.73059">
        <ele>171.7998</ele>
        <time>2026-05-13T11:36:03+02:00</time>
      </trkpt>
      <trkpt lat="45.94735" lon="4.73061">
        <ele>171.7002</ele>
        <time>2026-05-13T11:36:04+02:00</time>
      </trkpt>
      <trkpt lat="45.9474" lon="4.73064">
        <ele>171.60059</ele>
        <time>2026-05-13T11:36:05+02:00</time>
      </trkpt>
      <trkpt lat="45.94744" lon="4.73066">
        <ele>171.7998</ele>
        <time>2026-05-13T11:36:06+02:00</time>
      </trkpt>
      <trkpt lat="45.94749" lon="4.73069">
        <ele>171.7998</ele>
        <time>2026-05-13T11:36:07+02:00</time>
      </trkpt>
      <trkpt lat="45.94754" lon="4.73072">
        <ele>171.7998</ele>
        <time>2026-05-13T11:36:08+02:00</time>
      </trkpt>
      <trkpt lat="45.94759" lon="4.73074">
        <ele>172</ele>
        <time>2026-05-13T11:36:09+02:00</time>
      </trkpt>
      <trkpt lat="45.94763" lon="4.73077">
        <ele>172</ele>
        <time>2026-05-13T11:36:10+02:00</time>
      </trkpt>
      <trkpt lat="45.94768" lon="4.7308">
        <ele>172</ele>
        <time>2026-05-13T11:36:11+02:00</time>
      </trkpt>
      <trkpt lat="45.94772" lon="4.73082">
        <ele>171.90039</ele>
        <time>2026-05-13T11:36:12+02:00</time>
      </trkpt>
      <trkpt lat="45.94778" lon="4.73085">
        <ele>171.7002</ele>
        <time>2026-05-13T11:36:13+02:00</time>
      </trkpt>
      <trkpt lat="45.94783" lon="4.73088">
        <ele>171.5</ele>
        <time>2026-05-13T11:36:14+02:00</time>
      </trkpt>
      <trkpt lat="45.94788" lon="4.73091">
        <ele>171.2002</ele>
        <time>2026-05-13T11:36:15+02:00</time>
      </trkpt>
      <trkpt lat="45.94793" lon="4.73094">
        <ele>171</ele>
        <time>2026-05-13T11:36:16+02:00</time>
      </trkpt>
      <trkpt lat="45.94798" lon="4.73096">
        <ele>171</ele>
        <time>2026-05-13T11:36:17+02:00</time>
      </trkpt>
      <trkpt lat="45.94804" lon="4.73099">
        <ele>170.90039</ele>
        <time>2026-05-13T11:36:18+02:00</time>
      </trkpt>
      <trkpt lat="45.94809" lon="4.73103">
        <ele>170.7002</ele>
        <time>2026-05-13T11:36:19+02:00</time>
      </trkpt>
      <trkpt lat="45.94814" lon="4.73105">
        <ele>170.5</ele>
        <time>2026-05-13T11:36:20+02:00</time>
      </trkpt>
      <trkpt lat="45.94819" lon="4.73108">
        <ele>170.40039</ele>
        <time>2026-05-13T11:36:21+02:00</time>
      </trkpt>
      <trkpt lat="45.94824" lon="4.73111">
        <ele>170.2002</ele>
        <time>2026-05-13T11:36:22+02:00</time>
      </trkpt>
      <trkpt lat="45.94829" lon="4.73114">
        <ele>170.10059</ele>
        <time>2026-05-13T11:36:23+02:00</time>
      </trkpt>
      <trkpt lat="45.94834" lon="4.73118">
        <ele>170.10059</ele>
        <time>2026-05-13T11:36:24+02:00</time>
      </trkpt>
      <trkpt lat="45.94839" lon="4.73121">
        <ele>169.90039</ele>
        <time>2026-05-13T11:36:25+02:00</time>
      </trkpt>
      <trkpt lat="45.94845" lon="4.73124">
        <ele>169.7998</ele>
        <time>2026-05-13T11:36:26+02:00</time>
      </trkpt>
      <trkpt lat="45.9485" lon="4.73127">
        <ele>169.7998</ele>
        <time>2026-05-13T11:36:27+02:00</time>
      </trkpt>
      <trkpt lat="45.94856" lon="4.73131">
        <ele>169.60059</ele>
        <time>2026-05-13T11:36:28+02:00</time>
      </trkpt>
      <trkpt lat="45.94861" lon="4.73134">
        <ele>169.7998</ele>
        <time>2026-05-13T11:36:29+02:00</time>
      </trkpt>
      <trkpt lat="45.94866" lon="4.73138">
        <ele>169.7002</ele>
        <time>2026-05-13T11:36:30+02:00</time>
      </trkpt>
      <trkpt lat="45.94872" lon="4.73142">
        <ele>169.7998</ele>
        <time>2026-05-13T11:36:31+02:00</time>
      </trkpt>
      <trkpt lat="45.94877" lon="4.73146">
        <ele>169.7002</ele>
        <time>2026-05-13T11:36:32+02:00</time>
      </trkpt>
      <trkpt lat="45.94882" lon="4.73149">
        <ele>169.7002</ele>
        <time>2026-05-13T11:36:33+02:00</time>
      </trkpt>
      <trkpt lat="45.94887" lon="4.73153">
        <ele>169.90039</ele>
        <time>2026-05-13T11:36:34+02:00</time>
      </trkpt>
      <trkpt lat="45.94892" lon="4.73157">
        <ele>169.7002</ele>
        <time>2026-05-13T11:36:35+02:00</time>
      </trkpt>
      <trkpt lat="45.94898" lon="4.73161">
        <ele>169.7998</ele>
        <time>2026-05-13T11:36:36+02:00</time>
      </trkpt>
      <trkpt lat="45.94903" lon="4.73165">
        <ele>169.7002</ele>
        <time>2026-05-13T11:36:37+02:00</time>
      </trkpt>
      <trkpt lat="45.94908" lon="4.73168">
        <ele>169.7998</ele>
        <time>2026-05-13T11:36:38+02:00</time>
      </trkpt>
      <trkpt lat="45.94913" lon="4.73172">
        <ele>169.7998</ele>
        <time>2026-05-13T11:36:39+02:00</time>
      </trkpt>
      <trkpt lat="45.94917" lon="4.73175">
        <ele>169.7998</ele>
        <time>2026-05-13T11:36:40+02:00</time>
      </trkpt>
      <trkpt lat="45.94922" lon="4.73179">
        <ele>170</ele>
        <time>2026-05-13T11:36:41+02:00</time>
      </trkpt>
      <trkpt lat="45.94927" lon="4.73182">
        <ele>170</ele>
        <time>2026-05-13T11:36:42+02:00</time>
      </trkpt>
      <trkpt lat="45.94931" lon="4.73185">
        <ele>170.10059</ele>
        <time>2026-05-13T11:36:43+02:00</time>
      </trkpt>
      <trkpt lat="45.94936" lon="4.73189">
        <ele>169.7998</ele>
        <time>2026-05-13T11:36:44+02:00</time>
      </trkpt>
      <trkpt lat="45.9494" lon="4.73193">
        <ele>169.7998</ele>
        <time>2026-05-13T11:36:45+02:00</time>
      </trkpt>
      <trkpt lat="45.94944" lon="4.73197">
        <ele>169.7998</ele>
        <time>2026-05-13T11:36:46+02:00</time>
      </trkpt>
      <trkpt lat="45.94948" lon="4.73201">
        <ele>169.7998</ele>
        <time>2026-05-13T11:36:47+02:00</time>
      </trkpt>
      <trkpt lat="45.94953" lon="4.73206">
        <ele>170</ele>
        <time>2026-05-13T11:36:48+02:00</time>
      </trkpt>
      <trkpt lat="45.94957" lon="4.7321">
        <ele>169.7002</ele>
        <time>2026-05-13T11:36:49+02:00</time>
      </trkpt>
      <trkpt lat="45.94961" lon="4.73215">
        <ele>169.90039</ele>
        <time>2026-05-13T11:36:50+02:00</time>
      </trkpt>
      <trkpt lat="45.94966" lon="4.73219">
        <ele>170.2998</ele>
        <time>2026-05-13T11:36:51+02:00</time>
      </trkpt>
      <trkpt lat="45.94971" lon="4.73222">
        <ele>170.2998</ele>
        <time>2026-05-13T11:36:52+02:00</time>
      </trkpt>
      <trkpt lat="45.94977" lon="4.73226">
        <ele>170</ele>
        <time>2026-05-13T11:36:53+02:00</time>
      </trkpt>
      <trkpt lat="45.94982" lon="4.7323">
        <ele>170.40039</ele>
        <time>2026-05-13T11:36:54+02:00</time>
      </trkpt>
      <trkpt lat="45.94987" lon="4.73235">
        <ele>170.10059</ele>
        <time>2026-05-13T11:36:55+02:00</time>
      </trkpt>
      <trkpt lat="45.94992" lon="4.7324">
        <ele>170.2998</ele>
        <time>2026-05-13T11:36:56+02:00</time>
      </trkpt>
      <trkpt lat="45.94997" lon="4.73245">
        <ele>170.2998</ele>
        <time>2026-05-13T11:36:57+02:00</time>
      </trkpt>
      <trkpt lat="45.95002" lon="4.7325">
        <ele>170</ele>
        <time>2026-05-13T11:36:58+02:00</time>
      </trkpt>
      <trkpt lat="45.95007" lon="4.73255">
        <ele>170.40039</ele>
        <time>2026-05-13T11:36:59+02:00</time>
      </trkpt>
      <trkpt lat="45.95012" lon="4.73259">
        <ele>170.10059</ele>
        <time>2026-05-13T11:37:00+02:00</time>
      </trkpt>
      <trkpt lat="45.95017" lon="4.73264">
        <ele>170.10059</ele>
        <time>2026-05-13T11:37:01+02:00</time>
      </trkpt>
      <trkpt lat="45.95022" lon="4.73269">
        <ele>169.7002</ele>
        <time>2026-05-13T11:37:02+02:00</time>
      </trkpt>
      <trkpt lat="45.95027" lon="4.73275">
        <ele>169.60059</ele>
        <time>2026-05-13T11:37:03+02:00</time>
      </trkpt>
      <trkpt lat="45.95032" lon="4.7328">
        <ele>169.5</ele>
        <time>2026-05-13T11:37:04+02:00</time>
      </trkpt>
      <trkpt lat="45.95036" lon="4.73285">
        <ele>169.5</ele>
        <time>2026-05-13T11:37:05+02:00</time>
      </trkpt>
      <trkpt lat="45.95041" lon="4.73291">
        <ele>169.5</ele>
        <time>2026-05-13T11:37:06+02:00</time>
      </trkpt>
      <trkpt lat="45.95046" lon="4.73296">
        <ele>169.2002</ele>
        <time>2026-05-13T11:37:07+02:00</time>
      </trkpt>
      <trkpt lat="45.95051" lon="4.73301">
        <ele>169.10059</ele>
        <time>2026-05-13T11:37:08+02:00</time>
      </trkpt>
      <trkpt lat="45.95056" lon="4.73307">
        <ele>168.7998</ele>
        <time>2026-05-13T11:37:09+02:00</time>
      </trkpt>
      <trkpt lat="45.95061" lon="4.73312">
        <ele>168.7998</ele>
        <time>2026-05-13T11:37:10+02:00</time>
      </trkpt>
      <trkpt lat="45.95066" lon="4.73318">
        <ele>168.5</ele>
        <time>2026-05-13T11:37:11+02:00</time>
      </trkpt>
      <trkpt lat="45.9507" lon="4.73323">
        <ele>168.2998</ele>
        <time>2026-05-13T11:37:12+02:00</time>
      </trkpt>
      <trkpt lat="45.95075" lon="4.73328">
        <ele>168.2002</ele>
        <time>2026-05-13T11:37:13+02:00</time>
      </trkpt>
      <trkpt lat="45.9508" lon="4.73334">
        <ele>168.10059</ele>
        <time>2026-05-13T11:37:14+02:00</time>
      </trkpt>
      <trkpt lat="45.95085" lon="4.73339">
        <ele>168.10059</ele>
        <time>2026-05-13T11:37:15+02:00</time>
      </trkpt>
      <trkpt lat="45.9509" lon="4.73345">
        <ele>168.10059</ele>
        <time>2026-05-13T11:37:16+02:00</time>
      </trkpt>
      <trkpt lat="45.95105" lon="4.73361">
        <ele>168.10059</ele>
        <time>2026-05-13T11:37:17+02:00</time>
      </trkpt>
      <trkpt lat="45.95109" lon="4.73366">
        <ele>168</ele>
        <time>2026-05-13T11:37:18+02:00</time>
      </trkpt>
      <trkpt lat="45.95114" lon="4.73371">
        <ele>168</ele>
        <time>2026-05-13T11:37:19+02:00</time>
      </trkpt>
      <trkpt lat="45.95118" lon="4.73376">
        <ele>168</ele>
        <time>2026-05-13T11:37:20+02:00</time>
      </trkpt>
      <trkpt lat="45.95123" lon="4.73382">
        <ele>168</ele>
        <time>2026-05-13T11:37:21+02:00</time>
      </trkpt>
      <trkpt lat="45.95127" lon="4.73387">
        <ele>168</ele>
        <time>2026-05-13T11:37:22+02:00</time>
      </trkpt>
      <trkpt lat="45.95131" lon="4.73392">
        <ele>168</ele>
        <time>2026-05-13T11:37:23+02:00</time>
      </trkpt>
      <trkpt lat="45.95135" lon="4.73398">
        <ele>168</ele>
        <time>2026-05-13T11:37:24+02:00</time>
      </trkpt>
      <trkpt lat="45.95139" lon="4.73403">
        <ele>168</ele>
        <time>2026-05-13T11:37:25+02:00</time>
      </trkpt>
      <trkpt lat="45.95142" lon="4.73409">
        <ele>168</ele>
        <time>2026-05-13T11:37:26+02:00</time>
      </trkpt>
      <trkpt lat="45.95147" lon="4.73414">
        <ele>168</ele>
        <time>2026-05-13T11:37:27+02:00</time>
      </trkpt>
      <trkpt lat="45.95151" lon="4.7342">
        <ele>168.10059</ele>
        <time>2026-05-13T11:37:28+02:00</time>
      </trkpt>
      <trkpt lat="45.95155" lon="4.73426">
        <ele>168.10059</ele>
        <time>2026-05-13T11:37:29+02:00</time>
      </trkpt>
      <trkpt lat="45.95159" lon="4.73432">
        <ele>168.2002</ele>
        <time>2026-05-13T11:37:30+02:00</time>
      </trkpt>
      <trkpt lat="45.95163" lon="4.73438">
        <ele>168.40039</ele>
        <time>2026-05-13T11:37:31+02:00</time>
      </trkpt>
      <trkpt lat="45.95167" lon="4.73444">
        <ele>168.5</ele>
        <time>2026-05-13T11:37:32+02:00</time>
      </trkpt>
      <trkpt lat="45.95171" lon="4.7345">
        <ele>168.40039</ele>
        <time>2026-05-13T11:37:33+02:00</time>
      </trkpt>
      <trkpt lat="45.95175" lon="4.73457">
        <ele>168.40039</ele>
        <time>2026-05-13T11:37:34+02:00</time>
      </trkpt>
      <trkpt lat="45.95179" lon="4.73463">
        <ele>168.5</ele>
        <time>2026-05-13T11:37:35+02:00</time>
      </trkpt>
      <trkpt lat="45.95183" lon="4.73469">
        <ele>168.7002</ele>
        <time>2026-05-13T11:37:36+02:00</time>
      </trkpt>
      <trkpt lat="45.95187" lon="4.73475">
        <ele>168.7002</ele>
        <time>2026-05-13T11:37:37+02:00</time>
      </trkpt>
      <trkpt lat="45.9519" lon="4.73481">
        <ele>168.90039</ele>
        <time>2026-05-13T11:37:38+02:00</time>
      </trkpt>
      <trkpt lat="45.95194" lon="4.73487">
        <ele>168.90039</ele>
        <time>2026-05-13T11:37:39+02:00</time>
      </trkpt>
      <trkpt lat="45.95197" lon="4.73493">
        <ele>168.90039</ele>
        <time>2026-05-13T11:37:40+02:00</time>
      </trkpt>
      <trkpt lat="45.95201" lon="4.73499">
        <ele>168.90039</ele>
        <time>2026-05-13T11:37:41+02:00</time>
      </trkpt>
      <trkpt lat="45.95205" lon="4.73505">
        <ele>168.90039</ele>
        <time>2026-05-13T11:37:42+02:00</time>
      </trkpt>
      <trkpt lat="45.95208" lon="4.7351">
        <ele>168.90039</ele>
        <time>2026-05-13T11:37:43+02:00</time>
      </trkpt>
      <trkpt lat="45.95212" lon="4.73516">
        <ele>168.7998</ele>
        <time>2026-05-13T11:37:44+02:00</time>
      </trkpt>
      <trkpt lat="45.95216" lon="4.73522">
        <ele>168.7998</ele>
        <time>2026-05-13T11:37:45+02:00</time>
      </trkpt>
      <trkpt lat="45.9522" lon="4.73528">
        <ele>168.60059</ele>
        <time>2026-05-13T11:37:46+02:00</time>
      </trkpt>
      <trkpt lat="45.95223" lon="4.73534">
        <ele>168.5</ele>
        <time>2026-05-13T11:37:47+02:00</time>
      </trkpt>
      <trkpt lat="45.95227" lon="4.73539">
        <ele>168.60059</ele>
        <time>2026-05-13T11:37:48+02:00</time>
      </trkpt>
      <trkpt lat="45.95231" lon="4.73545">
        <ele>168.5</ele>
        <time>2026-05-13T11:37:49+02:00</time>
      </trkpt>
      <trkpt lat="45.95234" lon="4.73551">
        <ele>168.5</ele>
        <time>2026-05-13T11:37:50+02:00</time>
      </trkpt>
      <trkpt lat="45.95238" lon="4.73556">
        <ele>168.2998</ele>
        <time>2026-05-13T11:37:51+02:00</time>
      </trkpt>
      <trkpt lat="45.95242" lon="4.73561">
        <ele>168.2002</ele>
        <time>2026-05-13T11:37:52+02:00</time>
      </trkpt>
      <trkpt lat="45.95247" lon="4.73566">
        <ele>168.2002</ele>
        <time>2026-05-13T11:37:53+02:00</time>
      </trkpt>
      <trkpt lat="45.95252" lon="4.73572">
        <ele>168.2998</ele>
        <time>2026-05-13T11:37:54+02:00</time>
      </trkpt>
      <trkpt lat="45.95256" lon="4.73577">
        <ele>168.40039</ele>
        <time>2026-05-13T11:37:55+02:00</time>
      </trkpt>
      <trkpt lat="45.9526" lon="4.73582">
        <ele>168.60059</ele>
        <time>2026-05-13T11:37:56+02:00</time>
      </trkpt>
      <trkpt lat="45.95265" lon="4.73588">
        <ele>168.7002</ele>
        <time>2026-05-13T11:37:57+02:00</time>
      </trkpt>
      <trkpt lat="45.9527" lon="4.73593">
        <ele>168.60059</ele>
        <time>2026-05-13T11:37:58+02:00</time>
      </trkpt>
      <trkpt lat="45.95275" lon="4.73598">
        <ele>168.7998</ele>
        <time>2026-05-13T11:37:59+02:00</time>
      </trkpt>
      <trkpt lat="45.9528" lon="4.73603">
        <ele>168.7002</ele>
        <time>2026-05-13T11:38:00+02:00</time>
      </trkpt>
      <trkpt lat="45.95285" lon="4.73609">
        <ele>168.60059</ele>
        <time>2026-05-13T11:38:01+02:00</time>
      </trkpt>
      <trkpt lat="45.95289" lon="4.73614">
        <ele>168.40039</ele>
        <time>2026-05-13T11:38:02+02:00</time>
      </trkpt>
      <trkpt lat="45.95294" lon="4.7362">
        <ele>168.2998</ele>
        <time>2026-05-13T11:38:03+02:00</time>
      </trkpt>
      <trkpt lat="45.95299" lon="4.73625">
        <ele>168.40039</ele>
        <time>2026-05-13T11:38:04+02:00</time>
      </trkpt>
      <trkpt lat="45.95303" lon="4.73631">
        <ele>168.90039</ele>
        <time>2026-05-13T11:38:05+02:00</time>
      </trkpt>
      <trkpt lat="45.95307" lon="4.73637">
        <ele>168.90039</ele>
        <time>2026-05-13T11:38:06+02:00</time>
      </trkpt>
      <trkpt lat="45.95311" lon="4.73643">
        <ele>169.2998</ele>
        <time>2026-05-13T11:38:07+02:00</time>
      </trkpt>
      <trkpt lat="45.95315" lon="4.73649">
        <ele>169.2002</ele>
        <time>2026-05-13T11:38:08+02:00</time>
      </trkpt>
      <trkpt lat="45.95319" lon="4.73655">
        <ele>168.90039</ele>
        <time>2026-05-13T11:38:09+02:00</time>
      </trkpt>
      <trkpt lat="45.95323" lon="4.73661">
        <ele>169.10059</ele>
        <time>2026-05-13T11:38:10+02:00</time>
      </trkpt>
      <trkpt lat="45.95327" lon="4.73666">
        <ele>169</ele>
        <time>2026-05-13T11:38:11+02:00</time>
      </trkpt>
      <trkpt lat="45.95331" lon="4.73672">
        <ele>168.7998</ele>
        <time>2026-05-13T11:38:12+02:00</time>
      </trkpt>
      <trkpt lat="45.95335" lon="4.73678">
        <ele>169</ele>
        <time>2026-05-13T11:38:13+02:00</time>
      </trkpt>
      <trkpt lat="45.95339" lon="4.73683">
        <ele>169</ele>
        <time>2026-05-13T11:38:14+02:00</time>
      </trkpt>
      <trkpt lat="45.95343" lon="4.73689">
        <ele>168.7998</ele>
        <time>2026-05-13T11:38:15+02:00</time>
      </trkpt>
      <trkpt lat="45.95347" lon="4.73695">
        <ele>168.90039</ele>
        <time>2026-05-13T11:38:16+02:00</time>
      </trkpt>
      <trkpt lat="45.95351" lon="4.73701">
        <ele>168.7998</ele>
        <time>2026-05-13T11:38:17+02:00</time>
      </trkpt>
      <trkpt lat="45.95355" lon="4.73707">
        <ele>168.60059</ele>
        <time>2026-05-13T11:38:18+02:00</time>
      </trkpt>
      <trkpt lat="45.95359" lon="4.73713">
        <ele>168.7002</ele>
        <time>2026-05-13T11:38:19+02:00</time>
      </trkpt>
      <trkpt lat="45.95364" lon="4.73719">
        <ele>168.7002</ele>
        <time>2026-05-13T11:38:20+02:00</time>
      </trkpt>
      <trkpt lat="45.95368" lon="4.73725">
        <ele>168.5</ele>
        <time>2026-05-13T11:38:21+02:00</time>
      </trkpt>
      <trkpt lat="45.95372" lon="4.73732">
        <ele>168.40039</ele>
        <time>2026-05-13T11:38:22+02:00</time>
      </trkpt>
      <trkpt lat="45.95376" lon="4.73738">
        <ele>168.40039</ele>
        <time>2026-05-13T11:38:23+02:00</time>
      </trkpt>
      <trkpt lat="45.95381" lon="4.73745">
        <ele>168.2998</ele>
        <time>2026-05-13T11:38:24+02:00</time>
      </trkpt>
      <trkpt lat="45.95385" lon="4.73751">
        <ele>168.2002</ele>
        <time>2026-05-13T11:38:25+02:00</time>
      </trkpt>
      <trkpt lat="45.95389" lon="4.73758">
        <ele>168.2002</ele>
        <time>2026-05-13T11:38:26+02:00</time>
      </trkpt>
      <trkpt lat="45.95393" lon="4.73764">
        <ele>168.10059</ele>
        <time>2026-05-13T11:38:27+02:00</time>
      </trkpt>
      <trkpt lat="45.95397" lon="4.73771">
        <ele>168</ele>
        <time>2026-05-13T11:38:28+02:00</time>
      </trkpt>
      <trkpt lat="45.95402" lon="4.73777">
        <ele>168</ele>
        <time>2026-05-13T11:38:29+02:00</time>
      </trkpt>
      <trkpt lat="45.95406" lon="4.73783">
        <ele>168</ele>
        <time>2026-05-13T11:38:30+02:00</time>
      </trkpt>
      <trkpt lat="45.9541" lon="4.73789">
        <ele>168</ele>
        <time>2026-05-13T11:38:31+02:00</time>
      </trkpt>
      <trkpt lat="45.95414" lon="4.73796">
        <ele>168</ele>
        <time>2026-05-13T11:38:32+02:00</time>
      </trkpt>
      <trkpt lat="45.95419" lon="4.73802">
        <ele>168</ele>
        <time>2026-05-13T11:38:33+02:00</time>
      </trkpt>
      <trkpt lat="45.95423" lon="4.73808">
        <ele>168</ele>
        <time>2026-05-13T11:38:34+02:00</time>
      </trkpt>
      <trkpt lat="45.95427" lon="4.73813">
        <ele>168.10059</ele>
        <time>2026-05-13T11:38:35+02:00</time>
      </trkpt>
      <trkpt lat="45.95431" lon="4.73819">
        <ele>168.10059</ele>
        <time>2026-05-13T11:38:36+02:00</time>
      </trkpt>
      <trkpt lat="45.95435" lon="4.73825">
        <ele>168.2002</ele>
        <time>2026-05-13T11:38:37+02:00</time>
      </trkpt>
      <trkpt lat="45.9544" lon="4.73832">
        <ele>168.2002</ele>
        <time>2026-05-13T11:38:38+02:00</time>
      </trkpt>
      <trkpt lat="45.95443" lon="4.73838">
        <ele>168.2998</ele>
        <time>2026-05-13T11:38:39+02:00</time>
      </trkpt>
      <trkpt lat="45.95448" lon="4.73844">
        <ele>168.2002</ele>
        <time>2026-05-13T11:38:40+02:00</time>
      </trkpt>
      <trkpt lat="45.95452" lon="4.7385">
        <ele>168.2002</ele>
        <time>2026-05-13T11:38:41+02:00</time>
      </trkpt>
      <trkpt lat="45.95456" lon="4.73857">
        <ele>168.2998</ele>
        <time>2026-05-13T11:38:42+02:00</time>
      </trkpt>
      <trkpt lat="45.9546" lon="4.73863">
        <ele>168.40039</ele>
        <time>2026-05-13T11:38:43+02:00</time>
      </trkpt>
      <trkpt lat="45.95464" lon="4.73869">
        <ele>168.40039</ele>
        <time>2026-05-13T11:38:44+02:00</time>
      </trkpt>
      <trkpt lat="45.95468" lon="4.73875">
        <ele>168.40039</ele>
        <time>2026-05-13T11:38:45+02:00</time>
      </trkpt>
      <trkpt lat="45.95472" lon="4.73881">
        <ele>168.5</ele>
        <time>2026-05-13T11:38:46+02:00</time>
      </trkpt>
      <trkpt lat="45.95477" lon="4.73887">
        <ele>168.40039</ele>
        <time>2026-05-13T11:38:47+02:00</time>
      </trkpt>
      <trkpt lat="45.95481" lon="4.73893">
        <ele>168.5</ele>
        <time>2026-05-13T11:38:48+02:00</time>
      </trkpt>
      <trkpt lat="45.95485" lon="4.73899">
        <ele>168.60059</ele>
        <time>2026-05-13T11:38:49+02:00</time>
      </trkpt>
      <trkpt lat="45.9549" lon="4.73906">
        <ele>168.40039</ele>
        <time>2026-05-13T11:38:50+02:00</time>
      </trkpt>
      <trkpt lat="45.95495" lon="4.73911">
        <ele>168.2998</ele>
        <time>2026-05-13T11:38:51+02:00</time>
      </trkpt>
      <trkpt lat="45.95499" lon="4.73917">
        <ele>168.2998</ele>
        <time>2026-05-13T11:38:52+02:00</time>
      </trkpt>
      <trkpt lat="45.95503" lon="4.73923">
        <ele>168.5</ele>
        <time>2026-05-13T11:38:53+02:00</time>
      </trkpt>
      <trkpt lat="45.95508" lon="4.73929">
        <ele>168.5</ele>
        <time>2026-05-13T11:38:54+02:00</time>
      </trkpt>
      <trkpt lat="45.95513" lon="4.73935">
        <ele>168.5</ele>
        <time>2026-05-13T11:38:55+02:00</time>
      </trkpt>
      <trkpt lat="45.95517" lon="4.73941">
        <ele>168.5</ele>
        <time>2026-05-13T11:38:56+02:00</time>
      </trkpt>
      <trkpt lat="45.95521" lon="4.73947">
        <ele>168.40039</ele>
        <time>2026-05-13T11:38:57+02:00</time>
      </trkpt>
      <trkpt lat="45.95525" lon="4.73954">
        <ele>168.5</ele>
        <time>2026-05-13T11:38:58+02:00</time>
      </trkpt>
      <trkpt lat="45.95529" lon="4.7396">
        <ele>168.7002</ele>
        <time>2026-05-13T11:38:59+02:00</time>
      </trkpt>
      <trkpt lat="45.95533" lon="4.73967">
        <ele>168.7002</ele>
        <time>2026-05-13T11:39:00+02:00</time>
      </trkpt>
      <trkpt lat="45.95537" lon="4.73974">
        <ele>168.7002</ele>
        <time>2026-05-13T11:39:01+02:00</time>
      </trkpt>
      <trkpt lat="45.95541" lon="4.7398">
        <ele>168.7002</ele>
        <time>2026-05-13T11:39:02+02:00</time>
      </trkpt>
      <trkpt lat="45.95545" lon="4.73987">
        <ele>168.60059</ele>
        <time>2026-05-13T11:39:03+02:00</time>
      </trkpt>
      <trkpt lat="45.95549" lon="4.73993">
        <ele>168.7998</ele>
        <time>2026-05-13T11:39:04+02:00</time>
      </trkpt>
      <trkpt lat="45.95553" lon="4.73999">
        <ele>168.60059</ele>
        <time>2026-05-13T11:39:05+02:00</time>
      </trkpt>
      <trkpt lat="45.95557" lon="4.74006">
        <ele>168.7002</ele>
        <time>2026-05-13T11:39:06+02:00</time>
      </trkpt>
      <trkpt lat="45.95561" lon="4.74012">
        <ele>168.90039</ele>
        <time>2026-05-13T11:39:07+02:00</time>
      </trkpt>
      <trkpt lat="45.95564" lon="4.74018">
        <ele>169</ele>
        <time>2026-05-13T11:39:08+02:00</time>
      </trkpt>
      <trkpt lat="45.95569" lon="4.74025">
        <ele>168.7998</ele>
        <time>2026-05-13T11:39:09+02:00</time>
      </trkpt>
      <trkpt lat="45.95572" lon="4.74031">
        <ele>169</ele>
        <time>2026-05-13T11:39:10+02:00</time>
      </trkpt>
      <trkpt lat="45.95577" lon="4.74037">
        <ele>169</ele>
        <time>2026-05-13T11:39:11+02:00</time>
      </trkpt>
      <trkpt lat="45.9558" lon="4.74043">
        <ele>169.2998</ele>
        <time>2026-05-13T11:39:12+02:00</time>
      </trkpt>
      <trkpt lat="45.95584" lon="4.7405">
        <ele>169</ele>
        <time>2026-05-13T11:39:13+02:00</time>
      </trkpt>
      <trkpt lat="45.95588" lon="4.74056">
        <ele>169.10059</ele>
        <time>2026-05-13T11:39:14+02:00</time>
      </trkpt>
      <trkpt lat="45.95592" lon="4.74062">
        <ele>169.5</ele>
        <time>2026-05-13T11:39:15+02:00</time>
      </trkpt>
      <trkpt lat="45.95596" lon="4.74068">
        <ele>169.10059</ele>
        <time>2026-05-13T11:39:16+02:00</time>
      </trkpt>
      <trkpt lat="45.956" lon="4.74074">
        <ele>168.90039</ele>
        <time>2026-05-13T11:39:17+02:00</time>
      </trkpt>
      <trkpt lat="45.95604" lon="4.74081">
        <ele>169</ele>
        <time>2026-05-13T11:39:18+02:00</time>
      </trkpt>
      <trkpt lat="45.95608" lon="4.74088">
        <ele>168.5</ele>
        <time>2026-05-13T11:39:19+02:00</time>
      </trkpt>
      <trkpt lat="45.95612" lon="4.74094">
        <ele>168.40039</ele>
        <time>2026-05-13T11:39:20+02:00</time>
      </trkpt>
      <trkpt lat="45.95616" lon="4.741">
        <ele>168.2002</ele>
        <time>2026-05-13T11:39:21+02:00</time>
      </trkpt>
      <trkpt lat="45.9562" lon="4.74107">
        <ele>168.10059</ele>
        <time>2026-05-13T11:39:22+02:00</time>
      </trkpt>
      <trkpt lat="45.95624" lon="4.74114">
        <ele>168.40039</ele>
        <time>2026-05-13T11:39:23+02:00</time>
      </trkpt>
      <trkpt lat="45.95628" lon="4.74121">
        <ele>168.7002</ele>
        <time>2026-05-13T11:39:24+02:00</time>
      </trkpt>
      <trkpt lat="45.95632" lon="4.74127">
        <ele>168.5</ele>
        <time>2026-05-13T11:39:25+02:00</time>
      </trkpt>
      <trkpt lat="45.95636" lon="4.74134">
        <ele>168.40039</ele>
        <time>2026-05-13T11:39:26+02:00</time>
      </trkpt>
      <trkpt lat="45.9564" lon="4.74141">
        <ele>168.40039</ele>
        <time>2026-05-13T11:39:27+02:00</time>
      </trkpt>
      <trkpt lat="45.95645" lon="4.74148">
        <ele>168.5</ele>
        <time>2026-05-13T11:39:28+02:00</time>
      </trkpt>
      <trkpt lat="45.95648" lon="4.74154">
        <ele>168.40039</ele>
        <time>2026-05-13T11:39:29+02:00</time>
      </trkpt>
      <trkpt lat="45.95653" lon="4.74161">
        <ele>168.40039</ele>
        <time>2026-05-13T11:39:30+02:00</time>
      </trkpt>
      <trkpt lat="45.95657" lon="4.74168">
        <ele>168.60059</ele>
        <time>2026-05-13T11:39:31+02:00</time>
      </trkpt>
      <trkpt lat="45.95661" lon="4.74174">
        <ele>168.7002</ele>
        <time>2026-05-13T11:39:32+02:00</time>
      </trkpt>
      <trkpt lat="45.95664" lon="4.74181">
        <ele>168.90039</ele>
        <time>2026-05-13T11:39:33+02:00</time>
      </trkpt>
      <trkpt lat="45.95669" lon="4.74188">
        <ele>168.7998</ele>
        <time>2026-05-13T11:39:34+02:00</time>
      </trkpt>
      <trkpt lat="45.95672" lon="4.74194">
        <ele>168.7998</ele>
        <time>2026-05-13T11:39:35+02:00</time>
      </trkpt>
      <trkpt lat="45.95677" lon="4.74201">
        <ele>168.7998</ele>
        <time>2026-05-13T11:39:36+02:00</time>
      </trkpt>
      <trkpt lat="45.9568" lon="4.74208">
        <ele>168.7998</ele>
        <time>2026-05-13T11:39:37+02:00</time>
      </trkpt>
      <trkpt lat="45.95684" lon="4.74214">
        <ele>168.60059</ele>
        <time>2026-05-13T11:39:38+02:00</time>
      </trkpt>
      <trkpt lat="45.95688" lon="4.74221">
        <ele>168.5</ele>
        <time>2026-05-13T11:39:39+02:00</time>
      </trkpt>
      <trkpt lat="45.95692" lon="4.74227">
        <ele>168.60059</ele>
        <time>2026-05-13T11:39:40+02:00</time>
      </trkpt>
      <trkpt lat="45.95696" lon="4.74234">
        <ele>168.7998</ele>
        <time>2026-05-13T11:39:41+02:00</time>
      </trkpt>
      <trkpt lat="45.957" lon="4.74241">
        <ele>169</ele>
        <time>2026-05-13T11:39:42+02:00</time>
      </trkpt>
      <trkpt lat="45.95704" lon="4.74247">
        <ele>169</ele>
        <time>2026-05-13T11:39:43+02:00</time>
      </trkpt>
      <trkpt lat="45.95707" lon="4.74254">
        <ele>169</ele>
        <time>2026-05-13T11:39:44+02:00</time>
      </trkpt>
      <trkpt lat="45.95711" lon="4.7426">
        <ele>169.2002</ele>
        <time>2026-05-13T11:39:45+02:00</time>
      </trkpt>
      <trkpt lat="45.95715" lon="4.74267">
        <ele>169</ele>
        <time>2026-05-13T11:39:46+02:00</time>
      </trkpt>
      <trkpt lat="45.95719" lon="4.74274">
        <ele>168.7998</ele>
        <time>2026-05-13T11:39:47+02:00</time>
      </trkpt>
      <trkpt lat="45.95722" lon="4.7428">
        <ele>169</ele>
        <time>2026-05-13T11:39:48+02:00</time>
      </trkpt>
      <trkpt lat="45.95726" lon="4.74287">
        <ele>169</ele>
        <time>2026-05-13T11:39:49+02:00</time>
      </trkpt>
      <trkpt lat="45.9573" lon="4.74294">
        <ele>169</ele>
        <time>2026-05-13T11:39:50+02:00</time>
      </trkpt>
      <trkpt lat="45.95734" lon="4.743">
        <ele>169</ele>
        <time>2026-05-13T11:39:51+02:00</time>
      </trkpt>
      <trkpt lat="45.95738" lon="4.74307">
        <ele>168.90039</ele>
        <time>2026-05-13T11:39:52+02:00</time>
      </trkpt>
      <trkpt lat="45.95742" lon="4.74313">
        <ele>168.7002</ele>
        <time>2026-05-13T11:39:53+02:00</time>
      </trkpt>
      <trkpt lat="45.95746" lon="4.7432">
        <ele>169</ele>
        <time>2026-05-13T11:39:54+02:00</time>
      </trkpt>
      <trkpt lat="45.95749" lon="4.74327">
        <ele>168.90039</ele>
        <time>2026-05-13T11:39:55+02:00</time>
      </trkpt>
      <trkpt lat="45.95753" lon="4.74334">
        <ele>168.90039</ele>
        <time>2026-05-13T11:39:56+02:00</time>
      </trkpt>
      <trkpt lat="45.95757" lon="4.74341">
        <ele>169</ele>
        <time>2026-05-13T11:39:57+02:00</time>
      </trkpt>
      <trkpt lat="45.95761" lon="4.74348">
        <ele>169.10059</ele>
        <time>2026-05-13T11:39:58+02:00</time>
      </trkpt>
      <trkpt lat="45.95764" lon="4.74354">
        <ele>169.40039</ele>
        <time>2026-05-13T11:39:59+02:00</time>
      </trkpt>
      <trkpt lat="45.95768" lon="4.74361">
        <ele>169.40039</ele>
        <time>2026-05-13T11:40:00+02:00</time>
      </trkpt>
      <trkpt lat="45.95772" lon="4.74368">
        <ele>169</ele>
        <time>2026-05-13T11:40:01+02:00</time>
      </trkpt>
      <trkpt lat="45.95776" lon="4.74375">
        <ele>169.40039</ele>
        <time>2026-05-13T11:40:02+02:00</time>
      </trkpt>
      <trkpt lat="45.9578" lon="4.74381">
        <ele>169.5</ele>
        <time>2026-05-13T11:40:03+02:00</time>
      </trkpt>
      <trkpt lat="45.95784" lon="4.74388">
        <ele>169.60059</ele>
        <time>2026-05-13T11:40:04+02:00</time>
      </trkpt>
      <trkpt lat="45.95787" lon="4.74395">
        <ele>170.10059</ele>
        <time>2026-05-13T11:40:05+02:00</time>
      </trkpt>
      <trkpt lat="45.95791" lon="4.74402">
        <ele>169.60059</ele>
        <time>2026-05-13T11:40:06+02:00</time>
      </trkpt>
      <trkpt lat="45.95795" lon="4.74408">
        <ele>169.90039</ele>
        <time>2026-05-13T11:40:07+02:00</time>
      </trkpt>
      <trkpt lat="45.95799" lon="4.74415">
        <ele>169.7002</ele>
        <time>2026-05-13T11:40:08+02:00</time>
      </trkpt>
      <trkpt lat="45.95802" lon="4.74422">
        <ele>169</ele>
        <time>2026-05-13T11:40:09+02:00</time>
      </trkpt>
      <trkpt lat="45.95806" lon="4.74429">
        <ele>169</ele>
        <time>2026-05-13T11:40:10+02:00</time>
      </trkpt>
      <trkpt lat="45.9581" lon="4.74436">
        <ele>168.5</ele>
        <time>2026-05-13T11:40:11+02:00</time>
      </trkpt>
      <trkpt lat="45.95814" lon="4.74442">
        <ele>168.40039</ele>
        <time>2026-05-13T11:40:12+02:00</time>
      </trkpt>
      <trkpt lat="45.95818" lon="4.74449">
        <ele>168.7002</ele>
        <time>2026-05-13T11:40:13+02:00</time>
      </trkpt>
      <trkpt lat="45.95821" lon="4.74456">
        <ele>169.40039</ele>
        <time>2026-05-13T11:40:14+02:00</time>
      </trkpt>
      <trkpt lat="45.95825" lon="4.74462">
        <ele>169.40039</ele>
        <time>2026-05-13T11:40:15+02:00</time>
      </trkpt>
      <trkpt lat="45.95829" lon="4.74469">
        <ele>169.40039</ele>
        <time>2026-05-13T11:40:16+02:00</time>
      </trkpt>
      <trkpt lat="45.95833" lon="4.74476">
        <ele>169.10059</ele>
        <time>2026-05-13T11:40:17+02:00</time>
      </trkpt>
      <trkpt lat="45.95836" lon="4.74483">
        <ele>169.40039</ele>
        <time>2026-05-13T11:40:18+02:00</time>
      </trkpt>
      <trkpt lat="45.95839" lon="4.74489">
        <ele>169</ele>
        <time>2026-05-13T11:40:19+02:00</time>
      </trkpt>
      <trkpt lat="45.95843" lon="4.74496">
        <ele>168.90039</ele>
        <time>2026-05-13T11:40:20+02:00</time>
      </trkpt>
      <trkpt lat="45.95847" lon="4.74503">
        <ele>169.2002</ele>
        <time>2026-05-13T11:40:21+02:00</time>
      </trkpt>
      <trkpt lat="45.95851" lon="4.7451">
        <ele>169.2002</ele>
        <time>2026-05-13T11:40:22+02:00</time>
      </trkpt>
      <trkpt lat="45.95854" lon="4.74516">
        <ele>169.5</ele>
        <time>2026-05-13T11:40:23+02:00</time>
      </trkpt>
      <trkpt lat="45.95857" lon="4.74523">
        <ele>169.10059</ele>
        <time>2026-05-13T11:40:24+02:00</time>
      </trkpt>
      <trkpt lat="45.95861" lon="4.7453">
        <ele>168.7998</ele>
        <time>2026-05-13T11:40:25+02:00</time>
      </trkpt>
      <trkpt lat="45.95865" lon="4.74536">
        <ele>169.2002</ele>
        <time>2026-05-13T11:40:26+02:00</time>
      </trkpt>
      <trkpt lat="45.95868" lon="4.74543">
        <ele>169.10059</ele>
        <time>2026-05-13T11:40:27+02:00</time>
      </trkpt>
      <trkpt lat="45.95871" lon="4.7455">
        <ele>169.5</ele>
        <time>2026-05-13T11:40:28+02:00</time>
      </trkpt>
      <trkpt lat="45.95875" lon="4.74556">
        <ele>169.10059</ele>
        <time>2026-05-13T11:40:29+02:00</time>
      </trkpt>
      <trkpt lat="45.95878" lon="4.74563">
        <ele>169.2998</ele>
        <time>2026-05-13T11:40:30+02:00</time>
      </trkpt>
      <trkpt lat="45.95882" lon="4.74569">
        <ele>169.2002</ele>
        <time>2026-05-13T11:40:31+02:00</time>
      </trkpt>
      <trkpt lat="45.95886" lon="4.74576">
        <ele>169.2998</ele>
        <time>2026-05-13T11:40:32+02:00</time>
      </trkpt>
      <trkpt lat="45.95889" lon="4.74583">
        <ele>169.2998</ele>
        <time>2026-05-13T11:40:33+02:00</time>
      </trkpt>
      <trkpt lat="45.95893" lon="4.74589">
        <ele>169.2002</ele>
        <time>2026-05-13T11:40:34+02:00</time>
      </trkpt>
      <trkpt lat="45.95896" lon="4.74596">
        <ele>169.5</ele>
        <time>2026-05-13T11:40:35+02:00</time>
      </trkpt>
      <trkpt lat="45.959" lon="4.74602">
        <ele>169.10059</ele>
        <time>2026-05-13T11:40:36+02:00</time>
      </trkpt>
      <trkpt lat="45.95904" lon="4.74609">
        <ele>168.7002</ele>
        <time>2026-05-13T11:40:37+02:00</time>
      </trkpt>
      <trkpt lat="45.95908" lon="4.74616">
        <ele>168.60059</ele>
        <time>2026-05-13T11:40:38+02:00</time>
      </trkpt>
      <trkpt lat="45.95911" lon="4.74623">
        <ele>168.2998</ele>
        <time>2026-05-13T11:40:39+02:00</time>
      </trkpt>
      <trkpt lat="45.95915" lon="4.74629">
        <ele>168.40039</ele>
        <time>2026-05-13T11:40:40+02:00</time>
      </trkpt>
      <trkpt lat="45.95919" lon="4.74636">
        <ele>168.60059</ele>
        <time>2026-05-13T11:40:41+02:00</time>
      </trkpt>
      <trkpt lat="45.95923" lon="4.74642">
        <ele>168.60059</ele>
        <time>2026-05-13T11:40:42+02:00</time>
      </trkpt>
      <trkpt lat="45.95926" lon="4.74649">
        <ele>168.7998</ele>
        <time>2026-05-13T11:40:43+02:00</time>
      </trkpt>
      <trkpt lat="45.9593" lon="4.74655">
        <ele>168.90039</ele>
        <time>2026-05-13T11:40:44+02:00</time>
      </trkpt>
      <trkpt lat="45.95934" lon="4.74661">
        <ele>168.90039</ele>
        <time>2026-05-13T11:40:45+02:00</time>
      </trkpt>
      <trkpt lat="45.95938" lon="4.74667">
        <ele>168.90039</ele>
        <time>2026-05-13T11:40:46+02:00</time>
      </trkpt>
      <trkpt lat="45.95942" lon="4.74673">
        <ele>168.90039</ele>
        <time>2026-05-13T11:40:47+02:00</time>
      </trkpt>
      <trkpt lat="45.95946" lon="4.74679">
        <ele>168.90039</ele>
        <time>2026-05-13T11:40:48+02:00</time>
      </trkpt>
      <trkpt lat="45.9595" lon="4.74685">
        <ele>168.90039</ele>
        <time>2026-05-13T11:40:49+02:00</time>
      </trkpt>
      <trkpt lat="45.95954" lon="4.74692">
        <ele>169</ele>
        <time>2026-05-13T11:40:50+02:00</time>
      </trkpt>
      <trkpt lat="45.95958" lon="4.74697">
        <ele>168.90039</ele>
        <time>2026-05-13T11:40:51+02:00</time>
      </trkpt>
      <trkpt lat="45.95962" lon="4.74703">
        <ele>168.90039</ele>
        <time>2026-05-13T11:40:52+02:00</time>
      </trkpt>
      <trkpt lat="45.95965" lon="4.74709">
        <ele>168.7998</ele>
        <time>2026-05-13T11:40:53+02:00</time>
      </trkpt>
      <trkpt lat="45.95969" lon="4.74715">
        <ele>169</ele>
        <time>2026-05-13T11:40:54+02:00</time>
      </trkpt>
      <trkpt lat="45.95973" lon="4.74721">
        <ele>169.2998</ele>
        <time>2026-05-13T11:40:55+02:00</time>
      </trkpt>
      <trkpt lat="45.95977" lon="4.74726">
        <ele>169.2002</ele>
        <time>2026-05-13T11:40:56+02:00</time>
      </trkpt>
      <trkpt lat="45.95981" lon="4.74732">
        <ele>169.2998</ele>
        <time>2026-05-13T11:40:57+02:00</time>
      </trkpt>
      <trkpt lat="45.95984" lon="4.74737">
        <ele>169.2998</ele>
        <time>2026-05-13T11:40:58+02:00</time>
      </trkpt>
      <trkpt lat="45.95988" lon="4.74743">
        <ele>169.2998</ele>
        <time>2026-05-13T11:40:59+02:00</time>
      </trkpt>
      <trkpt lat="45.95992" lon="4.74748">
        <ele>169.60059</ele>
        <time>2026-05-13T11:41:00+02:00</time>
      </trkpt>
      <trkpt lat="45.95997" lon="4.74754">
        <ele>169.2998</ele>
        <time>2026-05-13T11:41:01+02:00</time>
      </trkpt>
      <trkpt lat="45.96001" lon="4.7476">
        <ele>169.40039</ele>
        <time>2026-05-13T11:41:02+02:00</time>
      </trkpt>
      <trkpt lat="45.96005" lon="4.74765">
        <ele>169.5</ele>
        <time>2026-05-13T11:41:03+02:00</time>
      </trkpt>
      <trkpt lat="45.96009" lon="4.74771">
        <ele>169.5</ele>
        <time>2026-05-13T11:41:04+02:00</time>
      </trkpt>
      <trkpt lat="45.96013" lon="4.74777">
        <ele>169.60059</ele>
        <time>2026-05-13T11:41:05+02:00</time>
      </trkpt>
      <trkpt lat="45.96017" lon="4.74782">
        <ele>169.7002</ele>
        <time>2026-05-13T11:41:06+02:00</time>
      </trkpt>
      <trkpt lat="45.96021" lon="4.74788">
        <ele>169.7002</ele>
        <time>2026-05-13T11:41:07+02:00</time>
      </trkpt>
      <trkpt lat="45.96025" lon="4.74794">
        <ele>169.7998</ele>
        <time>2026-05-13T11:41:08+02:00</time>
      </trkpt>
      <trkpt lat="45.96029" lon="4.748">
        <ele>169.90039</ele>
        <time>2026-05-13T11:41:09+02:00</time>
      </trkpt>
      <trkpt lat="45.96033" lon="4.74806">
        <ele>169.90039</ele>
        <time>2026-05-13T11:41:10+02:00</time>
      </trkpt>
      <trkpt lat="45.96037" lon="4.74812">
        <ele>170.10059</ele>
        <time>2026-05-13T11:41:11+02:00</time>
      </trkpt>
      <trkpt lat="45.96042" lon="4.74818">
        <ele>170.40039</ele>
        <time>2026-05-13T11:41:12+02:00</time>
      </trkpt>
      <trkpt lat="45.96047" lon="4.74823">
        <ele>169.7998</ele>
        <time>2026-05-13T11:41:13+02:00</time>
      </trkpt>
      <trkpt lat="45.96051" lon="4.74828">
        <ele>170.5</ele>
        <time>2026-05-13T11:41:14+02:00</time>
      </trkpt>
      <trkpt lat="45.96056" lon="4.74834">
        <ele>170.5</ele>
        <time>2026-05-13T11:41:15+02:00</time>
      </trkpt>
      <trkpt lat="45.96061" lon="4.74839">
        <ele>169.90039</ele>
        <time>2026-05-13T11:41:16+02:00</time>
      </trkpt>
      <trkpt lat="45.96066" lon="4.74844">
        <ele>170</ele>
        <time>2026-05-13T11:41:17+02:00</time>
      </trkpt>
      <trkpt lat="45.96071" lon="4.74849">
        <ele>169.5</ele>
        <time>2026-05-13T11:41:18+02:00</time>
      </trkpt>
      <trkpt lat="45.96076" lon="4.74853">
        <ele>169.60059</ele>
        <time>2026-05-13T11:41:19+02:00</time>
      </trkpt>
      <trkpt lat="45.9608" lon="4.74858">
        <ele>169.60059</ele>
        <time>2026-05-13T11:41:20+02:00</time>
      </trkpt>
      <trkpt lat="45.96085" lon="4.74863">
        <ele>169.7998</ele>
        <time>2026-05-13T11:41:21+02:00</time>
      </trkpt>
      <trkpt lat="45.96089" lon="4.74869">
        <ele>170</ele>
        <time>2026-05-13T11:41:22+02:00</time>
      </trkpt>
      <trkpt lat="45.96094" lon="4.74875">
        <ele>169.40039</ele>
        <time>2026-05-13T11:41:23+02:00</time>
      </trkpt>
      <trkpt lat="45.96098" lon="4.74881">
        <ele>170.10059</ele>
        <time>2026-05-13T11:41:24+02:00</time>
      </trkpt>
      <trkpt lat="45.96102" lon="4.74886">
        <ele>170.10059</ele>
        <time>2026-05-13T11:41:25+02:00</time>
      </trkpt>
      <trkpt lat="45.96106" lon="4.74891">
        <ele>169.60059</ele>
        <time>2026-05-13T11:41:26+02:00</time>
      </trkpt>
      <trkpt lat="45.9611" lon="4.74896">
        <ele>170.2998</ele>
        <time>2026-05-13T11:41:27+02:00</time>
      </trkpt>
      <trkpt lat="45.96113" lon="4.74901">
        <ele>169.90039</ele>
        <time>2026-05-13T11:41:28+02:00</time>
      </trkpt>
      <trkpt lat="45.96117" lon="4.74906">
        <ele>170.5</ele>
        <time>2026-05-13T11:41:29+02:00</time>
      </trkpt>
      <trkpt lat="45.96121" lon="4.74909">
        <ele>169.90039</ele>
        <time>2026-05-13T11:41:30+02:00</time>
      </trkpt>
      <trkpt lat="45.96125" lon="4.74912">
        <ele>169.5</ele>
        <time>2026-05-13T11:41:31+02:00</time>
      </trkpt>
      <trkpt lat="45.96128" lon="4.74915">
        <ele>169.5</ele>
        <time>2026-05-13T11:41:32+02:00</time>
      </trkpt>
      <trkpt lat="45.96131" lon="4.74918">
        <ele>169.2002</ele>
        <time>2026-05-13T11:41:33+02:00</time>
      </trkpt>
      <trkpt lat="45.96133" lon="4.74921">
        <ele>169.7002</ele>
        <time>2026-05-13T11:41:34+02:00</time>
      </trkpt>
      <trkpt lat="45.96135" lon="4.74924">
        <ele>169.7002</ele>
        <time>2026-05-13T11:41:35+02:00</time>
      </trkpt>
      <trkpt lat="45.96136" lon="4.74928">
        <ele>170.10059</ele>
        <time>2026-05-13T11:41:36+02:00</time>
      </trkpt>
      <trkpt lat="45.96139" lon="4.74931">
        <ele>170.10059</ele>
        <time>2026-05-13T11:41:37+02:00</time>
      </trkpt>
      <trkpt lat="45.96141" lon="4.74935">
        <ele>170.10059</ele>
        <time>2026-05-13T11:41:38+02:00</time>
      </trkpt>
      <trkpt lat="45.96144" lon="4.74938">
        <ele>170.40039</ele>
        <time>2026-05-13T11:41:39+02:00</time>
      </trkpt>
      <trkpt lat="45.96147" lon="4.74942">
        <ele>170.40039</ele>
        <time>2026-05-13T11:41:40+02:00</time>
      </trkpt>
      <trkpt lat="45.96151" lon="4.74946">
        <ele>170.5</ele>
        <time>2026-05-13T11:41:41+02:00</time>
      </trkpt>
      <trkpt lat="45.96155" lon="4.74951">
        <ele>170.10059</ele>
        <time>2026-05-13T11:41:42+02:00</time>
      </trkpt>
      <trkpt lat="45.96159" lon="4.74955">
        <ele>170.7002</ele>
        <time>2026-05-13T11:41:43+02:00</time>
      </trkpt>
      <trkpt lat="45.96164" lon="4.7496">
        <ele>170.2998</ele>
        <time>2026-05-13T11:41:44+02:00</time>
      </trkpt>
      <trkpt lat="45.96168" lon="4.74964">
        <ele>170.60059</ele>
        <time>2026-05-13T11:41:45+02:00</time>
      </trkpt>
      <trkpt lat="45.96174" lon="4.74969">
        <ele>170.2002</ele>
        <time>2026-05-13T11:41:46+02:00</time>
      </trkpt>
      <trkpt lat="45.96179" lon="4.74973">
        <ele>170.2998</ele>
        <time>2026-05-13T11:41:47+02:00</time>
      </trkpt>
      <trkpt lat="45.96184" lon="4.74977">
        <ele>169.7998</ele>
        <time>2026-05-13T11:41:48+02:00</time>
      </trkpt>
      <trkpt lat="45.96189" lon="4.7498">
        <ele>169.90039</ele>
        <time>2026-05-13T11:41:49+02:00</time>
      </trkpt>
      <trkpt lat="45.96195" lon="4.74984">
        <ele>169.90039</ele>
        <time>2026-05-13T11:41:50+02:00</time>
      </trkpt>
      <trkpt lat="45.962" lon="4.74988">
        <ele>170.2998</ele>
        <time>2026-05-13T11:41:51+02:00</time>
      </trkpt>
      <trkpt lat="45.96205" lon="4.74992">
        <ele>169.90039</ele>
        <time>2026-05-13T11:41:52+02:00</time>
      </trkpt>
      <trkpt lat="45.9621" lon="4.74996">
        <ele>170.10059</ele>
        <time>2026-05-13T11:41:53+02:00</time>
      </trkpt>
      <trkpt lat="45.96215" lon="4.75001">
        <ele>169.7002</ele>
        <time>2026-05-13T11:41:54+02:00</time>
      </trkpt>
      <trkpt lat="45.9622" lon="4.75006">
        <ele>170</ele>
        <time>2026-05-13T11:41:55+02:00</time>
      </trkpt>
      <trkpt lat="45.96225" lon="4.7501">
        <ele>169.60059</ele>
        <time>2026-05-13T11:41:56+02:00</time>
      </trkpt>
      <trkpt lat="45.96229" lon="4.75015">
        <ele>170.40039</ele>
        <time>2026-05-13T11:41:57+02:00</time>
      </trkpt>
      <trkpt lat="45.96234" lon="4.7502">
        <ele>170</ele>
        <time>2026-05-13T11:41:58+02:00</time>
      </trkpt>
      <trkpt lat="45.96239" lon="4.75025">
        <ele>170.7998</ele>
        <time>2026-05-13T11:41:59+02:00</time>
      </trkpt>
      <trkpt lat="45.96243" lon="4.7503">
        <ele>171.7002</ele>
        <time>2026-05-13T11:42:00+02:00</time>
      </trkpt>
      <trkpt lat="45.96248" lon="4.75035">
        <ele>171.7002</ele>
        <time>2026-05-13T11:42:01+02:00</time>
      </trkpt>
      <trkpt lat="45.96253" lon="4.7504">
        <ele>172.40039</ele>
        <time>2026-05-13T11:42:02+02:00</time>
      </trkpt>
      <trkpt lat="45.96258" lon="4.75045">
        <ele>171.5</ele>
        <time>2026-05-13T11:42:03+02:00</time>
      </trkpt>
      <trkpt lat="45.96262" lon="4.75049">
        <ele>171.7998</ele>
        <time>2026-05-13T11:42:04+02:00</time>
      </trkpt>
      <trkpt lat="45.96267" lon="4.75054">
        <ele>171.2998</ele>
        <time>2026-05-13T11:42:05+02:00</time>
      </trkpt>
      <trkpt lat="45.96272" lon="4.75057">
        <ele>172.60059</ele>
        <time>2026-05-13T11:42:06+02:00</time>
      </trkpt>
      <trkpt lat="45.96277" lon="4.75061">
        <ele>171.90039</ele>
        <time>2026-05-13T11:42:07+02:00</time>
      </trkpt>
      <trkpt lat="45.96282" lon="4.75065">
        <ele>172.2998</ele>
        <time>2026-05-13T11:42:08+02:00</time>
      </trkpt>
      <trkpt lat="45.96286" lon="4.75068">
        <ele>171.40039</ele>
        <time>2026-05-13T11:42:09+02:00</time>
      </trkpt>
      <trkpt lat="45.96291" lon="4.75071">
        <ele>170.7002</ele>
        <time>2026-05-13T11:42:10+02:00</time>
      </trkpt>
      <trkpt lat="45.96296" lon="4.75075">
        <ele>171.7002</ele>
        <time>2026-05-13T11:42:11+02:00</time>
      </trkpt>
      <trkpt lat="45.96301" lon="4.75078">
        <ele>171.10059</ele>
        <time>2026-05-13T11:42:12+02:00</time>
      </trkpt>
      <trkpt lat="45.96306" lon="4.75081">
        <ele>170.5</ele>
        <time>2026-05-13T11:42:13+02:00</time>
      </trkpt>
      <trkpt lat="45.96311" lon="4.75084">
        <ele>170.7002</ele>
        <time>2026-05-13T11:42:14+02:00</time>
      </trkpt>
      <trkpt lat="45.96316" lon="4.75088">
        <ele>169.90039</ele>
        <time>2026-05-13T11:42:15+02:00</time>
      </trkpt>
      <trkpt lat="45.9632" lon="4.75092">
        <ele>170.7998</ele>
        <time>2026-05-13T11:42:16+02:00</time>
      </trkpt>
      <trkpt lat="45.96325" lon="4.75096">
        <ele>170</ele>
        <time>2026-05-13T11:42:17+02:00</time>
      </trkpt>
      <trkpt lat="45.9633" lon="4.75101">
        <ele>170.40039</ele>
        <time>2026-05-13T11:42:18+02:00</time>
      </trkpt>
      <trkpt lat="45.96335" lon="4.75106">
        <ele>169.90039</ele>
        <time>2026-05-13T11:42:19+02:00</time>
      </trkpt>
      <trkpt lat="45.96339" lon="4.75111">
        <ele>170.2002</ele>
        <time>2026-05-13T11:42:20+02:00</time>
      </trkpt>
      <trkpt lat="45.96344" lon="4.75116">
        <ele>171</ele>
        <time>2026-05-13T11:42:21+02:00</time>
      </trkpt>
      <trkpt lat="45.96348" lon="4.75121">
        <ele>169.90039</ele>
        <time>2026-05-13T11:42:22+02:00</time>
      </trkpt>
      <trkpt lat="45.96353" lon="4.75125">
        <ele>168.7002</ele>
        <time>2026-05-13T11:42:23+02:00</time>
      </trkpt>
      <trkpt lat="45.96358" lon="4.7513">
        <ele>167.7998</ele>
        <time>2026-05-13T11:42:24+02:00</time>
      </trkpt>
      <trkpt lat="45.96362" lon="4.75135">
        <ele>167.90039</ele>
        <time>2026-05-13T11:42:25+02:00</time>
      </trkpt>
      <trkpt lat="45.96367" lon="4.75139">
        <ele>167.90039</ele>
        <time>2026-05-13T11:42:26+02:00</time>
      </trkpt>
      <trkpt lat="45.96372" lon="4.75143">
        <ele>169.2002</ele>
        <time>2026-05-13T11:42:27+02:00</time>
      </trkpt>
      <trkpt lat="45.96377" lon="4.75147">
        <ele>169.2002</ele>
        <time>2026-05-13T11:42:28+02:00</time>
      </trkpt>
      <trkpt lat="45.96382" lon="4.75152">
        <ele>169.2002</ele>
        <time>2026-05-13T11:42:29+02:00</time>
      </trkpt>
      <trkpt lat="45.96386" lon="4.75156">
        <ele>169</ele>
        <time>2026-05-13T11:42:30+02:00</time>
      </trkpt>
      <trkpt lat="45.96391" lon="4.7516">
        <ele>169</ele>
        <time>2026-05-13T11:42:31+02:00</time>
      </trkpt>
      <trkpt lat="45.96396" lon="4.75164">
        <ele>168.7998</ele>
        <time>2026-05-13T11:42:32+02:00</time>
      </trkpt>
      <trkpt lat="45.96401" lon="4.75169">
        <ele>168.90039</ele>
        <time>2026-05-13T11:42:33+02:00</time>
      </trkpt>
      <trkpt lat="45.96406" lon="4.75173">
        <ele>168.7002</ele>
        <time>2026-05-13T11:42:34+02:00</time>
      </trkpt>
      <trkpt lat="45.96411" lon="4.75177">
        <ele>168.60059</ele>
        <time>2026-05-13T11:42:35+02:00</time>
      </trkpt>
      <trkpt lat="45.96416" lon="4.7518">
        <ele>168.5</ele>
        <time>2026-05-13T11:42:36+02:00</time>
      </trkpt>
      <trkpt lat="45.96422" lon="4.75184">
        <ele>168.5</ele>
        <time>2026-05-13T11:42:37+02:00</time>
      </trkpt>
      <trkpt lat="45.96427" lon="4.75187">
        <ele>168.7002</ele>
        <time>2026-05-13T11:42:38+02:00</time>
      </trkpt>
      <trkpt lat="45.96432" lon="4.75191">
        <ele>168.7002</ele>
        <time>2026-05-13T11:42:39+02:00</time>
      </trkpt>
      <trkpt lat="45.96437" lon="4.75196">
        <ele>168.7002</ele>
        <time>2026-05-13T11:42:40+02:00</time>
      </trkpt>
      <trkpt lat="45.96442" lon="4.75201">
        <ele>168.60059</ele>
        <time>2026-05-13T11:42:41+02:00</time>
      </trkpt>
      <trkpt lat="45.96447" lon="4.75206">
        <ele>168.7998</ele>
        <time>2026-05-13T11:42:42+02:00</time>
      </trkpt>
      <trkpt lat="45.96452" lon="4.75211">
        <ele>169</ele>
        <time>2026-05-13T11:42:43+02:00</time>
      </trkpt>
      <trkpt lat="45.96457" lon="4.75215">
        <ele>169</ele>
        <time>2026-05-13T11:42:44+02:00</time>
      </trkpt>
      <trkpt lat="45.96462" lon="4.7522">
        <ele>169.2002</ele>
        <time>2026-05-13T11:42:45+02:00</time>
      </trkpt>
      <trkpt lat="45.96468" lon="4.75224">
        <ele>168.90039</ele>
        <time>2026-05-13T11:42:46+02:00</time>
      </trkpt>
      <trkpt lat="45.96473" lon="4.75229">
        <ele>168.7002</ele>
        <time>2026-05-13T11:42:47+02:00</time>
      </trkpt>
      <trkpt lat="45.96478" lon="4.75233">
        <ele>168.5</ele>
        <time>2026-05-13T11:42:48+02:00</time>
      </trkpt>
      <trkpt lat="45.96483" lon="4.75237">
        <ele>168.2002</ele>
        <time>2026-05-13T11:42:49+02:00</time>
      </trkpt>
      <trkpt lat="45.96489" lon="4.75241">
        <ele>168.40039</ele>
        <time>2026-05-13T11:42:50+02:00</time>
      </trkpt>
      <trkpt lat="45.96494" lon="4.75245">
        <ele>168.7998</ele>
        <time>2026-05-13T11:42:51+02:00</time>
      </trkpt>
      <trkpt lat="45.96499" lon="4.7525">
        <ele>168.7998</ele>
        <time>2026-05-13T11:42:52+02:00</time>
      </trkpt>
      <trkpt lat="45.96504" lon="4.75254">
        <ele>168.90039</ele>
        <time>2026-05-13T11:42:53+02:00</time>
      </trkpt>
      <trkpt lat="45.96509" lon="4.75258">
        <ele>168.7998</ele>
        <time>2026-05-13T11:42:54+02:00</time>
      </trkpt>
      <trkpt lat="45.96514" lon="4.75262">
        <ele>168.90039</ele>
        <time>2026-05-13T11:42:55+02:00</time>
      </trkpt>
      <trkpt lat="45.9652" lon="4.75266">
        <ele>169</ele>
        <time>2026-05-13T11:42:56+02:00</time>
      </trkpt>
      <trkpt lat="45.96525" lon="4.7527">
        <ele>168.90039</ele>
        <time>2026-05-13T11:42:57+02:00</time>
      </trkpt>
      <trkpt lat="45.9653" lon="4.75275">
        <ele>169.10059</ele>
        <time>2026-05-13T11:42:58+02:00</time>
      </trkpt>
      <trkpt lat="45.96535" lon="4.75279">
        <ele>169.2002</ele>
        <time>2026-05-13T11:42:59+02:00</time>
      </trkpt>
      <trkpt lat="45.9654" lon="4.75284">
        <ele>169.2002</ele>
        <time>2026-05-13T11:43:00+02:00</time>
      </trkpt>
      <trkpt lat="45.96545" lon="4.75288">
        <ele>169.60059</ele>
        <time>2026-05-13T11:43:01+02:00</time>
      </trkpt>
      <trkpt lat="45.9655" lon="4.75292">
        <ele>169.40039</ele>
        <time>2026-05-13T11:43:02+02:00</time>
      </trkpt>
      <trkpt lat="45.96555" lon="4.75296">
        <ele>169.10059</ele>
        <time>2026-05-13T11:43:03+02:00</time>
      </trkpt>
      <trkpt lat="45.9656" lon="4.753">
        <ele>169.2998</ele>
        <time>2026-05-13T11:43:04+02:00</time>
      </trkpt>
      <trkpt lat="45.96565" lon="4.75305">
        <ele>169.90039</ele>
        <time>2026-05-13T11:43:05+02:00</time>
      </trkpt>
      <trkpt lat="45.9657" lon="4.75309">
        <ele>169.40039</ele>
        <time>2026-05-13T11:43:06+02:00</time>
      </trkpt>
      <trkpt lat="45.96576" lon="4.75313">
        <ele>169.10059</ele>
        <time>2026-05-13T11:43:07+02:00</time>
      </trkpt>
      <trkpt lat="45.96581" lon="4.75317">
        <ele>168.90039</ele>
        <time>2026-05-13T11:43:08+02:00</time>
      </trkpt>
      <trkpt lat="45.96586" lon="4.75321">
        <ele>168.60059</ele>
        <time>2026-05-13T11:43:09+02:00</time>
      </trkpt>
      <trkpt lat="45.96592" lon="4.75326">
        <ele>168.2998</ele>
        <time>2026-05-13T11:43:10+02:00</time>
      </trkpt>
      <trkpt lat="45.96597" lon="4.7533">
        <ele>168.2998</ele>
        <time>2026-05-13T11:43:11+02:00</time>
      </trkpt>
      <trkpt lat="45.96602" lon="4.75334">
        <ele>168.60059</ele>
        <time>2026-05-13T11:43:12+02:00</time>
      </trkpt>
      <trkpt lat="45.96608" lon="4.75338">
        <ele>169.10059</ele>
        <time>2026-05-13T11:43:13+02:00</time>
      </trkpt>
      <trkpt lat="45.96613" lon="4.75343">
        <ele>169.60059</ele>
        <time>2026-05-13T11:43:14+02:00</time>
      </trkpt>
      <trkpt lat="45.96618" lon="4.75348">
        <ele>169.90039</ele>
        <time>2026-05-13T11:43:15+02:00</time>
      </trkpt>
      <trkpt lat="45.96623" lon="4.75352">
        <ele>169.90039</ele>
        <time>2026-05-13T11:43:16+02:00</time>
      </trkpt>
      <trkpt lat="45.96628" lon="4.75356">
        <ele>169.90039</ele>
        <time>2026-05-13T11:43:17+02:00</time>
      </trkpt>
      <trkpt lat="45.96633" lon="4.7536">
        <ele>170.7998</ele>
        <time>2026-05-13T11:43:18+02:00</time>
      </trkpt>
      <trkpt lat="45.96638" lon="4.75364">
        <ele>170.90039</ele>
        <time>2026-05-13T11:43:19+02:00</time>
      </trkpt>
      <trkpt lat="45.96643" lon="4.75368">
        <ele>171.60059</ele>
        <time>2026-05-13T11:43:20+02:00</time>
      </trkpt>
      <trkpt lat="45.96648" lon="4.75372">
        <ele>171.60059</ele>
        <time>2026-05-13T11:43:21+02:00</time>
      </trkpt>
      <trkpt lat="45.96653" lon="4.75376">
        <ele>172.10059</ele>
        <time>2026-05-13T11:43:22+02:00</time>
      </trkpt>
      <trkpt lat="45.96659" lon="4.7538">
        <ele>171.40039</ele>
        <time>2026-05-13T11:43:23+02:00</time>
      </trkpt>
      <trkpt lat="45.96664" lon="4.75384">
        <ele>171.5</ele>
        <time>2026-05-13T11:43:24+02:00</time>
      </trkpt>
      <trkpt lat="45.9667" lon="4.75387">
        <ele>171.10059</ele>
        <time>2026-05-13T11:43:25+02:00</time>
      </trkpt>
      <trkpt lat="45.96675" lon="4.75391">
        <ele>171.7002</ele>
        <time>2026-05-13T11:43:26+02:00</time>
      </trkpt>
      <trkpt lat="45.9668" lon="4.75395">
        <ele>172.2002</ele>
        <time>2026-05-13T11:43:27+02:00</time>
      </trkpt>
      <trkpt lat="45.96686" lon="4.75399">
        <ele>172.2002</ele>
        <time>2026-05-13T11:43:28+02:00</time>
      </trkpt>
      <trkpt lat="45.96691" lon="4.75403">
        <ele>172.90039</ele>
        <time>2026-05-13T11:43:29+02:00</time>
      </trkpt>
      <trkpt lat="45.96697" lon="4.75407">
        <ele>172.2002</ele>
        <time>2026-05-13T11:43:30+02:00</time>
      </trkpt>
      <trkpt lat="45.96702" lon="4.75411">
        <ele>173.60059</ele>
        <time>2026-05-13T11:43:31+02:00</time>
      </trkpt>
      <trkpt lat="45.96707" lon="4.75414">
        <ele>172.90039</ele>
        <time>2026-05-13T11:43:32+02:00</time>
      </trkpt>
      <trkpt lat="45.96713" lon="4.75417">
        <ele>173.90039</ele>
        <time>2026-05-13T11:43:33+02:00</time>
      </trkpt>
      <trkpt lat="45.96718" lon="4.75421">
        <ele>173.10059</ele>
        <time>2026-05-13T11:43:34+02:00</time>
      </trkpt>
      <trkpt lat="45.96724" lon="4.75424">
        <ele>172.2998</ele>
        <time>2026-05-13T11:43:35+02:00</time>
      </trkpt>
      <trkpt lat="45.96729" lon="4.75428">
        <ele>172.7998</ele>
        <time>2026-05-13T11:43:36+02:00</time>
      </trkpt>
      <trkpt lat="45.96734" lon="4.7543">
        <ele>172</ele>
        <time>2026-05-13T11:43:37+02:00</time>
      </trkpt>
      <trkpt lat="45.96739" lon="4.75434">
        <ele>172.7998</ele>
        <time>2026-05-13T11:43:38+02:00</time>
      </trkpt>
      <trkpt lat="45.96744" lon="4.75436">
        <ele>172.2998</ele>
        <time>2026-05-13T11:43:39+02:00</time>
      </trkpt>
      <trkpt lat="45.96749" lon="4.75438">
        <ele>172.2998</ele>
        <time>2026-05-13T11:43:40+02:00</time>
      </trkpt>
      <trkpt lat="45.96754" lon="4.7544">
        <ele>171.7998</ele>
        <time>2026-05-13T11:43:41+02:00</time>
      </trkpt>
      <trkpt lat="45.9676" lon="4.75443">
        <ele>172.60059</ele>
        <time>2026-05-13T11:43:42+02:00</time>
      </trkpt>
      <trkpt lat="45.96766" lon="4.75445">
        <ele>171.90039</ele>
        <time>2026-05-13T11:43:43+02:00</time>
      </trkpt>
      <trkpt lat="45.96772" lon="4.75448">
        <ele>171.2002</ele>
        <time>2026-05-13T11:43:44+02:00</time>
      </trkpt>
      <trkpt lat="45.96778" lon="4.75452">
        <ele>171.90039</ele>
        <time>2026-05-13T11:43:45+02:00</time>
      </trkpt>
      <trkpt lat="45.96785" lon="4.75455">
        <ele>171.2002</ele>
        <time>2026-05-13T11:43:46+02:00</time>
      </trkpt>
      <trkpt lat="45.96791" lon="4.75458">
        <ele>170.7002</ele>
        <time>2026-05-13T11:43:47+02:00</time>
      </trkpt>
      <trkpt lat="45.96797" lon="4.75461">
        <ele>170.7002</ele>
        <time>2026-05-13T11:43:48+02:00</time>
      </trkpt>
      <trkpt lat="45.96803" lon="4.75464">
        <ele>169.90039</ele>
        <time>2026-05-13T11:43:49+02:00</time>
      </trkpt>
      <trkpt lat="45.9681" lon="4.75466">
        <ele>169.40039</ele>
        <time>2026-05-13T11:43:50+02:00</time>
      </trkpt>
      <trkpt lat="45.96816" lon="4.75469">
        <ele>169.60059</ele>
        <time>2026-05-13T11:43:51+02:00</time>
      </trkpt>
      <trkpt lat="45.96821" lon="4.75471">
        <ele>169.60059</ele>
        <time>2026-05-13T11:43:52+02:00</time>
      </trkpt>
      <trkpt lat="45.96827" lon="4.75473">
        <ele>169.7998</ele>
        <time>2026-05-13T11:43:53+02:00</time>
      </trkpt>
      <trkpt lat="45.96834" lon="4.75475">
        <ele>169.2998</ele>
        <time>2026-05-13T11:43:54+02:00</time>
      </trkpt>
      <trkpt lat="45.9684" lon="4.75477">
        <ele>169.5</ele>
        <time>2026-05-13T11:43:55+02:00</time>
      </trkpt>
      <trkpt lat="45.96846" lon="4.75479">
        <ele>169.2002</ele>
        <time>2026-05-13T11:43:56+02:00</time>
      </trkpt>
      <trkpt lat="45.96852" lon="4.75482">
        <ele>168.90039</ele>
        <time>2026-05-13T11:43:57+02:00</time>
      </trkpt>
      <trkpt lat="45.96858" lon="4.75485">
        <ele>169.40039</ele>
        <time>2026-05-13T11:43:58+02:00</time>
      </trkpt>
      <trkpt lat="45.96864" lon="4.75488">
        <ele>169.10059</ele>
        <time>2026-05-13T11:43:59+02:00</time>
      </trkpt>
      <trkpt lat="45.96871" lon="4.75491">
        <ele>168.90039</ele>
        <time>2026-05-13T11:44:00+02:00</time>
      </trkpt>
      <trkpt lat="45.96877" lon="4.75494">
        <ele>169.7002</ele>
        <time>2026-05-13T11:44:01+02:00</time>
      </trkpt>
      <trkpt lat="45.96883" lon="4.75496">
        <ele>169.60059</ele>
        <time>2026-05-13T11:44:02+02:00</time>
      </trkpt>
      <trkpt lat="45.96889" lon="4.75499">
        <ele>169.5</ele>
        <time>2026-05-13T11:44:03+02:00</time>
      </trkpt>
      <trkpt lat="45.96896" lon="4.75501">
        <ele>169.40039</ele>
        <time>2026-05-13T11:44:04+02:00</time>
      </trkpt>
      <trkpt lat="45.96902" lon="4.75504">
        <ele>170</ele>
        <time>2026-05-13T11:44:05+02:00</time>
      </trkpt>
      <trkpt lat="45.96909" lon="4.75507">
        <ele>170.10059</ele>
        <time>2026-05-13T11:44:06+02:00</time>
      </trkpt>
      <trkpt lat="45.96915" lon="4.75509">
        <ele>170</ele>
        <time>2026-05-13T11:44:07+02:00</time>
      </trkpt>
      <trkpt lat="45.96921" lon="4.75511">
        <ele>171.2998</ele>
        <time>2026-05-13T11:44:08+02:00</time>
      </trkpt>
      <trkpt lat="45.96928" lon="4.75513">
        <ele>170.90039</ele>
        <time>2026-05-13T11:44:09+02:00</time>
      </trkpt>
      <trkpt lat="45.96934" lon="4.75516">
        <ele>170.40039</ele>
        <time>2026-05-13T11:44:10+02:00</time>
      </trkpt>
      <trkpt lat="45.9694" lon="4.75518">
        <ele>169.90039</ele>
        <time>2026-05-13T11:44:11+02:00</time>
      </trkpt>
      <trkpt lat="45.96946" lon="4.7552">
        <ele>171.5</ele>
        <time>2026-05-13T11:44:12+02:00</time>
      </trkpt>
      <trkpt lat="45.96952" lon="4.75522">
        <ele>171.40039</ele>
        <time>2026-05-13T11:44:13+02:00</time>
      </trkpt>
      <trkpt lat="45.96958" lon="4.75525">
        <ele>171.2998</ele>
        <time>2026-05-13T11:44:14+02:00</time>
      </trkpt>
      <trkpt lat="45.96964" lon="4.75527">
        <ele>171.10059</ele>
        <time>2026-05-13T11:44:15+02:00</time>
      </trkpt>
      <trkpt lat="45.9697" lon="4.75529">
        <ele>172</ele>
        <time>2026-05-13T11:44:16+02:00</time>
      </trkpt>
      <trkpt lat="45.96976" lon="4.75531">
        <ele>171.5</ele>
        <time>2026-05-13T11:44:17+02:00</time>
      </trkpt>
      <trkpt lat="45.96982" lon="4.75533">
        <ele>171.10059</ele>
        <time>2026-05-13T11:44:18+02:00</time>
      </trkpt>
      <trkpt lat="45.96988" lon="4.75535">
        <ele>170.7002</ele>
        <time>2026-05-13T11:44:19+02:00</time>
      </trkpt>
      <trkpt lat="45.96994" lon="4.75537">
        <ele>172</ele>
        <time>2026-05-13T11:44:20+02:00</time>
      </trkpt>
      <trkpt lat="45.97" lon="4.75538">
        <ele>171.2998</ele>
        <time>2026-05-13T11:44:21+02:00</time>
      </trkpt>
      <trkpt lat="45.97006" lon="4.7554">
        <ele>170.7002</ele>
        <time>2026-05-13T11:44:22+02:00</time>
      </trkpt>
      <trkpt lat="45.97012" lon="4.75542">
        <ele>170.2002</ele>
        <time>2026-05-13T11:44:23+02:00</time>
      </trkpt>
      <trkpt lat="45.97018" lon="4.75545">
        <ele>171.7998</ele>
        <time>2026-05-13T11:44:24+02:00</time>
      </trkpt>
      <trkpt lat="45.97024" lon="4.75548">
        <ele>171.2998</ele>
        <time>2026-05-13T11:44:25+02:00</time>
      </trkpt>
      <trkpt lat="45.97028" lon="4.75553">
        <ele>170.7998</ele>
        <time>2026-05-13T11:44:26+02:00</time>
      </trkpt>
      <trkpt lat="45.97032" lon="4.75556">
        <ele>171.90039</ele>
        <time>2026-05-13T11:44:27+02:00</time>
      </trkpt>
      <trkpt lat="45.97036" lon="4.75558">
        <ele>171.90039</ele>
        <time>2026-05-13T11:44:28+02:00</time>
      </trkpt>
      <trkpt lat="45.9704" lon="4.75559">
        <ele>171.2998</ele>
        <time>2026-05-13T11:44:29+02:00</time>
      </trkpt>
      <trkpt lat="45.97045" lon="4.7556">
        <ele>170.7002</ele>
        <time>2026-05-13T11:44:30+02:00</time>
      </trkpt>
      <trkpt lat="45.9705" lon="4.75561">
        <ele>170.10059</ele>
        <time>2026-05-13T11:44:31+02:00</time>
      </trkpt>
      <trkpt lat="45.97055" lon="4.75562">
        <ele>169.60059</ele>
        <time>2026-05-13T11:44:32+02:00</time>
      </trkpt>
      <trkpt lat="45.97061" lon="4.75563">
        <ele>169.2002</ele>
        <time>2026-05-13T11:44:33+02:00</time>
      </trkpt>
      <trkpt lat="45.97066" lon="4.75564">
        <ele>169.10059</ele>
        <time>2026-05-13T11:44:34+02:00</time>
      </trkpt>
      <trkpt lat="45.97072" lon="4.75566">
        <ele>169.10059</ele>
        <time>2026-05-13T11:44:35+02:00</time>
      </trkpt>
      <trkpt lat="45.97077" lon="4.75568">
        <ele>169</ele>
        <time>2026-05-13T11:44:36+02:00</time>
      </trkpt>
      <trkpt lat="45.97082" lon="4.7557">
        <ele>168.90039</ele>
        <time>2026-05-13T11:44:37+02:00</time>
      </trkpt>
      <trkpt lat="45.97087" lon="4.75573">
        <ele>169.2002</ele>
        <time>2026-05-13T11:44:38+02:00</time>
      </trkpt>
      <trkpt lat="45.97092" lon="4.75576">
        <ele>168.90039</ele>
        <time>2026-05-13T11:44:39+02:00</time>
      </trkpt>
      <trkpt lat="45.97097" lon="4.7558">
        <ele>168.7998</ele>
        <time>2026-05-13T11:44:40+02:00</time>
      </trkpt>
      <trkpt lat="45.97102" lon="4.75583">
        <ele>168.5</ele>
        <time>2026-05-13T11:44:41+02:00</time>
      </trkpt>
      <trkpt lat="45.97107" lon="4.75587">
        <ele>168.5</ele>
        <time>2026-05-13T11:44:42+02:00</time>
      </trkpt>
      <trkpt lat="45.97111" lon="4.7559">
        <ele>168.2998</ele>
        <time>2026-05-13T11:44:43+02:00</time>
      </trkpt>
      <trkpt lat="45.97115" lon="4.75594">
        <ele>168.2002</ele>
        <time>2026-05-13T11:44:44+02:00</time>
      </trkpt>
      <trkpt lat="45.9712" lon="4.75598">
        <ele>168.2002</ele>
        <time>2026-05-13T11:44:45+02:00</time>
      </trkpt>
      <trkpt lat="45.97125" lon="4.75601">
        <ele>168.2002</ele>
        <time>2026-05-13T11:44:46+02:00</time>
      </trkpt>
      <trkpt lat="45.9713" lon="4.75605">
        <ele>168.2002</ele>
        <time>2026-05-13T11:44:47+02:00</time>
      </trkpt>
      <trkpt lat="45.97134" lon="4.75608">
        <ele>168.10059</ele>
        <time>2026-05-13T11:44:48+02:00</time>
      </trkpt>
      <trkpt lat="45.97139" lon="4.75611">
        <ele>168.10059</ele>
        <time>2026-05-13T11:44:49+02:00</time>
      </trkpt>
      <trkpt lat="45.97144" lon="4.75614">
        <ele>168</ele>
        <time>2026-05-13T11:44:50+02:00</time>
      </trkpt>
      <trkpt lat="45.9715" lon="4.75617">
        <ele>168</ele>
        <time>2026-05-13T11:44:51+02:00</time>
      </trkpt>
      <trkpt lat="45.97155" lon="4.75619">
        <ele>168</ele>
        <time>2026-05-13T11:44:52+02:00</time>
      </trkpt>
      <trkpt lat="45.9716" lon="4.75622">
        <ele>168</ele>
        <time>2026-05-13T11:44:53+02:00</time>
      </trkpt>
      <trkpt lat="45.97166" lon="4.75625">
        <ele>168</ele>
        <time>2026-05-13T11:44:54+02:00</time>
      </trkpt>
      <trkpt lat="45.97172" lon="4.75627">
        <ele>168</ele>
        <time>2026-05-13T11:44:55+02:00</time>
      </trkpt>
      <trkpt lat="45.97177" lon="4.75629">
        <ele>168</ele>
        <time>2026-05-13T11:44:56+02:00</time>
      </trkpt>
      <trkpt lat="45.97183" lon="4.75631">
        <ele>168</ele>
        <time>2026-05-13T11:44:57+02:00</time>
      </trkpt>
      <trkpt lat="45.97188" lon="4.75633">
        <ele>168</ele>
        <time>2026-05-13T11:44:58+02:00</time>
      </trkpt>
      <trkpt lat="45.97194" lon="4.75635">
        <ele>168</ele>
        <time>2026-05-13T11:44:59+02:00</time>
      </trkpt>
      <trkpt lat="45.97199" lon="4.75637">
        <ele>168</ele>
        <time>2026-05-13T11:45:00+02:00</time>
      </trkpt>
      <trkpt lat="45.97205" lon="4.75639">
        <ele>168</ele>
        <time>2026-05-13T11:45:01+02:00</time>
      </trkpt>
      <trkpt lat="45.9721" lon="4.75641">
        <ele>168</ele>
        <time>2026-05-13T11:45:02+02:00</time>
      </trkpt>
      <trkpt lat="45.97215" lon="4.75643">
        <ele>168</ele>
        <time>2026-05-13T11:45:03+02:00</time>
      </trkpt>
      <trkpt lat="45.97221" lon="4.75644">
        <ele>168</ele>
        <time>2026-05-13T11:45:04+02:00</time>
      </trkpt>
      <trkpt lat="45.97226" lon="4.75646">
        <ele>168</ele>
        <time>2026-05-13T11:45:05+02:00</time>
      </trkpt>
      <trkpt lat="45.97231" lon="4.75648">
        <ele>167.90039</ele>
        <time>2026-05-13T11:45:06+02:00</time>
      </trkpt>
      <trkpt lat="45.97237" lon="4.75649">
        <ele>167.90039</ele>
        <time>2026-05-13T11:45:07+02:00</time>
      </trkpt>
      <trkpt lat="45.97242" lon="4.75651">
        <ele>168</ele>
        <time>2026-05-13T11:45:08+02:00</time>
      </trkpt>
      <trkpt lat="45.97247" lon="4.75653">
        <ele>168.2002</ele>
        <time>2026-05-13T11:45:09+02:00</time>
      </trkpt>
      <trkpt lat="45.97253" lon="4.75654">
        <ele>168.7002</ele>
        <time>2026-05-13T11:45:10+02:00</time>
      </trkpt>
      <trkpt lat="45.97259" lon="4.75656">
        <ele>169.2002</ele>
        <time>2026-05-13T11:45:11+02:00</time>
      </trkpt>
      <trkpt lat="45.97264" lon="4.75658">
        <ele>170.10059</ele>
        <time>2026-05-13T11:45:12+02:00</time>
      </trkpt>
      <trkpt lat="45.9727" lon="4.75659">
        <ele>170.2998</ele>
        <time>2026-05-13T11:45:13+02:00</time>
      </trkpt>
      <trkpt lat="45.97276" lon="4.75661">
        <ele>170.40039</ele>
        <time>2026-05-13T11:45:14+02:00</time>
      </trkpt>
      <trkpt lat="45.97281" lon="4.75662">
        <ele>170.60059</ele>
        <time>2026-05-13T11:45:15+02:00</time>
      </trkpt>
      <trkpt lat="45.97287" lon="4.75664">
        <ele>170.7002</ele>
        <time>2026-05-13T11:45:16+02:00</time>
      </trkpt>
      <trkpt lat="45.97293" lon="4.75665">
        <ele>170.7998</ele>
        <time>2026-05-13T11:45:17+02:00</time>
      </trkpt>
      <trkpt lat="45.97299" lon="4.75666">
        <ele>172.5</ele>
        <time>2026-05-13T11:45:18+02:00</time>
      </trkpt>
      <trkpt lat="45.97304" lon="4.75667">
        <ele>172.5</ele>
        <time>2026-05-13T11:45:19+02:00</time>
      </trkpt>
      <trkpt lat="45.9731" lon="4.75668">
        <ele>172.7998</ele>
        <time>2026-05-13T11:45:20+02:00</time>
      </trkpt>
      <trkpt lat="45.97316" lon="4.75669">
        <ele>173.10059</ele>
        <time>2026-05-13T11:45:21+02:00</time>
      </trkpt>
      <trkpt lat="45.97322" lon="4.7567">
        <ele>173.40039</ele>
        <time>2026-05-13T11:45:22+02:00</time>
      </trkpt>
      <trkpt lat="45.97328" lon="4.75671">
        <ele>173.7002</ele>
        <time>2026-05-13T11:45:23+02:00</time>
      </trkpt>
      <trkpt lat="45.97334" lon="4.75672">
        <ele>173.90039</ele>
        <time>2026-05-13T11:45:24+02:00</time>
      </trkpt>
      <trkpt lat="45.9734" lon="4.75673">
        <ele>174.10059</ele>
        <time>2026-05-13T11:45:25+02:00</time>
      </trkpt>
      <trkpt lat="45.97345" lon="4.75674">
        <ele>176.5</ele>
        <time>2026-05-13T11:45:26+02:00</time>
      </trkpt>
      <trkpt lat="45.97352" lon="4.75674">
        <ele>176.2998</ele>
        <time>2026-05-13T11:45:27+02:00</time>
      </trkpt>
      <trkpt lat="45.97357" lon="4.75674">
        <ele>176</ele>
        <time>2026-05-13T11:45:28+02:00</time>
      </trkpt>
      <trkpt lat="45.97363" lon="4.75674">
        <ele>175.60059</ele>
        <time>2026-05-13T11:45:29+02:00</time>
      </trkpt>
      <trkpt lat="45.97369" lon="4.75673">
        <ele>173.40039</ele>
        <time>2026-05-13T11:45:30+02:00</time>
      </trkpt>
      <trkpt lat="45.97375" lon="4.75673">
        <ele>173.2002</ele>
        <time>2026-05-13T11:45:31+02:00</time>
      </trkpt>
      <trkpt lat="45.97381" lon="4.75672">
        <ele>172.90039</ele>
        <time>2026-05-13T11:45:32+02:00</time>
      </trkpt>
      <trkpt lat="45.97387" lon="4.75672">
        <ele>172.60059</ele>
        <time>2026-05-13T11:45:33+02:00</time>
      </trkpt>
      <trkpt lat="45.97392" lon="4.75672">
        <ele>172.2002</ele>
        <time>2026-05-13T11:45:34+02:00</time>
      </trkpt>
      <trkpt lat="45.97399" lon="4.75671">
        <ele>171.90039</ele>
        <time>2026-05-13T11:45:35+02:00</time>
      </trkpt>
      <trkpt lat="45.97404" lon="4.75671">
        <ele>171.60059</ele>
        <time>2026-05-13T11:45:36+02:00</time>
      </trkpt>
      <trkpt lat="45.9741" lon="4.7567">
        <ele>171.2998</ele>
        <time>2026-05-13T11:45:37+02:00</time>
      </trkpt>
      <trkpt lat="45.97416" lon="4.7567">
        <ele>171.10059</ele>
        <time>2026-05-13T11:45:38+02:00</time>
      </trkpt>
      <trkpt lat="45.97422" lon="4.7567">
        <ele>170.90039</ele>
        <time>2026-05-13T11:45:39+02:00</time>
      </trkpt>
      <trkpt lat="45.97428" lon="4.7567">
        <ele>170.7002</ele>
        <time>2026-05-13T11:45:40+02:00</time>
      </trkpt>
      <trkpt lat="45.97434" lon="4.75669">
        <ele>170.60059</ele>
        <time>2026-05-13T11:45:41+02:00</time>
      </trkpt>
      <trkpt lat="45.9744" lon="4.75669">
        <ele>170.40039</ele>
        <time>2026-05-13T11:45:42+02:00</time>
      </trkpt>
      <trkpt lat="45.97446" lon="4.75669">
        <ele>170.2002</ele>
        <time>2026-05-13T11:45:43+02:00</time>
      </trkpt>
      <trkpt lat="45.97452" lon="4.75669">
        <ele>170.10059</ele>
        <time>2026-05-13T11:45:44+02:00</time>
      </trkpt>
      <trkpt lat="45.97458" lon="4.75668">
        <ele>169.90039</ele>
        <time>2026-05-13T11:45:45+02:00</time>
      </trkpt>
      <trkpt lat="45.97464" lon="4.75668">
        <ele>169.7998</ele>
        <time>2026-05-13T11:45:46+02:00</time>
      </trkpt>
      <trkpt lat="45.97469" lon="4.75667">
        <ele>169.60059</ele>
        <time>2026-05-13T11:45:47+02:00</time>
      </trkpt>
      <trkpt lat="45.97475" lon="4.75666">
        <ele>169.5</ele>
        <time>2026-05-13T11:45:48+02:00</time>
      </trkpt>
      <trkpt lat="45.97481" lon="4.75665">
        <ele>169.10059</ele>
        <time>2026-05-13T11:45:49+02:00</time>
      </trkpt>
      <trkpt lat="45.97486" lon="4.75664">
        <ele>169</ele>
        <time>2026-05-13T11:45:50+02:00</time>
      </trkpt>
      <trkpt lat="45.97492" lon="4.75662">
        <ele>168.90039</ele>
        <time>2026-05-13T11:45:51+02:00</time>
      </trkpt>
      <trkpt lat="45.97498" lon="4.75661">
        <ele>168.7998</ele>
        <time>2026-05-13T11:45:52+02:00</time>
      </trkpt>
      <trkpt lat="45.97504" lon="4.75659">
        <ele>168.7998</ele>
        <time>2026-05-13T11:45:53+02:00</time>
      </trkpt>
      <trkpt lat="45.9751" lon="4.75657">
        <ele>168.7998</ele>
        <time>2026-05-13T11:45:54+02:00</time>
      </trkpt>
      <trkpt lat="45.97515" lon="4.75654">
        <ele>168.60059</ele>
        <time>2026-05-13T11:45:55+02:00</time>
      </trkpt>
      <trkpt lat="45.97521" lon="4.75651">
        <ele>168.7002</ele>
        <time>2026-05-13T11:45:56+02:00</time>
      </trkpt>
      <trkpt lat="45.97526" lon="4.75648">
        <ele>168.90039</ele>
        <time>2026-05-13T11:45:57+02:00</time>
      </trkpt>
      <trkpt lat="45.97532" lon="4.75647">
        <ele>168.7998</ele>
        <time>2026-05-13T11:45:58+02:00</time>
      </trkpt>
      <trkpt lat="45.97538" lon="4.75646">
        <ele>169</ele>
        <time>2026-05-13T11:45:59+02:00</time>
      </trkpt>
      <trkpt lat="45.97543" lon="4.75645">
        <ele>169</ele>
        <time>2026-05-13T11:46:00+02:00</time>
      </trkpt>
      <trkpt lat="45.9755" lon="4.75644">
        <ele>169.40039</ele>
        <time>2026-05-13T11:46:01+02:00</time>
      </trkpt>
      <trkpt lat="45.97555" lon="4.75643">
        <ele>169.40039</ele>
        <time>2026-05-13T11:46:02+02:00</time>
      </trkpt>
      <trkpt lat="45.97561" lon="4.75641">
        <ele>169.60059</ele>
        <time>2026-05-13T11:46:03+02:00</time>
      </trkpt>
      <trkpt lat="45.97566" lon="4.75638">
        <ele>168.90039</ele>
        <time>2026-05-13T11:46:04+02:00</time>
      </trkpt>
      <trkpt lat="45.97572" lon="4.75636">
        <ele>169</ele>
        <time>2026-05-13T11:46:05+02:00</time>
      </trkpt>
      <trkpt lat="45.97578" lon="4.75633">
        <ele>169.10059</ele>
        <time>2026-05-13T11:46:06+02:00</time>
      </trkpt>
      <trkpt lat="45.97584" lon="4.7563">
        <ele>168.7998</ele>
        <time>2026-05-13T11:46:07+02:00</time>
      </trkpt>
      <trkpt lat="45.97591" lon="4.75627">
        <ele>168.90039</ele>
        <time>2026-05-13T11:46:08+02:00</time>
      </trkpt>
      <trkpt lat="45.97597" lon="4.75625">
        <ele>169</ele>
        <time>2026-05-13T11:46:09+02:00</time>
      </trkpt>
      <trkpt lat="45.97603" lon="4.75623">
        <ele>169</ele>
        <time>2026-05-13T11:46:10+02:00</time>
      </trkpt>
      <trkpt lat="45.97609" lon="4.7562">
        <ele>169.2002</ele>
        <time>2026-05-13T11:46:11+02:00</time>
      </trkpt>
      <trkpt lat="45.97615" lon="4.75617">
        <ele>169.5</ele>
        <time>2026-05-13T11:46:12+02:00</time>
      </trkpt>
      <trkpt lat="45.97622" lon="4.75614">
        <ele>169.7002</ele>
        <time>2026-05-13T11:46:13+02:00</time>
      </trkpt>
      <trkpt lat="45.97628" lon="4.75612">
        <ele>169.40039</ele>
        <time>2026-05-13T11:46:14+02:00</time>
      </trkpt>
      <trkpt lat="45.97633" lon="4.7561">
        <ele>169.40039</ele>
        <time>2026-05-13T11:46:15+02:00</time>
      </trkpt>
      <trkpt lat="45.97639" lon="4.75607">
        <ele>169.5</ele>
        <time>2026-05-13T11:46:16+02:00</time>
      </trkpt>
      <trkpt lat="45.97645" lon="4.75605">
        <ele>169.7002</ele>
        <time>2026-05-13T11:46:17+02:00</time>
      </trkpt>
      <trkpt lat="45.9765" lon="4.75603">
        <ele>169.2002</ele>
        <time>2026-05-13T11:46:18+02:00</time>
      </trkpt>
      <trkpt lat="45.97655" lon="4.75601">
        <ele>169.2998</ele>
        <time>2026-05-13T11:46:19+02:00</time>
      </trkpt>
      <trkpt lat="45.97659" lon="4.756">
        <ele>169.5</ele>
        <time>2026-05-13T11:46:20+02:00</time>
      </trkpt>
      <trkpt lat="45.97664" lon="4.75598">
        <ele>169.60059</ele>
        <time>2026-05-13T11:46:21+02:00</time>
      </trkpt>
      <trkpt lat="45.9767" lon="4.75596">
        <ele>169.10059</ele>
        <time>2026-05-13T11:46:22+02:00</time>
      </trkpt>
      <trkpt lat="45.97675" lon="4.75594">
        <ele>169.2998</ele>
        <time>2026-05-13T11:46:23+02:00</time>
      </trkpt>
      <trkpt lat="45.9768" lon="4.75593">
        <ele>169.2998</ele>
        <time>2026-05-13T11:46:24+02:00</time>
      </trkpt>
      <trkpt lat="45.97685" lon="4.7559">
        <ele>169.40039</ele>
        <time>2026-05-13T11:46:25+02:00</time>
      </trkpt>
      <trkpt lat="45.9769" lon="4.75588">
        <ele>169.60059</ele>
        <time>2026-05-13T11:46:26+02:00</time>
      </trkpt>
      <trkpt lat="45.97695" lon="4.75586">
        <ele>169.2002</ele>
        <time>2026-05-13T11:46:27+02:00</time>
      </trkpt>
      <trkpt lat="45.97701" lon="4.75584">
        <ele>169.40039</ele>
        <time>2026-05-13T11:46:28+02:00</time>
      </trkpt>
      <trkpt lat="45.97706" lon="4.75581">
        <ele>169.60059</ele>
        <time>2026-05-13T11:46:29+02:00</time>
      </trkpt>
      <trkpt lat="45.97711" lon="4.75579">
        <ele>169.60059</ele>
        <time>2026-05-13T11:46:30+02:00</time>
      </trkpt>
      <trkpt lat="45.97717" lon="4.75576">
        <ele>170.10059</ele>
        <time>2026-05-13T11:46:31+02:00</time>
      </trkpt>
      <trkpt lat="45.97722" lon="4.75573">
        <ele>170.10059</ele>
        <time>2026-05-13T11:46:32+02:00</time>
      </trkpt>
      <trkpt lat="45.97727" lon="4.75571">
        <ele>170.60059</ele>
        <time>2026-05-13T11:46:33+02:00</time>
      </trkpt>
      <trkpt lat="45.97733" lon="4.75568">
        <ele>170.2002</ele>
        <time>2026-05-13T11:46:34+02:00</time>
      </trkpt>
      <trkpt lat="45.97738" lon="4.75565">
        <ele>170.2998</ele>
        <time>2026-05-13T11:46:35+02:00</time>
      </trkpt>
      <trkpt lat="45.97743" lon="4.75562">
        <ele>169.60059</ele>
        <time>2026-05-13T11:46:36+02:00</time>
      </trkpt>
      <trkpt lat="45.97748" lon="4.75559">
        <ele>169.7002</ele>
        <time>2026-05-13T11:46:37+02:00</time>
      </trkpt>
      <trkpt lat="45.97753" lon="4.75556">
        <ele>169.7998</ele>
        <time>2026-05-13T11:46:38+02:00</time>
      </trkpt>
      <trkpt lat="45.97759" lon="4.75553">
        <ele>169.2998</ele>
        <time>2026-05-13T11:46:39+02:00</time>
      </trkpt>
      <trkpt lat="45.97764" lon="4.7555">
        <ele>169.2998</ele>
        <time>2026-05-13T11:46:40+02:00</time>
      </trkpt>
      <trkpt lat="45.97769" lon="4.75547">
        <ele>169.40039</ele>
        <time>2026-05-13T11:46:41+02:00</time>
      </trkpt>
      <trkpt lat="45.97774" lon="4.75544">
        <ele>169.10059</ele>
        <time>2026-05-13T11:46:42+02:00</time>
      </trkpt>
      <trkpt lat="45.97779" lon="4.75541">
        <ele>169.2002</ele>
        <time>2026-05-13T11:46:43+02:00</time>
      </trkpt>
      <trkpt lat="45.97785" lon="4.75538">
        <ele>169.2002</ele>
        <time>2026-05-13T11:46:44+02:00</time>
      </trkpt>
      <trkpt lat="45.9779" lon="4.75535">
        <ele>168.90039</ele>
        <time>2026-05-13T11:46:45+02:00</time>
      </trkpt>
      <trkpt lat="45.97794" lon="4.75532">
        <ele>168.90039</ele>
        <time>2026-05-13T11:46:46+02:00</time>
      </trkpt>
      <trkpt lat="45.978" lon="4.75528">
        <ele>168.90039</ele>
        <time>2026-05-13T11:46:47+02:00</time>
      </trkpt>
      <trkpt lat="45.97805" lon="4.75525">
        <ele>168.7002</ele>
        <time>2026-05-13T11:46:48+02:00</time>
      </trkpt>
      <trkpt lat="45.9781" lon="4.75522">
        <ele>168.7002</ele>
        <time>2026-05-13T11:46:49+02:00</time>
      </trkpt>
      <trkpt lat="45.97815" lon="4.75519">
        <ele>168.5</ele>
        <time>2026-05-13T11:46:50+02:00</time>
      </trkpt>
      <trkpt lat="45.9782" lon="4.75515">
        <ele>168.5</ele>
        <time>2026-05-13T11:46:51+02:00</time>
      </trkpt>
      <trkpt lat="45.97825" lon="4.75512">
        <ele>168.5</ele>
        <time>2026-05-13T11:46:52+02:00</time>
      </trkpt>
      <trkpt lat="45.9783" lon="4.75509">
        <ele>168.40039</ele>
        <time>2026-05-13T11:46:53+02:00</time>
      </trkpt>
      <trkpt lat="45.97835" lon="4.75506">
        <ele>168.40039</ele>
        <time>2026-05-13T11:46:54+02:00</time>
      </trkpt>
      <trkpt lat="45.9784" lon="4.75503">
        <ele>168.5</ele>
        <time>2026-05-13T11:46:55+02:00</time>
      </trkpt>
      <trkpt lat="45.97846" lon="4.755">
        <ele>168.40039</ele>
        <time>2026-05-13T11:46:56+02:00</time>
      </trkpt>
      <trkpt lat="45.97851" lon="4.75497">
        <ele>168.60059</ele>
        <time>2026-05-13T11:46:57+02:00</time>
      </trkpt>
      <trkpt lat="45.97856" lon="4.75493">
        <ele>168.5</ele>
        <time>2026-05-13T11:46:58+02:00</time>
      </trkpt>
      <trkpt lat="45.9786" lon="4.7549">
        <ele>168.60059</ele>
        <time>2026-05-13T11:46:59+02:00</time>
      </trkpt>
      <trkpt lat="45.97865" lon="4.75487">
        <ele>168.60059</ele>
        <time>2026-05-13T11:47:00+02:00</time>
      </trkpt>
      <trkpt lat="45.97871" lon="4.75484">
        <ele>168.40039</ele>
        <time>2026-05-13T11:47:01+02:00</time>
      </trkpt>
      <trkpt lat="45.97876" lon="4.75481">
        <ele>168.5</ele>
        <time>2026-05-13T11:47:02+02:00</time>
      </trkpt>
      <trkpt lat="45.97881" lon="4.75478">
        <ele>168.5</ele>
        <time>2026-05-13T11:47:03+02:00</time>
      </trkpt>
      <trkpt lat="45.97886" lon="4.75475">
        <ele>168.40039</ele>
        <time>2026-05-13T11:47:04+02:00</time>
      </trkpt>
      <trkpt lat="45.97891" lon="4.75472">
        <ele>168.5</ele>
        <time>2026-05-13T11:47:05+02:00</time>
      </trkpt>
      <trkpt lat="45.97896" lon="4.75469">
        <ele>168.60059</ele>
        <time>2026-05-13T11:47:06+02:00</time>
      </trkpt>
      <trkpt lat="45.97901" lon="4.75466">
        <ele>168.5</ele>
        <time>2026-05-13T11:47:07+02:00</time>
      </trkpt>
      <trkpt lat="45.97906" lon="4.75463">
        <ele>168.5</ele>
        <time>2026-05-13T11:47:08+02:00</time>
      </trkpt>
      <trkpt lat="45.97911" lon="4.7546">
        <ele>168.60059</ele>
        <time>2026-05-13T11:47:09+02:00</time>
      </trkpt>
      <trkpt lat="45.97917" lon="4.75457">
        <ele>168.60059</ele>
        <time>2026-05-13T11:47:10+02:00</time>
      </trkpt>
      <trkpt lat="45.97922" lon="4.75454">
        <ele>168.7002</ele>
        <time>2026-05-13T11:47:11+02:00</time>
      </trkpt>
      <trkpt lat="45.97927" lon="4.75451">
        <ele>168.7998</ele>
        <time>2026-05-13T11:47:12+02:00</time>
      </trkpt>
      <trkpt lat="45.97933" lon="4.75447">
        <ele>168.60059</ele>
        <time>2026-05-13T11:47:13+02:00</time>
      </trkpt>
      <trkpt lat="45.97938" lon="4.75444">
        <ele>168.7002</ele>
        <time>2026-05-13T11:47:14+02:00</time>
      </trkpt>
      <trkpt lat="45.97943" lon="4.75441">
        <ele>168.60059</ele>
        <time>2026-05-13T11:47:15+02:00</time>
      </trkpt>
      <trkpt lat="45.97949" lon="4.75438">
        <ele>168.7002</ele>
        <time>2026-05-13T11:47:16+02:00</time>
      </trkpt>
      <trkpt lat="45.97954" lon="4.75434">
        <ele>168.7002</ele>
        <time>2026-05-13T11:47:17+02:00</time>
      </trkpt>
      <trkpt lat="45.97959" lon="4.75431">
        <ele>168.60059</ele>
        <time>2026-05-13T11:47:18+02:00</time>
      </trkpt>
      <trkpt lat="45.97964" lon="4.75428">
        <ele>168.7002</ele>
        <time>2026-05-13T11:47:19+02:00</time>
      </trkpt>
      <trkpt lat="45.9797" lon="4.75425">
        <ele>168.7998</ele>
        <time>2026-05-13T11:47:20+02:00</time>
      </trkpt>
      <trkpt lat="45.97975" lon="4.75422">
        <ele>168.7998</ele>
        <time>2026-05-13T11:47:21+02:00</time>
      </trkpt>
      <trkpt lat="45.9798" lon="4.75419">
        <ele>169</ele>
        <time>2026-05-13T11:47:22+02:00</time>
      </trkpt>
      <trkpt lat="45.97985" lon="4.75415">
        <ele>169</ele>
        <time>2026-05-13T11:47:23+02:00</time>
      </trkpt>
      <trkpt lat="45.97991" lon="4.75412">
        <ele>169.2002</ele>
        <time>2026-05-13T11:47:24+02:00</time>
      </trkpt>
      <trkpt lat="45.97996" lon="4.75409">
        <ele>169.2002</ele>
        <time>2026-05-13T11:47:25+02:00</time>
      </trkpt>
      <trkpt lat="45.98001" lon="4.75406">
        <ele>168.90039</ele>
        <time>2026-05-13T11:47:26+02:00</time>
      </trkpt>
      <trkpt lat="45.98006" lon="4.75403">
        <ele>169</ele>
        <time>2026-05-13T11:47:27+02:00</time>
      </trkpt>
      <trkpt lat="45.98012" lon="4.754">
        <ele>169.10059</ele>
        <time>2026-05-13T11:47:28+02:00</time>
      </trkpt>
      <trkpt lat="45.98017" lon="4.75397">
        <ele>168.7998</ele>
        <time>2026-05-13T11:47:29+02:00</time>
      </trkpt>
      <trkpt lat="45.98022" lon="4.75394">
        <ele>168.90039</ele>
        <time>2026-05-13T11:47:30+02:00</time>
      </trkpt>
      <trkpt lat="45.98028" lon="4.75391">
        <ele>169</ele>
        <time>2026-05-13T11:47:31+02:00</time>
      </trkpt>
      <trkpt lat="45.98033" lon="4.75387">
        <ele>168.7002</ele>
        <time>2026-05-13T11:47:32+02:00</time>
      </trkpt>
      <trkpt lat="45.98038" lon="4.75384">
        <ele>168.7002</ele>
        <time>2026-05-13T11:47:33+02:00</time>
      </trkpt>
      <trkpt lat="45.98044" lon="4.75381">
        <ele>168.5</ele>
        <time>2026-05-13T11:47:34+02:00</time>
      </trkpt>
      <trkpt lat="45.98049" lon="4.75378">
        <ele>168.60059</ele>
        <time>2026-05-13T11:47:35+02:00</time>
      </trkpt>
      <trkpt lat="45.98055" lon="4.75375">
        <ele>168.7998</ele>
        <time>2026-05-13T11:47:36+02:00</time>
      </trkpt>
      <trkpt lat="45.9806" lon="4.75372">
        <ele>168.7002</ele>
        <time>2026-05-13T11:47:37+02:00</time>
      </trkpt>
      <trkpt lat="45.98065" lon="4.75369">
        <ele>168.90039</ele>
        <time>2026-05-13T11:47:38+02:00</time>
      </trkpt>
      <trkpt lat="45.9807" lon="4.75366">
        <ele>169.10059</ele>
        <time>2026-05-13T11:47:39+02:00</time>
      </trkpt>
      <trkpt lat="45.98076" lon="4.75363">
        <ele>168.7998</ele>
        <time>2026-05-13T11:47:40+02:00</time>
      </trkpt>
      <trkpt lat="45.98081" lon="4.7536">
        <ele>168.90039</ele>
        <time>2026-05-13T11:47:41+02:00</time>
      </trkpt>
      <trkpt lat="45.98086" lon="4.75357">
        <ele>169</ele>
        <time>2026-05-13T11:47:42+02:00</time>
      </trkpt>
      <trkpt lat="45.98091" lon="4.75354">
        <ele>168.60059</ele>
        <time>2026-05-13T11:47:43+02:00</time>
      </trkpt>
      <trkpt lat="45.98097" lon="4.75352">
        <ele>168.7998</ele>
        <time>2026-05-13T11:47:44+02:00</time>
      </trkpt>
      <trkpt lat="45.98102" lon="4.75349">
        <ele>169</ele>
        <time>2026-05-13T11:47:45+02:00</time>
      </trkpt>
      <trkpt lat="45.98107" lon="4.75346">
        <ele>168.7998</ele>
        <time>2026-05-13T11:47:46+02:00</time>
      </trkpt>
      <trkpt lat="45.98111" lon="4.75343">
        <ele>169</ele>
        <time>2026-05-13T11:47:47+02:00</time>
      </trkpt>
      <trkpt lat="45.98116" lon="4.7534">
        <ele>169.2998</ele>
        <time>2026-05-13T11:47:48+02:00</time>
      </trkpt>
      <trkpt lat="45.98121" lon="4.75337">
        <ele>168.90039</ele>
        <time>2026-05-13T11:47:49+02:00</time>
      </trkpt>
      <trkpt lat="45.98125" lon="4.75335">
        <ele>169.2002</ele>
        <time>2026-05-13T11:47:50+02:00</time>
      </trkpt>
      <trkpt lat="45.98129" lon="4.75335">
        <ele>169.5</ele>
        <time>2026-05-13T11:47:51+02:00</time>
      </trkpt>
      <trkpt lat="45.98133" lon="4.75336">
        <ele>169.5</ele>
        <time>2026-05-13T11:47:52+02:00</time>
      </trkpt>
      <trkpt lat="45.98136" lon="4.75337">
        <ele>169.7998</ele>
        <time>2026-05-13T11:47:53+02:00</time>
      </trkpt>
      <trkpt lat="45.9814" lon="4.75337">
        <ele>170.10059</ele>
        <time>2026-05-13T11:47:54+02:00</time>
      </trkpt>
      <trkpt lat="45.98144" lon="4.75336">
        <ele>170.10059</ele>
        <time>2026-05-13T11:47:55+02:00</time>
      </trkpt>
      <trkpt lat="45.98148" lon="4.75334">
        <ele>170.5</ele>
        <time>2026-05-13T11:47:56+02:00</time>
      </trkpt>
      <trkpt lat="45.98152" lon="4.75331">
        <ele>170.90039</ele>
        <time>2026-05-13T11:47:57+02:00</time>
      </trkpt>
      <trkpt lat="45.98156" lon="4.75328">
        <ele>170.5</ele>
        <time>2026-05-13T11:47:58+02:00</time>
      </trkpt>
      <trkpt lat="45.98161" lon="4.75326">
        <ele>170.90039</ele>
        <time>2026-05-13T11:47:59+02:00</time>
      </trkpt>
      <trkpt lat="45.98166" lon="4.75323">
        <ele>171.40039</ele>
        <time>2026-05-13T11:48:00+02:00</time>
      </trkpt>
      <trkpt lat="45.98171" lon="4.7532">
        <ele>171.2002</ele>
        <time>2026-05-13T11:48:01+02:00</time>
      </trkpt>
      <trkpt lat="45.98175" lon="4.75318">
        <ele>171.2002</ele>
        <time>2026-05-13T11:48:02+02:00</time>
      </trkpt>
      <trkpt lat="45.9818" lon="4.75315">
        <ele>171.40039</ele>
        <time>2026-05-13T11:48:03+02:00</time>
      </trkpt>
      <trkpt lat="45.98185" lon="4.75313">
        <ele>171.10059</ele>
        <time>2026-05-13T11:48:04+02:00</time>
      </trkpt>
      <trkpt lat="45.9819" lon="4.75311">
        <ele>171.40039</ele>
        <time>2026-05-13T11:48:05+02:00</time>
      </trkpt>
      <trkpt lat="45.98195" lon="4.75311">
        <ele>171.60059</ele>
        <time>2026-05-13T11:48:06+02:00</time>
      </trkpt>
      <trkpt lat="45.982" lon="4.75311">
        <ele>171.90039</ele>
        <time>2026-05-13T11:48:07+02:00</time>
      </trkpt>
      <trkpt lat="45.98206" lon="4.75312">
        <ele>172.2002</ele>
        <time>2026-05-13T11:48:08+02:00</time>
      </trkpt>
      <trkpt lat="45.98211" lon="4.75313">
        <ele>172.2002</ele>
        <time>2026-05-13T11:48:09+02:00</time>
      </trkpt>
      <trkpt lat="45.98216" lon="4.75315">
        <ele>172.7998</ele>
        <time>2026-05-13T11:48:10+02:00</time>
      </trkpt>
      <trkpt lat="45.98221" lon="4.75317">
        <ele>173.10059</ele>
        <time>2026-05-13T11:48:11+02:00</time>
      </trkpt>
      <trkpt lat="45.98227" lon="4.75319">
        <ele>173.40039</ele>
        <time>2026-05-13T11:48:12+02:00</time>
      </trkpt>
      <trkpt lat="45.98232" lon="4.75321">
        <ele>173.7002</ele>
        <time>2026-05-13T11:48:13+02:00</time>
      </trkpt>
      <trkpt lat="45.98237" lon="4.75323">
        <ele>174.2002</ele>
        <time>2026-05-13T11:48:14+02:00</time>
      </trkpt>
      <trkpt lat="45.98242" lon="4.75325">
        <ele>174.2998</ele>
        <time>2026-05-13T11:48:15+02:00</time>
      </trkpt>
      <trkpt lat="45.98247" lon="4.75327">
        <ele>174.40039</ele>
        <time>2026-05-13T11:48:16+02:00</time>
      </trkpt>
      <trkpt lat="45.98253" lon="4.75329">
        <ele>174.40039</ele>
        <time>2026-05-13T11:48:17+02:00</time>
      </trkpt>
      <trkpt lat="45.98258" lon="4.75331">
        <ele>174.5</ele>
        <time>2026-05-13T11:48:18+02:00</time>
      </trkpt>
      <trkpt lat="45.98264" lon="4.75332">
        <ele>174.5</ele>
        <time>2026-05-13T11:48:19+02:00</time>
      </trkpt>
      <trkpt lat="45.98269" lon="4.75332">
        <ele>174.5</ele>
        <time>2026-05-13T11:48:20+02:00</time>
      </trkpt>
      <trkpt lat="45.98275" lon="4.75332">
        <ele>174.40039</ele>
        <time>2026-05-13T11:48:21+02:00</time>
      </trkpt>
      <trkpt lat="45.9828" lon="4.75332">
        <ele>174.40039</ele>
        <time>2026-05-13T11:48:22+02:00</time>
      </trkpt>
      <trkpt lat="45.98285" lon="4.75331">
        <ele>174.2998</ele>
        <time>2026-05-13T11:48:23+02:00</time>
      </trkpt>
      <trkpt lat="45.9829" lon="4.7533">
        <ele>174.2002</ele>
        <time>2026-05-13T11:48:24+02:00</time>
      </trkpt>
      <trkpt lat="45.98295" lon="4.75329">
        <ele>174.2002</ele>
        <time>2026-05-13T11:48:25+02:00</time>
      </trkpt>
      <trkpt lat="45.98301" lon="4.75327">
        <ele>174.10059</ele>
        <time>2026-05-13T11:48:26+02:00</time>
      </trkpt>
      <trkpt lat="45.98306" lon="4.75325">
        <ele>174.10059</ele>
        <time>2026-05-13T11:48:27+02:00</time>
      </trkpt>
      <trkpt lat="45.98311" lon="4.75323">
        <ele>174.10059</ele>
        <time>2026-05-13T11:48:28+02:00</time>
      </trkpt>
      <trkpt lat="45.98316" lon="4.75322">
        <ele>174</ele>
        <time>2026-05-13T11:48:29+02:00</time>
      </trkpt>
      <trkpt lat="45.98322" lon="4.7532">
        <ele>173.90039</ele>
        <time>2026-05-13T11:48:30+02:00</time>
      </trkpt>
      <trkpt lat="45.98327" lon="4.75318">
        <ele>173.90039</ele>
        <time>2026-05-13T11:48:31+02:00</time>
      </trkpt>
      <trkpt lat="45.98333" lon="4.75317">
        <ele>173.90039</ele>
        <time>2026-05-13T11:48:32+02:00</time>
      </trkpt>
      <trkpt lat="45.98338" lon="4.75316">
        <ele>173.90039</ele>
        <time>2026-05-13T11:48:33+02:00</time>
      </trkpt>
      <trkpt lat="45.98343" lon="4.75315">
        <ele>173.90039</ele>
        <time>2026-05-13T11:48:34+02:00</time>
      </trkpt>
      <trkpt lat="45.98349" lon="4.75313">
        <ele>173.7998</ele>
        <time>2026-05-13T11:48:35+02:00</time>
      </trkpt>
      <trkpt lat="45.98354" lon="4.75312">
        <ele>173.7998</ele>
        <time>2026-05-13T11:48:36+02:00</time>
      </trkpt>
      <trkpt lat="45.98359" lon="4.7531">
        <ele>173.90039</ele>
        <time>2026-05-13T11:48:37+02:00</time>
      </trkpt>
      <trkpt lat="45.98364" lon="4.75309">
        <ele>173.90039</ele>
        <time>2026-05-13T11:48:38+02:00</time>
      </trkpt>
      <trkpt lat="45.98369" lon="4.75307">
        <ele>173.90039</ele>
        <time>2026-05-13T11:48:39+02:00</time>
      </trkpt>
      <trkpt lat="45.98374" lon="4.75306">
        <ele>174</ele>
        <time>2026-05-13T11:48:40+02:00</time>
      </trkpt>
      <trkpt lat="45.98379" lon="4.75304">
        <ele>174</ele>
        <time>2026-05-13T11:48:41+02:00</time>
      </trkpt>
      <trkpt lat="45.98385" lon="4.75303">
        <ele>174.10059</ele>
        <time>2026-05-13T11:48:42+02:00</time>
      </trkpt>
      <trkpt lat="45.9839" lon="4.75302">
        <ele>174.10059</ele>
        <time>2026-05-13T11:48:43+02:00</time>
      </trkpt>
      <trkpt lat="45.98395" lon="4.75301">
        <ele>174.10059</ele>
        <time>2026-05-13T11:48:44+02:00</time>
      </trkpt>
      <trkpt lat="45.98401" lon="4.75301">
        <ele>174.2002</ele>
        <time>2026-05-13T11:48:45+02:00</time>
      </trkpt>
      <trkpt lat="45.98406" lon="4.75301">
        <ele>174.2002</ele>
        <time>2026-05-13T11:48:46+02:00</time>
      </trkpt>
      <trkpt lat="45.98411" lon="4.753">
        <ele>174.2002</ele>
        <time>2026-05-13T11:48:47+02:00</time>
      </trkpt>
      <trkpt lat="45.98416" lon="4.753">
        <ele>174.2002</ele>
        <time>2026-05-13T11:48:48+02:00</time>
      </trkpt>
      <trkpt lat="45.9842" lon="4.75301">
        <ele>174.2002</ele>
        <time>2026-05-13T11:48:49+02:00</time>
      </trkpt>
      <trkpt lat="45.98424" lon="4.75301">
        <ele>174.2002</ele>
        <time>2026-05-13T11:48:50+02:00</time>
      </trkpt>
      <trkpt lat="45.98427" lon="4.75301">
        <ele>174.2002</ele>
        <time>2026-05-13T11:48:51+02:00</time>
      </trkpt>
      <trkpt lat="45.9843" lon="4.75301">
        <ele>174.2002</ele>
        <time>2026-05-13T11:48:52+02:00</time>
      </trkpt>
      <trkpt lat="45.98432" lon="4.75299">
        <ele>174.2002</ele>
        <time>2026-05-13T11:48:53+02:00</time>
      </trkpt>
      <trkpt lat="45.98434" lon="4.75298">
        <ele>174.2002</ele>
        <time>2026-05-13T11:48:54+02:00</time>
      </trkpt>
      <trkpt lat="45.98435" lon="4.75295">
        <ele>174.2998</ele>
        <time>2026-05-13T11:48:55+02:00</time>
      </trkpt>
      <trkpt lat="45.98437" lon="4.75294">
        <ele>174.2998</ele>
        <time>2026-05-13T11:48:56+02:00</time>
      </trkpt>
      <trkpt lat="45.9844" lon="4.75295">
        <ele>174.2002</ele>
        <time>2026-05-13T11:48:57+02:00</time>
      </trkpt>
      <trkpt lat="45.98443" lon="4.75295">
        <ele>174.2002</ele>
        <time>2026-05-13T11:48:58+02:00</time>
      </trkpt>
      <trkpt lat="45.98445" lon="4.75295">
        <ele>174.2002</ele>
        <time>2026-05-13T11:48:59+02:00</time>
      </trkpt>
      <trkpt lat="45.98446" lon="4.75296">
        <ele>174.2002</ele>
        <time>2026-05-13T11:49:00+02:00</time>
      </trkpt>
      <trkpt lat="45.98448" lon="4.75297">
        <ele>174.2002</ele>
        <time>2026-05-13T11:49:01+02:00</time>
      </trkpt>
      <trkpt lat="45.98449" lon="4.75297">
        <ele>174.2002</ele>
        <time>2026-05-13T11:49:02+02:00</time>
      </trkpt>
      <trkpt lat="45.98449" lon="4.75296">
        <ele>174.2002</ele>
        <time>2026-05-13T11:49:03+02:00</time>
      </trkpt>
      <trkpt lat="45.9845" lon="4.75295">
        <ele>174.2002</ele>
        <time>2026-05-13T11:49:04+02:00</time>
      </trkpt>
      <trkpt lat="45.98451" lon="4.75296">
        <ele>174.2002</ele>
        <time>2026-05-13T11:49:05+02:00</time>
      </trkpt>
      <trkpt lat="45.98456" lon="4.75301">
        <ele>174.10059</ele>
        <time>2026-05-13T11:49:08+02:00</time>
      </trkpt>
      <trkpt lat="45.98459" lon="4.75302">
        <ele>174.10059</ele>
        <time>2026-05-13T11:49:09+02:00</time>
      </trkpt>
      <trkpt lat="45.98462" lon="4.75303">
        <ele>174.10059</ele>
        <time>2026-05-13T11:49:10+02:00</time>
      </trkpt>
      <trkpt lat="45.98465" lon="4.75303">
        <ele>174.10059</ele>
        <time>2026-05-13T11:49:11+02:00</time>
      </trkpt>
      <trkpt lat="45.98469" lon="4.75303">
        <ele>174.10059</ele>
        <time>2026-05-13T11:49:12+02:00</time>
      </trkpt>
      <trkpt lat="45.98472" lon="4.75304">
        <ele>174.10059</ele>
        <time>2026-05-13T11:49:13+02:00</time>
      </trkpt>
      <trkpt lat="45.98476" lon="4.75305">
        <ele>174</ele>
        <time>2026-05-13T11:49:14+02:00</time>
      </trkpt>
      <trkpt lat="45.9848" lon="4.75305">
        <ele>174</ele>
        <time>2026-05-13T11:49:15+02:00</time>
      </trkpt>
      <trkpt lat="45.98483" lon="4.75306">
        <ele>174</ele>
        <time>2026-05-13T11:49:16+02:00</time>
      </trkpt>
      <trkpt lat="45.98487" lon="4.75307">
        <ele>174</ele>
        <time>2026-05-13T11:49:17+02:00</time>
      </trkpt>
      <trkpt lat="45.98491" lon="4.75307">
        <ele>174</ele>
        <time>2026-05-13T11:49:18+02:00</time>
      </trkpt>
      <trkpt lat="45.98494" lon="4.75308">
        <ele>174</ele>
        <time>2026-05-13T11:49:19+02:00</time>
      </trkpt>
      <trkpt lat="45.98498" lon="4.75308">
        <ele>174.10059</ele>
        <time>2026-05-13T11:49:20+02:00</time>
      </trkpt>
      <trkpt lat="45.985" lon="4.7531">
        <ele>174.10059</ele>
        <time>2026-05-13T11:49:21+02:00</time>
      </trkpt>
      <trkpt lat="45.98502" lon="4.75311">
        <ele>174.10059</ele>
        <time>2026-05-13T11:49:22+02:00</time>
      </trkpt>
      <trkpt lat="45.98505" lon="4.75313">
        <ele>174.10059</ele>
        <time>2026-05-13T11:49:23+02:00</time>
      </trkpt>
      <trkpt lat="45.98507" lon="4.75316">
        <ele>174.10059</ele>
        <time>2026-05-13T11:49:24+02:00</time>
      </trkpt>
      <trkpt lat="45.98509" lon="4.75319">
        <ele>174.10059</ele>
        <time>2026-05-13T11:49:25+02:00</time>
      </trkpt>
      <trkpt lat="45.98512" lon="4.75322">
        <ele>174.10059</ele>
        <time>2026-05-13T11:49:26+02:00</time>
      </trkpt>
      <trkpt lat="45.98516" lon="4.75325">
        <ele>174.2002</ele>
        <time>2026-05-13T11:49:27+02:00</time>
      </trkpt>
      <trkpt lat="45.9852" lon="4.75327">
        <ele>174.2002</ele>
        <time>2026-05-13T11:49:28+02:00</time>
      </trkpt>
      <trkpt lat="45.98525" lon="4.75328">
        <ele>174.2998</ele>
        <time>2026-05-13T11:49:29+02:00</time>
      </trkpt>
      <trkpt lat="45.9853" lon="4.75326">
        <ele>174.2998</ele>
        <time>2026-05-13T11:49:30+02:00</time>
      </trkpt>
      <trkpt lat="45.98533" lon="4.75322">
        <ele>174.2998</ele>
        <time>2026-05-13T11:49:31+02:00</time>
      </trkpt>
      <trkpt lat="45.98535" lon="4.75316">
        <ele>174.2998</ele>
        <time>2026-05-13T11:49:32+02:00</time>
      </trkpt>
      <trkpt lat="45.98535" lon="4.75309">
        <ele>174.2998</ele>
        <time>2026-05-13T11:49:33+02:00</time>
      </trkpt>
      <trkpt lat="45.98534" lon="4.75301">
        <ele>174.2998</ele>
        <time>2026-05-13T11:49:34+02:00</time>
      </trkpt>
      <trkpt lat="45.98533" lon="4.75294">
        <ele>174.2002</ele>
        <time>2026-05-13T11:49:35+02:00</time>
      </trkpt>
      <trkpt lat="45.98533" lon="4.75286">
        <ele>174.10059</ele>
        <time>2026-05-13T11:49:36+02:00</time>
      </trkpt>
      <trkpt lat="45.98532" lon="4.75279">
        <ele>174.10059</ele>
        <time>2026-05-13T11:49:37+02:00</time>
      </trkpt>
      <trkpt lat="45.98531" lon="4.75271">
        <ele>174.10059</ele>
        <time>2026-05-13T11:49:38+02:00</time>
      </trkpt>
      <trkpt lat="45.9853" lon="4.75263">
        <ele>174</ele>
        <time>2026-05-13T11:49:39+02:00</time>
      </trkpt>
      <trkpt lat="45.98528" lon="4.75256">
        <ele>174</ele>
        <time>2026-05-13T11:49:40+02:00</time>
      </trkpt>
      <trkpt lat="45.98527" lon="4.7525">
        <ele>174</ele>
        <time>2026-05-13T11:49:41+02:00</time>
      </trkpt>
      <trkpt lat="45.98527" lon="4.75246">
        <ele>174</ele>
        <time>2026-05-13T11:49:42+02:00</time>
      </trkpt>
      <trkpt lat="45.98528" lon="4.75243">
        <ele>174</ele>
        <time>2026-05-13T11:49:43+02:00</time>
      </trkpt>
      <trkpt lat="45.9853" lon="4.75239">
        <ele>174</ele>
        <time>2026-05-13T11:49:44+02:00</time>
      </trkpt>
      <trkpt lat="45.98531" lon="4.75236">
        <ele>174</ele>
        <time>2026-05-13T11:49:45+02:00</time>
      </trkpt>
      <trkpt lat="45.98532" lon="4.75233">
        <ele>174</ele>
        <time>2026-05-13T11:49:46+02:00</time>
      </trkpt>
      <trkpt lat="45.98534" lon="4.7523">
        <ele>174</ele>
        <time>2026-05-13T11:49:47+02:00</time>
      </trkpt>
      <trkpt lat="45.98535" lon="4.75228">
        <ele>174</ele>
        <time>2026-05-13T11:49:48+02:00</time>
      </trkpt>
      <trkpt lat="45.98537" lon="4.75226">
        <ele>174</ele>
        <time>2026-05-13T11:49:49+02:00</time>
      </trkpt>
      <trkpt lat="45.98539" lon="4.75226">
        <ele>174</ele>
        <time>2026-05-13T11:49:50+02:00</time>
      </trkpt>
      <trkpt lat="45.98543" lon="4.75226">
        <ele>174</ele>
        <time>2026-05-13T11:49:51+02:00</time>
      </trkpt>
      <trkpt lat="45.98546" lon="4.75226">
        <ele>174</ele>
        <time>2026-05-13T11:49:52+02:00</time>
      </trkpt>
      <trkpt lat="45.9855" lon="4.75225">
        <ele>174</ele>
        <time>2026-05-13T11:49:53+02:00</time>
      </trkpt>
      <trkpt lat="45.98554" lon="4.75225">
        <ele>174</ele>
        <time>2026-05-13T11:49:54+02:00</time>
      </trkpt>
      <trkpt lat="45.98559" lon="4.75225">
        <ele>174</ele>
        <time>2026-05-13T11:49:55+02:00</time>
      </trkpt>
      <trkpt lat="45.98563" lon="4.75225">
        <ele>174</ele>
        <time>2026-05-13T11:49:56+02:00</time>
      </trkpt>
      <trkpt lat="45.98567" lon="4.75225">
        <ele>174</ele>
        <time>2026-05-13T11:49:57+02:00</time>
      </trkpt>
      <trkpt lat="45.98572" lon="4.75226">
        <ele>174</ele>
        <time>2026-05-13T11:49:58+02:00</time>
      </trkpt>
      <trkpt lat="45.98576" lon="4.75225">
        <ele>173.90039</ele>
        <time>2026-05-13T11:49:59+02:00</time>
      </trkpt>
      <trkpt lat="45.98581" lon="4.75225">
        <ele>173.90039</ele>
        <time>2026-05-13T11:50:00+02:00</time>
      </trkpt>
      <trkpt lat="45.98586" lon="4.75225">
        <ele>173.7002</ele>
        <time>2026-05-13T11:50:01+02:00</time>
      </trkpt>
      <trkpt lat="45.98591" lon="4.75225">
        <ele>173.40039</ele>
        <time>2026-05-13T11:50:02+02:00</time>
      </trkpt>
      <trkpt lat="45.98596" lon="4.75224">
        <ele>173.10059</ele>
        <time>2026-05-13T11:50:03+02:00</time>
      </trkpt>
      <trkpt lat="45.98602" lon="4.75224">
        <ele>172.7998</ele>
        <time>2026-05-13T11:50:04+02:00</time>
      </trkpt>
      <trkpt lat="45.98607" lon="4.75224">
        <ele>172.5</ele>
        <time>2026-05-13T11:50:05+02:00</time>
      </trkpt>
      <trkpt lat="45.98612" lon="4.75223">
        <ele>172.2002</ele>
        <time>2026-05-13T11:50:06+02:00</time>
      </trkpt>
      <trkpt lat="45.98615" lon="4.75223">
        <ele>172.2002</ele>
        <time>2026-05-13T11:50:07+02:00</time>
      </trkpt>
      <trkpt lat="45.98618" lon="4.75223">
        <ele>171.90039</ele>
        <time>2026-05-13T11:50:08+02:00</time>
      </trkpt>
      <trkpt lat="45.9862" lon="4.75223">
        <ele>171.90039</ele>
        <time>2026-05-13T11:50:09+02:00</time>
      </trkpt>
      <trkpt lat="45.98621" lon="4.75221">
        <ele>171.90039</ele>
        <time>2026-05-13T11:50:10+02:00</time>
      </trkpt>
      <trkpt lat="45.9862" lon="4.7522">
        <ele>171.90039</ele>
        <time>2026-05-13T11:50:11+02:00</time>
      </trkpt>
      <trkpt lat="45.98619" lon="4.75217">
        <ele>171.60059</ele>
        <time>2026-05-13T11:50:12+02:00</time>
      </trkpt>
      <trkpt lat="45.98617" lon="4.75215">
        <ele>171.60059</ele>
        <time>2026-05-13T11:50:13+02:00</time>
      </trkpt>
      <trkpt lat="45.98614" lon="4.75212">
        <ele>171.90039</ele>
        <time>2026-05-13T11:50:14+02:00</time>
      </trkpt>
      <trkpt lat="45.98611" lon="4.75209">
        <ele>171.5</ele>
        <time>2026-05-13T11:50:15+02:00</time>
      </trkpt>
      <trkpt lat="45.98608" lon="4.75206">
        <ele>171.7998</ele>
        <time>2026-05-13T11:50:16+02:00</time>
      </trkpt>
      <trkpt lat="45.98605" lon="4.75203">
        <ele>171.7998</ele>
        <time>2026-05-13T11:50:17+02:00</time>
      </trkpt>
      <trkpt lat="45.98602" lon="4.75199">
        <ele>171.5</ele>
        <time>2026-05-13T11:50:18+02:00</time>
      </trkpt>
      <trkpt lat="45.986" lon="4.75196">
        <ele>171.5</ele>
        <time>2026-05-13T11:50:19+02:00</time>
      </trkpt>
      <trkpt lat="45.98598" lon="4.75194">
        <ele>171.7002</ele>
        <time>2026-05-13T11:50:20+02:00</time>
      </trkpt>
      <trkpt lat="45.98596" lon="4.75192">
        <ele>170.90039</ele>
        <time>2026-05-13T11:50:21+02:00</time>
      </trkpt>
      <trkpt lat="45.98596" lon="4.7519">
        <ele>170.90039</ele>
        <time>2026-05-13T11:50:22+02:00</time>
      </trkpt>
      <trkpt lat="45.98596" lon="4.75187">
        <ele>170.90039</ele>
        <time>2026-05-13T11:50:23+02:00</time>
      </trkpt>
      <trkpt lat="45.98597" lon="4.75185">
        <ele>170.90039</ele>
        <time>2026-05-13T11:50:24+02:00</time>
      </trkpt>
      <trkpt lat="45.98599" lon="4.75186">
        <ele>170.90039</ele>
        <time>2026-05-13T11:50:25+02:00</time>
      </trkpt>
      <trkpt lat="45.98602" lon="4.75187">
        <ele>170.7002</ele>
        <time>2026-05-13T11:50:26+02:00</time>
      </trkpt>
      <trkpt lat="45.98605" lon="4.75189">
        <ele>170.5</ele>
        <time>2026-05-13T11:50:27+02:00</time>
      </trkpt>
      <trkpt lat="45.98609" lon="4.75191">
        <ele>170.5</ele>
        <time>2026-05-13T11:50:28+02:00</time>
      </trkpt>
      <trkpt lat="45.98613" lon="4.75191">
        <ele>170.2998</ele>
        <time>2026-05-13T11:50:29+02:00</time>
      </trkpt>
      <trkpt lat="45.98618" lon="4.75192">
        <ele>170.2002</ele>
        <time>2026-05-13T11:50:30+02:00</time>
      </trkpt>
      <trkpt lat="45.98623" lon="4.75193">
        <ele>170.40039</ele>
        <time>2026-05-13T11:50:31+02:00</time>
      </trkpt>
      <trkpt lat="45.98628" lon="4.75193">
        <ele>170.40039</ele>
        <time>2026-05-13T11:50:32+02:00</time>
      </trkpt>
      <trkpt lat="45.98633" lon="4.75193">
        <ele>170.2002</ele>
        <time>2026-05-13T11:50:33+02:00</time>
      </trkpt>
      <trkpt lat="45.98639" lon="4.75193">
        <ele>170</ele>
        <time>2026-05-13T11:50:34+02:00</time>
      </trkpt>
      <trkpt lat="45.98644" lon="4.75193">
        <ele>169.7998</ele>
        <time>2026-05-13T11:50:35+02:00</time>
      </trkpt>
      <trkpt lat="45.9865" lon="4.75192">
        <ele>169.2998</ele>
        <time>2026-05-13T11:50:36+02:00</time>
      </trkpt>
      <trkpt lat="45.98656" lon="4.75192">
        <ele>169.10059</ele>
        <time>2026-05-13T11:50:37+02:00</time>
      </trkpt>
      <trkpt lat="45.98662" lon="4.75191">
        <ele>169</ele>
        <time>2026-05-13T11:50:38+02:00</time>
      </trkpt>
      <trkpt lat="45.98668" lon="4.7519">
        <ele>168.7998</ele>
        <time>2026-05-13T11:50:39+02:00</time>
      </trkpt>
      <trkpt lat="45.98674" lon="4.75189">
        <ele>168.7002</ele>
        <time>2026-05-13T11:50:40+02:00</time>
      </trkpt>
      <trkpt lat="45.9868" lon="4.75189">
        <ele>168.5</ele>
        <time>2026-05-13T11:50:41+02:00</time>
      </trkpt>
      <trkpt lat="45.98686" lon="4.75189">
        <ele>168.2998</ele>
        <time>2026-05-13T11:50:42+02:00</time>
      </trkpt>
      <trkpt lat="45.98692" lon="4.75189">
        <ele>168.2002</ele>
        <time>2026-05-13T11:50:43+02:00</time>
      </trkpt>
      <trkpt lat="45.98699" lon="4.7519">
        <ele>168.2002</ele>
        <time>2026-05-13T11:50:44+02:00</time>
      </trkpt>
      <trkpt lat="45.98704" lon="4.7519">
        <ele>168.10059</ele>
        <time>2026-05-13T11:50:45+02:00</time>
      </trkpt>
      <trkpt lat="45.9871" lon="4.75192">
        <ele>168.10059</ele>
        <time>2026-05-13T11:50:46+02:00</time>
      </trkpt>
      <trkpt lat="45.98716" lon="4.75193">
        <ele>168.10059</ele>
        <time>2026-05-13T11:50:47+02:00</time>
      </trkpt>
      <trkpt lat="45.98721" lon="4.75196">
        <ele>168.10059</ele>
        <time>2026-05-13T11:50:48+02:00</time>
      </trkpt>
      <trkpt lat="45.98727" lon="4.75198">
        <ele>168.10059</ele>
        <time>2026-05-13T11:50:49+02:00</time>
      </trkpt>
      <trkpt lat="45.98733" lon="4.752">
        <ele>168.10059</ele>
        <time>2026-05-13T11:50:50+02:00</time>
      </trkpt>
      <trkpt lat="45.98738" lon="4.75203">
        <ele>168.2998</ele>
        <time>2026-05-13T11:50:51+02:00</time>
      </trkpt>
      <trkpt lat="45.98743" lon="4.75205">
        <ele>168.2998</ele>
        <time>2026-05-13T11:50:52+02:00</time>
      </trkpt>
      <trkpt lat="45.98747" lon="4.75207">
        <ele>168.2998</ele>
        <time>2026-05-13T11:50:53+02:00</time>
      </trkpt>
      <trkpt lat="45.98752" lon="4.7521">
        <ele>168.2998</ele>
        <time>2026-05-13T11:50:54+02:00</time>
      </trkpt>
      <trkpt lat="45.98757" lon="4.75212">
        <ele>168.7002</ele>
        <time>2026-05-13T11:50:55+02:00</time>
      </trkpt>
      <trkpt lat="45.98762" lon="4.75215">
        <ele>168.7002</ele>
        <time>2026-05-13T11:50:56+02:00</time>
      </trkpt>
      <trkpt lat="45.98768" lon="4.75217">
        <ele>168.7002</ele>
        <time>2026-05-13T11:50:57+02:00</time>
      </trkpt>
      <trkpt lat="45.98773" lon="4.75219">
        <ele>169</ele>
        <time>2026-05-13T11:50:58+02:00</time>
      </trkpt>
      <trkpt lat="45.98778" lon="4.7522">
        <ele>169.10059</ele>
        <time>2026-05-13T11:50:59+02:00</time>
      </trkpt>
      <trkpt lat="45.98783" lon="4.75221">
        <ele>169.10059</ele>
        <time>2026-05-13T11:51:00+02:00</time>
      </trkpt>
      <trkpt lat="45.98788" lon="4.7522">
        <ele>169.2002</ele>
        <time>2026-05-13T11:51:01+02:00</time>
      </trkpt>
      <trkpt lat="45.98794" lon="4.7522">
        <ele>169.2998</ele>
        <time>2026-05-13T11:51:02+02:00</time>
      </trkpt>
      <trkpt lat="45.98799" lon="4.7522">
        <ele>169.40039</ele>
        <time>2026-05-13T11:51:03+02:00</time>
      </trkpt>
      <trkpt lat="45.98803" lon="4.75219">
        <ele>169.40039</ele>
        <time>2026-05-13T11:51:04+02:00</time>
      </trkpt>
      <trkpt lat="45.98808" lon="4.75217">
        <ele>169.2002</ele>
        <time>2026-05-13T11:51:05+02:00</time>
      </trkpt>
      <trkpt lat="45.98814" lon="4.75216">
        <ele>169.2998</ele>
        <time>2026-05-13T11:51:06+02:00</time>
      </trkpt>
      <trkpt lat="45.98819" lon="4.75215">
        <ele>169.2998</ele>
        <time>2026-05-13T11:51:07+02:00</time>
      </trkpt>
      <trkpt lat="45.98824" lon="4.75215">
        <ele>169.2998</ele>
        <time>2026-05-13T11:51:08+02:00</time>
      </trkpt>
      <trkpt lat="45.9883" lon="4.75214">
        <ele>169.2998</ele>
        <time>2026-05-13T11:51:09+02:00</time>
      </trkpt>
      <trkpt lat="45.98836" lon="4.75213">
        <ele>169.2998</ele>
        <time>2026-05-13T11:51:10+02:00</time>
      </trkpt>
      <trkpt lat="45.98841" lon="4.75212">
        <ele>169.2998</ele>
        <time>2026-05-13T11:51:11+02:00</time>
      </trkpt>
      <trkpt lat="45.98847" lon="4.75212">
        <ele>169.2002</ele>
        <time>2026-05-13T11:51:12+02:00</time>
      </trkpt>
      <trkpt lat="45.98852" lon="4.75211">
        <ele>169.2002</ele>
        <time>2026-05-13T11:51:13+02:00</time>
      </trkpt>
      <trkpt lat="45.98858" lon="4.7521">
        <ele>168.90039</ele>
        <time>2026-05-13T11:51:14+02:00</time>
      </trkpt>
      <trkpt lat="45.98864" lon="4.75209">
        <ele>168.90039</ele>
        <time>2026-05-13T11:51:15+02:00</time>
      </trkpt>
      <trkpt lat="45.98869" lon="4.75208">
        <ele>168.90039</ele>
        <time>2026-05-13T11:51:16+02:00</time>
      </trkpt>
      <trkpt lat="45.98875" lon="4.75208">
        <ele>169</ele>
        <time>2026-05-13T11:51:17+02:00</time>
      </trkpt>
      <trkpt lat="45.98881" lon="4.75207">
        <ele>169</ele>
        <time>2026-05-13T11:51:18+02:00</time>
      </trkpt>
      <trkpt lat="45.98886" lon="4.75206">
        <ele>169</ele>
        <time>2026-05-13T11:51:19+02:00</time>
      </trkpt>
      <trkpt lat="45.98892" lon="4.75205">
        <ele>169.10059</ele>
        <time>2026-05-13T11:51:20+02:00</time>
      </trkpt>
      <trkpt lat="45.98898" lon="4.75204">
        <ele>169.2002</ele>
        <time>2026-05-13T11:51:21+02:00</time>
      </trkpt>
      <trkpt lat="45.98903" lon="4.75202">
        <ele>169.2002</ele>
        <time>2026-05-13T11:51:22+02:00</time>
      </trkpt>
      <trkpt lat="45.98909" lon="4.752">
        <ele>169</ele>
        <time>2026-05-13T11:51:23+02:00</time>
      </trkpt>
      <trkpt lat="45.98914" lon="4.75198">
        <ele>169</ele>
        <time>2026-05-13T11:51:24+02:00</time>
      </trkpt>
      <trkpt lat="45.9892" lon="4.75196">
        <ele>169</ele>
        <time>2026-05-13T11:51:25+02:00</time>
      </trkpt>
      <trkpt lat="45.98926" lon="4.75195">
        <ele>169.10059</ele>
        <time>2026-05-13T11:51:26+02:00</time>
      </trkpt>
      <trkpt lat="45.98931" lon="4.75194">
        <ele>169</ele>
        <time>2026-05-13T11:51:27+02:00</time>
      </trkpt>
      <trkpt lat="45.98937" lon="4.75193">
        <ele>169</ele>
        <time>2026-05-13T11:51:28+02:00</time>
      </trkpt>
      <trkpt lat="45.98943" lon="4.75193">
        <ele>168.90039</ele>
        <time>2026-05-13T11:51:29+02:00</time>
      </trkpt>
      <trkpt lat="45.98948" lon="4.75193">
        <ele>168.90039</ele>
        <time>2026-05-13T11:51:30+02:00</time>
      </trkpt>
      <trkpt lat="45.98954" lon="4.75193">
        <ele>168.7998</ele>
        <time>2026-05-13T11:51:31+02:00</time>
      </trkpt>
      <trkpt lat="45.98959" lon="4.75192">
        <ele>168.5</ele>
        <time>2026-05-13T11:51:32+02:00</time>
      </trkpt>
      <trkpt lat="45.98965" lon="4.75192">
        <ele>168.40039</ele>
        <time>2026-05-13T11:51:33+02:00</time>
      </trkpt>
      <trkpt lat="45.98971" lon="4.75192">
        <ele>168.2998</ele>
        <time>2026-05-13T11:51:34+02:00</time>
      </trkpt>
      <trkpt lat="45.98976" lon="4.75192">
        <ele>168.2002</ele>
        <time>2026-05-13T11:51:35+02:00</time>
      </trkpt>
      <trkpt lat="45.98982" lon="4.75192">
        <ele>168.10059</ele>
        <time>2026-05-13T11:51:36+02:00</time>
      </trkpt>
      <trkpt lat="45.98988" lon="4.75191">
        <ele>168.10059</ele>
        <time>2026-05-13T11:51:37+02:00</time>
      </trkpt>
      <trkpt lat="45.98993" lon="4.75191">
        <ele>168</ele>
        <time>2026-05-13T11:51:38+02:00</time>
      </trkpt>
      <trkpt lat="45.98999" lon="4.75191">
        <ele>168</ele>
        <time>2026-05-13T11:51:39+02:00</time>
      </trkpt>
      <trkpt lat="45.99004" lon="4.7519">
        <ele>168</ele>
        <time>2026-05-13T11:51:40+02:00</time>
      </trkpt>
      <trkpt lat="45.99009" lon="4.7519">
        <ele>168</ele>
        <time>2026-05-13T11:51:41+02:00</time>
      </trkpt>
      <trkpt lat="45.99014" lon="4.7519">
        <ele>168</ele>
        <time>2026-05-13T11:51:42+02:00</time>
      </trkpt>
      <trkpt lat="45.9902" lon="4.7519">
        <ele>168</ele>
        <time>2026-05-13T11:51:43+02:00</time>
      </trkpt>
      <trkpt lat="45.99025" lon="4.7519">
        <ele>168</ele>
        <time>2026-05-13T11:51:44+02:00</time>
      </trkpt>
      <trkpt lat="45.99031" lon="4.7519">
        <ele>168</ele>
        <time>2026-05-13T11:51:45+02:00</time>
      </trkpt>
      <trkpt lat="45.99037" lon="4.75191">
        <ele>168</ele>
        <time>2026-05-13T11:51:46+02:00</time>
      </trkpt>
      <trkpt lat="45.99053" lon="4.75192">
        <ele>168</ele>
        <time>2026-05-13T11:51:47+02:00</time>
      </trkpt>
      <trkpt lat="45.99059" lon="4.75192">
        <ele>168</ele>
        <time>2026-05-13T11:51:48+02:00</time>
      </trkpt>
      <trkpt lat="45.99064" lon="4.75192">
        <ele>168</ele>
        <time>2026-05-13T11:51:49+02:00</time>
      </trkpt>
      <trkpt lat="45.9907" lon="4.75192">
        <ele>168</ele>
        <time>2026-05-13T11:51:50+02:00</time>
      </trkpt>
      <trkpt lat="45.99075" lon="4.75192">
        <ele>168</ele>
        <time>2026-05-13T11:51:51+02:00</time>
      </trkpt>
      <trkpt lat="45.9908" lon="4.75192">
        <ele>168</ele>
        <time>2026-05-13T11:51:52+02:00</time>
      </trkpt>
      <trkpt lat="45.99086" lon="4.75192">
        <ele>168</ele>
        <time>2026-05-13T11:51:53+02:00</time>
      </trkpt>
      <trkpt lat="45.99091" lon="4.75191">
        <ele>168</ele>
        <time>2026-05-13T11:51:54+02:00</time>
      </trkpt>
      <trkpt lat="45.99096" lon="4.75191">
        <ele>168.10059</ele>
        <time>2026-05-13T11:51:55+02:00</time>
      </trkpt>
      <trkpt lat="45.99101" lon="4.75192">
        <ele>168.2002</ele>
        <time>2026-05-13T11:51:56+02:00</time>
      </trkpt>
      <trkpt lat="45.99106" lon="4.75193">
        <ele>168.5</ele>
        <time>2026-05-13T11:51:57+02:00</time>
      </trkpt>
      <trkpt lat="45.99111" lon="4.75193">
        <ele>168.5</ele>
        <time>2026-05-13T11:51:58+02:00</time>
      </trkpt>
      <trkpt lat="45.99117" lon="4.75193">
        <ele>168.60059</ele>
        <time>2026-05-13T11:51:59+02:00</time>
      </trkpt>
      <trkpt lat="45.99123" lon="4.75194">
        <ele>168.60059</ele>
        <time>2026-05-13T11:52:00+02:00</time>
      </trkpt>
      <trkpt lat="45.99128" lon="4.75194">
        <ele>168.60059</ele>
        <time>2026-05-13T11:52:01+02:00</time>
      </trkpt>
      <trkpt lat="45.99134" lon="4.75195">
        <ele>168.7002</ele>
        <time>2026-05-13T11:52:02+02:00</time>
      </trkpt>
      <trkpt lat="45.9914" lon="4.75196">
        <ele>168.7002</ele>
        <time>2026-05-13T11:52:03+02:00</time>
      </trkpt>
      <trkpt lat="45.99146" lon="4.75196">
        <ele>168.7002</ele>
        <time>2026-05-13T11:52:04+02:00</time>
      </trkpt>
      <trkpt lat="45.99152" lon="4.75196">
        <ele>168.7002</ele>
        <time>2026-05-13T11:52:05+02:00</time>
      </trkpt>
      <trkpt lat="45.99157" lon="4.75197">
        <ele>168.7002</ele>
        <time>2026-05-13T11:52:06+02:00</time>
      </trkpt>
      <trkpt lat="45.99164" lon="4.75198">
        <ele>168.7002</ele>
        <time>2026-05-13T11:52:07+02:00</time>
      </trkpt>
      <trkpt lat="45.99169" lon="4.75199">
        <ele>168.7002</ele>
        <time>2026-05-13T11:52:08+02:00</time>
      </trkpt>
      <trkpt lat="45.99175" lon="4.752">
        <ele>168.7002</ele>
        <time>2026-05-13T11:52:09+02:00</time>
      </trkpt>
      <trkpt lat="45.99181" lon="4.75202">
        <ele>169</ele>
        <time>2026-05-13T11:52:10+02:00</time>
      </trkpt>
      <trkpt lat="45.99186" lon="4.75203">
        <ele>169</ele>
        <time>2026-05-13T11:52:11+02:00</time>
      </trkpt>
      <trkpt lat="45.99191" lon="4.75204">
        <ele>169</ele>
        <time>2026-05-13T11:52:12+02:00</time>
      </trkpt>
      <trkpt lat="45.99197" lon="4.75205">
        <ele>168.90039</ele>
        <time>2026-05-13T11:52:13+02:00</time>
      </trkpt>
      <trkpt lat="45.99202" lon="4.75207">
        <ele>168.90039</ele>
        <time>2026-05-13T11:52:14+02:00</time>
      </trkpt>
      <trkpt lat="45.99207" lon="4.75209">
        <ele>168.90039</ele>
        <time>2026-05-13T11:52:15+02:00</time>
      </trkpt>
      <trkpt lat="45.99213" lon="4.75209">
        <ele>168.90039</ele>
        <time>2026-05-13T11:52:16+02:00</time>
      </trkpt>
      <trkpt lat="45.99219" lon="4.75211">
        <ele>169</ele>
        <time>2026-05-13T11:52:17+02:00</time>
      </trkpt>
      <trkpt lat="45.99225" lon="4.75212">
        <ele>169</ele>
        <time>2026-05-13T11:52:18+02:00</time>
      </trkpt>
      <trkpt lat="45.9923" lon="4.75212">
        <ele>169</ele>
        <time>2026-05-13T11:52:19+02:00</time>
      </trkpt>
      <trkpt lat="45.99236" lon="4.75214">
        <ele>169</ele>
        <time>2026-05-13T11:52:20+02:00</time>
      </trkpt>
      <trkpt lat="45.99241" lon="4.75215">
        <ele>169</ele>
        <time>2026-05-13T11:52:21+02:00</time>
      </trkpt>
      <trkpt lat="45.99246" lon="4.75216">
        <ele>169</ele>
        <time>2026-05-13T11:52:22+02:00</time>
      </trkpt>
      <trkpt lat="45.99252" lon="4.75216">
        <ele>169</ele>
        <time>2026-05-13T11:52:23+02:00</time>
      </trkpt>
      <trkpt lat="45.99257" lon="4.75217">
        <ele>169</ele>
        <time>2026-05-13T11:52:24+02:00</time>
      </trkpt>
      <trkpt lat="45.99262" lon="4.75218">
        <ele>169</ele>
        <time>2026-05-13T11:52:25+02:00</time>
      </trkpt>
      <trkpt lat="45.99267" lon="4.75218">
        <ele>169</ele>
        <time>2026-05-13T11:52:26+02:00</time>
      </trkpt>
      <trkpt lat="45.99273" lon="4.75219">
        <ele>169.2998</ele>
        <time>2026-05-13T11:52:27+02:00</time>
      </trkpt>
      <trkpt lat="45.99279" lon="4.75219">
        <ele>169.2998</ele>
        <time>2026-05-13T11:52:28+02:00</time>
      </trkpt>
      <trkpt lat="45.99284" lon="4.7522">
        <ele>169.2998</ele>
        <time>2026-05-13T11:52:29+02:00</time>
      </trkpt>
      <trkpt lat="45.9929" lon="4.7522">
        <ele>169.40039</ele>
        <time>2026-05-13T11:52:30+02:00</time>
      </trkpt>
      <trkpt lat="45.99296" lon="4.7522">
        <ele>169.40039</ele>
        <time>2026-05-13T11:52:31+02:00</time>
      </trkpt>
      <trkpt lat="45.99301" lon="4.75221">
        <ele>169.40039</ele>
        <time>2026-05-13T11:52:32+02:00</time>
      </trkpt>
      <trkpt lat="45.99307" lon="4.75221">
        <ele>169.5</ele>
        <time>2026-05-13T11:52:33+02:00</time>
      </trkpt>
      <trkpt lat="45.99312" lon="4.75222">
        <ele>169.5</ele>
        <time>2026-05-13T11:52:34+02:00</time>
      </trkpt>
      <trkpt lat="45.99318" lon="4.75222">
        <ele>169.60059</ele>
        <time>2026-05-13T11:52:35+02:00</time>
      </trkpt>
      <trkpt lat="45.99323" lon="4.75223">
        <ele>169.7002</ele>
        <time>2026-05-13T11:52:36+02:00</time>
      </trkpt>
      <trkpt lat="45.99329" lon="4.75225">
        <ele>169.7002</ele>
        <time>2026-05-13T11:52:37+02:00</time>
      </trkpt>
      <trkpt lat="45.99334" lon="4.75226">
        <ele>169.7998</ele>
        <time>2026-05-13T11:52:38+02:00</time>
      </trkpt>
      <trkpt lat="45.99339" lon="4.75227">
        <ele>169.90039</ele>
        <time>2026-05-13T11:52:39+02:00</time>
      </trkpt>
      <trkpt lat="45.99344" lon="4.75228">
        <ele>170.2998</ele>
        <time>2026-05-13T11:52:40+02:00</time>
      </trkpt>
      <trkpt lat="45.99349" lon="4.75228">
        <ele>170.40039</ele>
        <time>2026-05-13T11:52:41+02:00</time>
      </trkpt>
      <trkpt lat="45.99354" lon="4.75227">
        <ele>170.10059</ele>
        <time>2026-05-13T11:52:42+02:00</time>
      </trkpt>
      <trkpt lat="45.99358" lon="4.75226">
        <ele>170.2002</ele>
        <time>2026-05-13T11:52:43+02:00</time>
      </trkpt>
      <trkpt lat="45.99363" lon="4.75226">
        <ele>170.2998</ele>
        <time>2026-05-13T11:52:44+02:00</time>
      </trkpt>
      <trkpt lat="45.99368" lon="4.75226">
        <ele>170.2998</ele>
        <time>2026-05-13T11:52:45+02:00</time>
      </trkpt>
      <trkpt lat="45.99372" lon="4.75225">
        <ele>170.40039</ele>
        <time>2026-05-13T11:52:46+02:00</time>
      </trkpt>
      <trkpt lat="45.99378" lon="4.75225">
        <ele>170.5</ele>
        <time>2026-05-13T11:52:47+02:00</time>
      </trkpt>
      <trkpt lat="45.99383" lon="4.75225">
        <ele>170.60059</ele>
        <time>2026-05-13T11:52:48+02:00</time>
      </trkpt>
      <trkpt lat="45.99388" lon="4.75225">
        <ele>170.7998</ele>
        <time>2026-05-13T11:52:49+02:00</time>
      </trkpt>
      <trkpt lat="45.99393" lon="4.75225">
        <ele>170.90039</ele>
        <time>2026-05-13T11:52:50+02:00</time>
      </trkpt>
      <trkpt lat="45.99398" lon="4.75225">
        <ele>171</ele>
        <time>2026-05-13T11:52:51+02:00</time>
      </trkpt>
      <trkpt lat="45.99404" lon="4.75224">
        <ele>171.10059</ele>
        <time>2026-05-13T11:52:52+02:00</time>
      </trkpt>
      <trkpt lat="45.99408" lon="4.75223">
        <ele>171.10059</ele>
        <time>2026-05-13T11:52:53+02:00</time>
      </trkpt>
      <trkpt lat="45.99413" lon="4.75222">
        <ele>171.2002</ele>
        <time>2026-05-13T11:52:54+02:00</time>
      </trkpt>
      <trkpt lat="45.99419" lon="4.75221">
        <ele>171.2998</ele>
        <time>2026-05-13T11:52:55+02:00</time>
      </trkpt>
      <trkpt lat="45.99424" lon="4.75219">
        <ele>171.2998</ele>
        <time>2026-05-13T11:52:56+02:00</time>
      </trkpt>
      <trkpt lat="45.99431" lon="4.75218">
        <ele>170.5</ele>
        <time>2026-05-13T11:52:57+02:00</time>
      </trkpt>
      <trkpt lat="45.99437" lon="4.75218">
        <ele>170.5</ele>
        <time>2026-05-13T11:52:58+02:00</time>
      </trkpt>
      <trkpt lat="45.99443" lon="4.75217">
        <ele>170.60059</ele>
        <time>2026-05-13T11:52:59+02:00</time>
      </trkpt>
      <trkpt lat="45.99449" lon="4.75217">
        <ele>170.7002</ele>
        <time>2026-05-13T11:53:00+02:00</time>
      </trkpt>
      <trkpt lat="45.99454" lon="4.75216">
        <ele>170.7002</ele>
        <time>2026-05-13T11:53:01+02:00</time>
      </trkpt>
      <trkpt lat="45.9946" lon="4.75215">
        <ele>170.7998</ele>
        <time>2026-05-13T11:53:02+02:00</time>
      </trkpt>
      <trkpt lat="45.99466" lon="4.75214">
        <ele>170.7998</ele>
        <time>2026-05-13T11:53:03+02:00</time>
      </trkpt>
      <trkpt lat="45.99471" lon="4.75213">
        <ele>170.90039</ele>
        <time>2026-05-13T11:53:04+02:00</time>
      </trkpt>
      <trkpt lat="45.99477" lon="4.75212">
        <ele>170.90039</ele>
        <time>2026-05-13T11:53:05+02:00</time>
      </trkpt>
      <trkpt lat="45.99482" lon="4.75209">
        <ele>169.7998</ele>
        <time>2026-05-13T11:53:06+02:00</time>
      </trkpt>
      <trkpt lat="45.99487" lon="4.75208">
        <ele>169.7998</ele>
        <time>2026-05-13T11:53:07+02:00</time>
      </trkpt>
      <trkpt lat="45.99491" lon="4.75206">
        <ele>169.90039</ele>
        <time>2026-05-13T11:53:08+02:00</time>
      </trkpt>
      <trkpt lat="45.99495" lon="4.75205">
        <ele>170</ele>
        <time>2026-05-13T11:53:09+02:00</time>
      </trkpt>
      <trkpt lat="45.995" lon="4.75204">
        <ele>170.2998</ele>
        <time>2026-05-13T11:53:10+02:00</time>
      </trkpt>
      <trkpt lat="45.99503" lon="4.75203">
        <ele>170.2998</ele>
        <time>2026-05-13T11:53:11+02:00</time>
      </trkpt>
      <trkpt lat="45.99508" lon="4.75202">
        <ele>170.60059</ele>
        <time>2026-05-13T11:53:12+02:00</time>
      </trkpt>
      <trkpt lat="45.99512" lon="4.752">
        <ele>170.5</ele>
        <time>2026-05-13T11:53:13+02:00</time>
      </trkpt>
      <trkpt lat="45.99517" lon="4.75198">
        <ele>170.5</ele>
        <time>2026-05-13T11:53:14+02:00</time>
      </trkpt>
      <trkpt lat="45.99522" lon="4.75196">
        <ele>170.90039</ele>
        <time>2026-05-13T11:53:15+02:00</time>
      </trkpt>
      <trkpt lat="45.99528" lon="4.75194">
        <ele>171.10059</ele>
        <time>2026-05-13T11:53:16+02:00</time>
      </trkpt>
      <trkpt lat="45.99534" lon="4.75192">
        <ele>170.7998</ele>
        <time>2026-05-13T11:53:17+02:00</time>
      </trkpt>
      <trkpt lat="45.99541" lon="4.7519">
        <ele>170.7998</ele>
        <time>2026-05-13T11:53:18+02:00</time>
      </trkpt>
      <trkpt lat="45.99547" lon="4.75186">
        <ele>171</ele>
        <time>2026-05-13T11:53:19+02:00</time>
      </trkpt>
      <trkpt lat="45.99551" lon="4.75181">
        <ele>170.90039</ele>
        <time>2026-05-13T11:53:20+02:00</time>
      </trkpt>
      <trkpt lat="45.99555" lon="4.75175">
        <ele>170.7002</ele>
        <time>2026-05-13T11:53:21+02:00</time>
      </trkpt>
      <trkpt lat="45.99557" lon="4.75168">
        <ele>170.7002</ele>
        <time>2026-05-13T11:53:22+02:00</time>
      </trkpt>
      <trkpt lat="45.9956" lon="4.7516">
        <ele>170.2998</ele>
        <time>2026-05-13T11:53:23+02:00</time>
      </trkpt>
      <trkpt lat="45.99564" lon="4.75154">
        <ele>169.60059</ele>
        <time>2026-05-13T11:53:24+02:00</time>
      </trkpt>
      <trkpt lat="45.99569" lon="4.7515">
        <ele>169.2002</ele>
        <time>2026-05-13T11:53:25+02:00</time>
      </trkpt>
      <trkpt lat="45.99574" lon="4.75147">
        <ele>169.2998</ele>
        <time>2026-05-13T11:53:26+02:00</time>
      </trkpt>
      <trkpt lat="45.9958" lon="4.75145">
        <ele>169.40039</ele>
        <time>2026-05-13T11:53:27+02:00</time>
      </trkpt>
      <trkpt lat="45.99586" lon="4.75144">
        <ele>169.60059</ele>
        <time>2026-05-13T11:53:28+02:00</time>
      </trkpt>
      <trkpt lat="45.99591" lon="4.75144">
        <ele>169.7002</ele>
        <time>2026-05-13T11:53:29+02:00</time>
      </trkpt>
      <trkpt lat="45.99596" lon="4.75144">
        <ele>169.7998</ele>
        <time>2026-05-13T11:53:30+02:00</time>
      </trkpt>
      <trkpt lat="45.99601" lon="4.75143">
        <ele>169.90039</ele>
        <time>2026-05-13T11:53:31+02:00</time>
      </trkpt>
      <trkpt lat="45.99607" lon="4.75144">
        <ele>170</ele>
        <time>2026-05-13T11:53:32+02:00</time>
      </trkpt>
      <trkpt lat="45.99613" lon="4.75146">
        <ele>170.10059</ele>
        <time>2026-05-13T11:53:33+02:00</time>
      </trkpt>
      <trkpt lat="45.99619" lon="4.75149">
        <ele>170.2002</ele>
        <time>2026-05-13T11:53:34+02:00</time>
      </trkpt>
      <trkpt lat="45.99625" lon="4.75153">
        <ele>171.40039</ele>
        <time>2026-05-13T11:53:35+02:00</time>
      </trkpt>
      <trkpt lat="45.9963" lon="4.75156">
        <ele>171.40039</ele>
        <time>2026-05-13T11:53:36+02:00</time>
      </trkpt>
      <trkpt lat="45.99635" lon="4.75159">
        <ele>172.7002</ele>
        <time>2026-05-13T11:53:37+02:00</time>
      </trkpt>
      <trkpt lat="45.9964" lon="4.75161">
        <ele>172.7998</ele>
        <time>2026-05-13T11:53:38+02:00</time>
      </trkpt>
      <trkpt lat="45.99645" lon="4.75162">
        <ele>172.90039</ele>
        <time>2026-05-13T11:53:39+02:00</time>
      </trkpt>
      <trkpt lat="45.99651" lon="4.75162">
        <ele>172.90039</ele>
        <time>2026-05-13T11:53:40+02:00</time>
      </trkpt>
      <trkpt lat="45.99657" lon="4.75161">
        <ele>172.90039</ele>
        <time>2026-05-13T11:53:41+02:00</time>
      </trkpt>
      <trkpt lat="45.99663" lon="4.7516">
        <ele>172.90039</ele>
        <time>2026-05-13T11:53:42+02:00</time>
      </trkpt>
      <trkpt lat="45.99668" lon="4.75159">
        <ele>172.90039</ele>
        <time>2026-05-13T11:53:43+02:00</time>
      </trkpt>
      <trkpt lat="45.99674" lon="4.75158">
        <ele>171.90039</ele>
        <time>2026-05-13T11:53:44+02:00</time>
      </trkpt>
      <trkpt lat="45.99679" lon="4.75156">
        <ele>172.2998</ele>
        <time>2026-05-13T11:53:45+02:00</time>
      </trkpt>
      <trkpt lat="45.99685" lon="4.75155">
        <ele>173.10059</ele>
        <time>2026-05-13T11:53:46+02:00</time>
      </trkpt>
      <trkpt lat="45.99691" lon="4.75153">
        <ele>173.7998</ele>
        <time>2026-05-13T11:53:47+02:00</time>
      </trkpt>
      <trkpt lat="45.99696" lon="4.75152">
        <ele>173.7998</ele>
        <time>2026-05-13T11:53:48+02:00</time>
      </trkpt>
      <trkpt lat="45.99702" lon="4.7515">
        <ele>174.5</ele>
        <time>2026-05-13T11:53:49+02:00</time>
      </trkpt>
      <trkpt lat="45.99708" lon="4.75149">
        <ele>174.90039</ele>
        <time>2026-05-13T11:53:50+02:00</time>
      </trkpt>
      <trkpt lat="45.99714" lon="4.75147">
        <ele>174.90039</ele>
        <time>2026-05-13T11:53:51+02:00</time>
      </trkpt>
      <trkpt lat="45.9972" lon="4.75145">
        <ele>175</ele>
        <time>2026-05-13T11:53:52+02:00</time>
      </trkpt>
      <trkpt lat="45.99726" lon="4.75144">
        <ele>175</ele>
        <time>2026-05-13T11:53:53+02:00</time>
      </trkpt>
      <trkpt lat="45.99732" lon="4.75143">
        <ele>175</ele>
        <time>2026-05-13T11:53:54+02:00</time>
      </trkpt>
      <trkpt lat="45.99738" lon="4.75141">
        <ele>175.2002</ele>
        <time>2026-05-13T11:53:55+02:00</time>
      </trkpt>
      <trkpt lat="45.99743" lon="4.7514">
        <ele>175.2002</ele>
        <time>2026-05-13T11:53:56+02:00</time>
      </trkpt>
      <trkpt lat="45.99749" lon="4.75138">
        <ele>175.2002</ele>
        <time>2026-05-13T11:53:57+02:00</time>
      </trkpt>
      <trkpt lat="45.99755" lon="4.75137">
        <ele>175.2998</ele>
        <time>2026-05-13T11:53:58+02:00</time>
      </trkpt>
      <trkpt lat="45.99761" lon="4.75136">
        <ele>175.2998</ele>
        <time>2026-05-13T11:53:59+02:00</time>
      </trkpt>
      <trkpt lat="45.99767" lon="4.75134">
        <ele>175.2998</ele>
        <time>2026-05-13T11:54:00+02:00</time>
      </trkpt>
      <trkpt lat="45.99773" lon="4.75132">
        <ele>175.10059</ele>
        <time>2026-05-13T11:54:01+02:00</time>
      </trkpt>
      <trkpt lat="45.99779" lon="4.75131">
        <ele>175.10059</ele>
        <time>2026-05-13T11:54:02+02:00</time>
      </trkpt>
      <trkpt lat="45.99785" lon="4.75129">
        <ele>175.10059</ele>
        <time>2026-05-13T11:54:03+02:00</time>
      </trkpt>
      <trkpt lat="45.99791" lon="4.75128">
        <ele>175</ele>
        <time>2026-05-13T11:54:04+02:00</time>
      </trkpt>
      <trkpt lat="45.99798" lon="4.75126">
        <ele>174.7002</ele>
        <time>2026-05-13T11:54:05+02:00</time>
      </trkpt>
      <trkpt lat="45.99804" lon="4.75125">
        <ele>174.60059</ele>
        <time>2026-05-13T11:54:06+02:00</time>
      </trkpt>
      <trkpt lat="45.9981" lon="4.75123">
        <ele>173.90039</ele>
        <time>2026-05-13T11:54:07+02:00</time>
      </trkpt>
      <trkpt lat="45.99816" lon="4.75122">
        <ele>173.7998</ele>
        <time>2026-05-13T11:54:08+02:00</time>
      </trkpt>
      <trkpt lat="45.99822" lon="4.7512">
        <ele>173.7002</ele>
        <time>2026-05-13T11:54:09+02:00</time>
      </trkpt>
      <trkpt lat="45.99828" lon="4.75119">
        <ele>173.60059</ele>
        <time>2026-05-13T11:54:10+02:00</time>
      </trkpt>
      <trkpt lat="45.99834" lon="4.75117">
        <ele>173.5</ele>
        <time>2026-05-13T11:54:11+02:00</time>
      </trkpt>
      <trkpt lat="45.9984" lon="4.75116">
        <ele>173.40039</ele>
        <time>2026-05-13T11:54:12+02:00</time>
      </trkpt>
      <trkpt lat="45.99845" lon="4.75114">
        <ele>172.7002</ele>
        <time>2026-05-13T11:54:13+02:00</time>
      </trkpt>
      <trkpt lat="45.99851" lon="4.75112">
        <ele>172.7002</ele>
        <time>2026-05-13T11:54:14+02:00</time>
      </trkpt>
      <trkpt lat="45.99857" lon="4.75111">
        <ele>172.60059</ele>
        <time>2026-05-13T11:54:15+02:00</time>
      </trkpt>
      <trkpt lat="45.99862" lon="4.75109">
        <ele>172.5</ele>
        <time>2026-05-13T11:54:16+02:00</time>
      </trkpt>
      <trkpt lat="45.99866" lon="4.75105">
        <ele>171.2002</ele>
        <time>2026-05-13T11:54:17+02:00</time>
      </trkpt>
      <trkpt lat="45.9987" lon="4.751">
        <ele>171</ele>
        <time>2026-05-13T11:54:18+02:00</time>
      </trkpt>
      <trkpt lat="45.99873" lon="4.75095">
        <ele>169.60059</ele>
        <time>2026-05-13T11:54:19+02:00</time>
      </trkpt>
      <trkpt lat="45.99877" lon="4.75089">
        <ele>168.7998</ele>
        <time>2026-05-13T11:54:20+02:00</time>
      </trkpt>
      <trkpt lat="45.99881" lon="4.75085">
        <ele>168.7998</ele>
        <time>2026-05-13T11:54:21+02:00</time>
      </trkpt>
      <trkpt lat="45.99886" lon="4.75081">
        <ele>168.90039</ele>
        <time>2026-05-13T11:54:22+02:00</time>
      </trkpt>
      <trkpt lat="45.99892" lon="4.75078">
        <ele>169.10059</ele>
        <time>2026-05-13T11:54:23+02:00</time>
      </trkpt>
      <trkpt lat="45.99898" lon="4.75076">
        <ele>169.5</ele>
        <time>2026-05-13T11:54:24+02:00</time>
      </trkpt>
      <trkpt lat="45.99903" lon="4.75074">
        <ele>169.90039</ele>
        <time>2026-05-13T11:54:25+02:00</time>
      </trkpt>
      <trkpt lat="45.99909" lon="4.75072">
        <ele>170</ele>
        <time>2026-05-13T11:54:26+02:00</time>
      </trkpt>
      <trkpt lat="45.99915" lon="4.7507">
        <ele>170.40039</ele>
        <time>2026-05-13T11:54:27+02:00</time>
      </trkpt>
      <trkpt lat="45.99921" lon="4.75067">
        <ele>170.7998</ele>
        <time>2026-05-13T11:54:28+02:00</time>
      </trkpt>
      <trkpt lat="45.99927" lon="4.75065">
        <ele>170.90039</ele>
        <time>2026-05-13T11:54:29+02:00</time>
      </trkpt>
      <trkpt lat="45.99933" lon="4.75062">
        <ele>170</ele>
        <time>2026-05-13T11:54:30+02:00</time>
      </trkpt>
      <trkpt lat="45.99939" lon="4.7506">
        <ele>170.10059</ele>
        <time>2026-05-13T11:54:31+02:00</time>
      </trkpt>
      <trkpt lat="45.99944" lon="4.75057">
        <ele>170.2998</ele>
        <time>2026-05-13T11:54:32+02:00</time>
      </trkpt>
      <trkpt lat="45.9995" lon="4.75055">
        <ele>169.60059</ele>
        <time>2026-05-13T11:54:33+02:00</time>
      </trkpt>
      <trkpt lat="45.99955" lon="4.75053">
        <ele>169.7002</ele>
        <time>2026-05-13T11:54:34+02:00</time>
      </trkpt>
      <trkpt lat="45.99961" lon="4.7505">
        <ele>169.90039</ele>
        <time>2026-05-13T11:54:35+02:00</time>
      </trkpt>
      <trkpt lat="45.99966" lon="4.75048">
        <ele>170</ele>
        <time>2026-05-13T11:54:36+02:00</time>
      </trkpt>
      <trkpt lat="45.99972" lon="4.75046">
        <ele>169.60059</ele>
        <time>2026-05-13T11:54:37+02:00</time>
      </trkpt>
      <trkpt lat="45.99978" lon="4.75044">
        <ele>169.7998</ele>
        <time>2026-05-13T11:54:38+02:00</time>
      </trkpt>
      <trkpt lat="45.99983" lon="4.75042">
        <ele>170</ele>
        <time>2026-05-13T11:54:39+02:00</time>
      </trkpt>
      <trkpt lat="45.99989" lon="4.75039">
        <ele>170.2002</ele>
        <time>2026-05-13T11:54:40+02:00</time>
      </trkpt>
      <trkpt lat="45.99995" lon="4.75037">
        <ele>169.7002</ele>
        <time>2026-05-13T11:54:41+02:00</time>
      </trkpt>
      <trkpt lat="46.00001" lon="4.75034">
        <ele>170</ele>
        <time>2026-05-13T11:54:42+02:00</time>
      </trkpt>
      <trkpt lat="46.00006" lon="4.75032">
        <ele>170</ele>
        <time>2026-05-13T11:54:43+02:00</time>
      </trkpt>
      <trkpt lat="46.00012" lon="4.7503">
        <ele>170.2002</ele>
        <time>2026-05-13T11:54:44+02:00</time>
      </trkpt>
      <trkpt lat="46.00018" lon="4.75028">
        <ele>169.7998</ele>
        <time>2026-05-13T11:54:45+02:00</time>
      </trkpt>
      <trkpt lat="46.00023" lon="4.75025">
        <ele>169.90039</ele>
        <time>2026-05-13T11:54:46+02:00</time>
      </trkpt>
      <trkpt lat="46.00029" lon="4.75024">
        <ele>170</ele>
        <time>2026-05-13T11:54:47+02:00</time>
      </trkpt>
      <trkpt lat="46.00035" lon="4.75023">
        <ele>170.10059</ele>
        <time>2026-05-13T11:54:48+02:00</time>
      </trkpt>
      <trkpt lat="46.00041" lon="4.75022">
        <ele>170</ele>
        <time>2026-05-13T11:54:49+02:00</time>
      </trkpt>
      <trkpt lat="46.00046" lon="4.75022">
        <ele>169.90039</ele>
        <time>2026-05-13T11:54:50+02:00</time>
      </trkpt>
      <trkpt lat="46.00051" lon="4.75021">
        <ele>169.60059</ele>
        <time>2026-05-13T11:54:51+02:00</time>
      </trkpt>
      <trkpt lat="46.00057" lon="4.75021">
        <ele>169.90039</ele>
        <time>2026-05-13T11:54:52+02:00</time>
      </trkpt>
      <trkpt lat="46.00062" lon="4.7502">
        <ele>170.40039</ele>
        <time>2026-05-13T11:54:53+02:00</time>
      </trkpt>
      <trkpt lat="46.00067" lon="4.75019">
        <ele>171</ele>
        <time>2026-05-13T11:54:54+02:00</time>
      </trkpt>
      <trkpt lat="46.00072" lon="4.75019">
        <ele>171.5</ele>
        <time>2026-05-13T11:54:55+02:00</time>
      </trkpt>
      <trkpt lat="46.00077" lon="4.75018">
        <ele>171.5</ele>
        <time>2026-05-13T11:54:56+02:00</time>
      </trkpt>
      <trkpt lat="46.00081" lon="4.75018">
        <ele>171.90039</ele>
        <time>2026-05-13T11:54:57+02:00</time>
      </trkpt>
      <trkpt lat="46.00086" lon="4.75017">
        <ele>172.2002</ele>
        <time>2026-05-13T11:54:58+02:00</time>
      </trkpt>
      <trkpt lat="46.0009" lon="4.75016">
        <ele>172.5</ele>
        <time>2026-05-13T11:54:59+02:00</time>
      </trkpt>
      <trkpt lat="46.00094" lon="4.75016">
        <ele>172.5</ele>
        <time>2026-05-13T11:55:00+02:00</time>
      </trkpt>
      <trkpt lat="46.00098" lon="4.75015">
        <ele>172.7002</ele>
        <time>2026-05-13T11:55:01+02:00</time>
      </trkpt>
      <trkpt lat="46.00103" lon="4.75014">
        <ele>172.90039</ele>
        <time>2026-05-13T11:55:02+02:00</time>
      </trkpt>
      <trkpt lat="46.00107" lon="4.75014">
        <ele>172.90039</ele>
        <time>2026-05-13T11:55:03+02:00</time>
      </trkpt>
      <trkpt lat="46.00112" lon="4.75014">
        <ele>173.2002</ele>
        <time>2026-05-13T11:55:04+02:00</time>
      </trkpt>
      <trkpt lat="46.00117" lon="4.75013">
        <ele>173.40039</ele>
        <time>2026-05-13T11:55:05+02:00</time>
      </trkpt>
      <trkpt lat="46.00122" lon="4.75012">
        <ele>171.7998</ele>
        <time>2026-05-13T11:55:06+02:00</time>
      </trkpt>
      <trkpt lat="46.00126" lon="4.75012">
        <ele>171.90039</ele>
        <time>2026-05-13T11:55:07+02:00</time>
      </trkpt>
      <trkpt lat="46.00131" lon="4.75011">
        <ele>171.90039</ele>
        <time>2026-05-13T11:55:08+02:00</time>
      </trkpt>
      <trkpt lat="46.00136" lon="4.7501">
        <ele>172.10059</ele>
        <time>2026-05-13T11:55:09+02:00</time>
      </trkpt>
      <trkpt lat="46.00141" lon="4.75009">
        <ele>172.2002</ele>
        <time>2026-05-13T11:55:10+02:00</time>
      </trkpt>
      <trkpt lat="46.00145" lon="4.75008">
        <ele>172.2998</ele>
        <time>2026-05-13T11:55:11+02:00</time>
      </trkpt>
      <trkpt lat="46.00149" lon="4.75007">
        <ele>172.2998</ele>
        <time>2026-05-13T11:55:12+02:00</time>
      </trkpt>
      <trkpt lat="46.00153" lon="4.75006">
        <ele>172.2998</ele>
        <time>2026-05-13T11:55:13+02:00</time>
      </trkpt>
      <trkpt lat="46.00157" lon="4.75005">
        <ele>172.2998</ele>
        <time>2026-05-13T11:55:14+02:00</time>
      </trkpt>
      <trkpt lat="46.00161" lon="4.75004">
        <ele>170.7002</ele>
        <time>2026-05-13T11:55:15+02:00</time>
      </trkpt>
      <trkpt lat="46.00165" lon="4.75003">
        <ele>170.7998</ele>
        <time>2026-05-13T11:55:16+02:00</time>
      </trkpt>
      <trkpt lat="46.00169" lon="4.75001">
        <ele>170.7002</ele>
        <time>2026-05-13T11:55:17+02:00</time>
      </trkpt>
      <trkpt lat="46.00173" lon="4.74999">
        <ele>170.7002</ele>
        <time>2026-05-13T11:55:18+02:00</time>
      </trkpt>
      <trkpt lat="46.00177" lon="4.74996">
        <ele>170.7002</ele>
        <time>2026-05-13T11:55:19+02:00</time>
      </trkpt>
      <trkpt lat="46.00181" lon="4.74992">
        <ele>169.7002</ele>
        <time>2026-05-13T11:55:20+02:00</time>
      </trkpt>
      <trkpt lat="46.00185" lon="4.74988">
        <ele>169.7002</ele>
        <time>2026-05-13T11:55:21+02:00</time>
      </trkpt>
      <trkpt lat="46.00189" lon="4.74984">
        <ele>169</ele>
        <time>2026-05-13T11:55:22+02:00</time>
      </trkpt>
      <trkpt lat="46.00192" lon="4.74981">
        <ele>169</ele>
        <time>2026-05-13T11:55:23+02:00</time>
      </trkpt>
      <trkpt lat="46.00196" lon="4.74978">
        <ele>168.5</ele>
        <time>2026-05-13T11:55:24+02:00</time>
      </trkpt>
      <trkpt lat="46.002" lon="4.74978">
        <ele>168.5</ele>
        <time>2026-05-13T11:55:25+02:00</time>
      </trkpt>
      <trkpt lat="46.00205" lon="4.74979">
        <ele>169</ele>
        <time>2026-05-13T11:55:26+02:00</time>
      </trkpt>
      <trkpt lat="46.0021" lon="4.7498">
        <ele>168.90039</ele>
        <time>2026-05-13T11:55:27+02:00</time>
      </trkpt>
      <trkpt lat="46.00214" lon="4.74981">
        <ele>168.90039</ele>
        <time>2026-05-13T11:55:28+02:00</time>
      </trkpt>
      <trkpt lat="46.00218" lon="4.74982">
        <ele>168.7998</ele>
        <time>2026-05-13T11:55:29+02:00</time>
      </trkpt>
      <trkpt lat="46.00221" lon="4.74983">
        <ele>168.7998</ele>
        <time>2026-05-13T11:55:30+02:00</time>
      </trkpt>
      <trkpt lat="46.00224" lon="4.74983">
        <ele>168.7998</ele>
        <time>2026-05-13T11:55:31+02:00</time>
      </trkpt>
      <trkpt lat="46.00228" lon="4.74984">
        <ele>168.7002</ele>
        <time>2026-05-13T11:55:32+02:00</time>
      </trkpt>
      <trkpt lat="46.00231" lon="4.74986">
        <ele>168.7002</ele>
        <time>2026-05-13T11:55:33+02:00</time>
      </trkpt>
      <trkpt lat="46.00234" lon="4.74987">
        <ele>168.7002</ele>
        <time>2026-05-13T11:55:34+02:00</time>
      </trkpt>
      <trkpt lat="46.00236" lon="4.7499">
        <ele>169.10059</ele>
        <time>2026-05-13T11:55:35+02:00</time>
      </trkpt>
      <trkpt lat="46.00237" lon="4.74994">
        <ele>169.10059</ele>
        <time>2026-05-13T11:55:36+02:00</time>
      </trkpt>
      <trkpt lat="46.0024" lon="4.74997">
        <ele>169.5</ele>
        <time>2026-05-13T11:55:37+02:00</time>
      </trkpt>
      <trkpt lat="46.00244" lon="4.74998">
        <ele>169.5</ele>
        <time>2026-05-13T11:55:38+02:00</time>
      </trkpt>
      <trkpt lat="46.00248" lon="4.75">
        <ele>169.2998</ele>
        <time>2026-05-13T11:55:39+02:00</time>
      </trkpt>
      <trkpt lat="46.00252" lon="4.75001">
        <ele>169.10059</ele>
        <time>2026-05-13T11:55:40+02:00</time>
      </trkpt>
      <trkpt lat="46.00256" lon="4.75003">
        <ele>169.10059</ele>
        <time>2026-05-13T11:55:41+02:00</time>
      </trkpt>
      <trkpt lat="46.00261" lon="4.75005">
        <ele>169.2998</ele>
        <time>2026-05-13T11:55:42+02:00</time>
      </trkpt>
      <trkpt lat="46.00266" lon="4.75008">
        <ele>169.2002</ele>
        <time>2026-05-13T11:55:43+02:00</time>
      </trkpt>
      <trkpt lat="46.0027" lon="4.7501">
        <ele>169.10059</ele>
        <time>2026-05-13T11:55:44+02:00</time>
      </trkpt>
      <trkpt lat="46.00275" lon="4.75013">
        <ele>169.2002</ele>
        <time>2026-05-13T11:55:45+02:00</time>
      </trkpt>
      <trkpt lat="46.0028" lon="4.75016">
        <ele>169.2002</ele>
        <time>2026-05-13T11:55:46+02:00</time>
      </trkpt>
      <trkpt lat="46.00285" lon="4.75019">
        <ele>169.10059</ele>
        <time>2026-05-13T11:55:47+02:00</time>
      </trkpt>
      <trkpt lat="46.00289" lon="4.75022">
        <ele>169.10059</ele>
        <time>2026-05-13T11:55:48+02:00</time>
      </trkpt>
      <trkpt lat="46.00293" lon="4.75025">
        <ele>169</ele>
        <time>2026-05-13T11:55:49+02:00</time>
      </trkpt>
      <trkpt lat="46.00297" lon="4.75028">
        <ele>169</ele>
        <time>2026-05-13T11:55:50+02:00</time>
      </trkpt>
      <trkpt lat="46.003" lon="4.75031">
        <ele>169</ele>
        <time>2026-05-13T11:55:51+02:00</time>
      </trkpt>
      <trkpt lat="46.00303" lon="4.75033">
        <ele>169</ele>
        <time>2026-05-13T11:55:52+02:00</time>
      </trkpt>
      <trkpt lat="46.00306" lon="4.75035">
        <ele>169</ele>
        <time>2026-05-13T11:55:53+02:00</time>
      </trkpt>
      <trkpt lat="46.00309" lon="4.75037">
        <ele>169</ele>
        <time>2026-05-13T11:55:54+02:00</time>
      </trkpt>
      <trkpt lat="46.00313" lon="4.75039">
        <ele>169.2998</ele>
        <time>2026-05-13T11:55:55+02:00</time>
      </trkpt>
      <trkpt lat="46.00316" lon="4.75041">
        <ele>169.2998</ele>
        <time>2026-05-13T11:55:56+02:00</time>
      </trkpt>
      <trkpt lat="46.0032" lon="4.75042">
        <ele>169.5</ele>
        <time>2026-05-13T11:55:57+02:00</time>
      </trkpt>
      <trkpt lat="46.00324" lon="4.75044">
        <ele>169.60059</ele>
        <time>2026-05-13T11:55:58+02:00</time>
      </trkpt>
      <trkpt lat="46.00326" lon="4.75046">
        <ele>169.60059</ele>
        <time>2026-05-13T11:55:59+02:00</time>
      </trkpt>
      <trkpt lat="46.0033" lon="4.75048">
        <ele>170.10059</ele>
        <time>2026-05-13T11:56:00+02:00</time>
      </trkpt>
      <trkpt lat="46.00333" lon="4.7505">
        <ele>170.10059</ele>
        <time>2026-05-13T11:56:01+02:00</time>
      </trkpt>
      <trkpt lat="46.00337" lon="4.75051">
        <ele>170.10059</ele>
        <time>2026-05-13T11:56:02+02:00</time>
      </trkpt>
      <trkpt lat="46.00341" lon="4.75053">
        <ele>170</ele>
        <time>2026-05-13T11:56:03+02:00</time>
      </trkpt>
      <trkpt lat="46.00346" lon="4.75055">
        <ele>170</ele>
        <time>2026-05-13T11:56:04+02:00</time>
      </trkpt>
      <trkpt lat="46.0035" lon="4.75057">
        <ele>170.90039</ele>
        <time>2026-05-13T11:56:05+02:00</time>
      </trkpt>
      <trkpt lat="46.00355" lon="4.75059">
        <ele>170.60059</ele>
        <time>2026-05-13T11:56:06+02:00</time>
      </trkpt>
      <trkpt lat="46.00359" lon="4.75061">
        <ele>170</ele>
        <time>2026-05-13T11:56:07+02:00</time>
      </trkpt>
      <trkpt lat="46.00364" lon="4.75064">
        <ele>170</ele>
        <time>2026-05-13T11:56:08+02:00</time>
      </trkpt>
      <trkpt lat="46.00369" lon="4.75065">
        <ele>169.7998</ele>
        <time>2026-05-13T11:56:09+02:00</time>
      </trkpt>
      <trkpt lat="46.00375" lon="4.75065">
        <ele>169.60059</ele>
        <time>2026-05-13T11:56:10+02:00</time>
      </trkpt>
      <trkpt lat="46.0038" lon="4.75064">
        <ele>169.5</ele>
        <time>2026-05-13T11:56:11+02:00</time>
      </trkpt>
      <trkpt lat="46.00386" lon="4.75064">
        <ele>169.7998</ele>
        <time>2026-05-13T11:56:12+02:00</time>
      </trkpt>
      <trkpt lat="46.00392" lon="4.75065">
        <ele>170.90039</ele>
        <time>2026-05-13T11:56:13+02:00</time>
      </trkpt>
      <trkpt lat="46.00398" lon="4.75067">
        <ele>171</ele>
        <time>2026-05-13T11:56:14+02:00</time>
      </trkpt>
      <trkpt lat="46.00404" lon="4.75069">
        <ele>171</ele>
        <time>2026-05-13T11:56:15+02:00</time>
      </trkpt>
      <trkpt lat="46.00409" lon="4.7507">
        <ele>171</ele>
        <time>2026-05-13T11:56:16+02:00</time>
      </trkpt>
      <trkpt lat="46.00415" lon="4.75071">
        <ele>171</ele>
        <time>2026-05-13T11:56:17+02:00</time>
      </trkpt>
      <trkpt lat="46.0042" lon="4.75072">
        <ele>170.90039</ele>
        <time>2026-05-13T11:56:18+02:00</time>
      </trkpt>
      <trkpt lat="46.00425" lon="4.75073">
        <ele>172.2002</ele>
        <time>2026-05-13T11:56:19+02:00</time>
      </trkpt>
      <trkpt lat="46.00431" lon="4.75074">
        <ele>172.10059</ele>
        <time>2026-05-13T11:56:20+02:00</time>
      </trkpt>
      <trkpt lat="46.00436" lon="4.75074">
        <ele>172</ele>
        <time>2026-05-13T11:56:21+02:00</time>
      </trkpt>
      <trkpt lat="46.00441" lon="4.75075">
        <ele>172</ele>
        <time>2026-05-13T11:56:22+02:00</time>
      </trkpt>
      <trkpt lat="46.00446" lon="4.75075">
        <ele>171.90039</ele>
        <time>2026-05-13T11:56:23+02:00</time>
      </trkpt>
      <trkpt lat="46.00451" lon="4.75076">
        <ele>171.7998</ele>
        <time>2026-05-13T11:56:24+02:00</time>
      </trkpt>
      <trkpt lat="46.00455" lon="4.75076">
        <ele>171.7002</ele>
        <time>2026-05-13T11:56:25+02:00</time>
      </trkpt>
      <trkpt lat="46.0046" lon="4.75076">
        <ele>171.5</ele>
        <time>2026-05-13T11:56:26+02:00</time>
      </trkpt>
      <trkpt lat="46.00465" lon="4.75075">
        <ele>171.5</ele>
        <time>2026-05-13T11:56:27+02:00</time>
      </trkpt>
      <trkpt lat="46.00469" lon="4.75075">
        <ele>171.10059</ele>
        <time>2026-05-13T11:56:28+02:00</time>
      </trkpt>
      <trkpt lat="46.00475" lon="4.75074">
        <ele>170.7002</ele>
        <time>2026-05-13T11:56:29+02:00</time>
      </trkpt>
      <trkpt lat="46.0048" lon="4.75073">
        <ele>170.2998</ele>
        <time>2026-05-13T11:56:30+02:00</time>
      </trkpt>
      <trkpt lat="46.00486" lon="4.75071">
        <ele>168.7998</ele>
        <time>2026-05-13T11:56:31+02:00</time>
      </trkpt>
      <trkpt lat="46.00492" lon="4.7507">
        <ele>168.90039</ele>
        <time>2026-05-13T11:56:32+02:00</time>
      </trkpt>
      <trkpt lat="46.00499" lon="4.75069">
        <ele>168.90039</ele>
        <time>2026-05-13T11:56:33+02:00</time>
      </trkpt>
      <trkpt lat="46.00505" lon="4.75069">
        <ele>168.90039</ele>
        <time>2026-05-13T11:56:34+02:00</time>
      </trkpt>
      <trkpt lat="46.00511" lon="4.7507">
        <ele>168.90039</ele>
        <time>2026-05-13T11:56:35+02:00</time>
      </trkpt>
      <trkpt lat="46.00516" lon="4.7507">
        <ele>168.90039</ele>
        <time>2026-05-13T11:56:36+02:00</time>
      </trkpt>
      <trkpt lat="46.00522" lon="4.7507">
        <ele>169</ele>
        <time>2026-05-13T11:56:37+02:00</time>
      </trkpt>
      <trkpt lat="46.00527" lon="4.7507">
        <ele>169</ele>
        <time>2026-05-13T11:56:38+02:00</time>
      </trkpt>
      <trkpt lat="46.00532" lon="4.7507">
        <ele>169</ele>
        <time>2026-05-13T11:56:39+02:00</time>
      </trkpt>
      <trkpt lat="46.00538" lon="4.7507">
        <ele>169</ele>
        <time>2026-05-13T11:56:40+02:00</time>
      </trkpt>
      <trkpt lat="46.00542" lon="4.75072">
        <ele>169</ele>
        <time>2026-05-13T11:56:41+02:00</time>
      </trkpt>
      <trkpt lat="46.00546" lon="4.75073">
        <ele>169.90039</ele>
        <time>2026-05-13T11:56:42+02:00</time>
      </trkpt>
      <trkpt lat="46.00551" lon="4.75074">
        <ele>169.90039</ele>
        <time>2026-05-13T11:56:43+02:00</time>
      </trkpt>
      <trkpt lat="46.00556" lon="4.75075">
        <ele>169.90039</ele>
        <time>2026-05-13T11:56:44+02:00</time>
      </trkpt>
      <trkpt lat="46.00561" lon="4.75075">
        <ele>169.90039</ele>
        <time>2026-05-13T11:56:45+02:00</time>
      </trkpt>
      <trkpt lat="46.00567" lon="4.75075">
        <ele>169.90039</ele>
        <time>2026-05-13T11:56:46+02:00</time>
      </trkpt>
      <trkpt lat="46.00572" lon="4.75074">
        <ele>169.90039</ele>
        <time>2026-05-13T11:56:47+02:00</time>
      </trkpt>
      <trkpt lat="46.00577" lon="4.75074">
        <ele>169.90039</ele>
        <time>2026-05-13T11:56:48+02:00</time>
      </trkpt>
      <trkpt lat="46.00582" lon="4.75074">
        <ele>169.90039</ele>
        <time>2026-05-13T11:56:49+02:00</time>
      </trkpt>
      <trkpt lat="46.00588" lon="4.75074">
        <ele>169.90039</ele>
        <time>2026-05-13T11:56:50+02:00</time>
      </trkpt>
      <trkpt lat="46.00594" lon="4.75074">
        <ele>170</ele>
        <time>2026-05-13T11:56:51+02:00</time>
      </trkpt>
      <trkpt lat="46.00599" lon="4.75074">
        <ele>170.10059</ele>
        <time>2026-05-13T11:56:52+02:00</time>
      </trkpt>
      <trkpt lat="46.00606" lon="4.75074">
        <ele>170.2002</ele>
        <time>2026-05-13T11:56:53+02:00</time>
      </trkpt>
      <trkpt lat="46.00611" lon="4.75073">
        <ele>170.2998</ele>
        <time>2026-05-13T11:56:54+02:00</time>
      </trkpt>
      <trkpt lat="46.00617" lon="4.75073">
        <ele>170.40039</ele>
        <time>2026-05-13T11:56:55+02:00</time>
      </trkpt>
      <trkpt lat="46.00622" lon="4.75073">
        <ele>170.5</ele>
        <time>2026-05-13T11:56:56+02:00</time>
      </trkpt>
      <trkpt lat="46.00627" lon="4.75074">
        <ele>170.7002</ele>
        <time>2026-05-13T11:56:57+02:00</time>
      </trkpt>
      <trkpt lat="46.00632" lon="4.75074">
        <ele>170.7002</ele>
        <time>2026-05-13T11:56:58+02:00</time>
      </trkpt>
      <trkpt lat="46.00638" lon="4.75074">
        <ele>170.7998</ele>
        <time>2026-05-13T11:56:59+02:00</time>
      </trkpt>
      <trkpt lat="46.00644" lon="4.75074">
        <ele>171</ele>
        <time>2026-05-13T11:57:00+02:00</time>
      </trkpt>
      <trkpt lat="46.00649" lon="4.75074">
        <ele>171.10059</ele>
        <time>2026-05-13T11:57:01+02:00</time>
      </trkpt>
      <trkpt lat="46.00655" lon="4.75073">
        <ele>171.2998</ele>
        <time>2026-05-13T11:57:02+02:00</time>
      </trkpt>
      <trkpt lat="46.00661" lon="4.75073">
        <ele>171.5</ele>
        <time>2026-05-13T11:57:03+02:00</time>
      </trkpt>
      <trkpt lat="46.00667" lon="4.75072">
        <ele>170.5</ele>
        <time>2026-05-13T11:57:04+02:00</time>
      </trkpt>
      <trkpt lat="46.00672" lon="4.75072">
        <ele>170.60059</ele>
        <time>2026-05-13T11:57:05+02:00</time>
      </trkpt>
      <trkpt lat="46.00677" lon="4.75072">
        <ele>170.7002</ele>
        <time>2026-05-13T11:57:06+02:00</time>
      </trkpt>
      <trkpt lat="46.00683" lon="4.75072">
        <ele>170.90039</ele>
        <time>2026-05-13T11:57:07+02:00</time>
      </trkpt>
      <trkpt lat="46.00688" lon="4.75072">
        <ele>171</ele>
        <time>2026-05-13T11:57:08+02:00</time>
      </trkpt>
      <trkpt lat="46.00694" lon="4.75072">
        <ele>171.10059</ele>
        <time>2026-05-13T11:57:09+02:00</time>
      </trkpt>
      <trkpt lat="46.007" lon="4.75072">
        <ele>171.2002</ele>
        <time>2026-05-13T11:57:10+02:00</time>
      </trkpt>
      <trkpt lat="46.00705" lon="4.75072">
        <ele>171.2998</ele>
        <time>2026-05-13T11:57:11+02:00</time>
      </trkpt>
      <trkpt lat="46.0071" lon="4.7507">
        <ele>171.2998</ele>
        <time>2026-05-13T11:57:12+02:00</time>
      </trkpt>
      <trkpt lat="46.00716" lon="4.75069">
        <ele>171.2998</ele>
        <time>2026-05-13T11:57:13+02:00</time>
      </trkpt>
      <trkpt lat="46.00722" lon="4.75068">
        <ele>171.2998</ele>
        <time>2026-05-13T11:57:14+02:00</time>
      </trkpt>
      <trkpt lat="46.00728" lon="4.75068">
        <ele>171.2998</ele>
        <time>2026-05-13T11:57:15+02:00</time>
      </trkpt>
      <trkpt lat="46.00734" lon="4.75069">
        <ele>171.2998</ele>
        <time>2026-05-13T11:57:16+02:00</time>
      </trkpt>
      <trkpt lat="46.00739" lon="4.7507">
        <ele>171.2998</ele>
        <time>2026-05-13T11:57:17+02:00</time>
      </trkpt>
      <trkpt lat="46.00745" lon="4.75072">
        <ele>171.2002</ele>
        <time>2026-05-13T11:57:18+02:00</time>
      </trkpt>
      <trkpt lat="46.0075" lon="4.75073">
        <ele>172.7998</ele>
        <time>2026-05-13T11:57:19+02:00</time>
      </trkpt>
      <trkpt lat="46.00757" lon="4.75075">
        <ele>172.7002</ele>
        <time>2026-05-13T11:57:20+02:00</time>
      </trkpt>
      <trkpt lat="46.00763" lon="4.75076">
        <ele>172.60059</ele>
        <time>2026-05-13T11:57:21+02:00</time>
      </trkpt>
      <trkpt lat="46.00769" lon="4.75077">
        <ele>172.5</ele>
        <time>2026-05-13T11:57:22+02:00</time>
      </trkpt>
      <trkpt lat="46.00775" lon="4.75078">
        <ele>172.40039</ele>
        <time>2026-05-13T11:57:23+02:00</time>
      </trkpt>
      <trkpt lat="46.00781" lon="4.7508">
        <ele>172.2998</ele>
        <time>2026-05-13T11:57:24+02:00</time>
      </trkpt>
      <trkpt lat="46.00788" lon="4.75081">
        <ele>172.10059</ele>
        <time>2026-05-13T11:57:25+02:00</time>
      </trkpt>
      <trkpt lat="46.00794" lon="4.75082">
        <ele>173</ele>
        <time>2026-05-13T11:57:26+02:00</time>
      </trkpt>
      <trkpt lat="46.008" lon="4.75083">
        <ele>172.7002</ele>
        <time>2026-05-13T11:57:27+02:00</time>
      </trkpt>
      <trkpt lat="46.00805" lon="4.75082">
        <ele>172.7002</ele>
        <time>2026-05-13T11:57:28+02:00</time>
      </trkpt>
      <trkpt lat="46.00812" lon="4.75081">
        <ele>171</ele>
        <time>2026-05-13T11:57:29+02:00</time>
      </trkpt>
      <trkpt lat="46.00817" lon="4.7508">
        <ele>170.7002</ele>
        <time>2026-05-13T11:57:30+02:00</time>
      </trkpt>
      <trkpt lat="46.00823" lon="4.7508">
        <ele>170.7002</ele>
        <time>2026-05-13T11:57:31+02:00</time>
      </trkpt>
      <trkpt lat="46.00828" lon="4.7508">
        <ele>170.5</ele>
        <time>2026-05-13T11:57:32+02:00</time>
      </trkpt>
      <trkpt lat="46.00834" lon="4.75081">
        <ele>170.5</ele>
        <time>2026-05-13T11:57:33+02:00</time>
      </trkpt>
      <trkpt lat="46.00839" lon="4.75082">
        <ele>171.7002</ele>
        <time>2026-05-13T11:57:34+02:00</time>
      </trkpt>
      <trkpt lat="46.00844" lon="4.75084">
        <ele>171.7002</ele>
        <time>2026-05-13T11:57:35+02:00</time>
      </trkpt>
      <trkpt lat="46.00849" lon="4.75085">
        <ele>171.7998</ele>
        <time>2026-05-13T11:57:36+02:00</time>
      </trkpt>
      <trkpt lat="46.00854" lon="4.75084">
        <ele>171.7998</ele>
        <time>2026-05-13T11:57:37+02:00</time>
      </trkpt>
      <trkpt lat="46.00859" lon="4.75083">
        <ele>172</ele>
        <time>2026-05-13T11:57:38+02:00</time>
      </trkpt>
      <trkpt lat="46.00864" lon="4.75083">
        <ele>172</ele>
        <time>2026-05-13T11:57:39+02:00</time>
      </trkpt>
      <trkpt lat="46.00869" lon="4.75083">
        <ele>172.10059</ele>
        <time>2026-05-13T11:57:40+02:00</time>
      </trkpt>
      <trkpt lat="46.00874" lon="4.75083">
        <ele>172.40039</ele>
        <time>2026-05-13T11:57:41+02:00</time>
      </trkpt>
      <trkpt lat="46.00881" lon="4.75084">
        <ele>172.7002</ele>
        <time>2026-05-13T11:57:42+02:00</time>
      </trkpt>
      <trkpt lat="46.00887" lon="4.75083">
        <ele>173</ele>
        <time>2026-05-13T11:57:43+02:00</time>
      </trkpt>
      <trkpt lat="46.00893" lon="4.75082">
        <ele>173.2002</ele>
        <time>2026-05-13T11:57:44+02:00</time>
      </trkpt>
      <trkpt lat="46.00898" lon="4.75081">
        <ele>173.10059</ele>
        <time>2026-05-13T11:57:45+02:00</time>
      </trkpt>
      <trkpt lat="46.00905" lon="4.75081">
        <ele>173.2002</ele>
        <time>2026-05-13T11:57:46+02:00</time>
      </trkpt>
      <trkpt lat="46.0091" lon="4.7508">
        <ele>173.40039</ele>
        <time>2026-05-13T11:57:47+02:00</time>
      </trkpt>
      <trkpt lat="46.00917" lon="4.75078">
        <ele>173.40039</ele>
        <time>2026-05-13T11:57:48+02:00</time>
      </trkpt>
      <trkpt lat="46.00923" lon="4.75076">
        <ele>173.40039</ele>
        <time>2026-05-13T11:57:49+02:00</time>
      </trkpt>
      <trkpt lat="46.0093" lon="4.75074">
        <ele>173.2998</ele>
        <time>2026-05-13T11:57:50+02:00</time>
      </trkpt>
      <trkpt lat="46.00936" lon="4.75072">
        <ele>172.7002</ele>
        <time>2026-05-13T11:57:51+02:00</time>
      </trkpt>
      <trkpt lat="46.00942" lon="4.75071">
        <ele>172.7998</ele>
        <time>2026-05-13T11:57:52+02:00</time>
      </trkpt>
      <trkpt lat="46.00948" lon="4.75069">
        <ele>172.90039</ele>
        <time>2026-05-13T11:57:53+02:00</time>
      </trkpt>
      <trkpt lat="46.00954" lon="4.75069">
        <ele>173</ele>
        <time>2026-05-13T11:57:54+02:00</time>
      </trkpt>
      <trkpt lat="46.0096" lon="4.75068">
        <ele>173.2998</ele>
        <time>2026-05-13T11:57:55+02:00</time>
      </trkpt>
      <trkpt lat="46.00965" lon="4.75067">
        <ele>173.2998</ele>
        <time>2026-05-13T11:57:56+02:00</time>
      </trkpt>
      <trkpt lat="46.0097" lon="4.75066">
        <ele>173.5</ele>
        <time>2026-05-13T11:57:57+02:00</time>
      </trkpt>
      <trkpt lat="46.00976" lon="4.75064">
        <ele>173.10059</ele>
        <time>2026-05-13T11:57:58+02:00</time>
      </trkpt>
      <trkpt lat="46.00982" lon="4.75063">
        <ele>173.2002</ele>
        <time>2026-05-13T11:57:59+02:00</time>
      </trkpt>
      <trkpt lat="46.00988" lon="4.75061">
        <ele>173.2998</ele>
        <time>2026-05-13T11:58:00+02:00</time>
      </trkpt>
      <trkpt lat="46.00993" lon="4.75059">
        <ele>173.2998</ele>
        <time>2026-05-13T11:58:01+02:00</time>
      </trkpt>
      <trkpt lat="46.00999" lon="4.75057">
        <ele>173.2002</ele>
        <time>2026-05-13T11:58:02+02:00</time>
      </trkpt>
      <trkpt lat="46.01004" lon="4.75056">
        <ele>172.90039</ele>
        <time>2026-05-13T11:58:03+02:00</time>
      </trkpt>
      <trkpt lat="46.01008" lon="4.75054">
        <ele>172.10059</ele>
        <time>2026-05-13T11:58:04+02:00</time>
      </trkpt>
      <trkpt lat="46.01013" lon="4.75052">
        <ele>172.10059</ele>
        <time>2026-05-13T11:58:05+02:00</time>
      </trkpt>
      <trkpt lat="46.01018" lon="4.75051">
        <ele>171.5</ele>
        <time>2026-05-13T11:58:06+02:00</time>
      </trkpt>
      <trkpt lat="46.01022" lon="4.7505">
        <ele>171.10059</ele>
        <time>2026-05-13T11:58:07+02:00</time>
      </trkpt>
      <trkpt lat="46.01027" lon="4.75049">
        <ele>171.10059</ele>
        <time>2026-05-13T11:58:08+02:00</time>
      </trkpt>
      <trkpt lat="46.01031" lon="4.75048">
        <ele>171.10059</ele>
        <time>2026-05-13T11:58:09+02:00</time>
      </trkpt>
      <trkpt lat="46.01035" lon="4.75046">
        <ele>171</ele>
        <time>2026-05-13T11:58:10+02:00</time>
      </trkpt>
      <trkpt lat="46.0104" lon="4.75044">
        <ele>171.2002</ele>
        <time>2026-05-13T11:58:11+02:00</time>
      </trkpt>
      <trkpt lat="46.01045" lon="4.75042">
        <ele>171.40039</ele>
        <time>2026-05-13T11:58:12+02:00</time>
      </trkpt>
      <trkpt lat="46.0105" lon="4.7504">
        <ele>171.2998</ele>
        <time>2026-05-13T11:58:13+02:00</time>
      </trkpt>
      <trkpt lat="46.01055" lon="4.75038">
        <ele>171.2002</ele>
        <time>2026-05-13T11:58:14+02:00</time>
      </trkpt>
      <trkpt lat="46.0106" lon="4.75037">
        <ele>171.10059</ele>
        <time>2026-05-13T11:58:15+02:00</time>
      </trkpt>
      <trkpt lat="46.01064" lon="4.75035">
        <ele>171.10059</ele>
        <time>2026-05-13T11:58:16+02:00</time>
      </trkpt>
      <trkpt lat="46.01069" lon="4.75033">
        <ele>171.10059</ele>
        <time>2026-05-13T11:58:17+02:00</time>
      </trkpt>
      <trkpt lat="46.01074" lon="4.75031">
        <ele>171</ele>
        <time>2026-05-13T11:58:18+02:00</time>
      </trkpt>
      <trkpt lat="46.01079" lon="4.75029">
        <ele>170.60059</ele>
        <time>2026-05-13T11:58:19+02:00</time>
      </trkpt>
      <trkpt lat="46.01084" lon="4.75027">
        <ele>170.60059</ele>
        <time>2026-05-13T11:58:20+02:00</time>
      </trkpt>
      <trkpt lat="46.01088" lon="4.75026">
        <ele>170.60059</ele>
        <time>2026-05-13T11:58:21+02:00</time>
      </trkpt>
      <trkpt lat="46.01093" lon="4.75024">
        <ele>170.60059</ele>
        <time>2026-05-13T11:58:22+02:00</time>
      </trkpt>
      <trkpt lat="46.01099" lon="4.75022">
        <ele>170.60059</ele>
        <time>2026-05-13T11:58:23+02:00</time>
      </trkpt>
      <trkpt lat="46.01103" lon="4.7502">
        <ele>170.10059</ele>
        <time>2026-05-13T11:58:24+02:00</time>
      </trkpt>
      <trkpt lat="46.01108" lon="4.75018">
        <ele>170.10059</ele>
        <time>2026-05-13T11:58:25+02:00</time>
      </trkpt>
      <trkpt lat="46.01113" lon="4.75016">
        <ele>170.2002</ele>
        <time>2026-05-13T11:58:26+02:00</time>
      </trkpt>
      <trkpt lat="46.01119" lon="4.75014">
        <ele>170.2998</ele>
        <time>2026-05-13T11:58:27+02:00</time>
      </trkpt>
      <trkpt lat="46.01123" lon="4.75013">
        <ele>170.40039</ele>
        <time>2026-05-13T11:58:28+02:00</time>
      </trkpt>
      <trkpt lat="46.01128" lon="4.75011">
        <ele>169.7998</ele>
        <time>2026-05-13T11:58:29+02:00</time>
      </trkpt>
      <trkpt lat="46.01133" lon="4.7501">
        <ele>169.7998</ele>
        <time>2026-05-13T11:58:30+02:00</time>
      </trkpt>
      <trkpt lat="46.01137" lon="4.75008">
        <ele>169.90039</ele>
        <time>2026-05-13T11:58:31+02:00</time>
      </trkpt>
      <trkpt lat="46.01141" lon="4.75006">
        <ele>170</ele>
        <time>2026-05-13T11:58:32+02:00</time>
      </trkpt>
      <trkpt lat="46.01144" lon="4.75004">
        <ele>169.40039</ele>
        <time>2026-05-13T11:58:33+02:00</time>
      </trkpt>
      <trkpt lat="46.01147" lon="4.75003">
        <ele>169.5</ele>
        <time>2026-05-13T11:58:34+02:00</time>
      </trkpt>
      <trkpt lat="46.01149" lon="4.75003">
        <ele>169.5</ele>
        <time>2026-05-13T11:58:35+02:00</time>
      </trkpt>
      <trkpt lat="46.01151" lon="4.75004">
        <ele>169.60059</ele>
        <time>2026-05-13T11:58:36+02:00</time>
      </trkpt>
      <trkpt lat="46.01153" lon="4.75004">
        <ele>169.60059</ele>
        <time>2026-05-13T11:58:37+02:00</time>
      </trkpt>
      <trkpt lat="46.01156" lon="4.75003">
        <ele>169.60059</ele>
        <time>2026-05-13T11:58:38+02:00</time>
      </trkpt>
      <trkpt lat="46.0116" lon="4.75002">
        <ele>169.7002</ele>
        <time>2026-05-13T11:58:39+02:00</time>
      </trkpt>
      <trkpt lat="46.01163" lon="4.75">
        <ele>169.7998</ele>
        <time>2026-05-13T11:58:40+02:00</time>
      </trkpt>
      <trkpt lat="46.01167" lon="4.74997">
        <ele>169.7998</ele>
        <time>2026-05-13T11:58:41+02:00</time>
      </trkpt>
      <trkpt lat="46.01171" lon="4.74994">
        <ele>169.40039</ele>
        <time>2026-05-13T11:58:42+02:00</time>
      </trkpt>
      <trkpt lat="46.01175" lon="4.74992">
        <ele>169.60059</ele>
        <time>2026-05-13T11:58:43+02:00</time>
      </trkpt>
      <trkpt lat="46.01179" lon="4.7499">
        <ele>169.60059</ele>
        <time>2026-05-13T11:58:44+02:00</time>
      </trkpt>
      <trkpt lat="46.01184" lon="4.74988">
        <ele>169.7998</ele>
        <time>2026-05-13T11:58:45+02:00</time>
      </trkpt>
      <trkpt lat="46.01188" lon="4.74985">
        <ele>169.7998</ele>
        <time>2026-05-13T11:58:46+02:00</time>
      </trkpt>
      <trkpt lat="46.01192" lon="4.74983">
        <ele>169.7998</ele>
        <time>2026-05-13T11:58:47+02:00</time>
      </trkpt>
      <trkpt lat="46.01197" lon="4.74981">
        <ele>170.10059</ele>
        <time>2026-05-13T11:58:48+02:00</time>
      </trkpt>
      <trkpt lat="46.01203" lon="4.74978">
        <ele>169.7002</ele>
        <time>2026-05-13T11:58:49+02:00</time>
      </trkpt>
      <trkpt lat="46.01207" lon="4.74975">
        <ele>169.7998</ele>
        <time>2026-05-13T11:58:50+02:00</time>
      </trkpt>
      <trkpt lat="46.01212" lon="4.74972">
        <ele>169.90039</ele>
        <time>2026-05-13T11:58:51+02:00</time>
      </trkpt>
      <trkpt lat="46.01217" lon="4.74969">
        <ele>169.40039</ele>
        <time>2026-05-13T11:58:52+02:00</time>
      </trkpt>
      <trkpt lat="46.01222" lon="4.74966">
        <ele>169.40039</ele>
        <time>2026-05-13T11:58:53+02:00</time>
      </trkpt>
      <trkpt lat="46.01227" lon="4.74963">
        <ele>169.40039</ele>
        <time>2026-05-13T11:58:54+02:00</time>
      </trkpt>
      <trkpt lat="46.01231" lon="4.7496">
        <ele>169</ele>
        <time>2026-05-13T11:58:55+02:00</time>
      </trkpt>
      <trkpt lat="46.01236" lon="4.74957">
        <ele>169.10059</ele>
        <time>2026-05-13T11:58:56+02:00</time>
      </trkpt>
      <trkpt lat="46.0124" lon="4.74954">
        <ele>169.10059</ele>
        <time>2026-05-13T11:58:57+02:00</time>
      </trkpt>
      <trkpt lat="46.01244" lon="4.74951">
        <ele>169</ele>
        <time>2026-05-13T11:58:58+02:00</time>
      </trkpt>
      <trkpt lat="46.01249" lon="4.74948">
        <ele>169.2002</ele>
        <time>2026-05-13T11:58:59+02:00</time>
      </trkpt>
      <trkpt lat="46.01254" lon="4.74945">
        <ele>169.5</ele>
        <time>2026-05-13T11:59:00+02:00</time>
      </trkpt>
      <trkpt lat="46.01259" lon="4.74943">
        <ele>169.60059</ele>
        <time>2026-05-13T11:59:01+02:00</time>
      </trkpt>
      <trkpt lat="46.01264" lon="4.74939">
        <ele>169.7998</ele>
        <time>2026-05-13T11:59:02+02:00</time>
      </trkpt>
      <trkpt lat="46.01268" lon="4.74936">
        <ele>169.7998</ele>
        <time>2026-05-13T11:59:03+02:00</time>
      </trkpt>
      <trkpt lat="46.01272" lon="4.74934">
        <ele>169.40039</ele>
        <time>2026-05-13T11:59:04+02:00</time>
      </trkpt>
      <trkpt lat="46.01277" lon="4.74931">
        <ele>169.40039</ele>
        <time>2026-05-13T11:59:05+02:00</time>
      </trkpt>
      <trkpt lat="46.01281" lon="4.74928">
        <ele>169.40039</ele>
        <time>2026-05-13T11:59:06+02:00</time>
      </trkpt>
      <trkpt lat="46.01285" lon="4.74925">
        <ele>169.10059</ele>
        <time>2026-05-13T11:59:07+02:00</time>
      </trkpt>
      <trkpt lat="46.01289" lon="4.74922">
        <ele>169.2002</ele>
        <time>2026-05-13T11:59:08+02:00</time>
      </trkpt>
      <trkpt lat="46.01294" lon="4.74919">
        <ele>169.2002</ele>
        <time>2026-05-13T11:59:09+02:00</time>
      </trkpt>
      <trkpt lat="46.01298" lon="4.74917">
        <ele>168.90039</ele>
        <time>2026-05-13T11:59:10+02:00</time>
      </trkpt>
      <trkpt lat="46.01302" lon="4.74915">
        <ele>169</ele>
        <time>2026-05-13T11:59:11+02:00</time>
      </trkpt>
      <trkpt lat="46.01307" lon="4.74913">
        <ele>169.2002</ele>
        <time>2026-05-13T11:59:12+02:00</time>
      </trkpt>
      <trkpt lat="46.01312" lon="4.7491">
        <ele>169.40039</ele>
        <time>2026-05-13T11:59:13+02:00</time>
      </trkpt>
      <trkpt lat="46.01317" lon="4.74908">
        <ele>169.2002</ele>
        <time>2026-05-13T11:59:14+02:00</time>
      </trkpt>
      <trkpt lat="46.01322" lon="4.74906">
        <ele>169.60059</ele>
        <time>2026-05-13T11:59:15+02:00</time>
      </trkpt>
      <trkpt lat="46.01327" lon="4.74904">
        <ele>169.90039</ele>
        <time>2026-05-13T11:59:16+02:00</time>
      </trkpt>
      <trkpt lat="46.01333" lon="4.74901">
        <ele>169.7998</ele>
        <time>2026-05-13T11:59:17+02:00</time>
      </trkpt>
      <trkpt lat="46.01338" lon="4.74897">
        <ele>169.7998</ele>
        <time>2026-05-13T11:59:18+02:00</time>
      </trkpt>
      <trkpt lat="46.01343" lon="4.74892">
        <ele>169.5</ele>
        <time>2026-05-13T11:59:19+02:00</time>
      </trkpt>
      <trkpt lat="46.01347" lon="4.74887">
        <ele>169.5</ele>
        <time>2026-05-13T11:59:20+02:00</time>
      </trkpt>
      <trkpt lat="46.01352" lon="4.74882">
        <ele>169.2002</ele>
        <time>2026-05-13T11:59:21+02:00</time>
      </trkpt>
      <trkpt lat="46.01357" lon="4.74876">
        <ele>169.40039</ele>
        <time>2026-05-13T11:59:22+02:00</time>
      </trkpt>
      <trkpt lat="46.01362" lon="4.7487">
        <ele>169.40039</ele>
        <time>2026-05-13T11:59:23+02:00</time>
      </trkpt>
      <trkpt lat="46.01366" lon="4.74864">
        <ele>169.40039</ele>
        <time>2026-05-13T11:59:24+02:00</time>
      </trkpt>
      <trkpt lat="46.01371" lon="4.74859">
        <ele>169.40039</ele>
        <time>2026-05-13T11:59:25+02:00</time>
      </trkpt>
      <trkpt lat="46.01375" lon="4.74853">
        <ele>169.2002</ele>
        <time>2026-05-13T11:59:26+02:00</time>
      </trkpt>
      <trkpt lat="46.0138" lon="4.74847">
        <ele>169.10059</ele>
        <time>2026-05-13T11:59:27+02:00</time>
      </trkpt>
      <trkpt lat="46.01384" lon="4.74841">
        <ele>169</ele>
        <time>2026-05-13T11:59:28+02:00</time>
      </trkpt>
      <trkpt lat="46.01389" lon="4.74835">
        <ele>169</ele>
        <time>2026-05-13T11:59:29+02:00</time>
      </trkpt>
      <trkpt lat="46.01393" lon="4.74829">
        <ele>169</ele>
        <time>2026-05-13T11:59:30+02:00</time>
      </trkpt>
      <trkpt lat="46.01398" lon="4.74823">
        <ele>169</ele>
        <time>2026-05-13T11:59:31+02:00</time>
      </trkpt>
      <trkpt lat="46.01402" lon="4.74818">
        <ele>169.10059</ele>
        <time>2026-05-13T11:59:32+02:00</time>
      </trkpt>
      <trkpt lat="46.01408" lon="4.74813">
        <ele>169.10059</ele>
        <time>2026-05-13T11:59:33+02:00</time>
      </trkpt>
      <trkpt lat="46.01412" lon="4.74808">
        <ele>169.10059</ele>
        <time>2026-05-13T11:59:34+02:00</time>
      </trkpt>
      <trkpt lat="46.01417" lon="4.74804">
        <ele>169.2002</ele>
        <time>2026-05-13T11:59:35+02:00</time>
      </trkpt>
      <trkpt lat="46.01422" lon="4.74799">
        <ele>169.5</ele>
        <time>2026-05-13T11:59:36+02:00</time>
      </trkpt>
      <trkpt lat="46.01426" lon="4.74795">
        <ele>169.7998</ele>
        <time>2026-05-13T11:59:37+02:00</time>
      </trkpt>
      <trkpt lat="46.01431" lon="4.7479">
        <ele>169.7998</ele>
        <time>2026-05-13T11:59:38+02:00</time>
      </trkpt>
      <trkpt lat="46.01436" lon="4.74786">
        <ele>169.90039</ele>
        <time>2026-05-13T11:59:39+02:00</time>
      </trkpt>
      <trkpt lat="46.01441" lon="4.74782">
        <ele>170.2002</ele>
        <time>2026-05-13T11:59:40+02:00</time>
      </trkpt>
      <trkpt lat="46.01446" lon="4.74778">
        <ele>170.2998</ele>
        <time>2026-05-13T11:59:41+02:00</time>
      </trkpt>
      <trkpt lat="46.01451" lon="4.74773">
        <ele>171</ele>
        <time>2026-05-13T11:59:42+02:00</time>
      </trkpt>
      <trkpt lat="46.01456" lon="4.74769">
        <ele>171.5</ele>
        <time>2026-05-13T11:59:43+02:00</time>
      </trkpt>
      <trkpt lat="46.01461" lon="4.74766">
        <ele>171.7998</ele>
        <time>2026-05-13T11:59:44+02:00</time>
      </trkpt>
      <trkpt lat="46.01466" lon="4.74762">
        <ele>171.2002</ele>
        <time>2026-05-13T11:59:45+02:00</time>
      </trkpt>
      <trkpt lat="46.01471" lon="4.74758">
        <ele>171.2002</ele>
        <time>2026-05-13T11:59:46+02:00</time>
      </trkpt>
      <trkpt lat="46.01476" lon="4.74755">
        <ele>170.5</ele>
        <time>2026-05-13T11:59:47+02:00</time>
      </trkpt>
      <trkpt lat="46.01481" lon="4.74751">
        <ele>170.60059</ele>
        <time>2026-05-13T11:59:48+02:00</time>
      </trkpt>
      <trkpt lat="46.01486" lon="4.74748">
        <ele>170.60059</ele>
        <time>2026-05-13T11:59:49+02:00</time>
      </trkpt>
      <trkpt lat="46.01491" lon="4.74744">
        <ele>170</ele>
        <time>2026-05-13T11:59:50+02:00</time>
      </trkpt>
      <trkpt lat="46.01496" lon="4.7474">
        <ele>170</ele>
        <time>2026-05-13T11:59:51+02:00</time>
      </trkpt>
      <trkpt lat="46.01501" lon="4.74737">
        <ele>169.60059</ele>
        <time>2026-05-13T11:59:52+02:00</time>
      </trkpt>
      <trkpt lat="46.01506" lon="4.74734">
        <ele>169.7002</ele>
        <time>2026-05-13T11:59:53+02:00</time>
      </trkpt>
      <trkpt lat="46.01511" lon="4.7473">
        <ele>170</ele>
        <time>2026-05-13T11:59:54+02:00</time>
      </trkpt>
      <trkpt lat="46.01516" lon="4.74727">
        <ele>170</ele>
        <time>2026-05-13T11:59:55+02:00</time>
      </trkpt>
      <trkpt lat="46.01521" lon="4.74724">
        <ele>170.2998</ele>
        <time>2026-05-13T11:59:56+02:00</time>
      </trkpt>
      <trkpt lat="46.01526" lon="4.74721">
        <ele>170.2998</ele>
        <time>2026-05-13T11:59:57+02:00</time>
      </trkpt>
      <trkpt lat="46.01531" lon="4.74718">
        <ele>169.90039</ele>
        <time>2026-05-13T11:59:58+02:00</time>
      </trkpt>
      <trkpt lat="46.01536" lon="4.74715">
        <ele>169.90039</ele>
        <time>2026-05-13T11:59:59+02:00</time>
      </trkpt>
      <trkpt lat="46.01541" lon="4.74711">
        <ele>169.40039</ele>
        <time>2026-05-13T12:00:00+02:00</time>
      </trkpt>
      <trkpt lat="46.01546" lon="4.74708">
        <ele>169.5</ele>
        <time>2026-05-13T12:00:01+02:00</time>
      </trkpt>
      <trkpt lat="46.01552" lon="4.74705">
        <ele>169.5</ele>
        <time>2026-05-13T12:00:02+02:00</time>
      </trkpt>
      <trkpt lat="46.01557" lon="4.74701">
        <ele>169.2002</ele>
        <time>2026-05-13T12:00:03+02:00</time>
      </trkpt>
      <trkpt lat="46.01561" lon="4.74698">
        <ele>169.2002</ele>
        <time>2026-05-13T12:00:04+02:00</time>
      </trkpt>
      <trkpt lat="46.01566" lon="4.74695">
        <ele>169.10059</ele>
        <time>2026-05-13T12:00:05+02:00</time>
      </trkpt>
      <trkpt lat="46.01571" lon="4.74692">
        <ele>169.2998</ele>
        <time>2026-05-13T12:00:06+02:00</time>
      </trkpt>
      <trkpt lat="46.01577" lon="4.74688">
        <ele>169.60059</ele>
        <time>2026-05-13T12:00:07+02:00</time>
      </trkpt>
      <trkpt lat="46.01582" lon="4.74685">
        <ele>169.7002</ele>
        <time>2026-05-13T12:00:08+02:00</time>
      </trkpt>
      <trkpt lat="46.01587" lon="4.74682">
        <ele>170.10059</ele>
        <time>2026-05-13T12:00:09+02:00</time>
      </trkpt>
      <trkpt lat="46.01592" lon="4.74679">
        <ele>170.10059</ele>
        <time>2026-05-13T12:00:10+02:00</time>
      </trkpt>
      <trkpt lat="46.01597" lon="4.74676">
        <ele>169.7998</ele>
        <time>2026-05-13T12:00:11+02:00</time>
      </trkpt>
      <trkpt lat="46.01603" lon="4.74673">
        <ele>169.90039</ele>
        <time>2026-05-13T12:00:12+02:00</time>
      </trkpt>
      <trkpt lat="46.01608" lon="4.7467">
        <ele>170</ele>
        <time>2026-05-13T12:00:13+02:00</time>
      </trkpt>
      <trkpt lat="46.01613" lon="4.74667">
        <ele>169.7998</ele>
        <time>2026-05-13T12:00:14+02:00</time>
      </trkpt>
      <trkpt lat="46.01618" lon="4.74664">
        <ele>170</ele>
        <time>2026-05-13T12:00:15+02:00</time>
      </trkpt>
      <trkpt lat="46.01624" lon="4.74662">
        <ele>170.40039</ele>
        <time>2026-05-13T12:00:16+02:00</time>
      </trkpt>
      <trkpt lat="46.01629" lon="4.74659">
        <ele>170.60059</ele>
        <time>2026-05-13T12:00:17+02:00</time>
      </trkpt>
      <trkpt lat="46.01634" lon="4.74656">
        <ele>171</ele>
        <time>2026-05-13T12:00:18+02:00</time>
      </trkpt>
      <trkpt lat="46.01639" lon="4.74654">
        <ele>171</ele>
        <time>2026-05-13T12:00:19+02:00</time>
      </trkpt>
      <trkpt lat="46.01644" lon="4.74651">
        <ele>170.7998</ele>
        <time>2026-05-13T12:00:20+02:00</time>
      </trkpt>
      <trkpt lat="46.01649" lon="4.74649">
        <ele>171</ele>
        <time>2026-05-13T12:00:21+02:00</time>
      </trkpt>
      <trkpt lat="46.01655" lon="4.74646">
        <ele>171.2998</ele>
        <time>2026-05-13T12:00:22+02:00</time>
      </trkpt>
      <trkpt lat="46.0166" lon="4.74644">
        <ele>171.5</ele>
        <time>2026-05-13T12:00:23+02:00</time>
      </trkpt>
      <trkpt lat="46.01665" lon="4.74641">
        <ele>170.90039</ele>
        <time>2026-05-13T12:00:24+02:00</time>
      </trkpt>
      <trkpt lat="46.0167" lon="4.74639">
        <ele>171.10059</ele>
        <time>2026-05-13T12:00:25+02:00</time>
      </trkpt>
      <trkpt lat="46.01675" lon="4.74636">
        <ele>171.10059</ele>
        <time>2026-05-13T12:00:26+02:00</time>
      </trkpt>
      <trkpt lat="46.0168" lon="4.74633">
        <ele>170.5</ele>
        <time>2026-05-13T12:00:27+02:00</time>
      </trkpt>
      <trkpt lat="46.01685" lon="4.74631">
        <ele>170.7002</ele>
        <time>2026-05-13T12:00:28+02:00</time>
      </trkpt>
      <trkpt lat="46.0169" lon="4.74628">
        <ele>170.90039</ele>
        <time>2026-05-13T12:00:29+02:00</time>
      </trkpt>
      <trkpt lat="46.01695" lon="4.74625">
        <ele>170.2998</ele>
        <time>2026-05-13T12:00:30+02:00</time>
      </trkpt>
      <trkpt lat="46.017" lon="4.74623">
        <ele>170.5</ele>
        <time>2026-05-13T12:00:31+02:00</time>
      </trkpt>
      <trkpt lat="46.01705" lon="4.7462">
        <ele>170.5</ele>
        <time>2026-05-13T12:00:32+02:00</time>
      </trkpt>
      <trkpt lat="46.01709" lon="4.74618">
        <ele>170.7998</ele>
        <time>2026-05-13T12:00:33+02:00</time>
      </trkpt>
      <trkpt lat="46.01714" lon="4.74615">
        <ele>170.40039</ele>
        <time>2026-05-13T12:00:34+02:00</time>
      </trkpt>
      <trkpt lat="46.01719" lon="4.74613">
        <ele>170.60059</ele>
        <time>2026-05-13T12:00:35+02:00</time>
      </trkpt>
      <trkpt lat="46.01724" lon="4.74611">
        <ele>170.7998</ele>
        <time>2026-05-13T12:00:36+02:00</time>
      </trkpt>
      <trkpt lat="46.01729" lon="4.74609">
        <ele>170.2002</ele>
        <time>2026-05-13T12:00:37+02:00</time>
      </trkpt>
      <trkpt lat="46.01734" lon="4.74607">
        <ele>170.40039</ele>
        <time>2026-05-13T12:00:38+02:00</time>
      </trkpt>
      <trkpt lat="46.01739" lon="4.74606">
        <ele>170.40039</ele>
        <time>2026-05-13T12:00:39+02:00</time>
      </trkpt>
      <trkpt lat="46.01745" lon="4.74604">
        <ele>170.5</ele>
        <time>2026-05-13T12:00:40+02:00</time>
      </trkpt>
      <trkpt lat="46.0175" lon="4.74603">
        <ele>170.7002</ele>
        <time>2026-05-13T12:00:41+02:00</time>
      </trkpt>
      <trkpt lat="46.01755" lon="4.74602">
        <ele>170.90039</ele>
        <time>2026-05-13T12:00:42+02:00</time>
      </trkpt>
      <trkpt lat="46.0176" lon="4.746">
        <ele>170.5</ele>
        <time>2026-05-13T12:00:43+02:00</time>
      </trkpt>
      <trkpt lat="46.01766" lon="4.74599">
        <ele>170.60059</ele>
        <time>2026-05-13T12:00:44+02:00</time>
      </trkpt>
      <trkpt lat="46.01771" lon="4.74597">
        <ele>170.7998</ele>
        <time>2026-05-13T12:00:45+02:00</time>
      </trkpt>
      <trkpt lat="46.01776" lon="4.74595">
        <ele>170.7998</ele>
        <time>2026-05-13T12:00:46+02:00</time>
      </trkpt>
      <trkpt lat="46.01782" lon="4.74593">
        <ele>170.90039</ele>
        <time>2026-05-13T12:00:47+02:00</time>
      </trkpt>
      <trkpt lat="46.01787" lon="4.74592">
        <ele>170.2998</ele>
        <time>2026-05-13T12:00:48+02:00</time>
      </trkpt>
      <trkpt lat="46.01793" lon="4.74591">
        <ele>170.5</ele>
        <time>2026-05-13T12:00:49+02:00</time>
      </trkpt>
      <trkpt lat="46.01798" lon="4.74589">
        <ele>170.7998</ele>
        <time>2026-05-13T12:00:50+02:00</time>
      </trkpt>
      <trkpt lat="46.01804" lon="4.74588">
        <ele>171</ele>
        <time>2026-05-13T12:00:51+02:00</time>
      </trkpt>
      <trkpt lat="46.01809" lon="4.74586">
        <ele>171.2998</ele>
        <time>2026-05-13T12:00:52+02:00</time>
      </trkpt>
      <trkpt lat="46.01815" lon="4.74585">
        <ele>171.40039</ele>
        <time>2026-05-13T12:00:53+02:00</time>
      </trkpt>
      <trkpt lat="46.01821" lon="4.74584">
        <ele>171.40039</ele>
        <time>2026-05-13T12:00:54+02:00</time>
      </trkpt>
      <trkpt lat="46.01827" lon="4.74582">
        <ele>171.2002</ele>
        <time>2026-05-13T12:00:55+02:00</time>
      </trkpt>
      <trkpt lat="46.01833" lon="4.74581">
        <ele>171.2002</ele>
        <time>2026-05-13T12:00:56+02:00</time>
      </trkpt>
      <trkpt lat="46.01839" lon="4.7458">
        <ele>171.2998</ele>
        <time>2026-05-13T12:00:57+02:00</time>
      </trkpt>
      <trkpt lat="46.01845" lon="4.74579">
        <ele>171.40039</ele>
        <time>2026-05-13T12:00:58+02:00</time>
      </trkpt>
      <trkpt lat="46.01851" lon="4.74578">
        <ele>171.5</ele>
        <time>2026-05-13T12:00:59+02:00</time>
      </trkpt>
      <trkpt lat="46.01858" lon="4.74578">
        <ele>171.60059</ele>
        <time>2026-05-13T12:01:00+02:00</time>
      </trkpt>
      <trkpt lat="46.01863" lon="4.74577">
        <ele>171.5</ele>
        <time>2026-05-13T12:01:01+02:00</time>
      </trkpt>
      <trkpt lat="46.01869" lon="4.74577">
        <ele>171.40039</ele>
        <time>2026-05-13T12:01:02+02:00</time>
      </trkpt>
      <trkpt lat="46.01875" lon="4.74577">
        <ele>171.2002</ele>
        <time>2026-05-13T12:01:03+02:00</time>
      </trkpt>
      <trkpt lat="46.0188" lon="4.74576">
        <ele>171.2002</ele>
        <time>2026-05-13T12:01:04+02:00</time>
      </trkpt>
      <trkpt lat="46.01886" lon="4.74576">
        <ele>171.2002</ele>
        <time>2026-05-13T12:01:05+02:00</time>
      </trkpt>
      <trkpt lat="46.01892" lon="4.74576">
        <ele>171.2002</ele>
        <time>2026-05-13T12:01:06+02:00</time>
      </trkpt>
      <trkpt lat="46.01897" lon="4.74575">
        <ele>170.7002</ele>
        <time>2026-05-13T12:01:07+02:00</time>
      </trkpt>
      <trkpt lat="46.01903" lon="4.74575">
        <ele>170.60059</ele>
        <time>2026-05-13T12:01:08+02:00</time>
      </trkpt>
      <trkpt lat="46.01909" lon="4.74575">
        <ele>170.60059</ele>
        <time>2026-05-13T12:01:09+02:00</time>
      </trkpt>
      <trkpt lat="46.01914" lon="4.74575">
        <ele>170.5</ele>
        <time>2026-05-13T12:01:10+02:00</time>
      </trkpt>
      <trkpt lat="46.01919" lon="4.74575">
        <ele>170.5</ele>
        <time>2026-05-13T12:01:11+02:00</time>
      </trkpt>
      <trkpt lat="46.01924" lon="4.74575">
        <ele>170.5</ele>
        <time>2026-05-13T12:01:12+02:00</time>
      </trkpt>
      <trkpt lat="46.0193" lon="4.74575">
        <ele>170.40039</ele>
        <time>2026-05-13T12:01:13+02:00</time>
      </trkpt>
      <trkpt lat="46.01936" lon="4.74575">
        <ele>170.40039</ele>
        <time>2026-05-13T12:01:14+02:00</time>
      </trkpt>
      <trkpt lat="46.01941" lon="4.74575">
        <ele>170.2998</ele>
        <time>2026-05-13T12:01:15+02:00</time>
      </trkpt>
      <trkpt lat="46.01948" lon="4.74576">
        <ele>171.5</ele>
        <time>2026-05-13T12:01:16+02:00</time>
      </trkpt>
      <trkpt lat="46.01954" lon="4.74576">
        <ele>171.7002</ele>
        <time>2026-05-13T12:01:17+02:00</time>
      </trkpt>
      <trkpt lat="46.0196" lon="4.74576">
        <ele>171.90039</ele>
        <time>2026-05-13T12:01:18+02:00</time>
      </trkpt>
      <trkpt lat="46.01966" lon="4.74577">
        <ele>172.10059</ele>
        <time>2026-05-13T12:01:19+02:00</time>
      </trkpt>
      <trkpt lat="46.01972" lon="4.74578">
        <ele>172.2998</ele>
        <time>2026-05-13T12:01:20+02:00</time>
      </trkpt>
      <trkpt lat="46.01978" lon="4.74578">
        <ele>172.40039</ele>
        <time>2026-05-13T12:01:21+02:00</time>
      </trkpt>
      <trkpt lat="46.01984" lon="4.74578">
        <ele>172.5</ele>
        <time>2026-05-13T12:01:22+02:00</time>
      </trkpt>
      <trkpt lat="46.0199" lon="4.74579">
        <ele>172.5</ele>
        <time>2026-05-13T12:01:23+02:00</time>
      </trkpt>
      <trkpt lat="46.01996" lon="4.74579">
        <ele>172.5</ele>
        <time>2026-05-13T12:01:24+02:00</time>
      </trkpt>
      <trkpt lat="46.02002" lon="4.7458">
        <ele>172.40039</ele>
        <time>2026-05-13T12:01:25+02:00</time>
      </trkpt>
      <trkpt lat="46.02007" lon="4.7458">
        <ele>172.40039</ele>
        <time>2026-05-13T12:01:26+02:00</time>
      </trkpt>
      <trkpt lat="46.02013" lon="4.74581">
        <ele>172.2998</ele>
        <time>2026-05-13T12:01:27+02:00</time>
      </trkpt>
      <trkpt lat="46.02019" lon="4.74582">
        <ele>172.2002</ele>
        <time>2026-05-13T12:01:28+02:00</time>
      </trkpt>
      <trkpt lat="46.02025" lon="4.74583">
        <ele>172.10059</ele>
        <time>2026-05-13T12:01:29+02:00</time>
      </trkpt>
      <trkpt lat="46.0203" lon="4.74585">
        <ele>172.5</ele>
        <time>2026-05-13T12:01:30+02:00</time>
      </trkpt>
      <trkpt lat="46.02036" lon="4.74587">
        <ele>172.40039</ele>
        <time>2026-05-13T12:01:31+02:00</time>
      </trkpt>
      <trkpt lat="46.02041" lon="4.74588">
        <ele>172.2002</ele>
        <time>2026-05-13T12:01:32+02:00</time>
      </trkpt>
      <trkpt lat="46.02047" lon="4.7459">
        <ele>172.10059</ele>
        <time>2026-05-13T12:01:33+02:00</time>
      </trkpt>
      <trkpt lat="46.02052" lon="4.74591">
        <ele>172</ele>
        <time>2026-05-13T12:01:34+02:00</time>
      </trkpt>
      <trkpt lat="46.02058" lon="4.74593">
        <ele>172.10059</ele>
        <time>2026-05-13T12:01:35+02:00</time>
      </trkpt>
      <trkpt lat="46.02064" lon="4.74594">
        <ele>172</ele>
        <time>2026-05-13T12:01:36+02:00</time>
      </trkpt>
      <trkpt lat="46.02069" lon="4.74595">
        <ele>171.90039</ele>
        <time>2026-05-13T12:01:37+02:00</time>
      </trkpt>
      <trkpt lat="46.02075" lon="4.74596">
        <ele>171.7998</ele>
        <time>2026-05-13T12:01:38+02:00</time>
      </trkpt>
      <trkpt lat="46.0208" lon="4.74598">
        <ele>171.7998</ele>
        <time>2026-05-13T12:01:39+02:00</time>
      </trkpt>
      <trkpt lat="46.02086" lon="4.746">
        <ele>171.60059</ele>
        <time>2026-05-13T12:01:40+02:00</time>
      </trkpt>
      <trkpt lat="46.02092" lon="4.74602">
        <ele>171.7002</ele>
        <time>2026-05-13T12:01:41+02:00</time>
      </trkpt>
      <trkpt lat="46.02098" lon="4.74604">
        <ele>171.60059</ele>
        <time>2026-05-13T12:01:42+02:00</time>
      </trkpt>
      <trkpt lat="46.02104" lon="4.74606">
        <ele>171.5</ele>
        <time>2026-05-13T12:01:43+02:00</time>
      </trkpt>
      <trkpt lat="46.02109" lon="4.74608">
        <ele>171.5</ele>
        <time>2026-05-13T12:01:44+02:00</time>
      </trkpt>
      <trkpt lat="46.02115" lon="4.7461">
        <ele>171.7002</ele>
        <time>2026-05-13T12:01:45+02:00</time>
      </trkpt>
      <trkpt lat="46.0212" lon="4.74612">
        <ele>171.7002</ele>
        <time>2026-05-13T12:01:46+02:00</time>
      </trkpt>
      <trkpt lat="46.02126" lon="4.74614">
        <ele>171.7002</ele>
        <time>2026-05-13T12:01:47+02:00</time>
      </trkpt>
      <trkpt lat="46.02131" lon="4.74617">
        <ele>171.7002</ele>
        <time>2026-05-13T12:01:48+02:00</time>
      </trkpt>
      <trkpt lat="46.02137" lon="4.74619">
        <ele>171.7002</ele>
        <time>2026-05-13T12:01:49+02:00</time>
      </trkpt>
      <trkpt lat="46.02142" lon="4.74622">
        <ele>171.7998</ele>
        <time>2026-05-13T12:01:50+02:00</time>
      </trkpt>
      <trkpt lat="46.02148" lon="4.74625">
        <ele>171.7998</ele>
        <time>2026-05-13T12:01:51+02:00</time>
      </trkpt>
      <trkpt lat="46.02154" lon="4.74627">
        <ele>171.5</ele>
        <time>2026-05-13T12:01:52+02:00</time>
      </trkpt>
      <trkpt lat="46.02159" lon="4.74629">
        <ele>171.40039</ele>
        <time>2026-05-13T12:01:53+02:00</time>
      </trkpt>
      <trkpt lat="46.02165" lon="4.74631">
        <ele>171.2002</ele>
        <time>2026-05-13T12:01:54+02:00</time>
      </trkpt>
      <trkpt lat="46.0217" lon="4.74633">
        <ele>171.10059</ele>
        <time>2026-05-13T12:01:55+02:00</time>
      </trkpt>
      <trkpt lat="46.02175" lon="4.74635">
        <ele>171.10059</ele>
        <time>2026-05-13T12:01:56+02:00</time>
      </trkpt>
      <trkpt lat="46.0218" lon="4.74637">
        <ele>171.2998</ele>
        <time>2026-05-13T12:01:57+02:00</time>
      </trkpt>
      <trkpt lat="46.02186" lon="4.74639">
        <ele>171.2998</ele>
        <time>2026-05-13T12:01:58+02:00</time>
      </trkpt>
      <trkpt lat="46.02191" lon="4.74642">
        <ele>171.2998</ele>
        <time>2026-05-13T12:01:59+02:00</time>
      </trkpt>
      <trkpt lat="46.02197" lon="4.74644">
        <ele>171.40039</ele>
        <time>2026-05-13T12:02:00+02:00</time>
      </trkpt>
      <trkpt lat="46.02202" lon="4.74646">
        <ele>171.40039</ele>
        <time>2026-05-13T12:02:01+02:00</time>
      </trkpt>
      <trkpt lat="46.02207" lon="4.74649">
        <ele>171.40039</ele>
        <time>2026-05-13T12:02:02+02:00</time>
      </trkpt>
      <trkpt lat="46.02212" lon="4.74651">
        <ele>171.2998</ele>
        <time>2026-05-13T12:02:03+02:00</time>
      </trkpt>
      <trkpt lat="46.02217" lon="4.74654">
        <ele>171.40039</ele>
        <time>2026-05-13T12:02:04+02:00</time>
      </trkpt>
      <trkpt lat="46.02223" lon="4.74657">
        <ele>171.2998</ele>
        <time>2026-05-13T12:02:05+02:00</time>
      </trkpt>
      <trkpt lat="46.02228" lon="4.7466">
        <ele>171.2998</ele>
        <time>2026-05-13T12:02:06+02:00</time>
      </trkpt>
      <trkpt lat="46.02233" lon="4.74663">
        <ele>171.40039</ele>
        <time>2026-05-13T12:02:07+02:00</time>
      </trkpt>
      <trkpt lat="46.02238" lon="4.74666">
        <ele>171.40039</ele>
        <time>2026-05-13T12:02:08+02:00</time>
      </trkpt>
      <trkpt lat="46.02244" lon="4.74668">
        <ele>171.40039</ele>
        <time>2026-05-13T12:02:09+02:00</time>
      </trkpt>
      <trkpt lat="46.02249" lon="4.74671">
        <ele>171.40039</ele>
        <time>2026-05-13T12:02:10+02:00</time>
      </trkpt>
      <trkpt lat="46.02254" lon="4.74674">
        <ele>171.40039</ele>
        <time>2026-05-13T12:02:11+02:00</time>
      </trkpt>
      <trkpt lat="46.0226" lon="4.74676">
        <ele>171.40039</ele>
        <time>2026-05-13T12:02:12+02:00</time>
      </trkpt>
      <trkpt lat="46.02266" lon="4.74679">
        <ele>171.2002</ele>
        <time>2026-05-13T12:02:13+02:00</time>
      </trkpt>
      <trkpt lat="46.02271" lon="4.74682">
        <ele>171.2002</ele>
        <time>2026-05-13T12:02:14+02:00</time>
      </trkpt>
      <trkpt lat="46.02277" lon="4.74684">
        <ele>171</ele>
        <time>2026-05-13T12:02:15+02:00</time>
      </trkpt>
      <trkpt lat="46.02282" lon="4.74687">
        <ele>170.90039</ele>
        <time>2026-05-13T12:02:16+02:00</time>
      </trkpt>
      <trkpt lat="46.02287" lon="4.74689">
        <ele>170.7998</ele>
        <time>2026-05-13T12:02:17+02:00</time>
      </trkpt>
      <trkpt lat="46.02293" lon="4.74692">
        <ele>170.7998</ele>
        <time>2026-05-13T12:02:18+02:00</time>
      </trkpt>
      <trkpt lat="46.02298" lon="4.74694">
        <ele>170.7002</ele>
        <time>2026-05-13T12:02:19+02:00</time>
      </trkpt>
      <trkpt lat="46.02303" lon="4.74697">
        <ele>170.7998</ele>
        <time>2026-05-13T12:02:20+02:00</time>
      </trkpt>
      <trkpt lat="46.02308" lon="4.747">
        <ele>170.7002</ele>
        <time>2026-05-13T12:02:21+02:00</time>
      </trkpt>
      <trkpt lat="46.02314" lon="4.74702">
        <ele>170.7002</ele>
        <time>2026-05-13T12:02:22+02:00</time>
      </trkpt>
      <trkpt lat="46.0232" lon="4.74705">
        <ele>170.60059</ele>
        <time>2026-05-13T12:02:23+02:00</time>
      </trkpt>
      <trkpt lat="46.02326" lon="4.74708">
        <ele>170.60059</ele>
        <time>2026-05-13T12:02:24+02:00</time>
      </trkpt>
      <trkpt lat="46.02331" lon="4.74711">
        <ele>170.5</ele>
        <time>2026-05-13T12:02:25+02:00</time>
      </trkpt>
      <trkpt lat="46.02337" lon="4.74714">
        <ele>170.5</ele>
        <time>2026-05-13T12:02:26+02:00</time>
      </trkpt>
      <trkpt lat="46.02343" lon="4.74717">
        <ele>170.2998</ele>
        <time>2026-05-13T12:02:27+02:00</time>
      </trkpt>
      <trkpt lat="46.02348" lon="4.74719">
        <ele>170.2998</ele>
        <time>2026-05-13T12:02:28+02:00</time>
      </trkpt>
      <trkpt lat="46.02354" lon="4.74722">
        <ele>170.2998</ele>
        <time>2026-05-13T12:02:29+02:00</time>
      </trkpt>
      <trkpt lat="46.0236" lon="4.74725">
        <ele>170.2002</ele>
        <time>2026-05-13T12:02:30+02:00</time>
      </trkpt>
      <trkpt lat="46.02366" lon="4.74727">
        <ele>170.10059</ele>
        <time>2026-05-13T12:02:31+02:00</time>
      </trkpt>
      <trkpt lat="46.02371" lon="4.7473">
        <ele>170.10059</ele>
        <time>2026-05-13T12:02:32+02:00</time>
      </trkpt>
      <trkpt lat="46.02377" lon="4.74732">
        <ele>169.90039</ele>
        <time>2026-05-13T12:02:33+02:00</time>
      </trkpt>
      <trkpt lat="46.02382" lon="4.74734">
        <ele>169.7002</ele>
        <time>2026-05-13T12:02:34+02:00</time>
      </trkpt>
      <trkpt lat="46.02388" lon="4.74737">
        <ele>169.60059</ele>
        <time>2026-05-13T12:02:35+02:00</time>
      </trkpt>
      <trkpt lat="46.02394" lon="4.74739">
        <ele>169.7998</ele>
        <time>2026-05-13T12:02:36+02:00</time>
      </trkpt>
      <trkpt lat="46.02399" lon="4.74741">
        <ele>169.7002</ele>
        <time>2026-05-13T12:02:37+02:00</time>
      </trkpt>
      <trkpt lat="46.02405" lon="4.74743">
        <ele>169.60059</ele>
        <time>2026-05-13T12:02:38+02:00</time>
      </trkpt>
      <trkpt lat="46.02411" lon="4.74745">
        <ele>169.5</ele>
        <time>2026-05-13T12:02:39+02:00</time>
      </trkpt>
      <trkpt lat="46.02417" lon="4.74747">
        <ele>169.60059</ele>
        <time>2026-05-13T12:02:40+02:00</time>
      </trkpt>
      <trkpt lat="46.02422" lon="4.74749">
        <ele>169.5</ele>
        <time>2026-05-13T12:02:41+02:00</time>
      </trkpt>
      <trkpt lat="46.02429" lon="4.74751">
        <ele>169.40039</ele>
        <time>2026-05-13T12:02:42+02:00</time>
      </trkpt>
      <trkpt lat="46.02435" lon="4.74752">
        <ele>169.40039</ele>
        <time>2026-05-13T12:02:43+02:00</time>
      </trkpt>
      <trkpt lat="46.0244" lon="4.74754">
        <ele>169.2998</ele>
        <time>2026-05-13T12:02:44+02:00</time>
      </trkpt>
      <trkpt lat="46.02446" lon="4.74755">
        <ele>169.2998</ele>
        <time>2026-05-13T12:02:45+02:00</time>
      </trkpt>
      <trkpt lat="46.02451" lon="4.74758">
        <ele>169.40039</ele>
        <time>2026-05-13T12:02:46+02:00</time>
      </trkpt>
      <trkpt lat="46.02457" lon="4.74761">
        <ele>169.40039</ele>
        <time>2026-05-13T12:02:47+02:00</time>
      </trkpt>
      <trkpt lat="46.02462" lon="4.74765">
        <ele>169.5</ele>
        <time>2026-05-13T12:02:48+02:00</time>
      </trkpt>
      <trkpt lat="46.02467" lon="4.74768">
        <ele>169.5</ele>
        <time>2026-05-13T12:02:49+02:00</time>
      </trkpt>
      <trkpt lat="46.02473" lon="4.74771">
        <ele>169.40039</ele>
        <time>2026-05-13T12:02:50+02:00</time>
      </trkpt>
      <trkpt lat="46.02478" lon="4.74774">
        <ele>169.5</ele>
        <time>2026-05-13T12:02:51+02:00</time>
      </trkpt>
      <trkpt lat="46.02484" lon="4.74777">
        <ele>169.5</ele>
        <time>2026-05-13T12:02:52+02:00</time>
      </trkpt>
      <trkpt lat="46.0249" lon="4.7478">
        <ele>169.40039</ele>
        <time>2026-05-13T12:02:53+02:00</time>
      </trkpt>
      <trkpt lat="46.02495" lon="4.74782">
        <ele>169.5</ele>
        <time>2026-05-13T12:02:54+02:00</time>
      </trkpt>
      <trkpt lat="46.02501" lon="4.74784">
        <ele>169.5</ele>
        <time>2026-05-13T12:02:55+02:00</time>
      </trkpt>
      <trkpt lat="46.02506" lon="4.74787">
        <ele>169.60059</ele>
        <time>2026-05-13T12:02:56+02:00</time>
      </trkpt>
      <trkpt lat="46.02512" lon="4.74789">
        <ele>169.60059</ele>
        <time>2026-05-13T12:02:57+02:00</time>
      </trkpt>
      <trkpt lat="46.02518" lon="4.74791">
        <ele>169.7998</ele>
        <time>2026-05-13T12:02:58+02:00</time>
      </trkpt>
      <trkpt lat="46.02524" lon="4.74793">
        <ele>169.7998</ele>
        <time>2026-05-13T12:02:59+02:00</time>
      </trkpt>
      <trkpt lat="46.02529" lon="4.74795">
        <ele>169.7998</ele>
        <time>2026-05-13T12:03:00+02:00</time>
      </trkpt>
      <trkpt lat="46.02535" lon="4.74797">
        <ele>169.7998</ele>
        <time>2026-05-13T12:03:01+02:00</time>
      </trkpt>
      <trkpt lat="46.02541" lon="4.74799">
        <ele>169.90039</ele>
        <time>2026-05-13T12:03:02+02:00</time>
      </trkpt>
      <trkpt lat="46.02546" lon="4.74801">
        <ele>169.90039</ele>
        <time>2026-05-13T12:03:03+02:00</time>
      </trkpt>
      <trkpt lat="46.02553" lon="4.74802">
        <ele>169.90039</ele>
        <time>2026-05-13T12:03:04+02:00</time>
      </trkpt>
      <trkpt lat="46.02558" lon="4.74804">
        <ele>169.90039</ele>
        <time>2026-05-13T12:03:05+02:00</time>
      </trkpt>
      <trkpt lat="46.02564" lon="4.74806">
        <ele>169.7998</ele>
        <time>2026-05-13T12:03:06+02:00</time>
      </trkpt>
      <trkpt lat="46.0257" lon="4.74808">
        <ele>169.90039</ele>
        <time>2026-05-13T12:03:07+02:00</time>
      </trkpt>
      <trkpt lat="46.02576" lon="4.74809">
        <ele>169.7002</ele>
        <time>2026-05-13T12:03:08+02:00</time>
      </trkpt>
      <trkpt lat="46.02582" lon="4.74811">
        <ele>169.60059</ele>
        <time>2026-05-13T12:03:09+02:00</time>
      </trkpt>
      <trkpt lat="46.02588" lon="4.74812">
        <ele>169.5</ele>
        <time>2026-05-13T12:03:10+02:00</time>
      </trkpt>
      <trkpt lat="46.02594" lon="4.74814">
        <ele>169.40039</ele>
        <time>2026-05-13T12:03:11+02:00</time>
      </trkpt>
      <trkpt lat="46.02599" lon="4.74816">
        <ele>169.60059</ele>
        <time>2026-05-13T12:03:12+02:00</time>
      </trkpt>
      <trkpt lat="46.02605" lon="4.74817">
        <ele>169.40039</ele>
        <time>2026-05-13T12:03:13+02:00</time>
      </trkpt>
      <trkpt lat="46.02611" lon="4.74819">
        <ele>169.10059</ele>
        <time>2026-05-13T12:03:14+02:00</time>
      </trkpt>
      <trkpt lat="46.02617" lon="4.74821">
        <ele>169.10059</ele>
        <time>2026-05-13T12:03:15+02:00</time>
      </trkpt>
      <trkpt lat="46.02623" lon="4.74824">
        <ele>169.2002</ele>
        <time>2026-05-13T12:03:16+02:00</time>
      </trkpt>
      <trkpt lat="46.02628" lon="4.74826">
        <ele>169.10059</ele>
        <time>2026-05-13T12:03:17+02:00</time>
      </trkpt>
      <trkpt lat="46.02634" lon="4.74829">
        <ele>169.10059</ele>
        <time>2026-05-13T12:03:18+02:00</time>
      </trkpt>
      <trkpt lat="46.0264" lon="4.74831">
        <ele>169</ele>
        <time>2026-05-13T12:03:19+02:00</time>
      </trkpt>
      <trkpt lat="46.02645" lon="4.74833">
        <ele>169.2002</ele>
        <time>2026-05-13T12:03:20+02:00</time>
      </trkpt>
      <trkpt lat="46.02651" lon="4.74836">
        <ele>169.2002</ele>
        <time>2026-05-13T12:03:21+02:00</time>
      </trkpt>
      <trkpt lat="46.02657" lon="4.74838">
        <ele>169.10059</ele>
        <time>2026-05-13T12:03:22+02:00</time>
      </trkpt>
      <trkpt lat="46.02663" lon="4.74841">
        <ele>169.10059</ele>
        <time>2026-05-13T12:03:23+02:00</time>
      </trkpt>
      <trkpt lat="46.02669" lon="4.74843">
        <ele>169.2998</ele>
        <time>2026-05-13T12:03:24+02:00</time>
      </trkpt>
      <trkpt lat="46.02674" lon="4.74845">
        <ele>169.5</ele>
        <time>2026-05-13T12:03:25+02:00</time>
      </trkpt>
      <trkpt lat="46.0268" lon="4.74847">
        <ele>169.7002</ele>
        <time>2026-05-13T12:03:26+02:00</time>
      </trkpt>
      <trkpt lat="46.02685" lon="4.74849">
        <ele>169.7998</ele>
        <time>2026-05-13T12:03:27+02:00</time>
      </trkpt>
      <trkpt lat="46.02691" lon="4.74852">
        <ele>170.2998</ele>
        <time>2026-05-13T12:03:28+02:00</time>
      </trkpt>
      <trkpt lat="46.02696" lon="4.74854">
        <ele>170.60059</ele>
        <time>2026-05-13T12:03:29+02:00</time>
      </trkpt>
      <trkpt lat="46.02701" lon="4.74857">
        <ele>170.90039</ele>
        <time>2026-05-13T12:03:30+02:00</time>
      </trkpt>
      <trkpt lat="46.02706" lon="4.7486">
        <ele>171</ele>
        <time>2026-05-13T12:03:31+02:00</time>
      </trkpt>
      <trkpt lat="46.02711" lon="4.74863">
        <ele>171.2002</ele>
        <time>2026-05-13T12:03:32+02:00</time>
      </trkpt>
      <trkpt lat="46.02716" lon="4.74866">
        <ele>171.40039</ele>
        <time>2026-05-13T12:03:33+02:00</time>
      </trkpt>
      <trkpt lat="46.02721" lon="4.74869">
        <ele>171.7998</ele>
        <time>2026-05-13T12:03:34+02:00</time>
      </trkpt>
      <trkpt lat="46.02726" lon="4.74872">
        <ele>172</ele>
        <time>2026-05-13T12:03:35+02:00</time>
      </trkpt>
      <trkpt lat="46.0273" lon="4.74875">
        <ele>172</ele>
        <time>2026-05-13T12:03:36+02:00</time>
      </trkpt>
      <trkpt lat="46.02735" lon="4.74878">
        <ele>172.7002</ele>
        <time>2026-05-13T12:03:37+02:00</time>
      </trkpt>
      <trkpt lat="46.02741" lon="4.74881">
        <ele>172.90039</ele>
        <time>2026-05-13T12:03:38+02:00</time>
      </trkpt>
      <trkpt lat="46.02746" lon="4.74885">
        <ele>173.2002</ele>
        <time>2026-05-13T12:03:39+02:00</time>
      </trkpt>
      <trkpt lat="46.02752" lon="4.74889">
        <ele>173.2002</ele>
        <time>2026-05-13T12:03:40+02:00</time>
      </trkpt>
      <trkpt lat="46.02757" lon="4.74892">
        <ele>172.90039</ele>
        <time>2026-05-13T12:03:41+02:00</time>
      </trkpt>
      <trkpt lat="46.02763" lon="4.74896">
        <ele>172.5</ele>
        <time>2026-05-13T12:03:42+02:00</time>
      </trkpt>
      <trkpt lat="46.02768" lon="4.74899">
        <ele>171.7998</ele>
        <time>2026-05-13T12:03:43+02:00</time>
      </trkpt>
      <trkpt lat="46.02774" lon="4.74901">
        <ele>171.2998</ele>
        <time>2026-05-13T12:03:44+02:00</time>
      </trkpt>
      <trkpt lat="46.02779" lon="4.74902">
        <ele>171.10059</ele>
        <time>2026-05-13T12:03:45+02:00</time>
      </trkpt>
      <trkpt lat="46.02784" lon="4.74903">
        <ele>170.90039</ele>
        <time>2026-05-13T12:03:46+02:00</time>
      </trkpt>
      <trkpt lat="46.02789" lon="4.74904">
        <ele>170.90039</ele>
        <time>2026-05-13T12:03:47+02:00</time>
      </trkpt>
      <trkpt lat="46.02795" lon="4.74905">
        <ele>170.7002</ele>
        <time>2026-05-13T12:03:48+02:00</time>
      </trkpt>
      <trkpt lat="46.02801" lon="4.74906">
        <ele>170.5</ele>
        <time>2026-05-13T12:03:49+02:00</time>
      </trkpt>
      <trkpt lat="46.02807" lon="4.74907">
        <ele>170.40039</ele>
        <time>2026-05-13T12:03:50+02:00</time>
      </trkpt>
      <trkpt lat="46.02813" lon="4.74908">
        <ele>170.2998</ele>
        <time>2026-05-13T12:03:51+02:00</time>
      </trkpt>
      <trkpt lat="46.02818" lon="4.74909">
        <ele>170.10059</ele>
        <time>2026-05-13T12:03:52+02:00</time>
      </trkpt>
      <trkpt lat="46.02825" lon="4.7491">
        <ele>170.10059</ele>
        <time>2026-05-13T12:03:53+02:00</time>
      </trkpt>
      <trkpt lat="46.02831" lon="4.7491">
        <ele>169.90039</ele>
        <time>2026-05-13T12:03:54+02:00</time>
      </trkpt>
      <trkpt lat="46.02837" lon="4.74911">
        <ele>169.7002</ele>
        <time>2026-05-13T12:03:55+02:00</time>
      </trkpt>
      <trkpt lat="46.02843" lon="4.74911">
        <ele>169.60059</ele>
        <time>2026-05-13T12:03:56+02:00</time>
      </trkpt>
      <trkpt lat="46.02849" lon="4.74911">
        <ele>169.40039</ele>
        <time>2026-05-13T12:03:57+02:00</time>
      </trkpt>
      <trkpt lat="46.02855" lon="4.74912">
        <ele>169.2998</ele>
        <time>2026-05-13T12:03:58+02:00</time>
      </trkpt>
      <trkpt lat="46.02861" lon="4.74913">
        <ele>169.2002</ele>
        <time>2026-05-13T12:03:59+02:00</time>
      </trkpt>
      <trkpt lat="46.02867" lon="4.74913">
        <ele>169.10059</ele>
        <time>2026-05-13T12:04:00+02:00</time>
      </trkpt>
      <trkpt lat="46.02873" lon="4.74913">
        <ele>169</ele>
        <time>2026-05-13T12:04:01+02:00</time>
      </trkpt>
      <trkpt lat="46.02879" lon="4.74913">
        <ele>168.7998</ele>
        <time>2026-05-13T12:04:02+02:00</time>
      </trkpt>
      <trkpt lat="46.02886" lon="4.74913">
        <ele>168.60059</ele>
        <time>2026-05-13T12:04:03+02:00</time>
      </trkpt>
      <trkpt lat="46.02892" lon="4.74913">
        <ele>168.5</ele>
        <time>2026-05-13T12:04:04+02:00</time>
      </trkpt>
      <trkpt lat="46.02898" lon="4.74913">
        <ele>168.40039</ele>
        <time>2026-05-13T12:04:05+02:00</time>
      </trkpt>
      <trkpt lat="46.02905" lon="4.74912">
        <ele>168.2998</ele>
        <time>2026-05-13T12:04:06+02:00</time>
      </trkpt>
      <trkpt lat="46.02911" lon="4.74911">
        <ele>168.2998</ele>
        <time>2026-05-13T12:04:07+02:00</time>
      </trkpt>
      <trkpt lat="46.02917" lon="4.74909">
        <ele>168.10059</ele>
        <time>2026-05-13T12:04:08+02:00</time>
      </trkpt>
      <trkpt lat="46.02923" lon="4.74908">
        <ele>168.10059</ele>
        <time>2026-05-13T12:04:09+02:00</time>
      </trkpt>
      <trkpt lat="46.02929" lon="4.74906">
        <ele>168.2002</ele>
        <time>2026-05-13T12:04:10+02:00</time>
      </trkpt>
      <trkpt lat="46.02936" lon="4.74905">
        <ele>168.2002</ele>
        <time>2026-05-13T12:04:11+02:00</time>
      </trkpt>
      <trkpt lat="46.02942" lon="4.74903">
        <ele>168.2998</ele>
        <time>2026-05-13T12:04:12+02:00</time>
      </trkpt>
      <trkpt lat="46.02947" lon="4.74902">
        <ele>168.2998</ele>
        <time>2026-05-13T12:04:13+02:00</time>
      </trkpt>
      <trkpt lat="46.02953" lon="4.749">
        <ele>168.2998</ele>
        <time>2026-05-13T12:04:14+02:00</time>
      </trkpt>
      <trkpt lat="46.02959" lon="4.749">
        <ele>168.2998</ele>
        <time>2026-05-13T12:04:15+02:00</time>
      </trkpt>
      <trkpt lat="46.02965" lon="4.74899">
        <ele>168.40039</ele>
        <time>2026-05-13T12:04:16+02:00</time>
      </trkpt>
      <trkpt lat="46.02971" lon="4.74898">
        <ele>168.5</ele>
        <time>2026-05-13T12:04:17+02:00</time>
      </trkpt>
      <trkpt lat="46.02977" lon="4.74898">
        <ele>168.5</ele>
        <time>2026-05-13T12:04:18+02:00</time>
      </trkpt>
      <trkpt lat="46.02983" lon="4.74897">
        <ele>168.60059</ele>
        <time>2026-05-13T12:04:19+02:00</time>
      </trkpt>
      <trkpt lat="46.02989" lon="4.74896">
        <ele>168.60059</ele>
        <time>2026-05-13T12:04:20+02:00</time>
      </trkpt>
      <trkpt lat="46.02995" lon="4.74895">
        <ele>168.60059</ele>
        <time>2026-05-13T12:04:21+02:00</time>
      </trkpt>
      <trkpt lat="46.03002" lon="4.74894">
        <ele>168.60059</ele>
        <time>2026-05-13T12:04:22+02:00</time>
      </trkpt>
      <trkpt lat="46.03008" lon="4.74893">
        <ele>168.60059</ele>
        <time>2026-05-13T12:04:23+02:00</time>
      </trkpt>
      <trkpt lat="46.03014" lon="4.74893">
        <ele>168.60059</ele>
        <time>2026-05-13T12:04:24+02:00</time>
      </trkpt>
      <trkpt lat="46.03021" lon="4.74892">
        <ele>168.5</ele>
        <time>2026-05-13T12:04:25+02:00</time>
      </trkpt>
      <trkpt lat="46.03027" lon="4.7489">
        <ele>168.40039</ele>
        <time>2026-05-13T12:04:26+02:00</time>
      </trkpt>
      <trkpt lat="46.03032" lon="4.74889">
        <ele>168.40039</ele>
        <time>2026-05-13T12:04:27+02:00</time>
      </trkpt>
      <trkpt lat="46.03039" lon="4.74888">
        <ele>168.2998</ele>
        <time>2026-05-13T12:04:28+02:00</time>
      </trkpt>
      <trkpt lat="46.03045" lon="4.74887">
        <ele>168.2998</ele>
        <time>2026-05-13T12:04:29+02:00</time>
      </trkpt>
      <trkpt lat="46.0305" lon="4.74886">
        <ele>168.2002</ele>
        <time>2026-05-13T12:04:30+02:00</time>
      </trkpt>
      <trkpt lat="46.03056" lon="4.74885">
        <ele>168.2002</ele>
        <time>2026-05-13T12:04:31+02:00</time>
      </trkpt>
      <trkpt lat="46.03061" lon="4.74884">
        <ele>168.2002</ele>
        <time>2026-05-13T12:04:32+02:00</time>
      </trkpt>
      <trkpt lat="46.03067" lon="4.74883">
        <ele>168.2002</ele>
        <time>2026-05-13T12:04:33+02:00</time>
      </trkpt>
      <trkpt lat="46.03072" lon="4.74882">
        <ele>168.2002</ele>
        <time>2026-05-13T12:04:34+02:00</time>
      </trkpt>
      <trkpt lat="46.03078" lon="4.74881">
        <ele>168.2002</ele>
        <time>2026-05-13T12:04:35+02:00</time>
      </trkpt>
      <trkpt lat="46.03084" lon="4.74879">
        <ele>168.2998</ele>
        <time>2026-05-13T12:04:36+02:00</time>
      </trkpt>
      <trkpt lat="46.03089" lon="4.74878">
        <ele>168.2998</ele>
        <time>2026-05-13T12:04:37+02:00</time>
      </trkpt>
      <trkpt lat="46.03095" lon="4.74877">
        <ele>168.40039</ele>
        <time>2026-05-13T12:04:38+02:00</time>
      </trkpt>
      <trkpt lat="46.031" lon="4.74876">
        <ele>168.60059</ele>
        <time>2026-05-13T12:04:39+02:00</time>
      </trkpt>
      <trkpt lat="46.03106" lon="4.74875">
        <ele>168.5</ele>
        <time>2026-05-13T12:04:40+02:00</time>
      </trkpt>
      <trkpt lat="46.03112" lon="4.74874">
        <ele>168.5</ele>
        <time>2026-05-13T12:04:41+02:00</time>
      </trkpt>
      <trkpt lat="46.03118" lon="4.74873">
        <ele>168.60059</ele>
        <time>2026-05-13T12:04:42+02:00</time>
      </trkpt>
      <trkpt lat="46.03124" lon="4.74873">
        <ele>168.7002</ele>
        <time>2026-05-13T12:04:43+02:00</time>
      </trkpt>
      <trkpt lat="46.03129" lon="4.74872">
        <ele>168.7002</ele>
        <time>2026-05-13T12:04:44+02:00</time>
      </trkpt>
      <trkpt lat="46.03135" lon="4.74871">
        <ele>168.7002</ele>
        <time>2026-05-13T12:04:45+02:00</time>
      </trkpt>
      <trkpt lat="46.0314" lon="4.74869">
        <ele>168.7998</ele>
        <time>2026-05-13T12:04:46+02:00</time>
      </trkpt>
      <trkpt lat="46.03146" lon="4.74868">
        <ele>168.7998</ele>
        <time>2026-05-13T12:04:47+02:00</time>
      </trkpt>
      <trkpt lat="46.03151" lon="4.74867">
        <ele>168.7002</ele>
        <time>2026-05-13T12:04:48+02:00</time>
      </trkpt>
      <trkpt lat="46.03157" lon="4.74865">
        <ele>168.40039</ele>
        <time>2026-05-13T12:04:49+02:00</time>
      </trkpt>
      <trkpt lat="46.03162" lon="4.74863">
        <ele>168.5</ele>
        <time>2026-05-13T12:04:50+02:00</time>
      </trkpt>
      <trkpt lat="46.03167" lon="4.7486">
        <ele>168.7998</ele>
        <time>2026-05-13T12:04:51+02:00</time>
      </trkpt>
      <trkpt lat="46.03173" lon="4.74858">
        <ele>168.90039</ele>
        <time>2026-05-13T12:04:52+02:00</time>
      </trkpt>
      <trkpt lat="46.03178" lon="4.74855">
        <ele>169.10059</ele>
        <time>2026-05-13T12:04:53+02:00</time>
      </trkpt>
      <trkpt lat="46.03183" lon="4.74851">
        <ele>169.10059</ele>
        <time>2026-05-13T12:04:54+02:00</time>
      </trkpt>
      <trkpt lat="46.03188" lon="4.74848">
        <ele>168.90039</ele>
        <time>2026-05-13T12:04:55+02:00</time>
      </trkpt>
      <trkpt lat="46.03193" lon="4.74845">
        <ele>169</ele>
        <time>2026-05-13T12:04:56+02:00</time>
      </trkpt>
      <trkpt lat="46.03199" lon="4.74842">
        <ele>169.10059</ele>
        <time>2026-05-13T12:04:57+02:00</time>
      </trkpt>
      <trkpt lat="46.03204" lon="4.7484">
        <ele>168.90039</ele>
        <time>2026-05-13T12:04:58+02:00</time>
      </trkpt>
      <trkpt lat="46.03209" lon="4.74837">
        <ele>168.90039</ele>
        <time>2026-05-13T12:04:59+02:00</time>
      </trkpt>
      <trkpt lat="46.03214" lon="4.74833">
        <ele>169</ele>
        <time>2026-05-13T12:05:00+02:00</time>
      </trkpt>
      <trkpt lat="46.03219" lon="4.7483">
        <ele>168.7002</ele>
        <time>2026-05-13T12:05:01+02:00</time>
      </trkpt>
      <trkpt lat="46.03224" lon="4.74826">
        <ele>168.7998</ele>
        <time>2026-05-13T12:05:02+02:00</time>
      </trkpt>
      <trkpt lat="46.03229" lon="4.74823">
        <ele>168.60059</ele>
        <time>2026-05-13T12:05:03+02:00</time>
      </trkpt>
      <trkpt lat="46.03233" lon="4.74819">
        <ele>168.7002</ele>
        <time>2026-05-13T12:05:04+02:00</time>
      </trkpt>
      <trkpt lat="46.03237" lon="4.74817">
        <ele>168.7002</ele>
        <time>2026-05-13T12:05:05+02:00</time>
      </trkpt>
      <trkpt lat="46.03241" lon="4.74816">
        <ele>168.7002</ele>
        <time>2026-05-13T12:05:06+02:00</time>
      </trkpt>
      <trkpt lat="46.03245" lon="4.74815">
        <ele>168.5</ele>
        <time>2026-05-13T12:05:07+02:00</time>
      </trkpt>
      <trkpt lat="46.0325" lon="4.74814">
        <ele>168.60059</ele>
        <time>2026-05-13T12:05:08+02:00</time>
      </trkpt>
      <trkpt lat="46.03255" lon="4.74814">
        <ele>168.7002</ele>
        <time>2026-05-13T12:05:09+02:00</time>
      </trkpt>
      <trkpt lat="46.0326" lon="4.74815">
        <ele>168.7002</ele>
        <time>2026-05-13T12:05:10+02:00</time>
      </trkpt>
      <trkpt lat="46.03265" lon="4.74816">
        <ele>169.40039</ele>
        <time>2026-05-13T12:05:11+02:00</time>
      </trkpt>
      <trkpt lat="46.0327" lon="4.74818">
        <ele>169.60059</ele>
        <time>2026-05-13T12:05:12+02:00</time>
      </trkpt>
      <trkpt lat="46.03277" lon="4.7482">
        <ele>169.7002</ele>
        <time>2026-05-13T12:05:13+02:00</time>
      </trkpt>
      <trkpt lat="46.03282" lon="4.74822">
        <ele>169.7998</ele>
        <time>2026-05-13T12:05:14+02:00</time>
      </trkpt>
      <trkpt lat="46.03287" lon="4.74824">
        <ele>170.90039</ele>
        <time>2026-05-13T12:05:15+02:00</time>
      </trkpt>
      <trkpt lat="46.03293" lon="4.74826">
        <ele>171</ele>
        <time>2026-05-13T12:05:16+02:00</time>
      </trkpt>
      <trkpt lat="46.03299" lon="4.74828">
        <ele>171</ele>
        <time>2026-05-13T12:05:17+02:00</time>
      </trkpt>
      <trkpt lat="46.03304" lon="4.7483">
        <ele>171</ele>
        <time>2026-05-13T12:05:18+02:00</time>
      </trkpt>
      <trkpt lat="46.0331" lon="4.74832">
        <ele>171</ele>
        <time>2026-05-13T12:05:19+02:00</time>
      </trkpt>
      <trkpt lat="46.03315" lon="4.74833">
        <ele>171.90039</ele>
        <time>2026-05-13T12:05:20+02:00</time>
      </trkpt>
      <trkpt lat="46.03321" lon="4.74834">
        <ele>171.7002</ele>
        <time>2026-05-13T12:05:21+02:00</time>
      </trkpt>
      <trkpt lat="46.03327" lon="4.74834">
        <ele>171.5</ele>
        <time>2026-05-13T12:05:22+02:00</time>
      </trkpt>
      <trkpt lat="46.03333" lon="4.74834">
        <ele>171.2998</ele>
        <time>2026-05-13T12:05:23+02:00</time>
      </trkpt>
      <trkpt lat="46.03338" lon="4.74833">
        <ele>171.2998</ele>
        <time>2026-05-13T12:05:24+02:00</time>
      </trkpt>
      <trkpt lat="46.03344" lon="4.74831">
        <ele>170.40039</ele>
        <time>2026-05-13T12:05:25+02:00</time>
      </trkpt>
      <trkpt lat="46.03349" lon="4.74828">
        <ele>170.40039</ele>
        <time>2026-05-13T12:05:26+02:00</time>
      </trkpt>
      <trkpt lat="46.03354" lon="4.74827">
        <ele>170.2998</ele>
        <time>2026-05-13T12:05:27+02:00</time>
      </trkpt>
      <trkpt lat="46.03359" lon="4.74825">
        <ele>170.40039</ele>
        <time>2026-05-13T12:05:28+02:00</time>
      </trkpt>
      <trkpt lat="46.03364" lon="4.74825">
        <ele>170.40039</ele>
        <time>2026-05-13T12:05:29+02:00</time>
      </trkpt>
      <trkpt lat="46.03369" lon="4.74824">
        <ele>170.40039</ele>
        <time>2026-05-13T12:05:30+02:00</time>
      </trkpt>
      <trkpt lat="46.03374" lon="4.74824">
        <ele>170.40039</ele>
        <time>2026-05-13T12:05:31+02:00</time>
      </trkpt>
      <trkpt lat="46.0338" lon="4.74824">
        <ele>170.40039</ele>
        <time>2026-05-13T12:05:32+02:00</time>
      </trkpt>
      <trkpt lat="46.03385" lon="4.74823">
        <ele>169.90039</ele>
        <time>2026-05-13T12:05:33+02:00</time>
      </trkpt>
      <trkpt lat="46.0339" lon="4.74821">
        <ele>170.10059</ele>
        <time>2026-05-13T12:05:34+02:00</time>
      </trkpt>
      <trkpt lat="46.03396" lon="4.7482">
        <ele>170.2002</ele>
        <time>2026-05-13T12:05:35+02:00</time>
      </trkpt>
      <trkpt lat="46.03401" lon="4.74818">
        <ele>170.40039</ele>
        <time>2026-05-13T12:05:36+02:00</time>
      </trkpt>
      <trkpt lat="46.03407" lon="4.74816">
        <ele>170.5</ele>
        <time>2026-05-13T12:05:37+02:00</time>
      </trkpt>
      <trkpt lat="46.03413" lon="4.74814">
        <ele>170.40039</ele>
        <time>2026-05-13T12:05:38+02:00</time>
      </trkpt>
      <trkpt lat="46.03418" lon="4.74811">
        <ele>170.60059</ele>
        <time>2026-05-13T12:05:39+02:00</time>
      </trkpt>
      <trkpt lat="46.03424" lon="4.74809">
        <ele>170.60059</ele>
        <time>2026-05-13T12:05:40+02:00</time>
      </trkpt>
      <trkpt lat="46.0343" lon="4.74807">
        <ele>170.7002</ele>
        <time>2026-05-13T12:05:41+02:00</time>
      </trkpt>
      <trkpt lat="46.03435" lon="4.74805">
        <ele>170.2998</ele>
        <time>2026-05-13T12:05:42+02:00</time>
      </trkpt>
      <trkpt lat="46.03441" lon="4.74803">
        <ele>170.2002</ele>
        <time>2026-05-13T12:05:43+02:00</time>
      </trkpt>
      <trkpt lat="46.03446" lon="4.74801">
        <ele>170.10059</ele>
        <time>2026-05-13T12:05:44+02:00</time>
      </trkpt>
      <trkpt lat="46.03452" lon="4.74798">
        <ele>169.7998</ele>
        <time>2026-05-13T12:05:45+02:00</time>
      </trkpt>
      <trkpt lat="46.03457" lon="4.74796">
        <ele>169.7998</ele>
        <time>2026-05-13T12:05:46+02:00</time>
      </trkpt>
      <trkpt lat="46.03463" lon="4.74794">
        <ele>169.90039</ele>
        <time>2026-05-13T12:05:47+02:00</time>
      </trkpt>
      <trkpt lat="46.03468" lon="4.74792">
        <ele>169.90039</ele>
        <time>2026-05-13T12:05:48+02:00</time>
      </trkpt>
      <trkpt lat="46.03475" lon="4.74789">
        <ele>169.60059</ele>
        <time>2026-05-13T12:05:49+02:00</time>
      </trkpt>
      <trkpt lat="46.0348" lon="4.74787">
        <ele>169.60059</ele>
        <time>2026-05-13T12:05:50+02:00</time>
      </trkpt>
      <trkpt lat="46.03486" lon="4.74785">
        <ele>169.7002</ele>
        <time>2026-05-13T12:05:51+02:00</time>
      </trkpt>
      <trkpt lat="46.03491" lon="4.74783">
        <ele>169.7998</ele>
        <time>2026-05-13T12:05:52+02:00</time>
      </trkpt>
      <trkpt lat="46.03497" lon="4.74781">
        <ele>169.2998</ele>
        <time>2026-05-13T12:05:53+02:00</time>
      </trkpt>
      <trkpt lat="46.03503" lon="4.74778">
        <ele>169.40039</ele>
        <time>2026-05-13T12:05:54+02:00</time>
      </trkpt>
      <trkpt lat="46.03508" lon="4.74776">
        <ele>169.60059</ele>
        <time>2026-05-13T12:05:55+02:00</time>
      </trkpt>
      <trkpt lat="46.03514" lon="4.74773">
        <ele>169.7002</ele>
        <time>2026-05-13T12:05:56+02:00</time>
      </trkpt>
      <trkpt lat="46.0352" lon="4.74771">
        <ele>169.2998</ele>
        <time>2026-05-13T12:05:57+02:00</time>
      </trkpt>
      <trkpt lat="46.03525" lon="4.74767">
        <ele>169.5</ele>
        <time>2026-05-13T12:05:58+02:00</time>
      </trkpt>
      <trkpt lat="46.0353" lon="4.74764">
        <ele>169.7002</ele>
        <time>2026-05-13T12:05:59+02:00</time>
      </trkpt>
      <trkpt lat="46.03536" lon="4.74761">
        <ele>169.5</ele>
        <time>2026-05-13T12:06:00+02:00</time>
      </trkpt>
      <trkpt lat="46.03541" lon="4.74759">
        <ele>169.60059</ele>
        <time>2026-05-13T12:06:01+02:00</time>
      </trkpt>
      <trkpt lat="46.03547" lon="4.74755">
        <ele>169.5</ele>
        <time>2026-05-13T12:06:02+02:00</time>
      </trkpt>
      <trkpt lat="46.03553" lon="4.74753">
        <ele>169.7002</ele>
        <time>2026-05-13T12:06:03+02:00</time>
      </trkpt>
      <trkpt lat="46.03558" lon="4.7475">
        <ele>169.7002</ele>
        <time>2026-05-13T12:06:04+02:00</time>
      </trkpt>
      <trkpt lat="46.03564" lon="4.74748">
        <ele>170</ele>
        <time>2026-05-13T12:06:05+02:00</time>
      </trkpt>
      <trkpt lat="46.03569" lon="4.74745">
        <ele>169.90039</ele>
        <time>2026-05-13T12:06:06+02:00</time>
      </trkpt>
      <trkpt lat="46.03575" lon="4.74742">
        <ele>170.2002</ele>
        <time>2026-05-13T12:06:07+02:00</time>
      </trkpt>
      <trkpt lat="46.0358" lon="4.74739">
        <ele>170.60059</ele>
        <time>2026-05-13T12:06:08+02:00</time>
      </trkpt>
      <trkpt lat="46.03585" lon="4.74736">
        <ele>169.7998</ele>
        <time>2026-05-13T12:06:09+02:00</time>
      </trkpt>
      <trkpt lat="46.0359" lon="4.74733">
        <ele>169.90039</ele>
        <time>2026-05-13T12:06:10+02:00</time>
      </trkpt>
      <trkpt lat="46.03594" lon="4.7473">
        <ele>169.90039</ele>
        <time>2026-05-13T12:06:11+02:00</time>
      </trkpt>
      <trkpt lat="46.03598" lon="4.74727">
        <ele>169.2998</ele>
        <time>2026-05-13T12:06:12+02:00</time>
      </trkpt>
      <trkpt lat="46.03603" lon="4.74723">
        <ele>169.40039</ele>
        <time>2026-05-13T12:06:13+02:00</time>
      </trkpt>
      <trkpt lat="46.03607" lon="4.74719">
        <ele>169</ele>
        <time>2026-05-13T12:06:14+02:00</time>
      </trkpt>
      <trkpt lat="46.03623" lon="4.74709">
        <ele>168.7002</ele>
        <time>2026-05-13T12:06:15+02:00</time>
      </trkpt>
      <trkpt lat="46.03628" lon="4.74707">
        <ele>168.7998</ele>
        <time>2026-05-13T12:06:16+02:00</time>
      </trkpt>
      <trkpt lat="46.03634" lon="4.74705">
        <ele>168.7998</ele>
        <time>2026-05-13T12:06:17+02:00</time>
      </trkpt>
      <trkpt lat="46.03639" lon="4.74703">
        <ele>168.40039</ele>
        <time>2026-05-13T12:06:18+02:00</time>
      </trkpt>
      <trkpt lat="46.03644" lon="4.74702">
        <ele>168.5</ele>
        <time>2026-05-13T12:06:19+02:00</time>
      </trkpt>
      <trkpt lat="46.03649" lon="4.747">
        <ele>168.7002</ele>
        <time>2026-05-13T12:06:20+02:00</time>
      </trkpt>
      <trkpt lat="46.03654" lon="4.74699">
        <ele>169.10059</ele>
        <time>2026-05-13T12:06:21+02:00</time>
      </trkpt>
      <trkpt lat="46.03659" lon="4.74697">
        <ele>169.10059</ele>
        <time>2026-05-13T12:06:22+02:00</time>
      </trkpt>
      <trkpt lat="46.03664" lon="4.74695">
        <ele>169</ele>
        <time>2026-05-13T12:06:23+02:00</time>
      </trkpt>
      <trkpt lat="46.03669" lon="4.74693">
        <ele>169.2998</ele>
        <time>2026-05-13T12:06:24+02:00</time>
      </trkpt>
      <trkpt lat="46.03674" lon="4.7469">
        <ele>169.60059</ele>
        <time>2026-05-13T12:06:25+02:00</time>
      </trkpt>
      <trkpt lat="46.0368" lon="4.74687">
        <ele>169.90039</ele>
        <time>2026-05-13T12:06:26+02:00</time>
      </trkpt>
      <trkpt lat="46.03685" lon="4.74684">
        <ele>169.40039</ele>
        <time>2026-05-13T12:06:27+02:00</time>
      </trkpt>
      <trkpt lat="46.0369" lon="4.74681">
        <ele>169.5</ele>
        <time>2026-05-13T12:06:28+02:00</time>
      </trkpt>
      <trkpt lat="46.03696" lon="4.74678">
        <ele>169.10059</ele>
        <time>2026-05-13T12:06:29+02:00</time>
      </trkpt>
      <trkpt lat="46.03702" lon="4.74675">
        <ele>169.2998</ele>
        <time>2026-05-13T12:06:30+02:00</time>
      </trkpt>
      <trkpt lat="46.03708" lon="4.74671">
        <ele>169.40039</ele>
        <time>2026-05-13T12:06:31+02:00</time>
      </trkpt>
      <trkpt lat="46.03713" lon="4.74667">
        <ele>168.7998</ele>
        <time>2026-05-13T12:06:32+02:00</time>
      </trkpt>
      <trkpt lat="46.03719" lon="4.74662">
        <ele>168.90039</ele>
        <time>2026-05-13T12:06:33+02:00</time>
      </trkpt>
      <trkpt lat="46.03725" lon="4.74658">
        <ele>168.60059</ele>
        <time>2026-05-13T12:06:34+02:00</time>
      </trkpt>
      <trkpt lat="46.03731" lon="4.74653">
        <ele>168.90039</ele>
        <time>2026-05-13T12:06:35+02:00</time>
      </trkpt>
      <trkpt lat="46.03736" lon="4.74648">
        <ele>168.7998</ele>
        <time>2026-05-13T12:06:36+02:00</time>
      </trkpt>
      <trkpt lat="46.03742" lon="4.74644">
        <ele>168.90039</ele>
        <time>2026-05-13T12:06:37+02:00</time>
      </trkpt>
      <trkpt lat="46.03747" lon="4.74639">
        <ele>168.7002</ele>
        <time>2026-05-13T12:06:38+02:00</time>
      </trkpt>
      <trkpt lat="46.03753" lon="4.74636">
        <ele>168.7002</ele>
        <time>2026-05-13T12:06:39+02:00</time>
      </trkpt>
      <trkpt lat="46.03758" lon="4.74633">
        <ele>168.5</ele>
        <time>2026-05-13T12:06:40+02:00</time>
      </trkpt>
      <trkpt lat="46.03763" lon="4.74632">
        <ele>168.60059</ele>
        <time>2026-05-13T12:06:41+02:00</time>
      </trkpt>
      <trkpt lat="46.03768" lon="4.74631">
        <ele>168.60059</ele>
        <time>2026-05-13T12:06:42+02:00</time>
      </trkpt>
      <trkpt lat="46.03774" lon="4.74629">
        <ele>168.7002</ele>
        <time>2026-05-13T12:06:43+02:00</time>
      </trkpt>
      <trkpt lat="46.03779" lon="4.74627">
        <ele>168.7002</ele>
        <time>2026-05-13T12:06:44+02:00</time>
      </trkpt>
      <trkpt lat="46.03785" lon="4.74625">
        <ele>168.5</ele>
        <time>2026-05-13T12:06:45+02:00</time>
      </trkpt>
      <trkpt lat="46.03789" lon="4.74624">
        <ele>168.7002</ele>
        <time>2026-05-13T12:06:46+02:00</time>
      </trkpt>
      <trkpt lat="46.03795" lon="4.74621">
        <ele>168.90039</ele>
        <time>2026-05-13T12:06:47+02:00</time>
      </trkpt>
      <trkpt lat="46.03799" lon="4.74619">
        <ele>169.10059</ele>
        <time>2026-05-13T12:06:48+02:00</time>
      </trkpt>
      <trkpt lat="46.03804" lon="4.74616">
        <ele>168.90039</ele>
        <time>2026-05-13T12:06:49+02:00</time>
      </trkpt>
      <trkpt lat="46.03809" lon="4.74614">
        <ele>169.10059</ele>
        <time>2026-05-13T12:06:50+02:00</time>
      </trkpt>
      <trkpt lat="46.03815" lon="4.74611">
        <ele>169.2002</ele>
        <time>2026-05-13T12:06:51+02:00</time>
      </trkpt>
      <trkpt lat="46.03821" lon="4.74608">
        <ele>168.90039</ele>
        <time>2026-05-13T12:06:52+02:00</time>
      </trkpt>
      <trkpt lat="46.03826" lon="4.74606">
        <ele>168.90039</ele>
        <time>2026-05-13T12:06:53+02:00</time>
      </trkpt>
      <trkpt lat="46.03833" lon="4.74603">
        <ele>169.2002</ele>
        <time>2026-05-13T12:06:54+02:00</time>
      </trkpt>
      <trkpt lat="46.03838" lon="4.746">
        <ele>168.7998</ele>
        <time>2026-05-13T12:06:55+02:00</time>
      </trkpt>
      <trkpt lat="46.03844" lon="4.74597">
        <ele>168.90039</ele>
        <time>2026-05-13T12:06:56+02:00</time>
      </trkpt>
      <trkpt lat="46.0385" lon="4.74594">
        <ele>169</ele>
        <time>2026-05-13T12:06:57+02:00</time>
      </trkpt>
      <trkpt lat="46.03855" lon="4.74591">
        <ele>168.7998</ele>
        <time>2026-05-13T12:06:58+02:00</time>
      </trkpt>
      <trkpt lat="46.03861" lon="4.74588">
        <ele>169.10059</ele>
        <time>2026-05-13T12:06:59+02:00</time>
      </trkpt>
      <trkpt lat="46.03867" lon="4.74586">
        <ele>169.40039</ele>
        <time>2026-05-13T12:07:00+02:00</time>
      </trkpt>
      <trkpt lat="46.03872" lon="4.74583">
        <ele>169.40039</ele>
        <time>2026-05-13T12:07:01+02:00</time>
      </trkpt>
      <trkpt lat="46.03878" lon="4.74581">
        <ele>169.7002</ele>
        <time>2026-05-13T12:07:02+02:00</time>
      </trkpt>
      <trkpt lat="46.03884" lon="4.74578">
        <ele>170.10059</ele>
        <time>2026-05-13T12:07:03+02:00</time>
      </trkpt>
      <trkpt lat="46.0389" lon="4.74576">
        <ele>170.40039</ele>
        <time>2026-05-13T12:07:04+02:00</time>
      </trkpt>
      <trkpt lat="46.03895" lon="4.74574">
        <ele>169.90039</ele>
        <time>2026-05-13T12:07:05+02:00</time>
      </trkpt>
      <trkpt lat="46.03901" lon="4.74571">
        <ele>170.10059</ele>
        <time>2026-05-13T12:07:06+02:00</time>
      </trkpt>
      <trkpt lat="46.03906" lon="4.74569">
        <ele>170.2998</ele>
        <time>2026-05-13T12:07:07+02:00</time>
      </trkpt>
      <trkpt lat="46.03912" lon="4.74567">
        <ele>170.60059</ele>
        <time>2026-05-13T12:07:08+02:00</time>
      </trkpt>
      <trkpt lat="46.03917" lon="4.74564">
        <ele>170.5</ele>
        <time>2026-05-13T12:07:09+02:00</time>
      </trkpt>
      <trkpt lat="46.03923" lon="4.74561">
        <ele>170.90039</ele>
        <time>2026-05-13T12:07:10+02:00</time>
      </trkpt>
      <trkpt lat="46.03928" lon="4.74557">
        <ele>170.40039</ele>
        <time>2026-05-13T12:07:11+02:00</time>
      </trkpt>
      <trkpt lat="46.03933" lon="4.74553">
        <ele>170.7998</ele>
        <time>2026-05-13T12:07:12+02:00</time>
      </trkpt>
      <trkpt lat="46.03938" lon="4.7455">
        <ele>171</ele>
        <time>2026-05-13T12:07:13+02:00</time>
      </trkpt>
      <trkpt lat="46.03942" lon="4.74548">
        <ele>170.5</ele>
        <time>2026-05-13T12:07:14+02:00</time>
      </trkpt>
      <trkpt lat="46.03947" lon="4.74546">
        <ele>170.60059</ele>
        <time>2026-05-13T12:07:15+02:00</time>
      </trkpt>
      <trkpt lat="46.03952" lon="4.74544">
        <ele>170.7998</ele>
        <time>2026-05-13T12:07:16+02:00</time>
      </trkpt>
      <trkpt lat="46.03957" lon="4.74543">
        <ele>170.7998</ele>
        <time>2026-05-13T12:07:17+02:00</time>
      </trkpt>
      <trkpt lat="46.03962" lon="4.74541">
        <ele>171</ele>
        <time>2026-05-13T12:07:18+02:00</time>
      </trkpt>
      <trkpt lat="46.03967" lon="4.74538">
        <ele>170.7998</ele>
        <time>2026-05-13T12:07:19+02:00</time>
      </trkpt>
      <trkpt lat="46.03973" lon="4.74536">
        <ele>171.10059</ele>
        <time>2026-05-13T12:07:20+02:00</time>
      </trkpt>
      <trkpt lat="46.03978" lon="4.74533">
        <ele>171.2998</ele>
        <time>2026-05-13T12:07:21+02:00</time>
      </trkpt>
      <trkpt lat="46.03984" lon="4.7453">
        <ele>171.10059</ele>
        <time>2026-05-13T12:07:22+02:00</time>
      </trkpt>
      <trkpt lat="46.0399" lon="4.74526">
        <ele>171.10059</ele>
        <time>2026-05-13T12:07:23+02:00</time>
      </trkpt>
      <trkpt lat="46.03996" lon="4.74522">
        <ele>170.7002</ele>
        <time>2026-05-13T12:07:24+02:00</time>
      </trkpt>
      <trkpt lat="46.04001" lon="4.74519">
        <ele>170.7002</ele>
        <time>2026-05-13T12:07:25+02:00</time>
      </trkpt>
      <trkpt lat="46.04007" lon="4.74515">
        <ele>170.7002</ele>
        <time>2026-05-13T12:07:26+02:00</time>
      </trkpt>
      <trkpt lat="46.04012" lon="4.74511">
        <ele>170.2002</ele>
        <time>2026-05-13T12:07:27+02:00</time>
      </trkpt>
      <trkpt lat="46.04018" lon="4.74508">
        <ele>170.2002</ele>
        <time>2026-05-13T12:07:28+02:00</time>
      </trkpt>
      <trkpt lat="46.04023" lon="4.74504">
        <ele>169.7002</ele>
        <time>2026-05-13T12:07:29+02:00</time>
      </trkpt>
      <trkpt lat="46.04029" lon="4.745">
        <ele>169.7002</ele>
        <time>2026-05-13T12:07:30+02:00</time>
      </trkpt>
      <trkpt lat="46.04035" lon="4.74496">
        <ele>169.40039</ele>
        <time>2026-05-13T12:07:31+02:00</time>
      </trkpt>
      <trkpt lat="46.04041" lon="4.74492">
        <ele>169.40039</ele>
        <time>2026-05-13T12:07:32+02:00</time>
      </trkpt>
      <trkpt lat="46.04046" lon="4.74488">
        <ele>169.2002</ele>
        <time>2026-05-13T12:07:33+02:00</time>
      </trkpt>
      <trkpt lat="46.04052" lon="4.74483">
        <ele>169.2002</ele>
        <time>2026-05-13T12:07:34+02:00</time>
      </trkpt>
      <trkpt lat="46.04057" lon="4.74479">
        <ele>168.90039</ele>
        <time>2026-05-13T12:07:35+02:00</time>
      </trkpt>
      <trkpt lat="46.04063" lon="4.74475">
        <ele>168.90039</ele>
        <time>2026-05-13T12:07:36+02:00</time>
      </trkpt>
      <trkpt lat="46.04069" lon="4.74471">
        <ele>168.7998</ele>
        <time>2026-05-13T12:07:37+02:00</time>
      </trkpt>
      <trkpt lat="46.04075" lon="4.74467">
        <ele>168.7998</ele>
        <time>2026-05-13T12:07:38+02:00</time>
      </trkpt>
      <trkpt lat="46.0408" lon="4.74462">
        <ele>168.7002</ele>
        <time>2026-05-13T12:07:39+02:00</time>
      </trkpt>
      <trkpt lat="46.04086" lon="4.74458">
        <ele>168.7998</ele>
        <time>2026-05-13T12:07:40+02:00</time>
      </trkpt>
      <trkpt lat="46.04091" lon="4.74453">
        <ele>168.7998</ele>
        <time>2026-05-13T12:07:41+02:00</time>
      </trkpt>
      <trkpt lat="46.04096" lon="4.74449">
        <ele>168.90039</ele>
        <time>2026-05-13T12:07:42+02:00</time>
      </trkpt>
      <trkpt lat="46.04102" lon="4.74445">
        <ele>168.90039</ele>
        <time>2026-05-13T12:07:43+02:00</time>
      </trkpt>
      <trkpt lat="46.04107" lon="4.7444">
        <ele>169</ele>
        <time>2026-05-13T12:07:44+02:00</time>
      </trkpt>
      <trkpt lat="46.04113" lon="4.74436">
        <ele>168.90039</ele>
        <time>2026-05-13T12:07:45+02:00</time>
      </trkpt>
      <trkpt lat="46.04118" lon="4.74431">
        <ele>168.90039</ele>
        <time>2026-05-13T12:07:46+02:00</time>
      </trkpt>
      <trkpt lat="46.04123" lon="4.74427">
        <ele>168.90039</ele>
        <time>2026-05-13T12:07:47+02:00</time>
      </trkpt>
      <trkpt lat="46.04128" lon="4.74422">
        <ele>169</ele>
        <time>2026-05-13T12:07:48+02:00</time>
      </trkpt>
      <trkpt lat="46.04134" lon="4.74418">
        <ele>168.90039</ele>
        <time>2026-05-13T12:07:49+02:00</time>
      </trkpt>
      <trkpt lat="46.04139" lon="4.74414">
        <ele>169</ele>
        <time>2026-05-13T12:07:50+02:00</time>
      </trkpt>
      <trkpt lat="46.04144" lon="4.7441">
        <ele>168.90039</ele>
        <time>2026-05-13T12:07:51+02:00</time>
      </trkpt>
      <trkpt lat="46.0415" lon="4.74407">
        <ele>169</ele>
        <time>2026-05-13T12:07:52+02:00</time>
      </trkpt>
      <trkpt lat="46.04155" lon="4.74405">
        <ele>169.10059</ele>
        <time>2026-05-13T12:07:53+02:00</time>
      </trkpt>
      <trkpt lat="46.04162" lon="4.74402">
        <ele>169.10059</ele>
        <time>2026-05-13T12:07:54+02:00</time>
      </trkpt>
      <trkpt lat="46.04167" lon="4.744">
        <ele>169.2002</ele>
        <time>2026-05-13T12:07:55+02:00</time>
      </trkpt>
      <trkpt lat="46.04172" lon="4.74396">
        <ele>169.2002</ele>
        <time>2026-05-13T12:07:56+02:00</time>
      </trkpt>
      <trkpt lat="46.04176" lon="4.74389">
        <ele>169.10059</ele>
        <time>2026-05-13T12:07:57+02:00</time>
      </trkpt>
      <trkpt lat="46.04179" lon="4.74382">
        <ele>169.10059</ele>
        <time>2026-05-13T12:07:58+02:00</time>
      </trkpt>
      <trkpt lat="46.04182" lon="4.74375">
        <ele>169</ele>
        <time>2026-05-13T12:07:59+02:00</time>
      </trkpt>
      <trkpt lat="46.04185" lon="4.74367">
        <ele>168.90039</ele>
        <time>2026-05-13T12:08:00+02:00</time>
      </trkpt>
      <trkpt lat="46.04189" lon="4.74361">
        <ele>168.90039</ele>
        <time>2026-05-13T12:08:01+02:00</time>
      </trkpt>
      <trkpt lat="46.04193" lon="4.74355">
        <ele>168.90039</ele>
        <time>2026-05-13T12:08:02+02:00</time>
      </trkpt>
      <trkpt lat="46.04198" lon="4.74349">
        <ele>168.7998</ele>
        <time>2026-05-13T12:08:03+02:00</time>
      </trkpt>
      <trkpt lat="46.04203" lon="4.74344">
        <ele>168.90039</ele>
        <time>2026-05-13T12:08:04+02:00</time>
      </trkpt>
      <trkpt lat="46.04207" lon="4.7434">
        <ele>168.7998</ele>
        <time>2026-05-13T12:08:05+02:00</time>
      </trkpt>
      <trkpt lat="46.04212" lon="4.74335">
        <ele>168.90039</ele>
        <time>2026-05-13T12:08:06+02:00</time>
      </trkpt>
      <trkpt lat="46.04217" lon="4.7433">
        <ele>168.7998</ele>
        <time>2026-05-13T12:08:07+02:00</time>
      </trkpt>
      <trkpt lat="46.04222" lon="4.74325">
        <ele>168.7002</ele>
        <time>2026-05-13T12:08:08+02:00</time>
      </trkpt>
      <trkpt lat="46.04227" lon="4.7432">
        <ele>168.7998</ele>
        <time>2026-05-13T12:08:09+02:00</time>
      </trkpt>
      <trkpt lat="46.04231" lon="4.74315">
        <ele>168.60059</ele>
        <time>2026-05-13T12:08:10+02:00</time>
      </trkpt>
      <trkpt lat="46.04237" lon="4.74311">
        <ele>168.7002</ele>
        <time>2026-05-13T12:08:11+02:00</time>
      </trkpt>
      <trkpt lat="46.04242" lon="4.74306">
        <ele>168.60059</ele>
        <time>2026-05-13T12:08:12+02:00</time>
      </trkpt>
      <trkpt lat="46.04247" lon="4.74302">
        <ele>168.7002</ele>
        <time>2026-05-13T12:08:13+02:00</time>
      </trkpt>
      <trkpt lat="46.04252" lon="4.74297">
        <ele>168.7002</ele>
        <time>2026-05-13T12:08:14+02:00</time>
      </trkpt>
      <trkpt lat="46.04258" lon="4.74292">
        <ele>168.7002</ele>
        <time>2026-05-13T12:08:15+02:00</time>
      </trkpt>
      <trkpt lat="46.04263" lon="4.74288">
        <ele>168.7002</ele>
        <time>2026-05-13T12:08:16+02:00</time>
      </trkpt>
      <trkpt lat="46.04268" lon="4.74284">
        <ele>168.7998</ele>
        <time>2026-05-13T12:08:17+02:00</time>
      </trkpt>
      <trkpt lat="46.04273" lon="4.7428">
        <ele>168.60059</ele>
        <time>2026-05-13T12:08:18+02:00</time>
      </trkpt>
      <trkpt lat="46.04278" lon="4.74275">
        <ele>168.7002</ele>
        <time>2026-05-13T12:08:19+02:00</time>
      </trkpt>
      <trkpt lat="46.04283" lon="4.74271">
        <ele>168.7002</ele>
        <time>2026-05-13T12:08:20+02:00</time>
      </trkpt>
      <trkpt lat="46.04288" lon="4.74267">
        <ele>168.7998</ele>
        <time>2026-05-13T12:08:21+02:00</time>
      </trkpt>
      <trkpt lat="46.04293" lon="4.74263">
        <ele>168.7998</ele>
        <time>2026-05-13T12:08:22+02:00</time>
      </trkpt>
      <trkpt lat="46.04298" lon="4.74259">
        <ele>168.90039</ele>
        <time>2026-05-13T12:08:23+02:00</time>
      </trkpt>
      <trkpt lat="46.04303" lon="4.74255">
        <ele>168.7002</ele>
        <time>2026-05-13T12:08:24+02:00</time>
      </trkpt>
      <trkpt lat="46.04308" lon="4.7425">
        <ele>168.7998</ele>
        <time>2026-05-13T12:08:25+02:00</time>
      </trkpt>
      <trkpt lat="46.04313" lon="4.74246">
        <ele>168.7002</ele>
        <time>2026-05-13T12:08:26+02:00</time>
      </trkpt>
      <trkpt lat="46.04318" lon="4.74242">
        <ele>168.7002</ele>
        <time>2026-05-13T12:08:27+02:00</time>
      </trkpt>
      <trkpt lat="46.04323" lon="4.74238">
        <ele>168.7002</ele>
        <time>2026-05-13T12:08:28+02:00</time>
      </trkpt>
      <trkpt lat="46.04328" lon="4.74234">
        <ele>168.7998</ele>
        <time>2026-05-13T12:08:29+02:00</time>
      </trkpt>
      <trkpt lat="46.04334" lon="4.7423">
        <ele>168.7998</ele>
        <time>2026-05-13T12:08:30+02:00</time>
      </trkpt>
      <trkpt lat="46.04339" lon="4.74226">
        <ele>168.7998</ele>
        <time>2026-05-13T12:08:31+02:00</time>
      </trkpt>
      <trkpt lat="46.04344" lon="4.74222">
        <ele>168.7998</ele>
        <time>2026-05-13T12:08:32+02:00</time>
      </trkpt>
      <trkpt lat="46.04349" lon="4.74219">
        <ele>168.90039</ele>
        <time>2026-05-13T12:08:33+02:00</time>
      </trkpt>
      <trkpt lat="46.04354" lon="4.74215">
        <ele>168.90039</ele>
        <time>2026-05-13T12:08:34+02:00</time>
      </trkpt>
      <trkpt lat="46.04359" lon="4.74211">
        <ele>168.7998</ele>
        <time>2026-05-13T12:08:35+02:00</time>
      </trkpt>
      <trkpt lat="46.04364" lon="4.74207">
        <ele>168.7998</ele>
        <time>2026-05-13T12:08:36+02:00</time>
      </trkpt>
      <trkpt lat="46.04369" lon="4.74204">
        <ele>168.7002</ele>
        <time>2026-05-13T12:08:37+02:00</time>
      </trkpt>
      <trkpt lat="46.04374" lon="4.74201">
        <ele>168.7002</ele>
        <time>2026-05-13T12:08:38+02:00</time>
      </trkpt>
      <trkpt lat="46.04379" lon="4.74197">
        <ele>168.60059</ele>
        <time>2026-05-13T12:08:39+02:00</time>
      </trkpt>
      <trkpt lat="46.04385" lon="4.74194">
        <ele>168.7002</ele>
        <time>2026-05-13T12:08:40+02:00</time>
      </trkpt>
      <trkpt lat="46.0439" lon="4.7419">
        <ele>168.7002</ele>
        <time>2026-05-13T12:08:41+02:00</time>
      </trkpt>
      <trkpt lat="46.04395" lon="4.74187">
        <ele>168.7002</ele>
        <time>2026-05-13T12:08:42+02:00</time>
      </trkpt>
      <trkpt lat="46.04401" lon="4.74183">
        <ele>168.7002</ele>
        <time>2026-05-13T12:08:43+02:00</time>
      </trkpt>
      <trkpt lat="46.04406" lon="4.7418">
        <ele>168.7002</ele>
        <time>2026-05-13T12:08:44+02:00</time>
      </trkpt>
      <trkpt lat="46.04411" lon="4.74177">
        <ele>168.7998</ele>
        <time>2026-05-13T12:08:45+02:00</time>
      </trkpt>
      <trkpt lat="46.04417" lon="4.74173">
        <ele>168.7998</ele>
        <time>2026-05-13T12:08:46+02:00</time>
      </trkpt>
      <trkpt lat="46.04422" lon="4.7417">
        <ele>168.7002</ele>
        <time>2026-05-13T12:08:47+02:00</time>
      </trkpt>
      <trkpt lat="46.04427" lon="4.74166">
        <ele>168.7998</ele>
        <time>2026-05-13T12:08:48+02:00</time>
      </trkpt>
      <trkpt lat="46.04433" lon="4.74163">
        <ele>168.7002</ele>
        <time>2026-05-13T12:08:49+02:00</time>
      </trkpt>
      <trkpt lat="46.04439" lon="4.7416">
        <ele>168.7998</ele>
        <time>2026-05-13T12:08:50+02:00</time>
      </trkpt>
      <trkpt lat="46.04444" lon="4.74156">
        <ele>169</ele>
        <time>2026-05-13T12:08:51+02:00</time>
      </trkpt>
      <trkpt lat="46.0445" lon="4.74153">
        <ele>169</ele>
        <time>2026-05-13T12:08:52+02:00</time>
      </trkpt>
      <trkpt lat="46.04455" lon="4.74149">
        <ele>169.10059</ele>
        <time>2026-05-13T12:08:53+02:00</time>
      </trkpt>
      <trkpt lat="46.04461" lon="4.74145">
        <ele>169</ele>
        <time>2026-05-13T12:08:54+02:00</time>
      </trkpt>
      <trkpt lat="46.04466" lon="4.74142">
        <ele>169.10059</ele>
        <time>2026-05-13T12:08:55+02:00</time>
      </trkpt>
      <trkpt lat="46.04472" lon="4.74138">
        <ele>169.2002</ele>
        <time>2026-05-13T12:08:56+02:00</time>
      </trkpt>
      <trkpt lat="46.04477" lon="4.74135">
        <ele>169.10059</ele>
        <time>2026-05-13T12:08:57+02:00</time>
      </trkpt>
      <trkpt lat="46.04483" lon="4.74132">
        <ele>169.2002</ele>
        <time>2026-05-13T12:08:58+02:00</time>
      </trkpt>
      <trkpt lat="46.04489" lon="4.74128">
        <ele>169</ele>
        <time>2026-05-13T12:08:59+02:00</time>
      </trkpt>
      <trkpt lat="46.04495" lon="4.74125">
        <ele>169.10059</ele>
        <time>2026-05-13T12:09:00+02:00</time>
      </trkpt>
      <trkpt lat="46.045" lon="4.74122">
        <ele>169.10059</ele>
        <time>2026-05-13T12:09:01+02:00</time>
      </trkpt>
      <trkpt lat="46.04506" lon="4.7412">
        <ele>169</ele>
        <time>2026-05-13T12:09:02+02:00</time>
      </trkpt>
      <trkpt lat="46.04512" lon="4.74117">
        <ele>169.10059</ele>
        <time>2026-05-13T12:09:03+02:00</time>
      </trkpt>
      <trkpt lat="46.04518" lon="4.74114">
        <ele>169.2002</ele>
        <time>2026-05-13T12:09:04+02:00</time>
      </trkpt>
      <trkpt lat="46.04524" lon="4.74112">
        <ele>169.40039</ele>
        <time>2026-05-13T12:09:05+02:00</time>
      </trkpt>
      <trkpt lat="46.0453" lon="4.74109">
        <ele>169.40039</ele>
        <time>2026-05-13T12:09:06+02:00</time>
      </trkpt>
      <trkpt lat="46.04536" lon="4.74108">
        <ele>169.60059</ele>
        <time>2026-05-13T12:09:07+02:00</time>
      </trkpt>
      <trkpt lat="46.04542" lon="4.74106">
        <ele>169.7998</ele>
        <time>2026-05-13T12:09:08+02:00</time>
      </trkpt>
      <trkpt lat="46.04548" lon="4.74104">
        <ele>169.90039</ele>
        <time>2026-05-13T12:09:09+02:00</time>
      </trkpt>
      <trkpt lat="46.04554" lon="4.74102">
        <ele>169.60059</ele>
        <time>2026-05-13T12:09:10+02:00</time>
      </trkpt>
      <trkpt lat="46.0456" lon="4.741">
        <ele>169.7002</ele>
        <time>2026-05-13T12:09:11+02:00</time>
      </trkpt>
      <trkpt lat="46.04566" lon="4.74098">
        <ele>169.7998</ele>
        <time>2026-05-13T12:09:12+02:00</time>
      </trkpt>
      <trkpt lat="46.04571" lon="4.74096">
        <ele>169.7998</ele>
        <time>2026-05-13T12:09:13+02:00</time>
      </trkpt>
      <trkpt lat="46.04577" lon="4.74094">
        <ele>169.2998</ele>
        <time>2026-05-13T12:09:14+02:00</time>
      </trkpt>
      <trkpt lat="46.04583" lon="4.74092">
        <ele>169.40039</ele>
        <time>2026-05-13T12:09:15+02:00</time>
      </trkpt>
      <trkpt lat="46.04588" lon="4.7409">
        <ele>169.40039</ele>
        <time>2026-05-13T12:09:16+02:00</time>
      </trkpt>
      <trkpt lat="46.04594" lon="4.74088">
        <ele>169.5</ele>
        <time>2026-05-13T12:09:17+02:00</time>
      </trkpt>
      <trkpt lat="46.046" lon="4.74087">
        <ele>169.7002</ele>
        <time>2026-05-13T12:09:18+02:00</time>
      </trkpt>
      <trkpt lat="46.04606" lon="4.74086">
        <ele>169.7998</ele>
        <time>2026-05-13T12:09:19+02:00</time>
      </trkpt>
      <trkpt lat="46.04612" lon="4.74084">
        <ele>169.2998</ele>
        <time>2026-05-13T12:09:20+02:00</time>
      </trkpt>
      <trkpt lat="46.04617" lon="4.74083">
        <ele>169.40039</ele>
        <time>2026-05-13T12:09:21+02:00</time>
      </trkpt>
      <trkpt lat="46.04623" lon="4.74082">
        <ele>169.5</ele>
        <time>2026-05-13T12:09:22+02:00</time>
      </trkpt>
      <trkpt lat="46.04629" lon="4.74081">
        <ele>169.60059</ele>
        <time>2026-05-13T12:09:23+02:00</time>
      </trkpt>
      <trkpt lat="46.04635" lon="4.7408">
        <ele>169.7002</ele>
        <time>2026-05-13T12:09:24+02:00</time>
      </trkpt>
      <trkpt lat="46.0464" lon="4.74079">
        <ele>169.7998</ele>
        <time>2026-05-13T12:09:25+02:00</time>
      </trkpt>
      <trkpt lat="46.04646" lon="4.74079">
        <ele>169.90039</ele>
        <time>2026-05-13T12:09:26+02:00</time>
      </trkpt>
      <trkpt lat="46.04652" lon="4.7408">
        <ele>170</ele>
        <time>2026-05-13T12:09:27+02:00</time>
      </trkpt>
      <trkpt lat="46.04657" lon="4.74081">
        <ele>170.10059</ele>
        <time>2026-05-13T12:09:28+02:00</time>
      </trkpt>
      <trkpt lat="46.04664" lon="4.74082">
        <ele>170.10059</ele>
        <time>2026-05-13T12:09:29+02:00</time>
      </trkpt>
      <trkpt lat="46.04669" lon="4.74083">
        <ele>170.2002</ele>
        <time>2026-05-13T12:09:30+02:00</time>
      </trkpt>
      <trkpt lat="46.04675" lon="4.74083">
        <ele>170.2002</ele>
        <time>2026-05-13T12:09:31+02:00</time>
      </trkpt>
      <trkpt lat="46.04682" lon="4.74084">
        <ele>170.2002</ele>
        <time>2026-05-13T12:09:32+02:00</time>
      </trkpt>
      <trkpt lat="46.04688" lon="4.74085">
        <ele>170.2002</ele>
        <time>2026-05-13T12:09:33+02:00</time>
      </trkpt>
      <trkpt lat="46.04694" lon="4.74086">
        <ele>171</ele>
        <time>2026-05-13T12:09:34+02:00</time>
      </trkpt>
      <trkpt lat="46.04701" lon="4.74086">
        <ele>170.90039</ele>
        <time>2026-05-13T12:09:35+02:00</time>
      </trkpt>
      <trkpt lat="46.04707" lon="4.74087">
        <ele>170.7998</ele>
        <time>2026-05-13T12:09:36+02:00</time>
      </trkpt>
      <trkpt lat="46.04713" lon="4.74087">
        <ele>170.60059</ele>
        <time>2026-05-13T12:09:37+02:00</time>
      </trkpt>
      <trkpt lat="46.04719" lon="4.74087">
        <ele>170.5</ele>
        <time>2026-05-13T12:09:38+02:00</time>
      </trkpt>
      <trkpt lat="46.04725" lon="4.74088">
        <ele>170.40039</ele>
        <time>2026-05-13T12:09:39+02:00</time>
      </trkpt>
      <trkpt lat="46.04732" lon="4.7409">
        <ele>170.2002</ele>
        <time>2026-05-13T12:09:40+02:00</time>
      </trkpt>
      <trkpt lat="46.04738" lon="4.74092">
        <ele>170.10059</ele>
        <time>2026-05-13T12:09:41+02:00</time>
      </trkpt>
      <trkpt lat="46.04744" lon="4.74094">
        <ele>169.90039</ele>
        <time>2026-05-13T12:09:42+02:00</time>
      </trkpt>
      <trkpt lat="46.0475" lon="4.74097">
        <ele>170.10059</ele>
        <time>2026-05-13T12:09:43+02:00</time>
      </trkpt>
      <trkpt lat="46.04756" lon="4.741">
        <ele>169.60059</ele>
        <time>2026-05-13T12:09:44+02:00</time>
      </trkpt>
      <trkpt lat="46.04762" lon="4.74103">
        <ele>170.10059</ele>
        <time>2026-05-13T12:09:45+02:00</time>
      </trkpt>
      <trkpt lat="46.04768" lon="4.74107">
        <ele>169.90039</ele>
        <time>2026-05-13T12:09:46+02:00</time>
      </trkpt>
      <trkpt lat="46.04774" lon="4.7411">
        <ele>169.5</ele>
        <time>2026-05-13T12:09:47+02:00</time>
      </trkpt>
      <trkpt lat="46.0478" lon="4.74114">
        <ele>169.90039</ele>
        <time>2026-05-13T12:09:48+02:00</time>
      </trkpt>
      <trkpt lat="46.04785" lon="4.74118">
        <ele>169.60059</ele>
        <time>2026-05-13T12:09:49+02:00</time>
      </trkpt>
      <trkpt lat="46.04791" lon="4.74122">
        <ele>169.5</ele>
        <time>2026-05-13T12:09:50+02:00</time>
      </trkpt>
      <trkpt lat="46.04797" lon="4.74125">
        <ele>169.2002</ele>
        <time>2026-05-13T12:09:51+02:00</time>
      </trkpt>
      <trkpt lat="46.04803" lon="4.74129">
        <ele>169.2998</ele>
        <time>2026-05-13T12:09:52+02:00</time>
      </trkpt>
      <trkpt lat="46.04809" lon="4.74132">
        <ele>169.10059</ele>
        <time>2026-05-13T12:09:53+02:00</time>
      </trkpt>
      <trkpt lat="46.04816" lon="4.74135">
        <ele>168.7998</ele>
        <time>2026-05-13T12:09:54+02:00</time>
      </trkpt>
      <trkpt lat="46.04822" lon="4.74139">
        <ele>169.10059</ele>
        <time>2026-05-13T12:09:55+02:00</time>
      </trkpt>
      <trkpt lat="46.04828" lon="4.74142">
        <ele>169</ele>
        <time>2026-05-13T12:09:56+02:00</time>
      </trkpt>
      <trkpt lat="46.04834" lon="4.74147">
        <ele>169</ele>
        <time>2026-05-13T12:09:57+02:00</time>
      </trkpt>
      <trkpt lat="46.0484" lon="4.74151">
        <ele>168.7002</ele>
        <time>2026-05-13T12:09:58+02:00</time>
      </trkpt>
      <trkpt lat="46.04846" lon="4.74155">
        <ele>168.60059</ele>
        <time>2026-05-13T12:09:59+02:00</time>
      </trkpt>
      <trkpt lat="46.04851" lon="4.74159">
        <ele>168.60059</ele>
        <time>2026-05-13T12:10:00+02:00</time>
      </trkpt>
      <trkpt lat="46.04856" lon="4.74164">
        <ele>168.60059</ele>
        <time>2026-05-13T12:10:01+02:00</time>
      </trkpt>
      <trkpt lat="46.04861" lon="4.74168">
        <ele>168.2998</ele>
        <time>2026-05-13T12:10:02+02:00</time>
      </trkpt>
      <trkpt lat="46.04866" lon="4.74172">
        <ele>168.2998</ele>
        <time>2026-05-13T12:10:03+02:00</time>
      </trkpt>
      <trkpt lat="46.04871" lon="4.74177">
        <ele>168.2002</ele>
        <time>2026-05-13T12:10:04+02:00</time>
      </trkpt>
      <trkpt lat="46.04876" lon="4.74181">
        <ele>168.2002</ele>
        <time>2026-05-13T12:10:05+02:00</time>
      </trkpt>
      <trkpt lat="46.04881" lon="4.74186">
        <ele>168.2002</ele>
        <time>2026-05-13T12:10:06+02:00</time>
      </trkpt>
      <trkpt lat="46.04886" lon="4.7419">
        <ele>168.2998</ele>
        <time>2026-05-13T12:10:07+02:00</time>
      </trkpt>
      <trkpt lat="46.04891" lon="4.74195">
        <ele>168.2002</ele>
        <time>2026-05-13T12:10:08+02:00</time>
      </trkpt>
      <trkpt lat="46.04896" lon="4.74199">
        <ele>168.2998</ele>
        <time>2026-05-13T12:10:09+02:00</time>
      </trkpt>
      <trkpt lat="46.04901" lon="4.74204">
        <ele>168.2002</ele>
        <time>2026-05-13T12:10:10+02:00</time>
      </trkpt>
      <trkpt lat="46.04906" lon="4.74209">
        <ele>168.10059</ele>
        <time>2026-05-13T12:10:11+02:00</time>
      </trkpt>
      <trkpt lat="46.04911" lon="4.74213">
        <ele>168.10059</ele>
        <time>2026-05-13T12:10:12+02:00</time>
      </trkpt>
      <trkpt lat="46.04916" lon="4.74218">
        <ele>168.2002</ele>
        <time>2026-05-13T12:10:13+02:00</time>
      </trkpt>
      <trkpt lat="46.04921" lon="4.74222">
        <ele>168.2002</ele>
        <time>2026-05-13T12:10:14+02:00</time>
      </trkpt>
      <trkpt lat="46.04926" lon="4.74227">
        <ele>168.2002</ele>
        <time>2026-05-13T12:10:15+02:00</time>
      </trkpt>
      <trkpt lat="46.04931" lon="4.74232">
        <ele>168.2002</ele>
        <time>2026-05-13T12:10:16+02:00</time>
      </trkpt>
      <trkpt lat="46.04936" lon="4.74237">
        <ele>168.2002</ele>
        <time>2026-05-13T12:10:17+02:00</time>
      </trkpt>
      <trkpt lat="46.04941" lon="4.74242">
        <ele>168.10059</ele>
        <time>2026-05-13T12:10:18+02:00</time>
      </trkpt>
      <trkpt lat="46.04946" lon="4.74246">
        <ele>168.10059</ele>
        <time>2026-05-13T12:10:19+02:00</time>
      </trkpt>
      <trkpt lat="46.04952" lon="4.74251">
        <ele>168.10059</ele>
        <time>2026-05-13T12:10:20+02:00</time>
      </trkpt>
      <trkpt lat="46.04957" lon="4.74256">
        <ele>168.10059</ele>
        <time>2026-05-13T12:10:21+02:00</time>
      </trkpt>
      <trkpt lat="46.04962" lon="4.7426">
        <ele>168.10059</ele>
        <time>2026-05-13T12:10:22+02:00</time>
      </trkpt>
      <trkpt lat="46.04968" lon="4.74265">
        <ele>168.10059</ele>
        <time>2026-05-13T12:10:23+02:00</time>
      </trkpt>
      <trkpt lat="46.04973" lon="4.7427">
        <ele>168.10059</ele>
        <time>2026-05-13T12:10:24+02:00</time>
      </trkpt>
      <trkpt lat="46.04978" lon="4.74276">
        <ele>168.2002</ele>
        <time>2026-05-13T12:10:25+02:00</time>
      </trkpt>
      <trkpt lat="46.04983" lon="4.74281">
        <ele>168.10059</ele>
        <time>2026-05-13T12:10:26+02:00</time>
      </trkpt>
      <trkpt lat="46.04988" lon="4.74286">
        <ele>168.2002</ele>
        <time>2026-05-13T12:10:27+02:00</time>
      </trkpt>
      <trkpt lat="46.04993" lon="4.74291">
        <ele>168.10059</ele>
        <time>2026-05-13T12:10:28+02:00</time>
      </trkpt>
      <trkpt lat="46.04998" lon="4.74297">
        <ele>168.10059</ele>
        <time>2026-05-13T12:10:29+02:00</time>
      </trkpt>
      <trkpt lat="46.05003" lon="4.74303">
        <ele>168.2998</ele>
        <time>2026-05-13T12:10:30+02:00</time>
      </trkpt>
      <trkpt lat="46.05008" lon="4.74309">
        <ele>168.5</ele>
        <time>2026-05-13T12:10:31+02:00</time>
      </trkpt>
      <trkpt lat="46.05013" lon="4.74315">
        <ele>168.2998</ele>
        <time>2026-05-13T12:10:32+02:00</time>
      </trkpt>
      <trkpt lat="46.05018" lon="4.74321">
        <ele>168.60059</ele>
        <time>2026-05-13T12:10:33+02:00</time>
      </trkpt>
      <trkpt lat="46.05023" lon="4.74327">
        <ele>168.40039</ele>
        <time>2026-05-13T12:10:34+02:00</time>
      </trkpt>
      <trkpt lat="46.05028" lon="4.74333">
        <ele>168.10059</ele>
        <time>2026-05-13T12:10:35+02:00</time>
      </trkpt>
      <trkpt lat="46.05032" lon="4.74339">
        <ele>168.2998</ele>
        <time>2026-05-13T12:10:36+02:00</time>
      </trkpt>
      <trkpt lat="46.05037" lon="4.74346">
        <ele>168.2998</ele>
        <time>2026-05-13T12:10:37+02:00</time>
      </trkpt>
      <trkpt lat="46.05041" lon="4.74352">
        <ele>168.5</ele>
        <time>2026-05-13T12:10:38+02:00</time>
      </trkpt>
      <trkpt lat="46.05045" lon="4.7436">
        <ele>168.2002</ele>
        <time>2026-05-13T12:10:39+02:00</time>
      </trkpt>
      <trkpt lat="46.05049" lon="4.74367">
        <ele>168.2002</ele>
        <time>2026-05-13T12:10:40+02:00</time>
      </trkpt>
      <trkpt lat="46.05053" lon="4.74374">
        <ele>168.60059</ele>
        <time>2026-05-13T12:10:41+02:00</time>
      </trkpt>
      <trkpt lat="46.05057" lon="4.74381">
        <ele>168.7998</ele>
        <time>2026-05-13T12:10:42+02:00</time>
      </trkpt>
      <trkpt lat="46.05061" lon="4.74388">
        <ele>168.90039</ele>
        <time>2026-05-13T12:10:43+02:00</time>
      </trkpt>
      <trkpt lat="46.05065" lon="4.74395">
        <ele>169</ele>
        <time>2026-05-13T12:10:44+02:00</time>
      </trkpt>
      <trkpt lat="46.05068" lon="4.74402">
        <ele>168.7002</ele>
        <time>2026-05-13T12:10:45+02:00</time>
      </trkpt>
      <trkpt lat="46.05073" lon="4.74409">
        <ele>168.40039</ele>
        <time>2026-05-13T12:10:46+02:00</time>
      </trkpt>
      <trkpt lat="46.05076" lon="4.74417">
        <ele>168.40039</ele>
        <time>2026-05-13T12:10:47+02:00</time>
      </trkpt>
      <trkpt lat="46.05081" lon="4.74423">
        <ele>168.40039</ele>
        <time>2026-05-13T12:10:48+02:00</time>
      </trkpt>
      <trkpt lat="46.05084" lon="4.74431">
        <ele>168.7002</ele>
        <time>2026-05-13T12:10:49+02:00</time>
      </trkpt>
      <trkpt lat="46.05088" lon="4.74438">
        <ele>169.10059</ele>
        <time>2026-05-13T12:10:50+02:00</time>
      </trkpt>
      <trkpt lat="46.05092" lon="4.74446">
        <ele>168.7002</ele>
        <time>2026-05-13T12:10:51+02:00</time>
      </trkpt>
      <trkpt lat="46.05095" lon="4.74453">
        <ele>168.90039</ele>
        <time>2026-05-13T12:10:52+02:00</time>
      </trkpt>
      <trkpt lat="46.05099" lon="4.7446">
        <ele>168.60059</ele>
        <time>2026-05-13T12:10:53+02:00</time>
      </trkpt>
      <trkpt lat="46.05103" lon="4.74467">
        <ele>168.60059</ele>
        <time>2026-05-13T12:10:54+02:00</time>
      </trkpt>
      <trkpt lat="46.05107" lon="4.74475">
        <ele>168.7998</ele>
        <time>2026-05-13T12:10:55+02:00</time>
      </trkpt>
      <trkpt lat="46.0511" lon="4.74482">
        <ele>168.7998</ele>
        <time>2026-05-13T12:10:56+02:00</time>
      </trkpt>
      <trkpt lat="46.05114" lon="4.74489">
        <ele>168.60059</ele>
        <time>2026-05-13T12:10:57+02:00</time>
      </trkpt>
      <trkpt lat="46.05118" lon="4.74497">
        <ele>168.60059</ele>
        <time>2026-05-13T12:10:58+02:00</time>
      </trkpt>
      <trkpt lat="46.05122" lon="4.74504">
        <ele>168.40039</ele>
        <time>2026-05-13T12:10:59+02:00</time>
      </trkpt>
      <trkpt lat="46.05126" lon="4.74512">
        <ele>168.2998</ele>
        <time>2026-05-13T12:11:00+02:00</time>
      </trkpt>
      <trkpt lat="46.05129" lon="4.7452">
        <ele>168.5</ele>
        <time>2026-05-13T12:11:01+02:00</time>
      </trkpt>
      <trkpt lat="46.05133" lon="4.74527">
        <ele>168.7002</ele>
        <time>2026-05-13T12:11:02+02:00</time>
      </trkpt>
      <trkpt lat="46.05136" lon="4.74535">
        <ele>168.90039</ele>
        <time>2026-05-13T12:11:03+02:00</time>
      </trkpt>
      <trkpt lat="46.0514" lon="4.74543">
        <ele>168.90039</ele>
        <time>2026-05-13T12:11:04+02:00</time>
      </trkpt>
      <trkpt lat="46.05143" lon="4.74551">
        <ele>169.10059</ele>
        <time>2026-05-13T12:11:05+02:00</time>
      </trkpt>
      <trkpt lat="46.05147" lon="4.74558">
        <ele>168.7998</ele>
        <time>2026-05-13T12:11:06+02:00</time>
      </trkpt>
      <trkpt lat="46.0515" lon="4.74566">
        <ele>168.5</ele>
        <time>2026-05-13T12:11:07+02:00</time>
      </trkpt>
      <trkpt lat="46.05154" lon="4.74574">
        <ele>168.60059</ele>
        <time>2026-05-13T12:11:08+02:00</time>
      </trkpt>
      <trkpt lat="46.05157" lon="4.74582">
        <ele>168.90039</ele>
        <time>2026-05-13T12:11:09+02:00</time>
      </trkpt>
      <trkpt lat="46.05161" lon="4.7459">
        <ele>169.2998</ele>
        <time>2026-05-13T12:11:10+02:00</time>
      </trkpt>
      <trkpt lat="46.05164" lon="4.74598">
        <ele>169.60059</ele>
        <time>2026-05-13T12:11:11+02:00</time>
      </trkpt>
      <trkpt lat="46.05168" lon="4.74606">
        <ele>169.40039</ele>
        <time>2026-05-13T12:11:12+02:00</time>
      </trkpt>
      <trkpt lat="46.05171" lon="4.74614">
        <ele>169.40039</ele>
        <time>2026-05-13T12:11:13+02:00</time>
      </trkpt>
      <trkpt lat="46.05174" lon="4.74622">
        <ele>168.90039</ele>
        <time>2026-05-13T12:11:14+02:00</time>
      </trkpt>
      <trkpt lat="46.05177" lon="4.7463">
        <ele>168.7998</ele>
        <time>2026-05-13T12:11:15+02:00</time>
      </trkpt>
      <trkpt lat="46.05181" lon="4.74638">
        <ele>168.7002</ele>
        <time>2026-05-13T12:11:16+02:00</time>
      </trkpt>
      <trkpt lat="46.05184" lon="4.74646">
        <ele>168.7998</ele>
        <time>2026-05-13T12:11:17+02:00</time>
      </trkpt>
      <trkpt lat="46.05188" lon="4.74654">
        <ele>168.7998</ele>
        <time>2026-05-13T12:11:18+02:00</time>
      </trkpt>
      <trkpt lat="46.05191" lon="4.74662">
        <ele>168.7002</ele>
        <time>2026-05-13T12:11:19+02:00</time>
      </trkpt>
      <trkpt lat="46.05194" lon="4.7467">
        <ele>168.7998</ele>
        <time>2026-05-13T12:11:20+02:00</time>
      </trkpt>
      <trkpt lat="46.05198" lon="4.74678">
        <ele>168.5</ele>
        <time>2026-05-13T12:11:21+02:00</time>
      </trkpt>
      <trkpt lat="46.05201" lon="4.74686">
        <ele>168.60059</ele>
        <time>2026-05-13T12:11:22+02:00</time>
      </trkpt>
      <trkpt lat="46.05205" lon="4.74694">
        <ele>168.60059</ele>
        <time>2026-05-13T12:11:23+02:00</time>
      </trkpt>
      <trkpt lat="46.05208" lon="4.74702">
        <ele>168.7002</ele>
        <time>2026-05-13T12:11:24+02:00</time>
      </trkpt>
      <trkpt lat="46.05212" lon="4.7471">
        <ele>168.90039</ele>
        <time>2026-05-13T12:11:25+02:00</time>
      </trkpt>
      <trkpt lat="46.05215" lon="4.74718">
        <ele>168.90039</ele>
        <time>2026-05-13T12:11:26+02:00</time>
      </trkpt>
      <trkpt lat="46.05218" lon="4.74726">
        <ele>169.10059</ele>
        <time>2026-05-13T12:11:27+02:00</time>
      </trkpt>
      <trkpt lat="46.05222" lon="4.74734">
        <ele>169.2002</ele>
        <time>2026-05-13T12:11:28+02:00</time>
      </trkpt>
      <trkpt lat="46.05225" lon="4.74742">
        <ele>169.5</ele>
        <time>2026-05-13T12:11:29+02:00</time>
      </trkpt>
      <trkpt lat="46.05228" lon="4.7475">
        <ele>169.5</ele>
        <time>2026-05-13T12:11:30+02:00</time>
      </trkpt>
      <trkpt lat="46.05232" lon="4.74757">
        <ele>169.7002</ele>
        <time>2026-05-13T12:11:31+02:00</time>
      </trkpt>
      <trkpt lat="46.05235" lon="4.74765">
        <ele>169.40039</ele>
        <time>2026-05-13T12:11:32+02:00</time>
      </trkpt>
      <trkpt lat="46.05238" lon="4.74772">
        <ele>169.40039</ele>
        <time>2026-05-13T12:11:33+02:00</time>
      </trkpt>
      <trkpt lat="46.05241" lon="4.7478">
        <ele>169</ele>
        <time>2026-05-13T12:11:34+02:00</time>
      </trkpt>
      <trkpt lat="46.05245" lon="4.74787">
        <ele>168.7998</ele>
        <time>2026-05-13T12:11:35+02:00</time>
      </trkpt>
      <trkpt lat="46.05248" lon="4.74795">
        <ele>168.7998</ele>
        <time>2026-05-13T12:11:36+02:00</time>
      </trkpt>
      <trkpt lat="46.05251" lon="4.74803">
        <ele>168.7002</ele>
        <time>2026-05-13T12:11:37+02:00</time>
      </trkpt>
      <trkpt lat="46.05254" lon="4.7481">
        <ele>168.7002</ele>
        <time>2026-05-13T12:11:38+02:00</time>
      </trkpt>
      <trkpt lat="46.05258" lon="4.74818">
        <ele>168.5</ele>
        <time>2026-05-13T12:11:39+02:00</time>
      </trkpt>
      <trkpt lat="46.05261" lon="4.74826">
        <ele>168.60059</ele>
        <time>2026-05-13T12:11:40+02:00</time>
      </trkpt>
      <trkpt lat="46.05264" lon="4.74834">
        <ele>168.5</ele>
        <time>2026-05-13T12:11:41+02:00</time>
      </trkpt>
      <trkpt lat="46.05267" lon="4.74842">
        <ele>168.5</ele>
        <time>2026-05-13T12:11:42+02:00</time>
      </trkpt>
      <trkpt lat="46.05271" lon="4.7485">
        <ele>168.40039</ele>
        <time>2026-05-13T12:11:43+02:00</time>
      </trkpt>
      <trkpt lat="46.05274" lon="4.74858">
        <ele>168.40039</ele>
        <time>2026-05-13T12:11:44+02:00</time>
      </trkpt>
      <trkpt lat="46.05277" lon="4.74866">
        <ele>168.2998</ele>
        <time>2026-05-13T12:11:45+02:00</time>
      </trkpt>
      <trkpt lat="46.0528" lon="4.74873">
        <ele>168.40039</ele>
        <time>2026-05-13T12:11:46+02:00</time>
      </trkpt>
      <trkpt lat="46.05284" lon="4.7488">
        <ele>168.2998</ele>
        <time>2026-05-13T12:11:47+02:00</time>
      </trkpt>
      <trkpt lat="46.05287" lon="4.74888">
        <ele>168.2998</ele>
        <time>2026-05-13T12:11:48+02:00</time>
      </trkpt>
      <trkpt lat="46.0529" lon="4.74895">
        <ele>168.2998</ele>
        <time>2026-05-13T12:11:49+02:00</time>
      </trkpt>
      <trkpt lat="46.05293" lon="4.74903">
        <ele>168.2998</ele>
        <time>2026-05-13T12:11:50+02:00</time>
      </trkpt>
      <trkpt lat="46.05295" lon="4.7491">
        <ele>168.2998</ele>
        <time>2026-05-13T12:11:51+02:00</time>
      </trkpt>
      <trkpt lat="46.05298" lon="4.74918">
        <ele>168.2998</ele>
        <time>2026-05-13T12:11:52+02:00</time>
      </trkpt>
      <trkpt lat="46.05301" lon="4.74925">
        <ele>168.2998</ele>
        <time>2026-05-13T12:11:53+02:00</time>
      </trkpt>
      <trkpt lat="46.05304" lon="4.74933">
        <ele>168.40039</ele>
        <time>2026-05-13T12:11:54+02:00</time>
      </trkpt>
      <trkpt lat="46.05306" lon="4.74941">
        <ele>168.5</ele>
        <time>2026-05-13T12:11:55+02:00</time>
      </trkpt>
      <trkpt lat="46.05309" lon="4.74948">
        <ele>168.60059</ele>
        <time>2026-05-13T12:11:56+02:00</time>
      </trkpt>
      <trkpt lat="46.05312" lon="4.74957">
        <ele>168.60059</ele>
        <time>2026-05-13T12:11:57+02:00</time>
      </trkpt>
      <trkpt lat="46.05315" lon="4.74965">
        <ele>168.7998</ele>
        <time>2026-05-13T12:11:58+02:00</time>
      </trkpt>
      <trkpt lat="46.05317" lon="4.74973">
        <ele>168.7998</ele>
        <time>2026-05-13T12:11:59+02:00</time>
      </trkpt>
      <trkpt lat="46.05319" lon="4.74981">
        <ele>169</ele>
        <time>2026-05-13T12:12:00+02:00</time>
      </trkpt>
      <trkpt lat="46.05322" lon="4.74989">
        <ele>169.2002</ele>
        <time>2026-05-13T12:12:01+02:00</time>
      </trkpt>
      <trkpt lat="46.05324" lon="4.74998">
        <ele>169.10059</ele>
        <time>2026-05-13T12:12:02+02:00</time>
      </trkpt>
      <trkpt lat="46.05325" lon="4.75006">
        <ele>169.2998</ele>
        <time>2026-05-13T12:12:03+02:00</time>
      </trkpt>
      <trkpt lat="46.05328" lon="4.75014">
        <ele>169.10059</ele>
        <time>2026-05-13T12:12:04+02:00</time>
      </trkpt>
      <trkpt lat="46.0533" lon="4.75022">
        <ele>169.2998</ele>
        <time>2026-05-13T12:12:05+02:00</time>
      </trkpt>
      <trkpt lat="46.05333" lon="4.7503">
        <ele>169.40039</ele>
        <time>2026-05-13T12:12:06+02:00</time>
      </trkpt>
      <trkpt lat="46.05335" lon="4.75038">
        <ele>169.2002</ele>
        <time>2026-05-13T12:12:07+02:00</time>
      </trkpt>
      <trkpt lat="46.05338" lon="4.75046">
        <ele>169.2998</ele>
        <time>2026-05-13T12:12:08+02:00</time>
      </trkpt>
      <trkpt lat="46.05341" lon="4.75053">
        <ele>169.2002</ele>
        <time>2026-05-13T12:12:09+02:00</time>
      </trkpt>
      <trkpt lat="46.05343" lon="4.75062">
        <ele>169.40039</ele>
        <time>2026-05-13T12:12:10+02:00</time>
      </trkpt>
      <trkpt lat="46.05345" lon="4.7507">
        <ele>169.60059</ele>
        <time>2026-05-13T12:12:11+02:00</time>
      </trkpt>
      <trkpt lat="46.05348" lon="4.75078">
        <ele>169.5</ele>
        <time>2026-05-13T12:12:12+02:00</time>
      </trkpt>
      <trkpt lat="46.05351" lon="4.75086">
        <ele>169.7002</ele>
        <time>2026-05-13T12:12:13+02:00</time>
      </trkpt>
      <trkpt lat="46.05353" lon="4.75094">
        <ele>169.7002</ele>
        <time>2026-05-13T12:12:14+02:00</time>
      </trkpt>
      <trkpt lat="46.05356" lon="4.75103">
        <ele>169.90039</ele>
        <time>2026-05-13T12:12:15+02:00</time>
      </trkpt>
      <trkpt lat="46.05359" lon="4.75111">
        <ele>169.7998</ele>
        <time>2026-05-13T12:12:16+02:00</time>
      </trkpt>
      <trkpt lat="46.05361" lon="4.75119">
        <ele>170</ele>
        <time>2026-05-13T12:12:17+02:00</time>
      </trkpt>
      <trkpt lat="46.05364" lon="4.75127">
        <ele>169.90039</ele>
        <time>2026-05-13T12:12:18+02:00</time>
      </trkpt>
      <trkpt lat="46.05367" lon="4.75135">
        <ele>170</ele>
        <time>2026-05-13T12:12:19+02:00</time>
      </trkpt>
      <trkpt lat="46.05369" lon="4.75144">
        <ele>170.10059</ele>
        <time>2026-05-13T12:12:20+02:00</time>
      </trkpt>
      <trkpt lat="46.05372" lon="4.75152">
        <ele>169.5</ele>
        <time>2026-05-13T12:12:21+02:00</time>
      </trkpt>
      <trkpt lat="46.05375" lon="4.7516">
        <ele>169.5</ele>
        <time>2026-05-13T12:12:22+02:00</time>
      </trkpt>
      <trkpt lat="46.05378" lon="4.75168">
        <ele>168.90039</ele>
        <time>2026-05-13T12:12:23+02:00</time>
      </trkpt>
      <trkpt lat="46.05381" lon="4.75176">
        <ele>169.7002</ele>
        <time>2026-05-13T12:12:24+02:00</time>
      </trkpt>
      <trkpt lat="46.05383" lon="4.75184">
        <ele>169.2998</ele>
        <time>2026-05-13T12:12:25+02:00</time>
      </trkpt>
      <trkpt lat="46.05385" lon="4.75192">
        <ele>170.2998</ele>
        <time>2026-05-13T12:12:26+02:00</time>
      </trkpt>
      <trkpt lat="46.05388" lon="4.752">
        <ele>170.60059</ele>
        <time>2026-05-13T12:12:27+02:00</time>
      </trkpt>
      <trkpt lat="46.05391" lon="4.75208">
        <ele>170.7998</ele>
        <time>2026-05-13T12:12:28+02:00</time>
      </trkpt>
      <trkpt lat="46.05393" lon="4.75216">
        <ele>170.7002</ele>
        <time>2026-05-13T12:12:29+02:00</time>
      </trkpt>
      <trkpt lat="46.05396" lon="4.75224">
        <ele>170.10059</ele>
        <time>2026-05-13T12:12:30+02:00</time>
      </trkpt>
      <trkpt lat="46.05398" lon="4.75231">
        <ele>170.2998</ele>
        <time>2026-05-13T12:12:31+02:00</time>
      </trkpt>
      <trkpt lat="46.05401" lon="4.75239">
        <ele>170.2998</ele>
        <time>2026-05-13T12:12:32+02:00</time>
      </trkpt>
      <trkpt lat="46.05403" lon="4.75247">
        <ele>170.5</ele>
        <time>2026-05-13T12:12:33+02:00</time>
      </trkpt>
      <trkpt lat="46.05405" lon="4.75254">
        <ele>170.7998</ele>
        <time>2026-05-13T12:12:34+02:00</time>
      </trkpt>
      <trkpt lat="46.05407" lon="4.75261">
        <ele>170.7002</ele>
        <time>2026-05-13T12:12:35+02:00</time>
      </trkpt>
      <trkpt lat="46.05409" lon="4.75267">
        <ele>170.7998</ele>
        <time>2026-05-13T12:12:36+02:00</time>
      </trkpt>
      <trkpt lat="46.05411" lon="4.75273">
        <ele>170.7002</ele>
        <time>2026-05-13T12:12:37+02:00</time>
      </trkpt>
      <trkpt lat="46.05414" lon="4.75278">
        <ele>170.5</ele>
        <time>2026-05-13T12:12:38+02:00</time>
      </trkpt>
      <trkpt lat="46.05419" lon="4.75283">
        <ele>170.10059</ele>
        <time>2026-05-13T12:12:39+02:00</time>
      </trkpt>
      <trkpt lat="46.05423" lon="4.75288">
        <ele>170.10059</ele>
        <time>2026-05-13T12:12:40+02:00</time>
      </trkpt>
      <trkpt lat="46.05427" lon="4.75292">
        <ele>169.90039</ele>
        <time>2026-05-13T12:12:41+02:00</time>
      </trkpt>
      <trkpt lat="46.05431" lon="4.75297">
        <ele>169.90039</ele>
        <time>2026-05-13T12:12:42+02:00</time>
      </trkpt>
      <trkpt lat="46.05436" lon="4.75302">
        <ele>169.7002</ele>
        <time>2026-05-13T12:12:43+02:00</time>
      </trkpt>
      <trkpt lat="46.05441" lon="4.75307">
        <ele>169.7998</ele>
        <time>2026-05-13T12:12:44+02:00</time>
      </trkpt>
      <trkpt lat="46.05446" lon="4.75312">
        <ele>169.5</ele>
        <time>2026-05-13T12:12:45+02:00</time>
      </trkpt>
      <trkpt lat="46.05451" lon="4.75317">
        <ele>169.2998</ele>
        <time>2026-05-13T12:12:46+02:00</time>
      </trkpt>
      <trkpt lat="46.05455" lon="4.75322">
        <ele>169</ele>
        <time>2026-05-13T12:12:47+02:00</time>
      </trkpt>
      <trkpt lat="46.0546" lon="4.75328">
        <ele>168.7998</ele>
        <time>2026-05-13T12:12:48+02:00</time>
      </trkpt>
      <trkpt lat="46.05464" lon="4.75333">
        <ele>168.90039</ele>
        <time>2026-05-13T12:12:49+02:00</time>
      </trkpt>
      <trkpt lat="46.05469" lon="4.75338">
        <ele>168.7002</ele>
        <time>2026-05-13T12:12:50+02:00</time>
      </trkpt>
      <trkpt lat="46.05474" lon="4.75344">
        <ele>168.5</ele>
        <time>2026-05-13T12:12:51+02:00</time>
      </trkpt>
      <trkpt lat="46.05478" lon="4.7535">
        <ele>168.40039</ele>
        <time>2026-05-13T12:12:52+02:00</time>
      </trkpt>
      <trkpt lat="46.05483" lon="4.75355">
        <ele>168.2998</ele>
        <time>2026-05-13T12:12:53+02:00</time>
      </trkpt>
      <trkpt lat="46.05487" lon="4.75361">
        <ele>168.40039</ele>
        <time>2026-05-13T12:12:54+02:00</time>
      </trkpt>
      <trkpt lat="46.05492" lon="4.75367">
        <ele>168.5</ele>
        <time>2026-05-13T12:12:55+02:00</time>
      </trkpt>
      <trkpt lat="46.05496" lon="4.75373">
        <ele>168.40039</ele>
        <time>2026-05-13T12:12:56+02:00</time>
      </trkpt>
      <trkpt lat="46.055" lon="4.75379">
        <ele>168.60059</ele>
        <time>2026-05-13T12:12:57+02:00</time>
      </trkpt>
      <trkpt lat="46.05504" lon="4.75386">
        <ele>168.5</ele>
        <time>2026-05-13T12:12:58+02:00</time>
      </trkpt>
      <trkpt lat="46.05509" lon="4.75392">
        <ele>168.60059</ele>
        <time>2026-05-13T12:12:59+02:00</time>
      </trkpt>
      <trkpt lat="46.05513" lon="4.75398">
        <ele>168.5</ele>
        <time>2026-05-13T12:13:00+02:00</time>
      </trkpt>
      <trkpt lat="46.05517" lon="4.75405">
        <ele>168.7002</ele>
        <time>2026-05-13T12:13:01+02:00</time>
      </trkpt>
      <trkpt lat="46.05521" lon="4.75411">
        <ele>168.7002</ele>
        <time>2026-05-13T12:13:02+02:00</time>
      </trkpt>
      <trkpt lat="46.05525" lon="4.75417">
        <ele>168.7002</ele>
        <time>2026-05-13T12:13:03+02:00</time>
      </trkpt>
      <trkpt lat="46.05529" lon="4.75423">
        <ele>168.7002</ele>
        <time>2026-05-13T12:13:04+02:00</time>
      </trkpt>
      <trkpt lat="46.05533" lon="4.75429">
        <ele>168.60059</ele>
        <time>2026-05-13T12:13:05+02:00</time>
      </trkpt>
      <trkpt lat="46.05538" lon="4.75436">
        <ele>168.60059</ele>
        <time>2026-05-13T12:13:06+02:00</time>
      </trkpt>
      <trkpt lat="46.05542" lon="4.75442">
        <ele>168.7002</ele>
        <time>2026-05-13T12:13:07+02:00</time>
      </trkpt>
      <trkpt lat="46.05546" lon="4.75449">
        <ele>168.7002</ele>
        <time>2026-05-13T12:13:08+02:00</time>
      </trkpt>
      <trkpt lat="46.05551" lon="4.75455">
        <ele>168.7998</ele>
        <time>2026-05-13T12:13:09+02:00</time>
      </trkpt>
      <trkpt lat="46.05555" lon="4.75462">
        <ele>168.7998</ele>
        <time>2026-05-13T12:13:10+02:00</time>
      </trkpt>
      <trkpt lat="46.05559" lon="4.75469">
        <ele>168.90039</ele>
        <time>2026-05-13T12:13:11+02:00</time>
      </trkpt>
      <trkpt lat="46.05563" lon="4.75475">
        <ele>168.7998</ele>
        <time>2026-05-13T12:13:12+02:00</time>
      </trkpt>
      <trkpt lat="46.05567" lon="4.75482">
        <ele>169</ele>
        <time>2026-05-13T12:13:13+02:00</time>
      </trkpt>
      <trkpt lat="46.05572" lon="4.75489">
        <ele>169.2998</ele>
        <time>2026-05-13T12:13:14+02:00</time>
      </trkpt>
      <trkpt lat="46.05576" lon="4.75496">
        <ele>169.40039</ele>
        <time>2026-05-13T12:13:15+02:00</time>
      </trkpt>
      <trkpt lat="46.0558" lon="4.75503">
        <ele>169.5</ele>
        <time>2026-05-13T12:13:16+02:00</time>
      </trkpt>
      <trkpt lat="46.05584" lon="4.75509">
        <ele>169.5</ele>
        <time>2026-05-13T12:13:17+02:00</time>
      </trkpt>
      <trkpt lat="46.05589" lon="4.75516">
        <ele>169.40039</ele>
        <time>2026-05-13T12:13:18+02:00</time>
      </trkpt>
      <trkpt lat="46.05593" lon="4.75523">
        <ele>169.2002</ele>
        <time>2026-05-13T12:13:19+02:00</time>
      </trkpt>
      <trkpt lat="46.05597" lon="4.75529">
        <ele>168.7998</ele>
        <time>2026-05-13T12:13:20+02:00</time>
      </trkpt>
      <trkpt lat="46.05602" lon="4.75536">
        <ele>168.7998</ele>
        <time>2026-05-13T12:13:21+02:00</time>
      </trkpt>
      <trkpt lat="46.05606" lon="4.75542">
        <ele>168.7998</ele>
        <time>2026-05-13T12:13:22+02:00</time>
      </trkpt>
      <trkpt lat="46.05611" lon="4.75549">
        <ele>169.10059</ele>
        <time>2026-05-13T12:13:23+02:00</time>
      </trkpt>
      <trkpt lat="46.05615" lon="4.75555">
        <ele>169.2998</ele>
        <time>2026-05-13T12:13:24+02:00</time>
      </trkpt>
      <trkpt lat="46.0562" lon="4.75562">
        <ele>169.2998</ele>
        <time>2026-05-13T12:13:25+02:00</time>
      </trkpt>
      <trkpt lat="46.05624" lon="4.75568">
        <ele>169.2002</ele>
        <time>2026-05-13T12:13:26+02:00</time>
      </trkpt>
      <trkpt lat="46.05628" lon="4.75575">
        <ele>169</ele>
        <time>2026-05-13T12:13:27+02:00</time>
      </trkpt>
      <trkpt lat="46.05633" lon="4.75581">
        <ele>168.90039</ele>
        <time>2026-05-13T12:13:28+02:00</time>
      </trkpt>
      <trkpt lat="46.05637" lon="4.75587">
        <ele>168.90039</ele>
        <time>2026-05-13T12:13:29+02:00</time>
      </trkpt>
      <trkpt lat="46.05641" lon="4.75593">
        <ele>168.90039</ele>
        <time>2026-05-13T12:13:30+02:00</time>
      </trkpt>
      <trkpt lat="46.05645" lon="4.756">
        <ele>169</ele>
        <time>2026-05-13T12:13:31+02:00</time>
      </trkpt>
      <trkpt lat="46.05649" lon="4.75607">
        <ele>169.2002</ele>
        <time>2026-05-13T12:13:32+02:00</time>
      </trkpt>
      <trkpt lat="46.05654" lon="4.75614">
        <ele>169.2998</ele>
        <time>2026-05-13T12:13:33+02:00</time>
      </trkpt>
      <trkpt lat="46.05658" lon="4.7562">
        <ele>169.10059</ele>
        <time>2026-05-13T12:13:34+02:00</time>
      </trkpt>
      <trkpt lat="46.05662" lon="4.75627">
        <ele>169.10059</ele>
        <time>2026-05-13T12:13:35+02:00</time>
      </trkpt>
      <trkpt lat="46.05667" lon="4.75633">
        <ele>169.2998</ele>
        <time>2026-05-13T12:13:36+02:00</time>
      </trkpt>
      <trkpt lat="46.05672" lon="4.75638">
        <ele>169.10059</ele>
        <time>2026-05-13T12:13:37+02:00</time>
      </trkpt>
      <trkpt lat="46.05678" lon="4.75643">
        <ele>169.2002</ele>
        <time>2026-05-13T12:13:38+02:00</time>
      </trkpt>
      <trkpt lat="46.05683" lon="4.75648">
        <ele>169.2002</ele>
        <time>2026-05-13T12:13:39+02:00</time>
      </trkpt>
      <trkpt lat="46.05689" lon="4.75654">
        <ele>169</ele>
        <time>2026-05-13T12:13:40+02:00</time>
      </trkpt>
      <trkpt lat="46.05694" lon="4.75661">
        <ele>168.7998</ele>
        <time>2026-05-13T12:13:41+02:00</time>
      </trkpt>
      <trkpt lat="46.05699" lon="4.75667">
        <ele>168.60059</ele>
        <time>2026-05-13T12:13:42+02:00</time>
      </trkpt>
      <trkpt lat="46.05704" lon="4.75674">
        <ele>168.5</ele>
        <time>2026-05-13T12:13:43+02:00</time>
      </trkpt>
      <trkpt lat="46.05709" lon="4.7568">
        <ele>168.5</ele>
        <time>2026-05-13T12:13:44+02:00</time>
      </trkpt>
      <trkpt lat="46.05714" lon="4.75686">
        <ele>168.40039</ele>
        <time>2026-05-13T12:13:45+02:00</time>
      </trkpt>
      <trkpt lat="46.0572" lon="4.75692">
        <ele>168.40039</ele>
        <time>2026-05-13T12:13:46+02:00</time>
      </trkpt>
      <trkpt lat="46.05724" lon="4.75699">
        <ele>168.2998</ele>
        <time>2026-05-13T12:13:47+02:00</time>
      </trkpt>
      <trkpt lat="46.05729" lon="4.75705">
        <ele>168.2998</ele>
        <time>2026-05-13T12:13:48+02:00</time>
      </trkpt>
      <trkpt lat="46.05735" lon="4.75711">
        <ele>168.2002</ele>
        <time>2026-05-13T12:13:49+02:00</time>
      </trkpt>
      <trkpt lat="46.0574" lon="4.75717">
        <ele>168.2002</ele>
        <time>2026-05-13T12:13:50+02:00</time>
      </trkpt>
      <trkpt lat="46.05745" lon="4.75723">
        <ele>168.2002</ele>
        <time>2026-05-13T12:13:51+02:00</time>
      </trkpt>
      <trkpt lat="46.0575" lon="4.75729">
        <ele>168.2002</ele>
        <time>2026-05-13T12:13:52+02:00</time>
      </trkpt>
      <trkpt lat="46.05755" lon="4.75735">
        <ele>168.2002</ele>
        <time>2026-05-13T12:13:53+02:00</time>
      </trkpt>
      <trkpt lat="46.0576" lon="4.75741">
        <ele>168.2002</ele>
        <time>2026-05-13T12:13:54+02:00</time>
      </trkpt>
      <trkpt lat="46.05765" lon="4.75747">
        <ele>168.2002</ele>
        <time>2026-05-13T12:13:55+02:00</time>
      </trkpt>
      <trkpt lat="46.0577" lon="4.75754">
        <ele>168.2002</ele>
        <time>2026-05-13T12:13:56+02:00</time>
      </trkpt>
      <trkpt lat="46.05774" lon="4.7576">
        <ele>168.2002</ele>
        <time>2026-05-13T12:13:57+02:00</time>
      </trkpt>
      <trkpt lat="46.05779" lon="4.75766">
        <ele>168.10059</ele>
        <time>2026-05-13T12:13:58+02:00</time>
      </trkpt>
      <trkpt lat="46.05784" lon="4.75772">
        <ele>168.10059</ele>
        <time>2026-05-13T12:13:59+02:00</time>
      </trkpt>
      <trkpt lat="46.05789" lon="4.75779">
        <ele>168.40039</ele>
        <time>2026-05-13T12:14:00+02:00</time>
      </trkpt>
      <trkpt lat="46.05794" lon="4.75785">
        <ele>168.40039</ele>
        <time>2026-05-13T12:14:01+02:00</time>
      </trkpt>
      <trkpt lat="46.05798" lon="4.75791">
        <ele>168.60059</ele>
        <time>2026-05-13T12:14:02+02:00</time>
      </trkpt>
      <trkpt lat="46.05803" lon="4.75797">
        <ele>168.7002</ele>
        <time>2026-05-13T12:14:03+02:00</time>
      </trkpt>
      <trkpt lat="46.05808" lon="4.75804">
        <ele>168.7002</ele>
        <time>2026-05-13T12:14:04+02:00</time>
      </trkpt>
      <trkpt lat="46.05812" lon="4.7581">
        <ele>168.60059</ele>
        <time>2026-05-13T12:14:05+02:00</time>
      </trkpt>
      <trkpt lat="46.05817" lon="4.75816">
        <ele>168.5</ele>
        <time>2026-05-13T12:14:06+02:00</time>
      </trkpt>
      <trkpt lat="46.05822" lon="4.75822">
        <ele>168.5</ele>
        <time>2026-05-13T12:14:07+02:00</time>
      </trkpt>
      <trkpt lat="46.05826" lon="4.75828">
        <ele>168.40039</ele>
        <time>2026-05-13T12:14:08+02:00</time>
      </trkpt>
      <trkpt lat="46.05831" lon="4.75835">
        <ele>168.40039</ele>
        <time>2026-05-13T12:14:09+02:00</time>
      </trkpt>
      <trkpt lat="46.05835" lon="4.75841">
        <ele>168.60059</ele>
        <time>2026-05-13T12:14:10+02:00</time>
      </trkpt>
      <trkpt lat="46.0584" lon="4.75847">
        <ele>168.7998</ele>
        <time>2026-05-13T12:14:11+02:00</time>
      </trkpt>
      <trkpt lat="46.05844" lon="4.75852">
        <ele>168.7002</ele>
        <time>2026-05-13T12:14:12+02:00</time>
      </trkpt>
      <trkpt lat="46.05848" lon="4.75858">
        <ele>168.60059</ele>
        <time>2026-05-13T12:14:13+02:00</time>
      </trkpt>
      <trkpt lat="46.05853" lon="4.75864">
        <ele>168.7002</ele>
        <time>2026-05-13T12:14:14+02:00</time>
      </trkpt>
      <trkpt lat="46.05858" lon="4.7587">
        <ele>168.7002</ele>
        <time>2026-05-13T12:14:15+02:00</time>
      </trkpt>
      <trkpt lat="46.05862" lon="4.75876">
        <ele>168.90039</ele>
        <time>2026-05-13T12:14:16+02:00</time>
      </trkpt>
      <trkpt lat="46.05866" lon="4.75882">
        <ele>169</ele>
        <time>2026-05-13T12:14:17+02:00</time>
      </trkpt>
      <trkpt lat="46.05871" lon="4.75887">
        <ele>168.90039</ele>
        <time>2026-05-13T12:14:18+02:00</time>
      </trkpt>
      <trkpt lat="46.05875" lon="4.75893">
        <ele>169</ele>
        <time>2026-05-13T12:14:19+02:00</time>
      </trkpt>
      <trkpt lat="46.0588" lon="4.75898">
        <ele>169.2002</ele>
        <time>2026-05-13T12:14:20+02:00</time>
      </trkpt>
      <trkpt lat="46.05884" lon="4.75904">
        <ele>169.10059</ele>
        <time>2026-05-13T12:14:21+02:00</time>
      </trkpt>
      <trkpt lat="46.05889" lon="4.7591">
        <ele>169.2998</ele>
        <time>2026-05-13T12:14:22+02:00</time>
      </trkpt>
      <trkpt lat="46.05893" lon="4.75916">
        <ele>169.60059</ele>
        <time>2026-05-13T12:14:23+02:00</time>
      </trkpt>
      <trkpt lat="46.05898" lon="4.75922">
        <ele>169.40039</ele>
        <time>2026-05-13T12:14:24+02:00</time>
      </trkpt>
      <trkpt lat="46.05902" lon="4.75927">
        <ele>169.5</ele>
        <time>2026-05-13T12:14:25+02:00</time>
      </trkpt>
      <trkpt lat="46.05907" lon="4.75933">
        <ele>169.5</ele>
        <time>2026-05-13T12:14:26+02:00</time>
      </trkpt>
      <trkpt lat="46.05912" lon="4.75939">
        <ele>169.2998</ele>
        <time>2026-05-13T12:14:27+02:00</time>
      </trkpt>
      <trkpt lat="46.05917" lon="4.75944">
        <ele>169.5</ele>
        <time>2026-05-13T12:14:28+02:00</time>
      </trkpt>
      <trkpt lat="46.05921" lon="4.7595">
        <ele>169.5</ele>
        <time>2026-05-13T12:14:29+02:00</time>
      </trkpt>
      <trkpt lat="46.05926" lon="4.75956">
        <ele>169.2998</ele>
        <time>2026-05-13T12:14:30+02:00</time>
      </trkpt>
      <trkpt lat="46.05931" lon="4.75961">
        <ele>169.2002</ele>
        <time>2026-05-13T12:14:31+02:00</time>
      </trkpt>
      <trkpt lat="46.05936" lon="4.75967">
        <ele>169.10059</ele>
        <time>2026-05-13T12:14:32+02:00</time>
      </trkpt>
      <trkpt lat="46.05941" lon="4.75972">
        <ele>169.10059</ele>
        <time>2026-05-13T12:14:33+02:00</time>
      </trkpt>
      <trkpt lat="46.05946" lon="4.75977">
        <ele>169</ele>
        <time>2026-05-13T12:14:34+02:00</time>
      </trkpt>
      <trkpt lat="46.05951" lon="4.75982">
        <ele>168.90039</ele>
        <time>2026-05-13T12:14:35+02:00</time>
      </trkpt>
      <trkpt lat="46.05957" lon="4.75987">
        <ele>168.90039</ele>
        <time>2026-05-13T12:14:36+02:00</time>
      </trkpt>
      <trkpt lat="46.05962" lon="4.75993">
        <ele>169.10059</ele>
        <time>2026-05-13T12:14:37+02:00</time>
      </trkpt>
      <trkpt lat="46.05967" lon="4.75998">
        <ele>169</ele>
        <time>2026-05-13T12:14:38+02:00</time>
      </trkpt>
      <trkpt lat="46.05972" lon="4.76003">
        <ele>169</ele>
        <time>2026-05-13T12:14:39+02:00</time>
      </trkpt>
      <trkpt lat="46.05977" lon="4.76009">
        <ele>169.2002</ele>
        <time>2026-05-13T12:14:40+02:00</time>
      </trkpt>
      <trkpt lat="46.05982" lon="4.76014">
        <ele>169</ele>
        <time>2026-05-13T12:14:41+02:00</time>
      </trkpt>
      <trkpt lat="46.05988" lon="4.76019">
        <ele>169</ele>
        <time>2026-05-13T12:14:42+02:00</time>
      </trkpt>
      <trkpt lat="46.05993" lon="4.76024">
        <ele>168.7998</ele>
        <time>2026-05-13T12:14:43+02:00</time>
      </trkpt>
      <trkpt lat="46.05998" lon="4.76029">
        <ele>169.10059</ele>
        <time>2026-05-13T12:14:44+02:00</time>
      </trkpt>
      <trkpt lat="46.06003" lon="4.76034">
        <ele>169</ele>
        <time>2026-05-13T12:14:45+02:00</time>
      </trkpt>
      <trkpt lat="46.06009" lon="4.76038">
        <ele>169.2002</ele>
        <time>2026-05-13T12:14:46+02:00</time>
      </trkpt>
      <trkpt lat="46.06014" lon="4.76043">
        <ele>169.40039</ele>
        <time>2026-05-13T12:14:47+02:00</time>
      </trkpt>
      <trkpt lat="46.0602" lon="4.76048">
        <ele>169.2998</ele>
        <time>2026-05-13T12:14:48+02:00</time>
      </trkpt>
      <trkpt lat="46.06025" lon="4.76053">
        <ele>169.7998</ele>
        <time>2026-05-13T12:14:49+02:00</time>
      </trkpt>
      <trkpt lat="46.0603" lon="4.76057">
        <ele>169.7998</ele>
        <time>2026-05-13T12:14:50+02:00</time>
      </trkpt>
      <trkpt lat="46.06035" lon="4.76062">
        <ele>170.40039</ele>
        <time>2026-05-13T12:14:51+02:00</time>
      </trkpt>
      <trkpt lat="46.06041" lon="4.76067">
        <ele>170.40039</ele>
        <time>2026-05-13T12:14:52+02:00</time>
      </trkpt>
      <trkpt lat="46.06046" lon="4.76072">
        <ele>170.7002</ele>
        <time>2026-05-13T12:14:53+02:00</time>
      </trkpt>
      <trkpt lat="46.06051" lon="4.76077">
        <ele>170.2002</ele>
        <time>2026-05-13T12:14:54+02:00</time>
      </trkpt>
      <trkpt lat="46.06056" lon="4.76081">
        <ele>169.90039</ele>
        <time>2026-05-13T12:14:55+02:00</time>
      </trkpt>
      <trkpt lat="46.06061" lon="4.76085">
        <ele>169.5</ele>
        <time>2026-05-13T12:14:56+02:00</time>
      </trkpt>
      <trkpt lat="46.06065" lon="4.7609">
        <ele>169.7998</ele>
        <time>2026-05-13T12:14:57+02:00</time>
      </trkpt>
      <trkpt lat="46.06069" lon="4.76094">
        <ele>169.60059</ele>
        <time>2026-05-13T12:14:58+02:00</time>
      </trkpt>
      <trkpt lat="46.06073" lon="4.76098">
        <ele>169.60059</ele>
        <time>2026-05-13T12:14:59+02:00</time>
      </trkpt>
      <trkpt lat="46.06078" lon="4.76101">
        <ele>169.60059</ele>
        <time>2026-05-13T12:15:00+02:00</time>
      </trkpt>
      <trkpt lat="46.06083" lon="4.76103">
        <ele>169.90039</ele>
        <time>2026-05-13T12:15:01+02:00</time>
      </trkpt>
      <trkpt lat="46.06087" lon="4.76107">
        <ele>169.7002</ele>
        <time>2026-05-13T12:15:02+02:00</time>
      </trkpt>
      <trkpt lat="46.06092" lon="4.76112">
        <ele>170.2002</ele>
        <time>2026-05-13T12:15:03+02:00</time>
      </trkpt>
      <trkpt lat="46.06097" lon="4.76117">
        <ele>169.7998</ele>
        <time>2026-05-13T12:15:04+02:00</time>
      </trkpt>
      <trkpt lat="46.06102" lon="4.76122">
        <ele>170.2002</ele>
        <time>2026-05-13T12:15:05+02:00</time>
      </trkpt>
      <trkpt lat="46.06107" lon="4.76127">
        <ele>169.60059</ele>
        <time>2026-05-13T12:15:06+02:00</time>
      </trkpt>
      <trkpt lat="46.06112" lon="4.76131">
        <ele>169.60059</ele>
        <time>2026-05-13T12:15:07+02:00</time>
      </trkpt>
      <trkpt lat="46.06117" lon="4.76136">
        <ele>169.2998</ele>
        <time>2026-05-13T12:15:08+02:00</time>
      </trkpt>
      <trkpt lat="46.06122" lon="4.7614">
        <ele>169.60059</ele>
        <time>2026-05-13T12:15:09+02:00</time>
      </trkpt>
      <trkpt lat="46.06127" lon="4.76144">
        <ele>169.2998</ele>
        <time>2026-05-13T12:15:10+02:00</time>
      </trkpt>
      <trkpt lat="46.06132" lon="4.76149">
        <ele>169.5</ele>
        <time>2026-05-13T12:15:11+02:00</time>
      </trkpt>
      <trkpt lat="46.06137" lon="4.76153">
        <ele>169.5</ele>
        <time>2026-05-13T12:15:12+02:00</time>
      </trkpt>
      <trkpt lat="46.06142" lon="4.76157">
        <ele>169.40039</ele>
        <time>2026-05-13T12:15:13+02:00</time>
      </trkpt>
      <trkpt lat="46.06147" lon="4.76161">
        <ele>168.7998</ele>
        <time>2026-05-13T12:15:14+02:00</time>
      </trkpt>
      <trkpt lat="46.06152" lon="4.76165">
        <ele>168.7002</ele>
        <time>2026-05-13T12:15:15+02:00</time>
      </trkpt>
      <trkpt lat="46.06156" lon="4.76169">
        <ele>168.5</ele>
        <time>2026-05-13T12:15:16+02:00</time>
      </trkpt>
      <trkpt lat="46.06161" lon="4.76173">
        <ele>169</ele>
        <time>2026-05-13T12:15:17+02:00</time>
      </trkpt>
      <trkpt lat="46.06166" lon="4.76177">
        <ele>169</ele>
        <time>2026-05-13T12:15:18+02:00</time>
      </trkpt>
      <trkpt lat="46.06171" lon="4.76181">
        <ele>169.2002</ele>
        <time>2026-05-13T12:15:19+02:00</time>
      </trkpt>
      <trkpt lat="46.06176" lon="4.76185">
        <ele>169</ele>
        <time>2026-05-13T12:15:20+02:00</time>
      </trkpt>
      <trkpt lat="46.06181" lon="4.76189">
        <ele>169.10059</ele>
        <time>2026-05-13T12:15:21+02:00</time>
      </trkpt>
      <trkpt lat="46.06186" lon="4.76193">
        <ele>168.90039</ele>
        <time>2026-05-13T12:15:22+02:00</time>
      </trkpt>
      <trkpt lat="46.06192" lon="4.76197">
        <ele>168.7002</ele>
        <time>2026-05-13T12:15:23+02:00</time>
      </trkpt>
      <trkpt lat="46.06197" lon="4.76201">
        <ele>169.10059</ele>
        <time>2026-05-13T12:15:24+02:00</time>
      </trkpt>
      <trkpt lat="46.06203" lon="4.76204">
        <ele>168.90039</ele>
        <time>2026-05-13T12:15:25+02:00</time>
      </trkpt>
      <trkpt lat="46.06209" lon="4.76208">
        <ele>169.2998</ele>
        <time>2026-05-13T12:15:26+02:00</time>
      </trkpt>
      <trkpt lat="46.06214" lon="4.76212">
        <ele>169.2002</ele>
        <time>2026-05-13T12:15:27+02:00</time>
      </trkpt>
      <trkpt lat="46.0622" lon="4.76216">
        <ele>169.40039</ele>
        <time>2026-05-13T12:15:28+02:00</time>
      </trkpt>
      <trkpt lat="46.06226" lon="4.7622">
        <ele>169.2998</ele>
        <time>2026-05-13T12:15:29+02:00</time>
      </trkpt>
      <trkpt lat="46.06231" lon="4.76224">
        <ele>169.60059</ele>
        <time>2026-05-13T12:15:30+02:00</time>
      </trkpt>
      <trkpt lat="46.06236" lon="4.76228">
        <ele>169.5</ele>
        <time>2026-05-13T12:15:31+02:00</time>
      </trkpt>
      <trkpt lat="46.06242" lon="4.76232">
        <ele>170</ele>
        <time>2026-05-13T12:15:32+02:00</time>
      </trkpt>
      <trkpt lat="46.06247" lon="4.76236">
        <ele>170</ele>
        <time>2026-05-13T12:15:33+02:00</time>
      </trkpt>
      <trkpt lat="46.06252" lon="4.76239">
        <ele>170</ele>
        <time>2026-05-13T12:15:34+02:00</time>
      </trkpt>
      <trkpt lat="46.06258" lon="4.76243">
        <ele>170.2998</ele>
        <time>2026-05-13T12:15:35+02:00</time>
      </trkpt>
      <trkpt lat="46.06263" lon="4.76247">
        <ele>170.2998</ele>
        <time>2026-05-13T12:15:36+02:00</time>
      </trkpt>
      <trkpt lat="46.06269" lon="4.7625">
        <ele>170.40039</ele>
        <time>2026-05-13T12:15:37+02:00</time>
      </trkpt>
      <trkpt lat="46.06274" lon="4.76254">
        <ele>170.40039</ele>
        <time>2026-05-13T12:15:38+02:00</time>
      </trkpt>
      <trkpt lat="46.0628" lon="4.76258">
        <ele>170.5</ele>
        <time>2026-05-13T12:15:39+02:00</time>
      </trkpt>
      <trkpt lat="46.06285" lon="4.76261">
        <ele>170.5</ele>
        <time>2026-05-13T12:15:40+02:00</time>
      </trkpt>
      <trkpt lat="46.06291" lon="4.76265">
        <ele>170.40039</ele>
        <time>2026-05-13T12:15:41+02:00</time>
      </trkpt>
      <trkpt lat="46.06296" lon="4.76269">
        <ele>170.5</ele>
        <time>2026-05-13T12:15:42+02:00</time>
      </trkpt>
      <trkpt lat="46.06302" lon="4.76272">
        <ele>170.40039</ele>
        <time>2026-05-13T12:15:43+02:00</time>
      </trkpt>
      <trkpt lat="46.06307" lon="4.76276">
        <ele>170.60059</ele>
        <time>2026-05-13T12:15:44+02:00</time>
      </trkpt>
      <trkpt lat="46.06313" lon="4.76279">
        <ele>170.60059</ele>
        <time>2026-05-13T12:15:45+02:00</time>
      </trkpt>
      <trkpt lat="46.06318" lon="4.76283">
        <ele>170.60059</ele>
        <time>2026-05-13T12:15:46+02:00</time>
      </trkpt>
      <trkpt lat="46.06324" lon="4.76286">
        <ele>170.7002</ele>
        <time>2026-05-13T12:15:47+02:00</time>
      </trkpt>
      <trkpt lat="46.06329" lon="4.76289">
        <ele>170.7002</ele>
        <time>2026-05-13T12:15:48+02:00</time>
      </trkpt>
      <trkpt lat="46.06335" lon="4.76292">
        <ele>170.7998</ele>
        <time>2026-05-13T12:15:49+02:00</time>
      </trkpt>
      <trkpt lat="46.0634" lon="4.76295">
        <ele>170.7998</ele>
        <time>2026-05-13T12:15:50+02:00</time>
      </trkpt>
      <trkpt lat="46.06345" lon="4.76297">
        <ele>170.7998</ele>
        <time>2026-05-13T12:15:51+02:00</time>
      </trkpt>
      <trkpt lat="46.06351" lon="4.763">
        <ele>170.90039</ele>
        <time>2026-05-13T12:15:52+02:00</time>
      </trkpt>
      <trkpt lat="46.06356" lon="4.76303">
        <ele>171.10059</ele>
        <time>2026-05-13T12:15:53+02:00</time>
      </trkpt>
      <trkpt lat="46.06362" lon="4.76306">
        <ele>171.10059</ele>
        <time>2026-05-13T12:15:54+02:00</time>
      </trkpt>
      <trkpt lat="46.06367" lon="4.76309">
        <ele>171.2998</ele>
        <time>2026-05-13T12:15:55+02:00</time>
      </trkpt>
      <trkpt lat="46.06373" lon="4.76311">
        <ele>171.40039</ele>
        <time>2026-05-13T12:15:56+02:00</time>
      </trkpt>
      <trkpt lat="46.06379" lon="4.76314">
        <ele>171.5</ele>
        <time>2026-05-13T12:15:57+02:00</time>
      </trkpt>
      <trkpt lat="46.06385" lon="4.76316">
        <ele>171.5</ele>
        <time>2026-05-13T12:15:58+02:00</time>
      </trkpt>
      <trkpt lat="46.06391" lon="4.76318">
        <ele>171.7002</ele>
        <time>2026-05-13T12:15:59+02:00</time>
      </trkpt>
      <trkpt lat="46.06397" lon="4.7632">
        <ele>171.7998</ele>
        <time>2026-05-13T12:16:00+02:00</time>
      </trkpt>
      <trkpt lat="46.06403" lon="4.76322">
        <ele>171.7998</ele>
        <time>2026-05-13T12:16:01+02:00</time>
      </trkpt>
      <trkpt lat="46.0641" lon="4.76323">
        <ele>171.90039</ele>
        <time>2026-05-13T12:16:02+02:00</time>
      </trkpt>
      <trkpt lat="46.06416" lon="4.76325">
        <ele>171.90039</ele>
        <time>2026-05-13T12:16:03+02:00</time>
      </trkpt>
      <trkpt lat="46.06421" lon="4.76326">
        <ele>172.10059</ele>
        <time>2026-05-13T12:16:04+02:00</time>
      </trkpt>
      <trkpt lat="46.06428" lon="4.76328">
        <ele>172.10059</ele>
        <time>2026-05-13T12:16:05+02:00</time>
      </trkpt>
      <trkpt lat="46.06433" lon="4.7633">
        <ele>172.2002</ele>
        <time>2026-05-13T12:16:06+02:00</time>
      </trkpt>
      <trkpt lat="46.06439" lon="4.76332">
        <ele>172.2002</ele>
        <time>2026-05-13T12:16:07+02:00</time>
      </trkpt>
      <trkpt lat="46.06445" lon="4.76334">
        <ele>172.2998</ele>
        <time>2026-05-13T12:16:08+02:00</time>
      </trkpt>
      <trkpt lat="46.0645" lon="4.76336">
        <ele>172.40039</ele>
        <time>2026-05-13T12:16:09+02:00</time>
      </trkpt>
      <trkpt lat="46.06456" lon="4.76338">
        <ele>172.5</ele>
        <time>2026-05-13T12:16:10+02:00</time>
      </trkpt>
      <trkpt lat="46.06462" lon="4.7634">
        <ele>172.5</ele>
        <time>2026-05-13T12:16:11+02:00</time>
      </trkpt>
      <trkpt lat="46.06468" lon="4.76342">
        <ele>172.5</ele>
        <time>2026-05-13T12:16:12+02:00</time>
      </trkpt>
      <trkpt lat="46.06473" lon="4.76345">
        <ele>172.5</ele>
        <time>2026-05-13T12:16:13+02:00</time>
      </trkpt>
      <trkpt lat="46.06479" lon="4.76347">
        <ele>172.5</ele>
        <time>2026-05-13T12:16:14+02:00</time>
      </trkpt>
      <trkpt lat="46.06485" lon="4.7635">
        <ele>172.5</ele>
        <time>2026-05-13T12:16:15+02:00</time>
      </trkpt>
      <trkpt lat="46.06491" lon="4.76353">
        <ele>172.60059</ele>
        <time>2026-05-13T12:16:16+02:00</time>
      </trkpt>
      <trkpt lat="46.06496" lon="4.76356">
        <ele>172.5</ele>
        <time>2026-05-13T12:16:17+02:00</time>
      </trkpt>
      <trkpt lat="46.06502" lon="4.76358">
        <ele>172.5</ele>
        <time>2026-05-13T12:16:18+02:00</time>
      </trkpt>
      <trkpt lat="46.06506" lon="4.7636">
        <ele>172.5</ele>
        <time>2026-05-13T12:16:19+02:00</time>
      </trkpt>
      <trkpt lat="46.06511" lon="4.76362">
        <ele>172.40039</ele>
        <time>2026-05-13T12:16:20+02:00</time>
      </trkpt>
      <trkpt lat="46.06516" lon="4.76365">
        <ele>172.2998</ele>
        <time>2026-05-13T12:16:21+02:00</time>
      </trkpt>
      <trkpt lat="46.06521" lon="4.76367">
        <ele>172.2002</ele>
        <time>2026-05-13T12:16:22+02:00</time>
      </trkpt>
      <trkpt lat="46.06527" lon="4.76369">
        <ele>171.90039</ele>
        <time>2026-05-13T12:16:23+02:00</time>
      </trkpt>
      <trkpt lat="46.06533" lon="4.7637">
        <ele>171.7002</ele>
        <time>2026-05-13T12:16:24+02:00</time>
      </trkpt>
      <trkpt lat="46.06539" lon="4.76371">
        <ele>171.5</ele>
        <time>2026-05-13T12:16:25+02:00</time>
      </trkpt>
      <trkpt lat="46.06544" lon="4.76373">
        <ele>171.2998</ele>
        <time>2026-05-13T12:16:26+02:00</time>
      </trkpt>
      <trkpt lat="46.0655" lon="4.76374">
        <ele>171.2002</ele>
        <time>2026-05-13T12:16:27+02:00</time>
      </trkpt>
      <trkpt lat="46.06555" lon="4.76375">
        <ele>171.10059</ele>
        <time>2026-05-13T12:16:28+02:00</time>
      </trkpt>
      <trkpt lat="46.0656" lon="4.76376">
        <ele>171.10059</ele>
        <time>2026-05-13T12:16:29+02:00</time>
      </trkpt>
      <trkpt lat="46.06566" lon="4.76377">
        <ele>171</ele>
        <time>2026-05-13T12:16:30+02:00</time>
      </trkpt>
      <trkpt lat="46.06572" lon="4.76378">
        <ele>170.7998</ele>
        <time>2026-05-13T12:16:31+02:00</time>
      </trkpt>
      <trkpt lat="46.06578" lon="4.76378">
        <ele>170.7998</ele>
        <time>2026-05-13T12:16:32+02:00</time>
      </trkpt>
      <trkpt lat="46.06584" lon="4.76379">
        <ele>170.7998</ele>
        <time>2026-05-13T12:16:33+02:00</time>
      </trkpt>
      <trkpt lat="46.0659" lon="4.7638">
        <ele>170.90039</ele>
        <time>2026-05-13T12:16:34+02:00</time>
      </trkpt>
      <trkpt lat="46.06596" lon="4.76381">
        <ele>171</ele>
        <time>2026-05-13T12:16:35+02:00</time>
      </trkpt>
      <trkpt lat="46.06601" lon="4.76381">
        <ele>171.10059</ele>
        <time>2026-05-13T12:16:36+02:00</time>
      </trkpt>
      <trkpt lat="46.06608" lon="4.76381">
        <ele>171.2002</ele>
        <time>2026-05-13T12:16:37+02:00</time>
      </trkpt>
      <trkpt lat="46.06613" lon="4.76381">
        <ele>171.40039</ele>
        <time>2026-05-13T12:16:38+02:00</time>
      </trkpt>
      <trkpt lat="46.06619" lon="4.76382">
        <ele>171.5</ele>
        <time>2026-05-13T12:16:39+02:00</time>
      </trkpt>
      <trkpt lat="46.06625" lon="4.76382">
        <ele>171.7002</ele>
        <time>2026-05-13T12:16:40+02:00</time>
      </trkpt>
      <trkpt lat="46.0663" lon="4.76382">
        <ele>172</ele>
        <time>2026-05-13T12:16:41+02:00</time>
      </trkpt>
      <trkpt lat="46.06635" lon="4.76382">
        <ele>172.2002</ele>
        <time>2026-05-13T12:16:42+02:00</time>
      </trkpt>
      <trkpt lat="46.06641" lon="4.76382">
        <ele>172.40039</ele>
        <time>2026-05-13T12:16:43+02:00</time>
      </trkpt>
      <trkpt lat="46.06646" lon="4.76382">
        <ele>172.5</ele>
        <time>2026-05-13T12:16:44+02:00</time>
      </trkpt>
      <trkpt lat="46.06653" lon="4.76383">
        <ele>172.7002</ele>
        <time>2026-05-13T12:16:45+02:00</time>
      </trkpt>
      <trkpt lat="46.06658" lon="4.76384">
        <ele>172.7998</ele>
        <time>2026-05-13T12:16:46+02:00</time>
      </trkpt>
      <trkpt lat="46.06663" lon="4.76384">
        <ele>172.90039</ele>
        <time>2026-05-13T12:16:47+02:00</time>
      </trkpt>
      <trkpt lat="46.06667" lon="4.76384">
        <ele>172.90039</ele>
        <time>2026-05-13T12:16:48+02:00</time>
      </trkpt>
      <trkpt lat="46.06672" lon="4.76385">
        <ele>172.90039</ele>
        <time>2026-05-13T12:16:49+02:00</time>
      </trkpt>
      <trkpt lat="46.06677" lon="4.76384">
        <ele>173</ele>
        <time>2026-05-13T12:16:50+02:00</time>
      </trkpt>
      <trkpt lat="46.06682" lon="4.76384">
        <ele>173</ele>
        <time>2026-05-13T12:16:51+02:00</time>
      </trkpt>
      <trkpt lat="46.06687" lon="4.76384">
        <ele>173.10059</ele>
        <time>2026-05-13T12:16:52+02:00</time>
      </trkpt>
      <trkpt lat="46.06691" lon="4.76385">
        <ele>173.10059</ele>
        <time>2026-05-13T12:16:53+02:00</time>
      </trkpt>
      <trkpt lat="46.06696" lon="4.76386">
        <ele>173.10059</ele>
        <time>2026-05-13T12:16:54+02:00</time>
      </trkpt>
      <trkpt lat="46.06701" lon="4.76387">
        <ele>173.10059</ele>
        <time>2026-05-13T12:16:55+02:00</time>
      </trkpt>
      <trkpt lat="46.06706" lon="4.76388">
        <ele>173.10059</ele>
        <time>2026-05-13T12:16:56+02:00</time>
      </trkpt>
      <trkpt lat="46.06711" lon="4.76389">
        <ele>173.10059</ele>
        <time>2026-05-13T12:16:57+02:00</time>
      </trkpt>
      <trkpt lat="46.06716" lon="4.7639">
        <ele>173.10059</ele>
        <time>2026-05-13T12:16:58+02:00</time>
      </trkpt>
      <trkpt lat="46.0672" lon="4.7639">
        <ele>173.10059</ele>
        <time>2026-05-13T12:16:59+02:00</time>
      </trkpt>
      <trkpt lat="46.06725" lon="4.7639">
        <ele>173.10059</ele>
        <time>2026-05-13T12:17:00+02:00</time>
      </trkpt>
      <trkpt lat="46.06731" lon="4.76391">
        <ele>173.10059</ele>
        <time>2026-05-13T12:17:01+02:00</time>
      </trkpt>
      <trkpt lat="46.06736" lon="4.7639">
        <ele>173</ele>
        <time>2026-05-13T12:17:02+02:00</time>
      </trkpt>
      <trkpt lat="46.06741" lon="4.7639">
        <ele>172.90039</ele>
        <time>2026-05-13T12:17:03+02:00</time>
      </trkpt>
      <trkpt lat="46.06746" lon="4.7639">
        <ele>172.90039</ele>
        <time>2026-05-13T12:17:04+02:00</time>
      </trkpt>
      <trkpt lat="46.06753" lon="4.76391">
        <ele>172.7998</ele>
        <time>2026-05-13T12:17:05+02:00</time>
      </trkpt>
      <trkpt lat="46.06759" lon="4.76391">
        <ele>172.7002</ele>
        <time>2026-05-13T12:17:06+02:00</time>
      </trkpt>
      <trkpt lat="46.06765" lon="4.76388">
        <ele>172.60059</ele>
        <time>2026-05-13T12:17:07+02:00</time>
      </trkpt>
      <trkpt lat="46.0677" lon="4.76384">
        <ele>172.2998</ele>
        <time>2026-05-13T12:17:08+02:00</time>
      </trkpt>
      <trkpt lat="46.06775" lon="4.76379">
        <ele>172.2998</ele>
        <time>2026-05-13T12:17:09+02:00</time>
      </trkpt>
      <trkpt lat="46.06781" lon="4.76375">
        <ele>172</ele>
        <time>2026-05-13T12:17:10+02:00</time>
      </trkpt>
      <trkpt lat="46.06786" lon="4.7637">
        <ele>171.90039</ele>
        <time>2026-05-13T12:17:11+02:00</time>
      </trkpt>
      <trkpt lat="46.06791" lon="4.76366">
        <ele>171.7002</ele>
        <time>2026-05-13T12:17:12+02:00</time>
      </trkpt>
      <trkpt lat="46.06798" lon="4.76363">
        <ele>171.60059</ele>
        <time>2026-05-13T12:17:13+02:00</time>
      </trkpt>
      <trkpt lat="46.06804" lon="4.76361">
        <ele>171.5</ele>
        <time>2026-05-13T12:17:14+02:00</time>
      </trkpt>
      <trkpt lat="46.0681" lon="4.76359">
        <ele>171.2998</ele>
        <time>2026-05-13T12:17:15+02:00</time>
      </trkpt>
      <trkpt lat="46.06816" lon="4.76357">
        <ele>171.2998</ele>
        <time>2026-05-13T12:17:16+02:00</time>
      </trkpt>
      <trkpt lat="46.06822" lon="4.76355">
        <ele>171.2002</ele>
        <time>2026-05-13T12:17:17+02:00</time>
      </trkpt>
      <trkpt lat="46.06828" lon="4.76353">
        <ele>171.2002</ele>
        <time>2026-05-13T12:17:18+02:00</time>
      </trkpt>
      <trkpt lat="46.06834" lon="4.76351">
        <ele>171.2002</ele>
        <time>2026-05-13T12:17:19+02:00</time>
      </trkpt>
      <trkpt lat="46.0684" lon="4.76349">
        <ele>171.2002</ele>
        <time>2026-05-13T12:17:20+02:00</time>
      </trkpt>
      <trkpt lat="46.06846" lon="4.76348">
        <ele>171.2002</ele>
        <time>2026-05-13T12:17:21+02:00</time>
      </trkpt>
      <trkpt lat="46.06851" lon="4.76346">
        <ele>171.2998</ele>
        <time>2026-05-13T12:17:22+02:00</time>
      </trkpt>
      <trkpt lat="46.06857" lon="4.76345">
        <ele>171.40039</ele>
        <time>2026-05-13T12:17:23+02:00</time>
      </trkpt>
      <trkpt lat="46.06862" lon="4.76344">
        <ele>171.40039</ele>
        <time>2026-05-13T12:17:24+02:00</time>
      </trkpt>
      <trkpt lat="46.06868" lon="4.76342">
        <ele>171.5</ele>
        <time>2026-05-13T12:17:25+02:00</time>
      </trkpt>
      <trkpt lat="46.06873" lon="4.7634">
        <ele>171.5</ele>
        <time>2026-05-13T12:17:26+02:00</time>
      </trkpt>
      <trkpt lat="46.06879" lon="4.76339">
        <ele>171.60059</ele>
        <time>2026-05-13T12:17:27+02:00</time>
      </trkpt>
      <trkpt lat="46.06885" lon="4.76337">
        <ele>171.60059</ele>
        <time>2026-05-13T12:17:28+02:00</time>
      </trkpt>
      <trkpt lat="46.06891" lon="4.76335">
        <ele>171.7002</ele>
        <time>2026-05-13T12:17:29+02:00</time>
      </trkpt>
      <trkpt lat="46.06897" lon="4.76334">
        <ele>171.7002</ele>
        <time>2026-05-13T12:17:30+02:00</time>
      </trkpt>
      <trkpt lat="46.06903" lon="4.76332">
        <ele>171.7002</ele>
        <time>2026-05-13T12:17:31+02:00</time>
      </trkpt>
      <trkpt lat="46.06909" lon="4.7633">
        <ele>171.7002</ele>
        <time>2026-05-13T12:17:32+02:00</time>
      </trkpt>
      <trkpt lat="46.06915" lon="4.76329">
        <ele>171.7002</ele>
        <time>2026-05-13T12:17:33+02:00</time>
      </trkpt>
      <trkpt lat="46.06921" lon="4.76327">
        <ele>171.7002</ele>
        <time>2026-05-13T12:17:34+02:00</time>
      </trkpt>
      <trkpt lat="46.06927" lon="4.76325">
        <ele>171.60059</ele>
        <time>2026-05-13T12:17:35+02:00</time>
      </trkpt>
      <trkpt lat="46.06933" lon="4.76323">
        <ele>171.60059</ele>
        <time>2026-05-13T12:17:36+02:00</time>
      </trkpt>
      <trkpt lat="46.06938" lon="4.76321">
        <ele>171.60059</ele>
        <time>2026-05-13T12:17:37+02:00</time>
      </trkpt>
      <trkpt lat="46.06944" lon="4.7632">
        <ele>171.5</ele>
        <time>2026-05-13T12:17:38+02:00</time>
      </trkpt>
      <trkpt lat="46.0695" lon="4.76318">
        <ele>171.5</ele>
        <time>2026-05-13T12:17:39+02:00</time>
      </trkpt>
      <trkpt lat="46.06956" lon="4.76316">
        <ele>171.2002</ele>
        <time>2026-05-13T12:17:40+02:00</time>
      </trkpt>
      <trkpt lat="46.06962" lon="4.76314">
        <ele>171.2002</ele>
        <time>2026-05-13T12:17:41+02:00</time>
      </trkpt>
      <trkpt lat="46.06967" lon="4.76311">
        <ele>171.2002</ele>
        <time>2026-05-13T12:17:42+02:00</time>
      </trkpt>
      <trkpt lat="46.06973" lon="4.76308">
        <ele>171</ele>
        <time>2026-05-13T12:17:43+02:00</time>
      </trkpt>
      <trkpt lat="46.06979" lon="4.76305">
        <ele>171</ele>
        <time>2026-05-13T12:17:44+02:00</time>
      </trkpt>
      <trkpt lat="46.06985" lon="4.76302">
        <ele>171.10059</ele>
        <time>2026-05-13T12:17:45+02:00</time>
      </trkpt>
      <trkpt lat="46.06991" lon="4.76299">
        <ele>171</ele>
        <time>2026-05-13T12:17:46+02:00</time>
      </trkpt>
      <trkpt lat="46.06996" lon="4.76296">
        <ele>171</ele>
        <time>2026-05-13T12:17:47+02:00</time>
      </trkpt>
      <trkpt lat="46.07002" lon="4.76293">
        <ele>171</ele>
        <time>2026-05-13T12:17:48+02:00</time>
      </trkpt>
      <trkpt lat="46.07008" lon="4.76289">
        <ele>170.7002</ele>
        <time>2026-05-13T12:17:49+02:00</time>
      </trkpt>
      <trkpt lat="46.07013" lon="4.76286">
        <ele>170.7002</ele>
        <time>2026-05-13T12:17:50+02:00</time>
      </trkpt>
      <trkpt lat="46.07019" lon="4.76283">
        <ele>170.40039</ele>
        <time>2026-05-13T12:17:51+02:00</time>
      </trkpt>
      <trkpt lat="46.07025" lon="4.7628">
        <ele>170.2998</ele>
        <time>2026-05-13T12:17:52+02:00</time>
      </trkpt>
      <trkpt lat="46.07031" lon="4.76278">
        <ele>170.2002</ele>
        <time>2026-05-13T12:17:53+02:00</time>
      </trkpt>
      <trkpt lat="46.07037" lon="4.76275">
        <ele>170.2002</ele>
        <time>2026-05-13T12:17:54+02:00</time>
      </trkpt>
      <trkpt lat="46.07042" lon="4.76273">
        <ele>169.7998</ele>
        <time>2026-05-13T12:17:55+02:00</time>
      </trkpt>
      <trkpt lat="46.07048" lon="4.7627">
        <ele>169.7002</ele>
        <time>2026-05-13T12:17:56+02:00</time>
      </trkpt>
      <trkpt lat="46.07054" lon="4.76268">
        <ele>169.7002</ele>
        <time>2026-05-13T12:17:57+02:00</time>
      </trkpt>
      <trkpt lat="46.0706" lon="4.76265">
        <ele>169.40039</ele>
        <time>2026-05-13T12:17:58+02:00</time>
      </trkpt>
      <trkpt lat="46.07065" lon="4.76262">
        <ele>169.2998</ele>
        <time>2026-05-13T12:17:59+02:00</time>
      </trkpt>
      <trkpt lat="46.07071" lon="4.76259">
        <ele>169.40039</ele>
        <time>2026-05-13T12:18:00+02:00</time>
      </trkpt>
      <trkpt lat="46.07077" lon="4.76256">
        <ele>169.2002</ele>
        <time>2026-05-13T12:18:01+02:00</time>
      </trkpt>
      <trkpt lat="46.07082" lon="4.76254">
        <ele>169.2002</ele>
        <time>2026-05-13T12:18:02+02:00</time>
      </trkpt>
      <trkpt lat="46.07089" lon="4.76251">
        <ele>169.2002</ele>
        <time>2026-05-13T12:18:03+02:00</time>
      </trkpt>
      <trkpt lat="46.07094" lon="4.76248">
        <ele>168.90039</ele>
        <time>2026-05-13T12:18:04+02:00</time>
      </trkpt>
      <trkpt lat="46.071" lon="4.76246">
        <ele>168.90039</ele>
        <time>2026-05-13T12:18:05+02:00</time>
      </trkpt>
      <trkpt lat="46.07105" lon="4.76244">
        <ele>168.90039</ele>
        <time>2026-05-13T12:18:06+02:00</time>
      </trkpt>
      <trkpt lat="46.07111" lon="4.76241">
        <ele>168.90039</ele>
        <time>2026-05-13T12:18:07+02:00</time>
      </trkpt>
      <trkpt lat="46.07116" lon="4.76238">
        <ele>168.7002</ele>
        <time>2026-05-13T12:18:08+02:00</time>
      </trkpt>
      <trkpt lat="46.07122" lon="4.76236">
        <ele>168.7002</ele>
        <time>2026-05-13T12:18:09+02:00</time>
      </trkpt>
      <trkpt lat="46.07128" lon="4.76233">
        <ele>168.7002</ele>
        <time>2026-05-13T12:18:10+02:00</time>
      </trkpt>
      <trkpt lat="46.07133" lon="4.7623">
        <ele>168.60059</ele>
        <time>2026-05-13T12:18:11+02:00</time>
      </trkpt>
      <trkpt lat="46.07139" lon="4.76226">
        <ele>168.60059</ele>
        <time>2026-05-13T12:18:12+02:00</time>
      </trkpt>
      <trkpt lat="46.07144" lon="4.76223">
        <ele>168.60059</ele>
        <time>2026-05-13T12:18:13+02:00</time>
      </trkpt>
      <trkpt lat="46.0715" lon="4.7622">
        <ele>168.5</ele>
        <time>2026-05-13T12:18:14+02:00</time>
      </trkpt>
      <trkpt lat="46.07155" lon="4.76217">
        <ele>168.5</ele>
        <time>2026-05-13T12:18:15+02:00</time>
      </trkpt>
      <trkpt lat="46.0716" lon="4.76214">
        <ele>168.60059</ele>
        <time>2026-05-13T12:18:16+02:00</time>
      </trkpt>
      <trkpt lat="46.07166" lon="4.76211">
        <ele>168.7002</ele>
        <time>2026-05-13T12:18:17+02:00</time>
      </trkpt>
      <trkpt lat="46.07171" lon="4.76208">
        <ele>168.7998</ele>
        <time>2026-05-13T12:18:18+02:00</time>
      </trkpt>
      <trkpt lat="46.07177" lon="4.76204">
        <ele>168.7002</ele>
        <time>2026-05-13T12:18:19+02:00</time>
      </trkpt>
      <trkpt lat="46.07182" lon="4.76201">
        <ele>168.7998</ele>
        <time>2026-05-13T12:18:20+02:00</time>
      </trkpt>
      <trkpt lat="46.07188" lon="4.76198">
        <ele>168.7998</ele>
        <time>2026-05-13T12:18:21+02:00</time>
      </trkpt>
      <trkpt lat="46.07194" lon="4.76195">
        <ele>168.7002</ele>
        <time>2026-05-13T12:18:22+02:00</time>
      </trkpt>
      <trkpt lat="46.07199" lon="4.76192">
        <ele>168.7002</ele>
        <time>2026-05-13T12:18:23+02:00</time>
      </trkpt>
      <trkpt lat="46.07205" lon="4.7619">
        <ele>168.7998</ele>
        <time>2026-05-13T12:18:24+02:00</time>
      </trkpt>
      <trkpt lat="46.0721" lon="4.76187">
        <ele>168.7002</ele>
        <time>2026-05-13T12:18:25+02:00</time>
      </trkpt>
      <trkpt lat="46.07216" lon="4.76185">
        <ele>168.7002</ele>
        <time>2026-05-13T12:18:26+02:00</time>
      </trkpt>
      <trkpt lat="46.07221" lon="4.76182">
        <ele>168.7998</ele>
        <time>2026-05-13T12:18:27+02:00</time>
      </trkpt>
      <trkpt lat="46.07227" lon="4.76179">
        <ele>168.60059</ele>
        <time>2026-05-13T12:18:28+02:00</time>
      </trkpt>
      <trkpt lat="46.07233" lon="4.76176">
        <ele>168.7998</ele>
        <time>2026-05-13T12:18:29+02:00</time>
      </trkpt>
      <trkpt lat="46.07239" lon="4.76173">
        <ele>168.90039</ele>
        <time>2026-05-13T12:18:30+02:00</time>
      </trkpt>
      <trkpt lat="46.07244" lon="4.76171">
        <ele>168.90039</ele>
        <time>2026-05-13T12:18:31+02:00</time>
      </trkpt>
      <trkpt lat="46.0725" lon="4.76168">
        <ele>169.10059</ele>
        <time>2026-05-13T12:18:32+02:00</time>
      </trkpt>
      <trkpt lat="46.07255" lon="4.76166">
        <ele>169.2998</ele>
        <time>2026-05-13T12:18:33+02:00</time>
      </trkpt>
      <trkpt lat="46.0726" lon="4.76163">
        <ele>169.5</ele>
        <time>2026-05-13T12:18:34+02:00</time>
      </trkpt>
      <trkpt lat="46.07266" lon="4.76161">
        <ele>169.2998</ele>
        <time>2026-05-13T12:18:35+02:00</time>
      </trkpt>
      <trkpt lat="46.07271" lon="4.76159">
        <ele>169.5</ele>
        <time>2026-05-13T12:18:36+02:00</time>
      </trkpt>
      <trkpt lat="46.07276" lon="4.76156">
        <ele>169.7002</ele>
        <time>2026-05-13T12:18:37+02:00</time>
      </trkpt>
      <trkpt lat="46.07282" lon="4.76154">
        <ele>169.2998</ele>
        <time>2026-05-13T12:18:38+02:00</time>
      </trkpt>
      <trkpt lat="46.07287" lon="4.76152">
        <ele>169.2998</ele>
        <time>2026-05-13T12:18:39+02:00</time>
      </trkpt>
      <trkpt lat="46.07293" lon="4.7615">
        <ele>169.5</ele>
        <time>2026-05-13T12:18:40+02:00</time>
      </trkpt>
      <trkpt lat="46.07299" lon="4.76148">
        <ele>169.7002</ele>
        <time>2026-05-13T12:18:41+02:00</time>
      </trkpt>
      <trkpt lat="46.07305" lon="4.76146">
        <ele>169.90039</ele>
        <time>2026-05-13T12:18:42+02:00</time>
      </trkpt>
      <trkpt lat="46.07311" lon="4.76144">
        <ele>170</ele>
        <time>2026-05-13T12:18:43+02:00</time>
      </trkpt>
      <trkpt lat="46.07316" lon="4.76142">
        <ele>170.7002</ele>
        <time>2026-05-13T12:18:44+02:00</time>
      </trkpt>
      <trkpt lat="46.07321" lon="4.76141">
        <ele>171.60059</ele>
        <time>2026-05-13T12:18:45+02:00</time>
      </trkpt>
      <trkpt lat="46.07327" lon="4.76139">
        <ele>172.2998</ele>
        <time>2026-05-13T12:18:46+02:00</time>
      </trkpt>
      <trkpt lat="46.07333" lon="4.76137">
        <ele>172</ele>
        <time>2026-05-13T12:18:47+02:00</time>
      </trkpt>
      <trkpt lat="46.07338" lon="4.76136">
        <ele>172.2002</ele>
        <time>2026-05-13T12:18:48+02:00</time>
      </trkpt>
      <trkpt lat="46.07344" lon="4.76135">
        <ele>172.40039</ele>
        <time>2026-05-13T12:18:49+02:00</time>
      </trkpt>
      <trkpt lat="46.07349" lon="4.76133">
        <ele>172.5</ele>
        <time>2026-05-13T12:18:50+02:00</time>
      </trkpt>
      <trkpt lat="46.07354" lon="4.76131">
        <ele>172.60059</ele>
        <time>2026-05-13T12:18:51+02:00</time>
      </trkpt>
      <trkpt lat="46.0736" lon="4.76129">
        <ele>172.7002</ele>
        <time>2026-05-13T12:18:52+02:00</time>
      </trkpt>
      <trkpt lat="46.07365" lon="4.76127">
        <ele>172</ele>
        <time>2026-05-13T12:18:53+02:00</time>
      </trkpt>
      <trkpt lat="46.07371" lon="4.76125">
        <ele>172.2002</ele>
        <time>2026-05-13T12:18:54+02:00</time>
      </trkpt>
      <trkpt lat="46.07376" lon="4.76123">
        <ele>172.2002</ele>
        <time>2026-05-13T12:18:55+02:00</time>
      </trkpt>
      <trkpt lat="46.07381" lon="4.76121">
        <ele>172.2998</ele>
        <time>2026-05-13T12:18:56+02:00</time>
      </trkpt>
      <trkpt lat="46.07387" lon="4.76119">
        <ele>171.5</ele>
        <time>2026-05-13T12:18:57+02:00</time>
      </trkpt>
      <trkpt lat="46.07392" lon="4.76117">
        <ele>171.7002</ele>
        <time>2026-05-13T12:18:58+02:00</time>
      </trkpt>
      <trkpt lat="46.07398" lon="4.76115">
        <ele>172</ele>
        <time>2026-05-13T12:18:59+02:00</time>
      </trkpt>
      <trkpt lat="46.07403" lon="4.76112">
        <ele>172.5</ele>
        <time>2026-05-13T12:19:00+02:00</time>
      </trkpt>
      <trkpt lat="46.07409" lon="4.7611">
        <ele>172.60059</ele>
        <time>2026-05-13T12:19:01+02:00</time>
      </trkpt>
      <trkpt lat="46.07414" lon="4.76107">
        <ele>173.2002</ele>
        <time>2026-05-13T12:19:02+02:00</time>
      </trkpt>
      <trkpt lat="46.07419" lon="4.76105">
        <ele>173.40039</ele>
        <time>2026-05-13T12:19:03+02:00</time>
      </trkpt>
      <trkpt lat="46.07425" lon="4.76103">
        <ele>173.60059</ele>
        <time>2026-05-13T12:19:04+02:00</time>
      </trkpt>
      <trkpt lat="46.07431" lon="4.761">
        <ele>173.40039</ele>
        <time>2026-05-13T12:19:05+02:00</time>
      </trkpt>
      <trkpt lat="46.07437" lon="4.76098">
        <ele>173.5</ele>
        <time>2026-05-13T12:19:06+02:00</time>
      </trkpt>
      <trkpt lat="46.07443" lon="4.76096">
        <ele>173.5</ele>
        <time>2026-05-13T12:19:07+02:00</time>
      </trkpt>
      <trkpt lat="46.07449" lon="4.76094">
        <ele>173</ele>
        <time>2026-05-13T12:19:08+02:00</time>
      </trkpt>
      <trkpt lat="46.07454" lon="4.76091">
        <ele>173</ele>
        <time>2026-05-13T12:19:09+02:00</time>
      </trkpt>
      <trkpt lat="46.07461" lon="4.76088">
        <ele>173</ele>
        <time>2026-05-13T12:19:10+02:00</time>
      </trkpt>
      <trkpt lat="46.07467" lon="4.76086">
        <ele>173</ele>
        <time>2026-05-13T12:19:11+02:00</time>
      </trkpt>
      <trkpt lat="46.07473" lon="4.76084">
        <ele>172.10059</ele>
        <time>2026-05-13T12:19:12+02:00</time>
      </trkpt>
      <trkpt lat="46.07478" lon="4.76082">
        <ele>172.2002</ele>
        <time>2026-05-13T12:19:13+02:00</time>
      </trkpt>
      <trkpt lat="46.07484" lon="4.76079">
        <ele>172.2998</ele>
        <time>2026-05-13T12:19:14+02:00</time>
      </trkpt>
      <trkpt lat="46.0749" lon="4.76077">
        <ele>172.10059</ele>
        <time>2026-05-13T12:19:15+02:00</time>
      </trkpt>
      <trkpt lat="46.07496" lon="4.76075">
        <ele>172.5</ele>
        <time>2026-05-13T12:19:16+02:00</time>
      </trkpt>
      <trkpt lat="46.07501" lon="4.76073">
        <ele>172.5</ele>
        <time>2026-05-13T12:19:17+02:00</time>
      </trkpt>
      <trkpt lat="46.07507" lon="4.76071">
        <ele>172.7998</ele>
        <time>2026-05-13T12:19:18+02:00</time>
      </trkpt>
      <trkpt lat="46.07512" lon="4.7607">
        <ele>172.7002</ele>
        <time>2026-05-13T12:19:19+02:00</time>
      </trkpt>
      <trkpt lat="46.07518" lon="4.76068">
        <ele>172.2998</ele>
        <time>2026-05-13T12:19:20+02:00</time>
      </trkpt>
      <trkpt lat="46.07523" lon="4.76066">
        <ele>172.10059</ele>
        <time>2026-05-13T12:19:21+02:00</time>
      </trkpt>
      <trkpt lat="46.07528" lon="4.76064">
        <ele>171.90039</ele>
        <time>2026-05-13T12:19:22+02:00</time>
      </trkpt>
      <trkpt lat="46.07533" lon="4.76061">
        <ele>171.7998</ele>
        <time>2026-05-13T12:19:23+02:00</time>
      </trkpt>
      <trkpt lat="46.07539" lon="4.76059">
        <ele>171.40039</ele>
        <time>2026-05-13T12:19:24+02:00</time>
      </trkpt>
      <trkpt lat="46.07544" lon="4.76056">
        <ele>171.2998</ele>
        <time>2026-05-13T12:19:25+02:00</time>
      </trkpt>
      <trkpt lat="46.0755" lon="4.76053">
        <ele>171.2002</ele>
        <time>2026-05-13T12:19:26+02:00</time>
      </trkpt>
      <trkpt lat="46.07555" lon="4.7605">
        <ele>170.90039</ele>
        <time>2026-05-13T12:19:27+02:00</time>
      </trkpt>
      <trkpt lat="46.0756" lon="4.76046">
        <ele>170.90039</ele>
        <time>2026-05-13T12:19:28+02:00</time>
      </trkpt>
      <trkpt lat="46.07565" lon="4.76043">
        <ele>170.7998</ele>
        <time>2026-05-13T12:19:29+02:00</time>
      </trkpt>
      <trkpt lat="46.07571" lon="4.76039">
        <ele>170.7002</ele>
        <time>2026-05-13T12:19:30+02:00</time>
      </trkpt>
      <trkpt lat="46.07576" lon="4.76036">
        <ele>170.7998</ele>
        <time>2026-05-13T12:19:31+02:00</time>
      </trkpt>
      <trkpt lat="46.0758" lon="4.76033">
        <ele>170.7002</ele>
        <time>2026-05-13T12:19:32+02:00</time>
      </trkpt>
      <trkpt lat="46.07585" lon="4.7603">
        <ele>170.7998</ele>
        <time>2026-05-13T12:19:33+02:00</time>
      </trkpt>
      <trkpt lat="46.07589" lon="4.76027">
        <ele>170.7998</ele>
        <time>2026-05-13T12:19:34+02:00</time>
      </trkpt>
      <trkpt lat="46.07594" lon="4.76024">
        <ele>170.7002</ele>
        <time>2026-05-13T12:19:35+02:00</time>
      </trkpt>
      <trkpt lat="46.07598" lon="4.76021">
        <ele>170.90039</ele>
        <time>2026-05-13T12:19:36+02:00</time>
      </trkpt>
      <trkpt lat="46.07602" lon="4.76018">
        <ele>170.90039</ele>
        <time>2026-05-13T12:19:37+02:00</time>
      </trkpt>
      <trkpt lat="46.07607" lon="4.76016">
        <ele>170.7002</ele>
        <time>2026-05-13T12:19:38+02:00</time>
      </trkpt>
      <trkpt lat="46.07611" lon="4.76013">
        <ele>170.90039</ele>
        <time>2026-05-13T12:19:39+02:00</time>
      </trkpt>
      <trkpt lat="46.07615" lon="4.7601">
        <ele>171.10059</ele>
        <time>2026-05-13T12:19:40+02:00</time>
      </trkpt>
      <trkpt lat="46.0762" lon="4.76006">
        <ele>170.7998</ele>
        <time>2026-05-13T12:19:41+02:00</time>
      </trkpt>
      <trkpt lat="46.07625" lon="4.76002">
        <ele>171</ele>
        <time>2026-05-13T12:19:42+02:00</time>
      </trkpt>
      <trkpt lat="46.07629" lon="4.75998">
        <ele>171.10059</ele>
        <time>2026-05-13T12:19:43+02:00</time>
      </trkpt>
      <trkpt lat="46.07634" lon="4.75994">
        <ele>171.40039</ele>
        <time>2026-05-13T12:19:44+02:00</time>
      </trkpt>
      <trkpt lat="46.07639" lon="4.7599">
        <ele>171.2998</ele>
        <time>2026-05-13T12:19:45+02:00</time>
      </trkpt>
      <trkpt lat="46.07644" lon="4.75987">
        <ele>171.2998</ele>
        <time>2026-05-13T12:19:46+02:00</time>
      </trkpt>
      <trkpt lat="46.0765" lon="4.75983">
        <ele>171.40039</ele>
        <time>2026-05-13T12:19:47+02:00</time>
      </trkpt>
      <trkpt lat="46.07656" lon="4.7598">
        <ele>171.2002</ele>
        <time>2026-05-13T12:19:48+02:00</time>
      </trkpt>
      <trkpt lat="46.07661" lon="4.75975">
        <ele>171.2998</ele>
        <time>2026-05-13T12:19:49+02:00</time>
      </trkpt>
      <trkpt lat="46.07667" lon="4.75971">
        <ele>170.90039</ele>
        <time>2026-05-13T12:19:50+02:00</time>
      </trkpt>
      <trkpt lat="46.07672" lon="4.75967">
        <ele>171</ele>
        <time>2026-05-13T12:19:51+02:00</time>
      </trkpt>
      <trkpt lat="46.07678" lon="4.75963">
        <ele>170.60059</ele>
        <time>2026-05-13T12:19:52+02:00</time>
      </trkpt>
      <trkpt lat="46.07683" lon="4.75959">
        <ele>170.90039</ele>
        <time>2026-05-13T12:19:53+02:00</time>
      </trkpt>
      <trkpt lat="46.07688" lon="4.75955">
        <ele>170.7998</ele>
        <time>2026-05-13T12:19:54+02:00</time>
      </trkpt>
      <trkpt lat="46.07694" lon="4.75951">
        <ele>171.2998</ele>
        <time>2026-05-13T12:19:55+02:00</time>
      </trkpt>
      <trkpt lat="46.07699" lon="4.75947">
        <ele>171.2998</ele>
        <time>2026-05-13T12:19:56+02:00</time>
      </trkpt>
      <trkpt lat="46.07704" lon="4.75943">
        <ele>171.60059</ele>
        <time>2026-05-13T12:19:57+02:00</time>
      </trkpt>
      <trkpt lat="46.0771" lon="4.75939">
        <ele>171.10059</ele>
        <time>2026-05-13T12:19:58+02:00</time>
      </trkpt>
      <trkpt lat="46.07715" lon="4.75934">
        <ele>171.40039</ele>
        <time>2026-05-13T12:19:59+02:00</time>
      </trkpt>
      <trkpt lat="46.0772" lon="4.7593">
        <ele>171</ele>
        <time>2026-05-13T12:20:00+02:00</time>
      </trkpt>
      <trkpt lat="46.07725" lon="4.75926">
        <ele>171.2998</ele>
        <time>2026-05-13T12:20:01+02:00</time>
      </trkpt>
      <trkpt lat="46.0773" lon="4.75921">
        <ele>171</ele>
        <time>2026-05-13T12:20:02+02:00</time>
      </trkpt>
      <trkpt lat="46.07736" lon="4.75917">
        <ele>171.40039</ele>
        <time>2026-05-13T12:20:03+02:00</time>
      </trkpt>
      <trkpt lat="46.07741" lon="4.75913">
        <ele>171.10059</ele>
        <time>2026-05-13T12:20:04+02:00</time>
      </trkpt>
      <trkpt lat="46.07746" lon="4.75908">
        <ele>171.60059</ele>
        <time>2026-05-13T12:20:05+02:00</time>
      </trkpt>
      <trkpt lat="46.07752" lon="4.75904">
        <ele>171.7998</ele>
        <time>2026-05-13T12:20:06+02:00</time>
      </trkpt>
      <trkpt lat="46.07757" lon="4.75899">
        <ele>171.7998</ele>
        <time>2026-05-13T12:20:07+02:00</time>
      </trkpt>
      <trkpt lat="46.07762" lon="4.75895">
        <ele>171.7002</ele>
        <time>2026-05-13T12:20:08+02:00</time>
      </trkpt>
      <trkpt lat="46.07768" lon="4.7589">
        <ele>172.2998</ele>
        <time>2026-05-13T12:20:09+02:00</time>
      </trkpt>
      <trkpt lat="46.07773" lon="4.75885">
        <ele>171.5</ele>
        <time>2026-05-13T12:20:10+02:00</time>
      </trkpt>
      <trkpt lat="46.07778" lon="4.7588">
        <ele>171.90039</ele>
        <time>2026-05-13T12:20:11+02:00</time>
      </trkpt>
      <trkpt lat="46.07783" lon="4.75875">
        <ele>171.2002</ele>
        <time>2026-05-13T12:20:12+02:00</time>
      </trkpt>
      <trkpt lat="46.07789" lon="4.7587">
        <ele>170.60059</ele>
        <time>2026-05-13T12:20:13+02:00</time>
      </trkpt>
      <trkpt lat="46.07794" lon="4.75865">
        <ele>171</ele>
        <time>2026-05-13T12:20:14+02:00</time>
      </trkpt>
      <trkpt lat="46.07799" lon="4.75861">
        <ele>170.10059</ele>
        <time>2026-05-13T12:20:15+02:00</time>
      </trkpt>
      <trkpt lat="46.07804" lon="4.75856">
        <ele>170.60059</ele>
        <time>2026-05-13T12:20:16+02:00</time>
      </trkpt>
      <trkpt lat="46.07808" lon="4.75851">
        <ele>170.40039</ele>
        <time>2026-05-13T12:20:17+02:00</time>
      </trkpt>
      <trkpt lat="46.07813" lon="4.75846">
        <ele>171</ele>
        <time>2026-05-13T12:20:18+02:00</time>
      </trkpt>
      <trkpt lat="46.07816" lon="4.7584">
        <ele>170.2002</ele>
        <time>2026-05-13T12:20:19+02:00</time>
      </trkpt>
      <trkpt lat="46.0782" lon="4.75834">
        <ele>169.90039</ele>
        <time>2026-05-13T12:20:20+02:00</time>
      </trkpt>
      <trkpt lat="46.07825" lon="4.75829">
        <ele>170.2998</ele>
        <time>2026-05-13T12:20:21+02:00</time>
      </trkpt>
      <trkpt lat="46.07829" lon="4.75825">
        <ele>169.40039</ele>
        <time>2026-05-13T12:20:22+02:00</time>
      </trkpt>
      <trkpt lat="46.07834" lon="4.7582">
        <ele>169.7002</ele>
        <time>2026-05-13T12:20:23+02:00</time>
      </trkpt>
      <trkpt lat="46.07839" lon="4.75815">
        <ele>169.2998</ele>
        <time>2026-05-13T12:20:24+02:00</time>
      </trkpt>
      <trkpt lat="46.07844" lon="4.75811">
        <ele>169.2002</ele>
        <time>2026-05-13T12:20:25+02:00</time>
      </trkpt>
      <trkpt lat="46.07848" lon="4.75806">
        <ele>169.7998</ele>
        <time>2026-05-13T12:20:26+02:00</time>
      </trkpt>
      <trkpt lat="46.07853" lon="4.75801">
        <ele>169.2002</ele>
        <time>2026-05-13T12:20:27+02:00</time>
      </trkpt>
      <trkpt lat="46.07858" lon="4.75796">
        <ele>169.60059</ele>
        <time>2026-05-13T12:20:28+02:00</time>
      </trkpt>
      <trkpt lat="46.07863" lon="4.75791">
        <ele>169.2998</ele>
        <time>2026-05-13T12:20:29+02:00</time>
      </trkpt>
      <trkpt lat="46.07868" lon="4.75786">
        <ele>169.5</ele>
        <time>2026-05-13T12:20:30+02:00</time>
      </trkpt>
      <trkpt lat="46.07873" lon="4.75781">
        <ele>169</ele>
        <time>2026-05-13T12:20:31+02:00</time>
      </trkpt>
      <trkpt lat="46.07878" lon="4.75776">
        <ele>168.7002</ele>
        <time>2026-05-13T12:20:32+02:00</time>
      </trkpt>
      <trkpt lat="46.07883" lon="4.75772">
        <ele>169.2002</ele>
        <time>2026-05-13T12:20:33+02:00</time>
      </trkpt>
      <trkpt lat="46.07889" lon="4.75768">
        <ele>169.2998</ele>
        <time>2026-05-13T12:20:34+02:00</time>
      </trkpt>
      <trkpt lat="46.07894" lon="4.75764">
        <ele>169.2998</ele>
        <time>2026-05-13T12:20:35+02:00</time>
      </trkpt>
      <trkpt lat="46.07898" lon="4.75759">
        <ele>169.10059</ele>
        <time>2026-05-13T12:20:36+02:00</time>
      </trkpt>
      <trkpt lat="46.07903" lon="4.75755">
        <ele>169.40039</ele>
        <time>2026-05-13T12:20:37+02:00</time>
      </trkpt>
      <trkpt lat="46.07908" lon="4.7575">
        <ele>169</ele>
        <time>2026-05-13T12:20:38+02:00</time>
      </trkpt>
      <trkpt lat="46.07913" lon="4.75745">
        <ele>169.2998</ele>
        <time>2026-05-13T12:20:39+02:00</time>
      </trkpt>
      <trkpt lat="46.07917" lon="4.75741">
        <ele>168.5</ele>
        <time>2026-05-13T12:20:40+02:00</time>
      </trkpt>
      <trkpt lat="46.07922" lon="4.75736">
        <ele>168.90039</ele>
        <time>2026-05-13T12:20:41+02:00</time>
      </trkpt>
      <trkpt lat="46.07926" lon="4.75731">
        <ele>168.90039</ele>
        <time>2026-05-13T12:20:42+02:00</time>
      </trkpt>
      <trkpt lat="46.07939" lon="4.75717">
        <ele>169.7002</ele>
        <time>2026-05-13T12:20:43+02:00</time>
      </trkpt>
      <trkpt lat="46.07943" lon="4.75713">
        <ele>169.5</ele>
        <time>2026-05-13T12:20:44+02:00</time>
      </trkpt>
      <trkpt lat="46.07948" lon="4.75708">
        <ele>169.5</ele>
        <time>2026-05-13T12:20:45+02:00</time>
      </trkpt>
      <trkpt lat="46.07952" lon="4.75704">
        <ele>169.5</ele>
        <time>2026-05-13T12:20:46+02:00</time>
      </trkpt>
      <trkpt lat="46.07956" lon="4.75699">
        <ele>169.60059</ele>
        <time>2026-05-13T12:20:47+02:00</time>
      </trkpt>
      <trkpt lat="46.07961" lon="4.75695">
        <ele>170.10059</ele>
        <time>2026-05-13T12:20:48+02:00</time>
      </trkpt>
      <trkpt lat="46.07966" lon="4.7569">
        <ele>169.5</ele>
        <time>2026-05-13T12:20:49+02:00</time>
      </trkpt>
      <trkpt lat="46.0797" lon="4.75686">
        <ele>169.90039</ele>
        <time>2026-05-13T12:20:50+02:00</time>
      </trkpt>
      <trkpt lat="46.07975" lon="4.75682">
        <ele>169.40039</ele>
        <time>2026-05-13T12:20:51+02:00</time>
      </trkpt>
      <trkpt lat="46.07979" lon="4.75677">
        <ele>169.7998</ele>
        <time>2026-05-13T12:20:52+02:00</time>
      </trkpt>
      <trkpt lat="46.07984" lon="4.75673">
        <ele>169.5</ele>
        <time>2026-05-13T12:20:53+02:00</time>
      </trkpt>
      <trkpt lat="46.07988" lon="4.75669">
        <ele>169.5</ele>
        <time>2026-05-13T12:20:54+02:00</time>
      </trkpt>
      <trkpt lat="46.07993" lon="4.75665">
        <ele>169.40039</ele>
        <time>2026-05-13T12:20:55+02:00</time>
      </trkpt>
      <trkpt lat="46.07997" lon="4.75661">
        <ele>170.40039</ele>
        <time>2026-05-13T12:20:56+02:00</time>
      </trkpt>
      <trkpt lat="46.08001" lon="4.75657">
        <ele>170.40039</ele>
        <time>2026-05-13T12:20:57+02:00</time>
      </trkpt>
      <trkpt lat="46.08005" lon="4.75653">
        <ele>170.5</ele>
        <time>2026-05-13T12:20:58+02:00</time>
      </trkpt>
      <trkpt lat="46.08008" lon="4.75649">
        <ele>171.10059</ele>
        <time>2026-05-13T12:20:59+02:00</time>
      </trkpt>
      <trkpt lat="46.08012" lon="4.75644">
        <ele>170.2998</ele>
        <time>2026-05-13T12:21:00+02:00</time>
      </trkpt>
      <trkpt lat="46.08015" lon="4.75638">
        <ele>170.2998</ele>
        <time>2026-05-13T12:21:01+02:00</time>
      </trkpt>
      <trkpt lat="46.08018" lon="4.75632">
        <ele>170.2998</ele>
        <time>2026-05-13T12:21:02+02:00</time>
      </trkpt>
      <trkpt lat="46.08022" lon="4.75627">
        <ele>170.40039</ele>
        <time>2026-05-13T12:21:03+02:00</time>
      </trkpt>
      <trkpt lat="46.08025" lon="4.75623">
        <ele>170.40039</ele>
        <time>2026-05-13T12:21:04+02:00</time>
      </trkpt>
      <trkpt lat="46.0803" lon="4.75618">
        <ele>170.40039</ele>
        <time>2026-05-13T12:21:05+02:00</time>
      </trkpt>
      <trkpt lat="46.08034" lon="4.75614">
        <ele>170.7998</ele>
        <time>2026-05-13T12:21:06+02:00</time>
      </trkpt>
      <trkpt lat="46.08038" lon="4.7561">
        <ele>170.60059</ele>
        <time>2026-05-13T12:21:07+02:00</time>
      </trkpt>
      <trkpt lat="46.08042" lon="4.75606">
        <ele>170.60059</ele>
        <time>2026-05-13T12:21:08+02:00</time>
      </trkpt>
      <trkpt lat="46.08047" lon="4.75601">
        <ele>170.60059</ele>
        <time>2026-05-13T12:21:09+02:00</time>
      </trkpt>
      <trkpt lat="46.08051" lon="4.75597">
        <ele>171.2998</ele>
        <time>2026-05-13T12:21:10+02:00</time>
      </trkpt>
      <trkpt lat="46.08055" lon="4.75593">
        <ele>170.2998</ele>
        <time>2026-05-13T12:21:11+02:00</time>
      </trkpt>
      <trkpt lat="46.0806" lon="4.75588">
        <ele>170.7998</ele>
        <time>2026-05-13T12:21:12+02:00</time>
      </trkpt>
      <trkpt lat="46.08064" lon="4.75583">
        <ele>170</ele>
        <time>2026-05-13T12:21:13+02:00</time>
      </trkpt>
      <trkpt lat="46.08068" lon="4.75578">
        <ele>169.5</ele>
        <time>2026-05-13T12:21:14+02:00</time>
      </trkpt>
      <trkpt lat="46.08072" lon="4.75573">
        <ele>169.5</ele>
        <time>2026-05-13T12:21:15+02:00</time>
      </trkpt>
      <trkpt lat="46.08076" lon="4.75569">
        <ele>168.90039</ele>
        <time>2026-05-13T12:21:16+02:00</time>
      </trkpt>
      <trkpt lat="46.0808" lon="4.75564">
        <ele>169</ele>
        <time>2026-05-13T12:21:17+02:00</time>
      </trkpt>
      <trkpt lat="46.08085" lon="4.7556">
        <ele>168.2998</ele>
        <time>2026-05-13T12:21:18+02:00</time>
      </trkpt>
      <trkpt lat="46.08089" lon="4.75556">
        <ele>168.5</ele>
        <time>2026-05-13T12:21:19+02:00</time>
      </trkpt>
      <trkpt lat="46.08093" lon="4.75551">
        <ele>168.2998</ele>
        <time>2026-05-13T12:21:20+02:00</time>
      </trkpt>
      <trkpt lat="46.08098" lon="4.75547">
        <ele>168.90039</ele>
        <time>2026-05-13T12:21:21+02:00</time>
      </trkpt>
      <trkpt lat="46.08103" lon="4.75542">
        <ele>169.10059</ele>
        <time>2026-05-13T12:21:22+02:00</time>
      </trkpt>
      <trkpt lat="46.08107" lon="4.75538">
        <ele>169.10059</ele>
        <time>2026-05-13T12:21:23+02:00</time>
      </trkpt>
      <trkpt lat="46.08111" lon="4.75533">
        <ele>169</ele>
        <time>2026-05-13T12:21:24+02:00</time>
      </trkpt>
      <trkpt lat="46.08116" lon="4.75529">
        <ele>169.60059</ele>
        <time>2026-05-13T12:21:25+02:00</time>
      </trkpt>
      <trkpt lat="46.0812" lon="4.75524">
        <ele>169.10059</ele>
        <time>2026-05-13T12:21:26+02:00</time>
      </trkpt>
      <trkpt lat="46.08124" lon="4.7552">
        <ele>169.7002</ele>
        <time>2026-05-13T12:21:27+02:00</time>
      </trkpt>
      <trkpt lat="46.08128" lon="4.75515">
        <ele>169.7998</ele>
        <time>2026-05-13T12:21:28+02:00</time>
      </trkpt>
      <trkpt lat="46.08133" lon="4.75511">
        <ele>170.2998</ele>
        <time>2026-05-13T12:21:29+02:00</time>
      </trkpt>
      <trkpt lat="46.08137" lon="4.75507">
        <ele>169.7002</ele>
        <time>2026-05-13T12:21:30+02:00</time>
      </trkpt>
      <trkpt lat="46.08141" lon="4.75502">
        <ele>170.2002</ele>
        <time>2026-05-13T12:21:31+02:00</time>
      </trkpt>
      <trkpt lat="46.08146" lon="4.75498">
        <ele>170.2002</ele>
        <time>2026-05-13T12:21:32+02:00</time>
      </trkpt>
      <trkpt lat="46.0815" lon="4.75494">
        <ele>170.2002</ele>
        <time>2026-05-13T12:21:33+02:00</time>
      </trkpt>
      <trkpt lat="46.08154" lon="4.7549">
        <ele>170.2998</ele>
        <time>2026-05-13T12:21:34+02:00</time>
      </trkpt>
      <trkpt lat="46.08159" lon="4.75485">
        <ele>170.7998</ele>
        <time>2026-05-13T12:21:35+02:00</time>
      </trkpt>
      <trkpt lat="46.08163" lon="4.75481">
        <ele>170.7002</ele>
        <time>2026-05-13T12:21:36+02:00</time>
      </trkpt>
      <trkpt lat="46.08167" lon="4.75476">
        <ele>170.10059</ele>
        <time>2026-05-13T12:21:37+02:00</time>
      </trkpt>
      <trkpt lat="46.08172" lon="4.75472">
        <ele>170.5</ele>
        <time>2026-05-13T12:21:38+02:00</time>
      </trkpt>
      <trkpt lat="46.08176" lon="4.75468">
        <ele>171</ele>
        <time>2026-05-13T12:21:39+02:00</time>
      </trkpt>
      <trkpt lat="46.0818" lon="4.75463">
        <ele>170.40039</ele>
        <time>2026-05-13T12:21:40+02:00</time>
      </trkpt>
      <trkpt lat="46.08185" lon="4.75458">
        <ele>170.2998</ele>
        <time>2026-05-13T12:21:41+02:00</time>
      </trkpt>
      <trkpt lat="46.08189" lon="4.75453">
        <ele>170.7002</ele>
        <time>2026-05-13T12:21:42+02:00</time>
      </trkpt>
      <trkpt lat="46.08193" lon="4.75447">
        <ele>170.40039</ele>
        <time>2026-05-13T12:21:43+02:00</time>
      </trkpt>
      <trkpt lat="46.08196" lon="4.75442">
        <ele>170.40039</ele>
        <time>2026-05-13T12:21:44+02:00</time>
      </trkpt>
      <trkpt lat="46.08201" lon="4.75436">
        <ele>170.10059</ele>
        <time>2026-05-13T12:21:45+02:00</time>
      </trkpt>
      <trkpt lat="46.08204" lon="4.75431">
        <ele>169.40039</ele>
        <time>2026-05-13T12:21:46+02:00</time>
      </trkpt>
      <trkpt lat="46.08207" lon="4.75425">
        <ele>169.90039</ele>
        <time>2026-05-13T12:21:47+02:00</time>
      </trkpt>
      <trkpt lat="46.08211" lon="4.7542">
        <ele>169.90039</ele>
        <time>2026-05-13T12:21:48+02:00</time>
      </trkpt>
      <trkpt lat="46.08215" lon="4.75414">
        <ele>169.5</ele>
        <time>2026-05-13T12:21:49+02:00</time>
      </trkpt>
      <trkpt lat="46.08219" lon="4.75408">
        <ele>170</ele>
        <time>2026-05-13T12:21:50+02:00</time>
      </trkpt>
      <trkpt lat="46.08223" lon="4.75402">
        <ele>169.90039</ele>
        <time>2026-05-13T12:21:51+02:00</time>
      </trkpt>
      <trkpt lat="46.08227" lon="4.75396">
        <ele>169.5</ele>
        <time>2026-05-13T12:21:52+02:00</time>
      </trkpt>
      <trkpt lat="46.0823" lon="4.7539">
        <ele>169.5</ele>
        <time>2026-05-13T12:21:53+02:00</time>
      </trkpt>
      <trkpt lat="46.08234" lon="4.75384">
        <ele>170.10059</ele>
        <time>2026-05-13T12:21:54+02:00</time>
      </trkpt>
      <trkpt lat="46.08238" lon="4.75378">
        <ele>169.7002</ele>
        <time>2026-05-13T12:21:55+02:00</time>
      </trkpt>
      <trkpt lat="46.08242" lon="4.75372">
        <ele>169.60059</ele>
        <time>2026-05-13T12:21:56+02:00</time>
      </trkpt>
      <trkpt lat="46.08246" lon="4.75366">
        <ele>169.60059</ele>
        <time>2026-05-13T12:21:57+02:00</time>
      </trkpt>
      <trkpt lat="46.0825" lon="4.7536">
        <ele>169.5</ele>
        <time>2026-05-13T12:21:58+02:00</time>
      </trkpt>
      <trkpt lat="46.08254" lon="4.75354">
        <ele>169.60059</ele>
        <time>2026-05-13T12:21:59+02:00</time>
      </trkpt>
      <trkpt lat="46.08259" lon="4.75349">
        <ele>170</ele>
        <time>2026-05-13T12:22:00+02:00</time>
      </trkpt>
      <trkpt lat="46.08264" lon="4.75344">
        <ele>169.90039</ele>
        <time>2026-05-13T12:22:01+02:00</time>
      </trkpt>
      <trkpt lat="46.08268" lon="4.75339">
        <ele>169.90039</ele>
        <time>2026-05-13T12:22:02+02:00</time>
      </trkpt>
      <trkpt lat="46.08274" lon="4.75335">
        <ele>169.40039</ele>
        <time>2026-05-13T12:22:03+02:00</time>
      </trkpt>
      <trkpt lat="46.0828" lon="4.7533">
        <ele>169</ele>
        <time>2026-05-13T12:22:04+02:00</time>
      </trkpt>
      <trkpt lat="46.08285" lon="4.75327">
        <ele>169.2002</ele>
        <time>2026-05-13T12:22:05+02:00</time>
      </trkpt>
      <trkpt lat="46.08291" lon="4.75323">
        <ele>169.2998</ele>
        <time>2026-05-13T12:22:06+02:00</time>
      </trkpt>
      <trkpt lat="46.08296" lon="4.75321">
        <ele>168.7998</ele>
        <time>2026-05-13T12:22:07+02:00</time>
      </trkpt>
      <trkpt lat="46.08302" lon="4.75318">
        <ele>169</ele>
        <time>2026-05-13T12:22:08+02:00</time>
      </trkpt>
      <trkpt lat="46.08308" lon="4.75317">
        <ele>169.2002</ele>
        <time>2026-05-13T12:22:09+02:00</time>
      </trkpt>
      <trkpt lat="46.08314" lon="4.75316">
        <ele>169.5</ele>
        <time>2026-05-13T12:22:10+02:00</time>
      </trkpt>
      <trkpt lat="46.08319" lon="4.75314">
        <ele>169.90039</ele>
        <time>2026-05-13T12:22:11+02:00</time>
      </trkpt>
      <trkpt lat="46.08325" lon="4.75313">
        <ele>169.60059</ele>
        <time>2026-05-13T12:22:12+02:00</time>
      </trkpt>
      <trkpt lat="46.0833" lon="4.75312">
        <ele>169.90039</ele>
        <time>2026-05-13T12:22:13+02:00</time>
      </trkpt>
      <trkpt lat="46.08336" lon="4.7531">
        <ele>170.2998</ele>
        <time>2026-05-13T12:22:14+02:00</time>
      </trkpt>
      <trkpt lat="46.08341" lon="4.75309">
        <ele>170.2998</ele>
        <time>2026-05-13T12:22:15+02:00</time>
      </trkpt>
      <trkpt lat="46.08347" lon="4.75308">
        <ele>170.7002</ele>
        <time>2026-05-13T12:22:16+02:00</time>
      </trkpt>
      <trkpt lat="46.08353" lon="4.75308">
        <ele>171.2002</ele>
        <time>2026-05-13T12:22:17+02:00</time>
      </trkpt>
      <trkpt lat="46.08359" lon="4.75308">
        <ele>172.60059</ele>
        <time>2026-05-13T12:22:18+02:00</time>
      </trkpt>
      <trkpt lat="46.08365" lon="4.75307">
        <ele>172.60059</ele>
        <time>2026-05-13T12:22:19+02:00</time>
      </trkpt>
      <trkpt lat="46.08371" lon="4.75307">
        <ele>174</ele>
        <time>2026-05-13T12:22:20+02:00</time>
      </trkpt>
      <trkpt lat="46.08377" lon="4.75306">
        <ele>174.5</ele>
        <time>2026-05-13T12:22:21+02:00</time>
      </trkpt>
      <trkpt lat="46.08383" lon="4.75306">
        <ele>174.90039</ele>
        <time>2026-05-13T12:22:22+02:00</time>
      </trkpt>
      <trkpt lat="46.08388" lon="4.75306">
        <ele>174.90039</ele>
        <time>2026-05-13T12:22:23+02:00</time>
      </trkpt>
      <trkpt lat="46.08394" lon="4.75305">
        <ele>175.40039</ele>
        <time>2026-05-13T12:22:24+02:00</time>
      </trkpt>
      <trkpt lat="46.084" lon="4.75305">
        <ele>175.7002</ele>
        <time>2026-05-13T12:22:25+02:00</time>
      </trkpt>
      <trkpt lat="46.08405" lon="4.75304">
        <ele>173.5</ele>
        <time>2026-05-13T12:22:26+02:00</time>
      </trkpt>
      <trkpt lat="46.08411" lon="4.75303">
        <ele>173.7998</ele>
        <time>2026-05-13T12:22:27+02:00</time>
      </trkpt>
      <trkpt lat="46.08417" lon="4.75302">
        <ele>174</ele>
        <time>2026-05-13T12:22:28+02:00</time>
      </trkpt>
      <trkpt lat="46.08423" lon="4.75302">
        <ele>174.2002</ele>
        <time>2026-05-13T12:22:29+02:00</time>
      </trkpt>
      <trkpt lat="46.08429" lon="4.75301">
        <ele>174.40039</ele>
        <time>2026-05-13T12:22:30+02:00</time>
      </trkpt>
      <trkpt lat="46.08434" lon="4.75301">
        <ele>174.60059</ele>
        <time>2026-05-13T12:22:31+02:00</time>
      </trkpt>
      <trkpt lat="46.0844" lon="4.753">
        <ele>174.7002</ele>
        <time>2026-05-13T12:22:32+02:00</time>
      </trkpt>
      <trkpt lat="46.08445" lon="4.753">
        <ele>174.7998</ele>
        <time>2026-05-13T12:22:33+02:00</time>
      </trkpt>
      <trkpt lat="46.08451" lon="4.75299">
        <ele>175</ele>
        <time>2026-05-13T12:22:34+02:00</time>
      </trkpt>
      <trkpt lat="46.08457" lon="4.75299">
        <ele>175.10059</ele>
        <time>2026-05-13T12:22:35+02:00</time>
      </trkpt>
      <trkpt lat="46.08462" lon="4.75298">
        <ele>175.2002</ele>
        <time>2026-05-13T12:22:36+02:00</time>
      </trkpt>
      <trkpt lat="46.08468" lon="4.75298">
        <ele>175.2998</ele>
        <time>2026-05-13T12:22:37+02:00</time>
      </trkpt>
      <trkpt lat="46.08473" lon="4.75298">
        <ele>175.40039</ele>
        <time>2026-05-13T12:22:38+02:00</time>
      </trkpt>
      <trkpt lat="46.08479" lon="4.75297">
        <ele>175.40039</ele>
        <time>2026-05-13T12:22:39+02:00</time>
      </trkpt>
      <trkpt lat="46.08484" lon="4.75296">
        <ele>172.90039</ele>
        <time>2026-05-13T12:22:40+02:00</time>
      </trkpt>
      <trkpt lat="46.0849" lon="4.75296">
        <ele>172.7002</ele>
        <time>2026-05-13T12:22:41+02:00</time>
      </trkpt>
      <trkpt lat="46.08495" lon="4.75296">
        <ele>172.5</ele>
        <time>2026-05-13T12:22:42+02:00</time>
      </trkpt>
      <trkpt lat="46.08502" lon="4.75296">
        <ele>172.2002</ele>
        <time>2026-05-13T12:22:43+02:00</time>
      </trkpt>
      <trkpt lat="46.08508" lon="4.75296">
        <ele>171.5</ele>
        <time>2026-05-13T12:22:44+02:00</time>
      </trkpt>
      <trkpt lat="46.08513" lon="4.75295">
        <ele>171.5</ele>
        <time>2026-05-13T12:22:45+02:00</time>
      </trkpt>
      <trkpt lat="46.08519" lon="4.75295">
        <ele>171</ele>
        <time>2026-05-13T12:22:46+02:00</time>
      </trkpt>
      <trkpt lat="46.08524" lon="4.75296">
        <ele>170.5</ele>
        <time>2026-05-13T12:22:47+02:00</time>
      </trkpt>
      <trkpt lat="46.0853" lon="4.75296">
        <ele>170.10059</ele>
        <time>2026-05-13T12:22:48+02:00</time>
      </trkpt>
      <trkpt lat="46.08535" lon="4.75297">
        <ele>170.2998</ele>
        <time>2026-05-13T12:22:49+02:00</time>
      </trkpt>
      <trkpt lat="46.0854" lon="4.75298">
        <ele>170.10059</ele>
        <time>2026-05-13T12:22:50+02:00</time>
      </trkpt>
      <trkpt lat="46.08545" lon="4.75298">
        <ele>169.90039</ele>
        <time>2026-05-13T12:22:51+02:00</time>
      </trkpt>
      <trkpt lat="46.0855" lon="4.75299">
        <ele>169.7998</ele>
        <time>2026-05-13T12:22:52+02:00</time>
      </trkpt>
      <trkpt lat="46.08556" lon="4.753">
        <ele>169.60059</ele>
        <time>2026-05-13T12:22:53+02:00</time>
      </trkpt>
      <trkpt lat="46.08561" lon="4.75301">
        <ele>169.60059</ele>
        <time>2026-05-13T12:22:54+02:00</time>
      </trkpt>
      <trkpt lat="46.08566" lon="4.75301">
        <ele>169.40039</ele>
        <time>2026-05-13T12:22:55+02:00</time>
      </trkpt>
      <trkpt lat="46.08571" lon="4.75302">
        <ele>169.40039</ele>
        <time>2026-05-13T12:22:56+02:00</time>
      </trkpt>
      <trkpt lat="46.08577" lon="4.75303">
        <ele>169.5</ele>
        <time>2026-05-13T12:22:57+02:00</time>
      </trkpt>
      <trkpt lat="46.08582" lon="4.75303">
        <ele>170.10059</ele>
        <time>2026-05-13T12:22:58+02:00</time>
      </trkpt>
      <trkpt lat="46.08588" lon="4.75303">
        <ele>171</ele>
        <time>2026-05-13T12:22:59+02:00</time>
      </trkpt>
      <trkpt lat="46.08593" lon="4.75304">
        <ele>171.60059</ele>
        <time>2026-05-13T12:23:00+02:00</time>
      </trkpt>
      <trkpt lat="46.08599" lon="4.75304">
        <ele>171.60059</ele>
        <time>2026-05-13T12:23:01+02:00</time>
      </trkpt>
      <trkpt lat="46.08605" lon="4.75305">
        <ele>173.2002</ele>
        <time>2026-05-13T12:23:02+02:00</time>
      </trkpt>
      <trkpt lat="46.0861" lon="4.75305">
        <ele>173.2002</ele>
        <time>2026-05-13T12:23:03+02:00</time>
      </trkpt>
      <trkpt lat="46.08616" lon="4.75306">
        <ele>173.2002</ele>
        <time>2026-05-13T12:23:04+02:00</time>
      </trkpt>
      <trkpt lat="46.08622" lon="4.75307">
        <ele>173.2002</ele>
        <time>2026-05-13T12:23:05+02:00</time>
      </trkpt>
      <trkpt lat="46.08628" lon="4.75309">
        <ele>173.10059</ele>
        <time>2026-05-13T12:23:06+02:00</time>
      </trkpt>
      <trkpt lat="46.08634" lon="4.7531">
        <ele>173.10059</ele>
        <time>2026-05-13T12:23:07+02:00</time>
      </trkpt>
      <trkpt lat="46.0864" lon="4.75311">
        <ele>173.10059</ele>
        <time>2026-05-13T12:23:08+02:00</time>
      </trkpt>
      <trkpt lat="46.08646" lon="4.75312">
        <ele>173.2002</ele>
        <time>2026-05-13T12:23:09+02:00</time>
      </trkpt>
      <trkpt lat="46.08652" lon="4.75313">
        <ele>173.2002</ele>
        <time>2026-05-13T12:23:10+02:00</time>
      </trkpt>
      <trkpt lat="46.08658" lon="4.75314">
        <ele>175.7002</ele>
        <time>2026-05-13T12:23:11+02:00</time>
      </trkpt>
      <trkpt lat="46.08664" lon="4.75315">
        <ele>175.60059</ele>
        <time>2026-05-13T12:23:12+02:00</time>
      </trkpt>
      <trkpt lat="46.08671" lon="4.75316">
        <ele>175.5</ele>
        <time>2026-05-13T12:23:13+02:00</time>
      </trkpt>
      <trkpt lat="46.08677" lon="4.75317">
        <ele>175.2998</ele>
        <time>2026-05-13T12:23:14+02:00</time>
      </trkpt>
      <trkpt lat="46.08683" lon="4.75318">
        <ele>175.10059</ele>
        <time>2026-05-13T12:23:15+02:00</time>
      </trkpt>
      <trkpt lat="46.08689" lon="4.7532">
        <ele>174.90039</ele>
        <time>2026-05-13T12:23:16+02:00</time>
      </trkpt>
      <trkpt lat="46.08695" lon="4.75321">
        <ele>174.7998</ele>
        <time>2026-05-13T12:23:17+02:00</time>
      </trkpt>
      <trkpt lat="46.08701" lon="4.75323">
        <ele>176.10059</ele>
        <time>2026-05-13T12:23:18+02:00</time>
      </trkpt>
      <trkpt lat="46.08708" lon="4.75325">
        <ele>175.7002</ele>
        <time>2026-05-13T12:23:19+02:00</time>
      </trkpt>
      <trkpt lat="46.08714" lon="4.75327">
        <ele>174.90039</ele>
        <time>2026-05-13T12:23:20+02:00</time>
      </trkpt>
      <trkpt lat="46.0872" lon="4.75329">
        <ele>173.5</ele>
        <time>2026-05-13T12:23:21+02:00</time>
      </trkpt>
      <trkpt lat="46.08726" lon="4.75331">
        <ele>172.7998</ele>
        <time>2026-05-13T12:23:22+02:00</time>
      </trkpt>
      <trkpt lat="46.08732" lon="4.75333">
        <ele>171.7002</ele>
        <time>2026-05-13T12:23:23+02:00</time>
      </trkpt>
      <trkpt lat="46.08738" lon="4.75335">
        <ele>171.5</ele>
        <time>2026-05-13T12:23:24+02:00</time>
      </trkpt>
      <trkpt lat="46.08745" lon="4.75337">
        <ele>171.5</ele>
        <time>2026-05-13T12:23:25+02:00</time>
      </trkpt>
      <trkpt lat="46.08751" lon="4.7534">
        <ele>172.60059</ele>
        <time>2026-05-13T12:23:26+02:00</time>
      </trkpt>
      <trkpt lat="46.08758" lon="4.75341">
        <ele>172.2002</ele>
        <time>2026-05-13T12:23:27+02:00</time>
      </trkpt>
      <trkpt lat="46.08765" lon="4.75343">
        <ele>172</ele>
        <time>2026-05-13T12:23:28+02:00</time>
      </trkpt>
      <trkpt lat="46.08771" lon="4.75345">
        <ele>171.7998</ele>
        <time>2026-05-13T12:23:29+02:00</time>
      </trkpt>
      <trkpt lat="46.08778" lon="4.75347">
        <ele>171.5</ele>
        <time>2026-05-13T12:23:30+02:00</time>
      </trkpt>
      <trkpt lat="46.08784" lon="4.75349">
        <ele>172.10059</ele>
        <time>2026-05-13T12:23:31+02:00</time>
      </trkpt>
      <trkpt lat="46.08791" lon="4.75351">
        <ele>171.7998</ele>
        <time>2026-05-13T12:23:32+02:00</time>
      </trkpt>
      <trkpt lat="46.08797" lon="4.75353">
        <ele>171.60059</ele>
        <time>2026-05-13T12:23:33+02:00</time>
      </trkpt>
      <trkpt lat="46.08803" lon="4.75354">
        <ele>171.2998</ele>
        <time>2026-05-13T12:23:34+02:00</time>
      </trkpt>
      <trkpt lat="46.08809" lon="4.75356">
        <ele>171.10059</ele>
        <time>2026-05-13T12:23:35+02:00</time>
      </trkpt>
      <trkpt lat="46.08815" lon="4.75357">
        <ele>171.5</ele>
        <time>2026-05-13T12:23:36+02:00</time>
      </trkpt>
      <trkpt lat="46.08821" lon="4.75359">
        <ele>171.2998</ele>
        <time>2026-05-13T12:23:37+02:00</time>
      </trkpt>
      <trkpt lat="46.08827" lon="4.75361">
        <ele>171.10059</ele>
        <time>2026-05-13T12:23:38+02:00</time>
      </trkpt>
      <trkpt lat="46.08833" lon="4.75363">
        <ele>170.7998</ele>
        <time>2026-05-13T12:23:39+02:00</time>
      </trkpt>
      <trkpt lat="46.08839" lon="4.75365">
        <ele>171.40039</ele>
        <time>2026-05-13T12:23:40+02:00</time>
      </trkpt>
      <trkpt lat="46.08845" lon="4.75368">
        <ele>171.10059</ele>
        <time>2026-05-13T12:23:41+02:00</time>
      </trkpt>
      <trkpt lat="46.08851" lon="4.7537">
        <ele>170.7998</ele>
        <time>2026-05-13T12:23:42+02:00</time>
      </trkpt>
      <trkpt lat="46.08858" lon="4.75372">
        <ele>170.60059</ele>
        <time>2026-05-13T12:23:43+02:00</time>
      </trkpt>
      <trkpt lat="46.08864" lon="4.75375">
        <ele>171</ele>
        <time>2026-05-13T12:23:44+02:00</time>
      </trkpt>
      <trkpt lat="46.0887" lon="4.75378">
        <ele>170.7998</ele>
        <time>2026-05-13T12:23:45+02:00</time>
      </trkpt>
      <trkpt lat="46.08876" lon="4.75381">
        <ele>170.60059</ele>
        <time>2026-05-13T12:23:46+02:00</time>
      </trkpt>
      <trkpt lat="46.08882" lon="4.75384">
        <ele>171.2002</ele>
        <time>2026-05-13T12:23:47+02:00</time>
      </trkpt>
      <trkpt lat="46.08888" lon="4.75387">
        <ele>171.10059</ele>
        <time>2026-05-13T12:23:48+02:00</time>
      </trkpt>
      <trkpt lat="46.08893" lon="4.75389">
        <ele>171</ele>
        <time>2026-05-13T12:23:49+02:00</time>
      </trkpt>
      <trkpt lat="46.08899" lon="4.75393">
        <ele>171.7998</ele>
        <time>2026-05-13T12:23:50+02:00</time>
      </trkpt>
      <trkpt lat="46.08905" lon="4.75396">
        <ele>171.90039</ele>
        <time>2026-05-13T12:23:51+02:00</time>
      </trkpt>
      <trkpt lat="46.08911" lon="4.75399">
        <ele>171.7998</ele>
        <time>2026-05-13T12:23:52+02:00</time>
      </trkpt>
      <trkpt lat="46.08917" lon="4.75402">
        <ele>172.5</ele>
        <time>2026-05-13T12:23:53+02:00</time>
      </trkpt>
      <trkpt lat="46.08922" lon="4.75404">
        <ele>172.2998</ele>
        <time>2026-05-13T12:23:54+02:00</time>
      </trkpt>
      <trkpt lat="46.08928" lon="4.75407">
        <ele>171.7998</ele>
        <time>2026-05-13T12:23:55+02:00</time>
      </trkpt>
      <trkpt lat="46.08934" lon="4.7541">
        <ele>172.10059</ele>
        <time>2026-05-13T12:23:56+02:00</time>
      </trkpt>
      <trkpt lat="46.0894" lon="4.75412">
        <ele>171.90039</ele>
        <time>2026-05-13T12:23:57+02:00</time>
      </trkpt>
      <trkpt lat="46.08946" lon="4.75415">
        <ele>171.7998</ele>
        <time>2026-05-13T12:23:58+02:00</time>
      </trkpt>
      <trkpt lat="46.08952" lon="4.75418">
        <ele>173</ele>
        <time>2026-05-13T12:23:59+02:00</time>
      </trkpt>
      <trkpt lat="46.08957" lon="4.7542">
        <ele>173</ele>
        <time>2026-05-13T12:24:00+02:00</time>
      </trkpt>
      <trkpt lat="46.08963" lon="4.75423">
        <ele>173.10059</ele>
        <time>2026-05-13T12:24:01+02:00</time>
      </trkpt>
      <trkpt lat="46.08968" lon="4.75425">
        <ele>174</ele>
        <time>2026-05-13T12:24:02+02:00</time>
      </trkpt>
      <trkpt lat="46.08975" lon="4.75427">
        <ele>174.10059</ele>
        <time>2026-05-13T12:24:03+02:00</time>
      </trkpt>
      <trkpt lat="46.0898" lon="4.7543">
        <ele>174</ele>
        <time>2026-05-13T12:24:04+02:00</time>
      </trkpt>
      <trkpt lat="46.08986" lon="4.75432">
        <ele>173.90039</ele>
        <time>2026-05-13T12:24:05+02:00</time>
      </trkpt>
      <trkpt lat="46.08992" lon="4.75434">
        <ele>174.2002</ele>
        <time>2026-05-13T12:24:06+02:00</time>
      </trkpt>
      <trkpt lat="46.08997" lon="4.75436">
        <ele>173.90039</ele>
        <time>2026-05-13T12:24:07+02:00</time>
      </trkpt>
      <trkpt lat="46.09003" lon="4.75439">
        <ele>173.60059</ele>
        <time>2026-05-13T12:24:08+02:00</time>
      </trkpt>
      <trkpt lat="46.09009" lon="4.75441">
        <ele>173.2002</ele>
        <time>2026-05-13T12:24:09+02:00</time>
      </trkpt>
      <trkpt lat="46.09015" lon="4.75443">
        <ele>173.5</ele>
        <time>2026-05-13T12:24:10+02:00</time>
      </trkpt>
      <trkpt lat="46.09021" lon="4.75446">
        <ele>173.2002</ele>
        <time>2026-05-13T12:24:11+02:00</time>
      </trkpt>
      <trkpt lat="46.09027" lon="4.75448">
        <ele>173</ele>
        <time>2026-05-13T12:24:12+02:00</time>
      </trkpt>
      <trkpt lat="46.09033" lon="4.7545">
        <ele>173.10059</ele>
        <time>2026-05-13T12:24:13+02:00</time>
      </trkpt>
      <trkpt lat="46.09038" lon="4.75453">
        <ele>173.90039</ele>
        <time>2026-05-13T12:24:14+02:00</time>
      </trkpt>
      <trkpt lat="46.09044" lon="4.75455">
        <ele>174</ele>
        <time>2026-05-13T12:24:15+02:00</time>
      </trkpt>
      <trkpt lat="46.0905" lon="4.75457">
        <ele>174</ele>
        <time>2026-05-13T12:24:16+02:00</time>
      </trkpt>
      <trkpt lat="46.09056" lon="4.75459">
        <ele>174.10059</ele>
        <time>2026-05-13T12:24:17+02:00</time>
      </trkpt>
      <trkpt lat="46.09062" lon="4.75462">
        <ele>174.7002</ele>
        <time>2026-05-13T12:24:18+02:00</time>
      </trkpt>
      <trkpt lat="46.09068" lon="4.75464">
        <ele>174.7998</ele>
        <time>2026-05-13T12:24:19+02:00</time>
      </trkpt>
      <trkpt lat="46.09075" lon="4.75466">
        <ele>174.7002</ele>
        <time>2026-05-13T12:24:20+02:00</time>
      </trkpt>
      <trkpt lat="46.0908" lon="4.75468">
        <ele>174.5</ele>
        <time>2026-05-13T12:24:21+02:00</time>
      </trkpt>
      <trkpt lat="46.09086" lon="4.7547">
        <ele>174.2998</ele>
        <time>2026-05-13T12:24:22+02:00</time>
      </trkpt>
      <trkpt lat="46.09092" lon="4.75473">
        <ele>174</ele>
        <time>2026-05-13T12:24:23+02:00</time>
      </trkpt>
      <trkpt lat="46.09098" lon="4.75475">
        <ele>173.90039</ele>
        <time>2026-05-13T12:24:24+02:00</time>
      </trkpt>
      <trkpt lat="46.09104" lon="4.75477">
        <ele>175</ele>
        <time>2026-05-13T12:24:25+02:00</time>
      </trkpt>
      <trkpt lat="46.09109" lon="4.75479">
        <ele>175.2998</ele>
        <time>2026-05-13T12:24:26+02:00</time>
      </trkpt>
      <trkpt lat="46.09115" lon="4.75482">
        <ele>175.2998</ele>
        <time>2026-05-13T12:24:27+02:00</time>
      </trkpt>
      <trkpt lat="46.09121" lon="4.75485">
        <ele>175.90039</ele>
        <time>2026-05-13T12:24:28+02:00</time>
      </trkpt>
      <trkpt lat="46.09126" lon="4.75487">
        <ele>176</ele>
        <time>2026-05-13T12:24:29+02:00</time>
      </trkpt>
      <trkpt lat="46.09133" lon="4.7549">
        <ele>176.40039</ele>
        <time>2026-05-13T12:24:30+02:00</time>
      </trkpt>
      <trkpt lat="46.09138" lon="4.75492">
        <ele>176.40039</ele>
        <time>2026-05-13T12:24:31+02:00</time>
      </trkpt>
      <trkpt lat="46.09145" lon="4.75494">
        <ele>176.2998</ele>
        <time>2026-05-13T12:24:32+02:00</time>
      </trkpt>
      <trkpt lat="46.09151" lon="4.75497">
        <ele>176.2998</ele>
        <time>2026-05-13T12:24:33+02:00</time>
      </trkpt>
      <trkpt lat="46.09157" lon="4.755">
        <ele>176.2002</ele>
        <time>2026-05-13T12:24:34+02:00</time>
      </trkpt>
      <trkpt lat="46.09163" lon="4.75502">
        <ele>175.90039</ele>
        <time>2026-05-13T12:24:35+02:00</time>
      </trkpt>
      <trkpt lat="46.0917" lon="4.75505">
        <ele>175.7998</ele>
        <time>2026-05-13T12:24:36+02:00</time>
      </trkpt>
      <trkpt lat="46.09176" lon="4.75507">
        <ele>175.60059</ele>
        <time>2026-05-13T12:24:37+02:00</time>
      </trkpt>
      <trkpt lat="46.09182" lon="4.7551">
        <ele>175.40039</ele>
        <time>2026-05-13T12:24:38+02:00</time>
      </trkpt>
      <trkpt lat="46.09188" lon="4.75512">
        <ele>175.7998</ele>
        <time>2026-05-13T12:24:39+02:00</time>
      </trkpt>
      <trkpt lat="46.09194" lon="4.75515">
        <ele>175.60059</ele>
        <time>2026-05-13T12:24:40+02:00</time>
      </trkpt>
      <trkpt lat="46.092" lon="4.75518">
        <ele>175.10059</ele>
        <time>2026-05-13T12:24:41+02:00</time>
      </trkpt>
      <trkpt lat="46.09207" lon="4.7552">
        <ele>175</ele>
        <time>2026-05-13T12:24:42+02:00</time>
      </trkpt>
      <trkpt lat="46.09213" lon="4.75523">
        <ele>174.40039</ele>
        <time>2026-05-13T12:24:43+02:00</time>
      </trkpt>
      <trkpt lat="46.09219" lon="4.75526">
        <ele>173.7002</ele>
        <time>2026-05-13T12:24:44+02:00</time>
      </trkpt>
      <trkpt lat="46.09226" lon="4.75528">
        <ele>173.7998</ele>
        <time>2026-05-13T12:24:45+02:00</time>
      </trkpt>
      <trkpt lat="46.09232" lon="4.7553">
        <ele>173.2002</ele>
        <time>2026-05-13T12:24:46+02:00</time>
      </trkpt>
      <trkpt lat="46.09238" lon="4.75533">
        <ele>172.5</ele>
        <time>2026-05-13T12:24:47+02:00</time>
      </trkpt>
      <trkpt lat="46.09244" lon="4.75536">
        <ele>171.90039</ele>
        <time>2026-05-13T12:24:48+02:00</time>
      </trkpt>
      <trkpt lat="46.0925" lon="4.75539">
        <ele>171.90039</ele>
        <time>2026-05-13T12:24:49+02:00</time>
      </trkpt>
      <trkpt lat="46.09256" lon="4.75542">
        <ele>171.10059</ele>
        <time>2026-05-13T12:24:50+02:00</time>
      </trkpt>
      <trkpt lat="46.09263" lon="4.75544">
        <ele>170.40039</ele>
        <time>2026-05-13T12:24:51+02:00</time>
      </trkpt>
      <trkpt lat="46.09269" lon="4.75547">
        <ele>170.90039</ele>
        <time>2026-05-13T12:24:52+02:00</time>
      </trkpt>
      <trkpt lat="46.09275" lon="4.7555">
        <ele>170.40039</ele>
        <time>2026-05-13T12:24:53+02:00</time>
      </trkpt>
      <trkpt lat="46.09281" lon="4.75553">
        <ele>169.90039</ele>
        <time>2026-05-13T12:24:54+02:00</time>
      </trkpt>
      <trkpt lat="46.09287" lon="4.75556">
        <ele>170.5</ele>
        <time>2026-05-13T12:24:55+02:00</time>
      </trkpt>
      <trkpt lat="46.09293" lon="4.75559">
        <ele>170</ele>
        <time>2026-05-13T12:24:56+02:00</time>
      </trkpt>
      <trkpt lat="46.09298" lon="4.75561">
        <ele>169.7002</ele>
        <time>2026-05-13T12:24:57+02:00</time>
      </trkpt>
      <trkpt lat="46.09305" lon="4.75564">
        <ele>170</ele>
        <time>2026-05-13T12:24:58+02:00</time>
      </trkpt>
      <trkpt lat="46.09311" lon="4.75567">
        <ele>169.7002</ele>
        <time>2026-05-13T12:24:59+02:00</time>
      </trkpt>
      <trkpt lat="46.09317" lon="4.7557">
        <ele>169.40039</ele>
        <time>2026-05-13T12:25:00+02:00</time>
      </trkpt>
      <trkpt lat="46.09323" lon="4.75573">
        <ele>170.7002</ele>
        <time>2026-05-13T12:25:01+02:00</time>
      </trkpt>
      <trkpt lat="46.09329" lon="4.75576">
        <ele>170.7002</ele>
        <time>2026-05-13T12:25:02+02:00</time>
      </trkpt>
      <trkpt lat="46.09336" lon="4.7558">
        <ele>172</ele>
        <time>2026-05-13T12:25:03+02:00</time>
      </trkpt>
      <trkpt lat="46.09342" lon="4.75583">
        <ele>171.90039</ele>
        <time>2026-05-13T12:25:04+02:00</time>
      </trkpt>
      <trkpt lat="46.09348" lon="4.75586">
        <ele>171.7998</ele>
        <time>2026-05-13T12:25:05+02:00</time>
      </trkpt>
      <trkpt lat="46.09355" lon="4.7559">
        <ele>172.2998</ele>
        <time>2026-05-13T12:25:06+02:00</time>
      </trkpt>
      <trkpt lat="46.09361" lon="4.75593">
        <ele>171.60059</ele>
        <time>2026-05-13T12:25:07+02:00</time>
      </trkpt>
      <trkpt lat="46.09368" lon="4.75596">
        <ele>170.7998</ele>
        <time>2026-05-13T12:25:08+02:00</time>
      </trkpt>
      <trkpt lat="46.09374" lon="4.75599">
        <ele>171.7998</ele>
        <time>2026-05-13T12:25:09+02:00</time>
      </trkpt>
      <trkpt lat="46.0938" lon="4.75603">
        <ele>171.5</ele>
        <time>2026-05-13T12:25:10+02:00</time>
      </trkpt>
      <trkpt lat="46.09387" lon="4.75606">
        <ele>172.7002</ele>
        <time>2026-05-13T12:25:11+02:00</time>
      </trkpt>
      <trkpt lat="46.09393" lon="4.7561">
        <ele>171.90039</ele>
        <time>2026-05-13T12:25:12+02:00</time>
      </trkpt>
      <trkpt lat="46.09399" lon="4.75613">
        <ele>171.10059</ele>
        <time>2026-05-13T12:25:13+02:00</time>
      </trkpt>
      <trkpt lat="46.09405" lon="4.75616">
        <ele>171.10059</ele>
        <time>2026-05-13T12:25:14+02:00</time>
      </trkpt>
      <trkpt lat="46.09412" lon="4.75619">
        <ele>170.2998</ele>
        <time>2026-05-13T12:25:15+02:00</time>
      </trkpt>
      <trkpt lat="46.09418" lon="4.75623">
        <ele>171.10059</ele>
        <time>2026-05-13T12:25:16+02:00</time>
      </trkpt>
      <trkpt lat="46.09424" lon="4.75627">
        <ele>170.7002</ele>
        <time>2026-05-13T12:25:17+02:00</time>
      </trkpt>
      <trkpt lat="46.0943" lon="4.7563">
        <ele>170.60059</ele>
        <time>2026-05-13T12:25:18+02:00</time>
      </trkpt>
      <trkpt lat="46.09437" lon="4.75634">
        <ele>171.7998</ele>
        <time>2026-05-13T12:25:19+02:00</time>
      </trkpt>
      <trkpt lat="46.09443" lon="4.75637">
        <ele>171.40039</ele>
        <time>2026-05-13T12:25:20+02:00</time>
      </trkpt>
      <trkpt lat="46.09449" lon="4.75641">
        <ele>171.5</ele>
        <time>2026-05-13T12:25:21+02:00</time>
      </trkpt>
      <trkpt lat="46.09455" lon="4.75644">
        <ele>170.5</ele>
        <time>2026-05-13T12:25:22+02:00</time>
      </trkpt>
      <trkpt lat="46.09461" lon="4.75648">
        <ele>170.2998</ele>
        <time>2026-05-13T12:25:23+02:00</time>
      </trkpt>
      <trkpt lat="46.09467" lon="4.75651">
        <ele>169.60059</ele>
        <time>2026-05-13T12:25:24+02:00</time>
      </trkpt>
      <trkpt lat="46.09473" lon="4.75654">
        <ele>169.5</ele>
        <time>2026-05-13T12:25:25+02:00</time>
      </trkpt>
      <trkpt lat="46.09479" lon="4.75658">
        <ele>170.5</ele>
        <time>2026-05-13T12:25:26+02:00</time>
      </trkpt>
      <trkpt lat="46.09485" lon="4.75661">
        <ele>170.2998</ele>
        <time>2026-05-13T12:25:27+02:00</time>
      </trkpt>
      <trkpt lat="46.09491" lon="4.75665">
        <ele>170</ele>
        <time>2026-05-13T12:25:28+02:00</time>
      </trkpt>
      <trkpt lat="46.09498" lon="4.75668">
        <ele>169.90039</ele>
        <time>2026-05-13T12:25:29+02:00</time>
      </trkpt>
      <trkpt lat="46.09504" lon="4.75671">
        <ele>169.2998</ele>
        <time>2026-05-13T12:25:30+02:00</time>
      </trkpt>
      <trkpt lat="46.0951" lon="4.75675">
        <ele>169</ele>
        <time>2026-05-13T12:25:31+02:00</time>
      </trkpt>
      <trkpt lat="46.09516" lon="4.75679">
        <ele>168.60059</ele>
        <time>2026-05-13T12:25:32+02:00</time>
      </trkpt>
      <trkpt lat="46.09522" lon="4.75682">
        <ele>168.5</ele>
        <time>2026-05-13T12:25:33+02:00</time>
      </trkpt>
      <trkpt lat="46.09528" lon="4.75685">
        <ele>168.5</ele>
        <time>2026-05-13T12:25:34+02:00</time>
      </trkpt>
      <trkpt lat="46.09534" lon="4.75689">
        <ele>168.40039</ele>
        <time>2026-05-13T12:25:35+02:00</time>
      </trkpt>
      <trkpt lat="46.0954" lon="4.75693">
        <ele>168.2998</ele>
        <time>2026-05-13T12:25:36+02:00</time>
      </trkpt>
      <trkpt lat="46.09546" lon="4.75696">
        <ele>168.2002</ele>
        <time>2026-05-13T12:25:37+02:00</time>
      </trkpt>
      <trkpt lat="46.09553" lon="4.75699">
        <ele>168.10059</ele>
        <time>2026-05-13T12:25:38+02:00</time>
      </trkpt>
      <trkpt lat="46.09559" lon="4.75703">
        <ele>168.10059</ele>
        <time>2026-05-13T12:25:39+02:00</time>
      </trkpt>
      <trkpt lat="46.09565" lon="4.75706">
        <ele>168.10059</ele>
        <time>2026-05-13T12:25:40+02:00</time>
      </trkpt>
      <trkpt lat="46.0957" lon="4.7571">
        <ele>168.2002</ele>
        <time>2026-05-13T12:25:41+02:00</time>
      </trkpt>
      <trkpt lat="46.09577" lon="4.75714">
        <ele>168.2002</ele>
        <time>2026-05-13T12:25:42+02:00</time>
      </trkpt>
      <trkpt lat="46.09582" lon="4.75718">
        <ele>168.2998</ele>
        <time>2026-05-13T12:25:43+02:00</time>
      </trkpt>
      <trkpt lat="46.09588" lon="4.75721">
        <ele>168.2998</ele>
        <time>2026-05-13T12:25:44+02:00</time>
      </trkpt>
      <trkpt lat="46.09594" lon="4.75725">
        <ele>168.2998</ele>
        <time>2026-05-13T12:25:45+02:00</time>
      </trkpt>
      <trkpt lat="46.096" lon="4.75729">
        <ele>168.40039</ele>
        <time>2026-05-13T12:25:46+02:00</time>
      </trkpt>
      <trkpt lat="46.09606" lon="4.75733">
        <ele>168.40039</ele>
        <time>2026-05-13T12:25:47+02:00</time>
      </trkpt>
      <trkpt lat="46.09612" lon="4.75737">
        <ele>168.90039</ele>
        <time>2026-05-13T12:25:48+02:00</time>
      </trkpt>
      <trkpt lat="46.09619" lon="4.75741">
        <ele>169</ele>
        <time>2026-05-13T12:25:49+02:00</time>
      </trkpt>
      <trkpt lat="46.09625" lon="4.75746">
        <ele>169.7002</ele>
        <time>2026-05-13T12:25:50+02:00</time>
      </trkpt>
      <trkpt lat="46.09631" lon="4.7575">
        <ele>169.7002</ele>
        <time>2026-05-13T12:25:51+02:00</time>
      </trkpt>
      <trkpt lat="46.09637" lon="4.75755">
        <ele>170</ele>
        <time>2026-05-13T12:25:52+02:00</time>
      </trkpt>
      <trkpt lat="46.09643" lon="4.75759">
        <ele>169.60059</ele>
        <time>2026-05-13T12:25:53+02:00</time>
      </trkpt>
      <trkpt lat="46.09649" lon="4.75763">
        <ele>169.7002</ele>
        <time>2026-05-13T12:25:54+02:00</time>
      </trkpt>
      <trkpt lat="46.09656" lon="4.75768">
        <ele>169.2998</ele>
        <time>2026-05-13T12:25:55+02:00</time>
      </trkpt>
      <trkpt lat="46.09662" lon="4.75773">
        <ele>169.90039</ele>
        <time>2026-05-13T12:25:56+02:00</time>
      </trkpt>
      <trkpt lat="46.09668" lon="4.75777">
        <ele>170.2002</ele>
        <time>2026-05-13T12:25:57+02:00</time>
      </trkpt>
      <trkpt lat="46.09674" lon="4.75782">
        <ele>169.7002</ele>
        <time>2026-05-13T12:25:58+02:00</time>
      </trkpt>
      <trkpt lat="46.0968" lon="4.75787">
        <ele>169.60059</ele>
        <time>2026-05-13T12:25:59+02:00</time>
      </trkpt>
      <trkpt lat="46.09685" lon="4.75792">
        <ele>169.5</ele>
        <time>2026-05-13T12:26:00+02:00</time>
      </trkpt>
      <trkpt lat="46.09691" lon="4.75797">
        <ele>169.90039</ele>
        <time>2026-05-13T12:26:01+02:00</time>
      </trkpt>
      <trkpt lat="46.09697" lon="4.75802">
        <ele>169.7998</ele>
        <time>2026-05-13T12:26:02+02:00</time>
      </trkpt>
      <trkpt lat="46.09702" lon="4.75807">
        <ele>169.90039</ele>
        <time>2026-05-13T12:26:03+02:00</time>
      </trkpt>
      <trkpt lat="46.09708" lon="4.75812">
        <ele>170</ele>
        <time>2026-05-13T12:26:04+02:00</time>
      </trkpt>
      <trkpt lat="46.09713" lon="4.75817">
        <ele>169.90039</ele>
        <time>2026-05-13T12:26:05+02:00</time>
      </trkpt>
      <trkpt lat="46.09719" lon="4.75823">
        <ele>170.2002</ele>
        <time>2026-05-13T12:26:06+02:00</time>
      </trkpt>
      <trkpt lat="46.09725" lon="4.75828">
        <ele>170</ele>
        <time>2026-05-13T12:26:07+02:00</time>
      </trkpt>
      <trkpt lat="46.0973" lon="4.75833">
        <ele>170.2998</ele>
        <time>2026-05-13T12:26:08+02:00</time>
      </trkpt>
      <trkpt lat="46.09736" lon="4.75838">
        <ele>170.40039</ele>
        <time>2026-05-13T12:26:09+02:00</time>
      </trkpt>
      <trkpt lat="46.09741" lon="4.75843">
        <ele>169.90039</ele>
        <time>2026-05-13T12:26:10+02:00</time>
      </trkpt>
      <trkpt lat="46.09746" lon="4.75848">
        <ele>170</ele>
        <time>2026-05-13T12:26:11+02:00</time>
      </trkpt>
      <trkpt lat="46.09752" lon="4.75854">
        <ele>170.60059</ele>
        <time>2026-05-13T12:26:12+02:00</time>
      </trkpt>
      <trkpt lat="46.09757" lon="4.75859">
        <ele>170.2002</ele>
        <time>2026-05-13T12:26:13+02:00</time>
      </trkpt>
      <trkpt lat="46.09763" lon="4.75864">
        <ele>170.2998</ele>
        <time>2026-05-13T12:26:14+02:00</time>
      </trkpt>
      <trkpt lat="46.09768" lon="4.7587">
        <ele>169.7998</ele>
        <time>2026-05-13T12:26:15+02:00</time>
      </trkpt>
      <trkpt lat="46.09773" lon="4.75875">
        <ele>169.7002</ele>
        <time>2026-05-13T12:26:16+02:00</time>
      </trkpt>
      <trkpt lat="46.09779" lon="4.75881">
        <ele>169.90039</ele>
        <time>2026-05-13T12:26:17+02:00</time>
      </trkpt>
      <trkpt lat="46.09784" lon="4.75886">
        <ele>169.60059</ele>
        <time>2026-05-13T12:26:18+02:00</time>
      </trkpt>
      <trkpt lat="46.0979" lon="4.75891">
        <ele>169.60059</ele>
        <time>2026-05-13T12:26:19+02:00</time>
      </trkpt>
      <trkpt lat="46.09796" lon="4.75897">
        <ele>169.60059</ele>
        <time>2026-05-13T12:26:20+02:00</time>
      </trkpt>
      <trkpt lat="46.09801" lon="4.75903">
        <ele>169.40039</ele>
        <time>2026-05-13T12:26:21+02:00</time>
      </trkpt>
      <trkpt lat="46.09806" lon="4.75909">
        <ele>169.5</ele>
        <time>2026-05-13T12:26:22+02:00</time>
      </trkpt>
      <trkpt lat="46.09812" lon="4.75915">
        <ele>169.7002</ele>
        <time>2026-05-13T12:26:23+02:00</time>
      </trkpt>
      <trkpt lat="46.09817" lon="4.75921">
        <ele>169.7002</ele>
        <time>2026-05-13T12:26:24+02:00</time>
      </trkpt>
      <trkpt lat="46.09821" lon="4.75928">
        <ele>169.60059</ele>
        <time>2026-05-13T12:26:25+02:00</time>
      </trkpt>
      <trkpt lat="46.09827" lon="4.75933">
        <ele>169.60059</ele>
        <time>2026-05-13T12:26:26+02:00</time>
      </trkpt>
      <trkpt lat="46.09832" lon="4.75939">
        <ele>169.2998</ele>
        <time>2026-05-13T12:26:27+02:00</time>
      </trkpt>
      <trkpt lat="46.09838" lon="4.75945">
        <ele>169.40039</ele>
        <time>2026-05-13T12:26:28+02:00</time>
      </trkpt>
      <trkpt lat="46.09843" lon="4.75951">
        <ele>169.40039</ele>
        <time>2026-05-13T12:26:29+02:00</time>
      </trkpt>
      <trkpt lat="46.09848" lon="4.75957">
        <ele>169.40039</ele>
        <time>2026-05-13T12:26:30+02:00</time>
      </trkpt>
      <trkpt lat="46.09853" lon="4.75963">
        <ele>169.40039</ele>
        <time>2026-05-13T12:26:31+02:00</time>
      </trkpt>
      <trkpt lat="46.09858" lon="4.75969">
        <ele>169.5</ele>
        <time>2026-05-13T12:26:32+02:00</time>
      </trkpt>
      <trkpt lat="46.09863" lon="4.75975">
        <ele>169.60059</ele>
        <time>2026-05-13T12:26:33+02:00</time>
      </trkpt>
      <trkpt lat="46.09868" lon="4.75981">
        <ele>169.2998</ele>
        <time>2026-05-13T12:26:34+02:00</time>
      </trkpt>
      <trkpt lat="46.09873" lon="4.75987">
        <ele>169.2998</ele>
        <time>2026-05-13T12:26:35+02:00</time>
      </trkpt>
      <trkpt lat="46.09878" lon="4.75992">
        <ele>169.5</ele>
        <time>2026-05-13T12:26:36+02:00</time>
      </trkpt>
      <trkpt lat="46.09883" lon="4.75998">
        <ele>169.2998</ele>
        <time>2026-05-13T12:26:37+02:00</time>
      </trkpt>
      <trkpt lat="46.09889" lon="4.76004">
        <ele>169.60059</ele>
        <time>2026-05-13T12:26:38+02:00</time>
      </trkpt>
      <trkpt lat="46.09894" lon="4.7601">
        <ele>170</ele>
        <time>2026-05-13T12:26:39+02:00</time>
      </trkpt>
      <trkpt lat="46.09899" lon="4.76016">
        <ele>169.7998</ele>
        <time>2026-05-13T12:26:40+02:00</time>
      </trkpt>
      <trkpt lat="46.09904" lon="4.76023">
        <ele>169.90039</ele>
        <time>2026-05-13T12:26:41+02:00</time>
      </trkpt>
      <trkpt lat="46.09909" lon="4.76029">
        <ele>170</ele>
        <time>2026-05-13T12:26:42+02:00</time>
      </trkpt>
      <trkpt lat="46.09915" lon="4.76034">
        <ele>169.7002</ele>
        <time>2026-05-13T12:26:43+02:00</time>
      </trkpt>
      <trkpt lat="46.0992" lon="4.7604">
        <ele>169.90039</ele>
        <time>2026-05-13T12:26:44+02:00</time>
      </trkpt>
      <trkpt lat="46.09925" lon="4.76046">
        <ele>170</ele>
        <time>2026-05-13T12:26:45+02:00</time>
      </trkpt>
      <trkpt lat="46.09931" lon="4.76052">
        <ele>169.7998</ele>
        <time>2026-05-13T12:26:46+02:00</time>
      </trkpt>
      <trkpt lat="46.09936" lon="4.76058">
        <ele>169.7998</ele>
        <time>2026-05-13T12:26:47+02:00</time>
      </trkpt>
      <trkpt lat="46.0994" lon="4.76064">
        <ele>169.7002</ele>
        <time>2026-05-13T12:26:48+02:00</time>
      </trkpt>
      <trkpt lat="46.09945" lon="4.76069">
        <ele>169.7002</ele>
        <time>2026-05-13T12:26:49+02:00</time>
      </trkpt>
      <trkpt lat="46.0995" lon="4.76075">
        <ele>169.40039</ele>
        <time>2026-05-13T12:26:50+02:00</time>
      </trkpt>
      <trkpt lat="46.09955" lon="4.76081">
        <ele>169.2998</ele>
        <time>2026-05-13T12:26:51+02:00</time>
      </trkpt>
      <trkpt lat="46.09959" lon="4.76086">
        <ele>169.5</ele>
        <time>2026-05-13T12:26:52+02:00</time>
      </trkpt>
      <trkpt lat="46.09964" lon="4.76092">
        <ele>169.2002</ele>
        <time>2026-05-13T12:26:53+02:00</time>
      </trkpt>
      <trkpt lat="46.09969" lon="4.76097">
        <ele>169.10059</ele>
        <time>2026-05-13T12:26:54+02:00</time>
      </trkpt>
      <trkpt lat="46.09974" lon="4.76103">
        <ele>169</ele>
        <time>2026-05-13T12:26:55+02:00</time>
      </trkpt>
      <trkpt lat="46.09979" lon="4.76108">
        <ele>168.90039</ele>
        <time>2026-05-13T12:26:56+02:00</time>
      </trkpt>
      <trkpt lat="46.09984" lon="4.76114">
        <ele>169</ele>
        <time>2026-05-13T12:26:57+02:00</time>
      </trkpt>
      <trkpt lat="46.09989" lon="4.7612">
        <ele>168.90039</ele>
        <time>2026-05-13T12:26:58+02:00</time>
      </trkpt>
      <trkpt lat="46.09994" lon="4.76126">
        <ele>168.7002</ele>
        <time>2026-05-13T12:26:59+02:00</time>
      </trkpt>
      <trkpt lat="46.1" lon="4.76132">
        <ele>168.7002</ele>
        <time>2026-05-13T12:27:00+02:00</time>
      </trkpt>
      <trkpt lat="46.10005" lon="4.76138">
        <ele>168.7002</ele>
        <time>2026-05-13T12:27:01+02:00</time>
      </trkpt>
      <trkpt lat="46.1001" lon="4.76143">
        <ele>168.60059</ele>
        <time>2026-05-13T12:27:02+02:00</time>
      </trkpt>
      <trkpt lat="46.10014" lon="4.7615">
        <ele>168.5</ele>
        <time>2026-05-13T12:27:03+02:00</time>
      </trkpt>
      <trkpt lat="46.10019" lon="4.76155">
        <ele>168.5</ele>
        <time>2026-05-13T12:27:04+02:00</time>
      </trkpt>
      <trkpt lat="46.10025" lon="4.76161">
        <ele>168.5</ele>
        <time>2026-05-13T12:27:05+02:00</time>
      </trkpt>
      <trkpt lat="46.10029" lon="4.76167">
        <ele>168.5</ele>
        <time>2026-05-13T12:27:06+02:00</time>
      </trkpt>
      <trkpt lat="46.10034" lon="4.76172">
        <ele>168.5</ele>
        <time>2026-05-13T12:27:07+02:00</time>
      </trkpt>
      <trkpt lat="46.10039" lon="4.76178">
        <ele>168.40039</ele>
        <time>2026-05-13T12:27:08+02:00</time>
      </trkpt>
      <trkpt lat="46.10043" lon="4.76184">
        <ele>168.40039</ele>
        <time>2026-05-13T12:27:09+02:00</time>
      </trkpt>
      <trkpt lat="46.10048" lon="4.76189">
        <ele>168.40039</ele>
        <time>2026-05-13T12:27:10+02:00</time>
      </trkpt>
      <trkpt lat="46.10053" lon="4.76195">
        <ele>168.2998</ele>
        <time>2026-05-13T12:27:11+02:00</time>
      </trkpt>
      <trkpt lat="46.10057" lon="4.76201">
        <ele>168.40039</ele>
        <time>2026-05-13T12:27:12+02:00</time>
      </trkpt>
      <trkpt lat="46.10062" lon="4.76206">
        <ele>168.2998</ele>
        <time>2026-05-13T12:27:13+02:00</time>
      </trkpt>
      <trkpt lat="46.10067" lon="4.76212">
        <ele>168.2998</ele>
        <time>2026-05-13T12:27:14+02:00</time>
      </trkpt>
      <trkpt lat="46.10072" lon="4.76217">
        <ele>168.2998</ele>
        <time>2026-05-13T12:27:15+02:00</time>
      </trkpt>
      <trkpt lat="46.10077" lon="4.76223">
        <ele>168.2002</ele>
        <time>2026-05-13T12:27:16+02:00</time>
      </trkpt>
      <trkpt lat="46.10083" lon="4.76229">
        <ele>168.10059</ele>
        <time>2026-05-13T12:27:17+02:00</time>
      </trkpt>
      <trkpt lat="46.10088" lon="4.76234">
        <ele>168.2002</ele>
        <time>2026-05-13T12:27:18+02:00</time>
      </trkpt>
      <trkpt lat="46.10093" lon="4.7624">
        <ele>168.2998</ele>
        <time>2026-05-13T12:27:19+02:00</time>
      </trkpt>
      <trkpt lat="46.10098" lon="4.76246">
        <ele>168.5</ele>
        <time>2026-05-13T12:27:20+02:00</time>
      </trkpt>
      <trkpt lat="46.10103" lon="4.76251">
        <ele>168.7002</ele>
        <time>2026-05-13T12:27:21+02:00</time>
      </trkpt>
      <trkpt lat="46.10108" lon="4.76256">
        <ele>168.60059</ele>
        <time>2026-05-13T12:27:22+02:00</time>
      </trkpt>
      <trkpt lat="46.10113" lon="4.76261">
        <ele>168.60059</ele>
        <time>2026-05-13T12:27:23+02:00</time>
      </trkpt>
      <trkpt lat="46.10117" lon="4.76267">
        <ele>169.10059</ele>
        <time>2026-05-13T12:27:24+02:00</time>
      </trkpt>
      <trkpt lat="46.10122" lon="4.76271">
        <ele>169.10059</ele>
        <time>2026-05-13T12:27:25+02:00</time>
      </trkpt>
      <trkpt lat="46.10128" lon="4.76275">
        <ele>169.2998</ele>
        <time>2026-05-13T12:27:26+02:00</time>
      </trkpt>
      <trkpt lat="46.10134" lon="4.76277">
        <ele>169.10059</ele>
        <time>2026-05-13T12:27:27+02:00</time>
      </trkpt>
      <trkpt lat="46.10139" lon="4.76279">
        <ele>169</ele>
        <time>2026-05-13T12:27:28+02:00</time>
      </trkpt>
      <trkpt lat="46.10145" lon="4.76281">
        <ele>169</ele>
        <time>2026-05-13T12:27:29+02:00</time>
      </trkpt>
      <trkpt lat="46.1015" lon="4.76282">
        <ele>169</ele>
        <time>2026-05-13T12:27:30+02:00</time>
      </trkpt>
      <trkpt lat="46.10155" lon="4.76284">
        <ele>169.10059</ele>
        <time>2026-05-13T12:27:31+02:00</time>
      </trkpt>
      <trkpt lat="46.10159" lon="4.76285">
        <ele>169</ele>
        <time>2026-05-13T12:27:32+02:00</time>
      </trkpt>
      <trkpt lat="46.10164" lon="4.76287">
        <ele>168.7998</ele>
        <time>2026-05-13T12:27:33+02:00</time>
      </trkpt>
      <trkpt lat="46.10169" lon="4.76289">
        <ele>168.7002</ele>
        <time>2026-05-13T12:27:34+02:00</time>
      </trkpt>
      <trkpt lat="46.10174" lon="4.76291">
        <ele>168.7002</ele>
        <time>2026-05-13T12:27:35+02:00</time>
      </trkpt>
      <trkpt lat="46.10178" lon="4.76293">
        <ele>168.7002</ele>
        <time>2026-05-13T12:27:36+02:00</time>
      </trkpt>
      <trkpt lat="46.10183" lon="4.76293">
        <ele>168.60059</ele>
        <time>2026-05-13T12:27:37+02:00</time>
      </trkpt>
      <trkpt lat="46.10188" lon="4.76292">
        <ele>168.40039</ele>
        <time>2026-05-13T12:27:38+02:00</time>
      </trkpt>
      <trkpt lat="46.10192" lon="4.76291">
        <ele>168.2998</ele>
        <time>2026-05-13T12:27:39+02:00</time>
      </trkpt>
      <trkpt lat="46.10196" lon="4.7629">
        <ele>168.2002</ele>
        <time>2026-05-13T12:27:40+02:00</time>
      </trkpt>
      <trkpt lat="46.102" lon="4.76291">
        <ele>168.10059</ele>
        <time>2026-05-13T12:27:41+02:00</time>
      </trkpt>
      <trkpt lat="46.10203" lon="4.76293">
        <ele>168.2002</ele>
        <time>2026-05-13T12:27:42+02:00</time>
      </trkpt>
      <trkpt lat="46.10207" lon="4.76296">
        <ele>168.2002</ele>
        <time>2026-05-13T12:27:43+02:00</time>
      </trkpt>
      <trkpt lat="46.10209" lon="4.76301">
        <ele>168.2002</ele>
        <time>2026-05-13T12:27:44+02:00</time>
      </trkpt>
      <trkpt lat="46.10211" lon="4.76307">
        <ele>168.2002</ele>
        <time>2026-05-13T12:27:45+02:00</time>
      </trkpt>
      <trkpt lat="46.10213" lon="4.76313">
        <ele>168.2998</ele>
        <time>2026-05-13T12:27:46+02:00</time>
      </trkpt>
      <trkpt lat="46.10215" lon="4.76319">
        <ele>168.40039</ele>
        <time>2026-05-13T12:27:47+02:00</time>
      </trkpt>
      <trkpt lat="46.10217" lon="4.76326">
        <ele>168.40039</ele>
        <time>2026-05-13T12:27:48+02:00</time>
      </trkpt>
      <trkpt lat="46.10219" lon="4.76332">
        <ele>168.40039</ele>
        <time>2026-05-13T12:27:49+02:00</time>
      </trkpt>
      <trkpt lat="46.10221" lon="4.76339">
        <ele>168.5</ele>
        <time>2026-05-13T12:27:50+02:00</time>
      </trkpt>
      <trkpt lat="46.10223" lon="4.76345">
        <ele>168.5</ele>
        <time>2026-05-13T12:27:51+02:00</time>
      </trkpt>
      <trkpt lat="46.10225" lon="4.76352">
        <ele>168.7002</ele>
        <time>2026-05-13T12:27:52+02:00</time>
      </trkpt>
      <trkpt lat="46.10228" lon="4.76357">
        <ele>168.7002</ele>
        <time>2026-05-13T12:27:53+02:00</time>
      </trkpt>
      <trkpt lat="46.10232" lon="4.76363">
        <ele>168.7998</ele>
        <time>2026-05-13T12:27:54+02:00</time>
      </trkpt>
      <trkpt lat="46.10234" lon="4.76369">
        <ele>168.7998</ele>
        <time>2026-05-13T12:27:55+02:00</time>
      </trkpt>
      <trkpt lat="46.10237" lon="4.76375">
        <ele>168.7998</ele>
        <time>2026-05-13T12:27:56+02:00</time>
      </trkpt>
      <trkpt lat="46.1024" lon="4.76381">
        <ele>168.7002</ele>
        <time>2026-05-13T12:27:57+02:00</time>
      </trkpt>
      <trkpt lat="46.10244" lon="4.76387">
        <ele>168.90039</ele>
        <time>2026-05-13T12:27:58+02:00</time>
      </trkpt>
      <trkpt lat="46.10247" lon="4.76394">
        <ele>168.7002</ele>
        <time>2026-05-13T12:27:59+02:00</time>
      </trkpt>
      <trkpt lat="46.1025" lon="4.76401">
        <ele>168.90039</ele>
        <time>2026-05-13T12:28:00+02:00</time>
      </trkpt>
      <trkpt lat="46.10253" lon="4.76407">
        <ele>168.90039</ele>
        <time>2026-05-13T12:28:01+02:00</time>
      </trkpt>
      <trkpt lat="46.10256" lon="4.76414">
        <ele>169</ele>
        <time>2026-05-13T12:28:02+02:00</time>
      </trkpt>
      <trkpt lat="46.1026" lon="4.7642">
        <ele>168.7998</ele>
        <time>2026-05-13T12:28:03+02:00</time>
      </trkpt>
      <trkpt lat="46.10263" lon="4.76425">
        <ele>168.90039</ele>
        <time>2026-05-13T12:28:04+02:00</time>
      </trkpt>
      <trkpt lat="46.10266" lon="4.76431">
        <ele>168.7998</ele>
        <time>2026-05-13T12:28:05+02:00</time>
      </trkpt>
      <trkpt lat="46.10269" lon="4.76437">
        <ele>168.7998</ele>
        <time>2026-05-13T12:28:06+02:00</time>
      </trkpt>
      <trkpt lat="46.10272" lon="4.76442">
        <ele>168.7002</ele>
        <time>2026-05-13T12:28:07+02:00</time>
      </trkpt>
      <trkpt lat="46.10275" lon="4.76448">
        <ele>168.7002</ele>
        <time>2026-05-13T12:28:08+02:00</time>
      </trkpt>
      <trkpt lat="46.10279" lon="4.76452">
        <ele>168.60059</ele>
        <time>2026-05-13T12:28:09+02:00</time>
      </trkpt>
      <trkpt lat="46.10283" lon="4.76457">
        <ele>168.5</ele>
        <time>2026-05-13T12:28:10+02:00</time>
      </trkpt>
      <trkpt lat="46.10287" lon="4.76461">
        <ele>168.5</ele>
        <time>2026-05-13T12:28:11+02:00</time>
      </trkpt>
      <trkpt lat="46.10291" lon="4.76466">
        <ele>168.40039</ele>
        <time>2026-05-13T12:28:12+02:00</time>
      </trkpt>
      <trkpt lat="46.10295" lon="4.76471">
        <ele>168.2998</ele>
        <time>2026-05-13T12:28:13+02:00</time>
      </trkpt>
      <trkpt lat="46.10299" lon="4.76475">
        <ele>168.2998</ele>
        <time>2026-05-13T12:28:14+02:00</time>
      </trkpt>
      <trkpt lat="46.10303" lon="4.76479">
        <ele>168.2998</ele>
        <time>2026-05-13T12:28:15+02:00</time>
      </trkpt>
      <trkpt lat="46.10307" lon="4.76483">
        <ele>168.2002</ele>
        <time>2026-05-13T12:28:16+02:00</time>
      </trkpt>
      <trkpt lat="46.1031" lon="4.76487">
        <ele>168.2002</ele>
        <time>2026-05-13T12:28:17+02:00</time>
      </trkpt>
      <trkpt lat="46.10314" lon="4.76491">
        <ele>168.2002</ele>
        <time>2026-05-13T12:28:18+02:00</time>
      </trkpt>
      <trkpt lat="46.10319" lon="4.76495">
        <ele>168.2002</ele>
        <time>2026-05-13T12:28:19+02:00</time>
      </trkpt>
      <trkpt lat="46.10322" lon="4.765">
        <ele>168.2002</ele>
        <time>2026-05-13T12:28:20+02:00</time>
      </trkpt>
      <trkpt lat="46.10326" lon="4.76504">
        <ele>168.2002</ele>
        <time>2026-05-13T12:28:21+02:00</time>
      </trkpt>
      <trkpt lat="46.1033" lon="4.76508">
        <ele>168.10059</ele>
        <time>2026-05-13T12:28:22+02:00</time>
      </trkpt>
      <trkpt lat="46.10335" lon="4.76512">
        <ele>168.10059</ele>
        <time>2026-05-13T12:28:23+02:00</time>
      </trkpt>
      <trkpt lat="46.10339" lon="4.76516">
        <ele>168.10059</ele>
        <time>2026-05-13T12:28:24+02:00</time>
      </trkpt>
      <trkpt lat="46.10343" lon="4.7652">
        <ele>168.10059</ele>
        <time>2026-05-13T12:28:25+02:00</time>
      </trkpt>
      <trkpt lat="46.10347" lon="4.76524">
        <ele>168.2002</ele>
        <time>2026-05-13T12:28:26+02:00</time>
      </trkpt>
      <trkpt lat="46.10351" lon="4.76529">
        <ele>168.2002</ele>
        <time>2026-05-13T12:28:27+02:00</time>
      </trkpt>
      <trkpt lat="46.10356" lon="4.76533">
        <ele>168.2002</ele>
        <time>2026-05-13T12:28:28+02:00</time>
      </trkpt>
      <trkpt lat="46.10359" lon="4.76537">
        <ele>168.2002</ele>
        <time>2026-05-13T12:28:29+02:00</time>
      </trkpt>
      <trkpt lat="46.10364" lon="4.76541">
        <ele>168.2002</ele>
        <time>2026-05-13T12:28:30+02:00</time>
      </trkpt>
      <trkpt lat="46.10368" lon="4.76545">
        <ele>168.2002</ele>
        <time>2026-05-13T12:28:31+02:00</time>
      </trkpt>
      <trkpt lat="46.10372" lon="4.76549">
        <ele>168.2002</ele>
        <time>2026-05-13T12:28:32+02:00</time>
      </trkpt>
      <trkpt lat="46.10376" lon="4.76554">
        <ele>168.2002</ele>
        <time>2026-05-13T12:28:33+02:00</time>
      </trkpt>
      <trkpt lat="46.10381" lon="4.76558">
        <ele>168.2002</ele>
        <time>2026-05-13T12:28:34+02:00</time>
      </trkpt>
      <trkpt lat="46.10386" lon="4.76562">
        <ele>168.2002</ele>
        <time>2026-05-13T12:28:35+02:00</time>
      </trkpt>
      <trkpt lat="46.1039" lon="4.76567">
        <ele>168.2002</ele>
        <time>2026-05-13T12:28:36+02:00</time>
      </trkpt>
      <trkpt lat="46.10394" lon="4.76571">
        <ele>168.2002</ele>
        <time>2026-05-13T12:28:37+02:00</time>
      </trkpt>
      <trkpt lat="46.10398" lon="4.76576">
        <ele>168.2002</ele>
        <time>2026-05-13T12:28:38+02:00</time>
      </trkpt>
      <trkpt lat="46.10402" lon="4.7658">
        <ele>168.2002</ele>
        <time>2026-05-13T12:28:39+02:00</time>
      </trkpt>
      <trkpt lat="46.10405" lon="4.76585">
        <ele>168.2002</ele>
        <time>2026-05-13T12:28:40+02:00</time>
      </trkpt>
      <trkpt lat="46.1041" lon="4.76593">
        <ele>168.2002</ele>
        <time>2026-05-13T12:28:41+02:00</time>
      </trkpt>
      <trkpt lat="46.10414" lon="4.76604">
        <ele>168.10059</ele>
        <time>2026-05-13T12:28:42+02:00</time>
      </trkpt>
      <trkpt lat="46.10421" lon="4.76608">
        <ele>168.10059</ele>
        <time>2026-05-13T12:28:43+02:00</time>
      </trkpt>
      <trkpt lat="46.10425" lon="4.76615">
        <ele>168.10059</ele>
        <time>2026-05-13T12:28:44+02:00</time>
      </trkpt>
      <trkpt lat="46.10429" lon="4.76618">
        <ele>168.10059</ele>
        <time>2026-05-13T12:28:45+02:00</time>
      </trkpt>
      <trkpt lat="46.10434" lon="4.76621">
        <ele>168.2002</ele>
        <time>2026-05-13T12:28:46+02:00</time>
      </trkpt>
      <trkpt lat="46.10437" lon="4.76627">
        <ele>168.2002</ele>
        <time>2026-05-13T12:28:47+02:00</time>
      </trkpt>
      <trkpt lat="46.1044" lon="4.76631">
        <ele>168.2002</ele>
        <time>2026-05-13T12:28:48+02:00</time>
      </trkpt>
      <trkpt lat="46.10444" lon="4.76635">
        <ele>168.2002</ele>
        <time>2026-05-13T12:28:49+02:00</time>
      </trkpt>
      <trkpt lat="46.10448" lon="4.76638">
        <ele>168.2002</ele>
        <time>2026-05-13T12:28:50+02:00</time>
      </trkpt>
      <trkpt lat="46.10452" lon="4.76639">
        <ele>168.2002</ele>
        <time>2026-05-13T12:28:51+02:00</time>
      </trkpt>
      <trkpt lat="46.10457" lon="4.76641">
        <ele>168.2002</ele>
        <time>2026-05-13T12:28:52+02:00</time>
      </trkpt>
      <trkpt lat="46.10462" lon="4.76644">
        <ele>168.2002</ele>
        <time>2026-05-13T12:28:53+02:00</time>
      </trkpt>
      <trkpt lat="46.10465" lon="4.76646">
        <ele>168.2002</ele>
        <time>2026-05-13T12:28:54+02:00</time>
      </trkpt>
      <trkpt lat="46.10467" lon="4.76647">
        <ele>168.2002</ele>
        <time>2026-05-13T12:28:55+02:00</time>
      </trkpt>
      <trkpt lat="46.10467" lon="4.76647">
        <ele>168.2002</ele>
        <time>2026-05-13T12:28:56+02:00</time>
      </trkpt>
      <trkpt lat="46.10467" lon="4.76646">
        <ele>168.2002</ele>
        <time>2026-05-13T12:28:57+02:00</time>
      </trkpt>
      <trkpt lat="46.10467" lon="4.76645">
        <ele>168.2002</ele>
        <time>2026-05-13T12:28:58+02:00</time>
      </trkpt>
      <trkpt lat="46.10467" lon="4.76645">
        <ele>168.2002</ele>
        <time>2026-05-13T12:28:59+02:00</time>
      </trkpt>
      <trkpt lat="46.10467" lon="4.76645">
        <ele>168.2002</ele>
        <time>2026-05-13T12:29:00+02:00</time>
      </trkpt>
      <trkpt lat="46.10467" lon="4.76645">
        <ele>168.2002</ele>
        <time>2026-05-13T12:29:01+02:00</time>
      </trkpt>
      <trkpt lat="46.10479" lon="4.76655">
        <ele>168.10059</ele>
        <time>2026-05-13T12:29:21+02:00</time>
      </trkpt>
      <trkpt lat="46.10482" lon="4.76656">
        <ele>168.10059</ele>
        <time>2026-05-13T12:29:22+02:00</time>
      </trkpt>
      <trkpt lat="46.10484" lon="4.76658">
        <ele>168.10059</ele>
        <time>2026-05-13T12:29:23+02:00</time>
      </trkpt>
      <trkpt lat="46.10486" lon="4.76661">
        <ele>168.2002</ele>
        <time>2026-05-13T12:29:24+02:00</time>
      </trkpt>
      <trkpt lat="46.10488" lon="4.76663">
        <ele>168.2002</ele>
        <time>2026-05-13T12:29:25+02:00</time>
      </trkpt>
      <trkpt lat="46.1049" lon="4.76665">
        <ele>168.2002</ele>
        <time>2026-05-13T12:29:26+02:00</time>
      </trkpt>
      <trkpt lat="46.10491" lon="4.76667">
        <ele>168.2002</ele>
        <time>2026-05-13T12:29:27+02:00</time>
      </trkpt>
      <trkpt lat="46.10492" lon="4.76668">
        <ele>168.2002</ele>
        <time>2026-05-13T12:29:28+02:00</time>
      </trkpt>
      <trkpt lat="46.10492" lon="4.76668">
        <ele>168.2002</ele>
        <time>2026-05-13T12:29:29+02:00</time>
      </trkpt>
      <trkpt lat="46.10493" lon="4.76668">
        <ele>168.2002</ele>
        <time>2026-05-13T12:29:30+02:00</time>
      </trkpt>
      <trkpt lat="46.10493" lon="4.76668">
        <ele>168.2002</ele>
        <time>2026-05-13T12:29:31+02:00</time>
      </trkpt>
      <trkpt lat="46.10493" lon="4.76668">
        <ele>168.2002</ele>
        <time>2026-05-13T12:29:32+02:00</time>
      </trkpt>
      <trkpt lat="46.10508" lon="4.76683">
        <ele>168.2002</ele>
        <time>2026-05-13T12:30:42+02:00</time>
      </trkpt>
      <trkpt lat="46.1051" lon="4.76685">
        <ele>168.2002</ele>
        <time>2026-05-13T12:30:43+02:00</time>
      </trkpt>
      <trkpt lat="46.10512" lon="4.76688">
        <ele>168.2002</ele>
        <time>2026-05-13T12:30:44+02:00</time>
      </trkpt>
      <trkpt lat="46.10516" lon="4.7669">
        <ele>168.2002</ele>
        <time>2026-05-13T12:30:45+02:00</time>
      </trkpt>
      <trkpt lat="46.10518" lon="4.76693">
        <ele>168.2002</ele>
        <time>2026-05-13T12:30:46+02:00</time>
      </trkpt>
      <trkpt lat="46.10521" lon="4.76696">
        <ele>168.2002</ele>
        <time>2026-05-13T12:30:47+02:00</time>
      </trkpt>
      <trkpt lat="46.10524" lon="4.76699">
        <ele>168.2002</ele>
        <time>2026-05-13T12:30:48+02:00</time>
      </trkpt>
      <trkpt lat="46.10528" lon="4.76702">
        <ele>168.2002</ele>
        <time>2026-05-13T12:30:49+02:00</time>
      </trkpt>
      <trkpt lat="46.10531" lon="4.76705">
        <ele>168.2002</ele>
        <time>2026-05-13T12:30:50+02:00</time>
      </trkpt>
      <trkpt lat="46.10534" lon="4.76709">
        <ele>168.2002</ele>
        <time>2026-05-13T12:30:51+02:00</time>
      </trkpt>
      <trkpt lat="46.10538" lon="4.76713">
        <ele>168.2002</ele>
        <time>2026-05-13T12:30:52+02:00</time>
      </trkpt>
      <trkpt lat="46.10542" lon="4.76718">
        <ele>168.2002</ele>
        <time>2026-05-13T12:30:53+02:00</time>
      </trkpt>
      <trkpt lat="46.10546" lon="4.76722">
        <ele>168.2002</ele>
        <time>2026-05-13T12:30:54+02:00</time>
      </trkpt>
      <trkpt lat="46.1055" lon="4.76726">
        <ele>168.2002</ele>
        <time>2026-05-13T12:30:55+02:00</time>
      </trkpt>
      <trkpt lat="46.10554" lon="4.76731">
        <ele>168.2002</ele>
        <time>2026-05-13T12:30:56+02:00</time>
      </trkpt>
      <trkpt lat="46.10559" lon="4.76735">
        <ele>168.2002</ele>
        <time>2026-05-13T12:30:57+02:00</time>
      </trkpt>
      <trkpt lat="46.10563" lon="4.76739">
        <ele>168.10059</ele>
        <time>2026-05-13T12:30:58+02:00</time>
      </trkpt>
      <trkpt lat="46.10568" lon="4.76743">
        <ele>168.10059</ele>
        <time>2026-05-13T12:30:59+02:00</time>
      </trkpt>
      <trkpt lat="46.10573" lon="4.76748">
        <ele>168.10059</ele>
        <time>2026-05-13T12:31:00+02:00</time>
      </trkpt>
      <trkpt lat="46.10577" lon="4.76752">
        <ele>168.2002</ele>
        <time>2026-05-13T12:31:01+02:00</time>
      </trkpt>
      <trkpt lat="46.10581" lon="4.76757">
        <ele>168.2002</ele>
        <time>2026-05-13T12:31:02+02:00</time>
      </trkpt>
      <trkpt lat="46.10586" lon="4.76761">
        <ele>168.2002</ele>
        <time>2026-05-13T12:31:03+02:00</time>
      </trkpt>
      <trkpt lat="46.10591" lon="4.76766">
        <ele>168.2002</ele>
        <time>2026-05-13T12:31:04+02:00</time>
      </trkpt>
      <trkpt lat="46.10595" lon="4.7677">
        <ele>168.2002</ele>
        <time>2026-05-13T12:31:05+02:00</time>
      </trkpt>
      <trkpt lat="46.106" lon="4.76775">
        <ele>168.2998</ele>
        <time>2026-05-13T12:31:06+02:00</time>
      </trkpt>
      <trkpt lat="46.10605" lon="4.7678">
        <ele>168.2998</ele>
        <time>2026-05-13T12:31:07+02:00</time>
      </trkpt>
      <trkpt lat="46.1061" lon="4.76784">
        <ele>168.2998</ele>
        <time>2026-05-13T12:31:08+02:00</time>
      </trkpt>
      <trkpt lat="46.10615" lon="4.76789">
        <ele>168.2998</ele>
        <time>2026-05-13T12:31:09+02:00</time>
      </trkpt>
      <trkpt lat="46.1062" lon="4.76793">
        <ele>168.40039</ele>
        <time>2026-05-13T12:31:10+02:00</time>
      </trkpt>
      <trkpt lat="46.10625" lon="4.76798">
        <ele>168.2998</ele>
        <time>2026-05-13T12:31:11+02:00</time>
      </trkpt>
      <trkpt lat="46.1063" lon="4.76803">
        <ele>168.40039</ele>
        <time>2026-05-13T12:31:12+02:00</time>
      </trkpt>
      <trkpt lat="46.10635" lon="4.76809">
        <ele>168.40039</ele>
        <time>2026-05-13T12:31:13+02:00</time>
      </trkpt>
      <trkpt lat="46.1064" lon="4.76813">
        <ele>168.40039</ele>
        <time>2026-05-13T12:31:14+02:00</time>
      </trkpt>
      <trkpt lat="46.10645" lon="4.76819">
        <ele>168.40039</ele>
        <time>2026-05-13T12:31:15+02:00</time>
      </trkpt>
      <trkpt lat="46.1065" lon="4.76825">
        <ele>168.60059</ele>
        <time>2026-05-13T12:31:16+02:00</time>
      </trkpt>
      <trkpt lat="46.10655" lon="4.7683">
        <ele>168.5</ele>
        <time>2026-05-13T12:31:17+02:00</time>
      </trkpt>
      <trkpt lat="46.1066" lon="4.76835">
        <ele>168.60059</ele>
        <time>2026-05-13T12:31:18+02:00</time>
      </trkpt>
      <trkpt lat="46.10665" lon="4.76841">
        <ele>168.60059</ele>
        <time>2026-05-13T12:31:19+02:00</time>
      </trkpt>
      <trkpt lat="46.10671" lon="4.76846">
        <ele>168.5</ele>
        <time>2026-05-13T12:31:20+02:00</time>
      </trkpt>
      <trkpt lat="46.10676" lon="4.76851">
        <ele>168.5</ele>
        <time>2026-05-13T12:31:21+02:00</time>
      </trkpt>
      <trkpt lat="46.10681" lon="4.76857">
        <ele>168.40039</ele>
        <time>2026-05-13T12:31:22+02:00</time>
      </trkpt>
      <trkpt lat="46.10686" lon="4.76862">
        <ele>168.40039</ele>
        <time>2026-05-13T12:31:23+02:00</time>
      </trkpt>
      <trkpt lat="46.10691" lon="4.76867">
        <ele>168.2998</ele>
        <time>2026-05-13T12:31:24+02:00</time>
      </trkpt>
      <trkpt lat="46.10696" lon="4.76872">
        <ele>168.40039</ele>
        <time>2026-05-13T12:31:25+02:00</time>
      </trkpt>
      <trkpt lat="46.10701" lon="4.76877">
        <ele>168.60059</ele>
        <time>2026-05-13T12:31:26+02:00</time>
      </trkpt>
      <trkpt lat="46.10706" lon="4.76882">
        <ele>168.5</ele>
        <time>2026-05-13T12:31:27+02:00</time>
      </trkpt>
      <trkpt lat="46.10711" lon="4.76888">
        <ele>168.60059</ele>
        <time>2026-05-13T12:31:28+02:00</time>
      </trkpt>
      <trkpt lat="46.10716" lon="4.76893">
        <ele>168.7002</ele>
        <time>2026-05-13T12:31:29+02:00</time>
      </trkpt>
      <trkpt lat="46.10721" lon="4.76898">
        <ele>168.7002</ele>
        <time>2026-05-13T12:31:30+02:00</time>
      </trkpt>
      <trkpt lat="46.10726" lon="4.76903">
        <ele>168.7998</ele>
        <time>2026-05-13T12:31:31+02:00</time>
      </trkpt>
      <trkpt lat="46.10732" lon="4.76908">
        <ele>168.7998</ele>
        <time>2026-05-13T12:31:32+02:00</time>
      </trkpt>
      <trkpt lat="46.10737" lon="4.76913">
        <ele>168.90039</ele>
        <time>2026-05-13T12:31:33+02:00</time>
      </trkpt>
      <trkpt lat="46.10741" lon="4.76919">
        <ele>169</ele>
        <time>2026-05-13T12:31:34+02:00</time>
      </trkpt>
      <trkpt lat="46.10747" lon="4.76924">
        <ele>168.7998</ele>
        <time>2026-05-13T12:31:35+02:00</time>
      </trkpt>
      <trkpt lat="46.10751" lon="4.76929">
        <ele>169.10059</ele>
        <time>2026-05-13T12:31:36+02:00</time>
      </trkpt>
      <trkpt lat="46.10756" lon="4.76934">
        <ele>168.7998</ele>
        <time>2026-05-13T12:31:37+02:00</time>
      </trkpt>
      <trkpt lat="46.10761" lon="4.76939">
        <ele>168.90039</ele>
        <time>2026-05-13T12:31:38+02:00</time>
      </trkpt>
      <trkpt lat="46.10766" lon="4.76945">
        <ele>169</ele>
        <time>2026-05-13T12:31:39+02:00</time>
      </trkpt>
      <trkpt lat="46.10771" lon="4.7695">
        <ele>168.7998</ele>
        <time>2026-05-13T12:31:40+02:00</time>
      </trkpt>
      <trkpt lat="46.10776" lon="4.76956">
        <ele>168.7002</ele>
        <time>2026-05-13T12:31:41+02:00</time>
      </trkpt>
      <trkpt lat="46.10781" lon="4.76962">
        <ele>169</ele>
        <time>2026-05-13T12:31:42+02:00</time>
      </trkpt>
      <trkpt lat="46.10786" lon="4.76968">
        <ele>168.7998</ele>
        <time>2026-05-13T12:31:43+02:00</time>
      </trkpt>
      <trkpt lat="46.10791" lon="4.76974">
        <ele>168.7998</ele>
        <time>2026-05-13T12:31:44+02:00</time>
      </trkpt>
      <trkpt lat="46.10795" lon="4.76979">
        <ele>168.7998</ele>
        <time>2026-05-13T12:31:45+02:00</time>
      </trkpt>
      <trkpt lat="46.108" lon="4.76985">
        <ele>168.60059</ele>
        <time>2026-05-13T12:31:46+02:00</time>
      </trkpt>
      <trkpt lat="46.10805" lon="4.7699">
        <ele>168.7998</ele>
        <time>2026-05-13T12:31:47+02:00</time>
      </trkpt>
      <trkpt lat="46.1081" lon="4.76996">
        <ele>168.7998</ele>
        <time>2026-05-13T12:31:48+02:00</time>
      </trkpt>
      <trkpt lat="46.10815" lon="4.77002">
        <ele>168.60059</ele>
        <time>2026-05-13T12:31:49+02:00</time>
      </trkpt>
      <trkpt lat="46.1082" lon="4.77007">
        <ele>168.60059</ele>
        <time>2026-05-13T12:31:50+02:00</time>
      </trkpt>
      <trkpt lat="46.10824" lon="4.77013">
        <ele>168.7002</ele>
        <time>2026-05-13T12:31:51+02:00</time>
      </trkpt>
      <trkpt lat="46.10829" lon="4.77019">
        <ele>168.60059</ele>
        <time>2026-05-13T12:31:52+02:00</time>
      </trkpt>
      <trkpt lat="46.10834" lon="4.77026">
        <ele>168.7998</ele>
        <time>2026-05-13T12:31:53+02:00</time>
      </trkpt>
      <trkpt lat="46.10839" lon="4.77032">
        <ele>168.90039</ele>
        <time>2026-05-13T12:31:54+02:00</time>
      </trkpt>
      <trkpt lat="46.10844" lon="4.77039">
        <ele>168.90039</ele>
        <time>2026-05-13T12:31:55+02:00</time>
      </trkpt>
      <trkpt lat="46.10848" lon="4.77046">
        <ele>168.7998</ele>
        <time>2026-05-13T12:31:56+02:00</time>
      </trkpt>
      <trkpt lat="46.10854" lon="4.77052">
        <ele>168.90039</ele>
        <time>2026-05-13T12:31:57+02:00</time>
      </trkpt>
      <trkpt lat="46.10858" lon="4.77058">
        <ele>169.2002</ele>
        <time>2026-05-13T12:31:58+02:00</time>
      </trkpt>
      <trkpt lat="46.10863" lon="4.77065">
        <ele>169.40039</ele>
        <time>2026-05-13T12:31:59+02:00</time>
      </trkpt>
      <trkpt lat="46.10867" lon="4.77072">
        <ele>169.2002</ele>
        <time>2026-05-13T12:32:00+02:00</time>
      </trkpt>
      <trkpt lat="46.10872" lon="4.77079">
        <ele>169.40039</ele>
        <time>2026-05-13T12:32:01+02:00</time>
      </trkpt>
      <trkpt lat="46.10877" lon="4.77086">
        <ele>169.60059</ele>
        <time>2026-05-13T12:32:02+02:00</time>
      </trkpt>
      <trkpt lat="46.10881" lon="4.77094">
        <ele>170.10059</ele>
        <time>2026-05-13T12:32:03+02:00</time>
      </trkpt>
      <trkpt lat="46.10885" lon="4.77101">
        <ele>170.60059</ele>
        <time>2026-05-13T12:32:04+02:00</time>
      </trkpt>
      <trkpt lat="46.1089" lon="4.77108">
        <ele>171.2002</ele>
        <time>2026-05-13T12:32:05+02:00</time>
      </trkpt>
      <trkpt lat="46.10895" lon="4.77114">
        <ele>170.90039</ele>
        <time>2026-05-13T12:32:06+02:00</time>
      </trkpt>
      <trkpt lat="46.109" lon="4.7712">
        <ele>171.5</ele>
        <time>2026-05-13T12:32:07+02:00</time>
      </trkpt>
      <trkpt lat="46.10905" lon="4.77125">
        <ele>171.5</ele>
        <time>2026-05-13T12:32:08+02:00</time>
      </trkpt>
      <trkpt lat="46.1091" lon="4.77131">
        <ele>171</ele>
        <time>2026-05-13T12:32:09+02:00</time>
      </trkpt>
      <trkpt lat="46.10915" lon="4.77137">
        <ele>171.10059</ele>
        <time>2026-05-13T12:32:10+02:00</time>
      </trkpt>
      <trkpt lat="46.1092" lon="4.77143">
        <ele>171.2998</ele>
        <time>2026-05-13T12:32:11+02:00</time>
      </trkpt>
      <trkpt lat="46.10925" lon="4.77148">
        <ele>170.7998</ele>
        <time>2026-05-13T12:32:12+02:00</time>
      </trkpt>
      <trkpt lat="46.10931" lon="4.77154">
        <ele>170.7002</ele>
        <time>2026-05-13T12:32:13+02:00</time>
      </trkpt>
      <trkpt lat="46.10936" lon="4.7716">
        <ele>171.10059</ele>
        <time>2026-05-13T12:32:14+02:00</time>
      </trkpt>
      <trkpt lat="46.10941" lon="4.77166">
        <ele>170.60059</ele>
        <time>2026-05-13T12:32:15+02:00</time>
      </trkpt>
      <trkpt lat="46.10946" lon="4.77172">
        <ele>170.7998</ele>
        <time>2026-05-13T12:32:16+02:00</time>
      </trkpt>
      <trkpt lat="46.10952" lon="4.77178">
        <ele>170.90039</ele>
        <time>2026-05-13T12:32:17+02:00</time>
      </trkpt>
      <trkpt lat="46.10956" lon="4.77182">
        <ele>170.60059</ele>
        <time>2026-05-13T12:32:18+02:00</time>
      </trkpt>
      <trkpt lat="46.10962" lon="4.77187">
        <ele>170.60059</ele>
        <time>2026-05-13T12:32:19+02:00</time>
      </trkpt>
      <trkpt lat="46.10967" lon="4.77193">
        <ele>170.60059</ele>
        <time>2026-05-13T12:32:20+02:00</time>
      </trkpt>
      <trkpt lat="46.10972" lon="4.77198">
        <ele>170.60059</ele>
        <time>2026-05-13T12:32:21+02:00</time>
      </trkpt>
      <trkpt lat="46.10978" lon="4.77203">
        <ele>170.7998</ele>
        <time>2026-05-13T12:32:22+02:00</time>
      </trkpt>
      <trkpt lat="46.10983" lon="4.77209">
        <ele>170.7998</ele>
        <time>2026-05-13T12:32:23+02:00</time>
      </trkpt>
      <trkpt lat="46.10988" lon="4.77214">
        <ele>171</ele>
        <time>2026-05-13T12:32:24+02:00</time>
      </trkpt>
      <trkpt lat="46.10994" lon="4.77219">
        <ele>171</ele>
        <time>2026-05-13T12:32:25+02:00</time>
      </trkpt>
      <trkpt lat="46.10999" lon="4.77224">
        <ele>171</ele>
        <time>2026-05-13T12:32:26+02:00</time>
      </trkpt>
      <trkpt lat="46.11005" lon="4.77229">
        <ele>171.10059</ele>
        <time>2026-05-13T12:32:27+02:00</time>
      </trkpt>
      <trkpt lat="46.11011" lon="4.77234">
        <ele>171.10059</ele>
        <time>2026-05-13T12:32:28+02:00</time>
      </trkpt>
      <trkpt lat="46.11017" lon="4.77239">
        <ele>171.2998</ele>
        <time>2026-05-13T12:32:29+02:00</time>
      </trkpt>
      <trkpt lat="46.11023" lon="4.77244">
        <ele>171.40039</ele>
        <time>2026-05-13T12:32:30+02:00</time>
      </trkpt>
      <trkpt lat="46.11028" lon="4.77249">
        <ele>171.7002</ele>
        <time>2026-05-13T12:32:31+02:00</time>
      </trkpt>
      <trkpt lat="46.11034" lon="4.77254">
        <ele>171.90039</ele>
        <time>2026-05-13T12:32:32+02:00</time>
      </trkpt>
      <trkpt lat="46.11039" lon="4.7726">
        <ele>172</ele>
        <time>2026-05-13T12:32:33+02:00</time>
      </trkpt>
      <trkpt lat="46.11044" lon="4.77266">
        <ele>172</ele>
        <time>2026-05-13T12:32:34+02:00</time>
      </trkpt>
      <trkpt lat="46.11049" lon="4.77272">
        <ele>172.2002</ele>
        <time>2026-05-13T12:32:35+02:00</time>
      </trkpt>
      <trkpt lat="46.11054" lon="4.77278">
        <ele>172.2002</ele>
        <time>2026-05-13T12:32:36+02:00</time>
      </trkpt>
      <trkpt lat="46.11058" lon="4.77283">
        <ele>172.5</ele>
        <time>2026-05-13T12:32:37+02:00</time>
      </trkpt>
      <trkpt lat="46.11063" lon="4.77286">
        <ele>172.60059</ele>
        <time>2026-05-13T12:32:38+02:00</time>
      </trkpt>
      <trkpt lat="46.11068" lon="4.77289">
        <ele>173</ele>
        <time>2026-05-13T12:32:39+02:00</time>
      </trkpt>
      <trkpt lat="46.11074" lon="4.7729">
        <ele>173.2002</ele>
        <time>2026-05-13T12:32:40+02:00</time>
      </trkpt>
      <trkpt lat="46.1108" lon="4.77291">
        <ele>173.2998</ele>
        <time>2026-05-13T12:32:41+02:00</time>
      </trkpt>
      <trkpt lat="46.11086" lon="4.77289">
        <ele>173.2998</ele>
        <time>2026-05-13T12:32:42+02:00</time>
      </trkpt>
      <trkpt lat="46.11092" lon="4.77289">
        <ele>173.10059</ele>
        <time>2026-05-13T12:32:43+02:00</time>
      </trkpt>
      <trkpt lat="46.11098" lon="4.77289">
        <ele>172.90039</ele>
        <time>2026-05-13T12:32:44+02:00</time>
      </trkpt>
      <trkpt lat="46.11105" lon="4.7729">
        <ele>172.60059</ele>
        <time>2026-05-13T12:32:45+02:00</time>
      </trkpt>
      <trkpt lat="46.11111" lon="4.77292">
        <ele>172.5</ele>
        <time>2026-05-13T12:32:46+02:00</time>
      </trkpt>
      <trkpt lat="46.11117" lon="4.77294">
        <ele>172.40039</ele>
        <time>2026-05-13T12:32:47+02:00</time>
      </trkpt>
      <trkpt lat="46.11123" lon="4.77296">
        <ele>172.60059</ele>
        <time>2026-05-13T12:32:48+02:00</time>
      </trkpt>
      <trkpt lat="46.1113" lon="4.77297">
        <ele>172.5</ele>
        <time>2026-05-13T12:32:49+02:00</time>
      </trkpt>
      <trkpt lat="46.11136" lon="4.77299">
        <ele>172.40039</ele>
        <time>2026-05-13T12:32:50+02:00</time>
      </trkpt>
      <trkpt lat="46.11143" lon="4.773">
        <ele>172.2998</ele>
        <time>2026-05-13T12:32:51+02:00</time>
      </trkpt>
      <trkpt lat="46.11149" lon="4.77302">
        <ele>172.2002</ele>
        <time>2026-05-13T12:32:52+02:00</time>
      </trkpt>
      <trkpt lat="46.11155" lon="4.77304">
        <ele>172.10059</ele>
        <time>2026-05-13T12:32:53+02:00</time>
      </trkpt>
      <trkpt lat="46.11162" lon="4.77307">
        <ele>172.10059</ele>
        <time>2026-05-13T12:32:54+02:00</time>
      </trkpt>
      <trkpt lat="46.11168" lon="4.77309">
        <ele>172</ele>
        <time>2026-05-13T12:32:55+02:00</time>
      </trkpt>
      <trkpt lat="46.11175" lon="4.7731">
        <ele>171.7998</ele>
        <time>2026-05-13T12:32:56+02:00</time>
      </trkpt>
      <trkpt lat="46.11182" lon="4.77312">
        <ele>171.7002</ele>
        <time>2026-05-13T12:32:57+02:00</time>
      </trkpt>
      <trkpt lat="46.11188" lon="4.77314">
        <ele>171.60059</ele>
        <time>2026-05-13T12:32:58+02:00</time>
      </trkpt>
      <trkpt lat="46.11194" lon="4.77315">
        <ele>171.5</ele>
        <time>2026-05-13T12:32:59+02:00</time>
      </trkpt>
      <trkpt lat="46.11201" lon="4.77316">
        <ele>171.5</ele>
        <time>2026-05-13T12:33:00+02:00</time>
      </trkpt>
      <trkpt lat="46.11207" lon="4.77317">
        <ele>171.40039</ele>
        <time>2026-05-13T12:33:01+02:00</time>
      </trkpt>
      <trkpt lat="46.11212" lon="4.77318">
        <ele>171.2998</ele>
        <time>2026-05-13T12:33:02+02:00</time>
      </trkpt>
      <trkpt lat="46.11218" lon="4.77319">
        <ele>171.2998</ele>
        <time>2026-05-13T12:33:03+02:00</time>
      </trkpt>
      <trkpt lat="46.11225" lon="4.7732">
        <ele>171.2002</ele>
        <time>2026-05-13T12:33:04+02:00</time>
      </trkpt>
      <trkpt lat="46.11231" lon="4.77321">
        <ele>171.2002</ele>
        <time>2026-05-13T12:33:05+02:00</time>
      </trkpt>
      <trkpt lat="46.11238" lon="4.77321">
        <ele>171.2002</ele>
        <time>2026-05-13T12:33:06+02:00</time>
      </trkpt>
      <trkpt lat="46.11244" lon="4.77322">
        <ele>171.40039</ele>
        <time>2026-05-13T12:33:07+02:00</time>
      </trkpt>
      <trkpt lat="46.11251" lon="4.77323">
        <ele>171.40039</ele>
        <time>2026-05-13T12:33:08+02:00</time>
      </trkpt>
      <trkpt lat="46.11257" lon="4.77324">
        <ele>171.40039</ele>
        <time>2026-05-13T12:33:09+02:00</time>
      </trkpt>
      <trkpt lat="46.11264" lon="4.77325">
        <ele>171.40039</ele>
        <time>2026-05-13T12:33:10+02:00</time>
      </trkpt>
      <trkpt lat="46.1127" lon="4.77326">
        <ele>171.5</ele>
        <time>2026-05-13T12:33:11+02:00</time>
      </trkpt>
      <trkpt lat="46.11277" lon="4.77327">
        <ele>171.5</ele>
        <time>2026-05-13T12:33:12+02:00</time>
      </trkpt>
      <trkpt lat="46.11284" lon="4.77328">
        <ele>171.5</ele>
        <time>2026-05-13T12:33:13+02:00</time>
      </trkpt>
      <trkpt lat="46.1129" lon="4.77329">
        <ele>171.60059</ele>
        <time>2026-05-13T12:33:14+02:00</time>
      </trkpt>
      <trkpt lat="46.11297" lon="4.7733">
        <ele>171.60059</ele>
        <time>2026-05-13T12:33:15+02:00</time>
      </trkpt>
      <trkpt lat="46.11303" lon="4.77331">
        <ele>171.60059</ele>
        <time>2026-05-13T12:33:16+02:00</time>
      </trkpt>
      <trkpt lat="46.1131" lon="4.77332">
        <ele>171.60059</ele>
        <time>2026-05-13T12:33:17+02:00</time>
      </trkpt>
      <trkpt lat="46.11317" lon="4.77333">
        <ele>171.7002</ele>
        <time>2026-05-13T12:33:18+02:00</time>
      </trkpt>
      <trkpt lat="46.11323" lon="4.77334">
        <ele>171.7002</ele>
        <time>2026-05-13T12:33:19+02:00</time>
      </trkpt>
      <trkpt lat="46.1133" lon="4.77335">
        <ele>171.7002</ele>
        <time>2026-05-13T12:33:20+02:00</time>
      </trkpt>
      <trkpt lat="46.11337" lon="4.77336">
        <ele>171.60059</ele>
        <time>2026-05-13T12:33:21+02:00</time>
      </trkpt>
      <trkpt lat="46.11344" lon="4.77337">
        <ele>171.5</ele>
        <time>2026-05-13T12:33:22+02:00</time>
      </trkpt>
      <trkpt lat="46.1135" lon="4.77338">
        <ele>171.40039</ele>
        <time>2026-05-13T12:33:23+02:00</time>
      </trkpt>
      <trkpt lat="46.11357" lon="4.77339">
        <ele>171.60059</ele>
        <time>2026-05-13T12:33:24+02:00</time>
      </trkpt>
      <trkpt lat="46.11363" lon="4.7734">
        <ele>171.60059</ele>
        <time>2026-05-13T12:33:25+02:00</time>
      </trkpt>
      <trkpt lat="46.1137" lon="4.7734">
        <ele>171.5</ele>
        <time>2026-05-13T12:33:26+02:00</time>
      </trkpt>
      <trkpt lat="46.11376" lon="4.77341">
        <ele>171.5</ele>
        <time>2026-05-13T12:33:27+02:00</time>
      </trkpt>
      <trkpt lat="46.11382" lon="4.77342">
        <ele>171.40039</ele>
        <time>2026-05-13T12:33:28+02:00</time>
      </trkpt>
      <trkpt lat="46.11389" lon="4.77344">
        <ele>171.2998</ele>
        <time>2026-05-13T12:33:29+02:00</time>
      </trkpt>
      <trkpt lat="46.11395" lon="4.77345">
        <ele>171.2998</ele>
        <time>2026-05-13T12:33:30+02:00</time>
      </trkpt>
      <trkpt lat="46.11401" lon="4.77347">
        <ele>171.2998</ele>
        <time>2026-05-13T12:33:31+02:00</time>
      </trkpt>
      <trkpt lat="46.11408" lon="4.77348">
        <ele>171.2002</ele>
        <time>2026-05-13T12:33:32+02:00</time>
      </trkpt>
      <trkpt lat="46.11414" lon="4.7735">
        <ele>171.2002</ele>
        <time>2026-05-13T12:33:33+02:00</time>
      </trkpt>
      <trkpt lat="46.11421" lon="4.77352">
        <ele>171.2002</ele>
        <time>2026-05-13T12:33:34+02:00</time>
      </trkpt>
      <trkpt lat="46.11427" lon="4.77354">
        <ele>171.10059</ele>
        <time>2026-05-13T12:33:35+02:00</time>
      </trkpt>
      <trkpt lat="46.11433" lon="4.77356">
        <ele>171</ele>
        <time>2026-05-13T12:33:36+02:00</time>
      </trkpt>
      <trkpt lat="46.1144" lon="4.77357">
        <ele>171</ele>
        <time>2026-05-13T12:33:37+02:00</time>
      </trkpt>
      <trkpt lat="46.11446" lon="4.77359">
        <ele>171</ele>
        <time>2026-05-13T12:33:38+02:00</time>
      </trkpt>
      <trkpt lat="46.11453" lon="4.7736">
        <ele>170.90039</ele>
        <time>2026-05-13T12:33:39+02:00</time>
      </trkpt>
      <trkpt lat="46.11459" lon="4.77361">
        <ele>170.90039</ele>
        <time>2026-05-13T12:33:40+02:00</time>
      </trkpt>
      <trkpt lat="46.11465" lon="4.77361">
        <ele>170.90039</ele>
        <time>2026-05-13T12:33:41+02:00</time>
      </trkpt>
      <trkpt lat="46.11471" lon="4.77362">
        <ele>170.90039</ele>
        <time>2026-05-13T12:33:42+02:00</time>
      </trkpt>
      <trkpt lat="46.11477" lon="4.77363">
        <ele>170.7998</ele>
        <time>2026-05-13T12:33:43+02:00</time>
      </trkpt>
      <trkpt lat="46.11484" lon="4.77365">
        <ele>170.7002</ele>
        <time>2026-05-13T12:33:44+02:00</time>
      </trkpt>
      <trkpt lat="46.1149" lon="4.77367">
        <ele>170.7002</ele>
        <time>2026-05-13T12:33:45+02:00</time>
      </trkpt>
      <trkpt lat="46.11496" lon="4.77369">
        <ele>170.60059</ele>
        <time>2026-05-13T12:33:46+02:00</time>
      </trkpt>
      <trkpt lat="46.11502" lon="4.77371">
        <ele>170.5</ele>
        <time>2026-05-13T12:33:47+02:00</time>
      </trkpt>
      <trkpt lat="46.11508" lon="4.77373">
        <ele>170.40039</ele>
        <time>2026-05-13T12:33:48+02:00</time>
      </trkpt>
      <trkpt lat="46.11514" lon="4.77376">
        <ele>170.10059</ele>
        <time>2026-05-13T12:33:49+02:00</time>
      </trkpt>
      <trkpt lat="46.1152" lon="4.77378">
        <ele>170</ele>
        <time>2026-05-13T12:33:50+02:00</time>
      </trkpt>
      <trkpt lat="46.11526" lon="4.77381">
        <ele>169.7002</ele>
        <time>2026-05-13T12:33:51+02:00</time>
      </trkpt>
      <trkpt lat="46.11532" lon="4.77384">
        <ele>169.60059</ele>
        <time>2026-05-13T12:33:52+02:00</time>
      </trkpt>
      <trkpt lat="46.11538" lon="4.77387">
        <ele>169.5</ele>
        <time>2026-05-13T12:33:53+02:00</time>
      </trkpt>
      <trkpt lat="46.11544" lon="4.7739">
        <ele>169.5</ele>
        <time>2026-05-13T12:33:54+02:00</time>
      </trkpt>
      <trkpt lat="46.1155" lon="4.77393">
        <ele>169.40039</ele>
        <time>2026-05-13T12:33:55+02:00</time>
      </trkpt>
      <trkpt lat="46.11556" lon="4.77396">
        <ele>169.2998</ele>
        <time>2026-05-13T12:33:56+02:00</time>
      </trkpt>
      <trkpt lat="46.11562" lon="4.77399">
        <ele>169.2998</ele>
        <time>2026-05-13T12:33:57+02:00</time>
      </trkpt>
      <trkpt lat="46.11569" lon="4.77402">
        <ele>169.2002</ele>
        <time>2026-05-13T12:33:58+02:00</time>
      </trkpt>
      <trkpt lat="46.11575" lon="4.77406">
        <ele>169.2002</ele>
        <time>2026-05-13T12:33:59+02:00</time>
      </trkpt>
      <trkpt lat="46.11582" lon="4.77409">
        <ele>169.2002</ele>
        <time>2026-05-13T12:34:00+02:00</time>
      </trkpt>
      <trkpt lat="46.11588" lon="4.77412">
        <ele>169.2998</ele>
        <time>2026-05-13T12:34:01+02:00</time>
      </trkpt>
      <trkpt lat="46.11595" lon="4.77416">
        <ele>169.40039</ele>
        <time>2026-05-13T12:34:02+02:00</time>
      </trkpt>
      <trkpt lat="46.11601" lon="4.77419">
        <ele>169.5</ele>
        <time>2026-05-13T12:34:03+02:00</time>
      </trkpt>
      <trkpt lat="46.11608" lon="4.77422">
        <ele>169.60059</ele>
        <time>2026-05-13T12:34:04+02:00</time>
      </trkpt>
      <trkpt lat="46.11614" lon="4.77425">
        <ele>169.60059</ele>
        <time>2026-05-13T12:34:05+02:00</time>
      </trkpt>
      <trkpt lat="46.1162" lon="4.77428">
        <ele>169.7002</ele>
        <time>2026-05-13T12:34:06+02:00</time>
      </trkpt>
      <trkpt lat="46.11627" lon="4.77431">
        <ele>170</ele>
        <time>2026-05-13T12:34:07+02:00</time>
      </trkpt>
      <trkpt lat="46.11633" lon="4.77435">
        <ele>170</ele>
        <time>2026-05-13T12:34:08+02:00</time>
      </trkpt>
      <trkpt lat="46.11639" lon="4.77439">
        <ele>170.2998</ele>
        <time>2026-05-13T12:34:09+02:00</time>
      </trkpt>
      <trkpt lat="46.11645" lon="4.77444">
        <ele>170.5</ele>
        <time>2026-05-13T12:34:10+02:00</time>
      </trkpt>
      <trkpt lat="46.11652" lon="4.77449">
        <ele>170.7002</ele>
        <time>2026-05-13T12:34:11+02:00</time>
      </trkpt>
      <trkpt lat="46.11657" lon="4.77454">
        <ele>170.5</ele>
        <time>2026-05-13T12:34:12+02:00</time>
      </trkpt>
      <trkpt lat="46.11664" lon="4.77459">
        <ele>170.40039</ele>
        <time>2026-05-13T12:34:13+02:00</time>
      </trkpt>
      <trkpt lat="46.1167" lon="4.77464">
        <ele>170.40039</ele>
        <time>2026-05-13T12:34:14+02:00</time>
      </trkpt>
      <trkpt lat="46.11676" lon="4.77469">
        <ele>170.40039</ele>
        <time>2026-05-13T12:34:15+02:00</time>
      </trkpt>
      <trkpt lat="46.11682" lon="4.77474">
        <ele>170.40039</ele>
        <time>2026-05-13T12:34:16+02:00</time>
      </trkpt>
      <trkpt lat="46.11688" lon="4.77478">
        <ele>170.2998</ele>
        <time>2026-05-13T12:34:17+02:00</time>
      </trkpt>
      <trkpt lat="46.11694" lon="4.77483">
        <ele>170</ele>
        <time>2026-05-13T12:34:18+02:00</time>
      </trkpt>
      <trkpt lat="46.11701" lon="4.77488">
        <ele>170</ele>
        <time>2026-05-13T12:34:19+02:00</time>
      </trkpt>
      <trkpt lat="46.11707" lon="4.77493">
        <ele>170</ele>
        <time>2026-05-13T12:34:20+02:00</time>
      </trkpt>
      <trkpt lat="46.11713" lon="4.77497">
        <ele>170.40039</ele>
        <time>2026-05-13T12:34:21+02:00</time>
      </trkpt>
      <trkpt lat="46.11719" lon="4.77502">
        <ele>170.60059</ele>
        <time>2026-05-13T12:34:22+02:00</time>
      </trkpt>
      <trkpt lat="46.11726" lon="4.77507">
        <ele>170.60059</ele>
        <time>2026-05-13T12:34:23+02:00</time>
      </trkpt>
      <trkpt lat="46.11731" lon="4.77511">
        <ele>170.7002</ele>
        <time>2026-05-13T12:34:24+02:00</time>
      </trkpt>
      <trkpt lat="46.11738" lon="4.77516">
        <ele>170.7002</ele>
        <time>2026-05-13T12:34:25+02:00</time>
      </trkpt>
      <trkpt lat="46.11744" lon="4.7752">
        <ele>171</ele>
        <time>2026-05-13T12:34:26+02:00</time>
      </trkpt>
      <trkpt lat="46.1175" lon="4.77525">
        <ele>171</ele>
        <time>2026-05-13T12:34:27+02:00</time>
      </trkpt>
      <trkpt lat="46.11756" lon="4.77529">
        <ele>171.5</ele>
        <time>2026-05-13T12:34:28+02:00</time>
      </trkpt>
      <trkpt lat="46.11762" lon="4.77533">
        <ele>171.7002</ele>
        <time>2026-05-13T12:34:29+02:00</time>
      </trkpt>
      <trkpt lat="46.11769" lon="4.77537">
        <ele>172.10059</ele>
        <time>2026-05-13T12:34:30+02:00</time>
      </trkpt>
      <trkpt lat="46.11775" lon="4.7754">
        <ele>172.10059</ele>
        <time>2026-05-13T12:34:31+02:00</time>
      </trkpt>
      <trkpt lat="46.11781" lon="4.77544">
        <ele>172.10059</ele>
        <time>2026-05-13T12:34:32+02:00</time>
      </trkpt>
      <trkpt lat="46.11788" lon="4.77548">
        <ele>172.10059</ele>
        <time>2026-05-13T12:34:33+02:00</time>
      </trkpt>
      <trkpt lat="46.11794" lon="4.77552">
        <ele>172.10059</ele>
        <time>2026-05-13T12:34:34+02:00</time>
      </trkpt>
      <trkpt lat="46.11801" lon="4.77555">
        <ele>172.40039</ele>
        <time>2026-05-13T12:34:35+02:00</time>
      </trkpt>
      <trkpt lat="46.11807" lon="4.77559">
        <ele>172.5</ele>
        <time>2026-05-13T12:34:36+02:00</time>
      </trkpt>
      <trkpt lat="46.11813" lon="4.77563">
        <ele>172.60059</ele>
        <time>2026-05-13T12:34:37+02:00</time>
      </trkpt>
      <trkpt lat="46.1182" lon="4.77566">
        <ele>172.5</ele>
        <time>2026-05-13T12:34:38+02:00</time>
      </trkpt>
      <trkpt lat="46.11826" lon="4.7757">
        <ele>172.2998</ele>
        <time>2026-05-13T12:34:39+02:00</time>
      </trkpt>
      <trkpt lat="46.11832" lon="4.77574">
        <ele>172.10059</ele>
        <time>2026-05-13T12:34:40+02:00</time>
      </trkpt>
      <trkpt lat="46.11838" lon="4.77577">
        <ele>171.90039</ele>
        <time>2026-05-13T12:34:41+02:00</time>
      </trkpt>
      <trkpt lat="46.11845" lon="4.77581">
        <ele>172.10059</ele>
        <time>2026-05-13T12:34:42+02:00</time>
      </trkpt>
      <trkpt lat="46.11851" lon="4.77584">
        <ele>172.10059</ele>
        <time>2026-05-13T12:34:43+02:00</time>
      </trkpt>
      <trkpt lat="46.11858" lon="4.77588">
        <ele>172.2002</ele>
        <time>2026-05-13T12:34:44+02:00</time>
      </trkpt>
      <trkpt lat="46.11864" lon="4.77591">
        <ele>172.2002</ele>
        <time>2026-05-13T12:34:45+02:00</time>
      </trkpt>
      <trkpt lat="46.1187" lon="4.77595">
        <ele>172.2002</ele>
        <time>2026-05-13T12:34:46+02:00</time>
      </trkpt>
      <trkpt lat="46.11877" lon="4.77598">
        <ele>172.2002</ele>
        <time>2026-05-13T12:34:47+02:00</time>
      </trkpt>
      <trkpt lat="46.11883" lon="4.77601">
        <ele>172.2002</ele>
        <time>2026-05-13T12:34:48+02:00</time>
      </trkpt>
      <trkpt lat="46.11889" lon="4.77605">
        <ele>172.2998</ele>
        <time>2026-05-13T12:34:49+02:00</time>
      </trkpt>
      <trkpt lat="46.11896" lon="4.77608">
        <ele>172.2998</ele>
        <time>2026-05-13T12:34:50+02:00</time>
      </trkpt>
      <trkpt lat="46.11902" lon="4.77611">
        <ele>172.40039</ele>
        <time>2026-05-13T12:34:51+02:00</time>
      </trkpt>
      <trkpt lat="46.11908" lon="4.77613">
        <ele>172.5</ele>
        <time>2026-05-13T12:34:52+02:00</time>
      </trkpt>
      <trkpt lat="46.11914" lon="4.77616">
        <ele>172.7998</ele>
        <time>2026-05-13T12:34:53+02:00</time>
      </trkpt>
      <trkpt lat="46.1192" lon="4.77619">
        <ele>173</ele>
        <time>2026-05-13T12:34:54+02:00</time>
      </trkpt>
      <trkpt lat="46.11926" lon="4.77621">
        <ele>173.2998</ele>
        <time>2026-05-13T12:34:55+02:00</time>
      </trkpt>
      <trkpt lat="46.11932" lon="4.77623">
        <ele>173.2002</ele>
        <time>2026-05-13T12:34:56+02:00</time>
      </trkpt>
      <trkpt lat="46.11938" lon="4.77625">
        <ele>173.2002</ele>
        <time>2026-05-13T12:34:57+02:00</time>
      </trkpt>
      <trkpt lat="46.11944" lon="4.77628">
        <ele>173.10059</ele>
        <time>2026-05-13T12:34:58+02:00</time>
      </trkpt>
      <trkpt lat="46.11949" lon="4.77631">
        <ele>173.2002</ele>
        <time>2026-05-13T12:34:59+02:00</time>
      </trkpt>
      <trkpt lat="46.11955" lon="4.77635">
        <ele>173.2998</ele>
        <time>2026-05-13T12:35:00+02:00</time>
      </trkpt>
      <trkpt lat="46.11961" lon="4.77639">
        <ele>173.40039</ele>
        <time>2026-05-13T12:35:01+02:00</time>
      </trkpt>
      <trkpt lat="46.11966" lon="4.77642">
        <ele>173.7002</ele>
        <time>2026-05-13T12:35:02+02:00</time>
      </trkpt>
      <trkpt lat="46.11972" lon="4.77646">
        <ele>173.7998</ele>
        <time>2026-05-13T12:35:03+02:00</time>
      </trkpt>
      <trkpt lat="46.11978" lon="4.77649">
        <ele>173.5</ele>
        <time>2026-05-13T12:35:04+02:00</time>
      </trkpt>
      <trkpt lat="46.11984" lon="4.77652">
        <ele>173.2998</ele>
        <time>2026-05-13T12:35:05+02:00</time>
      </trkpt>
      <trkpt lat="46.1199" lon="4.77655">
        <ele>173</ele>
        <time>2026-05-13T12:35:06+02:00</time>
      </trkpt>
      <trkpt lat="46.11996" lon="4.77659">
        <ele>173</ele>
        <time>2026-05-13T12:35:07+02:00</time>
      </trkpt>
      <trkpt lat="46.12002" lon="4.77662">
        <ele>172.90039</ele>
        <time>2026-05-13T12:35:08+02:00</time>
      </trkpt>
      <trkpt lat="46.12008" lon="4.77666">
        <ele>173</ele>
        <time>2026-05-13T12:35:09+02:00</time>
      </trkpt>
      <trkpt lat="46.12015" lon="4.77669">
        <ele>172.7002</ele>
        <time>2026-05-13T12:35:10+02:00</time>
      </trkpt>
      <trkpt lat="46.12021" lon="4.77673">
        <ele>172.2998</ele>
        <time>2026-05-13T12:35:11+02:00</time>
      </trkpt>
      <trkpt lat="46.12027" lon="4.77678">
        <ele>172.2002</ele>
        <time>2026-05-13T12:35:12+02:00</time>
      </trkpt>
      <trkpt lat="46.12033" lon="4.77682">
        <ele>171.7998</ele>
        <time>2026-05-13T12:35:13+02:00</time>
      </trkpt>
      <trkpt lat="46.12039" lon="4.77686">
        <ele>171.7998</ele>
        <time>2026-05-13T12:35:14+02:00</time>
      </trkpt>
      <trkpt lat="46.12045" lon="4.77691">
        <ele>171.90039</ele>
        <time>2026-05-13T12:35:15+02:00</time>
      </trkpt>
      <trkpt lat="46.1205" lon="4.77697">
        <ele>171.5</ele>
        <time>2026-05-13T12:35:16+02:00</time>
      </trkpt>
      <trkpt lat="46.12056" lon="4.77702">
        <ele>171.5</ele>
        <time>2026-05-13T12:35:17+02:00</time>
      </trkpt>
      <trkpt lat="46.12061" lon="4.77708">
        <ele>171.40039</ele>
        <time>2026-05-13T12:35:18+02:00</time>
      </trkpt>
      <trkpt lat="46.12066" lon="4.77714">
        <ele>171.40039</ele>
        <time>2026-05-13T12:35:19+02:00</time>
      </trkpt>
      <trkpt lat="46.12072" lon="4.77719">
        <ele>171.2002</ele>
        <time>2026-05-13T12:35:20+02:00</time>
      </trkpt>
      <trkpt lat="46.12078" lon="4.77724">
        <ele>170.7002</ele>
        <time>2026-05-13T12:35:21+02:00</time>
      </trkpt>
      <trkpt lat="46.12084" lon="4.77729">
        <ele>170.60059</ele>
        <time>2026-05-13T12:35:22+02:00</time>
      </trkpt>
      <trkpt lat="46.12089" lon="4.77734">
        <ele>170.40039</ele>
        <time>2026-05-13T12:35:23+02:00</time>
      </trkpt>
      <trkpt lat="46.12095" lon="4.7774">
        <ele>170</ele>
        <time>2026-05-13T12:35:24+02:00</time>
      </trkpt>
      <trkpt lat="46.12101" lon="4.77745">
        <ele>169.90039</ele>
        <time>2026-05-13T12:35:25+02:00</time>
      </trkpt>
      <trkpt lat="46.12106" lon="4.7775">
        <ele>169.40039</ele>
        <time>2026-05-13T12:35:26+02:00</time>
      </trkpt>
      <trkpt lat="46.12112" lon="4.77756">
        <ele>169.2998</ele>
        <time>2026-05-13T12:35:27+02:00</time>
      </trkpt>
      <trkpt lat="46.12117" lon="4.77761">
        <ele>169.5</ele>
        <time>2026-05-13T12:35:28+02:00</time>
      </trkpt>
      <trkpt lat="46.12122" lon="4.77767">
        <ele>169.2002</ele>
        <time>2026-05-13T12:35:29+02:00</time>
      </trkpt>
      <trkpt lat="46.12127" lon="4.77772">
        <ele>169.60059</ele>
        <time>2026-05-13T12:35:30+02:00</time>
      </trkpt>
      <trkpt lat="46.12132" lon="4.77777">
        <ele>170.2002</ele>
        <time>2026-05-13T12:35:31+02:00</time>
      </trkpt>
      <trkpt lat="46.12138" lon="4.77782">
        <ele>169.7998</ele>
        <time>2026-05-13T12:35:32+02:00</time>
      </trkpt>
      <trkpt lat="46.12143" lon="4.77786">
        <ele>170</ele>
        <time>2026-05-13T12:35:33+02:00</time>
      </trkpt>
      <trkpt lat="46.12148" lon="4.7779">
        <ele>169.7998</ele>
        <time>2026-05-13T12:35:34+02:00</time>
      </trkpt>
      <trkpt lat="46.12154" lon="4.77793">
        <ele>169.60059</ele>
        <time>2026-05-13T12:35:35+02:00</time>
      </trkpt>
      <trkpt lat="46.12159" lon="4.77797">
        <ele>170.10059</ele>
        <time>2026-05-13T12:35:36+02:00</time>
      </trkpt>
      <trkpt lat="46.12164" lon="4.77801">
        <ele>169.90039</ele>
        <time>2026-05-13T12:35:37+02:00</time>
      </trkpt>
      <trkpt lat="46.1217" lon="4.77807">
        <ele>170</ele>
        <time>2026-05-13T12:35:38+02:00</time>
      </trkpt>
      <trkpt lat="46.12175" lon="4.77813">
        <ele>170.40039</ele>
        <time>2026-05-13T12:35:39+02:00</time>
      </trkpt>
      <trkpt lat="46.12179" lon="4.7782">
        <ele>171.10059</ele>
        <time>2026-05-13T12:35:40+02:00</time>
      </trkpt>
      <trkpt lat="46.12183" lon="4.77827">
        <ele>170.90039</ele>
        <time>2026-05-13T12:35:41+02:00</time>
      </trkpt>
      <trkpt lat="46.12187" lon="4.77835">
        <ele>171.40039</ele>
        <time>2026-05-13T12:35:42+02:00</time>
      </trkpt>
      <trkpt lat="46.12192" lon="4.77843">
        <ele>171.5</ele>
        <time>2026-05-13T12:35:43+02:00</time>
      </trkpt>
      <trkpt lat="46.12196" lon="4.7785">
        <ele>171.90039</ele>
        <time>2026-05-13T12:35:44+02:00</time>
      </trkpt>
      <trkpt lat="46.12201" lon="4.77856">
        <ele>171.7998</ele>
        <time>2026-05-13T12:35:45+02:00</time>
      </trkpt>
      <trkpt lat="46.12206" lon="4.77863">
        <ele>171.7002</ele>
        <time>2026-05-13T12:35:46+02:00</time>
      </trkpt>
      <trkpt lat="46.12211" lon="4.7787">
        <ele>171.40039</ele>
        <time>2026-05-13T12:35:47+02:00</time>
      </trkpt>
      <trkpt lat="46.12216" lon="4.77877">
        <ele>171.2998</ele>
        <time>2026-05-13T12:35:48+02:00</time>
      </trkpt>
      <trkpt lat="46.12221" lon="4.77884">
        <ele>171.40039</ele>
        <time>2026-05-13T12:35:49+02:00</time>
      </trkpt>
      <trkpt lat="46.12226" lon="4.77891">
        <ele>171.10059</ele>
        <time>2026-05-13T12:35:50+02:00</time>
      </trkpt>
      <trkpt lat="46.12231" lon="4.77898">
        <ele>170.90039</ele>
        <time>2026-05-13T12:35:51+02:00</time>
      </trkpt>
      <trkpt lat="46.12237" lon="4.77906">
        <ele>170.7998</ele>
        <time>2026-05-13T12:35:52+02:00</time>
      </trkpt>
      <trkpt lat="46.12242" lon="4.77913">
        <ele>170.60059</ele>
        <time>2026-05-13T12:35:53+02:00</time>
      </trkpt>
      <trkpt lat="46.12247" lon="4.7792">
        <ele>170.2998</ele>
        <time>2026-05-13T12:35:54+02:00</time>
      </trkpt>
      <trkpt lat="46.12253" lon="4.77926">
        <ele>170.10059</ele>
        <time>2026-05-13T12:35:55+02:00</time>
      </trkpt>
      <trkpt lat="46.12259" lon="4.77932">
        <ele>169.90039</ele>
        <time>2026-05-13T12:35:56+02:00</time>
      </trkpt>
      <trkpt lat="46.12265" lon="4.77938">
        <ele>169.7998</ele>
        <time>2026-05-13T12:35:57+02:00</time>
      </trkpt>
      <trkpt lat="46.1227" lon="4.77944">
        <ele>169.60059</ele>
        <time>2026-05-13T12:35:58+02:00</time>
      </trkpt>
      <trkpt lat="46.12276" lon="4.7795">
        <ele>169.5</ele>
        <time>2026-05-13T12:35:59+02:00</time>
      </trkpt>
      <trkpt lat="46.12282" lon="4.77956">
        <ele>169.2998</ele>
        <time>2026-05-13T12:36:00+02:00</time>
      </trkpt>
      <trkpt lat="46.12288" lon="4.77961">
        <ele>169.2998</ele>
        <time>2026-05-13T12:36:01+02:00</time>
      </trkpt>
      <trkpt lat="46.12294" lon="4.77967">
        <ele>169.40039</ele>
        <time>2026-05-13T12:36:02+02:00</time>
      </trkpt>
      <trkpt lat="46.123" lon="4.77972">
        <ele>169.2998</ele>
        <time>2026-05-13T12:36:03+02:00</time>
      </trkpt>
      <trkpt lat="46.12306" lon="4.77978">
        <ele>169.40039</ele>
        <time>2026-05-13T12:36:04+02:00</time>
      </trkpt>
      <trkpt lat="46.12311" lon="4.77984">
        <ele>169.5</ele>
        <time>2026-05-13T12:36:05+02:00</time>
      </trkpt>
      <trkpt lat="46.12317" lon="4.7799">
        <ele>169.40039</ele>
        <time>2026-05-13T12:36:06+02:00</time>
      </trkpt>
      <trkpt lat="46.12322" lon="4.77996">
        <ele>169.60059</ele>
        <time>2026-05-13T12:36:07+02:00</time>
      </trkpt>
      <trkpt lat="46.12327" lon="4.78002">
        <ele>169.60059</ele>
        <time>2026-05-13T12:36:08+02:00</time>
      </trkpt>
      <trkpt lat="46.12333" lon="4.78008">
        <ele>169.5</ele>
        <time>2026-05-13T12:36:09+02:00</time>
      </trkpt>
      <trkpt lat="46.12338" lon="4.78014">
        <ele>169.5</ele>
        <time>2026-05-13T12:36:10+02:00</time>
      </trkpt>
      <trkpt lat="46.12343" lon="4.7802">
        <ele>169.5</ele>
        <time>2026-05-13T12:36:11+02:00</time>
      </trkpt>
      <trkpt lat="46.12348" lon="4.78026">
        <ele>169.40039</ele>
        <time>2026-05-13T12:36:12+02:00</time>
      </trkpt>
      <trkpt lat="46.12353" lon="4.78033">
        <ele>169.2002</ele>
        <time>2026-05-13T12:36:13+02:00</time>
      </trkpt>
      <trkpt lat="46.12358" lon="4.78039">
        <ele>169.2998</ele>
        <time>2026-05-13T12:36:14+02:00</time>
      </trkpt>
      <trkpt lat="46.12364" lon="4.78045">
        <ele>169.2002</ele>
        <time>2026-05-13T12:36:15+02:00</time>
      </trkpt>
      <trkpt lat="46.12369" lon="4.78052">
        <ele>169.2002</ele>
        <time>2026-05-13T12:36:16+02:00</time>
      </trkpt>
      <trkpt lat="46.12373" lon="4.78059">
        <ele>169.10059</ele>
        <time>2026-05-13T12:36:17+02:00</time>
      </trkpt>
      <trkpt lat="46.12379" lon="4.78065">
        <ele>169.10059</ele>
        <time>2026-05-13T12:36:18+02:00</time>
      </trkpt>
      <trkpt lat="46.12384" lon="4.78072">
        <ele>169.2002</ele>
        <time>2026-05-13T12:36:19+02:00</time>
      </trkpt>
      <trkpt lat="46.12389" lon="4.78079">
        <ele>169.2998</ele>
        <time>2026-05-13T12:36:20+02:00</time>
      </trkpt>
      <trkpt lat="46.12394" lon="4.78085">
        <ele>169.10059</ele>
        <time>2026-05-13T12:36:21+02:00</time>
      </trkpt>
      <trkpt lat="46.12399" lon="4.78092">
        <ele>169.2998</ele>
        <time>2026-05-13T12:36:22+02:00</time>
      </trkpt>
      <trkpt lat="46.12404" lon="4.78099">
        <ele>169.40039</ele>
        <time>2026-05-13T12:36:23+02:00</time>
      </trkpt>
      <trkpt lat="46.12409" lon="4.78106">
        <ele>169.5</ele>
        <time>2026-05-13T12:36:24+02:00</time>
      </trkpt>
      <trkpt lat="46.12414" lon="4.78113">
        <ele>169.7002</ele>
        <time>2026-05-13T12:36:25+02:00</time>
      </trkpt>
      <trkpt lat="46.1242" lon="4.78119">
        <ele>169.40039</ele>
        <time>2026-05-13T12:36:26+02:00</time>
      </trkpt>
      <trkpt lat="46.12425" lon="4.78126">
        <ele>169.2002</ele>
        <time>2026-05-13T12:36:27+02:00</time>
      </trkpt>
      <trkpt lat="46.1243" lon="4.78133">
        <ele>168.7002</ele>
        <time>2026-05-13T12:36:28+02:00</time>
      </trkpt>
      <trkpt lat="46.12435" lon="4.78139">
        <ele>168.7998</ele>
        <time>2026-05-13T12:36:29+02:00</time>
      </trkpt>
      <trkpt lat="46.12439" lon="4.78145">
        <ele>168.60059</ele>
        <time>2026-05-13T12:36:30+02:00</time>
      </trkpt>
      <trkpt lat="46.12444" lon="4.78152">
        <ele>169.2998</ele>
        <time>2026-05-13T12:36:31+02:00</time>
      </trkpt>
      <trkpt lat="46.12449" lon="4.78158">
        <ele>169.5</ele>
        <time>2026-05-13T12:36:32+02:00</time>
      </trkpt>
      <trkpt lat="46.12454" lon="4.78164">
        <ele>169.40039</ele>
        <time>2026-05-13T12:36:33+02:00</time>
      </trkpt>
      <trkpt lat="46.12459" lon="4.7817">
        <ele>169.40039</ele>
        <time>2026-05-13T12:36:34+02:00</time>
      </trkpt>
      <trkpt lat="46.12464" lon="4.78176">
        <ele>169.5</ele>
        <time>2026-05-13T12:36:35+02:00</time>
      </trkpt>
      <trkpt lat="46.12468" lon="4.78183">
        <ele>170.10059</ele>
        <time>2026-05-13T12:36:36+02:00</time>
      </trkpt>
      <trkpt lat="46.12473" lon="4.78189">
        <ele>170.2998</ele>
        <time>2026-05-13T12:36:37+02:00</time>
      </trkpt>
      <trkpt lat="46.12478" lon="4.78195">
        <ele>169.90039</ele>
        <time>2026-05-13T12:36:38+02:00</time>
      </trkpt>
      <trkpt lat="46.12494" lon="4.78214">
        <ele>170.5</ele>
        <time>2026-05-13T12:36:39+02:00</time>
      </trkpt>
      <trkpt lat="46.12499" lon="4.7822">
        <ele>171.10059</ele>
        <time>2026-05-13T12:36:40+02:00</time>
      </trkpt>
      <trkpt lat="46.12504" lon="4.78226">
        <ele>171.2998</ele>
        <time>2026-05-13T12:36:41+02:00</time>
      </trkpt>
      <trkpt lat="46.12509" lon="4.78232">
        <ele>171.2998</ele>
        <time>2026-05-13T12:36:42+02:00</time>
      </trkpt>
      <trkpt lat="46.12515" lon="4.78239">
        <ele>170.90039</ele>
        <time>2026-05-13T12:36:43+02:00</time>
      </trkpt>
      <trkpt lat="46.1252" lon="4.78245">
        <ele>171</ele>
        <time>2026-05-13T12:36:44+02:00</time>
      </trkpt>
      <trkpt lat="46.12525" lon="4.78252">
        <ele>171.10059</ele>
        <time>2026-05-13T12:36:45+02:00</time>
      </trkpt>
      <trkpt lat="46.1253" lon="4.78259">
        <ele>171.5</ele>
        <time>2026-05-13T12:36:46+02:00</time>
      </trkpt>
      <trkpt lat="46.12534" lon="4.78266">
        <ele>171.40039</ele>
        <time>2026-05-13T12:36:47+02:00</time>
      </trkpt>
      <trkpt lat="46.12539" lon="4.78272">
        <ele>170.90039</ele>
        <time>2026-05-13T12:36:48+02:00</time>
      </trkpt>
      <trkpt lat="46.12544" lon="4.78278">
        <ele>170.90039</ele>
        <time>2026-05-13T12:36:49+02:00</time>
      </trkpt>
      <trkpt lat="46.12549" lon="4.78285">
        <ele>170.7998</ele>
        <time>2026-05-13T12:36:50+02:00</time>
      </trkpt>
      <trkpt lat="46.12554" lon="4.78291">
        <ele>170.7998</ele>
        <time>2026-05-13T12:36:51+02:00</time>
      </trkpt>
      <trkpt lat="46.12558" lon="4.78297">
        <ele>170.60059</ele>
        <time>2026-05-13T12:36:52+02:00</time>
      </trkpt>
      <trkpt lat="46.12563" lon="4.78303">
        <ele>170.2998</ele>
        <time>2026-05-13T12:36:53+02:00</time>
      </trkpt>
      <trkpt lat="46.12568" lon="4.78308">
        <ele>169.90039</ele>
        <time>2026-05-13T12:36:54+02:00</time>
      </trkpt>
      <trkpt lat="46.12572" lon="4.78314">
        <ele>169.90039</ele>
        <time>2026-05-13T12:36:55+02:00</time>
      </trkpt>
      <trkpt lat="46.12576" lon="4.7832">
        <ele>169.7998</ele>
        <time>2026-05-13T12:36:56+02:00</time>
      </trkpt>
      <trkpt lat="46.12581" lon="4.78326">
        <ele>169.7002</ele>
        <time>2026-05-13T12:36:57+02:00</time>
      </trkpt>
      <trkpt lat="46.12585" lon="4.78333">
        <ele>169.5</ele>
        <time>2026-05-13T12:36:58+02:00</time>
      </trkpt>
      <trkpt lat="46.1259" lon="4.78338">
        <ele>169.60059</ele>
        <time>2026-05-13T12:36:59+02:00</time>
      </trkpt>
      <trkpt lat="46.12594" lon="4.78344">
        <ele>169.60059</ele>
        <time>2026-05-13T12:37:00+02:00</time>
      </trkpt>
      <trkpt lat="46.12599" lon="4.7835">
        <ele>169.40039</ele>
        <time>2026-05-13T12:37:01+02:00</time>
      </trkpt>
      <trkpt lat="46.12604" lon="4.78356">
        <ele>169.40039</ele>
        <time>2026-05-13T12:37:02+02:00</time>
      </trkpt>
      <trkpt lat="46.12608" lon="4.78363">
        <ele>169.60059</ele>
        <time>2026-05-13T12:37:03+02:00</time>
      </trkpt>
      <trkpt lat="46.12613" lon="4.78369">
        <ele>169.7002</ele>
        <time>2026-05-13T12:37:04+02:00</time>
      </trkpt>
      <trkpt lat="46.12618" lon="4.78375">
        <ele>169.5</ele>
        <time>2026-05-13T12:37:05+02:00</time>
      </trkpt>
      <trkpt lat="46.12622" lon="4.78381">
        <ele>169.60059</ele>
        <time>2026-05-13T12:37:06+02:00</time>
      </trkpt>
      <trkpt lat="46.12627" lon="4.78388">
        <ele>169.60059</ele>
        <time>2026-05-13T12:37:07+02:00</time>
      </trkpt>
      <trkpt lat="46.12632" lon="4.78394">
        <ele>169.40039</ele>
        <time>2026-05-13T12:37:08+02:00</time>
      </trkpt>
      <trkpt lat="46.12637" lon="4.78401">
        <ele>169.60059</ele>
        <time>2026-05-13T12:37:09+02:00</time>
      </trkpt>
      <trkpt lat="46.12642" lon="4.78407">
        <ele>169.2998</ele>
        <time>2026-05-13T12:37:10+02:00</time>
      </trkpt>
      <trkpt lat="46.12646" lon="4.78413">
        <ele>169</ele>
        <time>2026-05-13T12:37:11+02:00</time>
      </trkpt>
      <trkpt lat="46.12651" lon="4.7842">
        <ele>168.7998</ele>
        <time>2026-05-13T12:37:12+02:00</time>
      </trkpt>
      <trkpt lat="46.12656" lon="4.78426">
        <ele>169.10059</ele>
        <time>2026-05-13T12:37:13+02:00</time>
      </trkpt>
      <trkpt lat="46.12661" lon="4.78432">
        <ele>169.5</ele>
        <time>2026-05-13T12:37:14+02:00</time>
      </trkpt>
      <trkpt lat="46.12666" lon="4.78439">
        <ele>169.5</ele>
        <time>2026-05-13T12:37:15+02:00</time>
      </trkpt>
      <trkpt lat="46.12671" lon="4.78446">
        <ele>169.10059</ele>
        <time>2026-05-13T12:37:16+02:00</time>
      </trkpt>
      <trkpt lat="46.12676" lon="4.78453">
        <ele>169.10059</ele>
        <time>2026-05-13T12:37:17+02:00</time>
      </trkpt>
      <trkpt lat="46.12681" lon="4.78459">
        <ele>169.10059</ele>
        <time>2026-05-13T12:37:18+02:00</time>
      </trkpt>
      <trkpt lat="46.12686" lon="4.78466">
        <ele>169.10059</ele>
        <time>2026-05-13T12:37:19+02:00</time>
      </trkpt>
      <trkpt lat="46.1269" lon="4.78473">
        <ele>169.2998</ele>
        <time>2026-05-13T12:37:20+02:00</time>
      </trkpt>
      <trkpt lat="46.12696" lon="4.78479">
        <ele>169.10059</ele>
        <time>2026-05-13T12:37:21+02:00</time>
      </trkpt>
      <trkpt lat="46.12701" lon="4.78486">
        <ele>168.90039</ele>
        <time>2026-05-13T12:37:22+02:00</time>
      </trkpt>
      <trkpt lat="46.12706" lon="4.78493">
        <ele>168.7998</ele>
        <time>2026-05-13T12:37:23+02:00</time>
      </trkpt>
      <trkpt lat="46.12711" lon="4.78499">
        <ele>168.7998</ele>
        <time>2026-05-13T12:37:24+02:00</time>
      </trkpt>
      <trkpt lat="46.12715" lon="4.78506">
        <ele>168.7002</ele>
        <time>2026-05-13T12:37:25+02:00</time>
      </trkpt>
      <trkpt lat="46.1272" lon="4.78512">
        <ele>168.90039</ele>
        <time>2026-05-13T12:37:26+02:00</time>
      </trkpt>
      <trkpt lat="46.12725" lon="4.78518">
        <ele>168.90039</ele>
        <time>2026-05-13T12:37:27+02:00</time>
      </trkpt>
      <trkpt lat="46.12729" lon="4.78524">
        <ele>168.7998</ele>
        <time>2026-05-13T12:37:28+02:00</time>
      </trkpt>
      <trkpt lat="46.12735" lon="4.7853">
        <ele>168.60059</ele>
        <time>2026-05-13T12:37:29+02:00</time>
      </trkpt>
      <trkpt lat="46.12739" lon="4.78537">
        <ele>168.60059</ele>
        <time>2026-05-13T12:37:30+02:00</time>
      </trkpt>
      <trkpt lat="46.12744" lon="4.78543">
        <ele>169</ele>
        <time>2026-05-13T12:37:31+02:00</time>
      </trkpt>
      <trkpt lat="46.12749" lon="4.78549">
        <ele>168.90039</ele>
        <time>2026-05-13T12:37:32+02:00</time>
      </trkpt>
      <trkpt lat="46.12753" lon="4.78555">
        <ele>169.2998</ele>
        <time>2026-05-13T12:37:33+02:00</time>
      </trkpt>
      <trkpt lat="46.12758" lon="4.78561">
        <ele>169.5</ele>
        <time>2026-05-13T12:37:34+02:00</time>
      </trkpt>
      <trkpt lat="46.12763" lon="4.78567">
        <ele>169.7002</ele>
        <time>2026-05-13T12:37:35+02:00</time>
      </trkpt>
      <trkpt lat="46.12768" lon="4.78574">
        <ele>169.7002</ele>
        <time>2026-05-13T12:37:36+02:00</time>
      </trkpt>
      <trkpt lat="46.12773" lon="4.7858">
        <ele>170.10059</ele>
        <time>2026-05-13T12:37:37+02:00</time>
      </trkpt>
      <trkpt lat="46.12778" lon="4.78587">
        <ele>170.2998</ele>
        <time>2026-05-13T12:37:38+02:00</time>
      </trkpt>
      <trkpt lat="46.12783" lon="4.78594">
        <ele>170.2002</ele>
        <time>2026-05-13T12:37:39+02:00</time>
      </trkpt>
      <trkpt lat="46.12789" lon="4.78601">
        <ele>170</ele>
        <time>2026-05-13T12:37:40+02:00</time>
      </trkpt>
      <trkpt lat="46.12793" lon="4.78608">
        <ele>169.5</ele>
        <time>2026-05-13T12:37:41+02:00</time>
      </trkpt>
      <trkpt lat="46.12798" lon="4.78614">
        <ele>169.7998</ele>
        <time>2026-05-13T12:37:42+02:00</time>
      </trkpt>
      <trkpt lat="46.12803" lon="4.78621">
        <ele>169.7998</ele>
        <time>2026-05-13T12:37:43+02:00</time>
      </trkpt>
      <trkpt lat="46.12808" lon="4.78628">
        <ele>169.90039</ele>
        <time>2026-05-13T12:37:44+02:00</time>
      </trkpt>
      <trkpt lat="46.12813" lon="4.78634">
        <ele>169.60059</ele>
        <time>2026-05-13T12:37:45+02:00</time>
      </trkpt>
      <trkpt lat="46.12818" lon="4.7864">
        <ele>169.7002</ele>
        <time>2026-05-13T12:37:46+02:00</time>
      </trkpt>
      <trkpt lat="46.12823" lon="4.78647">
        <ele>169.7002</ele>
        <time>2026-05-13T12:37:47+02:00</time>
      </trkpt>
      <trkpt lat="46.12828" lon="4.78653">
        <ele>170</ele>
        <time>2026-05-13T12:37:48+02:00</time>
      </trkpt>
      <trkpt lat="46.12833" lon="4.7866">
        <ele>169.7002</ele>
        <time>2026-05-13T12:37:49+02:00</time>
      </trkpt>
      <trkpt lat="46.12838" lon="4.78666">
        <ele>169.7002</ele>
        <time>2026-05-13T12:37:50+02:00</time>
      </trkpt>
      <trkpt lat="46.12843" lon="4.78672">
        <ele>169.7002</ele>
        <time>2026-05-13T12:37:51+02:00</time>
      </trkpt>
      <trkpt lat="46.12848" lon="4.78679">
        <ele>169.7002</ele>
        <time>2026-05-13T12:37:52+02:00</time>
      </trkpt>
      <trkpt lat="46.12853" lon="4.78685">
        <ele>169.5</ele>
        <time>2026-05-13T12:37:53+02:00</time>
      </trkpt>
      <trkpt lat="46.12858" lon="4.78692">
        <ele>169.7002</ele>
        <time>2026-05-13T12:37:54+02:00</time>
      </trkpt>
      <trkpt lat="46.12863" lon="4.78698">
        <ele>169.7002</ele>
        <time>2026-05-13T12:37:55+02:00</time>
      </trkpt>
      <trkpt lat="46.12868" lon="4.78704">
        <ele>169.7998</ele>
        <time>2026-05-13T12:37:56+02:00</time>
      </trkpt>
      <trkpt lat="46.12873" lon="4.78711">
        <ele>169.60059</ele>
        <time>2026-05-13T12:37:57+02:00</time>
      </trkpt>
      <trkpt lat="46.12878" lon="4.78717">
        <ele>169.60059</ele>
        <time>2026-05-13T12:37:58+02:00</time>
      </trkpt>
      <trkpt lat="46.12883" lon="4.78723">
        <ele>169.60059</ele>
        <time>2026-05-13T12:37:59+02:00</time>
      </trkpt>
      <trkpt lat="46.12887" lon="4.78729">
        <ele>169.60059</ele>
        <time>2026-05-13T12:38:00+02:00</time>
      </trkpt>
      <trkpt lat="46.12892" lon="4.78735">
        <ele>169.7998</ele>
        <time>2026-05-13T12:38:01+02:00</time>
      </trkpt>
      <trkpt lat="46.12897" lon="4.78742">
        <ele>169.90039</ele>
        <time>2026-05-13T12:38:02+02:00</time>
      </trkpt>
      <trkpt lat="46.12902" lon="4.78748">
        <ele>170</ele>
        <time>2026-05-13T12:38:03+02:00</time>
      </trkpt>
      <trkpt lat="46.12906" lon="4.78754">
        <ele>169.7998</ele>
        <time>2026-05-13T12:38:04+02:00</time>
      </trkpt>
      <trkpt lat="46.12911" lon="4.78761">
        <ele>170</ele>
        <time>2026-05-13T12:38:05+02:00</time>
      </trkpt>
      <trkpt lat="46.12916" lon="4.78767">
        <ele>170</ele>
        <time>2026-05-13T12:38:06+02:00</time>
      </trkpt>
      <trkpt lat="46.12921" lon="4.78773">
        <ele>170</ele>
        <time>2026-05-13T12:38:07+02:00</time>
      </trkpt>
      <trkpt lat="46.12926" lon="4.78779">
        <ele>169.7998</ele>
        <time>2026-05-13T12:38:08+02:00</time>
      </trkpt>
      <trkpt lat="46.1293" lon="4.78786">
        <ele>169.7002</ele>
        <time>2026-05-13T12:38:09+02:00</time>
      </trkpt>
      <trkpt lat="46.12935" lon="4.78792">
        <ele>169.90039</ele>
        <time>2026-05-13T12:38:10+02:00</time>
      </trkpt>
      <trkpt lat="46.1294" lon="4.78798">
        <ele>169.7002</ele>
        <time>2026-05-13T12:38:11+02:00</time>
      </trkpt>
      <trkpt lat="46.12945" lon="4.78804">
        <ele>169.5</ele>
        <time>2026-05-13T12:38:12+02:00</time>
      </trkpt>
      <trkpt lat="46.1295" lon="4.7881">
        <ele>169.2002</ele>
        <time>2026-05-13T12:38:13+02:00</time>
      </trkpt>
      <trkpt lat="46.12954" lon="4.78816">
        <ele>168.90039</ele>
        <time>2026-05-13T12:38:14+02:00</time>
      </trkpt>
      <trkpt lat="46.12959" lon="4.78823">
        <ele>168.90039</ele>
        <time>2026-05-13T12:38:15+02:00</time>
      </trkpt>
      <trkpt lat="46.12964" lon="4.78829">
        <ele>168.60059</ele>
        <time>2026-05-13T12:38:16+02:00</time>
      </trkpt>
      <trkpt lat="46.12969" lon="4.78835">
        <ele>168.40039</ele>
        <time>2026-05-13T12:38:17+02:00</time>
      </trkpt>
      <trkpt lat="46.12974" lon="4.78842">
        <ele>168.40039</ele>
        <time>2026-05-13T12:38:18+02:00</time>
      </trkpt>
      <trkpt lat="46.12979" lon="4.78848">
        <ele>168.2998</ele>
        <time>2026-05-13T12:38:19+02:00</time>
      </trkpt>
      <trkpt lat="46.12984" lon="4.78854">
        <ele>168.2998</ele>
        <time>2026-05-13T12:38:20+02:00</time>
      </trkpt>
      <trkpt lat="46.1299" lon="4.7886">
        <ele>168.2998</ele>
        <time>2026-05-13T12:38:21+02:00</time>
      </trkpt>
      <trkpt lat="46.12995" lon="4.78866">
        <ele>168.2002</ele>
        <time>2026-05-13T12:38:22+02:00</time>
      </trkpt>
      <trkpt lat="46.13" lon="4.78871">
        <ele>168.2998</ele>
        <time>2026-05-13T12:38:23+02:00</time>
      </trkpt>
      <trkpt lat="46.13006" lon="4.78877">
        <ele>168.2998</ele>
        <time>2026-05-13T12:38:24+02:00</time>
      </trkpt>
      <trkpt lat="46.13011" lon="4.78882">
        <ele>168.2998</ele>
        <time>2026-05-13T12:38:25+02:00</time>
      </trkpt>
      <trkpt lat="46.13017" lon="4.78886">
        <ele>168.2998</ele>
        <time>2026-05-13T12:38:26+02:00</time>
      </trkpt>
      <trkpt lat="46.13024" lon="4.7889">
        <ele>168.2998</ele>
        <time>2026-05-13T12:38:27+02:00</time>
      </trkpt>
      <trkpt lat="46.1303" lon="4.78893">
        <ele>168.40039</ele>
        <time>2026-05-13T12:38:28+02:00</time>
      </trkpt>
      <trkpt lat="46.13036" lon="4.78897">
        <ele>168.40039</ele>
        <time>2026-05-13T12:38:29+02:00</time>
      </trkpt>
      <trkpt lat="46.13042" lon="4.789">
        <ele>168.40039</ele>
        <time>2026-05-13T12:38:30+02:00</time>
      </trkpt>
      <trkpt lat="46.13048" lon="4.78904">
        <ele>168.40039</ele>
        <time>2026-05-13T12:38:31+02:00</time>
      </trkpt>
      <trkpt lat="46.13054" lon="4.78909">
        <ele>168.2998</ele>
        <time>2026-05-13T12:38:32+02:00</time>
      </trkpt>
      <trkpt lat="46.1306" lon="4.78913">
        <ele>168.40039</ele>
        <time>2026-05-13T12:38:33+02:00</time>
      </trkpt>
      <trkpt lat="46.13065" lon="4.78918">
        <ele>168.2998</ele>
        <time>2026-05-13T12:38:34+02:00</time>
      </trkpt>
      <trkpt lat="46.13071" lon="4.78923">
        <ele>168.40039</ele>
        <time>2026-05-13T12:38:35+02:00</time>
      </trkpt>
      <trkpt lat="46.13076" lon="4.7893">
        <ele>168.40039</ele>
        <time>2026-05-13T12:38:36+02:00</time>
      </trkpt>
      <trkpt lat="46.1308" lon="4.78937">
        <ele>168.40039</ele>
        <time>2026-05-13T12:38:37+02:00</time>
      </trkpt>
      <trkpt lat="46.13085" lon="4.78945">
        <ele>168.5</ele>
        <time>2026-05-13T12:38:38+02:00</time>
      </trkpt>
      <trkpt lat="46.1309" lon="4.78952">
        <ele>168.40039</ele>
        <time>2026-05-13T12:38:39+02:00</time>
      </trkpt>
      <trkpt lat="46.13095" lon="4.78959">
        <ele>168.5</ele>
        <time>2026-05-13T12:38:40+02:00</time>
      </trkpt>
      <trkpt lat="46.131" lon="4.78965">
        <ele>168.60059</ele>
        <time>2026-05-13T12:38:41+02:00</time>
      </trkpt>
      <trkpt lat="46.13106" lon="4.78972">
        <ele>168.60059</ele>
        <time>2026-05-13T12:38:42+02:00</time>
      </trkpt>
      <trkpt lat="46.13111" lon="4.78979">
        <ele>168.7002</ele>
        <time>2026-05-13T12:38:43+02:00</time>
      </trkpt>
      <trkpt lat="46.13116" lon="4.78985">
        <ele>168.7002</ele>
        <time>2026-05-13T12:38:44+02:00</time>
      </trkpt>
      <trkpt lat="46.13122" lon="4.78992">
        <ele>168.7998</ele>
        <time>2026-05-13T12:38:45+02:00</time>
      </trkpt>
      <trkpt lat="46.13127" lon="4.78998">
        <ele>169</ele>
        <time>2026-05-13T12:38:46+02:00</time>
      </trkpt>
      <trkpt lat="46.13132" lon="4.79005">
        <ele>169.10059</ele>
        <time>2026-05-13T12:38:47+02:00</time>
      </trkpt>
      <trkpt lat="46.13138" lon="4.79012">
        <ele>169</ele>
        <time>2026-05-13T12:38:48+02:00</time>
      </trkpt>
      <trkpt lat="46.13143" lon="4.79018">
        <ele>169.2998</ele>
        <time>2026-05-13T12:38:49+02:00</time>
      </trkpt>
      <trkpt lat="46.13148" lon="4.79024">
        <ele>169.5</ele>
        <time>2026-05-13T12:38:50+02:00</time>
      </trkpt>
      <trkpt lat="46.13153" lon="4.79031">
        <ele>169.7998</ele>
        <time>2026-05-13T12:38:51+02:00</time>
      </trkpt>
      <trkpt lat="46.13158" lon="4.79037">
        <ele>169.60059</ele>
        <time>2026-05-13T12:38:52+02:00</time>
      </trkpt>
      <trkpt lat="46.13164" lon="4.79043">
        <ele>169.7998</ele>
        <time>2026-05-13T12:38:53+02:00</time>
      </trkpt>
      <trkpt lat="46.13168" lon="4.7905">
        <ele>170.2002</ele>
        <time>2026-05-13T12:38:54+02:00</time>
      </trkpt>
      <trkpt lat="46.13173" lon="4.79056">
        <ele>170.90039</ele>
        <time>2026-05-13T12:38:55+02:00</time>
      </trkpt>
      <trkpt lat="46.13178" lon="4.79062">
        <ele>170.7002</ele>
        <time>2026-05-13T12:38:56+02:00</time>
      </trkpt>
      <trkpt lat="46.13182" lon="4.79069">
        <ele>171</ele>
        <time>2026-05-13T12:38:57+02:00</time>
      </trkpt>
      <trkpt lat="46.13187" lon="4.79075">
        <ele>171</ele>
        <time>2026-05-13T12:38:58+02:00</time>
      </trkpt>
      <trkpt lat="46.13192" lon="4.79082">
        <ele>171.10059</ele>
        <time>2026-05-13T12:38:59+02:00</time>
      </trkpt>
      <trkpt lat="46.13197" lon="4.79088">
        <ele>170.90039</ele>
        <time>2026-05-13T12:39:00+02:00</time>
      </trkpt>
      <trkpt lat="46.13202" lon="4.79095">
        <ele>171.60059</ele>
        <time>2026-05-13T12:39:01+02:00</time>
      </trkpt>
      <trkpt lat="46.13208" lon="4.79101">
        <ele>171.90039</ele>
        <time>2026-05-13T12:39:02+02:00</time>
      </trkpt>
      <trkpt lat="46.13213" lon="4.79107">
        <ele>171.5</ele>
        <time>2026-05-13T12:39:03+02:00</time>
      </trkpt>
      <trkpt lat="46.13219" lon="4.79114">
        <ele>170.90039</ele>
        <time>2026-05-13T12:39:04+02:00</time>
      </trkpt>
      <trkpt lat="46.13225" lon="4.7912">
        <ele>170.7998</ele>
        <time>2026-05-13T12:39:05+02:00</time>
      </trkpt>
      <trkpt lat="46.1323" lon="4.79126">
        <ele>171</ele>
        <time>2026-05-13T12:39:06+02:00</time>
      </trkpt>
      <trkpt lat="46.13236" lon="4.79132">
        <ele>170.7002</ele>
        <time>2026-05-13T12:39:07+02:00</time>
      </trkpt>
      <trkpt lat="46.13241" lon="4.79138">
        <ele>170.5</ele>
        <time>2026-05-13T12:39:08+02:00</time>
      </trkpt>
      <trkpt lat="46.13246" lon="4.79144">
        <ele>170.40039</ele>
        <time>2026-05-13T12:39:09+02:00</time>
      </trkpt>
      <trkpt lat="46.13251" lon="4.79149">
        <ele>170.10059</ele>
        <time>2026-05-13T12:39:10+02:00</time>
      </trkpt>
      <trkpt lat="46.13256" lon="4.79154">
        <ele>170.60059</ele>
        <time>2026-05-13T12:39:11+02:00</time>
      </trkpt>
      <trkpt lat="46.13262" lon="4.7916">
        <ele>170.60059</ele>
        <time>2026-05-13T12:39:12+02:00</time>
      </trkpt>
      <trkpt lat="46.13267" lon="4.79165">
        <ele>170.10059</ele>
        <time>2026-05-13T12:39:13+02:00</time>
      </trkpt>
      <trkpt lat="46.13273" lon="4.7917">
        <ele>169.90039</ele>
        <time>2026-05-13T12:39:14+02:00</time>
      </trkpt>
      <trkpt lat="46.13278" lon="4.79175">
        <ele>169.60059</ele>
        <time>2026-05-13T12:39:15+02:00</time>
      </trkpt>
      <trkpt lat="46.13284" lon="4.7918">
        <ele>169.5</ele>
        <time>2026-05-13T12:39:16+02:00</time>
      </trkpt>
      <trkpt lat="46.13289" lon="4.79185">
        <ele>169.40039</ele>
        <time>2026-05-13T12:39:17+02:00</time>
      </trkpt>
      <trkpt lat="46.13294" lon="4.7919">
        <ele>169.10059</ele>
        <time>2026-05-13T12:39:18+02:00</time>
      </trkpt>
      <trkpt lat="46.133" lon="4.79195">
        <ele>169.10059</ele>
        <time>2026-05-13T12:39:19+02:00</time>
      </trkpt>
      <trkpt lat="46.13305" lon="4.79201">
        <ele>169</ele>
        <time>2026-05-13T12:39:20+02:00</time>
      </trkpt>
      <trkpt lat="46.13311" lon="4.79207">
        <ele>169.2998</ele>
        <time>2026-05-13T12:39:21+02:00</time>
      </trkpt>
      <trkpt lat="46.13316" lon="4.79212">
        <ele>169.5</ele>
        <time>2026-05-13T12:39:22+02:00</time>
      </trkpt>
      <trkpt lat="46.13322" lon="4.79217">
        <ele>169.40039</ele>
        <time>2026-05-13T12:39:23+02:00</time>
      </trkpt>
      <trkpt lat="46.13328" lon="4.79223">
        <ele>169.5</ele>
        <time>2026-05-13T12:39:24+02:00</time>
      </trkpt>
      <trkpt lat="46.13333" lon="4.79228">
        <ele>169.7998</ele>
        <time>2026-05-13T12:39:25+02:00</time>
      </trkpt>
      <trkpt lat="46.13339" lon="4.79232">
        <ele>169.7002</ele>
        <time>2026-05-13T12:39:26+02:00</time>
      </trkpt>
      <trkpt lat="46.13345" lon="4.79237">
        <ele>170.10059</ele>
        <time>2026-05-13T12:39:27+02:00</time>
      </trkpt>
      <trkpt lat="46.13351" lon="4.79242">
        <ele>169.90039</ele>
        <time>2026-05-13T12:39:28+02:00</time>
      </trkpt>
      <trkpt lat="46.13357" lon="4.79246">
        <ele>169.90039</ele>
        <time>2026-05-13T12:39:29+02:00</time>
      </trkpt>
      <trkpt lat="46.13363" lon="4.79251">
        <ele>169.5</ele>
        <time>2026-05-13T12:39:30+02:00</time>
      </trkpt>
      <trkpt lat="46.13369" lon="4.79256">
        <ele>169.5</ele>
        <time>2026-05-13T12:39:31+02:00</time>
      </trkpt>
      <trkpt lat="46.13374" lon="4.79261">
        <ele>169.40039</ele>
        <time>2026-05-13T12:39:32+02:00</time>
      </trkpt>
      <trkpt lat="46.13379" lon="4.79266">
        <ele>169.60059</ele>
        <time>2026-05-13T12:39:33+02:00</time>
      </trkpt>
      <trkpt lat="46.13385" lon="4.79271">
        <ele>169.90039</ele>
        <time>2026-05-13T12:39:34+02:00</time>
      </trkpt>
      <trkpt lat="46.1339" lon="4.79276">
        <ele>169.7002</ele>
        <time>2026-05-13T12:39:35+02:00</time>
      </trkpt>
      <trkpt lat="46.13396" lon="4.79281">
        <ele>169.7002</ele>
        <time>2026-05-13T12:39:36+02:00</time>
      </trkpt>
      <trkpt lat="46.13402" lon="4.79286">
        <ele>169.5</ele>
        <time>2026-05-13T12:39:37+02:00</time>
      </trkpt>
      <trkpt lat="46.13407" lon="4.79291">
        <ele>169.60059</ele>
        <time>2026-05-13T12:39:38+02:00</time>
      </trkpt>
      <trkpt lat="46.13413" lon="4.79296">
        <ele>169.7002</ele>
        <time>2026-05-13T12:39:39+02:00</time>
      </trkpt>
      <trkpt lat="46.13418" lon="4.793">
        <ele>169.5</ele>
        <time>2026-05-13T12:39:40+02:00</time>
      </trkpt>
      <trkpt lat="46.13424" lon="4.79305">
        <ele>169.5</ele>
        <time>2026-05-13T12:39:41+02:00</time>
      </trkpt>
      <trkpt lat="46.1343" lon="4.7931">
        <ele>169.2002</ele>
        <time>2026-05-13T12:39:42+02:00</time>
      </trkpt>
      <trkpt lat="46.13435" lon="4.79315">
        <ele>169.2002</ele>
        <time>2026-05-13T12:39:43+02:00</time>
      </trkpt>
      <trkpt lat="46.1344" lon="4.7932">
        <ele>169.2002</ele>
        <time>2026-05-13T12:39:44+02:00</time>
      </trkpt>
      <trkpt lat="46.13445" lon="4.79325">
        <ele>169.40039</ele>
        <time>2026-05-13T12:39:45+02:00</time>
      </trkpt>
      <trkpt lat="46.13451" lon="4.7933">
        <ele>169.2002</ele>
        <time>2026-05-13T12:39:46+02:00</time>
      </trkpt>
      <trkpt lat="46.13456" lon="4.79335">
        <ele>169.10059</ele>
        <time>2026-05-13T12:39:47+02:00</time>
      </trkpt>
      <trkpt lat="46.13462" lon="4.7934">
        <ele>169.10059</ele>
        <time>2026-05-13T12:39:48+02:00</time>
      </trkpt>
      <trkpt lat="46.13467" lon="4.79345">
        <ele>168.90039</ele>
        <time>2026-05-13T12:39:49+02:00</time>
      </trkpt>
      <trkpt lat="46.13472" lon="4.7935">
        <ele>169.10059</ele>
        <time>2026-05-13T12:39:50+02:00</time>
      </trkpt>
      <trkpt lat="46.13477" lon="4.79355">
        <ele>168.90039</ele>
        <time>2026-05-13T12:39:51+02:00</time>
      </trkpt>
      <trkpt lat="46.13482" lon="4.79361">
        <ele>169.10059</ele>
        <time>2026-05-13T12:39:52+02:00</time>
      </trkpt>
      <trkpt lat="46.13488" lon="4.79366">
        <ele>169.10059</ele>
        <time>2026-05-13T12:39:53+02:00</time>
      </trkpt>
      <trkpt lat="46.13493" lon="4.79371">
        <ele>168.90039</ele>
        <time>2026-05-13T12:39:54+02:00</time>
      </trkpt>
      <trkpt lat="46.13498" lon="4.79376">
        <ele>169</ele>
        <time>2026-05-13T12:39:55+02:00</time>
      </trkpt>
      <trkpt lat="46.13503" lon="4.79381">
        <ele>168.90039</ele>
        <time>2026-05-13T12:39:56+02:00</time>
      </trkpt>
      <trkpt lat="46.13508" lon="4.79386">
        <ele>169</ele>
        <time>2026-05-13T12:39:57+02:00</time>
      </trkpt>
      <trkpt lat="46.13514" lon="4.79392">
        <ele>169</ele>
        <time>2026-05-13T12:39:58+02:00</time>
      </trkpt>
      <trkpt lat="46.13519" lon="4.79397">
        <ele>168.90039</ele>
        <time>2026-05-13T12:39:59+02:00</time>
      </trkpt>
      <trkpt lat="46.13524" lon="4.79402">
        <ele>169.10059</ele>
        <time>2026-05-13T12:40:00+02:00</time>
      </trkpt>
      <trkpt lat="46.13529" lon="4.79407">
        <ele>169</ele>
        <time>2026-05-13T12:40:01+02:00</time>
      </trkpt>
      <trkpt lat="46.13534" lon="4.79411">
        <ele>169.10059</ele>
        <time>2026-05-13T12:40:02+02:00</time>
      </trkpt>
      <trkpt lat="46.13539" lon="4.79416">
        <ele>169.2002</ele>
        <time>2026-05-13T12:40:03+02:00</time>
      </trkpt>
      <trkpt lat="46.13545" lon="4.79421">
        <ele>169</ele>
        <time>2026-05-13T12:40:04+02:00</time>
      </trkpt>
      <trkpt lat="46.1355" lon="4.79426">
        <ele>169.10059</ele>
        <time>2026-05-13T12:40:05+02:00</time>
      </trkpt>
      <trkpt lat="46.13555" lon="4.79432">
        <ele>168.90039</ele>
        <time>2026-05-13T12:40:06+02:00</time>
      </trkpt>
      <trkpt lat="46.13561" lon="4.79437">
        <ele>168.90039</ele>
        <time>2026-05-13T12:40:07+02:00</time>
      </trkpt>
      <trkpt lat="46.13566" lon="4.79442">
        <ele>169</ele>
        <time>2026-05-13T12:40:08+02:00</time>
      </trkpt>
      <trkpt lat="46.13572" lon="4.79447">
        <ele>168.7998</ele>
        <time>2026-05-13T12:40:09+02:00</time>
      </trkpt>
      <trkpt lat="46.13577" lon="4.79452">
        <ele>168.90039</ele>
        <time>2026-05-13T12:40:10+02:00</time>
      </trkpt>
      <trkpt lat="46.13582" lon="4.79457">
        <ele>168.7002</ele>
        <time>2026-05-13T12:40:11+02:00</time>
      </trkpt>
      <trkpt lat="46.13587" lon="4.79462">
        <ele>168.7998</ele>
        <time>2026-05-13T12:40:12+02:00</time>
      </trkpt>
      <trkpt lat="46.13592" lon="4.79467">
        <ele>168.7002</ele>
        <time>2026-05-13T12:40:13+02:00</time>
      </trkpt>
      <trkpt lat="46.13598" lon="4.79472">
        <ele>168.90039</ele>
        <time>2026-05-13T12:40:14+02:00</time>
      </trkpt>
      <trkpt lat="46.13603" lon="4.79478">
        <ele>169.10059</ele>
        <time>2026-05-13T12:40:15+02:00</time>
      </trkpt>
      <trkpt lat="46.13609" lon="4.79483">
        <ele>169</ele>
        <time>2026-05-13T12:40:16+02:00</time>
      </trkpt>
      <trkpt lat="46.13614" lon="4.79489">
        <ele>168.90039</ele>
        <time>2026-05-13T12:40:17+02:00</time>
      </trkpt>
      <trkpt lat="46.1362" lon="4.79494">
        <ele>169</ele>
        <time>2026-05-13T12:40:18+02:00</time>
      </trkpt>
      <trkpt lat="46.13625" lon="4.79499">
        <ele>169</ele>
        <time>2026-05-13T12:40:19+02:00</time>
      </trkpt>
      <trkpt lat="46.1363" lon="4.79505">
        <ele>169.10059</ele>
        <time>2026-05-13T12:40:20+02:00</time>
      </trkpt>
      <trkpt lat="46.13636" lon="4.7951">
        <ele>169</ele>
        <time>2026-05-13T12:40:21+02:00</time>
      </trkpt>
      <trkpt lat="46.13641" lon="4.79516">
        <ele>169</ele>
        <time>2026-05-13T12:40:22+02:00</time>
      </trkpt>
      <trkpt lat="46.13647" lon="4.79522">
        <ele>169.10059</ele>
        <time>2026-05-13T12:40:23+02:00</time>
      </trkpt>
      <trkpt lat="46.13653" lon="4.79528">
        <ele>169.2002</ele>
        <time>2026-05-13T12:40:24+02:00</time>
      </trkpt>
      <trkpt lat="46.13658" lon="4.79534">
        <ele>169.2002</ele>
        <time>2026-05-13T12:40:25+02:00</time>
      </trkpt>
      <trkpt lat="46.13663" lon="4.79539">
        <ele>169.40039</ele>
        <time>2026-05-13T12:40:26+02:00</time>
      </trkpt>
      <trkpt lat="46.13669" lon="4.79545">
        <ele>169.5</ele>
        <time>2026-05-13T12:40:27+02:00</time>
      </trkpt>
      <trkpt lat="46.13674" lon="4.7955">
        <ele>169.40039</ele>
        <time>2026-05-13T12:40:28+02:00</time>
      </trkpt>
      <trkpt lat="46.1368" lon="4.79556">
        <ele>169.5</ele>
        <time>2026-05-13T12:40:29+02:00</time>
      </trkpt>
      <trkpt lat="46.13685" lon="4.79561">
        <ele>169.40039</ele>
        <time>2026-05-13T12:40:30+02:00</time>
      </trkpt>
      <trkpt lat="46.1369" lon="4.79567">
        <ele>169.7002</ele>
        <time>2026-05-13T12:40:31+02:00</time>
      </trkpt>
      <trkpt lat="46.13696" lon="4.79573">
        <ele>169.90039</ele>
        <time>2026-05-13T12:40:32+02:00</time>
      </trkpt>
      <trkpt lat="46.13701" lon="4.79578">
        <ele>169.7998</ele>
        <time>2026-05-13T12:40:33+02:00</time>
      </trkpt>
      <trkpt lat="46.13706" lon="4.79584">
        <ele>169.90039</ele>
        <time>2026-05-13T12:40:34+02:00</time>
      </trkpt>
      <trkpt lat="46.13712" lon="4.7959">
        <ele>170</ele>
        <time>2026-05-13T12:40:35+02:00</time>
      </trkpt>
      <trkpt lat="46.13717" lon="4.79595">
        <ele>169.90039</ele>
        <time>2026-05-13T12:40:36+02:00</time>
      </trkpt>
      <trkpt lat="46.13722" lon="4.79601">
        <ele>170</ele>
        <time>2026-05-13T12:40:37+02:00</time>
      </trkpt>
      <trkpt lat="46.13728" lon="4.79607">
        <ele>170.10059</ele>
        <time>2026-05-13T12:40:38+02:00</time>
      </trkpt>
      <trkpt lat="46.13733" lon="4.79612">
        <ele>170</ele>
        <time>2026-05-13T12:40:39+02:00</time>
      </trkpt>
      <trkpt lat="46.13739" lon="4.79618">
        <ele>169.90039</ele>
        <time>2026-05-13T12:40:40+02:00</time>
      </trkpt>
      <trkpt lat="46.13744" lon="4.79624">
        <ele>169.90039</ele>
        <time>2026-05-13T12:40:41+02:00</time>
      </trkpt>
      <trkpt lat="46.13749" lon="4.7963">
        <ele>169.7998</ele>
        <time>2026-05-13T12:40:42+02:00</time>
      </trkpt>
      <trkpt lat="46.13755" lon="4.79635">
        <ele>169.7002</ele>
        <time>2026-05-13T12:40:43+02:00</time>
      </trkpt>
      <trkpt lat="46.13761" lon="4.79641">
        <ele>169.7002</ele>
        <time>2026-05-13T12:40:44+02:00</time>
      </trkpt>
      <trkpt lat="46.13766" lon="4.79647">
        <ele>169.60059</ele>
        <time>2026-05-13T12:40:45+02:00</time>
      </trkpt>
      <trkpt lat="46.13772" lon="4.79653">
        <ele>169.60059</ele>
        <time>2026-05-13T12:40:46+02:00</time>
      </trkpt>
      <trkpt lat="46.13777" lon="4.79658">
        <ele>169.7998</ele>
        <time>2026-05-13T12:40:47+02:00</time>
      </trkpt>
      <trkpt lat="46.13783" lon="4.79664">
        <ele>169.7998</ele>
        <time>2026-05-13T12:40:48+02:00</time>
      </trkpt>
      <trkpt lat="46.13788" lon="4.7967">
        <ele>170.2002</ele>
        <time>2026-05-13T12:40:49+02:00</time>
      </trkpt>
      <trkpt lat="46.13793" lon="4.79675">
        <ele>170.5</ele>
        <time>2026-05-13T12:40:50+02:00</time>
      </trkpt>
      <trkpt lat="46.13798" lon="4.79681">
        <ele>170.40039</ele>
        <time>2026-05-13T12:40:51+02:00</time>
      </trkpt>
      <trkpt lat="46.13804" lon="4.79687">
        <ele>170.7998</ele>
        <time>2026-05-13T12:40:52+02:00</time>
      </trkpt>
      <trkpt lat="46.13809" lon="4.79692">
        <ele>171.10059</ele>
        <time>2026-05-13T12:40:53+02:00</time>
      </trkpt>
      <trkpt lat="46.13814" lon="4.79697">
        <ele>170.90039</ele>
        <time>2026-05-13T12:40:54+02:00</time>
      </trkpt>
      <trkpt lat="46.13818" lon="4.79702">
        <ele>170.90039</ele>
        <time>2026-05-13T12:40:55+02:00</time>
      </trkpt>
      <trkpt lat="46.13823" lon="4.79707">
        <ele>170.60059</ele>
        <time>2026-05-13T12:40:56+02:00</time>
      </trkpt>
      <trkpt lat="46.13827" lon="4.79712">
        <ele>170.90039</ele>
        <time>2026-05-13T12:40:57+02:00</time>
      </trkpt>
      <trkpt lat="46.13831" lon="4.79717">
        <ele>170.90039</ele>
        <time>2026-05-13T12:40:58+02:00</time>
      </trkpt>
      <trkpt lat="46.13835" lon="4.79721">
        <ele>170.7998</ele>
        <time>2026-05-13T12:40:59+02:00</time>
      </trkpt>
      <trkpt lat="46.13839" lon="4.79725">
        <ele>171.10059</ele>
        <time>2026-05-13T12:41:00+02:00</time>
      </trkpt>
      <trkpt lat="46.13841" lon="4.7973">
        <ele>170.90039</ele>
        <time>2026-05-13T12:41:01+02:00</time>
      </trkpt>
      <trkpt lat="46.13843" lon="4.79733">
        <ele>170.90039</ele>
        <time>2026-05-13T12:41:02+02:00</time>
      </trkpt>
      <trkpt lat="46.13844" lon="4.79736">
        <ele>171.10059</ele>
        <time>2026-05-13T12:41:03+02:00</time>
      </trkpt>
      <trkpt lat="46.13844" lon="4.79738">
        <ele>171.10059</ele>
        <time>2026-05-13T12:41:04+02:00</time>
      </trkpt>
      <trkpt lat="46.13844" lon="4.7974">
        <ele>171.10059</ele>
        <time>2026-05-13T12:41:05+02:00</time>
      </trkpt>
      <trkpt lat="46.13844" lon="4.79741">
        <ele>171.10059</ele>
        <time>2026-05-13T12:41:06+02:00</time>
      </trkpt>
      <trkpt lat="46.13844" lon="4.79741">
        <ele>171.10059</ele>
        <time>2026-05-13T12:41:07+02:00</time>
      </trkpt>
      <trkpt lat="46.13844" lon="4.79741">
        <ele>171.10059</ele>
        <time>2026-05-13T12:41:08+02:00</time>
      </trkpt>
      <trkpt lat="46.13844" lon="4.79741">
        <ele>171.10059</ele>
        <time>2026-05-13T12:41:09+02:00</time>
      </trkpt>
      <trkpt lat="46.13853" lon="4.79751">
        <ele>170.60059</ele>
        <time>2026-05-13T12:41:19+02:00</time>
      </trkpt>
      <trkpt lat="46.13854" lon="4.79752">
        <ele>170.60059</ele>
        <time>2026-05-13T12:41:20+02:00</time>
      </trkpt>
      <trkpt lat="46.13855" lon="4.79753">
        <ele>170.60059</ele>
        <time>2026-05-13T12:41:21+02:00</time>
      </trkpt>
      <trkpt lat="46.13856" lon="4.79755">
        <ele>170.60059</ele>
        <time>2026-05-13T12:41:22+02:00</time>
      </trkpt>
      <trkpt lat="46.13857" lon="4.79756">
        <ele>170.60059</ele>
        <time>2026-05-13T12:41:23+02:00</time>
      </trkpt>
      <trkpt lat="46.13857" lon="4.79757">
        <ele>170.60059</ele>
        <time>2026-05-13T12:41:24+02:00</time>
      </trkpt>
      <trkpt lat="46.13857" lon="4.79759">
        <ele>170.60059</ele>
        <time>2026-05-13T12:41:25+02:00</time>
      </trkpt>
      <trkpt lat="46.13858" lon="4.79759">
        <ele>170.10059</ele>
        <time>2026-05-13T12:41:26+02:00</time>
      </trkpt>
      <trkpt lat="46.13858" lon="4.79759">
        <ele>170.10059</ele>
        <time>2026-05-13T12:41:27+02:00</time>
      </trkpt>
      <trkpt lat="46.13858" lon="4.79759">
        <ele>170.10059</ele>
        <time>2026-05-13T12:41:28+02:00</time>
      </trkpt>
      <trkpt lat="46.13858" lon="4.79759">
        <ele>170.10059</ele>
        <time>2026-05-13T12:41:29+02:00</time>
      </trkpt>
      <trkpt lat="46.13871" lon="4.7977">
        <ele>169.60059</ele>
        <time>2026-05-13T12:43:30+02:00</time>
      </trkpt>
      <trkpt lat="46.13873" lon="4.79772">
        <ele>169.60059</ele>
        <time>2026-05-13T12:43:31+02:00</time>
      </trkpt>
      <trkpt lat="46.13876" lon="4.79774">
        <ele>169.2998</ele>
        <time>2026-05-13T12:43:32+02:00</time>
      </trkpt>
      <trkpt lat="46.13879" lon="4.79777">
        <ele>169.40039</ele>
        <time>2026-05-13T12:43:33+02:00</time>
      </trkpt>
      <trkpt lat="46.13881" lon="4.7978">
        <ele>169.2002</ele>
        <time>2026-05-13T12:43:34+02:00</time>
      </trkpt>
      <trkpt lat="46.13884" lon="4.79783">
        <ele>169.2002</ele>
        <time>2026-05-13T12:43:35+02:00</time>
      </trkpt>
      <trkpt lat="46.13888" lon="4.79786">
        <ele>168.90039</ele>
        <time>2026-05-13T12:43:36+02:00</time>
      </trkpt>
      <trkpt lat="46.13891" lon="4.7979">
        <ele>168.90039</ele>
        <time>2026-05-13T12:43:37+02:00</time>
      </trkpt>
      <trkpt lat="46.13894" lon="4.79793">
        <ele>168.7002</ele>
        <time>2026-05-13T12:43:38+02:00</time>
      </trkpt>
      <trkpt lat="46.13897" lon="4.79797">
        <ele>168.60059</ele>
        <time>2026-05-13T12:43:39+02:00</time>
      </trkpt>
      <trkpt lat="46.13901" lon="4.798">
        <ele>168.40039</ele>
        <time>2026-05-13T12:43:40+02:00</time>
      </trkpt>
      <trkpt lat="46.13904" lon="4.79804">
        <ele>168.40039</ele>
        <time>2026-05-13T12:43:41+02:00</time>
      </trkpt>
      <trkpt lat="46.13908" lon="4.79808">
        <ele>168.2998</ele>
        <time>2026-05-13T12:43:42+02:00</time>
      </trkpt>
      <trkpt lat="46.13912" lon="4.79812">
        <ele>168.2002</ele>
        <time>2026-05-13T12:43:43+02:00</time>
      </trkpt>
      <trkpt lat="46.13916" lon="4.79816">
        <ele>168.2002</ele>
        <time>2026-05-13T12:43:44+02:00</time>
      </trkpt>
      <trkpt lat="46.1392" lon="4.79821">
        <ele>168.2002</ele>
        <time>2026-05-13T12:43:45+02:00</time>
      </trkpt>
      <trkpt lat="46.13925" lon="4.79825">
        <ele>168.10059</ele>
        <time>2026-05-13T12:43:46+02:00</time>
      </trkpt>
      <trkpt lat="46.13929" lon="4.79829">
        <ele>168.10059</ele>
        <time>2026-05-13T12:43:47+02:00</time>
      </trkpt>
      <trkpt lat="46.13934" lon="4.79834">
        <ele>168.10059</ele>
        <time>2026-05-13T12:43:48+02:00</time>
      </trkpt>
      <trkpt lat="46.13938" lon="4.79839">
        <ele>168.10059</ele>
        <time>2026-05-13T12:43:49+02:00</time>
      </trkpt>
      <trkpt lat="46.13943" lon="4.79844">
        <ele>168.10059</ele>
        <time>2026-05-13T12:43:50+02:00</time>
      </trkpt>
      <trkpt lat="46.13947" lon="4.79849">
        <ele>168.2998</ele>
        <time>2026-05-13T12:43:51+02:00</time>
      </trkpt>
      <trkpt lat="46.13952" lon="4.79854">
        <ele>168.40039</ele>
        <time>2026-05-13T12:43:52+02:00</time>
      </trkpt>
      <trkpt lat="46.13957" lon="4.7986">
        <ele>168.40039</ele>
        <time>2026-05-13T12:43:53+02:00</time>
      </trkpt>
      <trkpt lat="46.13962" lon="4.79865">
        <ele>168.60059</ele>
        <time>2026-05-13T12:43:54+02:00</time>
      </trkpt>
      <trkpt lat="46.13966" lon="4.7987">
        <ele>168.60059</ele>
        <time>2026-05-13T12:43:55+02:00</time>
      </trkpt>
      <trkpt lat="46.13971" lon="4.79875">
        <ele>168.90039</ele>
        <time>2026-05-13T12:43:56+02:00</time>
      </trkpt>
      <trkpt lat="46.13976" lon="4.7988">
        <ele>169.2998</ele>
        <time>2026-05-13T12:43:57+02:00</time>
      </trkpt>
      <trkpt lat="46.13981" lon="4.79885">
        <ele>169.2998</ele>
        <time>2026-05-13T12:43:58+02:00</time>
      </trkpt>
      <trkpt lat="46.13986" lon="4.7989">
        <ele>169.60059</ele>
        <time>2026-05-13T12:43:59+02:00</time>
      </trkpt>
      <trkpt lat="46.13991" lon="4.79895">
        <ele>169.40039</ele>
        <time>2026-05-13T12:44:00+02:00</time>
      </trkpt>
      <trkpt lat="46.13995" lon="4.799">
        <ele>169.60059</ele>
        <time>2026-05-13T12:44:01+02:00</time>
      </trkpt>
      <trkpt lat="46.14001" lon="4.79905">
        <ele>169.5</ele>
        <time>2026-05-13T12:44:02+02:00</time>
      </trkpt>
      <trkpt lat="46.14006" lon="4.79911">
        <ele>169.7002</ele>
        <time>2026-05-13T12:44:03+02:00</time>
      </trkpt>
      <trkpt lat="46.14011" lon="4.79916">
        <ele>170.2002</ele>
        <time>2026-05-13T12:44:04+02:00</time>
      </trkpt>
      <trkpt lat="46.14016" lon="4.79921">
        <ele>169.90039</ele>
        <time>2026-05-13T12:44:05+02:00</time>
      </trkpt>
      <trkpt lat="46.14021" lon="4.79926">
        <ele>169.90039</ele>
        <time>2026-05-13T12:44:06+02:00</time>
      </trkpt>
      <trkpt lat="46.14026" lon="4.79931">
        <ele>169.90039</ele>
        <time>2026-05-13T12:44:07+02:00</time>
      </trkpt>
      <trkpt lat="46.14031" lon="4.79937">
        <ele>169.60059</ele>
        <time>2026-05-13T12:44:08+02:00</time>
      </trkpt>
      <trkpt lat="46.14037" lon="4.79942">
        <ele>169.7002</ele>
        <time>2026-05-13T12:44:09+02:00</time>
      </trkpt>
      <trkpt lat="46.14042" lon="4.79947">
        <ele>169.40039</ele>
        <time>2026-05-13T12:44:10+02:00</time>
      </trkpt>
      <trkpt lat="46.14046" lon="4.79953">
        <ele>169.7002</ele>
        <time>2026-05-13T12:44:11+02:00</time>
      </trkpt>
      <trkpt lat="46.14051" lon="4.79958">
        <ele>169.7002</ele>
        <time>2026-05-13T12:44:12+02:00</time>
      </trkpt>
      <trkpt lat="46.14056" lon="4.79963">
        <ele>169.40039</ele>
        <time>2026-05-13T12:44:13+02:00</time>
      </trkpt>
      <trkpt lat="46.1406" lon="4.79969">
        <ele>169.5</ele>
        <time>2026-05-13T12:44:14+02:00</time>
      </trkpt>
      <trkpt lat="46.14066" lon="4.79974">
        <ele>169.7002</ele>
        <time>2026-05-13T12:44:15+02:00</time>
      </trkpt>
      <trkpt lat="46.14071" lon="4.79979">
        <ele>169.7002</ele>
        <time>2026-05-13T12:44:16+02:00</time>
      </trkpt>
      <trkpt lat="46.14076" lon="4.79985">
        <ele>169.90039</ele>
        <time>2026-05-13T12:44:17+02:00</time>
      </trkpt>
      <trkpt lat="46.14081" lon="4.79991">
        <ele>169.90039</ele>
        <time>2026-05-13T12:44:18+02:00</time>
      </trkpt>
      <trkpt lat="46.14086" lon="4.79996">
        <ele>169.7002</ele>
        <time>2026-05-13T12:44:19+02:00</time>
      </trkpt>
      <trkpt lat="46.14092" lon="4.80002">
        <ele>169.7002</ele>
        <time>2026-05-13T12:44:20+02:00</time>
      </trkpt>
      <trkpt lat="46.14097" lon="4.80007">
        <ele>169.5</ele>
        <time>2026-05-13T12:44:21+02:00</time>
      </trkpt>
      <trkpt lat="46.14102" lon="4.80014">
        <ele>169.60059</ele>
        <time>2026-05-13T12:44:22+02:00</time>
      </trkpt>
      <trkpt lat="46.14108" lon="4.80019">
        <ele>169.7002</ele>
        <time>2026-05-13T12:44:23+02:00</time>
      </trkpt>
      <trkpt lat="46.14113" lon="4.80025">
        <ele>169.7002</ele>
        <time>2026-05-13T12:44:24+02:00</time>
      </trkpt>
      <trkpt lat="46.14118" lon="4.8003">
        <ele>169.7998</ele>
        <time>2026-05-13T12:44:25+02:00</time>
      </trkpt>
      <trkpt lat="46.14125" lon="4.80035">
        <ele>169.7998</ele>
        <time>2026-05-13T12:44:26+02:00</time>
      </trkpt>
      <trkpt lat="46.14131" lon="4.8004">
        <ele>169.7002</ele>
        <time>2026-05-13T12:44:27+02:00</time>
      </trkpt>
      <trkpt lat="46.14137" lon="4.80046">
        <ele>169.7998</ele>
        <time>2026-05-13T12:44:28+02:00</time>
      </trkpt>
      <trkpt lat="46.14143" lon="4.80051">
        <ele>169.7998</ele>
        <time>2026-05-13T12:44:29+02:00</time>
      </trkpt>
      <trkpt lat="46.14149" lon="4.80056">
        <ele>169.7998</ele>
        <time>2026-05-13T12:44:30+02:00</time>
      </trkpt>
      <trkpt lat="46.14155" lon="4.80061">
        <ele>169.90039</ele>
        <time>2026-05-13T12:44:31+02:00</time>
      </trkpt>
      <trkpt lat="46.14162" lon="4.80066">
        <ele>169.7998</ele>
        <time>2026-05-13T12:44:32+02:00</time>
      </trkpt>
      <trkpt lat="46.14168" lon="4.8007">
        <ele>169.7998</ele>
        <time>2026-05-13T12:44:33+02:00</time>
      </trkpt>
      <trkpt lat="46.14174" lon="4.80075">
        <ele>169.7998</ele>
        <time>2026-05-13T12:44:34+02:00</time>
      </trkpt>
      <trkpt lat="46.14181" lon="4.8008">
        <ele>169.7998</ele>
        <time>2026-05-13T12:44:35+02:00</time>
      </trkpt>
      <trkpt lat="46.14187" lon="4.80084">
        <ele>169.7002</ele>
        <time>2026-05-13T12:44:36+02:00</time>
      </trkpt>
      <trkpt lat="46.14193" lon="4.80089">
        <ele>169.7002</ele>
        <time>2026-05-13T12:44:37+02:00</time>
      </trkpt>
      <trkpt lat="46.142" lon="4.80093">
        <ele>169.60059</ele>
        <time>2026-05-13T12:44:38+02:00</time>
      </trkpt>
      <trkpt lat="46.14205" lon="4.80098">
        <ele>169.60059</ele>
        <time>2026-05-13T12:44:39+02:00</time>
      </trkpt>
      <trkpt lat="46.14211" lon="4.80102">
        <ele>169.5</ele>
        <time>2026-05-13T12:44:40+02:00</time>
      </trkpt>
      <trkpt lat="46.14218" lon="4.80107">
        <ele>169.5</ele>
        <time>2026-05-13T12:44:41+02:00</time>
      </trkpt>
      <trkpt lat="46.14223" lon="4.80111">
        <ele>169.40039</ele>
        <time>2026-05-13T12:44:42+02:00</time>
      </trkpt>
      <trkpt lat="46.14229" lon="4.80115">
        <ele>169.40039</ele>
        <time>2026-05-13T12:44:43+02:00</time>
      </trkpt>
      <trkpt lat="46.14235" lon="4.80119">
        <ele>169.2998</ele>
        <time>2026-05-13T12:44:44+02:00</time>
      </trkpt>
      <trkpt lat="46.14242" lon="4.80123">
        <ele>169.2998</ele>
        <time>2026-05-13T12:44:45+02:00</time>
      </trkpt>
      <trkpt lat="46.14248" lon="4.80127">
        <ele>169.2998</ele>
        <time>2026-05-13T12:44:46+02:00</time>
      </trkpt>
      <trkpt lat="46.14254" lon="4.8013">
        <ele>169.2998</ele>
        <time>2026-05-13T12:44:47+02:00</time>
      </trkpt>
      <trkpt lat="46.14261" lon="4.80134">
        <ele>169.40039</ele>
        <time>2026-05-13T12:44:48+02:00</time>
      </trkpt>
      <trkpt lat="46.14267" lon="4.80138">
        <ele>169.5</ele>
        <time>2026-05-13T12:44:49+02:00</time>
      </trkpt>
      <trkpt lat="46.14274" lon="4.80141">
        <ele>169.7002</ele>
        <time>2026-05-13T12:44:50+02:00</time>
      </trkpt>
      <trkpt lat="46.14281" lon="4.80145">
        <ele>169.90039</ele>
        <time>2026-05-13T12:44:51+02:00</time>
      </trkpt>
      <trkpt lat="46.14287" lon="4.80148">
        <ele>170.10059</ele>
        <time>2026-05-13T12:44:52+02:00</time>
      </trkpt>
      <trkpt lat="46.14294" lon="4.80152">
        <ele>170.10059</ele>
        <time>2026-05-13T12:44:53+02:00</time>
      </trkpt>
      <trkpt lat="46.143" lon="4.80156">
        <ele>170.2002</ele>
        <time>2026-05-13T12:44:54+02:00</time>
      </trkpt>
      <trkpt lat="46.14307" lon="4.80159">
        <ele>170.2002</ele>
        <time>2026-05-13T12:44:55+02:00</time>
      </trkpt>
      <trkpt lat="46.14314" lon="4.80163">
        <ele>170.40039</ele>
        <time>2026-05-13T12:44:56+02:00</time>
      </trkpt>
      <trkpt lat="46.1432" lon="4.80166">
        <ele>170.5</ele>
        <time>2026-05-13T12:44:57+02:00</time>
      </trkpt>
      <trkpt lat="46.14327" lon="4.80169">
        <ele>170.5</ele>
        <time>2026-05-13T12:44:58+02:00</time>
      </trkpt>
      <trkpt lat="46.14333" lon="4.80172">
        <ele>170.5</ele>
        <time>2026-05-13T12:44:59+02:00</time>
      </trkpt>
      <trkpt lat="46.1434" lon="4.80175">
        <ele>170.40039</ele>
        <time>2026-05-13T12:45:00+02:00</time>
      </trkpt>
      <trkpt lat="46.14346" lon="4.80179">
        <ele>170.10059</ele>
        <time>2026-05-13T12:45:01+02:00</time>
      </trkpt>
      <trkpt lat="46.14352" lon="4.80181">
        <ele>170</ele>
        <time>2026-05-13T12:45:02+02:00</time>
      </trkpt>
      <trkpt lat="46.14358" lon="4.80184">
        <ele>169.90039</ele>
        <time>2026-05-13T12:45:03+02:00</time>
      </trkpt>
      <trkpt lat="46.14364" lon="4.80187">
        <ele>169.7998</ele>
        <time>2026-05-13T12:45:04+02:00</time>
      </trkpt>
      <trkpt lat="46.14371" lon="4.80189">
        <ele>169.7998</ele>
        <time>2026-05-13T12:45:05+02:00</time>
      </trkpt>
      <trkpt lat="46.14377" lon="4.80192">
        <ele>169.60059</ele>
        <time>2026-05-13T12:45:06+02:00</time>
      </trkpt>
      <trkpt lat="46.14383" lon="4.80194">
        <ele>169.5</ele>
        <time>2026-05-13T12:45:07+02:00</time>
      </trkpt>
      <trkpt lat="46.1439" lon="4.80196">
        <ele>169.40039</ele>
        <time>2026-05-13T12:45:08+02:00</time>
      </trkpt>
      <trkpt lat="46.14396" lon="4.80199">
        <ele>169.40039</ele>
        <time>2026-05-13T12:45:09+02:00</time>
      </trkpt>
      <trkpt lat="46.14403" lon="4.80202">
        <ele>169.2998</ele>
        <time>2026-05-13T12:45:10+02:00</time>
      </trkpt>
      <trkpt lat="46.14409" lon="4.80204">
        <ele>169.2998</ele>
        <time>2026-05-13T12:45:11+02:00</time>
      </trkpt>
      <trkpt lat="46.14415" lon="4.80206">
        <ele>169.2002</ele>
        <time>2026-05-13T12:45:12+02:00</time>
      </trkpt>
      <trkpt lat="46.14422" lon="4.80208">
        <ele>169.2002</ele>
        <time>2026-05-13T12:45:13+02:00</time>
      </trkpt>
      <trkpt lat="46.14428" lon="4.8021">
        <ele>169.2002</ele>
        <time>2026-05-13T12:45:14+02:00</time>
      </trkpt>
      <trkpt lat="46.14435" lon="4.80212">
        <ele>169.2002</ele>
        <time>2026-05-13T12:45:15+02:00</time>
      </trkpt>
      <trkpt lat="46.14441" lon="4.80214">
        <ele>169.2002</ele>
        <time>2026-05-13T12:45:16+02:00</time>
      </trkpt>
      <trkpt lat="46.14448" lon="4.80216">
        <ele>169.5</ele>
        <time>2026-05-13T12:45:17+02:00</time>
      </trkpt>
      <trkpt lat="46.14454" lon="4.80217">
        <ele>169.5</ele>
        <time>2026-05-13T12:45:18+02:00</time>
      </trkpt>
      <trkpt lat="46.14461" lon="4.80218">
        <ele>169.60059</ele>
        <time>2026-05-13T12:45:19+02:00</time>
      </trkpt>
      <trkpt lat="46.14467" lon="4.8022">
        <ele>169.60059</ele>
        <time>2026-05-13T12:45:20+02:00</time>
      </trkpt>
      <trkpt lat="46.14473" lon="4.80222">
        <ele>169.60059</ele>
        <time>2026-05-13T12:45:21+02:00</time>
      </trkpt>
      <trkpt lat="46.14479" lon="4.80223">
        <ele>169.90039</ele>
        <time>2026-05-13T12:45:22+02:00</time>
      </trkpt>
      <trkpt lat="46.14486" lon="4.80225">
        <ele>169.90039</ele>
        <time>2026-05-13T12:45:23+02:00</time>
      </trkpt>
      <trkpt lat="46.14492" lon="4.80226">
        <ele>169.7998</ele>
        <time>2026-05-13T12:45:24+02:00</time>
      </trkpt>
      <trkpt lat="46.14498" lon="4.80227">
        <ele>169.7998</ele>
        <time>2026-05-13T12:45:25+02:00</time>
      </trkpt>
      <trkpt lat="46.14504" lon="4.80228">
        <ele>169.7002</ele>
        <time>2026-05-13T12:45:26+02:00</time>
      </trkpt>
      <trkpt lat="46.1451" lon="4.8023">
        <ele>169.60059</ele>
        <time>2026-05-13T12:45:27+02:00</time>
      </trkpt>
      <trkpt lat="46.14516" lon="4.80231">
        <ele>169.5</ele>
        <time>2026-05-13T12:45:28+02:00</time>
      </trkpt>
      <trkpt lat="46.14522" lon="4.80233">
        <ele>169.7002</ele>
        <time>2026-05-13T12:45:29+02:00</time>
      </trkpt>
      <trkpt lat="46.14528" lon="4.80234">
        <ele>169.60059</ele>
        <time>2026-05-13T12:45:30+02:00</time>
      </trkpt>
      <trkpt lat="46.14534" lon="4.80236">
        <ele>169.40039</ele>
        <time>2026-05-13T12:45:31+02:00</time>
      </trkpt>
      <trkpt lat="46.1454" lon="4.80237">
        <ele>169.2002</ele>
        <time>2026-05-13T12:45:32+02:00</time>
      </trkpt>
      <trkpt lat="46.14546" lon="4.80239">
        <ele>169</ele>
        <time>2026-05-13T12:45:33+02:00</time>
      </trkpt>
      <trkpt lat="46.14552" lon="4.80241">
        <ele>168.90039</ele>
        <time>2026-05-13T12:45:34+02:00</time>
      </trkpt>
      <trkpt lat="46.14558" lon="4.80243">
        <ele>168.7002</ele>
        <time>2026-05-13T12:45:35+02:00</time>
      </trkpt>
      <trkpt lat="46.14564" lon="4.80244">
        <ele>168.5</ele>
        <time>2026-05-13T12:45:36+02:00</time>
      </trkpt>
      <trkpt lat="46.1457" lon="4.80246">
        <ele>168.2998</ele>
        <time>2026-05-13T12:45:37+02:00</time>
      </trkpt>
      <trkpt lat="46.14576" lon="4.80247">
        <ele>168.2002</ele>
        <time>2026-05-13T12:45:38+02:00</time>
      </trkpt>
      <trkpt lat="46.14582" lon="4.80249">
        <ele>168.2002</ele>
        <time>2026-05-13T12:45:39+02:00</time>
      </trkpt>
      <trkpt lat="46.14588" lon="4.8025">
        <ele>168.2002</ele>
        <time>2026-05-13T12:45:40+02:00</time>
      </trkpt>
      <trkpt lat="46.14594" lon="4.80251">
        <ele>168.2002</ele>
        <time>2026-05-13T12:45:41+02:00</time>
      </trkpt>
      <trkpt lat="46.146" lon="4.80251">
        <ele>168.2002</ele>
        <time>2026-05-13T12:45:42+02:00</time>
      </trkpt>
      <trkpt lat="46.14606" lon="4.80251">
        <ele>168.2002</ele>
        <time>2026-05-13T12:45:43+02:00</time>
      </trkpt>
      <trkpt lat="46.14612" lon="4.80249">
        <ele>168.2002</ele>
        <time>2026-05-13T12:45:44+02:00</time>
      </trkpt>
      <trkpt lat="46.14617" lon="4.80246">
        <ele>168.2002</ele>
        <time>2026-05-13T12:45:45+02:00</time>
      </trkpt>
      <trkpt lat="46.14622" lon="4.80244">
        <ele>168.2998</ele>
        <time>2026-05-13T12:45:46+02:00</time>
      </trkpt>
      <trkpt lat="46.14628" lon="4.80242">
        <ele>168.2998</ele>
        <time>2026-05-13T12:45:47+02:00</time>
      </trkpt>
      <trkpt lat="46.14633" lon="4.80243">
        <ele>168.2998</ele>
        <time>2026-05-13T12:45:48+02:00</time>
      </trkpt>
      <trkpt lat="46.14639" lon="4.80246">
        <ele>168.2998</ele>
        <time>2026-05-13T12:45:49+02:00</time>
      </trkpt>
      <trkpt lat="46.14644" lon="4.80249">
        <ele>168.40039</ele>
        <time>2026-05-13T12:45:50+02:00</time>
      </trkpt>
      <trkpt lat="46.14649" lon="4.80252">
        <ele>168.40039</ele>
        <time>2026-05-13T12:45:51+02:00</time>
      </trkpt>
      <trkpt lat="46.14655" lon="4.80256">
        <ele>168.40039</ele>
        <time>2026-05-13T12:45:52+02:00</time>
      </trkpt>
      <trkpt lat="46.1466" lon="4.80259">
        <ele>168.5</ele>
        <time>2026-05-13T12:45:53+02:00</time>
      </trkpt>
      <trkpt lat="46.14666" lon="4.80261">
        <ele>168.5</ele>
        <time>2026-05-13T12:45:54+02:00</time>
      </trkpt>
      <trkpt lat="46.14672" lon="4.80263">
        <ele>168.60059</ele>
        <time>2026-05-13T12:45:55+02:00</time>
      </trkpt>
      <trkpt lat="46.14678" lon="4.80265">
        <ele>168.60059</ele>
        <time>2026-05-13T12:45:56+02:00</time>
      </trkpt>
      <trkpt lat="46.14684" lon="4.80268">
        <ele>169.10059</ele>
        <time>2026-05-13T12:45:57+02:00</time>
      </trkpt>
      <trkpt lat="46.1469" lon="4.80271">
        <ele>169.2998</ele>
        <time>2026-05-13T12:45:58+02:00</time>
      </trkpt>
      <trkpt lat="46.14696" lon="4.80273">
        <ele>169.40039</ele>
        <time>2026-05-13T12:45:59+02:00</time>
      </trkpt>
      <trkpt lat="46.14702" lon="4.80276">
        <ele>170</ele>
        <time>2026-05-13T12:46:00+02:00</time>
      </trkpt>
      <trkpt lat="46.14708" lon="4.80278">
        <ele>170</ele>
        <time>2026-05-13T12:46:01+02:00</time>
      </trkpt>
      <trkpt lat="46.14714" lon="4.80281">
        <ele>170.10059</ele>
        <time>2026-05-13T12:46:02+02:00</time>
      </trkpt>
      <trkpt lat="46.1472" lon="4.80283">
        <ele>170.40039</ele>
        <time>2026-05-13T12:46:03+02:00</time>
      </trkpt>
      <trkpt lat="46.14726" lon="4.80286">
        <ele>170.5</ele>
        <time>2026-05-13T12:46:04+02:00</time>
      </trkpt>
      <trkpt lat="46.14732" lon="4.80289">
        <ele>170.60059</ele>
        <time>2026-05-13T12:46:05+02:00</time>
      </trkpt>
      <trkpt lat="46.14739" lon="4.80291">
        <ele>170.60059</ele>
        <time>2026-05-13T12:46:06+02:00</time>
      </trkpt>
      <trkpt lat="46.14745" lon="4.80294">
        <ele>170.7002</ele>
        <time>2026-05-13T12:46:07+02:00</time>
      </trkpt>
      <trkpt lat="46.14751" lon="4.80297">
        <ele>170.7998</ele>
        <time>2026-05-13T12:46:08+02:00</time>
      </trkpt>
      <trkpt lat="46.14757" lon="4.80299">
        <ele>170.90039</ele>
        <time>2026-05-13T12:46:09+02:00</time>
      </trkpt>
      <trkpt lat="46.14763" lon="4.80301">
        <ele>170.7002</ele>
        <time>2026-05-13T12:46:10+02:00</time>
      </trkpt>
      <trkpt lat="46.14769" lon="4.80303">
        <ele>170.7998</ele>
        <time>2026-05-13T12:46:11+02:00</time>
      </trkpt>
      <trkpt lat="46.14775" lon="4.80305">
        <ele>170.7998</ele>
        <time>2026-05-13T12:46:12+02:00</time>
      </trkpt>
      <trkpt lat="46.14781" lon="4.80306">
        <ele>170.7002</ele>
        <time>2026-05-13T12:46:13+02:00</time>
      </trkpt>
      <trkpt lat="46.14787" lon="4.80309">
        <ele>170.7998</ele>
        <time>2026-05-13T12:46:14+02:00</time>
      </trkpt>
      <trkpt lat="46.14792" lon="4.8031">
        <ele>170.7998</ele>
        <time>2026-05-13T12:46:15+02:00</time>
      </trkpt>
      <trkpt lat="46.14798" lon="4.80313">
        <ele>170.90039</ele>
        <time>2026-05-13T12:46:16+02:00</time>
      </trkpt>
      <trkpt lat="46.14804" lon="4.80315">
        <ele>170.90039</ele>
        <time>2026-05-13T12:46:17+02:00</time>
      </trkpt>
      <trkpt lat="46.1481" lon="4.80318">
        <ele>170.90039</ele>
        <time>2026-05-13T12:46:18+02:00</time>
      </trkpt>
      <trkpt lat="46.14816" lon="4.80321">
        <ele>170.90039</ele>
        <time>2026-05-13T12:46:19+02:00</time>
      </trkpt>
      <trkpt lat="46.14821" lon="4.80325">
        <ele>170.90039</ele>
        <time>2026-05-13T12:46:20+02:00</time>
      </trkpt>
      <trkpt lat="46.14826" lon="4.8033">
        <ele>170.7998</ele>
        <time>2026-05-13T12:46:21+02:00</time>
      </trkpt>
      <trkpt lat="46.14832" lon="4.80333">
        <ele>170.7002</ele>
        <time>2026-05-13T12:46:22+02:00</time>
      </trkpt>
      <trkpt lat="46.14839" lon="4.80336">
        <ele>170.40039</ele>
        <time>2026-05-13T12:46:23+02:00</time>
      </trkpt>
      <trkpt lat="46.14845" lon="4.80339">
        <ele>170.2998</ele>
        <time>2026-05-13T12:46:24+02:00</time>
      </trkpt>
      <trkpt lat="46.14852" lon="4.80341">
        <ele>170.2998</ele>
        <time>2026-05-13T12:46:25+02:00</time>
      </trkpt>
      <trkpt lat="46.14858" lon="4.80343">
        <ele>170.10059</ele>
        <time>2026-05-13T12:46:26+02:00</time>
      </trkpt>
      <trkpt lat="46.14865" lon="4.80346">
        <ele>170</ele>
        <time>2026-05-13T12:46:27+02:00</time>
      </trkpt>
      <trkpt lat="46.14871" lon="4.80348">
        <ele>169.90039</ele>
        <time>2026-05-13T12:46:28+02:00</time>
      </trkpt>
      <trkpt lat="46.14878" lon="4.80351">
        <ele>169.7998</ele>
        <time>2026-05-13T12:46:29+02:00</time>
      </trkpt>
      <trkpt lat="46.14885" lon="4.80354">
        <ele>169.60059</ele>
        <time>2026-05-13T12:46:30+02:00</time>
      </trkpt>
      <trkpt lat="46.14891" lon="4.80356">
        <ele>169.5</ele>
        <time>2026-05-13T12:46:31+02:00</time>
      </trkpt>
      <trkpt lat="46.14898" lon="4.80359">
        <ele>169.40039</ele>
        <time>2026-05-13T12:46:32+02:00</time>
      </trkpt>
      <trkpt lat="46.14904" lon="4.80362">
        <ele>169.2002</ele>
        <time>2026-05-13T12:46:33+02:00</time>
      </trkpt>
      <trkpt lat="46.14911" lon="4.80364">
        <ele>169.2002</ele>
        <time>2026-05-13T12:46:34+02:00</time>
      </trkpt>
      <trkpt lat="46.14917" lon="4.80367">
        <ele>169.10059</ele>
        <time>2026-05-13T12:46:35+02:00</time>
      </trkpt>
      <trkpt lat="46.14924" lon="4.80369">
        <ele>169</ele>
        <time>2026-05-13T12:46:36+02:00</time>
      </trkpt>
      <trkpt lat="46.1493" lon="4.80371">
        <ele>169</ele>
        <time>2026-05-13T12:46:37+02:00</time>
      </trkpt>
      <trkpt lat="46.14937" lon="4.80374">
        <ele>169</ele>
        <time>2026-05-13T12:46:38+02:00</time>
      </trkpt>
      <trkpt lat="46.14943" lon="4.80376">
        <ele>168.90039</ele>
        <time>2026-05-13T12:46:39+02:00</time>
      </trkpt>
      <trkpt lat="46.1495" lon="4.80378">
        <ele>168.60059</ele>
        <time>2026-05-13T12:46:40+02:00</time>
      </trkpt>
      <trkpt lat="46.14957" lon="4.8038">
        <ele>168.5</ele>
        <time>2026-05-13T12:46:41+02:00</time>
      </trkpt>
      <trkpt lat="46.14963" lon="4.80383">
        <ele>168.40039</ele>
        <time>2026-05-13T12:46:42+02:00</time>
      </trkpt>
      <trkpt lat="46.1497" lon="4.80385">
        <ele>168.40039</ele>
        <time>2026-05-13T12:46:43+02:00</time>
      </trkpt>
      <trkpt lat="46.14976" lon="4.80387">
        <ele>168.2002</ele>
        <time>2026-05-13T12:46:44+02:00</time>
      </trkpt>
      <trkpt lat="46.14983" lon="4.8039">
        <ele>168.2002</ele>
        <time>2026-05-13T12:46:45+02:00</time>
      </trkpt>
      <trkpt lat="46.14989" lon="4.80392">
        <ele>168.2002</ele>
        <time>2026-05-13T12:46:46+02:00</time>
      </trkpt>
      <trkpt lat="46.14996" lon="4.80395">
        <ele>168.10059</ele>
        <time>2026-05-13T12:46:47+02:00</time>
      </trkpt>
      <trkpt lat="46.15002" lon="4.80397">
        <ele>168.10059</ele>
        <time>2026-05-13T12:46:48+02:00</time>
      </trkpt>
      <trkpt lat="46.15009" lon="4.80399">
        <ele>168.10059</ele>
        <time>2026-05-13T12:46:49+02:00</time>
      </trkpt>
      <trkpt lat="46.15015" lon="4.80401">
        <ele>168.10059</ele>
        <time>2026-05-13T12:46:50+02:00</time>
      </trkpt>
      <trkpt lat="46.15021" lon="4.80404">
        <ele>168.10059</ele>
        <time>2026-05-13T12:46:51+02:00</time>
      </trkpt>
      <trkpt lat="46.15028" lon="4.80406">
        <ele>168.2002</ele>
        <time>2026-05-13T12:46:52+02:00</time>
      </trkpt>
      <trkpt lat="46.15034" lon="4.80408">
        <ele>168.2998</ele>
        <time>2026-05-13T12:46:53+02:00</time>
      </trkpt>
      <trkpt lat="46.1504" lon="4.8041">
        <ele>168.40039</ele>
        <time>2026-05-13T12:46:54+02:00</time>
      </trkpt>
      <trkpt lat="46.15046" lon="4.80411">
        <ele>168.40039</ele>
        <time>2026-05-13T12:46:55+02:00</time>
      </trkpt>
      <trkpt lat="46.15053" lon="4.80413">
        <ele>168.40039</ele>
        <time>2026-05-13T12:46:56+02:00</time>
      </trkpt>
      <trkpt lat="46.15059" lon="4.80414">
        <ele>168.40039</ele>
        <time>2026-05-13T12:46:57+02:00</time>
      </trkpt>
      <trkpt lat="46.15066" lon="4.80415">
        <ele>168.40039</ele>
        <time>2026-05-13T12:46:58+02:00</time>
      </trkpt>
      <trkpt lat="46.15073" lon="4.80417">
        <ele>168.2998</ele>
        <time>2026-05-13T12:46:59+02:00</time>
      </trkpt>
      <trkpt lat="46.15079" lon="4.8042">
        <ele>168.40039</ele>
        <time>2026-05-13T12:47:00+02:00</time>
      </trkpt>
      <trkpt lat="46.15086" lon="4.80422">
        <ele>168.5</ele>
        <time>2026-05-13T12:47:01+02:00</time>
      </trkpt>
      <trkpt lat="46.15092" lon="4.80426">
        <ele>168.60059</ele>
        <time>2026-05-13T12:47:02+02:00</time>
      </trkpt>
      <trkpt lat="46.15098" lon="4.80429">
        <ele>168.7998</ele>
        <time>2026-05-13T12:47:03+02:00</time>
      </trkpt>
      <trkpt lat="46.15105" lon="4.80431">
        <ele>168.7998</ele>
        <time>2026-05-13T12:47:04+02:00</time>
      </trkpt>
      <trkpt lat="46.15124" lon="4.80438">
        <ele>169</ele>
        <time>2026-05-13T12:47:05+02:00</time>
      </trkpt>
      <trkpt lat="46.15131" lon="4.8044">
        <ele>169</ele>
        <time>2026-05-13T12:47:06+02:00</time>
      </trkpt>
      <trkpt lat="46.15137" lon="4.80442">
        <ele>169.10059</ele>
        <time>2026-05-13T12:47:07+02:00</time>
      </trkpt>
      <trkpt lat="46.15143" lon="4.80445">
        <ele>169.10059</ele>
        <time>2026-05-13T12:47:08+02:00</time>
      </trkpt>
      <trkpt lat="46.1515" lon="4.80447">
        <ele>169.2998</ele>
        <time>2026-05-13T12:47:09+02:00</time>
      </trkpt>
      <trkpt lat="46.15156" lon="4.80448">
        <ele>169.40039</ele>
        <time>2026-05-13T12:47:10+02:00</time>
      </trkpt>
      <trkpt lat="46.15162" lon="4.8045">
        <ele>169.40039</ele>
        <time>2026-05-13T12:47:11+02:00</time>
      </trkpt>
      <trkpt lat="46.15168" lon="4.80452">
        <ele>169.5</ele>
        <time>2026-05-13T12:47:12+02:00</time>
      </trkpt>
      <trkpt lat="46.15175" lon="4.80454">
        <ele>169.5</ele>
        <time>2026-05-13T12:47:13+02:00</time>
      </trkpt>
      <trkpt lat="46.15181" lon="4.80456">
        <ele>169.7998</ele>
        <time>2026-05-13T12:47:14+02:00</time>
      </trkpt>
      <trkpt lat="46.15187" lon="4.80458">
        <ele>169.7998</ele>
        <time>2026-05-13T12:47:15+02:00</time>
      </trkpt>
      <trkpt lat="46.15194" lon="4.80459">
        <ele>169.7998</ele>
        <time>2026-05-13T12:47:16+02:00</time>
      </trkpt>
      <trkpt lat="46.152" lon="4.80461">
        <ele>169.7002</ele>
        <time>2026-05-13T12:47:17+02:00</time>
      </trkpt>
      <trkpt lat="46.15207" lon="4.80463">
        <ele>169.60059</ele>
        <time>2026-05-13T12:47:18+02:00</time>
      </trkpt>
      <trkpt lat="46.15213" lon="4.80465">
        <ele>169.7002</ele>
        <time>2026-05-13T12:47:19+02:00</time>
      </trkpt>
      <trkpt lat="46.15219" lon="4.80467">
        <ele>169.7002</ele>
        <time>2026-05-13T12:47:20+02:00</time>
      </trkpt>
      <trkpt lat="46.15225" lon="4.8047">
        <ele>169.7002</ele>
        <time>2026-05-13T12:47:21+02:00</time>
      </trkpt>
      <trkpt lat="46.15232" lon="4.80472">
        <ele>169.90039</ele>
        <time>2026-05-13T12:47:22+02:00</time>
      </trkpt>
      <trkpt lat="46.15238" lon="4.80474">
        <ele>169.90039</ele>
        <time>2026-05-13T12:47:23+02:00</time>
      </trkpt>
      <trkpt lat="46.15245" lon="4.80476">
        <ele>169.90039</ele>
        <time>2026-05-13T12:47:24+02:00</time>
      </trkpt>
      <trkpt lat="46.15251" lon="4.80478">
        <ele>169.90039</ele>
        <time>2026-05-13T12:47:25+02:00</time>
      </trkpt>
      <trkpt lat="46.15257" lon="4.80481">
        <ele>170.10059</ele>
        <time>2026-05-13T12:47:26+02:00</time>
      </trkpt>
      <trkpt lat="46.15263" lon="4.80483">
        <ele>170.10059</ele>
        <time>2026-05-13T12:47:27+02:00</time>
      </trkpt>
      <trkpt lat="46.15269" lon="4.80486">
        <ele>170.2002</ele>
        <time>2026-05-13T12:47:28+02:00</time>
      </trkpt>
      <trkpt lat="46.15276" lon="4.80488">
        <ele>170.2998</ele>
        <time>2026-05-13T12:47:29+02:00</time>
      </trkpt>
      <trkpt lat="46.15283" lon="4.8049">
        <ele>170.40039</ele>
        <time>2026-05-13T12:47:30+02:00</time>
      </trkpt>
      <trkpt lat="46.15289" lon="4.80492">
        <ele>170.5</ele>
        <time>2026-05-13T12:47:31+02:00</time>
      </trkpt>
      <trkpt lat="46.15296" lon="4.80494">
        <ele>170.60059</ele>
        <time>2026-05-13T12:47:32+02:00</time>
      </trkpt>
      <trkpt lat="46.15303" lon="4.80496">
        <ele>170.7998</ele>
        <time>2026-05-13T12:47:33+02:00</time>
      </trkpt>
      <trkpt lat="46.15309" lon="4.80498">
        <ele>170.90039</ele>
        <time>2026-05-13T12:47:34+02:00</time>
      </trkpt>
      <trkpt lat="46.15316" lon="4.80501">
        <ele>170.90039</ele>
        <time>2026-05-13T12:47:35+02:00</time>
      </trkpt>
      <trkpt lat="46.15323" lon="4.80503">
        <ele>171</ele>
        <time>2026-05-13T12:47:36+02:00</time>
      </trkpt>
      <trkpt lat="46.15329" lon="4.80505">
        <ele>171.10059</ele>
        <time>2026-05-13T12:47:37+02:00</time>
      </trkpt>
      <trkpt lat="46.15336" lon="4.80506">
        <ele>171.2002</ele>
        <time>2026-05-13T12:47:38+02:00</time>
      </trkpt>
      <trkpt lat="46.15343" lon="4.80508">
        <ele>171.2998</ele>
        <time>2026-05-13T12:47:39+02:00</time>
      </trkpt>
      <trkpt lat="46.15349" lon="4.8051">
        <ele>171.2998</ele>
        <time>2026-05-13T12:47:40+02:00</time>
      </trkpt>
      <trkpt lat="46.15355" lon="4.80511">
        <ele>171.40039</ele>
        <time>2026-05-13T12:47:41+02:00</time>
      </trkpt>
      <trkpt lat="46.15362" lon="4.80513">
        <ele>171.60059</ele>
        <time>2026-05-13T12:47:42+02:00</time>
      </trkpt>
      <trkpt lat="46.15368" lon="4.80514">
        <ele>171.60059</ele>
        <time>2026-05-13T12:47:43+02:00</time>
      </trkpt>
      <trkpt lat="46.15375" lon="4.80515">
        <ele>171.7002</ele>
        <time>2026-05-13T12:47:44+02:00</time>
      </trkpt>
      <trkpt lat="46.15381" lon="4.80516">
        <ele>171.7998</ele>
        <time>2026-05-13T12:47:45+02:00</time>
      </trkpt>
      <trkpt lat="46.15387" lon="4.80517">
        <ele>171.7998</ele>
        <time>2026-05-13T12:47:46+02:00</time>
      </trkpt>
      <trkpt lat="46.15393" lon="4.80519">
        <ele>171.90039</ele>
        <time>2026-05-13T12:47:47+02:00</time>
      </trkpt>
      <trkpt lat="46.15399" lon="4.8052">
        <ele>172</ele>
        <time>2026-05-13T12:47:48+02:00</time>
      </trkpt>
      <trkpt lat="46.15406" lon="4.80521">
        <ele>172</ele>
        <time>2026-05-13T12:47:49+02:00</time>
      </trkpt>
      <trkpt lat="46.15412" lon="4.80522">
        <ele>172.10059</ele>
        <time>2026-05-13T12:47:50+02:00</time>
      </trkpt>
      <trkpt lat="46.15418" lon="4.80524">
        <ele>172.10059</ele>
        <time>2026-05-13T12:47:51+02:00</time>
      </trkpt>
      <trkpt lat="46.15424" lon="4.80525">
        <ele>172.2002</ele>
        <time>2026-05-13T12:47:52+02:00</time>
      </trkpt>
      <trkpt lat="46.15431" lon="4.80526">
        <ele>172.2002</ele>
        <time>2026-05-13T12:47:53+02:00</time>
      </trkpt>
      <trkpt lat="46.15437" lon="4.80527">
        <ele>172.2998</ele>
        <time>2026-05-13T12:47:54+02:00</time>
      </trkpt>
      <trkpt lat="46.15444" lon="4.80528">
        <ele>172.2998</ele>
        <time>2026-05-13T12:47:55+02:00</time>
      </trkpt>
      <trkpt lat="46.15452" lon="4.80528">
        <ele>172.2998</ele>
        <time>2026-05-13T12:47:56+02:00</time>
      </trkpt>
      <trkpt lat="46.15458" lon="4.80529">
        <ele>172.40039</ele>
        <time>2026-05-13T12:47:57+02:00</time>
      </trkpt>
      <trkpt lat="46.15465" lon="4.80529">
        <ele>172.40039</ele>
        <time>2026-05-13T12:47:58+02:00</time>
      </trkpt>
      <trkpt lat="46.15472" lon="4.80529">
        <ele>172.40039</ele>
        <time>2026-05-13T12:47:59+02:00</time>
      </trkpt>
      <trkpt lat="46.15478" lon="4.80528">
        <ele>172.40039</ele>
        <time>2026-05-13T12:48:00+02:00</time>
      </trkpt>
      <trkpt lat="46.15484" lon="4.80527">
        <ele>172.40039</ele>
        <time>2026-05-13T12:48:01+02:00</time>
      </trkpt>
      <trkpt lat="46.15491" lon="4.80527">
        <ele>172.40039</ele>
        <time>2026-05-13T12:48:02+02:00</time>
      </trkpt>
      <trkpt lat="46.15497" lon="4.80526">
        <ele>172.40039</ele>
        <time>2026-05-13T12:48:03+02:00</time>
      </trkpt>
      <trkpt lat="46.15504" lon="4.80525">
        <ele>172.40039</ele>
        <time>2026-05-13T12:48:04+02:00</time>
      </trkpt>
      <trkpt lat="46.1551" lon="4.80524">
        <ele>172.40039</ele>
        <time>2026-05-13T12:48:05+02:00</time>
      </trkpt>
      <trkpt lat="46.15516" lon="4.80523">
        <ele>172.2998</ele>
        <time>2026-05-13T12:48:06+02:00</time>
      </trkpt>
      <trkpt lat="46.15523" lon="4.80521">
        <ele>172.2002</ele>
        <time>2026-05-13T12:48:07+02:00</time>
      </trkpt>
      <trkpt lat="46.15529" lon="4.8052">
        <ele>172.2002</ele>
        <time>2026-05-13T12:48:08+02:00</time>
      </trkpt>
      <trkpt lat="46.15535" lon="4.80518">
        <ele>172.10059</ele>
        <time>2026-05-13T12:48:09+02:00</time>
      </trkpt>
      <trkpt lat="46.15542" lon="4.80516">
        <ele>172.10059</ele>
        <time>2026-05-13T12:48:10+02:00</time>
      </trkpt>
      <trkpt lat="46.15547" lon="4.80514">
        <ele>172</ele>
        <time>2026-05-13T12:48:11+02:00</time>
      </trkpt>
      <trkpt lat="46.15554" lon="4.80512">
        <ele>172</ele>
        <time>2026-05-13T12:48:12+02:00</time>
      </trkpt>
      <trkpt lat="46.15561" lon="4.80509">
        <ele>172</ele>
        <time>2026-05-13T12:48:13+02:00</time>
      </trkpt>
      <trkpt lat="46.15568" lon="4.80507">
        <ele>171.90039</ele>
        <time>2026-05-13T12:48:14+02:00</time>
      </trkpt>
      <trkpt lat="46.15574" lon="4.80505">
        <ele>171.90039</ele>
        <time>2026-05-13T12:48:15+02:00</time>
      </trkpt>
      <trkpt lat="46.15582" lon="4.80503">
        <ele>171.7998</ele>
        <time>2026-05-13T12:48:16+02:00</time>
      </trkpt>
      <trkpt lat="46.15589" lon="4.805">
        <ele>171.7998</ele>
        <time>2026-05-13T12:48:17+02:00</time>
      </trkpt>
      <trkpt lat="46.15596" lon="4.80497">
        <ele>171.7002</ele>
        <time>2026-05-13T12:48:18+02:00</time>
      </trkpt>
      <trkpt lat="46.15603" lon="4.80494">
        <ele>171.60059</ele>
        <time>2026-05-13T12:48:19+02:00</time>
      </trkpt>
      <trkpt lat="46.15609" lon="4.80492">
        <ele>171.5</ele>
        <time>2026-05-13T12:48:20+02:00</time>
      </trkpt>
      <trkpt lat="46.15616" lon="4.80489">
        <ele>171.5</ele>
        <time>2026-05-13T12:48:21+02:00</time>
      </trkpt>
      <trkpt lat="46.15623" lon="4.80487">
        <ele>171.40039</ele>
        <time>2026-05-13T12:48:22+02:00</time>
      </trkpt>
      <trkpt lat="46.1563" lon="4.80484">
        <ele>171.2002</ele>
        <time>2026-05-13T12:48:23+02:00</time>
      </trkpt>
      <trkpt lat="46.15637" lon="4.80481">
        <ele>171.2002</ele>
        <time>2026-05-13T12:48:24+02:00</time>
      </trkpt>
      <trkpt lat="46.15644" lon="4.80479">
        <ele>171</ele>
        <time>2026-05-13T12:48:25+02:00</time>
      </trkpt>
      <trkpt lat="46.15651" lon="4.80476">
        <ele>171</ele>
        <time>2026-05-13T12:48:26+02:00</time>
      </trkpt>
      <trkpt lat="46.15658" lon="4.80473">
        <ele>170.90039</ele>
        <time>2026-05-13T12:48:27+02:00</time>
      </trkpt>
      <trkpt lat="46.15665" lon="4.80471">
        <ele>170.7002</ele>
        <time>2026-05-13T12:48:28+02:00</time>
      </trkpt>
      <trkpt lat="46.15672" lon="4.80469">
        <ele>170.60059</ele>
        <time>2026-05-13T12:48:29+02:00</time>
      </trkpt>
      <trkpt lat="46.15679" lon="4.80467">
        <ele>170.5</ele>
        <time>2026-05-13T12:48:30+02:00</time>
      </trkpt>
      <trkpt lat="46.15685" lon="4.80465">
        <ele>170.40039</ele>
        <time>2026-05-13T12:48:31+02:00</time>
      </trkpt>
      <trkpt lat="46.15692" lon="4.80463">
        <ele>170.2998</ele>
        <time>2026-05-13T12:48:32+02:00</time>
      </trkpt>
      <trkpt lat="46.15699" lon="4.80462">
        <ele>170.2002</ele>
        <time>2026-05-13T12:48:33+02:00</time>
      </trkpt>
      <trkpt lat="46.15705" lon="4.80461">
        <ele>170.10059</ele>
        <time>2026-05-13T12:48:34+02:00</time>
      </trkpt>
      <trkpt lat="46.15712" lon="4.80459">
        <ele>170.10059</ele>
        <time>2026-05-13T12:48:35+02:00</time>
      </trkpt>
      <trkpt lat="46.15719" lon="4.80458">
        <ele>170</ele>
        <time>2026-05-13T12:48:36+02:00</time>
      </trkpt>
      <trkpt lat="46.15725" lon="4.80456">
        <ele>169.90039</ele>
        <time>2026-05-13T12:48:37+02:00</time>
      </trkpt>
      <trkpt lat="46.15732" lon="4.80455">
        <ele>169.90039</ele>
        <time>2026-05-13T12:48:38+02:00</time>
      </trkpt>
      <trkpt lat="46.15739" lon="4.80453">
        <ele>170</ele>
        <time>2026-05-13T12:48:39+02:00</time>
      </trkpt>
      <trkpt lat="46.15746" lon="4.80452">
        <ele>170</ele>
        <time>2026-05-13T12:48:40+02:00</time>
      </trkpt>
      <trkpt lat="46.15753" lon="4.80451">
        <ele>170.10059</ele>
        <time>2026-05-13T12:48:41+02:00</time>
      </trkpt>
      <trkpt lat="46.1576" lon="4.8045">
        <ele>170.2998</ele>
        <time>2026-05-13T12:48:42+02:00</time>
      </trkpt>
      <trkpt lat="46.15767" lon="4.80448">
        <ele>170.40039</ele>
        <time>2026-05-13T12:48:43+02:00</time>
      </trkpt>
      <trkpt lat="46.15774" lon="4.80446">
        <ele>170.60059</ele>
        <time>2026-05-13T12:48:44+02:00</time>
      </trkpt>
      <trkpt lat="46.15781" lon="4.80444">
        <ele>170.90039</ele>
        <time>2026-05-13T12:48:45+02:00</time>
      </trkpt>
      <trkpt lat="46.15788" lon="4.8044">
        <ele>171.10059</ele>
        <time>2026-05-13T12:48:46+02:00</time>
      </trkpt>
      <trkpt lat="46.15794" lon="4.80436">
        <ele>171.40039</ele>
        <time>2026-05-13T12:48:47+02:00</time>
      </trkpt>
      <trkpt lat="46.15801" lon="4.80431">
        <ele>171.60059</ele>
        <time>2026-05-13T12:48:48+02:00</time>
      </trkpt>
      <trkpt lat="46.15807" lon="4.80427">
        <ele>171.7998</ele>
        <time>2026-05-13T12:48:49+02:00</time>
      </trkpt>
      <trkpt lat="46.15813" lon="4.80422">
        <ele>172</ele>
        <time>2026-05-13T12:48:50+02:00</time>
      </trkpt>
      <trkpt lat="46.1582" lon="4.80417">
        <ele>172.2998</ele>
        <time>2026-05-13T12:48:51+02:00</time>
      </trkpt>
      <trkpt lat="46.15826" lon="4.80412">
        <ele>172.40039</ele>
        <time>2026-05-13T12:48:52+02:00</time>
      </trkpt>
      <trkpt lat="46.15832" lon="4.80407">
        <ele>172.40039</ele>
        <time>2026-05-13T12:48:53+02:00</time>
      </trkpt>
      <trkpt lat="46.15838" lon="4.80401">
        <ele>172.40039</ele>
        <time>2026-05-13T12:48:54+02:00</time>
      </trkpt>
      <trkpt lat="46.15844" lon="4.80396">
        <ele>172.40039</ele>
        <time>2026-05-13T12:48:55+02:00</time>
      </trkpt>
      <trkpt lat="46.1585" lon="4.8039">
        <ele>172.2998</ele>
        <time>2026-05-13T12:48:56+02:00</time>
      </trkpt>
      <trkpt lat="46.15856" lon="4.80384">
        <ele>172.2002</ele>
        <time>2026-05-13T12:48:57+02:00</time>
      </trkpt>
      <trkpt lat="46.15862" lon="4.80379">
        <ele>172.2002</ele>
        <time>2026-05-13T12:48:58+02:00</time>
      </trkpt>
      <trkpt lat="46.15868" lon="4.80372">
        <ele>172.2002</ele>
        <time>2026-05-13T12:48:59+02:00</time>
      </trkpt>
      <trkpt lat="46.15873" lon="4.80367">
        <ele>172.2998</ele>
        <time>2026-05-13T12:49:00+02:00</time>
      </trkpt>
      <trkpt lat="46.15879" lon="4.80361">
        <ele>172.2998</ele>
        <time>2026-05-13T12:49:01+02:00</time>
      </trkpt>
      <trkpt lat="46.15885" lon="4.80355">
        <ele>172.2998</ele>
        <time>2026-05-13T12:49:02+02:00</time>
      </trkpt>
      <trkpt lat="46.1589" lon="4.80349">
        <ele>172.2998</ele>
        <time>2026-05-13T12:49:03+02:00</time>
      </trkpt>
      <trkpt lat="46.15896" lon="4.80343">
        <ele>172.2998</ele>
        <time>2026-05-13T12:49:04+02:00</time>
      </trkpt>
      <trkpt lat="46.15901" lon="4.80337">
        <ele>172.2998</ele>
        <time>2026-05-13T12:49:05+02:00</time>
      </trkpt>
      <trkpt lat="46.15906" lon="4.8033">
        <ele>172.2002</ele>
        <time>2026-05-13T12:49:06+02:00</time>
      </trkpt>
      <trkpt lat="46.15911" lon="4.80324">
        <ele>172</ele>
        <time>2026-05-13T12:49:07+02:00</time>
      </trkpt>
      <trkpt lat="46.15917" lon="4.80318">
        <ele>171.90039</ele>
        <time>2026-05-13T12:49:08+02:00</time>
      </trkpt>
      <trkpt lat="46.15922" lon="4.80312">
        <ele>171.60059</ele>
        <time>2026-05-13T12:49:09+02:00</time>
      </trkpt>
      <trkpt lat="46.15927" lon="4.80306">
        <ele>171.2002</ele>
        <time>2026-05-13T12:49:10+02:00</time>
      </trkpt>
      <trkpt lat="46.15932" lon="4.80299">
        <ele>171.10059</ele>
        <time>2026-05-13T12:49:11+02:00</time>
      </trkpt>
      <trkpt lat="46.15937" lon="4.80293">
        <ele>170.90039</ele>
        <time>2026-05-13T12:49:12+02:00</time>
      </trkpt>
      <trkpt lat="46.15942" lon="4.80286">
        <ele>170.5</ele>
        <time>2026-05-13T12:49:13+02:00</time>
      </trkpt>
      <trkpt lat="46.15947" lon="4.80279">
        <ele>170.10059</ele>
        <time>2026-05-13T12:49:14+02:00</time>
      </trkpt>
      <trkpt lat="46.15952" lon="4.80272">
        <ele>169.7998</ele>
        <time>2026-05-13T12:49:15+02:00</time>
      </trkpt>
      <trkpt lat="46.15957" lon="4.80265">
        <ele>169.5</ele>
        <time>2026-05-13T12:49:16+02:00</time>
      </trkpt>
      <trkpt lat="46.15962" lon="4.80259">
        <ele>169.5</ele>
        <time>2026-05-13T12:49:17+02:00</time>
      </trkpt>
      <trkpt lat="46.15967" lon="4.80251">
        <ele>169.2998</ele>
        <time>2026-05-13T12:49:18+02:00</time>
      </trkpt>
      <trkpt lat="46.15971" lon="4.80245">
        <ele>169.2002</ele>
        <time>2026-05-13T12:49:19+02:00</time>
      </trkpt>
      <trkpt lat="46.15976" lon="4.80238">
        <ele>169.2002</ele>
        <time>2026-05-13T12:49:20+02:00</time>
      </trkpt>
      <trkpt lat="46.15981" lon="4.8023">
        <ele>169.2002</ele>
        <time>2026-05-13T12:49:21+02:00</time>
      </trkpt>
      <trkpt lat="46.15985" lon="4.80223">
        <ele>169.2002</ele>
        <time>2026-05-13T12:49:22+02:00</time>
      </trkpt>
      <trkpt lat="46.1599" lon="4.80216">
        <ele>169.40039</ele>
        <time>2026-05-13T12:49:23+02:00</time>
      </trkpt>
      <trkpt lat="46.15994" lon="4.80209">
        <ele>169.7002</ele>
        <time>2026-05-13T12:49:24+02:00</time>
      </trkpt>
      <trkpt lat="46.15999" lon="4.80202">
        <ele>170</ele>
        <time>2026-05-13T12:49:25+02:00</time>
      </trkpt>
      <trkpt lat="46.16004" lon="4.80195">
        <ele>170.2002</ele>
        <time>2026-05-13T12:49:26+02:00</time>
      </trkpt>
      <trkpt lat="46.16009" lon="4.80188">
        <ele>170.40039</ele>
        <time>2026-05-13T12:49:27+02:00</time>
      </trkpt>
      <trkpt lat="46.16013" lon="4.80181">
        <ele>170.40039</ele>
        <time>2026-05-13T12:49:28+02:00</time>
      </trkpt>
      <trkpt lat="46.16017" lon="4.80174">
        <ele>170.60059</ele>
        <time>2026-05-13T12:49:29+02:00</time>
      </trkpt>
      <trkpt lat="46.16021" lon="4.80166">
        <ele>170.60059</ele>
        <time>2026-05-13T12:49:30+02:00</time>
      </trkpt>
      <trkpt lat="46.16025" lon="4.8016">
        <ele>170.5</ele>
        <time>2026-05-13T12:49:31+02:00</time>
      </trkpt>
      <trkpt lat="46.16029" lon="4.80153">
        <ele>170.2002</ele>
        <time>2026-05-13T12:49:32+02:00</time>
      </trkpt>
      <trkpt lat="46.16034" lon="4.80147">
        <ele>170.2998</ele>
        <time>2026-05-13T12:49:33+02:00</time>
      </trkpt>
      <trkpt lat="46.16038" lon="4.8014">
        <ele>169.90039</ele>
        <time>2026-05-13T12:49:34+02:00</time>
      </trkpt>
      <trkpt lat="46.16042" lon="4.80134">
        <ele>169.5</ele>
        <time>2026-05-13T12:49:35+02:00</time>
      </trkpt>
      <trkpt lat="46.16046" lon="4.80128">
        <ele>169.2998</ele>
        <time>2026-05-13T12:49:36+02:00</time>
      </trkpt>
      <trkpt lat="46.1605" lon="4.80122">
        <ele>169.2998</ele>
        <time>2026-05-13T12:49:37+02:00</time>
      </trkpt>
      <trkpt lat="46.16055" lon="4.80117">
        <ele>169.10059</ele>
        <time>2026-05-13T12:49:38+02:00</time>
      </trkpt>
      <trkpt lat="46.1606" lon="4.80112">
        <ele>169.2998</ele>
        <time>2026-05-13T12:49:39+02:00</time>
      </trkpt>
      <trkpt lat="46.16065" lon="4.80107">
        <ele>169.2002</ele>
        <time>2026-05-13T12:49:40+02:00</time>
      </trkpt>
      <trkpt lat="46.1607" lon="4.80101">
        <ele>169</ele>
        <time>2026-05-13T12:49:41+02:00</time>
      </trkpt>
      <trkpt lat="46.16074" lon="4.80094">
        <ele>169</ele>
        <time>2026-05-13T12:49:42+02:00</time>
      </trkpt>
      <trkpt lat="46.16078" lon="4.80087">
        <ele>168.7998</ele>
        <time>2026-05-13T12:49:43+02:00</time>
      </trkpt>
      <trkpt lat="46.16081" lon="4.8008">
        <ele>168.60059</ele>
        <time>2026-05-13T12:49:44+02:00</time>
      </trkpt>
      <trkpt lat="46.16085" lon="4.80073">
        <ele>168.60059</ele>
        <time>2026-05-13T12:49:45+02:00</time>
      </trkpt>
      <trkpt lat="46.16089" lon="4.80067">
        <ele>168.5</ele>
        <time>2026-05-13T12:49:46+02:00</time>
      </trkpt>
      <trkpt lat="46.16093" lon="4.8006">
        <ele>168.60059</ele>
        <time>2026-05-13T12:49:47+02:00</time>
      </trkpt>
      <trkpt lat="46.16097" lon="4.80053">
        <ele>168.5</ele>
        <time>2026-05-13T12:49:48+02:00</time>
      </trkpt>
      <trkpt lat="46.16101" lon="4.80046">
        <ele>168.5</ele>
        <time>2026-05-13T12:49:49+02:00</time>
      </trkpt>
      <trkpt lat="46.16105" lon="4.80039">
        <ele>168.5</ele>
        <time>2026-05-13T12:49:50+02:00</time>
      </trkpt>
      <trkpt lat="46.16108" lon="4.80032">
        <ele>168.40039</ele>
        <time>2026-05-13T12:49:51+02:00</time>
      </trkpt>
      <trkpt lat="46.16112" lon="4.80025">
        <ele>168.40039</ele>
        <time>2026-05-13T12:49:52+02:00</time>
      </trkpt>
      <trkpt lat="46.16116" lon="4.80018">
        <ele>168.40039</ele>
        <time>2026-05-13T12:49:53+02:00</time>
      </trkpt>
      <trkpt lat="46.16119" lon="4.80011">
        <ele>168.5</ele>
        <time>2026-05-13T12:49:54+02:00</time>
      </trkpt>
      <trkpt lat="46.16123" lon="4.80004">
        <ele>168.5</ele>
        <time>2026-05-13T12:49:55+02:00</time>
      </trkpt>
      <trkpt lat="46.16127" lon="4.79998">
        <ele>168.40039</ele>
        <time>2026-05-13T12:49:56+02:00</time>
      </trkpt>
      <trkpt lat="46.1613" lon="4.79991">
        <ele>168.5</ele>
        <time>2026-05-13T12:49:57+02:00</time>
      </trkpt>
      <trkpt lat="46.16134" lon="4.79984">
        <ele>168.40039</ele>
        <time>2026-05-13T12:49:58+02:00</time>
      </trkpt>
      <trkpt lat="46.16138" lon="4.79977">
        <ele>168.40039</ele>
        <time>2026-05-13T12:49:59+02:00</time>
      </trkpt>
      <trkpt lat="46.16142" lon="4.7997">
        <ele>168.40039</ele>
        <time>2026-05-13T12:50:00+02:00</time>
      </trkpt>
      <trkpt lat="46.16145" lon="4.79964">
        <ele>168.2998</ele>
        <time>2026-05-13T12:50:01+02:00</time>
      </trkpt>
      <trkpt lat="46.16149" lon="4.79957">
        <ele>168.40039</ele>
        <time>2026-05-13T12:50:02+02:00</time>
      </trkpt>
      <trkpt lat="46.16153" lon="4.7995">
        <ele>168.5</ele>
        <time>2026-05-13T12:50:03+02:00</time>
      </trkpt>
      <trkpt lat="46.16157" lon="4.79943">
        <ele>168.40039</ele>
        <time>2026-05-13T12:50:04+02:00</time>
      </trkpt>
      <trkpt lat="46.1616" lon="4.79936">
        <ele>168.40039</ele>
        <time>2026-05-13T12:50:05+02:00</time>
      </trkpt>
      <trkpt lat="46.16164" lon="4.7993">
        <ele>168.2998</ele>
        <time>2026-05-13T12:50:06+02:00</time>
      </trkpt>
      <trkpt lat="46.16168" lon="4.79923">
        <ele>168.40039</ele>
        <time>2026-05-13T12:50:07+02:00</time>
      </trkpt>
      <trkpt lat="46.16171" lon="4.79916">
        <ele>168.40039</ele>
        <time>2026-05-13T12:50:08+02:00</time>
      </trkpt>
      <trkpt lat="46.16175" lon="4.79909">
        <ele>168.40039</ele>
        <time>2026-05-13T12:50:09+02:00</time>
      </trkpt>
      <trkpt lat="46.16179" lon="4.79903">
        <ele>168.2998</ele>
        <time>2026-05-13T12:50:10+02:00</time>
      </trkpt>
      <trkpt lat="46.16182" lon="4.79896">
        <ele>168.2002</ele>
        <time>2026-05-13T12:50:11+02:00</time>
      </trkpt>
      <trkpt lat="46.16186" lon="4.79889">
        <ele>168.40039</ele>
        <time>2026-05-13T12:50:12+02:00</time>
      </trkpt>
      <trkpt lat="46.1619" lon="4.79883">
        <ele>168.40039</ele>
        <time>2026-05-13T12:50:13+02:00</time>
      </trkpt>
      <trkpt lat="46.16193" lon="4.79876">
        <ele>168.40039</ele>
        <time>2026-05-13T12:50:14+02:00</time>
      </trkpt>
      <trkpt lat="46.16197" lon="4.79869">
        <ele>168.40039</ele>
        <time>2026-05-13T12:50:15+02:00</time>
      </trkpt>
      <trkpt lat="46.162" lon="4.79862">
        <ele>168.40039</ele>
        <time>2026-05-13T12:50:16+02:00</time>
      </trkpt>
      <trkpt lat="46.16204" lon="4.79856">
        <ele>168.5</ele>
        <time>2026-05-13T12:50:17+02:00</time>
      </trkpt>
      <trkpt lat="46.16208" lon="4.79849">
        <ele>168.60059</ele>
        <time>2026-05-13T12:50:18+02:00</time>
      </trkpt>
      <trkpt lat="46.16211" lon="4.79842">
        <ele>168.40039</ele>
        <time>2026-05-13T12:50:19+02:00</time>
      </trkpt>
      <trkpt lat="46.16215" lon="4.79836">
        <ele>168.40039</ele>
        <time>2026-05-13T12:50:20+02:00</time>
      </trkpt>
      <trkpt lat="46.16219" lon="4.79829">
        <ele>168.60059</ele>
        <time>2026-05-13T12:50:21+02:00</time>
      </trkpt>
      <trkpt lat="46.16223" lon="4.79822">
        <ele>168.40039</ele>
        <time>2026-05-13T12:50:22+02:00</time>
      </trkpt>
      <trkpt lat="46.16227" lon="4.79816">
        <ele>168.5</ele>
        <time>2026-05-13T12:50:23+02:00</time>
      </trkpt>
      <trkpt lat="46.16231" lon="4.79809">
        <ele>168.90039</ele>
        <time>2026-05-13T12:50:24+02:00</time>
      </trkpt>
      <trkpt lat="46.16234" lon="4.79803">
        <ele>168.90039</ele>
        <time>2026-05-13T12:50:25+02:00</time>
      </trkpt>
      <trkpt lat="46.16238" lon="4.79796">
        <ele>169.2998</ele>
        <time>2026-05-13T12:50:26+02:00</time>
      </trkpt>
      <trkpt lat="46.16242" lon="4.79789">
        <ele>169.5</ele>
        <time>2026-05-13T12:50:27+02:00</time>
      </trkpt>
      <trkpt lat="46.16245" lon="4.79783">
        <ele>169.2998</ele>
        <time>2026-05-13T12:50:28+02:00</time>
      </trkpt>
      <trkpt lat="46.16248" lon="4.79776">
        <ele>169.2998</ele>
        <time>2026-05-13T12:50:29+02:00</time>
      </trkpt>
      <trkpt lat="46.16252" lon="4.79769">
        <ele>169.2998</ele>
        <time>2026-05-13T12:50:30+02:00</time>
      </trkpt>
      <trkpt lat="46.16255" lon="4.79763">
        <ele>169.40039</ele>
        <time>2026-05-13T12:50:31+02:00</time>
      </trkpt>
      <trkpt lat="46.16259" lon="4.79756">
        <ele>169.2998</ele>
        <time>2026-05-13T12:50:32+02:00</time>
      </trkpt>
      <trkpt lat="46.16262" lon="4.7975">
        <ele>169.2998</ele>
        <time>2026-05-13T12:50:33+02:00</time>
      </trkpt>
      <trkpt lat="46.16265" lon="4.79743">
        <ele>169.2998</ele>
        <time>2026-05-13T12:50:34+02:00</time>
      </trkpt>
      <trkpt lat="46.16269" lon="4.79737">
        <ele>169.40039</ele>
        <time>2026-05-13T12:50:35+02:00</time>
      </trkpt>
      <trkpt lat="46.16272" lon="4.7973">
        <ele>169.40039</ele>
        <time>2026-05-13T12:50:36+02:00</time>
      </trkpt>
      <trkpt lat="46.16275" lon="4.79724">
        <ele>169.2002</ele>
        <time>2026-05-13T12:50:37+02:00</time>
      </trkpt>
      <trkpt lat="46.16279" lon="4.79718">
        <ele>169.2998</ele>
        <time>2026-05-13T12:50:38+02:00</time>
      </trkpt>
      <trkpt lat="46.16282" lon="4.79711">
        <ele>169.10059</ele>
        <time>2026-05-13T12:50:39+02:00</time>
      </trkpt>
      <trkpt lat="46.16285" lon="4.79705">
        <ele>169</ele>
        <time>2026-05-13T12:50:40+02:00</time>
      </trkpt>
      <trkpt lat="46.16288" lon="4.79698">
        <ele>168.7002</ele>
        <time>2026-05-13T12:50:41+02:00</time>
      </trkpt>
      <trkpt lat="46.16292" lon="4.79692">
        <ele>168.90039</ele>
        <time>2026-05-13T12:50:42+02:00</time>
      </trkpt>
      <trkpt lat="46.16295" lon="4.79685">
        <ele>168.7002</ele>
        <time>2026-05-13T12:50:43+02:00</time>
      </trkpt>
      <trkpt lat="46.16298" lon="4.79679">
        <ele>168.7998</ele>
        <time>2026-05-13T12:50:44+02:00</time>
      </trkpt>
      <trkpt lat="46.16301" lon="4.79672">
        <ele>168.90039</ele>
        <time>2026-05-13T12:50:45+02:00</time>
      </trkpt>
      <trkpt lat="46.16304" lon="4.79666">
        <ele>168.90039</ele>
        <time>2026-05-13T12:50:46+02:00</time>
      </trkpt>
      <trkpt lat="46.16307" lon="4.7966">
        <ele>168.90039</ele>
        <time>2026-05-13T12:50:47+02:00</time>
      </trkpt>
      <trkpt lat="46.1631" lon="4.79653">
        <ele>168.7998</ele>
        <time>2026-05-13T12:50:48+02:00</time>
      </trkpt>
      <trkpt lat="46.16313" lon="4.79646">
        <ele>168.7998</ele>
        <time>2026-05-13T12:50:49+02:00</time>
      </trkpt>
      <trkpt lat="46.16316" lon="4.7964">
        <ele>168.7998</ele>
        <time>2026-05-13T12:50:50+02:00</time>
      </trkpt>
      <trkpt lat="46.16319" lon="4.79633">
        <ele>168.7998</ele>
        <time>2026-05-13T12:50:51+02:00</time>
      </trkpt>
      <trkpt lat="46.16322" lon="4.79626">
        <ele>168.7998</ele>
        <time>2026-05-13T12:50:52+02:00</time>
      </trkpt>
      <trkpt lat="46.16324" lon="4.79618">
        <ele>168.7002</ele>
        <time>2026-05-13T12:50:53+02:00</time>
      </trkpt>
      <trkpt lat="46.16327" lon="4.79611">
        <ele>168.7002</ele>
        <time>2026-05-13T12:50:54+02:00</time>
      </trkpt>
      <trkpt lat="46.1633" lon="4.79604">
        <ele>168.60059</ele>
        <time>2026-05-13T12:50:55+02:00</time>
      </trkpt>
      <trkpt lat="46.16333" lon="4.79597">
        <ele>168.7998</ele>
        <time>2026-05-13T12:50:56+02:00</time>
      </trkpt>
      <trkpt lat="46.16335" lon="4.7959">
        <ele>168.7002</ele>
        <time>2026-05-13T12:50:57+02:00</time>
      </trkpt>
      <trkpt lat="46.16338" lon="4.79582">
        <ele>168.7998</ele>
        <time>2026-05-13T12:50:58+02:00</time>
      </trkpt>
      <trkpt lat="46.16339" lon="4.79575">
        <ele>168.7002</ele>
        <time>2026-05-13T12:50:59+02:00</time>
      </trkpt>
      <trkpt lat="46.1634" lon="4.79568">
        <ele>168.7002</ele>
        <time>2026-05-13T12:51:00+02:00</time>
      </trkpt>
      <trkpt lat="46.16341" lon="4.7956">
        <ele>168.60059</ele>
        <time>2026-05-13T12:51:01+02:00</time>
      </trkpt>
      <trkpt lat="46.16342" lon="4.79552">
        <ele>168.5</ele>
        <time>2026-05-13T12:51:02+02:00</time>
      </trkpt>
      <trkpt lat="46.16345" lon="4.79545">
        <ele>168.7002</ele>
        <time>2026-05-13T12:51:03+02:00</time>
      </trkpt>
      <trkpt lat="46.16347" lon="4.79538">
        <ele>168.60059</ele>
        <time>2026-05-13T12:51:04+02:00</time>
      </trkpt>
      <trkpt lat="46.1635" lon="4.79531">
        <ele>168.7002</ele>
        <time>2026-05-13T12:51:05+02:00</time>
      </trkpt>
      <trkpt lat="46.16353" lon="4.79525">
        <ele>168.60059</ele>
        <time>2026-05-13T12:51:06+02:00</time>
      </trkpt>
      <trkpt lat="46.16356" lon="4.79518">
        <ele>168.7002</ele>
        <time>2026-05-13T12:51:07+02:00</time>
      </trkpt>
      <trkpt lat="46.1636" lon="4.79511">
        <ele>168.7002</ele>
        <time>2026-05-13T12:51:08+02:00</time>
      </trkpt>
      <trkpt lat="46.16363" lon="4.79505">
        <ele>168.7998</ele>
        <time>2026-05-13T12:51:09+02:00</time>
      </trkpt>
      <trkpt lat="46.16366" lon="4.79499">
        <ele>168.60059</ele>
        <time>2026-05-13T12:51:10+02:00</time>
      </trkpt>
      <trkpt lat="46.1637" lon="4.79493">
        <ele>168.7002</ele>
        <time>2026-05-13T12:51:11+02:00</time>
      </trkpt>
      <trkpt lat="46.16373" lon="4.79487">
        <ele>169</ele>
        <time>2026-05-13T12:51:12+02:00</time>
      </trkpt>
      <trkpt lat="46.16376" lon="4.79481">
        <ele>168.90039</ele>
        <time>2026-05-13T12:51:13+02:00</time>
      </trkpt>
      <trkpt lat="46.1638" lon="4.79475">
        <ele>169</ele>
        <time>2026-05-13T12:51:14+02:00</time>
      </trkpt>
      <trkpt lat="46.16383" lon="4.7947">
        <ele>169</ele>
        <time>2026-05-13T12:51:15+02:00</time>
      </trkpt>
      <trkpt lat="46.16387" lon="4.79464">
        <ele>169</ele>
        <time>2026-05-13T12:51:16+02:00</time>
      </trkpt>
      <trkpt lat="46.1639" lon="4.79458">
        <ele>168.7002</ele>
        <time>2026-05-13T12:51:17+02:00</time>
      </trkpt>
      <trkpt lat="46.16393" lon="4.79452">
        <ele>169.2002</ele>
        <time>2026-05-13T12:51:18+02:00</time>
      </trkpt>
      <trkpt lat="46.16396" lon="4.79446">
        <ele>168.90039</ele>
        <time>2026-05-13T12:51:19+02:00</time>
      </trkpt>
      <trkpt lat="46.164" lon="4.7944">
        <ele>169.2998</ele>
        <time>2026-05-13T12:51:20+02:00</time>
      </trkpt>
      <trkpt lat="46.16403" lon="4.79434">
        <ele>169.90039</ele>
        <time>2026-05-13T12:51:21+02:00</time>
      </trkpt>
      <trkpt lat="46.16406" lon="4.79428">
        <ele>169.7002</ele>
        <time>2026-05-13T12:51:22+02:00</time>
      </trkpt>
      <trkpt lat="46.16409" lon="4.79422">
        <ele>170</ele>
        <time>2026-05-13T12:51:23+02:00</time>
      </trkpt>
      <trkpt lat="46.16413" lon="4.79416">
        <ele>170</ele>
        <time>2026-05-13T12:51:24+02:00</time>
      </trkpt>
      <trkpt lat="46.16416" lon="4.7941">
        <ele>169.90039</ele>
        <time>2026-05-13T12:51:25+02:00</time>
      </trkpt>
      <trkpt lat="46.16419" lon="4.79405">
        <ele>169.60059</ele>
        <time>2026-05-13T12:51:26+02:00</time>
      </trkpt>
      <trkpt lat="46.16422" lon="4.794">
        <ele>169.90039</ele>
        <time>2026-05-13T12:51:27+02:00</time>
      </trkpt>
      <trkpt lat="46.16424" lon="4.79395">
        <ele>169.7002</ele>
        <time>2026-05-13T12:51:28+02:00</time>
      </trkpt>
      <trkpt lat="46.16427" lon="4.7939">
        <ele>169.7002</ele>
        <time>2026-05-13T12:51:29+02:00</time>
      </trkpt>
      <trkpt lat="46.16429" lon="4.79385">
        <ele>169.7002</ele>
        <time>2026-05-13T12:51:30+02:00</time>
      </trkpt>
      <trkpt lat="46.16432" lon="4.79379">
        <ele>169.60059</ele>
        <time>2026-05-13T12:51:31+02:00</time>
      </trkpt>
      <trkpt lat="46.16434" lon="4.79373">
        <ele>169.60059</ele>
        <time>2026-05-13T12:51:32+02:00</time>
      </trkpt>
      <trkpt lat="46.16437" lon="4.79368">
        <ele>169.2998</ele>
        <time>2026-05-13T12:51:33+02:00</time>
      </trkpt>
      <trkpt lat="46.1644" lon="4.79362">
        <ele>169.2998</ele>
        <time>2026-05-13T12:51:34+02:00</time>
      </trkpt>
      <trkpt lat="46.16443" lon="4.79357">
        <ele>169.2998</ele>
        <time>2026-05-13T12:51:35+02:00</time>
      </trkpt>
      <trkpt lat="46.16445" lon="4.79353">
        <ele>169.40039</ele>
        <time>2026-05-13T12:51:36+02:00</time>
      </trkpt>
      <trkpt lat="46.16448" lon="4.79348">
        <ele>169.40039</ele>
        <time>2026-05-13T12:51:37+02:00</time>
      </trkpt>
      <trkpt lat="46.1645" lon="4.79343">
        <ele>169.40039</ele>
        <time>2026-05-13T12:51:38+02:00</time>
      </trkpt>
      <trkpt lat="46.16453" lon="4.79339">
        <ele>169.40039</ele>
        <time>2026-05-13T12:51:39+02:00</time>
      </trkpt>
      <trkpt lat="46.16455" lon="4.79334">
        <ele>169.2998</ele>
        <time>2026-05-13T12:51:40+02:00</time>
      </trkpt>
      <trkpt lat="46.16457" lon="4.7933">
        <ele>169.40039</ele>
        <time>2026-05-13T12:51:41+02:00</time>
      </trkpt>
      <trkpt lat="46.16458" lon="4.79326">
        <ele>169.40039</ele>
        <time>2026-05-13T12:51:42+02:00</time>
      </trkpt>
      <trkpt lat="46.1646" lon="4.79322">
        <ele>169.40039</ele>
        <time>2026-05-13T12:51:43+02:00</time>
      </trkpt>
      <trkpt lat="46.16461" lon="4.79319">
        <ele>169.2002</ele>
        <time>2026-05-13T12:51:44+02:00</time>
      </trkpt>
      <trkpt lat="46.16463" lon="4.79316">
        <ele>169.5</ele>
        <time>2026-05-13T12:51:45+02:00</time>
      </trkpt>
      <trkpt lat="46.16465" lon="4.79313">
        <ele>169.5</ele>
        <time>2026-05-13T12:51:46+02:00</time>
      </trkpt>
      <trkpt lat="46.16466" lon="4.7931">
        <ele>169.40039</ele>
        <time>2026-05-13T12:51:47+02:00</time>
      </trkpt>
      <trkpt lat="46.16467" lon="4.79306">
        <ele>169.40039</ele>
        <time>2026-05-13T12:51:48+02:00</time>
      </trkpt>
      <trkpt lat="46.16469" lon="4.79304">
        <ele>169.5</ele>
        <time>2026-05-13T12:51:49+02:00</time>
      </trkpt>
      <trkpt lat="46.1647" lon="4.79303">
        <ele>169.5</ele>
        <time>2026-05-13T12:51:50+02:00</time>
      </trkpt>
      <trkpt lat="46.16471" lon="4.79302">
        <ele>169.5</ele>
        <time>2026-05-13T12:51:51+02:00</time>
      </trkpt>
      <trkpt lat="46.16471" lon="4.79302">
        <ele>169.5</ele>
        <time>2026-05-13T12:51:52+02:00</time>
      </trkpt>
      <trkpt lat="46.16471" lon="4.79302">
        <ele>169.5</ele>
        <time>2026-05-13T12:51:53+02:00</time>
      </trkpt>
      <trkpt lat="46.16471" lon="4.79302">
        <ele>169.5</ele>
        <time>2026-05-13T12:51:54+02:00</time>
      </trkpt>
      <trkpt lat="46.16471" lon="4.79302">
        <ele>169.5</ele>
        <time>2026-05-13T12:53:28+02:00</time>
      </trkpt>
      <trkpt lat="46.16471" lon="4.79302">
        <ele>169.5</ele>
        <time>2026-05-13T12:53:29+02:00</time>
      </trkpt>
      <trkpt lat="46.16471" lon="4.79302">
        <ele>169.5</ele>
        <time>2026-05-13T12:53:30+02:00</time>
      </trkpt>
      <trkpt lat="46.16471" lon="4.79302">
        <ele>169.5</ele>
        <time>2026-05-13T12:53:31+02:00</time>
      </trkpt>
      <trkpt lat="46.16471" lon="4.79302">
        <ele>169.5</ele>
        <time>2026-05-13T12:53:32+02:00</time>
      </trkpt>
      <trkpt lat="46.16471" lon="4.79302">
        <ele>169.5</ele>
        <time>2026-05-13T12:53:33+02:00</time>
      </trkpt>
      <trkpt lat="46.16471" lon="4.79302">
        <ele>169.5</ele>
        <time>2026-05-13T12:53:34+02:00</time>
      </trkpt>
      <trkpt lat="46.16471" lon="4.79302">
        <ele>169.5</ele>
        <time>2026-05-13T12:53:35+02:00</time>
      </trkpt>
      <trkpt lat="46.16471" lon="4.79302">
        <ele>169.5</ele>
        <time>2026-05-13T12:53:36+02:00</time>
      </trkpt>
      <trkpt lat="46.16471" lon="4.79302">
        <ele>169.5</ele>
        <time>2026-05-13T12:53:37+02:00</time>
      </trkpt>
      <trkpt lat="46.16471" lon="4.79302">
        <ele>169.5</ele>
        <time>2026-05-13T12:53:38+02:00</time>
      </trkpt>
      <trkpt lat="46.16471" lon="4.79302">
        <ele>169.5</ele>
        <time>2026-05-13T12:53:39+02:00</time>
      </trkpt>
      <trkpt lat="46.16471" lon="4.79302">
        <ele>169.5</ele>
        <time>2026-05-13T12:53:40+02:00</time>
      </trkpt>
      <trkpt lat="46.16471" lon="4.79302">
        <ele>169.5</ele>
        <time>2026-05-13T12:53:41+02:00</time>
      </trkpt>
      <trkpt lat="46.16471" lon="4.79302">
        <ele>169.5</ele>
        <time>2026-05-13T12:53:42+02:00</time>
      </trkpt>
      <trkpt lat="46.16471" lon="4.79302">
        <ele>169.5</ele>
        <time>2026-05-13T12:53:43+02:00</time>
      </trkpt>
      <trkpt lat="46.16471" lon="4.79302">
        <ele>169.5</ele>
        <time>2026-05-13T12:53:44+02:00</time>
      </trkpt>
      <trkpt lat="46.16471" lon="4.79302">
        <ele>169.5</ele>
        <time>2026-05-13T12:53:45+02:00</time>
      </trkpt>
      <trkpt lat="46.16471" lon="4.79302">
        <ele>169.5</ele>
        <time>2026-05-13T12:53:46+02:00</time>
      </trkpt>
      <trkpt lat="46.16471" lon="4.79302">
        <ele>169.5</ele>
        <time>2026-05-13T12:53:47+02:00</time>
      </trkpt>
      <trkpt lat="46.16471" lon="4.79302">
        <ele>169.5</ele>
        <time>2026-05-13T12:53:48+02:00</time>
      </trkpt>
      <trkpt lat="46.16471" lon="4.79302">
        <ele>169.5</ele>
        <time>2026-05-13T12:53:49+02:00</time>
      </trkpt>
      <trkpt lat="46.16471" lon="4.79302">
        <ele>169.5</ele>
        <time>2026-05-13T12:53:50+02:00</time>
      </trkpt>
      <trkpt lat="46.16471" lon="4.79302">
        <ele>169.5</ele>
        <time>2026-05-13T12:53:51+02:00</time>
      </trkpt>
      <trkpt lat="46.16471" lon="4.79302">
        <ele>169.5</ele>
        <time>2026-05-13T12:53:52+02:00</time>
      </trkpt>
      <trkpt lat="46.16471" lon="4.79302">
        <ele>169.5</ele>
        <time>2026-05-13T12:53:53+02:00</time>
      </trkpt>
      <trkpt lat="46.16471" lon="4.79302">
        <ele>169.5</ele>
        <time>2026-05-13T12:53:54+02:00</time>
      </trkpt>
      <trkpt lat="46.16471" lon="4.79302">
        <ele>169.5</ele>
        <time>2026-05-13T12:53:55+02:00</time>
      </trkpt>
      <trkpt lat="46.16471" lon="4.79302">
        <ele>169.5</ele>
        <time>2026-05-13T12:53:56+02:00</time>
      </trkpt>
      <trkpt lat="46.16471" lon="4.79302">
        <ele>169.5</ele>
        <time>2026-05-13T12:53:57+02:00</time>
      </trkpt>
      <trkpt lat="46.16471" lon="4.79302">
        <ele>169.5</ele>
        <time>2026-05-13T12:53:58+02:00</time>
      </trkpt>
      <trkpt lat="46.16471" lon="4.79302">
        <ele>169.5</ele>
        <time>2026-05-13T12:53:59+02:00</time>
      </trkpt>
      <trkpt lat="46.16471" lon="4.79302">
        <ele>169.5</ele>
        <time>2026-05-13T12:54:00+02:00</time>
      </trkpt>
      <trkpt lat="46.16471" lon="4.79302">
        <ele>169.5</ele>
        <time>2026-05-13T12:54:01+02:00</time>
      </trkpt>
      <trkpt lat="46.16471" lon="4.79302">
        <ele>169.5</ele>
        <time>2026-05-13T12:54:02+02:00</time>
      </trkpt>
      <trkpt lat="46.16471" lon="4.79302">
        <ele>169.5</ele>
        <time>2026-05-13T12:54:03+02:00</time>
      </trkpt>
      <trkpt lat="46.16471" lon="4.79302">
        <ele>169.5</ele>
        <time>2026-05-13T12:54:04+02:00</time>
      </trkpt>
      <trkpt lat="46.16471" lon="4.79302">
        <ele>169.5</ele>
        <time>2026-05-13T12:54:05+02:00</time>
      </trkpt>
      <trkpt lat="46.16471" lon="4.79302">
        <ele>169.5</ele>
        <time>2026-05-13T12:54:06+02:00</time>
      </trkpt>
      <trkpt lat="46.16471" lon="4.79302">
        <ele>169.5</ele>
        <time>2026-05-13T12:54:07+02:00</time>
      </trkpt>
      <trkpt lat="46.16471" lon="4.79302">
        <ele>169.5</ele>
        <time>2026-05-13T12:54:08+02:00</time>
      </trkpt>
      <trkpt lat="46.16471" lon="4.79302">
        <ele>169.5</ele>
        <time>2026-05-13T12:54:09+02:00</time>
      </trkpt>
      <trkpt lat="46.16471" lon="4.79302">
        <ele>169.5</ele>
        <time>2026-05-13T12:54:10+02:00</time>
      </trkpt>
      <trkpt lat="46.16471" lon="4.79302">
        <ele>169.5</ele>
        <time>2026-05-13T12:54:11+02:00</time>
      </trkpt>
      <trkpt lat="46.16471" lon="4.79302">
        <ele>169.5</ele>
        <time>2026-05-13T12:54:12+02:00</time>
      </trkpt>
      <trkpt lat="46.16471" lon="4.79302">
        <ele>169.5</ele>
        <time>2026-05-13T12:54:13+02:00</time>
      </trkpt>
      <trkpt lat="46.16471" lon="4.79302">
        <ele>169.5</ele>
        <time>2026-05-13T12:54:14+02:00</time>
      </trkpt>
      <trkpt lat="46.16471" lon="4.79302">
        <ele>169.5</ele>
        <time>2026-05-13T12:54:15+02:00</time>
      </trkpt>
      <trkpt lat="46.16471" lon="4.79302">
        <ele>169.5</ele>
        <time>2026-05-13T12:54:16+02:00</time>
      </trkpt>
      <trkpt lat="46.16471" lon="4.79302">
        <ele>169.5</ele>
        <time>2026-05-13T12:54:17+02:00</time>
      </trkpt>
      <trkpt lat="46.16471" lon="4.79302">
        <ele>169.5</ele>
        <time>2026-05-13T12:54:18+02:00</time>
      </trkpt>
      <trkpt lat="46.16471" lon="4.79302">
        <ele>169.5</ele>
        <time>2026-05-13T12:54:19+02:00</time>
      </trkpt>
      <trkpt lat="46.16471" lon="4.79302">
        <ele>169.5</ele>
        <time>2026-05-13T12:54:20+02:00</time>
      </trkpt>
      <trkpt lat="46.16471" lon="4.79302">
        <ele>169.5</ele>
        <time>2026-05-13T12:54:21+02:00</time>
      </trkpt>
      <trkpt lat="46.16471" lon="4.79302">
        <ele>169.5</ele>
        <time>2026-05-13T12:54:22+02:00</time>
      </trkpt>
      <trkpt lat="46.16471" lon="4.79302">
        <ele>169.5</ele>
        <time>2026-05-13T12:54:23+02:00</time>
      </trkpt>
      <trkpt lat="46.16471" lon="4.79302">
        <ele>169.5</ele>
        <time>2026-05-13T12:54:24+02:00</time>
      </trkpt>
      <trkpt lat="46.16471" lon="4.79302">
        <ele>169.5</ele>
        <time>2026-05-13T12:54:25+02:00</time>
      </trkpt>
      <trkpt lat="46.16471" lon="4.79302">
        <ele>169.5</ele>
        <time>2026-05-13T12:54:26+02:00</time>
      </trkpt>
      <trkpt lat="46.16471" lon="4.79302">
        <ele>169.5</ele>
        <time>2026-05-13T12:54:27+02:00</time>
      </trkpt>
      <trkpt lat="46.16471" lon="4.79302">
        <ele>169.5</ele>
        <time>2026-05-13T12:54:28+02:00</time>
      </trkpt>
      <trkpt lat="46.16471" lon="4.79302">
        <ele>169.5</ele>
        <time>2026-05-13T12:54:29+02:00</time>
      </trkpt>
      <trkpt lat="46.16471" lon="4.79302">
        <ele>169.5</ele>
        <time>2026-05-13T12:54:30+02:00</time>
      </trkpt>
      <trkpt lat="46.16479" lon="4.79287">
        <ele>169.5</ele>
        <time>2026-05-13T12:54:31+02:00</time>
      </trkpt>
      <trkpt lat="46.1648" lon="4.79284">
        <ele>169.7998</ele>
        <time>2026-05-13T12:54:32+02:00</time>
      </trkpt>
      <trkpt lat="46.16482" lon="4.79281">
        <ele>169.7998</ele>
        <time>2026-05-13T12:54:33+02:00</time>
      </trkpt>
      <trkpt lat="46.16483" lon="4.79279">
        <ele>169.7998</ele>
        <time>2026-05-13T12:54:34+02:00</time>
      </trkpt>
      <trkpt lat="46.16484" lon="4.79277">
        <ele>169.7002</ele>
        <time>2026-05-13T12:54:35+02:00</time>
      </trkpt>
      <trkpt lat="46.16486" lon="4.79274">
        <ele>170</ele>
        <time>2026-05-13T12:54:36+02:00</time>
      </trkpt>
      <trkpt lat="46.16488" lon="4.7927">
        <ele>170</ele>
        <time>2026-05-13T12:54:37+02:00</time>
      </trkpt>
      <trkpt lat="46.1649" lon="4.79266">
        <ele>169.90039</ele>
        <time>2026-05-13T12:54:38+02:00</time>
      </trkpt>
      <trkpt lat="46.16492" lon="4.79262">
        <ele>170.40039</ele>
        <time>2026-05-13T12:54:39+02:00</time>
      </trkpt>
      <trkpt lat="46.16494" lon="4.79257">
        <ele>170.2002</ele>
        <time>2026-05-13T12:54:40+02:00</time>
      </trkpt>
      <trkpt lat="46.16496" lon="4.79252">
        <ele>169.7998</ele>
        <time>2026-05-13T12:54:41+02:00</time>
      </trkpt>
      <trkpt lat="46.16498" lon="4.79247">
        <ele>170.2002</ele>
        <time>2026-05-13T12:54:42+02:00</time>
      </trkpt>
      <trkpt lat="46.16501" lon="4.79242">
        <ele>169.7998</ele>
        <time>2026-05-13T12:54:43+02:00</time>
      </trkpt>
      <trkpt lat="46.16503" lon="4.79237">
        <ele>170</ele>
        <time>2026-05-13T12:54:44+02:00</time>
      </trkpt>
      <trkpt lat="46.16505" lon="4.79233">
        <ele>169.7998</ele>
        <time>2026-05-13T12:54:45+02:00</time>
      </trkpt>
      <trkpt lat="46.16507" lon="4.79228">
        <ele>169.7998</ele>
        <time>2026-05-13T12:54:46+02:00</time>
      </trkpt>
      <trkpt lat="46.16509" lon="4.79225">
        <ele>169.5</ele>
        <time>2026-05-13T12:54:47+02:00</time>
      </trkpt>
      <trkpt lat="46.1651" lon="4.79221">
        <ele>169.7002</ele>
        <time>2026-05-13T12:54:48+02:00</time>
      </trkpt>
      <trkpt lat="46.16514" lon="4.79208">
        <ele>169.2002</ele>
        <time>2026-05-13T12:54:49+02:00</time>
      </trkpt>
      <trkpt lat="46.16514" lon="4.79204">
        <ele>169.2002</ele>
        <time>2026-05-13T12:54:50+02:00</time>
      </trkpt>
      <trkpt lat="46.16514" lon="4.79199">
        <ele>169.10059</ele>
        <time>2026-05-13T12:54:51+02:00</time>
      </trkpt>
      <trkpt lat="46.16514" lon="4.79194">
        <ele>169.10059</ele>
        <time>2026-05-13T12:54:52+02:00</time>
      </trkpt>
      <trkpt lat="46.16514" lon="4.79189">
        <ele>168.90039</ele>
        <time>2026-05-13T12:54:53+02:00</time>
      </trkpt>
      <trkpt lat="46.16514" lon="4.79184">
        <ele>168.7002</ele>
        <time>2026-05-13T12:54:54+02:00</time>
      </trkpt>
      <trkpt lat="46.16513" lon="4.79179">
        <ele>168.7002</ele>
        <time>2026-05-13T12:54:55+02:00</time>
      </trkpt>
      <trkpt lat="46.16512" lon="4.79174">
        <ele>168.60059</ele>
        <time>2026-05-13T12:54:56+02:00</time>
      </trkpt>
      <trkpt lat="46.16512" lon="4.79168">
        <ele>168.60059</ele>
        <time>2026-05-13T12:54:57+02:00</time>
      </trkpt>
      <trkpt lat="46.16514" lon="4.79162">
        <ele>168.60059</ele>
        <time>2026-05-13T12:54:58+02:00</time>
      </trkpt>
      <trkpt lat="46.16515" lon="4.79155">
        <ele>169</ele>
        <time>2026-05-13T12:54:59+02:00</time>
      </trkpt>
      <trkpt lat="46.16517" lon="4.79148">
        <ele>168.90039</ele>
        <time>2026-05-13T12:55:00+02:00</time>
      </trkpt>
      <trkpt lat="46.16519" lon="4.79139">
        <ele>168.7998</ele>
        <time>2026-05-13T12:55:01+02:00</time>
      </trkpt>
      <trkpt lat="46.16522" lon="4.79131">
        <ele>168.7998</ele>
        <time>2026-05-13T12:55:02+02:00</time>
      </trkpt>
      <trkpt lat="46.16524" lon="4.79122">
        <ele>168.60059</ele>
        <time>2026-05-13T12:55:03+02:00</time>
      </trkpt>
      <trkpt lat="46.16527" lon="4.79114">
        <ele>168.7002</ele>
        <time>2026-05-13T12:55:04+02:00</time>
      </trkpt>
      <trkpt lat="46.16529" lon="4.79106">
        <ele>168.5</ele>
        <time>2026-05-13T12:55:05+02:00</time>
      </trkpt>
      <trkpt lat="46.16531" lon="4.79099">
        <ele>168.5</ele>
        <time>2026-05-13T12:55:06+02:00</time>
      </trkpt>
      <trkpt lat="46.16533" lon="4.79091">
        <ele>169</ele>
        <time>2026-05-13T12:55:07+02:00</time>
      </trkpt>
      <trkpt lat="46.16535" lon="4.79084">
        <ele>168.7998</ele>
        <time>2026-05-13T12:55:08+02:00</time>
      </trkpt>
      <trkpt lat="46.16537" lon="4.79077">
        <ele>168.7002</ele>
        <time>2026-05-13T12:55:09+02:00</time>
      </trkpt>
      <trkpt lat="46.1654" lon="4.79071">
        <ele>168.7998</ele>
        <time>2026-05-13T12:55:10+02:00</time>
      </trkpt>
      <trkpt lat="46.16543" lon="4.79066">
        <ele>168.7998</ele>
        <time>2026-05-13T12:55:11+02:00</time>
      </trkpt>
      <trkpt lat="46.16546" lon="4.7906">
        <ele>168.7998</ele>
        <time>2026-05-13T12:55:12+02:00</time>
      </trkpt>
      <trkpt lat="46.16548" lon="4.79055">
        <ele>168.60059</ele>
        <time>2026-05-13T12:55:13+02:00</time>
      </trkpt>
      <trkpt lat="46.16551" lon="4.7905">
        <ele>168.7998</ele>
        <time>2026-05-13T12:55:14+02:00</time>
      </trkpt>
      <trkpt lat="46.16554" lon="4.79046">
        <ele>168.60059</ele>
        <time>2026-05-13T12:55:15+02:00</time>
      </trkpt>
      <trkpt lat="46.16557" lon="4.79042">
        <ele>168.90039</ele>
        <time>2026-05-13T12:55:16+02:00</time>
      </trkpt>
      <trkpt lat="46.1656" lon="4.79039">
        <ele>168.90039</ele>
        <time>2026-05-13T12:55:17+02:00</time>
      </trkpt>
      <trkpt lat="46.16564" lon="4.79039">
        <ele>169.10059</ele>
        <time>2026-05-13T12:55:18+02:00</time>
      </trkpt>
      <trkpt lat="46.16568" lon="4.79042">
        <ele>169.10059</ele>
        <time>2026-05-13T12:55:19+02:00</time>
      </trkpt>
      <trkpt lat="46.16571" lon="4.79046">
        <ele>169.2002</ele>
        <time>2026-05-13T12:55:20+02:00</time>
      </trkpt>
      <trkpt lat="46.16573" lon="4.7905">
        <ele>169.5</ele>
        <time>2026-05-13T12:55:21+02:00</time>
      </trkpt>
      <trkpt lat="46.16576" lon="4.79054">
        <ele>169.7998</ele>
        <time>2026-05-13T12:55:22+02:00</time>
      </trkpt>
      <trkpt lat="46.16579" lon="4.79059">
        <ele>170.10059</ele>
        <time>2026-05-13T12:55:23+02:00</time>
      </trkpt>
      <trkpt lat="46.16582" lon="4.79064">
        <ele>170.2998</ele>
        <time>2026-05-13T12:55:24+02:00</time>
      </trkpt>
      <trkpt lat="46.16585" lon="4.7907">
        <ele>170.60059</ele>
        <time>2026-05-13T12:55:25+02:00</time>
      </trkpt>
      <trkpt lat="46.16587" lon="4.79075">
        <ele>170.7998</ele>
        <time>2026-05-13T12:55:26+02:00</time>
      </trkpt>
      <trkpt lat="46.1659" lon="4.7908">
        <ele>170.7998</ele>
        <time>2026-05-13T12:55:27+02:00</time>
      </trkpt>
      <trkpt lat="46.16592" lon="4.79086">
        <ele>170.90039</ele>
        <time>2026-05-13T12:55:28+02:00</time>
      </trkpt>
      <trkpt lat="46.16594" lon="4.79091">
        <ele>171</ele>
        <time>2026-05-13T12:55:29+02:00</time>
      </trkpt>
      <trkpt lat="46.16596" lon="4.79097">
        <ele>171</ele>
        <time>2026-05-13T12:55:30+02:00</time>
      </trkpt>
      <trkpt lat="46.16597" lon="4.79101">
        <ele>171.2002</ele>
        <time>2026-05-13T12:55:31+02:00</time>
      </trkpt>
      <trkpt lat="46.16599" lon="4.79106">
        <ele>171.10059</ele>
        <time>2026-05-13T12:55:32+02:00</time>
      </trkpt>
      <trkpt lat="46.166" lon="4.7911">
        <ele>171.2998</ele>
        <time>2026-05-13T12:55:33+02:00</time>
      </trkpt>
      <trkpt lat="46.16602" lon="4.79115">
        <ele>171.2998</ele>
        <time>2026-05-13T12:55:34+02:00</time>
      </trkpt>
      <trkpt lat="46.16604" lon="4.7912">
        <ele>171.60059</ele>
        <time>2026-05-13T12:55:35+02:00</time>
      </trkpt>
      <trkpt lat="46.16606" lon="4.79126">
        <ele>171.7002</ele>
        <time>2026-05-13T12:55:36+02:00</time>
      </trkpt>
      <trkpt lat="46.16609" lon="4.79133">
        <ele>171.7998</ele>
        <time>2026-05-13T12:55:37+02:00</time>
      </trkpt>
      <trkpt lat="46.1661" lon="4.79139">
        <ele>171.7998</ele>
        <time>2026-05-13T12:55:38+02:00</time>
      </trkpt>
      <trkpt lat="46.16612" lon="4.79146">
        <ele>171.90039</ele>
        <time>2026-05-13T12:55:39+02:00</time>
      </trkpt>
      <trkpt lat="46.16614" lon="4.79153">
        <ele>172.10059</ele>
        <time>2026-05-13T12:55:40+02:00</time>
      </trkpt>
      <trkpt lat="46.16616" lon="4.79161">
        <ele>172.10059</ele>
        <time>2026-05-13T12:55:41+02:00</time>
      </trkpt>
      <trkpt lat="46.16617" lon="4.79168">
        <ele>172</ele>
        <time>2026-05-13T12:55:42+02:00</time>
      </trkpt>
      <trkpt lat="46.16619" lon="4.79176">
        <ele>171.7998</ele>
        <time>2026-05-13T12:55:43+02:00</time>
      </trkpt>
      <trkpt lat="46.1662" lon="4.79183">
        <ele>171.7998</ele>
        <time>2026-05-13T12:55:44+02:00</time>
      </trkpt>
      <trkpt lat="46.16622" lon="4.7919">
        <ele>171.60059</ele>
        <time>2026-05-13T12:55:45+02:00</time>
      </trkpt>
      <trkpt lat="46.16624" lon="4.79197">
        <ele>171.40039</ele>
        <time>2026-05-13T12:55:46+02:00</time>
      </trkpt>
      <trkpt lat="46.16626" lon="4.79205">
        <ele>171.2002</ele>
        <time>2026-05-13T12:55:47+02:00</time>
      </trkpt>
      <trkpt lat="46.16628" lon="4.79213">
        <ele>171</ele>
        <time>2026-05-13T12:55:48+02:00</time>
      </trkpt>
      <trkpt lat="46.1663" lon="4.79221">
        <ele>170.90039</ele>
        <time>2026-05-13T12:55:49+02:00</time>
      </trkpt>
      <trkpt lat="46.16632" lon="4.79229">
        <ele>170.7002</ele>
        <time>2026-05-13T12:55:50+02:00</time>
      </trkpt>
      <trkpt lat="46.16634" lon="4.79237">
        <ele>170.7998</ele>
        <time>2026-05-13T12:55:51+02:00</time>
      </trkpt>
      <trkpt lat="46.16635" lon="4.79245">
        <ele>170.60059</ele>
        <time>2026-05-13T12:55:52+02:00</time>
      </trkpt>
      <trkpt lat="46.16637" lon="4.79253">
        <ele>170.5</ele>
        <time>2026-05-13T12:55:53+02:00</time>
      </trkpt>
      <trkpt lat="46.16639" lon="4.79261">
        <ele>170.5</ele>
        <time>2026-05-13T12:55:54+02:00</time>
      </trkpt>
      <trkpt lat="46.16641" lon="4.79269">
        <ele>170.7002</ele>
        <time>2026-05-13T12:55:55+02:00</time>
      </trkpt>
      <trkpt lat="46.16643" lon="4.79277">
        <ele>170.60059</ele>
        <time>2026-05-13T12:55:56+02:00</time>
      </trkpt>
      <trkpt lat="46.16645" lon="4.79285">
        <ele>170.5</ele>
        <time>2026-05-13T12:55:57+02:00</time>
      </trkpt>
      <trkpt lat="46.16647" lon="4.79293">
        <ele>170.5</ele>
        <time>2026-05-13T12:55:58+02:00</time>
      </trkpt>
      <trkpt lat="46.16649" lon="4.79301">
        <ele>170.2998</ele>
        <time>2026-05-13T12:55:59+02:00</time>
      </trkpt>
      <trkpt lat="46.16651" lon="4.79309">
        <ele>170</ele>
        <time>2026-05-13T12:56:00+02:00</time>
      </trkpt>
      <trkpt lat="46.16654" lon="4.79315">
        <ele>169.7998</ele>
        <time>2026-05-13T12:56:01+02:00</time>
      </trkpt>
      <trkpt lat="46.16657" lon="4.79322">
        <ele>169.7002</ele>
        <time>2026-05-13T12:56:02+02:00</time>
      </trkpt>
      <trkpt lat="46.1666" lon="4.79329">
        <ele>170</ele>
        <time>2026-05-13T12:56:03+02:00</time>
      </trkpt>
      <trkpt lat="46.16662" lon="4.79337">
        <ele>169.7002</ele>
        <time>2026-05-13T12:56:04+02:00</time>
      </trkpt>
      <trkpt lat="46.16664" lon="4.79344">
        <ele>169.7002</ele>
        <time>2026-05-13T12:56:05+02:00</time>
      </trkpt>
      <trkpt lat="46.16666" lon="4.79352">
        <ele>169.5</ele>
        <time>2026-05-13T12:56:06+02:00</time>
      </trkpt>
      <trkpt lat="46.16668" lon="4.79359">
        <ele>169.40039</ele>
        <time>2026-05-13T12:56:07+02:00</time>
      </trkpt>
      <trkpt lat="46.16672" lon="4.79366">
        <ele>169.60059</ele>
        <time>2026-05-13T12:56:08+02:00</time>
      </trkpt>
      <trkpt lat="46.16684" lon="4.79383">
        <ele>170.2998</ele>
        <time>2026-05-13T12:56:10+02:00</time>
      </trkpt>
      <trkpt lat="46.16689" lon="4.79388">
        <ele>170.7002</ele>
        <time>2026-05-13T12:56:11+02:00</time>
      </trkpt>
      <trkpt lat="46.16693" lon="4.79393">
        <ele>170.2998</ele>
        <time>2026-05-13T12:56:12+02:00</time>
      </trkpt>
      <trkpt lat="46.16697" lon="4.79399">
        <ele>170.10059</ele>
        <time>2026-05-13T12:56:13+02:00</time>
      </trkpt>
      <trkpt lat="46.16702" lon="4.79405">
        <ele>170.5</ele>
        <time>2026-05-13T12:56:14+02:00</time>
      </trkpt>
      <trkpt lat="46.16707" lon="4.7941">
        <ele>170.60059</ele>
        <time>2026-05-13T12:56:15+02:00</time>
      </trkpt>
      <trkpt lat="46.16712" lon="4.79416">
        <ele>170.7002</ele>
        <time>2026-05-13T12:56:16+02:00</time>
      </trkpt>
      <trkpt lat="46.16716" lon="4.79422">
        <ele>170.7002</ele>
        <time>2026-05-13T12:56:17+02:00</time>
      </trkpt>
      <trkpt lat="46.16721" lon="4.79428">
        <ele>170.60059</ele>
        <time>2026-05-13T12:56:18+02:00</time>
      </trkpt>
      <trkpt lat="46.16725" lon="4.79433">
        <ele>171</ele>
        <time>2026-05-13T12:56:19+02:00</time>
      </trkpt>
      <trkpt lat="46.1673" lon="4.79439">
        <ele>171.10059</ele>
        <time>2026-05-13T12:56:20+02:00</time>
      </trkpt>
      <trkpt lat="46.16734" lon="4.79444">
        <ele>170.7002</ele>
        <time>2026-05-13T12:56:21+02:00</time>
      </trkpt>
      <trkpt lat="46.16739" lon="4.7945">
        <ele>171.10059</ele>
        <time>2026-05-13T12:56:22+02:00</time>
      </trkpt>
      <trkpt lat="46.16743" lon="4.79456">
        <ele>171</ele>
        <time>2026-05-13T12:56:23+02:00</time>
      </trkpt>
      <trkpt lat="46.16747" lon="4.79461">
        <ele>171.10059</ele>
        <time>2026-05-13T12:56:24+02:00</time>
      </trkpt>
      <trkpt lat="46.16752" lon="4.79466">
        <ele>171.10059</ele>
        <time>2026-05-13T12:56:25+02:00</time>
      </trkpt>
      <trkpt lat="46.16757" lon="4.79472">
        <ele>171.40039</ele>
        <time>2026-05-13T12:56:26+02:00</time>
      </trkpt>
      <trkpt lat="46.16761" lon="4.79477">
        <ele>171.90039</ele>
        <time>2026-05-13T12:56:27+02:00</time>
      </trkpt>
      <trkpt lat="46.16766" lon="4.79483">
        <ele>172.7002</ele>
        <time>2026-05-13T12:56:28+02:00</time>
      </trkpt>
      <trkpt lat="46.16771" lon="4.79489">
        <ele>173.2002</ele>
        <time>2026-05-13T12:56:29+02:00</time>
      </trkpt>
      <trkpt lat="46.16775" lon="4.79495">
        <ele>172.7998</ele>
        <time>2026-05-13T12:56:30+02:00</time>
      </trkpt>
      <trkpt lat="46.1678" lon="4.79501">
        <ele>173.40039</ele>
        <time>2026-05-13T12:56:31+02:00</time>
      </trkpt>
      <trkpt lat="46.16784" lon="4.79507">
        <ele>173.60059</ele>
        <time>2026-05-13T12:56:32+02:00</time>
      </trkpt>
      <trkpt lat="46.16789" lon="4.79512">
        <ele>174</ele>
        <time>2026-05-13T12:56:33+02:00</time>
      </trkpt>
      <trkpt lat="46.16794" lon="4.79518">
        <ele>174</ele>
        <time>2026-05-13T12:56:34+02:00</time>
      </trkpt>
      <trkpt lat="46.16798" lon="4.79524">
        <ele>174.90039</ele>
        <time>2026-05-13T12:56:35+02:00</time>
      </trkpt>
      <trkpt lat="46.16803" lon="4.7953">
        <ele>176</ele>
        <time>2026-05-13T12:56:36+02:00</time>
      </trkpt>
      <trkpt lat="46.16808" lon="4.79535">
        <ele>177</ele>
        <time>2026-05-13T12:56:37+02:00</time>
      </trkpt>
      <trkpt lat="46.16813" lon="4.79541">
        <ele>177.10059</ele>
        <time>2026-05-13T12:56:38+02:00</time>
      </trkpt>
      <trkpt lat="46.16818" lon="4.79547">
        <ele>176.2002</ele>
        <time>2026-05-13T12:56:39+02:00</time>
      </trkpt>
      <trkpt lat="46.16823" lon="4.79552">
        <ele>176.7998</ele>
        <time>2026-05-13T12:56:40+02:00</time>
      </trkpt>
      <trkpt lat="46.16828" lon="4.79558">
        <ele>176.90039</ele>
        <time>2026-05-13T12:56:41+02:00</time>
      </trkpt>
      <trkpt lat="46.16832" lon="4.79564">
        <ele>177.5</ele>
        <time>2026-05-13T12:56:42+02:00</time>
      </trkpt>
      <trkpt lat="46.16837" lon="4.7957">
        <ele>177.90039</ele>
        <time>2026-05-13T12:56:43+02:00</time>
      </trkpt>
      <trkpt lat="46.16842" lon="4.79575">
        <ele>177.90039</ele>
        <time>2026-05-13T12:56:44+02:00</time>
      </trkpt>
      <trkpt lat="46.16847" lon="4.79581">
        <ele>177.60059</ele>
        <time>2026-05-13T12:56:45+02:00</time>
      </trkpt>
      <trkpt lat="46.16852" lon="4.79587">
        <ele>177.40039</ele>
        <time>2026-05-13T12:56:46+02:00</time>
      </trkpt>
      <trkpt lat="46.16856" lon="4.79592">
        <ele>177.10059</ele>
        <time>2026-05-13T12:56:47+02:00</time>
      </trkpt>
      <trkpt lat="46.1686" lon="4.79598">
        <ele>176.90039</ele>
        <time>2026-05-13T12:56:48+02:00</time>
      </trkpt>
      <trkpt lat="46.16865" lon="4.79603">
        <ele>176.90039</ele>
        <time>2026-05-13T12:56:49+02:00</time>
      </trkpt>
      <trkpt lat="46.16869" lon="4.79609">
        <ele>176.60059</ele>
        <time>2026-05-13T12:56:50+02:00</time>
      </trkpt>
      <trkpt lat="46.16874" lon="4.79615">
        <ele>176.5</ele>
        <time>2026-05-13T12:56:51+02:00</time>
      </trkpt>
      <trkpt lat="46.16879" lon="4.79621">
        <ele>176.40039</ele>
        <time>2026-05-13T12:56:52+02:00</time>
      </trkpt>
      <trkpt lat="46.16884" lon="4.79626">
        <ele>176.40039</ele>
        <time>2026-05-13T12:56:53+02:00</time>
      </trkpt>
      <trkpt lat="46.16888" lon="4.79632">
        <ele>176.5</ele>
        <time>2026-05-13T12:56:54+02:00</time>
      </trkpt>
      <trkpt lat="46.16893" lon="4.79638">
        <ele>176.60059</ele>
        <time>2026-05-13T12:56:55+02:00</time>
      </trkpt>
      <trkpt lat="46.16897" lon="4.79644">
        <ele>176.7998</ele>
        <time>2026-05-13T12:56:56+02:00</time>
      </trkpt>
      <trkpt lat="46.16902" lon="4.7965">
        <ele>177</ele>
        <time>2026-05-13T12:56:57+02:00</time>
      </trkpt>
      <trkpt lat="46.16908" lon="4.79655">
        <ele>177</ele>
        <time>2026-05-13T12:56:58+02:00</time>
      </trkpt>
      <trkpt lat="46.16912" lon="4.79661">
        <ele>177.2002</ele>
        <time>2026-05-13T12:56:59+02:00</time>
      </trkpt>
      <trkpt lat="46.16917" lon="4.79667">
        <ele>177.2998</ele>
        <time>2026-05-13T12:57:00+02:00</time>
      </trkpt>
      <trkpt lat="46.16921" lon="4.79673">
        <ele>177.10059</ele>
        <time>2026-05-13T12:57:01+02:00</time>
      </trkpt>
      <trkpt lat="46.16926" lon="4.79678">
        <ele>177</ele>
        <time>2026-05-13T12:57:02+02:00</time>
      </trkpt>
      <trkpt lat="46.16931" lon="4.79684">
        <ele>176.7002</ele>
        <time>2026-05-13T12:57:03+02:00</time>
      </trkpt>
      <trkpt lat="46.16936" lon="4.7969">
        <ele>176.7002</ele>
        <time>2026-05-13T12:57:04+02:00</time>
      </trkpt>
      <trkpt lat="46.16941" lon="4.79696">
        <ele>176.5</ele>
        <time>2026-05-13T12:57:05+02:00</time>
      </trkpt>
      <trkpt lat="46.16946" lon="4.79702">
        <ele>176.2998</ele>
        <time>2026-05-13T12:57:06+02:00</time>
      </trkpt>
      <trkpt lat="46.1695" lon="4.79707">
        <ele>176.2002</ele>
        <time>2026-05-13T12:57:07+02:00</time>
      </trkpt>
      <trkpt lat="46.16955" lon="4.79713">
        <ele>176</ele>
        <time>2026-05-13T12:57:08+02:00</time>
      </trkpt>
      <trkpt lat="46.1696" lon="4.79719">
        <ele>175.90039</ele>
        <time>2026-05-13T12:57:09+02:00</time>
      </trkpt>
      <trkpt lat="46.16964" lon="4.79725">
        <ele>175.7998</ele>
        <time>2026-05-13T12:57:10+02:00</time>
      </trkpt>
      <trkpt lat="46.16969" lon="4.79731">
        <ele>175.7998</ele>
        <time>2026-05-13T12:57:11+02:00</time>
      </trkpt>
      <trkpt lat="46.16974" lon="4.79737">
        <ele>175.7002</ele>
        <time>2026-05-13T12:57:12+02:00</time>
      </trkpt>
      <trkpt lat="46.16979" lon="4.79743">
        <ele>175.60059</ele>
        <time>2026-05-13T12:57:13+02:00</time>
      </trkpt>
      <trkpt lat="46.16984" lon="4.79749">
        <ele>175.60059</ele>
        <time>2026-05-13T12:57:14+02:00</time>
      </trkpt>
      <trkpt lat="46.16989" lon="4.79755">
        <ele>175.5</ele>
        <time>2026-05-13T12:57:15+02:00</time>
      </trkpt>
      <trkpt lat="46.16994" lon="4.7976">
        <ele>175.5</ele>
        <time>2026-05-13T12:57:16+02:00</time>
      </trkpt>
      <trkpt lat="46.16998" lon="4.79767">
        <ele>175.5</ele>
        <time>2026-05-13T12:57:17+02:00</time>
      </trkpt>
      <trkpt lat="46.17003" lon="4.79772">
        <ele>175.40039</ele>
        <time>2026-05-13T12:57:18+02:00</time>
      </trkpt>
      <trkpt lat="46.17008" lon="4.79778">
        <ele>175.40039</ele>
        <time>2026-05-13T12:57:19+02:00</time>
      </trkpt>
      <trkpt lat="46.17013" lon="4.79784">
        <ele>175.40039</ele>
        <time>2026-05-13T12:57:20+02:00</time>
      </trkpt>
      <trkpt lat="46.17018" lon="4.7979">
        <ele>175.2998</ele>
        <time>2026-05-13T12:57:21+02:00</time>
      </trkpt>
      <trkpt lat="46.17024" lon="4.79795">
        <ele>175.2998</ele>
        <time>2026-05-13T12:57:22+02:00</time>
      </trkpt>
      <trkpt lat="46.17029" lon="4.79801">
        <ele>175.2998</ele>
        <time>2026-05-13T12:57:23+02:00</time>
      </trkpt>
      <trkpt lat="46.17033" lon="4.79807">
        <ele>175.2998</ele>
        <time>2026-05-13T12:57:24+02:00</time>
      </trkpt>
      <trkpt lat="46.17038" lon="4.79813">
        <ele>175.40039</ele>
        <time>2026-05-13T12:57:25+02:00</time>
      </trkpt>
      <trkpt lat="46.17042" lon="4.79819">
        <ele>175.40039</ele>
        <time>2026-05-13T12:57:26+02:00</time>
      </trkpt>
      <trkpt lat="46.17047" lon="4.79824">
        <ele>175.5</ele>
        <time>2026-05-13T12:57:27+02:00</time>
      </trkpt>
      <trkpt lat="46.17052" lon="4.7983">
        <ele>175.60059</ele>
        <time>2026-05-13T12:57:28+02:00</time>
      </trkpt>
      <trkpt lat="46.17057" lon="4.79836">
        <ele>175.60059</ele>
        <time>2026-05-13T12:57:29+02:00</time>
      </trkpt>
      <trkpt lat="46.17062" lon="4.79842">
        <ele>175.7002</ele>
        <time>2026-05-13T12:57:30+02:00</time>
      </trkpt>
      <trkpt lat="46.17067" lon="4.79847">
        <ele>175.7998</ele>
        <time>2026-05-13T12:57:31+02:00</time>
      </trkpt>
      <trkpt lat="46.17072" lon="4.79853">
        <ele>175.7998</ele>
        <time>2026-05-13T12:57:32+02:00</time>
      </trkpt>
      <trkpt lat="46.17077" lon="4.79858">
        <ele>175.90039</ele>
        <time>2026-05-13T12:57:33+02:00</time>
      </trkpt>
      <trkpt lat="46.17082" lon="4.79864">
        <ele>176</ele>
        <time>2026-05-13T12:57:34+02:00</time>
      </trkpt>
      <trkpt lat="46.17086" lon="4.79869">
        <ele>175.90039</ele>
        <time>2026-05-13T12:57:35+02:00</time>
      </trkpt>
      <trkpt lat="46.17091" lon="4.79875">
        <ele>176</ele>
        <time>2026-05-13T12:57:36+02:00</time>
      </trkpt>
      <trkpt lat="46.17095" lon="4.7988">
        <ele>175.90039</ele>
        <time>2026-05-13T12:57:37+02:00</time>
      </trkpt>
      <trkpt lat="46.171" lon="4.79886">
        <ele>175.7998</ele>
        <time>2026-05-13T12:57:38+02:00</time>
      </trkpt>
      <trkpt lat="46.17104" lon="4.79891">
        <ele>175.7002</ele>
        <time>2026-05-13T12:57:39+02:00</time>
      </trkpt>
      <trkpt lat="46.17109" lon="4.79897">
        <ele>175.7998</ele>
        <time>2026-05-13T12:57:40+02:00</time>
      </trkpt>
      <trkpt lat="46.17113" lon="4.79903">
        <ele>175.60059</ele>
        <time>2026-05-13T12:57:41+02:00</time>
      </trkpt>
      <trkpt lat="46.17118" lon="4.79909">
        <ele>175.5</ele>
        <time>2026-05-13T12:57:42+02:00</time>
      </trkpt>
      <trkpt lat="46.17122" lon="4.79915">
        <ele>175.2002</ele>
        <time>2026-05-13T12:57:43+02:00</time>
      </trkpt>
      <trkpt lat="46.17127" lon="4.7992">
        <ele>175.2002</ele>
        <time>2026-05-13T12:57:44+02:00</time>
      </trkpt>
      <trkpt lat="46.17132" lon="4.79926">
        <ele>174.90039</ele>
        <time>2026-05-13T12:57:45+02:00</time>
      </trkpt>
      <trkpt lat="46.17137" lon="4.79931">
        <ele>174.60059</ele>
        <time>2026-05-13T12:57:46+02:00</time>
      </trkpt>
      <trkpt lat="46.17142" lon="4.79934">
        <ele>174.5</ele>
        <time>2026-05-13T12:57:47+02:00</time>
      </trkpt>
      <trkpt lat="46.17148" lon="4.79936">
        <ele>174.40039</ele>
        <time>2026-05-13T12:57:48+02:00</time>
      </trkpt>
      <trkpt lat="46.17154" lon="4.79936">
        <ele>174.40039</ele>
        <time>2026-05-13T12:57:49+02:00</time>
      </trkpt>
      <trkpt lat="46.1716" lon="4.79936">
        <ele>174.2998</ele>
        <time>2026-05-13T12:57:50+02:00</time>
      </trkpt>
      <trkpt lat="46.17166" lon="4.79935">
        <ele>174.2998</ele>
        <time>2026-05-13T12:57:51+02:00</time>
      </trkpt>
      <trkpt lat="46.17172" lon="4.79935">
        <ele>174.2998</ele>
        <time>2026-05-13T12:57:52+02:00</time>
      </trkpt>
      <trkpt lat="46.17178" lon="4.79935">
        <ele>174.40039</ele>
        <time>2026-05-13T12:57:53+02:00</time>
      </trkpt>
      <trkpt lat="46.17183" lon="4.79934">
        <ele>174.40039</ele>
        <time>2026-05-13T12:57:54+02:00</time>
      </trkpt>
      <trkpt lat="46.17189" lon="4.79935">
        <ele>174.40039</ele>
        <time>2026-05-13T12:57:55+02:00</time>
      </trkpt>
      <trkpt lat="46.17194" lon="4.7994">
        <ele>174.5</ele>
        <time>2026-05-13T12:57:56+02:00</time>
      </trkpt>
      <trkpt lat="46.17196" lon="4.79946">
        <ele>174.5</ele>
        <time>2026-05-13T12:57:57+02:00</time>
      </trkpt>
      <trkpt lat="46.17197" lon="4.79952">
        <ele>174.5</ele>
        <time>2026-05-13T12:57:58+02:00</time>
      </trkpt>
      <trkpt lat="46.17198" lon="4.79959">
        <ele>174.5</ele>
        <time>2026-05-13T12:57:59+02:00</time>
      </trkpt>
      <trkpt lat="46.17199" lon="4.79966">
        <ele>174.60059</ele>
        <time>2026-05-13T12:58:00+02:00</time>
      </trkpt>
      <trkpt lat="46.172" lon="4.79973">
        <ele>174.60059</ele>
        <time>2026-05-13T12:58:01+02:00</time>
      </trkpt>
      <trkpt lat="46.17201" lon="4.79981">
        <ele>174.60059</ele>
        <time>2026-05-13T12:58:02+02:00</time>
      </trkpt>
      <trkpt lat="46.17202" lon="4.79988">
        <ele>174.7002</ele>
        <time>2026-05-13T12:58:03+02:00</time>
      </trkpt>
      <trkpt lat="46.17203" lon="4.79996">
        <ele>174.7002</ele>
        <time>2026-05-13T12:58:04+02:00</time>
      </trkpt>
      <trkpt lat="46.17204" lon="4.80004">
        <ele>174.90039</ele>
        <time>2026-05-13T12:58:05+02:00</time>
      </trkpt>
      <trkpt lat="46.17205" lon="4.80012">
        <ele>175.10059</ele>
        <time>2026-05-13T12:58:06+02:00</time>
      </trkpt>
      <trkpt lat="46.17206" lon="4.8002">
        <ele>175.2002</ele>
        <time>2026-05-13T12:58:07+02:00</time>
      </trkpt>
      <trkpt lat="46.17207" lon="4.80028">
        <ele>175.40039</ele>
        <time>2026-05-13T12:58:08+02:00</time>
      </trkpt>
      <trkpt lat="46.17208" lon="4.80036">
        <ele>175.60059</ele>
        <time>2026-05-13T12:58:09+02:00</time>
      </trkpt>
      <trkpt lat="46.17209" lon="4.80045">
        <ele>175.7002</ele>
        <time>2026-05-13T12:58:10+02:00</time>
      </trkpt>
      <trkpt lat="46.1721" lon="4.80053">
        <ele>175.90039</ele>
        <time>2026-05-13T12:58:11+02:00</time>
      </trkpt>
      <trkpt lat="46.17211" lon="4.80061">
        <ele>176.10059</ele>
        <time>2026-05-13T12:58:12+02:00</time>
      </trkpt>
      <trkpt lat="46.17212" lon="4.80069">
        <ele>176.2002</ele>
        <time>2026-05-13T12:58:13+02:00</time>
      </trkpt>
      <trkpt lat="46.17213" lon="4.80077">
        <ele>176.2998</ele>
        <time>2026-05-13T12:58:14+02:00</time>
      </trkpt>
      <trkpt lat="46.17214" lon="4.80085">
        <ele>176.2998</ele>
        <time>2026-05-13T12:58:15+02:00</time>
      </trkpt>
      <trkpt lat="46.17214" lon="4.80093">
        <ele>176.40039</ele>
        <time>2026-05-13T12:58:16+02:00</time>
      </trkpt>
      <trkpt lat="46.17215" lon="4.801">
        <ele>176.40039</ele>
        <time>2026-05-13T12:58:17+02:00</time>
      </trkpt>
      <trkpt lat="46.17216" lon="4.80107">
        <ele>176.5</ele>
        <time>2026-05-13T12:58:18+02:00</time>
      </trkpt>
      <trkpt lat="46.17217" lon="4.80114">
        <ele>176.60059</ele>
        <time>2026-05-13T12:58:19+02:00</time>
      </trkpt>
      <trkpt lat="46.17218" lon="4.80121">
        <ele>176.7002</ele>
        <time>2026-05-13T12:58:20+02:00</time>
      </trkpt>
      <trkpt lat="46.17218" lon="4.80125">
        <ele>176.7002</ele>
        <time>2026-05-13T12:58:21+02:00</time>
      </trkpt>
      <trkpt lat="46.17218" lon="4.80129">
        <ele>176.7002</ele>
        <time>2026-05-13T12:58:22+02:00</time>
      </trkpt>
      <trkpt lat="46.17217" lon="4.80131">
        <ele>176.7002</ele>
        <time>2026-05-13T12:58:23+02:00</time>
      </trkpt>
      <trkpt lat="46.17217" lon="4.80134">
        <ele>176.7002</ele>
        <time>2026-05-13T12:58:24+02:00</time>
      </trkpt>
      <trkpt lat="46.17218" lon="4.80137">
        <ele>176.7002</ele>
        <time>2026-05-13T12:58:25+02:00</time>
      </trkpt>
      <trkpt lat="46.17219" lon="4.8014">
        <ele>176.7002</ele>
        <time>2026-05-13T12:58:26+02:00</time>
      </trkpt>
      <trkpt lat="46.17219" lon="4.80144">
        <ele>176.7002</ele>
        <time>2026-05-13T12:58:27+02:00</time>
      </trkpt>
      <trkpt lat="46.1722" lon="4.80147">
        <ele>176.7002</ele>
        <time>2026-05-13T12:58:28+02:00</time>
      </trkpt>
      <trkpt lat="46.17221" lon="4.80151">
        <ele>176.7002</ele>
        <time>2026-05-13T12:58:29+02:00</time>
      </trkpt>
      <trkpt lat="46.17221" lon="4.80154">
        <ele>176.7002</ele>
        <time>2026-05-13T12:58:30+02:00</time>
      </trkpt>
      <trkpt lat="46.17222" lon="4.80156">
        <ele>176.7002</ele>
        <time>2026-05-13T12:58:31+02:00</time>
      </trkpt>
      <trkpt lat="46.17221" lon="4.80157">
        <ele>176.7002</ele>
        <time>2026-05-13T12:58:32+02:00</time>
      </trkpt>
      <trkpt lat="46.17221" lon="4.80158">
        <ele>176.7002</ele>
        <time>2026-05-13T12:58:33+02:00</time>
      </trkpt>
      <trkpt lat="46.17221" lon="4.80158">
        <ele>176.7002</ele>
        <time>2026-05-13T12:58:34+02:00</time>
      </trkpt>
      <trkpt lat="46.17233" lon="4.80169">
        <ele>176.7998</ele>
        <time>2026-05-13T13:03:31+02:00</time>
      </trkpt>
      <trkpt lat="46.17232" lon="4.80165">
        <ele>176.7998</ele>
        <time>2026-05-13T13:03:32+02:00</time>
      </trkpt>
      <trkpt lat="46.17231" lon="4.8016">
        <ele>176.7998</ele>
        <time>2026-05-13T13:03:33+02:00</time>
      </trkpt>
      <trkpt lat="46.1723" lon="4.80156">
        <ele>176.7998</ele>
        <time>2026-05-13T13:03:34+02:00</time>
      </trkpt>
      <trkpt lat="46.17228" lon="4.8015">
        <ele>176.7998</ele>
        <time>2026-05-13T13:03:35+02:00</time>
      </trkpt>
      <trkpt lat="46.17228" lon="4.80145">
        <ele>176.7998</ele>
        <time>2026-05-13T13:03:36+02:00</time>
      </trkpt>
      <trkpt lat="46.17227" lon="4.8014">
        <ele>176.7998</ele>
        <time>2026-05-13T13:03:37+02:00</time>
      </trkpt>
      <trkpt lat="46.17226" lon="4.80134">
        <ele>176.7998</ele>
        <time>2026-05-13T13:03:38+02:00</time>
      </trkpt>
      <trkpt lat="46.17225" lon="4.80129">
        <ele>176.7998</ele>
        <time>2026-05-13T13:03:39+02:00</time>
      </trkpt>
      <trkpt lat="46.17225" lon="4.80123">
        <ele>176.7998</ele>
        <time>2026-05-13T13:03:40+02:00</time>
      </trkpt>
      <trkpt lat="46.17224" lon="4.80117">
        <ele>176.7002</ele>
        <time>2026-05-13T13:03:41+02:00</time>
      </trkpt>
      <trkpt lat="46.17223" lon="4.8011">
        <ele>176.7002</ele>
        <time>2026-05-13T13:03:42+02:00</time>
      </trkpt>
      <trkpt lat="46.17223" lon="4.80104">
        <ele>176.7002</ele>
        <time>2026-05-13T13:03:43+02:00</time>
      </trkpt>
      <trkpt lat="46.17222" lon="4.80097">
        <ele>176.60059</ele>
        <time>2026-05-13T13:03:44+02:00</time>
      </trkpt>
      <trkpt lat="46.17222" lon="4.8009">
        <ele>176.5</ele>
        <time>2026-05-13T13:03:45+02:00</time>
      </trkpt>
      <trkpt lat="46.17221" lon="4.80084">
        <ele>176.40039</ele>
        <time>2026-05-13T13:03:46+02:00</time>
      </trkpt>
      <trkpt lat="46.1722" lon="4.80076">
        <ele>176.40039</ele>
        <time>2026-05-13T13:03:47+02:00</time>
      </trkpt>
      <trkpt lat="46.1722" lon="4.80069">
        <ele>176.40039</ele>
        <time>2026-05-13T13:03:48+02:00</time>
      </trkpt>
      <trkpt lat="46.17219" lon="4.80062">
        <ele>176.2002</ele>
        <time>2026-05-13T13:03:49+02:00</time>
      </trkpt>
      <trkpt lat="46.17218" lon="4.80054">
        <ele>176.10059</ele>
        <time>2026-05-13T13:03:50+02:00</time>
      </trkpt>
      <trkpt lat="46.17217" lon="4.80047">
        <ele>176</ele>
        <time>2026-05-13T13:03:51+02:00</time>
      </trkpt>
      <trkpt lat="46.17216" lon="4.80039">
        <ele>175.7002</ele>
        <time>2026-05-13T13:03:52+02:00</time>
      </trkpt>
      <trkpt lat="46.17215" lon="4.80031">
        <ele>175.5</ele>
        <time>2026-05-13T13:03:53+02:00</time>
      </trkpt>
      <trkpt lat="46.17214" lon="4.80024">
        <ele>175.2998</ele>
        <time>2026-05-13T13:03:54+02:00</time>
      </trkpt>
      <trkpt lat="46.17213" lon="4.80016">
        <ele>175.2002</ele>
        <time>2026-05-13T13:03:55+02:00</time>
      </trkpt>
      <trkpt lat="46.17212" lon="4.80008">
        <ele>175</ele>
        <time>2026-05-13T13:03:56+02:00</time>
      </trkpt>
      <trkpt lat="46.17211" lon="4.8">
        <ele>175</ele>
        <time>2026-05-13T13:03:57+02:00</time>
      </trkpt>
      <trkpt lat="46.17211" lon="4.79992">
        <ele>174.90039</ele>
        <time>2026-05-13T13:03:58+02:00</time>
      </trkpt>
      <trkpt lat="46.1721" lon="4.79984">
        <ele>174.7002</ele>
        <time>2026-05-13T13:03:59+02:00</time>
      </trkpt>
      <trkpt lat="46.17209" lon="4.79977">
        <ele>174.7002</ele>
        <time>2026-05-13T13:04:00+02:00</time>
      </trkpt>
      <trkpt lat="46.17208" lon="4.79969">
        <ele>174.7002</ele>
        <time>2026-05-13T13:04:01+02:00</time>
      </trkpt>
      <trkpt lat="46.17207" lon="4.79961">
        <ele>174.7002</ele>
        <time>2026-05-13T13:04:02+02:00</time>
      </trkpt>
      <trkpt lat="46.17206" lon="4.79954">
        <ele>174.7002</ele>
        <time>2026-05-13T13:04:03+02:00</time>
      </trkpt>
      <trkpt lat="46.17204" lon="4.79947">
        <ele>174.60059</ele>
        <time>2026-05-13T13:04:04+02:00</time>
      </trkpt>
      <trkpt lat="46.17203" lon="4.7994">
        <ele>174.60059</ele>
        <time>2026-05-13T13:04:05+02:00</time>
      </trkpt>
      <trkpt lat="46.17202" lon="4.79934">
        <ele>174.60059</ele>
        <time>2026-05-13T13:04:06+02:00</time>
      </trkpt>
      <trkpt lat="46.17199" lon="4.7993">
        <ele>174.5</ele>
        <time>2026-05-13T13:04:07+02:00</time>
      </trkpt>
      <trkpt lat="46.17196" lon="4.79928">
        <ele>174.40039</ele>
        <time>2026-05-13T13:04:08+02:00</time>
      </trkpt>
      <trkpt lat="46.17191" lon="4.79928">
        <ele>174.40039</ele>
        <time>2026-05-13T13:04:09+02:00</time>
      </trkpt>
      <trkpt lat="46.17187" lon="4.79928">
        <ele>174.40039</ele>
        <time>2026-05-13T13:04:10+02:00</time>
      </trkpt>
      <trkpt lat="46.17183" lon="4.79929">
        <ele>174.40039</ele>
        <time>2026-05-13T13:04:11+02:00</time>
      </trkpt>
      <trkpt lat="46.17178" lon="4.79929">
        <ele>174.2998</ele>
        <time>2026-05-13T13:04:12+02:00</time>
      </trkpt>
      <trkpt lat="46.17174" lon="4.7993">
        <ele>174.2998</ele>
        <time>2026-05-13T13:04:13+02:00</time>
      </trkpt>
      <trkpt lat="46.17168" lon="4.7993">
        <ele>174.2998</ele>
        <time>2026-05-13T13:04:14+02:00</time>
      </trkpt>
      <trkpt lat="46.17163" lon="4.79931">
        <ele>174.2998</ele>
        <time>2026-05-13T13:04:15+02:00</time>
      </trkpt>
      <trkpt lat="46.17158" lon="4.79931">
        <ele>174.2998</ele>
        <time>2026-05-13T13:04:16+02:00</time>
      </trkpt>
      <trkpt lat="46.17153" lon="4.79931">
        <ele>174.40039</ele>
        <time>2026-05-13T13:04:17+02:00</time>
      </trkpt>
      <trkpt lat="46.17148" lon="4.79929">
        <ele>174.5</ele>
        <time>2026-05-13T13:04:18+02:00</time>
      </trkpt>
      <trkpt lat="46.17143" lon="4.79925">
        <ele>174.60059</ele>
        <time>2026-05-13T13:04:19+02:00</time>
      </trkpt>
      <trkpt lat="46.17138" lon="4.79921">
        <ele>174.90039</ele>
        <time>2026-05-13T13:04:20+02:00</time>
      </trkpt>
      <trkpt lat="46.17134" lon="4.79916">
        <ele>174.90039</ele>
        <time>2026-05-13T13:04:21+02:00</time>
      </trkpt>
      <trkpt lat="46.17129" lon="4.79911">
        <ele>175.10059</ele>
        <time>2026-05-13T13:04:22+02:00</time>
      </trkpt>
      <trkpt lat="46.17125" lon="4.79906">
        <ele>175.2998</ele>
        <time>2026-05-13T13:04:23+02:00</time>
      </trkpt>
      <trkpt lat="46.17121" lon="4.79901">
        <ele>175.5</ele>
        <time>2026-05-13T13:04:24+02:00</time>
      </trkpt>
      <trkpt lat="46.17117" lon="4.79895">
        <ele>175.5</ele>
        <time>2026-05-13T13:04:25+02:00</time>
      </trkpt>
      <trkpt lat="46.17113" lon="4.79891">
        <ele>175.60059</ele>
        <time>2026-05-13T13:04:26+02:00</time>
      </trkpt>
      <trkpt lat="46.17109" lon="4.79886">
        <ele>175.7002</ele>
        <time>2026-05-13T13:04:27+02:00</time>
      </trkpt>
      <trkpt lat="46.17105" lon="4.7988">
        <ele>175.7002</ele>
        <time>2026-05-13T13:04:28+02:00</time>
      </trkpt>
      <trkpt lat="46.17101" lon="4.79875">
        <ele>175.7998</ele>
        <time>2026-05-13T13:04:29+02:00</time>
      </trkpt>
      <trkpt lat="46.17096" lon="4.7987">
        <ele>175.7998</ele>
        <time>2026-05-13T13:04:30+02:00</time>
      </trkpt>
      <trkpt lat="46.17092" lon="4.79864">
        <ele>175.7998</ele>
        <time>2026-05-13T13:04:31+02:00</time>
      </trkpt>
      <trkpt lat="46.17088" lon="4.79859">
        <ele>175.7998</ele>
        <time>2026-05-13T13:04:32+02:00</time>
      </trkpt>
      <trkpt lat="46.17084" lon="4.79854">
        <ele>175.90039</ele>
        <time>2026-05-13T13:04:33+02:00</time>
      </trkpt>
      <trkpt lat="46.1708" lon="4.79848">
        <ele>175.7998</ele>
        <time>2026-05-13T13:04:34+02:00</time>
      </trkpt>
      <trkpt lat="46.17076" lon="4.79842">
        <ele>175.7002</ele>
        <time>2026-05-13T13:04:35+02:00</time>
      </trkpt>
      <trkpt lat="46.17072" lon="4.79837">
        <ele>175.7002</ele>
        <time>2026-05-13T13:04:36+02:00</time>
      </trkpt>
      <trkpt lat="46.17068" lon="4.79832">
        <ele>175.60059</ele>
        <time>2026-05-13T13:04:37+02:00</time>
      </trkpt>
      <trkpt lat="46.17064" lon="4.79826">
        <ele>175.5</ele>
        <time>2026-05-13T13:04:38+02:00</time>
      </trkpt>
      <trkpt lat="46.1706" lon="4.79821">
        <ele>175.5</ele>
        <time>2026-05-13T13:04:39+02:00</time>
      </trkpt>
      <trkpt lat="46.17055" lon="4.79816">
        <ele>175.40039</ele>
        <time>2026-05-13T13:04:40+02:00</time>
      </trkpt>
      <trkpt lat="46.1705" lon="4.79811">
        <ele>175.40039</ele>
        <time>2026-05-13T13:04:41+02:00</time>
      </trkpt>
      <trkpt lat="46.17045" lon="4.79807">
        <ele>175.2998</ele>
        <time>2026-05-13T13:04:42+02:00</time>
      </trkpt>
      <trkpt lat="46.17039" lon="4.79802">
        <ele>175.2998</ele>
        <time>2026-05-13T13:04:43+02:00</time>
      </trkpt>
      <trkpt lat="46.17034" lon="4.79795">
        <ele>175.2998</ele>
        <time>2026-05-13T13:04:44+02:00</time>
      </trkpt>
      <trkpt lat="46.17029" lon="4.7979">
        <ele>175.2998</ele>
        <time>2026-05-13T13:04:45+02:00</time>
      </trkpt>
      <trkpt lat="46.17024" lon="4.79784">
        <ele>175.2998</ele>
        <time>2026-05-13T13:04:46+02:00</time>
      </trkpt>
      <trkpt lat="46.17019" lon="4.79778">
        <ele>175.2998</ele>
        <time>2026-05-13T13:04:47+02:00</time>
      </trkpt>
      <trkpt lat="46.17015" lon="4.79773">
        <ele>175.2998</ele>
        <time>2026-05-13T13:04:48+02:00</time>
      </trkpt>
      <trkpt lat="46.17011" lon="4.79767">
        <ele>175.40039</ele>
        <time>2026-05-13T13:04:49+02:00</time>
      </trkpt>
      <trkpt lat="46.17007" lon="4.79762">
        <ele>175.40039</ele>
        <time>2026-05-13T13:04:50+02:00</time>
      </trkpt>
      <trkpt lat="46.17002" lon="4.79756">
        <ele>175.5</ele>
        <time>2026-05-13T13:04:51+02:00</time>
      </trkpt>
      <trkpt lat="46.16998" lon="4.79751">
        <ele>175.5</ele>
        <time>2026-05-13T13:04:52+02:00</time>
      </trkpt>
      <trkpt lat="46.16993" lon="4.79745">
        <ele>175.60059</ele>
        <time>2026-05-13T13:04:53+02:00</time>
      </trkpt>
      <trkpt lat="46.16989" lon="4.79739">
        <ele>175.60059</ele>
        <time>2026-05-13T13:04:54+02:00</time>
      </trkpt>
      <trkpt lat="46.16985" lon="4.79734">
        <ele>175.60059</ele>
        <time>2026-05-13T13:04:55+02:00</time>
      </trkpt>
      <trkpt lat="46.1698" lon="4.79728">
        <ele>175.7002</ele>
        <time>2026-05-13T13:04:56+02:00</time>
      </trkpt>
      <trkpt lat="46.16975" lon="4.79722">
        <ele>175.7998</ele>
        <time>2026-05-13T13:04:57+02:00</time>
      </trkpt>
      <trkpt lat="46.1697" lon="4.79717">
        <ele>175.7998</ele>
        <time>2026-05-13T13:04:58+02:00</time>
      </trkpt>
      <trkpt lat="46.16964" lon="4.79711">
        <ele>175.90039</ele>
        <time>2026-05-13T13:04:59+02:00</time>
      </trkpt>
      <trkpt lat="46.1696" lon="4.79705">
        <ele>176.10059</ele>
        <time>2026-05-13T13:05:00+02:00</time>
      </trkpt>
      <trkpt lat="46.16954" lon="4.79699">
        <ele>176.2998</ele>
        <time>2026-05-13T13:05:01+02:00</time>
      </trkpt>
      <trkpt lat="46.1695" lon="4.79694">
        <ele>176.2998</ele>
        <time>2026-05-13T13:05:02+02:00</time>
      </trkpt>
      <trkpt lat="46.16945" lon="4.79688">
        <ele>176.5</ele>
        <time>2026-05-13T13:05:03+02:00</time>
      </trkpt>
      <trkpt lat="46.1694" lon="4.79682">
        <ele>176.60059</ele>
        <time>2026-05-13T13:05:04+02:00</time>
      </trkpt>
      <trkpt lat="46.16936" lon="4.79676">
        <ele>176.7998</ele>
        <time>2026-05-13T13:05:05+02:00</time>
      </trkpt>
      <trkpt lat="46.16931" lon="4.79671">
        <ele>176.7002</ele>
        <time>2026-05-13T13:05:06+02:00</time>
      </trkpt>
      <trkpt lat="46.16927" lon="4.79665">
        <ele>176.90039</ele>
        <time>2026-05-13T13:05:07+02:00</time>
      </trkpt>
      <trkpt lat="46.16922" lon="4.79659">
        <ele>177</ele>
        <time>2026-05-13T13:05:08+02:00</time>
      </trkpt>
      <trkpt lat="46.16918" lon="4.79654">
        <ele>177</ele>
        <time>2026-05-13T13:05:09+02:00</time>
      </trkpt>
      <trkpt lat="46.16913" lon="4.79648">
        <ele>177</ele>
        <time>2026-05-13T13:05:10+02:00</time>
      </trkpt>
      <trkpt lat="46.16908" lon="4.79642">
        <ele>176.7998</ele>
        <time>2026-05-13T13:05:11+02:00</time>
      </trkpt>
      <trkpt lat="46.16903" lon="4.79637">
        <ele>176.5</ele>
        <time>2026-05-13T13:05:12+02:00</time>
      </trkpt>
      <trkpt lat="46.16898" lon="4.79631">
        <ele>176.60059</ele>
        <time>2026-05-13T13:05:13+02:00</time>
      </trkpt>
      <trkpt lat="46.16894" lon="4.79626">
        <ele>176.40039</ele>
        <time>2026-05-13T13:05:14+02:00</time>
      </trkpt>
      <trkpt lat="46.16889" lon="4.7962">
        <ele>176.40039</ele>
        <time>2026-05-13T13:05:15+02:00</time>
      </trkpt>
      <trkpt lat="46.16884" lon="4.79614">
        <ele>176.40039</ele>
        <time>2026-05-13T13:05:16+02:00</time>
      </trkpt>
      <trkpt lat="46.16879" lon="4.79609">
        <ele>176.40039</ele>
        <time>2026-05-13T13:05:17+02:00</time>
      </trkpt>
      <trkpt lat="46.16875" lon="4.79604">
        <ele>176.60059</ele>
        <time>2026-05-13T13:05:18+02:00</time>
      </trkpt>
      <trkpt lat="46.1687" lon="4.79599">
        <ele>176.7002</ele>
        <time>2026-05-13T13:05:19+02:00</time>
      </trkpt>
      <trkpt lat="46.16866" lon="4.79593">
        <ele>176.7002</ele>
        <time>2026-05-13T13:05:20+02:00</time>
      </trkpt>
      <trkpt lat="46.16862" lon="4.79587">
        <ele>177</ele>
        <time>2026-05-13T13:05:21+02:00</time>
      </trkpt>
      <trkpt lat="46.16858" lon="4.79582">
        <ele>177.2002</ele>
        <time>2026-05-13T13:05:22+02:00</time>
      </trkpt>
      <trkpt lat="46.16853" lon="4.79577">
        <ele>177.60059</ele>
        <time>2026-05-13T13:05:23+02:00</time>
      </trkpt>
      <trkpt lat="46.16849" lon="4.79571">
        <ele>177.60059</ele>
        <time>2026-05-13T13:05:24+02:00</time>
      </trkpt>
      <trkpt lat="46.16845" lon="4.79566">
        <ele>177.90039</ele>
        <time>2026-05-13T13:05:25+02:00</time>
      </trkpt>
      <trkpt lat="46.1684" lon="4.7956">
        <ele>177.90039</ele>
        <time>2026-05-13T13:05:26+02:00</time>
      </trkpt>
      <trkpt lat="46.16836" lon="4.79555">
        <ele>177.90039</ele>
        <time>2026-05-13T13:05:27+02:00</time>
      </trkpt>
      <trkpt lat="46.16832" lon="4.79549">
        <ele>177.5</ele>
        <time>2026-05-13T13:05:28+02:00</time>
      </trkpt>
      <trkpt lat="46.16827" lon="4.79544">
        <ele>177.5</ele>
        <time>2026-05-13T13:05:29+02:00</time>
      </trkpt>
      <trkpt lat="46.16823" lon="4.79539">
        <ele>177.40039</ele>
        <time>2026-05-13T13:05:30+02:00</time>
      </trkpt>
      <trkpt lat="46.16818" lon="4.79534">
        <ele>177.5</ele>
        <time>2026-05-13T13:05:31+02:00</time>
      </trkpt>
      <trkpt lat="46.16815" lon="4.79529">
        <ele>177.5</ele>
        <time>2026-05-13T13:05:32+02:00</time>
      </trkpt>
      <trkpt lat="46.16811" lon="4.79524">
        <ele>176.90039</ele>
        <time>2026-05-13T13:05:33+02:00</time>
      </trkpt>
      <trkpt lat="46.16807" lon="4.79519">
        <ele>176.90039</ele>
        <time>2026-05-13T13:05:34+02:00</time>
      </trkpt>
      <trkpt lat="46.16803" lon="4.79514">
        <ele>176</ele>
        <time>2026-05-13T13:05:35+02:00</time>
      </trkpt>
      <trkpt lat="46.16799" lon="4.79508">
        <ele>175</ele>
        <time>2026-05-13T13:05:36+02:00</time>
      </trkpt>
      <trkpt lat="46.16795" lon="4.79503">
        <ele>175</ele>
        <time>2026-05-13T13:05:37+02:00</time>
      </trkpt>
      <trkpt lat="46.1679" lon="4.79498">
        <ele>174.5</ele>
        <time>2026-05-13T13:05:38+02:00</time>
      </trkpt>
      <trkpt lat="46.16785" lon="4.79492">
        <ele>174.5</ele>
        <time>2026-05-13T13:05:39+02:00</time>
      </trkpt>
      <trkpt lat="46.16781" lon="4.79487">
        <ele>173.90039</ele>
        <time>2026-05-13T13:05:40+02:00</time>
      </trkpt>
      <trkpt lat="46.16776" lon="4.79481">
        <ele>173.60059</ele>
        <time>2026-05-13T13:05:41+02:00</time>
      </trkpt>
      <trkpt lat="46.16772" lon="4.79476">
        <ele>173.60059</ele>
        <time>2026-05-13T13:05:42+02:00</time>
      </trkpt>
      <trkpt lat="46.16768" lon="4.79471">
        <ele>173</ele>
        <time>2026-05-13T13:05:43+02:00</time>
      </trkpt>
      <trkpt lat="46.16764" lon="4.79466">
        <ele>172.40039</ele>
        <time>2026-05-13T13:05:44+02:00</time>
      </trkpt>
      <trkpt lat="46.1676" lon="4.79461">
        <ele>172.40039</ele>
        <time>2026-05-13T13:05:45+02:00</time>
      </trkpt>
      <trkpt lat="46.16755" lon="4.79456">
        <ele>172.10059</ele>
        <time>2026-05-13T13:05:46+02:00</time>
      </trkpt>
      <trkpt lat="46.16751" lon="4.7945">
        <ele>172</ele>
        <time>2026-05-13T13:05:47+02:00</time>
      </trkpt>
      <trkpt lat="46.16747" lon="4.79445">
        <ele>172</ele>
        <time>2026-05-13T13:05:48+02:00</time>
      </trkpt>
      <trkpt lat="46.16742" lon="4.7944">
        <ele>172</ele>
        <time>2026-05-13T13:05:49+02:00</time>
      </trkpt>
      <trkpt lat="46.16738" lon="4.79435">
        <ele>171.60059</ele>
        <time>2026-05-13T13:05:50+02:00</time>
      </trkpt>
      <trkpt lat="46.16734" lon="4.7943">
        <ele>171.5</ele>
        <time>2026-05-13T13:05:51+02:00</time>
      </trkpt>
      <trkpt lat="46.16729" lon="4.79425">
        <ele>171.5</ele>
        <time>2026-05-13T13:05:52+02:00</time>
      </trkpt>
      <trkpt lat="46.16725" lon="4.7942">
        <ele>171.40039</ele>
        <time>2026-05-13T13:05:53+02:00</time>
      </trkpt>
      <trkpt lat="46.16721" lon="4.79415">
        <ele>171.5</ele>
        <time>2026-05-13T13:05:54+02:00</time>
      </trkpt>
      <trkpt lat="46.16716" lon="4.7941">
        <ele>171.10059</ele>
        <time>2026-05-13T13:05:55+02:00</time>
      </trkpt>
      <trkpt lat="46.16712" lon="4.79404">
        <ele>171.40039</ele>
        <time>2026-05-13T13:05:56+02:00</time>
      </trkpt>
      <trkpt lat="46.16708" lon="4.79399">
        <ele>171</ele>
        <time>2026-05-13T13:05:57+02:00</time>
      </trkpt>
      <trkpt lat="46.16704" lon="4.79394">
        <ele>170.90039</ele>
        <time>2026-05-13T13:05:58+02:00</time>
      </trkpt>
      <trkpt lat="46.167" lon="4.79389">
        <ele>171.2998</ele>
        <time>2026-05-13T13:05:59+02:00</time>
      </trkpt>
      <trkpt lat="46.16696" lon="4.79383">
        <ele>171</ele>
        <time>2026-05-13T13:06:00+02:00</time>
      </trkpt>
      <trkpt lat="46.16691" lon="4.79378">
        <ele>170.90039</ele>
        <time>2026-05-13T13:06:01+02:00</time>
      </trkpt>
      <trkpt lat="46.16687" lon="4.79372">
        <ele>170.5</ele>
        <time>2026-05-13T13:06:02+02:00</time>
      </trkpt>
      <trkpt lat="46.16683" lon="4.79366">
        <ele>170.5</ele>
        <time>2026-05-13T13:06:03+02:00</time>
      </trkpt>
      <trkpt lat="46.16678" lon="4.7936">
        <ele>170.10059</ele>
        <time>2026-05-13T13:06:04+02:00</time>
      </trkpt>
      <trkpt lat="46.16675" lon="4.79353">
        <ele>169.7998</ele>
        <time>2026-05-13T13:06:05+02:00</time>
      </trkpt>
      <trkpt lat="46.16673" lon="4.79346">
        <ele>170</ele>
        <time>2026-05-13T13:06:06+02:00</time>
      </trkpt>
      <trkpt lat="46.16671" lon="4.79338">
        <ele>170.2998</ele>
        <time>2026-05-13T13:06:07+02:00</time>
      </trkpt>
      <trkpt lat="46.16669" lon="4.7933">
        <ele>170.2998</ele>
        <time>2026-05-13T13:06:08+02:00</time>
      </trkpt>
      <trkpt lat="46.16666" lon="4.79323">
        <ele>170.2998</ele>
        <time>2026-05-13T13:06:09+02:00</time>
      </trkpt>
      <trkpt lat="46.16664" lon="4.79315">
        <ele>170.60059</ele>
        <time>2026-05-13T13:06:10+02:00</time>
      </trkpt>
      <trkpt lat="46.16662" lon="4.79308">
        <ele>170.5</ele>
        <time>2026-05-13T13:06:11+02:00</time>
      </trkpt>
      <trkpt lat="46.16661" lon="4.793">
        <ele>170.7002</ele>
        <time>2026-05-13T13:06:12+02:00</time>
      </trkpt>
      <trkpt lat="46.16659" lon="4.79293">
        <ele>170.90039</ele>
        <time>2026-05-13T13:06:13+02:00</time>
      </trkpt>
      <trkpt lat="46.16657" lon="4.79285">
        <ele>170.90039</ele>
        <time>2026-05-13T13:06:14+02:00</time>
      </trkpt>
      <trkpt lat="46.16655" lon="4.79277">
        <ele>171.10059</ele>
        <time>2026-05-13T13:06:15+02:00</time>
      </trkpt>
      <trkpt lat="46.16652" lon="4.79269">
        <ele>171.40039</ele>
        <time>2026-05-13T13:06:16+02:00</time>
      </trkpt>
      <trkpt lat="46.16651" lon="4.79261">
        <ele>171.2002</ele>
        <time>2026-05-13T13:06:17+02:00</time>
      </trkpt>
      <trkpt lat="46.16649" lon="4.79253">
        <ele>171.2002</ele>
        <time>2026-05-13T13:06:18+02:00</time>
      </trkpt>
      <trkpt lat="46.16647" lon="4.79246">
        <ele>171.2998</ele>
        <time>2026-05-13T13:06:19+02:00</time>
      </trkpt>
      <trkpt lat="46.16645" lon="4.79239">
        <ele>171</ele>
        <time>2026-05-13T13:06:20+02:00</time>
      </trkpt>
      <trkpt lat="46.16643" lon="4.79232">
        <ele>171.2002</ele>
        <time>2026-05-13T13:06:21+02:00</time>
      </trkpt>
      <trkpt lat="46.1664" lon="4.79226">
        <ele>171.2998</ele>
        <time>2026-05-13T13:06:22+02:00</time>
      </trkpt>
      <trkpt lat="46.16637" lon="4.79221">
        <ele>171.10059</ele>
        <time>2026-05-13T13:06:23+02:00</time>
      </trkpt>
      <trkpt lat="46.16634" lon="4.79216">
        <ele>171.2998</ele>
        <time>2026-05-13T13:06:24+02:00</time>
      </trkpt>
      <trkpt lat="46.16631" lon="4.79211">
        <ele>171.2002</ele>
        <time>2026-05-13T13:06:25+02:00</time>
      </trkpt>
      <trkpt lat="46.16629" lon="4.79206">
        <ele>171.40039</ele>
        <time>2026-05-13T13:06:26+02:00</time>
      </trkpt>
      <trkpt lat="46.16626" lon="4.79201">
        <ele>171.40039</ele>
        <time>2026-05-13T13:06:27+02:00</time>
      </trkpt>
      <trkpt lat="46.16625" lon="4.79195">
        <ele>171.40039</ele>
        <time>2026-05-13T13:06:28+02:00</time>
      </trkpt>
      <trkpt lat="46.16624" lon="4.79189">
        <ele>171.60059</ele>
        <time>2026-05-13T13:06:29+02:00</time>
      </trkpt>
      <trkpt lat="46.16623" lon="4.79182">
        <ele>171.7998</ele>
        <time>2026-05-13T13:06:30+02:00</time>
      </trkpt>
      <trkpt lat="46.16621" lon="4.79176">
        <ele>171.7998</ele>
        <time>2026-05-13T13:06:31+02:00</time>
      </trkpt>
      <trkpt lat="46.16619" lon="4.79169">
        <ele>172</ele>
        <time>2026-05-13T13:06:32+02:00</time>
      </trkpt>
      <trkpt lat="46.16618" lon="4.79162">
        <ele>172.10059</ele>
        <time>2026-05-13T13:06:33+02:00</time>
      </trkpt>
      <trkpt lat="46.16616" lon="4.79156">
        <ele>172</ele>
        <time>2026-05-13T13:06:34+02:00</time>
      </trkpt>
      <trkpt lat="46.16614" lon="4.79149">
        <ele>171.90039</ele>
        <time>2026-05-13T13:06:35+02:00</time>
      </trkpt>
      <trkpt lat="46.16613" lon="4.79142">
        <ele>171.90039</ele>
        <time>2026-05-13T13:06:36+02:00</time>
      </trkpt>
      <trkpt lat="46.16611" lon="4.79136">
        <ele>171.7002</ele>
        <time>2026-05-13T13:06:37+02:00</time>
      </trkpt>
      <trkpt lat="46.16609" lon="4.79129">
        <ele>171.7002</ele>
        <time>2026-05-13T13:06:38+02:00</time>
      </trkpt>
      <trkpt lat="46.16607" lon="4.79123">
        <ele>171.5</ele>
        <time>2026-05-13T13:06:39+02:00</time>
      </trkpt>
      <trkpt lat="46.16605" lon="4.79117">
        <ele>171.5</ele>
        <time>2026-05-13T13:06:40+02:00</time>
      </trkpt>
      <trkpt lat="46.16602" lon="4.79111">
        <ele>171.2998</ele>
        <time>2026-05-13T13:06:41+02:00</time>
      </trkpt>
      <trkpt lat="46.16601" lon="4.79106">
        <ele>171.10059</ele>
        <time>2026-05-13T13:06:42+02:00</time>
      </trkpt>
      <trkpt lat="46.16599" lon="4.79101">
        <ele>171.10059</ele>
        <time>2026-05-13T13:06:43+02:00</time>
      </trkpt>
      <trkpt lat="46.16597" lon="4.79095">
        <ele>171</ele>
        <time>2026-05-13T13:06:44+02:00</time>
      </trkpt>
      <trkpt lat="46.16596" lon="4.79089">
        <ele>170.90039</ele>
        <time>2026-05-13T13:06:45+02:00</time>
      </trkpt>
      <trkpt lat="46.16594" lon="4.79083">
        <ele>170.90039</ele>
        <time>2026-05-13T13:06:46+02:00</time>
      </trkpt>
      <trkpt lat="46.16592" lon="4.79077">
        <ele>170.7998</ele>
        <time>2026-05-13T13:06:47+02:00</time>
      </trkpt>
      <trkpt lat="46.1659" lon="4.7907">
        <ele>170.7002</ele>
        <time>2026-05-13T13:06:48+02:00</time>
      </trkpt>
      <trkpt lat="46.16588" lon="4.79064">
        <ele>170.5</ele>
        <time>2026-05-13T13:06:49+02:00</time>
      </trkpt>
      <trkpt lat="46.16585" lon="4.79058">
        <ele>170.2998</ele>
        <time>2026-05-13T13:06:50+02:00</time>
      </trkpt>
      <trkpt lat="46.16581" lon="4.79052">
        <ele>170</ele>
        <time>2026-05-13T13:06:51+02:00</time>
      </trkpt>
      <trkpt lat="46.16578" lon="4.79046">
        <ele>169.40039</ele>
        <time>2026-05-13T13:06:52+02:00</time>
      </trkpt>
      <trkpt lat="46.16575" lon="4.7904">
        <ele>169.40039</ele>
        <time>2026-05-13T13:06:53+02:00</time>
      </trkpt>
      <trkpt lat="46.16573" lon="4.79035">
        <ele>169</ele>
        <time>2026-05-13T13:06:54+02:00</time>
      </trkpt>
      <trkpt lat="46.16571" lon="4.7903">
        <ele>169</ele>
        <time>2026-05-13T13:06:55+02:00</time>
      </trkpt>
      <trkpt lat="46.1657" lon="4.79025">
        <ele>168.7998</ele>
        <time>2026-05-13T13:06:56+02:00</time>
      </trkpt>
      <trkpt lat="46.1657" lon="4.79019">
        <ele>168.60059</ele>
        <time>2026-05-13T13:06:57+02:00</time>
      </trkpt>
      <trkpt lat="46.16572" lon="4.79014">
        <ele>168.60059</ele>
        <time>2026-05-13T13:06:58+02:00</time>
      </trkpt>
      <trkpt lat="46.16573" lon="4.7901">
        <ele>168.40039</ele>
        <time>2026-05-13T13:06:59+02:00</time>
      </trkpt>
      <trkpt lat="46.16576" lon="4.79006">
        <ele>168.60059</ele>
        <time>2026-05-13T13:07:00+02:00</time>
      </trkpt>
      <trkpt lat="46.16577" lon="4.79003">
        <ele>168.5</ele>
        <time>2026-05-13T13:07:01+02:00</time>
      </trkpt>
      <trkpt lat="46.16579" lon="4.79001">
        <ele>168.5</ele>
        <time>2026-05-13T13:07:02+02:00</time>
      </trkpt>
      <trkpt lat="46.16581" lon="4.78998">
        <ele>168.60059</ele>
        <time>2026-05-13T13:07:03+02:00</time>
      </trkpt>
      <trkpt lat="46.16581" lon="4.78997">
        <ele>168.60059</ele>
        <time>2026-05-13T13:07:04+02:00</time>
      </trkpt>
      <trkpt lat="46.16581" lon="4.78996">
        <ele>168.60059</ele>
        <time>2026-05-13T13:07:05+02:00</time>
      </trkpt>
      <trkpt lat="46.16581" lon="4.78995">
        <ele>168.5</ele>
        <time>2026-05-13T13:07:06+02:00</time>
      </trkpt>
      <trkpt lat="46.16581" lon="4.78995">
        <ele>168.5</ele>
        <time>2026-05-13T13:07:07+02:00</time>
      </trkpt>
      <trkpt lat="46.16581" lon="4.78995">
        <ele>168.5</ele>
        <time>2026-05-13T13:07:08+02:00</time>
      </trkpt>
      <trkpt lat="46.16589" lon="4.78982">
        <ele>168.5</ele>
        <time>2026-05-13T13:07:28+02:00</time>
      </trkpt>
      <trkpt lat="46.16591" lon="4.78979">
        <ele>168.5</ele>
        <time>2026-05-13T13:07:29+02:00</time>
      </trkpt>
      <trkpt lat="46.16593" lon="4.78975">
        <ele>168.5</ele>
        <time>2026-05-13T13:07:30+02:00</time>
      </trkpt>
      <trkpt lat="46.16595" lon="4.78972">
        <ele>168.5</ele>
        <time>2026-05-13T13:07:31+02:00</time>
      </trkpt>
      <trkpt lat="46.16597" lon="4.78968">
        <ele>168.40039</ele>
        <time>2026-05-13T13:07:32+02:00</time>
      </trkpt>
      <trkpt lat="46.16599" lon="4.78963">
        <ele>168.5</ele>
        <time>2026-05-13T13:07:33+02:00</time>
      </trkpt>
      <trkpt lat="46.16601" lon="4.78959">
        <ele>168.40039</ele>
        <time>2026-05-13T13:07:34+02:00</time>
      </trkpt>
      <trkpt lat="46.16604" lon="4.78954">
        <ele>168.40039</ele>
        <time>2026-05-13T13:07:35+02:00</time>
      </trkpt>
      <trkpt lat="46.16606" lon="4.78949">
        <ele>168.40039</ele>
        <time>2026-05-13T13:07:36+02:00</time>
      </trkpt>
      <trkpt lat="46.16609" lon="4.78945">
        <ele>168.40039</ele>
        <time>2026-05-13T13:07:37+02:00</time>
      </trkpt>
      <trkpt lat="46.16612" lon="4.7894">
        <ele>168.40039</ele>
        <time>2026-05-13T13:07:38+02:00</time>
      </trkpt>
      <trkpt lat="46.16614" lon="4.78935">
        <ele>168.2998</ele>
        <time>2026-05-13T13:07:39+02:00</time>
      </trkpt>
      <trkpt lat="46.16617" lon="4.7893">
        <ele>168.60059</ele>
        <time>2026-05-13T13:07:40+02:00</time>
      </trkpt>
      <trkpt lat="46.1662" lon="4.78925">
        <ele>168.5</ele>
        <time>2026-05-13T13:07:41+02:00</time>
      </trkpt>
      <trkpt lat="46.16623" lon="4.78919">
        <ele>168.7002</ele>
        <time>2026-05-13T13:07:42+02:00</time>
      </trkpt>
      <trkpt lat="46.16625" lon="4.78914">
        <ele>168.7002</ele>
        <time>2026-05-13T13:07:43+02:00</time>
      </trkpt>
      <trkpt lat="46.16628" lon="4.78908">
        <ele>168.60059</ele>
        <time>2026-05-13T13:07:44+02:00</time>
      </trkpt>
      <trkpt lat="46.16631" lon="4.78903">
        <ele>168.7002</ele>
        <time>2026-05-13T13:07:45+02:00</time>
      </trkpt>
      <trkpt lat="46.16634" lon="4.78897">
        <ele>168.7002</ele>
        <time>2026-05-13T13:07:46+02:00</time>
      </trkpt>
      <trkpt lat="46.16636" lon="4.78892">
        <ele>168.60059</ele>
        <time>2026-05-13T13:07:47+02:00</time>
      </trkpt>
      <trkpt lat="46.16639" lon="4.78886">
        <ele>168.60059</ele>
        <time>2026-05-13T13:07:48+02:00</time>
      </trkpt>
      <trkpt lat="46.16642" lon="4.7888">
        <ele>168.7002</ele>
        <time>2026-05-13T13:07:49+02:00</time>
      </trkpt>
      <trkpt lat="46.16645" lon="4.78875">
        <ele>168.60059</ele>
        <time>2026-05-13T13:07:50+02:00</time>
      </trkpt>
      <trkpt lat="46.16647" lon="4.78869">
        <ele>168.7002</ele>
        <time>2026-05-13T13:07:51+02:00</time>
      </trkpt>
      <trkpt lat="46.16651" lon="4.78863">
        <ele>168.60059</ele>
        <time>2026-05-13T13:07:52+02:00</time>
      </trkpt>
      <trkpt lat="46.16654" lon="4.78857">
        <ele>168.60059</ele>
        <time>2026-05-13T13:07:53+02:00</time>
      </trkpt>
      <trkpt lat="46.16657" lon="4.78852">
        <ele>168.60059</ele>
        <time>2026-05-13T13:07:54+02:00</time>
      </trkpt>
      <trkpt lat="46.16659" lon="4.78846">
        <ele>168.60059</ele>
        <time>2026-05-13T13:07:55+02:00</time>
      </trkpt>
      <trkpt lat="46.16662" lon="4.7884">
        <ele>168.5</ele>
        <time>2026-05-13T13:07:56+02:00</time>
      </trkpt>
      <trkpt lat="46.16665" lon="4.78834">
        <ele>168.60059</ele>
        <time>2026-05-13T13:07:57+02:00</time>
      </trkpt>
      <trkpt lat="46.16669" lon="4.78828">
        <ele>168.5</ele>
        <time>2026-05-13T13:07:58+02:00</time>
      </trkpt>
      <trkpt lat="46.16672" lon="4.78822">
        <ele>168.5</ele>
        <time>2026-05-13T13:07:59+02:00</time>
      </trkpt>
      <trkpt lat="46.16675" lon="4.78816">
        <ele>168.5</ele>
        <time>2026-05-13T13:08:00+02:00</time>
      </trkpt>
      <trkpt lat="46.16678" lon="4.7881">
        <ele>168.5</ele>
        <time>2026-05-13T13:08:01+02:00</time>
      </trkpt>
      <trkpt lat="46.16681" lon="4.78803">
        <ele>168.40039</ele>
        <time>2026-05-13T13:08:02+02:00</time>
      </trkpt>
      <trkpt lat="46.16684" lon="4.78797">
        <ele>168.5</ele>
        <time>2026-05-13T13:08:03+02:00</time>
      </trkpt>
      <trkpt lat="46.16688" lon="4.7879">
        <ele>168.60059</ele>
        <time>2026-05-13T13:08:04+02:00</time>
      </trkpt>
      <trkpt lat="46.16691" lon="4.78784">
        <ele>168.5</ele>
        <time>2026-05-13T13:08:05+02:00</time>
      </trkpt>
      <trkpt lat="46.16694" lon="4.78777">
        <ele>168.5</ele>
        <time>2026-05-13T13:08:06+02:00</time>
      </trkpt>
      <trkpt lat="46.16697" lon="4.78771">
        <ele>168.40039</ele>
        <time>2026-05-13T13:08:07+02:00</time>
      </trkpt>
      <trkpt lat="46.167" lon="4.78765">
        <ele>168.60059</ele>
        <time>2026-05-13T13:08:08+02:00</time>
      </trkpt>
      <trkpt lat="46.16703" lon="4.78759">
        <ele>168.5</ele>
        <time>2026-05-13T13:08:09+02:00</time>
      </trkpt>
      <trkpt lat="46.16707" lon="4.78753">
        <ele>168.5</ele>
        <time>2026-05-13T13:08:10+02:00</time>
      </trkpt>
      <trkpt lat="46.1671" lon="4.78747">
        <ele>168.5</ele>
        <time>2026-05-13T13:08:11+02:00</time>
      </trkpt>
      <trkpt lat="46.16713" lon="4.7874">
        <ele>168.5</ele>
        <time>2026-05-13T13:08:12+02:00</time>
      </trkpt>
      <trkpt lat="46.16717" lon="4.78735">
        <ele>168.5</ele>
        <time>2026-05-13T13:08:13+02:00</time>
      </trkpt>
      <trkpt lat="46.1672" lon="4.78729">
        <ele>168.40039</ele>
        <time>2026-05-13T13:08:14+02:00</time>
      </trkpt>
      <trkpt lat="46.16724" lon="4.78724">
        <ele>168.60059</ele>
        <time>2026-05-13T13:08:15+02:00</time>
      </trkpt>
      <trkpt lat="46.16728" lon="4.78719">
        <ele>168.5</ele>
        <time>2026-05-13T13:08:16+02:00</time>
      </trkpt>
      <trkpt lat="46.16733" lon="4.78715">
        <ele>168.60059</ele>
        <time>2026-05-13T13:08:17+02:00</time>
      </trkpt>
      <trkpt lat="46.16737" lon="4.78711">
        <ele>168.60059</ele>
        <time>2026-05-13T13:08:18+02:00</time>
      </trkpt>
      <trkpt lat="46.16742" lon="4.78706">
        <ele>168.7998</ele>
        <time>2026-05-13T13:08:19+02:00</time>
      </trkpt>
      <trkpt lat="46.16746" lon="4.78702">
        <ele>168.7002</ele>
        <time>2026-05-13T13:08:20+02:00</time>
      </trkpt>
      <trkpt lat="46.16751" lon="4.78698">
        <ele>168.90039</ele>
        <time>2026-05-13T13:08:21+02:00</time>
      </trkpt>
      <trkpt lat="46.16756" lon="4.78694">
        <ele>168.7998</ele>
        <time>2026-05-13T13:08:22+02:00</time>
      </trkpt>
      <trkpt lat="46.16761" lon="4.78689">
        <ele>169</ele>
        <time>2026-05-13T13:08:23+02:00</time>
      </trkpt>
      <trkpt lat="46.16765" lon="4.78685">
        <ele>168.7998</ele>
        <time>2026-05-13T13:08:24+02:00</time>
      </trkpt>
      <trkpt lat="46.16769" lon="4.7868">
        <ele>168.7998</ele>
        <time>2026-05-13T13:08:25+02:00</time>
      </trkpt>
      <trkpt lat="46.16773" lon="4.78674">
        <ele>168.60059</ele>
        <time>2026-05-13T13:08:26+02:00</time>
      </trkpt>
      <trkpt lat="46.16778" lon="4.7867">
        <ele>168.7998</ele>
        <time>2026-05-13T13:08:27+02:00</time>
      </trkpt>
      <trkpt lat="46.16782" lon="4.78665">
        <ele>168.5</ele>
        <time>2026-05-13T13:08:28+02:00</time>
      </trkpt>
      <trkpt lat="46.16786" lon="4.7866">
        <ele>168.60059</ele>
        <time>2026-05-13T13:08:29+02:00</time>
      </trkpt>
      <trkpt lat="46.16789" lon="4.78655">
        <ele>168.7998</ele>
        <time>2026-05-13T13:08:30+02:00</time>
      </trkpt>
      <trkpt lat="46.16793" lon="4.7865">
        <ele>168.60059</ele>
        <time>2026-05-13T13:08:31+02:00</time>
      </trkpt>
      <trkpt lat="46.16797" lon="4.78645">
        <ele>168.7002</ele>
        <time>2026-05-13T13:08:32+02:00</time>
      </trkpt>
      <trkpt lat="46.16802" lon="4.7864">
        <ele>168.5</ele>
        <time>2026-05-13T13:08:33+02:00</time>
      </trkpt>
      <trkpt lat="46.16805" lon="4.78635">
        <ele>168.5</ele>
        <time>2026-05-13T13:08:34+02:00</time>
      </trkpt>
      <trkpt lat="46.16809" lon="4.78631">
        <ele>168.2002</ele>
        <time>2026-05-13T13:08:35+02:00</time>
      </trkpt>
      <trkpt lat="46.16813" lon="4.78627">
        <ele>168.2998</ele>
        <time>2026-05-13T13:08:36+02:00</time>
      </trkpt>
      <trkpt lat="46.16817" lon="4.78622">
        <ele>168.2002</ele>
        <time>2026-05-13T13:08:37+02:00</time>
      </trkpt>
      <trkpt lat="46.16821" lon="4.78618">
        <ele>168.2998</ele>
        <time>2026-05-13T13:08:38+02:00</time>
      </trkpt>
      <trkpt lat="46.16826" lon="4.78615">
        <ele>168.40039</ele>
        <time>2026-05-13T13:08:39+02:00</time>
      </trkpt>
      <trkpt lat="46.16831" lon="4.78612">
        <ele>168.5</ele>
        <time>2026-05-13T13:08:40+02:00</time>
      </trkpt>
      <trkpt lat="46.16837" lon="4.78609">
        <ele>168.40039</ele>
        <time>2026-05-13T13:08:41+02:00</time>
      </trkpt>
      <trkpt lat="46.16842" lon="4.78607">
        <ele>168.5</ele>
        <time>2026-05-13T13:08:42+02:00</time>
      </trkpt>
      <trkpt lat="46.16847" lon="4.78605">
        <ele>168.5</ele>
        <time>2026-05-13T13:08:43+02:00</time>
      </trkpt>
      <trkpt lat="46.16852" lon="4.78603">
        <ele>168.5</ele>
        <time>2026-05-13T13:08:44+02:00</time>
      </trkpt>
      <trkpt lat="46.16857" lon="4.78601">
        <ele>168.60059</ele>
        <time>2026-05-13T13:08:45+02:00</time>
      </trkpt>
      <trkpt lat="46.16863" lon="4.78599">
        <ele>168.5</ele>
        <time>2026-05-13T13:08:46+02:00</time>
      </trkpt>
      <trkpt lat="46.16868" lon="4.78596">
        <ele>168.60059</ele>
        <time>2026-05-13T13:08:47+02:00</time>
      </trkpt>
      <trkpt lat="46.16873" lon="4.78592">
        <ele>168.7998</ele>
        <time>2026-05-13T13:08:48+02:00</time>
      </trkpt>
      <trkpt lat="46.16877" lon="4.78589">
        <ele>168.7002</ele>
        <time>2026-05-13T13:08:49+02:00</time>
      </trkpt>
      <trkpt lat="46.16882" lon="4.78585">
        <ele>168.7998</ele>
        <time>2026-05-13T13:08:50+02:00</time>
      </trkpt>
      <trkpt lat="46.16887" lon="4.78581">
        <ele>168.7002</ele>
        <time>2026-05-13T13:08:51+02:00</time>
      </trkpt>
      <trkpt lat="46.16893" lon="4.78577">
        <ele>168.7998</ele>
        <time>2026-05-13T13:08:52+02:00</time>
      </trkpt>
      <trkpt lat="46.16898" lon="4.78573">
        <ele>168.60059</ele>
        <time>2026-05-13T13:08:53+02:00</time>
      </trkpt>
      <trkpt lat="46.16903" lon="4.78569">
        <ele>168.7002</ele>
        <time>2026-05-13T13:08:54+02:00</time>
      </trkpt>
      <trkpt lat="46.16908" lon="4.78565">
        <ele>168.60059</ele>
        <time>2026-05-13T13:08:55+02:00</time>
      </trkpt>
      <trkpt lat="46.16913" lon="4.78562">
        <ele>168.60059</ele>
        <time>2026-05-13T13:08:56+02:00</time>
      </trkpt>
      <trkpt lat="46.16918" lon="4.78558">
        <ele>168.7002</ele>
        <time>2026-05-13T13:08:57+02:00</time>
      </trkpt>
      <trkpt lat="46.16923" lon="4.78554">
        <ele>168.7002</ele>
        <time>2026-05-13T13:08:58+02:00</time>
      </trkpt>
      <trkpt lat="46.16928" lon="4.78551">
        <ele>168.7998</ele>
        <time>2026-05-13T13:08:59+02:00</time>
      </trkpt>
      <trkpt lat="46.16933" lon="4.78547">
        <ele>168.60059</ele>
        <time>2026-05-13T13:09:00+02:00</time>
      </trkpt>
      <trkpt lat="46.16938" lon="4.78543">
        <ele>168.7002</ele>
        <time>2026-05-13T13:09:01+02:00</time>
      </trkpt>
      <trkpt lat="46.16943" lon="4.78539">
        <ele>168.5</ele>
        <time>2026-05-13T13:09:02+02:00</time>
      </trkpt>
      <trkpt lat="46.16948" lon="4.78535">
        <ele>168.5</ele>
        <time>2026-05-13T13:09:03+02:00</time>
      </trkpt>
      <trkpt lat="46.16953" lon="4.78531">
        <ele>168.40039</ele>
        <time>2026-05-13T13:09:04+02:00</time>
      </trkpt>
      <trkpt lat="46.16958" lon="4.78527">
        <ele>168.5</ele>
        <time>2026-05-13T13:09:05+02:00</time>
      </trkpt>
      <trkpt lat="46.16963" lon="4.78523">
        <ele>168.5</ele>
        <time>2026-05-13T13:09:06+02:00</time>
      </trkpt>
      <trkpt lat="46.16968" lon="4.78519">
        <ele>168.60059</ele>
        <time>2026-05-13T13:09:07+02:00</time>
      </trkpt>
      <trkpt lat="46.16972" lon="4.78516">
        <ele>168.60059</ele>
        <time>2026-05-13T13:09:08+02:00</time>
      </trkpt>
      <trkpt lat="46.16977" lon="4.78512">
        <ele>168.5</ele>
        <time>2026-05-13T13:09:09+02:00</time>
      </trkpt>
      <trkpt lat="46.16982" lon="4.78509">
        <ele>168.5</ele>
        <time>2026-05-13T13:09:10+02:00</time>
      </trkpt>
      <trkpt lat="46.16987" lon="4.78506">
        <ele>168.5</ele>
        <time>2026-05-13T13:09:11+02:00</time>
      </trkpt>
      <trkpt lat="46.16993" lon="4.78503">
        <ele>168.5</ele>
        <time>2026-05-13T13:09:12+02:00</time>
      </trkpt>
      <trkpt lat="46.16998" lon="4.78501">
        <ele>168.60059</ele>
        <time>2026-05-13T13:09:13+02:00</time>
      </trkpt>
      <trkpt lat="46.17003" lon="4.78499">
        <ele>168.60059</ele>
        <time>2026-05-13T13:09:14+02:00</time>
      </trkpt>
      <trkpt lat="46.17009" lon="4.78497">
        <ele>168.5</ele>
        <time>2026-05-13T13:09:15+02:00</time>
      </trkpt>
      <trkpt lat="46.17014" lon="4.78495">
        <ele>168.5</ele>
        <time>2026-05-13T13:09:16+02:00</time>
      </trkpt>
      <trkpt lat="46.17019" lon="4.78492">
        <ele>168.5</ele>
        <time>2026-05-13T13:09:17+02:00</time>
      </trkpt>
      <trkpt lat="46.17024" lon="4.78489">
        <ele>168.60059</ele>
        <time>2026-05-13T13:09:18+02:00</time>
      </trkpt>
      <trkpt lat="46.17029" lon="4.78486">
        <ele>168.60059</ele>
        <time>2026-05-13T13:09:19+02:00</time>
      </trkpt>
      <trkpt lat="46.17034" lon="4.78484">
        <ele>168.7998</ele>
        <time>2026-05-13T13:09:20+02:00</time>
      </trkpt>
      <trkpt lat="46.17039" lon="4.78481">
        <ele>169.10059</ele>
        <time>2026-05-13T13:09:21+02:00</time>
      </trkpt>
      <trkpt lat="46.17044" lon="4.78478">
        <ele>168.7998</ele>
        <time>2026-05-13T13:09:22+02:00</time>
      </trkpt>
      <trkpt lat="46.17049" lon="4.78475">
        <ele>168.7998</ele>
        <time>2026-05-13T13:09:23+02:00</time>
      </trkpt>
      <trkpt lat="46.17054" lon="4.78471">
        <ele>168.60059</ele>
        <time>2026-05-13T13:09:24+02:00</time>
      </trkpt>
      <trkpt lat="46.17058" lon="4.78468">
        <ele>168.60059</ele>
        <time>2026-05-13T13:09:25+02:00</time>
      </trkpt>
      <trkpt lat="46.17063" lon="4.78465">
        <ele>168.7002</ele>
        <time>2026-05-13T13:09:26+02:00</time>
      </trkpt>
      <trkpt lat="46.17068" lon="4.78462">
        <ele>168.5</ele>
        <time>2026-05-13T13:09:27+02:00</time>
      </trkpt>
      <trkpt lat="46.17073" lon="4.78459">
        <ele>168.5</ele>
        <time>2026-05-13T13:09:28+02:00</time>
      </trkpt>
      <trkpt lat="46.17078" lon="4.78456">
        <ele>168.5</ele>
        <time>2026-05-13T13:09:29+02:00</time>
      </trkpt>
      <trkpt lat="46.17083" lon="4.78453">
        <ele>168.40039</ele>
        <time>2026-05-13T13:09:30+02:00</time>
      </trkpt>
      <trkpt lat="46.17088" lon="4.7845">
        <ele>168.40039</ele>
        <time>2026-05-13T13:09:31+02:00</time>
      </trkpt>
      <trkpt lat="46.17093" lon="4.78447">
        <ele>168.40039</ele>
        <time>2026-05-13T13:09:32+02:00</time>
      </trkpt>
      <trkpt lat="46.17099" lon="4.78444">
        <ele>168.2998</ele>
        <time>2026-05-13T13:09:33+02:00</time>
      </trkpt>
      <trkpt lat="46.17104" lon="4.78441">
        <ele>168.2998</ele>
        <time>2026-05-13T13:09:34+02:00</time>
      </trkpt>
      <trkpt lat="46.1711" lon="4.78438">
        <ele>168.2998</ele>
        <time>2026-05-13T13:09:35+02:00</time>
      </trkpt>
      <trkpt lat="46.17116" lon="4.78435">
        <ele>168.2002</ele>
        <time>2026-05-13T13:09:36+02:00</time>
      </trkpt>
      <trkpt lat="46.1712" lon="4.78432">
        <ele>168.2002</ele>
        <time>2026-05-13T13:09:37+02:00</time>
      </trkpt>
      <trkpt lat="46.17126" lon="4.78428">
        <ele>168.2002</ele>
        <time>2026-05-13T13:09:38+02:00</time>
      </trkpt>
      <trkpt lat="46.17131" lon="4.78425">
        <ele>168.2002</ele>
        <time>2026-05-13T13:09:39+02:00</time>
      </trkpt>
      <trkpt lat="46.17136" lon="4.78422">
        <ele>168.2002</ele>
        <time>2026-05-13T13:09:40+02:00</time>
      </trkpt>
      <trkpt lat="46.17141" lon="4.78419">
        <ele>168.2002</ele>
        <time>2026-05-13T13:09:41+02:00</time>
      </trkpt>
      <trkpt lat="46.17146" lon="4.78416">
        <ele>168.2002</ele>
        <time>2026-05-13T13:09:42+02:00</time>
      </trkpt>
      <trkpt lat="46.17151" lon="4.78413">
        <ele>168.2002</ele>
        <time>2026-05-13T13:09:43+02:00</time>
      </trkpt>
      <trkpt lat="46.17156" lon="4.78411">
        <ele>168.2002</ele>
        <time>2026-05-13T13:09:44+02:00</time>
      </trkpt>
      <trkpt lat="46.17161" lon="4.78408">
        <ele>168.2002</ele>
        <time>2026-05-13T13:09:45+02:00</time>
      </trkpt>
      <trkpt lat="46.17166" lon="4.78405">
        <ele>168.2002</ele>
        <time>2026-05-13T13:09:46+02:00</time>
      </trkpt>
      <trkpt lat="46.17171" lon="4.78402">
        <ele>168.2002</ele>
        <time>2026-05-13T13:09:47+02:00</time>
      </trkpt>
      <trkpt lat="46.17177" lon="4.78399">
        <ele>168.2998</ele>
        <time>2026-05-13T13:09:48+02:00</time>
      </trkpt>
      <trkpt lat="46.17182" lon="4.78397">
        <ele>168.2998</ele>
        <time>2026-05-13T13:09:49+02:00</time>
      </trkpt>
      <trkpt lat="46.17187" lon="4.78394">
        <ele>168.2998</ele>
        <time>2026-05-13T13:09:50+02:00</time>
      </trkpt>
      <trkpt lat="46.17193" lon="4.78391">
        <ele>168.40039</ele>
        <time>2026-05-13T13:09:51+02:00</time>
      </trkpt>
      <trkpt lat="46.17198" lon="4.78388">
        <ele>168.40039</ele>
        <time>2026-05-13T13:09:52+02:00</time>
      </trkpt>
      <trkpt lat="46.17203" lon="4.78386">
        <ele>168.5</ele>
        <time>2026-05-13T13:09:53+02:00</time>
      </trkpt>
      <trkpt lat="46.17208" lon="4.78383">
        <ele>168.40039</ele>
        <time>2026-05-13T13:09:54+02:00</time>
      </trkpt>
      <trkpt lat="46.17214" lon="4.7838">
        <ele>168.5</ele>
        <time>2026-05-13T13:09:55+02:00</time>
      </trkpt>
      <trkpt lat="46.17219" lon="4.78378">
        <ele>168.60059</ele>
        <time>2026-05-13T13:09:56+02:00</time>
      </trkpt>
      <trkpt lat="46.17224" lon="4.78375">
        <ele>168.60059</ele>
        <time>2026-05-13T13:09:57+02:00</time>
      </trkpt>
      <trkpt lat="46.1723" lon="4.78372">
        <ele>168.7998</ele>
        <time>2026-05-13T13:09:58+02:00</time>
      </trkpt>
      <trkpt lat="46.17236" lon="4.7837">
        <ele>169.10059</ele>
        <time>2026-05-13T13:09:59+02:00</time>
      </trkpt>
      <trkpt lat="46.17241" lon="4.78367">
        <ele>169</ele>
        <time>2026-05-13T13:10:00+02:00</time>
      </trkpt>
      <trkpt lat="46.17247" lon="4.78364">
        <ele>169.2002</ele>
        <time>2026-05-13T13:10:01+02:00</time>
      </trkpt>
      <trkpt lat="46.17253" lon="4.78361">
        <ele>169.2998</ele>
        <time>2026-05-13T13:10:02+02:00</time>
      </trkpt>
      <trkpt lat="46.17259" lon="4.78357">
        <ele>168.7998</ele>
        <time>2026-05-13T13:10:03+02:00</time>
      </trkpt>
      <trkpt lat="46.17264" lon="4.78354">
        <ele>168.90039</ele>
        <time>2026-05-13T13:10:04+02:00</time>
      </trkpt>
      <trkpt lat="46.17269" lon="4.78351">
        <ele>168.60059</ele>
        <time>2026-05-13T13:10:05+02:00</time>
      </trkpt>
      <trkpt lat="46.17275" lon="4.78347">
        <ele>168.7002</ele>
        <time>2026-05-13T13:10:06+02:00</time>
      </trkpt>
      <trkpt lat="46.1728" lon="4.78344">
        <ele>168.7002</ele>
        <time>2026-05-13T13:10:07+02:00</time>
      </trkpt>
      <trkpt lat="46.17285" lon="4.78341">
        <ele>168.5</ele>
        <time>2026-05-13T13:10:08+02:00</time>
      </trkpt>
      <trkpt lat="46.1729" lon="4.78338">
        <ele>168.5</ele>
        <time>2026-05-13T13:10:09+02:00</time>
      </trkpt>
      <trkpt lat="46.17296" lon="4.78335">
        <ele>168.5</ele>
        <time>2026-05-13T13:10:10+02:00</time>
      </trkpt>
      <trkpt lat="46.17301" lon="4.78333">
        <ele>168.40039</ele>
        <time>2026-05-13T13:10:11+02:00</time>
      </trkpt>
      <trkpt lat="46.17307" lon="4.7833">
        <ele>168.5</ele>
        <time>2026-05-13T13:10:12+02:00</time>
      </trkpt>
      <trkpt lat="46.17312" lon="4.78328">
        <ele>168.5</ele>
        <time>2026-05-13T13:10:13+02:00</time>
      </trkpt>
      <trkpt lat="46.17318" lon="4.78325">
        <ele>168.40039</ele>
        <time>2026-05-13T13:10:14+02:00</time>
      </trkpt>
      <trkpt lat="46.17323" lon="4.78323">
        <ele>168.40039</ele>
        <time>2026-05-13T13:10:15+02:00</time>
      </trkpt>
      <trkpt lat="46.17329" lon="4.7832">
        <ele>168.5</ele>
        <time>2026-05-13T13:10:16+02:00</time>
      </trkpt>
      <trkpt lat="46.17334" lon="4.78318">
        <ele>168.5</ele>
        <time>2026-05-13T13:10:17+02:00</time>
      </trkpt>
      <trkpt lat="46.1734" lon="4.78316">
        <ele>168.40039</ele>
        <time>2026-05-13T13:10:18+02:00</time>
      </trkpt>
      <trkpt lat="46.17346" lon="4.78314">
        <ele>168.40039</ele>
        <time>2026-05-13T13:10:19+02:00</time>
      </trkpt>
      <trkpt lat="46.17351" lon="4.78312">
        <ele>168.40039</ele>
        <time>2026-05-13T13:10:20+02:00</time>
      </trkpt>
      <trkpt lat="46.17356" lon="4.78309">
        <ele>168.40039</ele>
        <time>2026-05-13T13:10:21+02:00</time>
      </trkpt>
      <trkpt lat="46.17362" lon="4.78308">
        <ele>168.2998</ele>
        <time>2026-05-13T13:10:22+02:00</time>
      </trkpt>
      <trkpt lat="46.17368" lon="4.78306">
        <ele>168.2998</ele>
        <time>2026-05-13T13:10:23+02:00</time>
      </trkpt>
      <trkpt lat="46.17373" lon="4.78304">
        <ele>168.40039</ele>
        <time>2026-05-13T13:10:24+02:00</time>
      </trkpt>
      <trkpt lat="46.17379" lon="4.78303">
        <ele>168.40039</ele>
        <time>2026-05-13T13:10:25+02:00</time>
      </trkpt>
      <trkpt lat="46.17384" lon="4.78302">
        <ele>168.40039</ele>
        <time>2026-05-13T13:10:26+02:00</time>
      </trkpt>
      <trkpt lat="46.1739" lon="4.783">
        <ele>168.2998</ele>
        <time>2026-05-13T13:10:27+02:00</time>
      </trkpt>
      <trkpt lat="46.17396" lon="4.78299">
        <ele>168.2998</ele>
        <time>2026-05-13T13:10:28+02:00</time>
      </trkpt>
      <trkpt lat="46.17401" lon="4.78297">
        <ele>168.2998</ele>
        <time>2026-05-13T13:10:29+02:00</time>
      </trkpt>
      <trkpt lat="46.17407" lon="4.78296">
        <ele>168.2998</ele>
        <time>2026-05-13T13:10:30+02:00</time>
      </trkpt>
      <trkpt lat="46.17413" lon="4.78295">
        <ele>168.2998</ele>
        <time>2026-05-13T13:10:31+02:00</time>
      </trkpt>
      <trkpt lat="46.17419" lon="4.78293">
        <ele>168.40039</ele>
        <time>2026-05-13T13:10:32+02:00</time>
      </trkpt>
      <trkpt lat="46.17425" lon="4.78292">
        <ele>168.40039</ele>
        <time>2026-05-13T13:10:33+02:00</time>
      </trkpt>
      <trkpt lat="46.1743" lon="4.78291">
        <ele>168.2998</ele>
        <time>2026-05-13T13:10:34+02:00</time>
      </trkpt>
      <trkpt lat="46.17436" lon="4.78289">
        <ele>168.2998</ele>
        <time>2026-05-13T13:10:35+02:00</time>
      </trkpt>
      <trkpt lat="46.17441" lon="4.78288">
        <ele>168.40039</ele>
        <time>2026-05-13T13:10:36+02:00</time>
      </trkpt>
      <trkpt lat="46.17447" lon="4.78287">
        <ele>168.40039</ele>
        <time>2026-05-13T13:10:37+02:00</time>
      </trkpt>
      <trkpt lat="46.17452" lon="4.78285">
        <ele>168.5</ele>
        <time>2026-05-13T13:10:38+02:00</time>
      </trkpt>
      <trkpt lat="46.17458" lon="4.78284">
        <ele>168.60059</ele>
        <time>2026-05-13T13:10:39+02:00</time>
      </trkpt>
      <trkpt lat="46.17463" lon="4.78282">
        <ele>168.5</ele>
        <time>2026-05-13T13:10:40+02:00</time>
      </trkpt>
      <trkpt lat="46.1747" lon="4.78281">
        <ele>168.60059</ele>
        <time>2026-05-13T13:10:41+02:00</time>
      </trkpt>
      <trkpt lat="46.17475" lon="4.78279">
        <ele>168.7002</ele>
        <time>2026-05-13T13:10:42+02:00</time>
      </trkpt>
      <trkpt lat="46.17481" lon="4.78278">
        <ele>168.7002</ele>
        <time>2026-05-13T13:10:43+02:00</time>
      </trkpt>
      <trkpt lat="46.17486" lon="4.78276">
        <ele>168.7002</ele>
        <time>2026-05-13T13:10:44+02:00</time>
      </trkpt>
      <trkpt lat="46.17491" lon="4.78275">
        <ele>168.7002</ele>
        <time>2026-05-13T13:10:45+02:00</time>
      </trkpt>
      <trkpt lat="46.17496" lon="4.78274">
        <ele>168.60059</ele>
        <time>2026-05-13T13:10:46+02:00</time>
      </trkpt>
      <trkpt lat="46.17501" lon="4.78273">
        <ele>168.60059</ele>
        <time>2026-05-13T13:10:47+02:00</time>
      </trkpt>
      <trkpt lat="46.17507" lon="4.78272">
        <ele>168.60059</ele>
        <time>2026-05-13T13:10:48+02:00</time>
      </trkpt>
      <trkpt lat="46.17512" lon="4.78271">
        <ele>168.60059</ele>
        <time>2026-05-13T13:10:49+02:00</time>
      </trkpt>
      <trkpt lat="46.17517" lon="4.78269">
        <ele>168.60059</ele>
        <time>2026-05-13T13:10:50+02:00</time>
      </trkpt>
      <trkpt lat="46.17523" lon="4.78268">
        <ele>168.7002</ele>
        <time>2026-05-13T13:10:51+02:00</time>
      </trkpt>
      <trkpt lat="46.17528" lon="4.78266">
        <ele>168.7002</ele>
        <time>2026-05-13T13:10:52+02:00</time>
      </trkpt>
      <trkpt lat="46.17533" lon="4.78265">
        <ele>168.5</ele>
        <time>2026-05-13T13:10:53+02:00</time>
      </trkpt>
      <trkpt lat="46.17538" lon="4.78264">
        <ele>168.60059</ele>
        <time>2026-05-13T13:10:54+02:00</time>
      </trkpt>
      <trkpt lat="46.17544" lon="4.78262">
        <ele>168.60059</ele>
        <time>2026-05-13T13:10:55+02:00</time>
      </trkpt>
      <trkpt lat="46.17549" lon="4.78261">
        <ele>168.60059</ele>
        <time>2026-05-13T13:10:56+02:00</time>
      </trkpt>
      <trkpt lat="46.17554" lon="4.7826">
        <ele>168.60059</ele>
        <time>2026-05-13T13:10:57+02:00</time>
      </trkpt>
      <trkpt lat="46.1756" lon="4.78258">
        <ele>168.60059</ele>
        <time>2026-05-13T13:10:58+02:00</time>
      </trkpt>
      <trkpt lat="46.17565" lon="4.78257">
        <ele>168.5</ele>
        <time>2026-05-13T13:10:59+02:00</time>
      </trkpt>
      <trkpt lat="46.17571" lon="4.78256">
        <ele>168.5</ele>
        <time>2026-05-13T13:11:00+02:00</time>
      </trkpt>
      <trkpt lat="46.17576" lon="4.78255">
        <ele>168.60059</ele>
        <time>2026-05-13T13:11:01+02:00</time>
      </trkpt>
      <trkpt lat="46.17582" lon="4.78254">
        <ele>168.60059</ele>
        <time>2026-05-13T13:11:02+02:00</time>
      </trkpt>
      <trkpt lat="46.17588" lon="4.78254">
        <ele>168.7002</ele>
        <time>2026-05-13T13:11:03+02:00</time>
      </trkpt>
      <trkpt lat="46.17593" lon="4.78253">
        <ele>168.7002</ele>
        <time>2026-05-13T13:11:04+02:00</time>
      </trkpt>
      <trkpt lat="46.17598" lon="4.78253">
        <ele>168.7998</ele>
        <time>2026-05-13T13:11:05+02:00</time>
      </trkpt>
      <trkpt lat="46.17604" lon="4.78252">
        <ele>168.7998</ele>
        <time>2026-05-13T13:11:06+02:00</time>
      </trkpt>
      <trkpt lat="46.17609" lon="4.78252">
        <ele>168.7998</ele>
        <time>2026-05-13T13:11:07+02:00</time>
      </trkpt>
      <trkpt lat="46.17615" lon="4.78251">
        <ele>168.90039</ele>
        <time>2026-05-13T13:11:08+02:00</time>
      </trkpt>
      <trkpt lat="46.1762" lon="4.7825">
        <ele>168.90039</ele>
        <time>2026-05-13T13:11:09+02:00</time>
      </trkpt>
      <trkpt lat="46.17626" lon="4.78248">
        <ele>168.60059</ele>
        <time>2026-05-13T13:11:10+02:00</time>
      </trkpt>
      <trkpt lat="46.17631" lon="4.78247">
        <ele>168.7002</ele>
        <time>2026-05-13T13:11:11+02:00</time>
      </trkpt>
      <trkpt lat="46.17637" lon="4.78246">
        <ele>168.7002</ele>
        <time>2026-05-13T13:11:12+02:00</time>
      </trkpt>
      <trkpt lat="46.17642" lon="4.78245">
        <ele>168.60059</ele>
        <time>2026-05-13T13:11:13+02:00</time>
      </trkpt>
      <trkpt lat="46.17648" lon="4.78244">
        <ele>168.60059</ele>
        <time>2026-05-13T13:11:14+02:00</time>
      </trkpt>
      <trkpt lat="46.17653" lon="4.78243">
        <ele>168.60059</ele>
        <time>2026-05-13T13:11:15+02:00</time>
      </trkpt>
      <trkpt lat="46.17658" lon="4.78242">
        <ele>168.60059</ele>
        <time>2026-05-13T13:11:16+02:00</time>
      </trkpt>
      <trkpt lat="46.17663" lon="4.78241">
        <ele>168.60059</ele>
        <time>2026-05-13T13:11:17+02:00</time>
      </trkpt>
      <trkpt lat="46.17668" lon="4.78241">
        <ele>168.60059</ele>
        <time>2026-05-13T13:11:18+02:00</time>
      </trkpt>
      <trkpt lat="46.17674" lon="4.7824">
        <ele>168.60059</ele>
        <time>2026-05-13T13:11:19+02:00</time>
      </trkpt>
      <trkpt lat="46.1768" lon="4.78239">
        <ele>168.5</ele>
        <time>2026-05-13T13:11:20+02:00</time>
      </trkpt>
      <trkpt lat="46.17685" lon="4.78238">
        <ele>168.5</ele>
        <time>2026-05-13T13:11:21+02:00</time>
      </trkpt>
      <trkpt lat="46.17691" lon="4.78237">
        <ele>168.5</ele>
        <time>2026-05-13T13:11:22+02:00</time>
      </trkpt>
      <trkpt lat="46.17697" lon="4.78236">
        <ele>168.5</ele>
        <time>2026-05-13T13:11:23+02:00</time>
      </trkpt>
      <trkpt lat="46.17703" lon="4.78235">
        <ele>168.5</ele>
        <time>2026-05-13T13:11:24+02:00</time>
      </trkpt>
      <trkpt lat="46.17709" lon="4.78235">
        <ele>168.5</ele>
        <time>2026-05-13T13:11:25+02:00</time>
      </trkpt>
      <trkpt lat="46.17714" lon="4.78233">
        <ele>168.60059</ele>
        <time>2026-05-13T13:11:26+02:00</time>
      </trkpt>
      <trkpt lat="46.1772" lon="4.78233">
        <ele>168.60059</ele>
        <time>2026-05-13T13:11:27+02:00</time>
      </trkpt>
      <trkpt lat="46.17726" lon="4.78232">
        <ele>168.7002</ele>
        <time>2026-05-13T13:11:28+02:00</time>
      </trkpt>
      <trkpt lat="46.17732" lon="4.78231">
        <ele>168.7002</ele>
        <time>2026-05-13T13:11:29+02:00</time>
      </trkpt>
      <trkpt lat="46.17738" lon="4.7823">
        <ele>168.7002</ele>
        <time>2026-05-13T13:11:30+02:00</time>
      </trkpt>
      <trkpt lat="46.17744" lon="4.78229">
        <ele>168.7998</ele>
        <time>2026-05-13T13:11:31+02:00</time>
      </trkpt>
      <trkpt lat="46.1775" lon="4.78228">
        <ele>168.7002</ele>
        <time>2026-05-13T13:11:32+02:00</time>
      </trkpt>
      <trkpt lat="46.17756" lon="4.78228">
        <ele>168.7002</ele>
        <time>2026-05-13T13:11:33+02:00</time>
      </trkpt>
      <trkpt lat="46.17762" lon="4.78227">
        <ele>168.60059</ele>
        <time>2026-05-13T13:11:34+02:00</time>
      </trkpt>
      <trkpt lat="46.17768" lon="4.78226">
        <ele>168.60059</ele>
        <time>2026-05-13T13:11:35+02:00</time>
      </trkpt>
      <trkpt lat="46.17774" lon="4.78226">
        <ele>168.5</ele>
        <time>2026-05-13T13:11:36+02:00</time>
      </trkpt>
      <trkpt lat="46.1778" lon="4.78226">
        <ele>168.5</ele>
        <time>2026-05-13T13:11:37+02:00</time>
      </trkpt>
      <trkpt lat="46.17786" lon="4.78225">
        <ele>168.40039</ele>
        <time>2026-05-13T13:11:38+02:00</time>
      </trkpt>
      <trkpt lat="46.17792" lon="4.78225">
        <ele>168.40039</ele>
        <time>2026-05-13T13:11:39+02:00</time>
      </trkpt>
      <trkpt lat="46.17799" lon="4.78225">
        <ele>168.2998</ele>
        <time>2026-05-13T13:11:40+02:00</time>
      </trkpt>
      <trkpt lat="46.17805" lon="4.78225">
        <ele>168.2998</ele>
        <time>2026-05-13T13:11:41+02:00</time>
      </trkpt>
      <trkpt lat="46.17811" lon="4.78225">
        <ele>168.2998</ele>
        <time>2026-05-13T13:11:42+02:00</time>
      </trkpt>
      <trkpt lat="46.17817" lon="4.78225">
        <ele>168.2998</ele>
        <time>2026-05-13T13:11:43+02:00</time>
      </trkpt>
      <trkpt lat="46.17824" lon="4.78224">
        <ele>168.2998</ele>
        <time>2026-05-13T13:11:44+02:00</time>
      </trkpt>
      <trkpt lat="46.1783" lon="4.78224">
        <ele>168.2998</ele>
        <time>2026-05-13T13:11:45+02:00</time>
      </trkpt>
      <trkpt lat="46.17836" lon="4.78224">
        <ele>168.2998</ele>
        <time>2026-05-13T13:11:46+02:00</time>
      </trkpt>
      <trkpt lat="46.17842" lon="4.78224">
        <ele>168.2998</ele>
        <time>2026-05-13T13:11:47+02:00</time>
      </trkpt>
      <trkpt lat="46.17848" lon="4.78223">
        <ele>168.2998</ele>
        <time>2026-05-13T13:11:48+02:00</time>
      </trkpt>
      <trkpt lat="46.17854" lon="4.78223">
        <ele>168.2998</ele>
        <time>2026-05-13T13:11:49+02:00</time>
      </trkpt>
      <trkpt lat="46.1786" lon="4.78223">
        <ele>168.40039</ele>
        <time>2026-05-13T13:11:50+02:00</time>
      </trkpt>
      <trkpt lat="46.17866" lon="4.78222">
        <ele>168.2998</ele>
        <time>2026-05-13T13:11:51+02:00</time>
      </trkpt>
      <trkpt lat="46.17872" lon="4.78222">
        <ele>168.40039</ele>
        <time>2026-05-13T13:11:52+02:00</time>
      </trkpt>
      <trkpt lat="46.17878" lon="4.78221">
        <ele>168.40039</ele>
        <time>2026-05-13T13:11:53+02:00</time>
      </trkpt>
      <trkpt lat="46.17883" lon="4.78221">
        <ele>168.40039</ele>
        <time>2026-05-13T13:11:54+02:00</time>
      </trkpt>
      <trkpt lat="46.17888" lon="4.7822">
        <ele>168.40039</ele>
        <time>2026-05-13T13:11:55+02:00</time>
      </trkpt>
      <trkpt lat="46.17894" lon="4.7822">
        <ele>168.40039</ele>
        <time>2026-05-13T13:11:56+02:00</time>
      </trkpt>
      <trkpt lat="46.179" lon="4.78219">
        <ele>168.40039</ele>
        <time>2026-05-13T13:11:57+02:00</time>
      </trkpt>
      <trkpt lat="46.17906" lon="4.78219">
        <ele>168.2998</ele>
        <time>2026-05-13T13:11:58+02:00</time>
      </trkpt>
      <trkpt lat="46.17911" lon="4.78218">
        <ele>168.2998</ele>
        <time>2026-05-13T13:11:59+02:00</time>
      </trkpt>
      <trkpt lat="46.17917" lon="4.78217">
        <ele>168.2998</ele>
        <time>2026-05-13T13:12:00+02:00</time>
      </trkpt>
      <trkpt lat="46.17922" lon="4.78217">
        <ele>168.2998</ele>
        <time>2026-05-13T13:12:01+02:00</time>
      </trkpt>
      <trkpt lat="46.17927" lon="4.78216">
        <ele>168.2998</ele>
        <time>2026-05-13T13:12:02+02:00</time>
      </trkpt>
      <trkpt lat="46.17932" lon="4.78215">
        <ele>168.2998</ele>
        <time>2026-05-13T13:12:03+02:00</time>
      </trkpt>
      <trkpt lat="46.17937" lon="4.78215">
        <ele>168.2998</ele>
        <time>2026-05-13T13:12:04+02:00</time>
      </trkpt>
      <trkpt lat="46.17942" lon="4.78215">
        <ele>168.2002</ele>
        <time>2026-05-13T13:12:05+02:00</time>
      </trkpt>
      <trkpt lat="46.17948" lon="4.78214">
        <ele>168.2002</ele>
        <time>2026-05-13T13:12:06+02:00</time>
      </trkpt>
      <trkpt lat="46.17953" lon="4.78214">
        <ele>168.2002</ele>
        <time>2026-05-13T13:12:07+02:00</time>
      </trkpt>
      <trkpt lat="46.17959" lon="4.78214">
        <ele>168.2002</ele>
        <time>2026-05-13T13:12:08+02:00</time>
      </trkpt>
      <trkpt lat="46.17964" lon="4.78213">
        <ele>168.2002</ele>
        <time>2026-05-13T13:12:09+02:00</time>
      </trkpt>
      <trkpt lat="46.17969" lon="4.78213">
        <ele>168.2002</ele>
        <time>2026-05-13T13:12:10+02:00</time>
      </trkpt>
      <trkpt lat="46.17975" lon="4.78212">
        <ele>168.2998</ele>
        <time>2026-05-13T13:12:11+02:00</time>
      </trkpt>
      <trkpt lat="46.1798" lon="4.78212">
        <ele>168.5</ele>
        <time>2026-05-13T13:12:12+02:00</time>
      </trkpt>
      <trkpt lat="46.17986" lon="4.78212">
        <ele>168.7002</ele>
        <time>2026-05-13T13:12:13+02:00</time>
      </trkpt>
      <trkpt lat="46.17992" lon="4.78212">
        <ele>168.7002</ele>
        <time>2026-05-13T13:12:14+02:00</time>
      </trkpt>
      <trkpt lat="46.17997" lon="4.78211">
        <ele>168.7002</ele>
        <time>2026-05-13T13:12:15+02:00</time>
      </trkpt>
      <trkpt lat="46.18003" lon="4.78211">
        <ele>168.7998</ele>
        <time>2026-05-13T13:12:16+02:00</time>
      </trkpt>
      <trkpt lat="46.18009" lon="4.78211">
        <ele>168.7998</ele>
        <time>2026-05-13T13:12:17+02:00</time>
      </trkpt>
      <trkpt lat="46.18015" lon="4.78211">
        <ele>168.7998</ele>
        <time>2026-05-13T13:12:18+02:00</time>
      </trkpt>
      <trkpt lat="46.1802" lon="4.7821">
        <ele>168.90039</ele>
        <time>2026-05-13T13:12:19+02:00</time>
      </trkpt>
      <trkpt lat="46.18026" lon="4.7821">
        <ele>168.90039</ele>
        <time>2026-05-13T13:12:20+02:00</time>
      </trkpt>
      <trkpt lat="46.18032" lon="4.7821">
        <ele>168.90039</ele>
        <time>2026-05-13T13:12:21+02:00</time>
      </trkpt>
      <trkpt lat="46.18038" lon="4.7821">
        <ele>169</ele>
        <time>2026-05-13T13:12:22+02:00</time>
      </trkpt>
      <trkpt lat="46.18044" lon="4.7821">
        <ele>169</ele>
        <time>2026-05-13T13:12:23+02:00</time>
      </trkpt>
      <trkpt lat="46.18049" lon="4.7821">
        <ele>169.10059</ele>
        <time>2026-05-13T13:12:24+02:00</time>
      </trkpt>
      <trkpt lat="46.18055" lon="4.7821">
        <ele>169.10059</ele>
        <time>2026-05-13T13:12:25+02:00</time>
      </trkpt>
      <trkpt lat="46.1806" lon="4.7821">
        <ele>169.10059</ele>
        <time>2026-05-13T13:12:26+02:00</time>
      </trkpt>
      <trkpt lat="46.18066" lon="4.7821">
        <ele>169.10059</ele>
        <time>2026-05-13T13:12:27+02:00</time>
      </trkpt>
      <trkpt lat="46.18071" lon="4.78209">
        <ele>169.2002</ele>
        <time>2026-05-13T13:12:28+02:00</time>
      </trkpt>
      <trkpt lat="46.18077" lon="4.7821">
        <ele>169.2002</ele>
        <time>2026-05-13T13:12:29+02:00</time>
      </trkpt>
      <trkpt lat="46.18083" lon="4.78209">
        <ele>169.2002</ele>
        <time>2026-05-13T13:12:30+02:00</time>
      </trkpt>
      <trkpt lat="46.18088" lon="4.78209">
        <ele>169.2002</ele>
        <time>2026-05-13T13:12:31+02:00</time>
      </trkpt>
      <trkpt lat="46.18094" lon="4.78209">
        <ele>169.2002</ele>
        <time>2026-05-13T13:12:32+02:00</time>
      </trkpt>
      <trkpt lat="46.18099" lon="4.78209">
        <ele>169.2002</ele>
        <time>2026-05-13T13:12:33+02:00</time>
      </trkpt>
      <trkpt lat="46.18104" lon="4.78208">
        <ele>169.2002</ele>
        <time>2026-05-13T13:12:34+02:00</time>
      </trkpt>
      <trkpt lat="46.18109" lon="4.78208">
        <ele>169.2002</ele>
        <time>2026-05-13T13:12:35+02:00</time>
      </trkpt>
      <trkpt lat="46.18115" lon="4.78207">
        <ele>169.2002</ele>
        <time>2026-05-13T13:12:36+02:00</time>
      </trkpt>
      <trkpt lat="46.1812" lon="4.78207">
        <ele>169.10059</ele>
        <time>2026-05-13T13:12:37+02:00</time>
      </trkpt>
      <trkpt lat="46.18125" lon="4.78207">
        <ele>169.10059</ele>
        <time>2026-05-13T13:12:38+02:00</time>
      </trkpt>
      <trkpt lat="46.1813" lon="4.78207">
        <ele>169.10059</ele>
        <time>2026-05-13T13:12:39+02:00</time>
      </trkpt>
      <trkpt lat="46.18135" lon="4.78207">
        <ele>169</ele>
        <time>2026-05-13T13:12:40+02:00</time>
      </trkpt>
      <trkpt lat="46.18141" lon="4.78207">
        <ele>169</ele>
        <time>2026-05-13T13:12:41+02:00</time>
      </trkpt>
      <trkpt lat="46.18146" lon="4.78206">
        <ele>168.90039</ele>
        <time>2026-05-13T13:12:42+02:00</time>
      </trkpt>
      <trkpt lat="46.18152" lon="4.78206">
        <ele>168.7002</ele>
        <time>2026-05-13T13:12:43+02:00</time>
      </trkpt>
      <trkpt lat="46.18157" lon="4.78206">
        <ele>168.60059</ele>
        <time>2026-05-13T13:12:44+02:00</time>
      </trkpt>
      <trkpt lat="46.18162" lon="4.78206">
        <ele>168.5</ele>
        <time>2026-05-13T13:12:45+02:00</time>
      </trkpt>
      <trkpt lat="46.18168" lon="4.78206">
        <ele>168.40039</ele>
        <time>2026-05-13T13:12:46+02:00</time>
      </trkpt>
      <trkpt lat="46.18174" lon="4.78205">
        <ele>168.2002</ele>
        <time>2026-05-13T13:12:47+02:00</time>
      </trkpt>
      <trkpt lat="46.18179" lon="4.78205">
        <ele>168.2002</ele>
        <time>2026-05-13T13:12:48+02:00</time>
      </trkpt>
      <trkpt lat="46.18185" lon="4.78205">
        <ele>168.2002</ele>
        <time>2026-05-13T13:12:49+02:00</time>
      </trkpt>
      <trkpt lat="46.1819" lon="4.78205">
        <ele>168.2002</ele>
        <time>2026-05-13T13:12:50+02:00</time>
      </trkpt>
      <trkpt lat="46.18195" lon="4.78205">
        <ele>168.2002</ele>
        <time>2026-05-13T13:12:51+02:00</time>
      </trkpt>
      <trkpt lat="46.18201" lon="4.78205">
        <ele>168.2998</ele>
        <time>2026-05-13T13:12:52+02:00</time>
      </trkpt>
      <trkpt lat="46.18206" lon="4.78204">
        <ele>168.2998</ele>
        <time>2026-05-13T13:12:53+02:00</time>
      </trkpt>
      <trkpt lat="46.18212" lon="4.78203">
        <ele>168.2998</ele>
        <time>2026-05-13T13:12:54+02:00</time>
      </trkpt>
      <trkpt lat="46.18217" lon="4.78203">
        <ele>168.2998</ele>
        <time>2026-05-13T13:12:55+02:00</time>
      </trkpt>
      <trkpt lat="46.18223" lon="4.78202">
        <ele>168.2998</ele>
        <time>2026-05-13T13:12:56+02:00</time>
      </trkpt>
      <trkpt lat="46.18228" lon="4.78202">
        <ele>168.2998</ele>
        <time>2026-05-13T13:12:57+02:00</time>
      </trkpt>
      <trkpt lat="46.18233" lon="4.78202">
        <ele>168.2998</ele>
        <time>2026-05-13T13:12:58+02:00</time>
      </trkpt>
      <trkpt lat="46.18239" lon="4.78202">
        <ele>168.40039</ele>
        <time>2026-05-13T13:12:59+02:00</time>
      </trkpt>
      <trkpt lat="46.18244" lon="4.78201">
        <ele>168.40039</ele>
        <time>2026-05-13T13:13:00+02:00</time>
      </trkpt>
      <trkpt lat="46.1825" lon="4.78201">
        <ele>168.40039</ele>
        <time>2026-05-13T13:13:01+02:00</time>
      </trkpt>
      <trkpt lat="46.18255" lon="4.78201">
        <ele>168.40039</ele>
        <time>2026-05-13T13:13:02+02:00</time>
      </trkpt>
      <trkpt lat="46.18261" lon="4.78201">
        <ele>168.40039</ele>
        <time>2026-05-13T13:13:03+02:00</time>
      </trkpt>
      <trkpt lat="46.18265" lon="4.782">
        <ele>168.40039</ele>
        <time>2026-05-13T13:13:04+02:00</time>
      </trkpt>
      <trkpt lat="46.18271" lon="4.782">
        <ele>168.40039</ele>
        <time>2026-05-13T13:13:05+02:00</time>
      </trkpt>
      <trkpt lat="46.18276" lon="4.78199">
        <ele>168.40039</ele>
        <time>2026-05-13T13:13:06+02:00</time>
      </trkpt>
      <trkpt lat="46.18281" lon="4.78199">
        <ele>168.5</ele>
        <time>2026-05-13T13:13:07+02:00</time>
      </trkpt>
      <trkpt lat="46.18287" lon="4.78199">
        <ele>168.5</ele>
        <time>2026-05-13T13:13:08+02:00</time>
      </trkpt>
      <trkpt lat="46.18292" lon="4.78198">
        <ele>168.5</ele>
        <time>2026-05-13T13:13:09+02:00</time>
      </trkpt>
      <trkpt lat="46.18298" lon="4.78198">
        <ele>168.5</ele>
        <time>2026-05-13T13:13:10+02:00</time>
      </trkpt>
      <trkpt lat="46.18303" lon="4.78198">
        <ele>168.5</ele>
        <time>2026-05-13T13:13:11+02:00</time>
      </trkpt>
      <trkpt lat="46.18309" lon="4.78198">
        <ele>168.5</ele>
        <time>2026-05-13T13:13:12+02:00</time>
      </trkpt>
      <trkpt lat="46.18315" lon="4.78198">
        <ele>168.5</ele>
        <time>2026-05-13T13:13:13+02:00</time>
      </trkpt>
      <trkpt lat="46.18321" lon="4.78198">
        <ele>168.5</ele>
        <time>2026-05-13T13:13:14+02:00</time>
      </trkpt>
      <trkpt lat="46.18326" lon="4.78198">
        <ele>168.5</ele>
        <time>2026-05-13T13:13:15+02:00</time>
      </trkpt>
      <trkpt lat="46.18332" lon="4.78198">
        <ele>168.60059</ele>
        <time>2026-05-13T13:13:16+02:00</time>
      </trkpt>
      <trkpt lat="46.18338" lon="4.78198">
        <ele>168.60059</ele>
        <time>2026-05-13T13:13:17+02:00</time>
      </trkpt>
      <trkpt lat="46.18343" lon="4.78197">
        <ele>168.2998</ele>
        <time>2026-05-13T13:13:18+02:00</time>
      </trkpt>
      <trkpt lat="46.18348" lon="4.78197">
        <ele>168.2998</ele>
        <time>2026-05-13T13:13:19+02:00</time>
      </trkpt>
      <trkpt lat="46.18354" lon="4.78197">
        <ele>168.40039</ele>
        <time>2026-05-13T13:13:20+02:00</time>
      </trkpt>
      <trkpt lat="46.1836" lon="4.78197">
        <ele>168.40039</ele>
        <time>2026-05-13T13:13:21+02:00</time>
      </trkpt>
      <trkpt lat="46.18366" lon="4.78197">
        <ele>168.40039</ele>
        <time>2026-05-13T13:13:22+02:00</time>
      </trkpt>
      <trkpt lat="46.18372" lon="4.78197">
        <ele>168.40039</ele>
        <time>2026-05-13T13:13:23+02:00</time>
      </trkpt>
      <trkpt lat="46.18377" lon="4.78196">
        <ele>168.40039</ele>
        <time>2026-05-13T13:13:24+02:00</time>
      </trkpt>
      <trkpt lat="46.18384" lon="4.78196">
        <ele>168.5</ele>
        <time>2026-05-13T13:13:25+02:00</time>
      </trkpt>
      <trkpt lat="46.18389" lon="4.78196">
        <ele>168.5</ele>
        <time>2026-05-13T13:13:26+02:00</time>
      </trkpt>
      <trkpt lat="46.18395" lon="4.78195">
        <ele>168.60059</ele>
        <time>2026-05-13T13:13:27+02:00</time>
      </trkpt>
      <trkpt lat="46.18401" lon="4.78194">
        <ele>168.7002</ele>
        <time>2026-05-13T13:13:28+02:00</time>
      </trkpt>
      <trkpt lat="46.18406" lon="4.78194">
        <ele>168.90039</ele>
        <time>2026-05-13T13:13:29+02:00</time>
      </trkpt>
      <trkpt lat="46.18413" lon="4.78193">
        <ele>169</ele>
        <time>2026-05-13T13:13:30+02:00</time>
      </trkpt>
      <trkpt lat="46.18418" lon="4.78193">
        <ele>169.10059</ele>
        <time>2026-05-13T13:13:31+02:00</time>
      </trkpt>
      <trkpt lat="46.18424" lon="4.78192">
        <ele>169.2002</ele>
        <time>2026-05-13T13:13:32+02:00</time>
      </trkpt>
      <trkpt lat="46.18429" lon="4.78192">
        <ele>169.2002</ele>
        <time>2026-05-13T13:13:33+02:00</time>
      </trkpt>
      <trkpt lat="46.18435" lon="4.78192">
        <ele>169.2998</ele>
        <time>2026-05-13T13:13:34+02:00</time>
      </trkpt>
      <trkpt lat="46.1844" lon="4.78192">
        <ele>169.2998</ele>
        <time>2026-05-13T13:13:35+02:00</time>
      </trkpt>
      <trkpt lat="46.18446" lon="4.78193">
        <ele>169.2998</ele>
        <time>2026-05-13T13:13:36+02:00</time>
      </trkpt>
      <trkpt lat="46.18452" lon="4.78193">
        <ele>169.2998</ele>
        <time>2026-05-13T13:13:37+02:00</time>
      </trkpt>
      <trkpt lat="46.18458" lon="4.78192">
        <ele>169.40039</ele>
        <time>2026-05-13T13:13:38+02:00</time>
      </trkpt>
      <trkpt lat="46.18463" lon="4.78192">
        <ele>169.40039</ele>
        <time>2026-05-13T13:13:39+02:00</time>
      </trkpt>
      <trkpt lat="46.18468" lon="4.78191">
        <ele>169.40039</ele>
        <time>2026-05-13T13:13:40+02:00</time>
      </trkpt>
      <trkpt lat="46.18474" lon="4.7819">
        <ele>169.40039</ele>
        <time>2026-05-13T13:13:41+02:00</time>
      </trkpt>
      <trkpt lat="46.1848" lon="4.78189">
        <ele>169.40039</ele>
        <time>2026-05-13T13:13:42+02:00</time>
      </trkpt>
      <trkpt lat="46.18486" lon="4.78189">
        <ele>169.40039</ele>
        <time>2026-05-13T13:13:43+02:00</time>
      </trkpt>
      <trkpt lat="46.18492" lon="4.78188">
        <ele>169</ele>
        <time>2026-05-13T13:13:44+02:00</time>
      </trkpt>
      <trkpt lat="46.18498" lon="4.78187">
        <ele>169</ele>
        <time>2026-05-13T13:13:45+02:00</time>
      </trkpt>
      <trkpt lat="46.18504" lon="4.78186">
        <ele>169</ele>
        <time>2026-05-13T13:13:46+02:00</time>
      </trkpt>
      <trkpt lat="46.18509" lon="4.78185">
        <ele>169</ele>
        <time>2026-05-13T13:13:47+02:00</time>
      </trkpt>
      <trkpt lat="46.18515" lon="4.78184">
        <ele>168.90039</ele>
        <time>2026-05-13T13:13:48+02:00</time>
      </trkpt>
      <trkpt lat="46.1852" lon="4.78184">
        <ele>169</ele>
        <time>2026-05-13T13:13:49+02:00</time>
      </trkpt>
      <trkpt lat="46.18527" lon="4.78183">
        <ele>169.2002</ele>
        <time>2026-05-13T13:13:50+02:00</time>
      </trkpt>
      <trkpt lat="46.18532" lon="4.78182">
        <ele>169.60059</ele>
        <time>2026-05-13T13:13:51+02:00</time>
      </trkpt>
      <trkpt lat="46.18538" lon="4.78181">
        <ele>170.5</ele>
        <time>2026-05-13T13:13:52+02:00</time>
      </trkpt>
      <trkpt lat="46.18544" lon="4.7818">
        <ele>171.60059</ele>
        <time>2026-05-13T13:13:53+02:00</time>
      </trkpt>
      <trkpt lat="46.1855" lon="4.78179">
        <ele>171</ele>
        <time>2026-05-13T13:13:54+02:00</time>
      </trkpt>
      <trkpt lat="46.18556" lon="4.78178">
        <ele>171.2998</ele>
        <time>2026-05-13T13:13:55+02:00</time>
      </trkpt>
      <trkpt lat="46.18562" lon="4.78178">
        <ele>171.40039</ele>
        <time>2026-05-13T13:13:56+02:00</time>
      </trkpt>
      <trkpt lat="46.18568" lon="4.78177">
        <ele>171.60059</ele>
        <time>2026-05-13T13:13:57+02:00</time>
      </trkpt>
      <trkpt lat="46.18574" lon="4.78176">
        <ele>171.7002</ele>
        <time>2026-05-13T13:13:58+02:00</time>
      </trkpt>
      <trkpt lat="46.1858" lon="4.78176">
        <ele>171.7002</ele>
        <time>2026-05-13T13:13:59+02:00</time>
      </trkpt>
      <trkpt lat="46.18586" lon="4.78175">
        <ele>171.7998</ele>
        <time>2026-05-13T13:14:00+02:00</time>
      </trkpt>
      <trkpt lat="46.18593" lon="4.78174">
        <ele>171.7998</ele>
        <time>2026-05-13T13:14:01+02:00</time>
      </trkpt>
      <trkpt lat="46.18599" lon="4.78173">
        <ele>171.90039</ele>
        <time>2026-05-13T13:14:02+02:00</time>
      </trkpt>
      <trkpt lat="46.18604" lon="4.78172">
        <ele>171.7998</ele>
        <time>2026-05-13T13:14:03+02:00</time>
      </trkpt>
      <trkpt lat="46.1861" lon="4.78171">
        <ele>170.60059</ele>
        <time>2026-05-13T13:14:04+02:00</time>
      </trkpt>
      <trkpt lat="46.18615" lon="4.7817">
        <ele>170.60059</ele>
        <time>2026-05-13T13:14:05+02:00</time>
      </trkpt>
      <trkpt lat="46.18621" lon="4.78168">
        <ele>170.5</ele>
        <time>2026-05-13T13:14:06+02:00</time>
      </trkpt>
      <trkpt lat="46.18626" lon="4.78168">
        <ele>170.5</ele>
        <time>2026-05-13T13:14:07+02:00</time>
      </trkpt>
      <trkpt lat="46.18631" lon="4.78167">
        <ele>170.40039</ele>
        <time>2026-05-13T13:14:08+02:00</time>
      </trkpt>
      <trkpt lat="46.18637" lon="4.78166">
        <ele>170.2998</ele>
        <time>2026-05-13T13:14:09+02:00</time>
      </trkpt>
      <trkpt lat="46.18642" lon="4.78165">
        <ele>170.2998</ele>
        <time>2026-05-13T13:14:10+02:00</time>
      </trkpt>
      <trkpt lat="46.18648" lon="4.78164">
        <ele>170.2002</ele>
        <time>2026-05-13T13:14:11+02:00</time>
      </trkpt>
      <trkpt lat="46.18653" lon="4.78163">
        <ele>170.10059</ele>
        <time>2026-05-13T13:14:12+02:00</time>
      </trkpt>
      <trkpt lat="46.18659" lon="4.78163">
        <ele>170</ele>
        <time>2026-05-13T13:14:13+02:00</time>
      </trkpt>
      <trkpt lat="46.18664" lon="4.78162">
        <ele>169.40039</ele>
        <time>2026-05-13T13:14:14+02:00</time>
      </trkpt>
      <trkpt lat="46.1867" lon="4.78162">
        <ele>169.5</ele>
        <time>2026-05-13T13:14:15+02:00</time>
      </trkpt>
      <trkpt lat="46.18675" lon="4.78161">
        <ele>169.5</ele>
        <time>2026-05-13T13:14:16+02:00</time>
      </trkpt>
      <trkpt lat="46.18681" lon="4.78161">
        <ele>169.60059</ele>
        <time>2026-05-13T13:14:17+02:00</time>
      </trkpt>
      <trkpt lat="46.18686" lon="4.78161">
        <ele>169.7002</ele>
        <time>2026-05-13T13:14:18+02:00</time>
      </trkpt>
      <trkpt lat="46.18692" lon="4.7816">
        <ele>169.7998</ele>
        <time>2026-05-13T13:14:19+02:00</time>
      </trkpt>
      <trkpt lat="46.18697" lon="4.78159">
        <ele>169.7998</ele>
        <time>2026-05-13T13:14:20+02:00</time>
      </trkpt>
      <trkpt lat="46.18702" lon="4.78159">
        <ele>169.7998</ele>
        <time>2026-05-13T13:14:21+02:00</time>
      </trkpt>
      <trkpt lat="46.18707" lon="4.78158">
        <ele>169.90039</ele>
        <time>2026-05-13T13:14:22+02:00</time>
      </trkpt>
      <trkpt lat="46.18712" lon="4.78158">
        <ele>170</ele>
        <time>2026-05-13T13:14:23+02:00</time>
      </trkpt>
      <trkpt lat="46.18718" lon="4.78157">
        <ele>170.10059</ele>
        <time>2026-05-13T13:14:24+02:00</time>
      </trkpt>
      <trkpt lat="46.18722" lon="4.78156">
        <ele>170.10059</ele>
        <time>2026-05-13T13:14:25+02:00</time>
      </trkpt>
      <trkpt lat="46.18727" lon="4.78156">
        <ele>170.2002</ele>
        <time>2026-05-13T13:14:26+02:00</time>
      </trkpt>
      <trkpt lat="46.18732" lon="4.78155">
        <ele>170.2002</ele>
        <time>2026-05-13T13:14:27+02:00</time>
      </trkpt>
      <trkpt lat="46.18736" lon="4.78155">
        <ele>170.2002</ele>
        <time>2026-05-13T13:14:28+02:00</time>
      </trkpt>
      <trkpt lat="46.18741" lon="4.78154">
        <ele>169.5</ele>
        <time>2026-05-13T13:14:29+02:00</time>
      </trkpt>
      <trkpt lat="46.18746" lon="4.78154">
        <ele>169.5</ele>
        <time>2026-05-13T13:14:30+02:00</time>
      </trkpt>
      <trkpt lat="46.18751" lon="4.78152">
        <ele>169.5</ele>
        <time>2026-05-13T13:14:31+02:00</time>
      </trkpt>
      <trkpt lat="46.18755" lon="4.7815">
        <ele>169.5</ele>
        <time>2026-05-13T13:14:32+02:00</time>
      </trkpt>
      <trkpt lat="46.18767" lon="4.78144">
        <ele>168.90039</ele>
        <time>2026-05-13T13:14:33+02:00</time>
      </trkpt>
      <trkpt lat="46.18769" lon="4.78144">
        <ele>168.7998</ele>
        <time>2026-05-13T13:14:34+02:00</time>
      </trkpt>
      <trkpt lat="46.18772" lon="4.78144">
        <ele>168.7998</ele>
        <time>2026-05-13T13:14:35+02:00</time>
      </trkpt>
      <trkpt lat="46.18773" lon="4.78144">
        <ele>168.7998</ele>
        <time>2026-05-13T13:14:36+02:00</time>
      </trkpt>
      <trkpt lat="46.18775" lon="4.78144">
        <ele>168.7998</ele>
        <time>2026-05-13T13:14:37+02:00</time>
      </trkpt>
      <trkpt lat="46.18776" lon="4.78143">
        <ele>168.7998</ele>
        <time>2026-05-13T13:14:38+02:00</time>
      </trkpt>
      <trkpt lat="46.18777" lon="4.78143">
        <ele>168.7998</ele>
        <time>2026-05-13T13:14:39+02:00</time>
      </trkpt>
      <trkpt lat="46.18777" lon="4.78143">
        <ele>168.7998</ele>
        <time>2026-05-13T13:14:40+02:00</time>
      </trkpt>
      <trkpt lat="46.18791" lon="4.78129">
        <ele>168.5</ele>
        <time>2026-05-13T13:15:28+02:00</time>
      </trkpt>
      <trkpt lat="46.18793" lon="4.78127">
        <ele>168.2998</ele>
        <time>2026-05-13T13:15:29+02:00</time>
      </trkpt>
      <trkpt lat="46.18796" lon="4.78125">
        <ele>168.2998</ele>
        <time>2026-05-13T13:15:30+02:00</time>
      </trkpt>
      <trkpt lat="46.18799" lon="4.78124">
        <ele>168.2998</ele>
        <time>2026-05-13T13:15:31+02:00</time>
      </trkpt>
      <trkpt lat="46.18801" lon="4.78122">
        <ele>168.2998</ele>
        <time>2026-05-13T13:15:32+02:00</time>
      </trkpt>
      <trkpt lat="46.18804" lon="4.78121">
        <ele>168.2998</ele>
        <time>2026-05-13T13:15:33+02:00</time>
      </trkpt>
      <trkpt lat="46.18807" lon="4.78119">
        <ele>168.2002</ele>
        <time>2026-05-13T13:15:34+02:00</time>
      </trkpt>
      <trkpt lat="46.18811" lon="4.78118">
        <ele>168.2002</ele>
        <time>2026-05-13T13:15:35+02:00</time>
      </trkpt>
      <trkpt lat="46.18814" lon="4.78117">
        <ele>168.2002</ele>
        <time>2026-05-13T13:15:36+02:00</time>
      </trkpt>
      <trkpt lat="46.18817" lon="4.78116">
        <ele>168.2002</ele>
        <time>2026-05-13T13:15:37+02:00</time>
      </trkpt>
      <trkpt lat="46.1882" lon="4.78115">
        <ele>168.2002</ele>
        <time>2026-05-13T13:15:38+02:00</time>
      </trkpt>
      <trkpt lat="46.18823" lon="4.78115">
        <ele>168.2002</ele>
        <time>2026-05-13T13:15:39+02:00</time>
      </trkpt>
      <trkpt lat="46.18825" lon="4.78115">
        <ele>168.2002</ele>
        <time>2026-05-13T13:15:40+02:00</time>
      </trkpt>
      <trkpt lat="46.18827" lon="4.78116">
        <ele>168.2002</ele>
        <time>2026-05-13T13:15:41+02:00</time>
      </trkpt>
      <trkpt lat="46.18829" lon="4.78117">
        <ele>168.2002</ele>
        <time>2026-05-13T13:15:42+02:00</time>
      </trkpt>
      <trkpt lat="46.18831" lon="4.78118">
        <ele>168.2002</ele>
        <time>2026-05-13T13:15:43+02:00</time>
      </trkpt>
      <trkpt lat="46.18832" lon="4.78119">
        <ele>168.2002</ele>
        <time>2026-05-13T13:15:44+02:00</time>
      </trkpt>
      <trkpt lat="46.18833" lon="4.7812">
        <ele>168.2002</ele>
        <time>2026-05-13T13:15:45+02:00</time>
      </trkpt>
      <trkpt lat="46.18834" lon="4.78121">
        <ele>168.2002</ele>
        <time>2026-05-13T13:15:46+02:00</time>
      </trkpt>
      <trkpt lat="46.18834" lon="4.78121">
        <ele>168.2002</ele>
        <time>2026-05-13T13:15:47+02:00</time>
      </trkpt>
      <trkpt lat="46.18834" lon="4.78121">
        <ele>168.2002</ele>
        <time>2026-05-13T13:15:48+02:00</time>
      </trkpt>
      <trkpt lat="46.18834" lon="4.78121">
        <ele>168.2002</ele>
        <time>2026-05-13T13:15:49+02:00</time>
      </trkpt>
      <trkpt lat="46.1882" lon="4.78116">
        <ele>168.2002</ele>
        <time>2026-05-13T13:16:01+02:00</time>
      </trkpt>
      <trkpt lat="46.18817" lon="4.78117">
        <ele>168.2002</ele>
        <time>2026-05-13T13:16:02+02:00</time>
      </trkpt>
      <trkpt lat="46.18815" lon="4.78118">
        <ele>168.2002</ele>
        <time>2026-05-13T13:16:03+02:00</time>
      </trkpt>
      <trkpt lat="46.18812" lon="4.78119">
        <ele>168.2002</ele>
        <time>2026-05-13T13:16:04+02:00</time>
      </trkpt>
      <trkpt lat="46.18809" lon="4.78119">
        <ele>168.2002</ele>
        <time>2026-05-13T13:16:05+02:00</time>
      </trkpt>
      <trkpt lat="46.18806" lon="4.7812">
        <ele>168.2998</ele>
        <time>2026-05-13T13:16:06+02:00</time>
      </trkpt>
      <trkpt lat="46.18803" lon="4.78121">
        <ele>168.2998</ele>
        <time>2026-05-13T13:16:07+02:00</time>
      </trkpt>
      <trkpt lat="46.188" lon="4.78123">
        <ele>168.2998</ele>
        <time>2026-05-13T13:16:08+02:00</time>
      </trkpt>
      <trkpt lat="46.18798" lon="4.78124">
        <ele>168.2998</ele>
        <time>2026-05-13T13:16:09+02:00</time>
      </trkpt>
      <trkpt lat="46.18796" lon="4.78127">
        <ele>168.2998</ele>
        <time>2026-05-13T13:16:10+02:00</time>
      </trkpt>
      <trkpt lat="46.18793" lon="4.78128">
        <ele>168.2998</ele>
        <time>2026-05-13T13:16:11+02:00</time>
      </trkpt>
      <trkpt lat="46.1879" lon="4.7813">
        <ele>168.5</ele>
        <time>2026-05-13T13:16:12+02:00</time>
      </trkpt>
      <trkpt lat="46.18788" lon="4.78131">
        <ele>168.5</ele>
        <time>2026-05-13T13:16:13+02:00</time>
      </trkpt>
      <trkpt lat="46.18785" lon="4.78133">
        <ele>168.5</ele>
        <time>2026-05-13T13:16:14+02:00</time>
      </trkpt>
      <trkpt lat="46.18784" lon="4.78135">
        <ele>168.5</ele>
        <time>2026-05-13T13:16:15+02:00</time>
      </trkpt>
      <trkpt lat="46.18783" lon="4.78137">
        <ele>168.7002</ele>
        <time>2026-05-13T13:16:16+02:00</time>
      </trkpt>
      <trkpt lat="46.18781" lon="4.78137">
        <ele>168.7002</ele>
        <time>2026-05-13T13:16:17+02:00</time>
      </trkpt>
      <trkpt lat="46.18781" lon="4.78138">
        <ele>168.7002</ele>
        <time>2026-05-13T13:16:18+02:00</time>
      </trkpt>
      <trkpt lat="46.18781" lon="4.78138">
        <ele>168.7002</ele>
        <time>2026-05-13T13:16:19+02:00</time>
      </trkpt>
      <trkpt lat="46.18781" lon="4.78138">
        <ele>168.7002</ele>
        <time>2026-05-13T13:16:20+02:00</time>
      </trkpt>
      <trkpt lat="46.18781" lon="4.78138">
        <ele>168.7002</ele>
        <time>2026-05-13T13:16:21+02:00</time>
      </trkpt>
      <trkpt lat="46.18782" lon="4.78154">
        <ele>169.10059</ele>
        <time>2026-05-13T13:16:55+02:00</time>
      </trkpt>
      <trkpt lat="46.18782" lon="4.78157">
        <ele>169.60059</ele>
        <time>2026-05-13T13:16:56+02:00</time>
      </trkpt>
      <trkpt lat="46.18782" lon="4.7816">
        <ele>169.60059</ele>
        <time>2026-05-13T13:16:57+02:00</time>
      </trkpt>
      <trkpt lat="46.18783" lon="4.78163">
        <ele>170.10059</ele>
        <time>2026-05-13T13:16:58+02:00</time>
      </trkpt>
      <trkpt lat="46.18783" lon="4.78165">
        <ele>170.10059</ele>
        <time>2026-05-13T13:16:59+02:00</time>
      </trkpt>
      <trkpt lat="46.18783" lon="4.78167">
        <ele>170.10059</ele>
        <time>2026-05-13T13:17:00+02:00</time>
      </trkpt>
      <trkpt lat="46.18784" lon="4.7817">
        <ele>170.10059</ele>
        <time>2026-05-13T13:17:01+02:00</time>
      </trkpt>
      <trkpt lat="46.18786" lon="4.78171">
        <ele>169.2998</ele>
        <time>2026-05-13T13:17:02+02:00</time>
      </trkpt>
      <trkpt lat="46.18788" lon="4.78173">
        <ele>169.40039</ele>
        <time>2026-05-13T13:17:03+02:00</time>
      </trkpt>
      <trkpt lat="46.18789" lon="4.78174">
        <ele>169.40039</ele>
        <time>2026-05-13T13:17:04+02:00</time>
      </trkpt>
      <trkpt lat="46.18791" lon="4.78176">
        <ele>169.40039</ele>
        <time>2026-05-13T13:17:05+02:00</time>
      </trkpt>
      <trkpt lat="46.18792" lon="4.78176">
        <ele>168.60059</ele>
        <time>2026-05-13T13:17:06+02:00</time>
      </trkpt>
      <trkpt lat="46.18793" lon="4.78176">
        <ele>168.60059</ele>
        <time>2026-05-13T13:17:07+02:00</time>
      </trkpt>
      <trkpt lat="46.18793" lon="4.78176">
        <ele>168.60059</ele>
        <time>2026-05-13T13:17:08+02:00</time>
      </trkpt>
      <trkpt lat="46.18793" lon="4.78176">
        <ele>168.60059</ele>
        <time>2026-05-13T13:17:09+02:00</time>
      </trkpt>
      <trkpt lat="46.18793" lon="4.78176">
        <ele>168.60059</ele>
        <time>2026-05-13T13:17:10+02:00</time>
      </trkpt>
      <trkpt lat="46.18796" lon="4.78171">
        <ele>168.60059</ele>
        <time>2026-05-13T13:18:25+02:00</time>
      </trkpt>
      <trkpt lat="46.18793" lon="4.7817">
        <ele>168.60059</ele>
        <time>2026-05-13T13:18:26+02:00</time>
      </trkpt>
      <trkpt lat="46.1879" lon="4.7817">
        <ele>169.2998</ele>
        <time>2026-05-13T13:18:27+02:00</time>
      </trkpt>
      <trkpt lat="46.18788" lon="4.7817">
        <ele>169.2998</ele>
        <time>2026-05-13T13:18:28+02:00</time>
      </trkpt>
      <trkpt lat="46.18785" lon="4.78169">
        <ele>170.10059</ele>
        <time>2026-05-13T13:18:29+02:00</time>
      </trkpt>
      <trkpt lat="46.18784" lon="4.78166">
        <ele>170.10059</ele>
        <time>2026-05-13T13:18:30+02:00</time>
      </trkpt>
      <trkpt lat="46.18783" lon="4.78162">
        <ele>169.60059</ele>
        <time>2026-05-13T13:18:31+02:00</time>
      </trkpt>
      <trkpt lat="46.18784" lon="4.78156">
        <ele>169.60059</ele>
        <time>2026-05-13T13:18:32+02:00</time>
      </trkpt>
      <trkpt lat="46.18784" lon="4.78151">
        <ele>169.10059</ele>
        <time>2026-05-13T13:18:33+02:00</time>
      </trkpt>
      <trkpt lat="46.18783" lon="4.78147">
        <ele>169.10059</ele>
        <time>2026-05-13T13:18:34+02:00</time>
      </trkpt>
      <trkpt lat="46.18783" lon="4.78143">
        <ele>168.7002</ele>
        <time>2026-05-13T13:18:35+02:00</time>
      </trkpt>
      <trkpt lat="46.18782" lon="4.7814">
        <ele>168.7002</ele>
        <time>2026-05-13T13:18:36+02:00</time>
      </trkpt>
      <trkpt lat="46.1878" lon="4.78139">
        <ele>168.7002</ele>
        <time>2026-05-13T13:18:37+02:00</time>
      </trkpt>
      <trkpt lat="46.18777" lon="4.78139">
        <ele>168.7998</ele>
        <time>2026-05-13T13:18:38+02:00</time>
      </trkpt>
      <trkpt lat="46.18774" lon="4.78139">
        <ele>168.7998</ele>
        <time>2026-05-13T13:18:39+02:00</time>
      </trkpt>
      <trkpt lat="46.18771" lon="4.7814">
        <ele>168.7998</ele>
        <time>2026-05-13T13:18:40+02:00</time>
      </trkpt>
      <trkpt lat="46.18769" lon="4.7814">
        <ele>168.7998</ele>
        <time>2026-05-13T13:18:41+02:00</time>
      </trkpt>
      <trkpt lat="46.18766" lon="4.78141">
        <ele>168.90039</ele>
        <time>2026-05-13T13:18:42+02:00</time>
      </trkpt>
      <trkpt lat="46.18763" lon="4.78141">
        <ele>168.90039</ele>
        <time>2026-05-13T13:18:43+02:00</time>
      </trkpt>
      <trkpt lat="46.18761" lon="4.78141">
        <ele>169</ele>
        <time>2026-05-13T13:18:44+02:00</time>
      </trkpt>
      <trkpt lat="46.1876" lon="4.78141">
        <ele>169</ele>
        <time>2026-05-13T13:18:45+02:00</time>
      </trkpt>
      <trkpt lat="46.18759" lon="4.78141">
        <ele>169</ele>
        <time>2026-05-13T13:18:46+02:00</time>
      </trkpt>
      <trkpt lat="46.18759" lon="4.78141">
        <ele>169</ele>
        <time>2026-05-13T13:18:47+02:00</time>
      </trkpt>
      <trkpt lat="46.18759" lon="4.78141">
        <ele>169</ele>
        <time>2026-05-13T13:18:48+02:00</time>
      </trkpt>
      <trkpt lat="46.18759" lon="4.78141">
        <ele>169</ele>
        <time>2026-05-13T13:18:49+02:00</time>
      </trkpt>
      <trkpt lat="46.18792" lon="4.78129">
        <ele>168.5</ele>
        <time>2026-05-13T13:53:17+02:00</time>
        <extensions>
          <gpxtpx:TrackPointExtension xmlns:gpxtpx="http://www.garmin.com/xmlschemas/TrackPointExtension/v1">
            <gpxtpx:hr>126</gpxtpx:hr>
          </gpxtpx:TrackPointExtension>
        </extensions>
      </trkpt>
      <trkpt lat="46.18795" lon="4.78126">
        <ele>168.2998</ele>
        <time>2026-05-13T13:53:18+02:00</time>
        <extensions>
          <gpxtpx:TrackPointExtension xmlns:gpxtpx="http://www.garmin.com/xmlschemas/TrackPointExtension/v1">
            <gpxtpx:hr>126</gpxtpx:hr>
          </gpxtpx:TrackPointExtension>
        </extensions>
      </trkpt>
      <trkpt lat="46.18799" lon="4.78124">
        <ele>168.2998</ele>
        <time>2026-05-13T13:53:19+02:00</time>
        <extensions>
          <gpxtpx:TrackPointExtension xmlns:gpxtpx="http://www.garmin.com/xmlschemas/TrackPointExtension/v1">
            <gpxtpx:hr>127</gpxtpx:hr>
          </gpxtpx:TrackPointExtension>
        </extensions>
      </trkpt>
      <trkpt lat="46.18802" lon="4.78122">
        <ele>168.2998</ele>
        <time>2026-05-13T13:53:20+02:00</time>
        <extensions>
          <gpxtpx:TrackPointExtension xmlns:gpxtpx="http://www.garmin.com/xmlschemas/TrackPointExtension/v1">
            <gpxtpx:hr>127</gpxtpx:hr>
          </gpxtpx:TrackPointExtension>
        </extensions>
      </trkpt>
      <trkpt lat="46.18805" lon="4.7812">
        <ele>168.2998</ele>
        <time>2026-05-13T13:53:21+02:00</time>
        <extensions>
          <gpxtpx:TrackPointExtension xmlns:gpxtpx="http://www.garmin.com/xmlschemas/TrackPointExtension/v1">
            <gpxtpx:hr>128</gpxtpx:hr>
          </gpxtpx:TrackPointExtension>
        </extensions>
      </trkpt>
      <trkpt lat="46.18809" lon="4.78118">
        <ele>168.2002</ele>
        <time>2026-05-13T13:53:22+02:00</time>
        <extensions>
          <gpxtpx:TrackPointExtension xmlns:gpxtpx="http://www.garmin.com/xmlschemas/TrackPointExtension/v1">
            <gpxtpx:hr>129</gpxtpx:hr>
          </gpxtpx:TrackPointExtension>
        </extensions>
      </trkpt>
      <trkpt lat="46.18813" lon="4.78116">
        <ele>168.2002</ele>
        <time>2026-05-13T13:53:23+02:00</time>
        <extensions>
          <gpxtpx:TrackPointExtension xmlns:gpxtpx="http://www.garmin.com/xmlschemas/TrackPointExtension/v1">
            <gpxtpx:hr>129</gpxtpx:hr>
          </gpxtpx:TrackPointExtension>
        </extensions>
      </trkpt>
      <trkpt lat="46.18817" lon="4.78115">
        <ele>168.2002</ele>
        <time>2026-05-13T13:53:24+02:00</time>
        <extensions>
          <gpxtpx:TrackPointExtension xmlns:gpxtpx="http://www.garmin.com/xmlschemas/TrackPointExtension/v1">
            <gpxtpx:hr>130</gpxtpx:hr>
          </gpxtpx:TrackPointExtension>
        </extensions>
      </trkpt>
      <trkpt lat="46.18821" lon="4.78115">
        <ele>168.2002</ele>
        <time>2026-05-13T13:53:25+02:00</time>
        <extensions>
          <gpxtpx:TrackPointExtension xmlns:gpxtpx="http://www.garmin.com/xmlschemas/TrackPointExtension/v1">
            <gpxtpx:hr>132</gpxtpx:hr>
          </gpxtpx:TrackPointExtension>
        </extensions>
      </trkpt>
      <trkpt lat="46.18825" lon="4.78115">
        <ele>168.2002</ele>
        <time>2026-05-13T13:53:26+02:00</time>
        <extensions>
          <gpxtpx:TrackPointExtension xmlns:gpxtpx="http://www.garmin.com/xmlschemas/TrackPointExtension/v1">
            <gpxtpx:hr>132</gpxtpx:hr>
          </gpxtpx:TrackPointExtension>
        </extensions>
      </trkpt>
      <trkpt lat="46.18828" lon="4.78115">
        <ele>168.2002</ele>
        <time>2026-05-13T13:53:27+02:00</time>
        <extensions>
          <gpxtpx:TrackPointExtension xmlns:gpxtpx="http://www.garmin.com/xmlschemas/TrackPointExtension/v1">
            <gpxtpx:hr>133</gpxtpx:hr>
          </gpxtpx:TrackPointExtension>
        </extensions>
      </trkpt>
      <trkpt lat="46.18832" lon="4.78117">
        <ele>168.2002</ele>
        <time>2026-05-13T13:53:28+02:00</time>
        <extensions>
          <gpxtpx:TrackPointExtension xmlns:gpxtpx="http://www.garmin.com/xmlschemas/TrackPointExtension/v1">
            <gpxtpx:hr>134</gpxtpx:hr>
          </gpxtpx:TrackPointExtension>
        </extensions>
      </trkpt>
      <trkpt lat="46.18835" lon="4.7812">
        <ele>168.2002</ele>
        <time>2026-05-13T13:53:29+02:00</time>
        <extensions>
          <gpxtpx:TrackPointExtension xmlns:gpxtpx="http://www.garmin.com/xmlschemas/TrackPointExtension/v1">
            <gpxtpx:hr>135</gpxtpx:hr>
          </gpxtpx:TrackPointExtension>
        </extensions>
      </trkpt>
      <trkpt lat="46.18839" lon="4.78123">
        <ele>168.2002</ele>
        <time>2026-05-13T13:53:30+02:00</time>
        <extensions>
          <gpxtpx:TrackPointExtension xmlns:gpxtpx="http://www.garmin.com/xmlschemas/TrackPointExtension/v1">
            <gpxtpx:hr>135</gpxtpx:hr>
          </gpxtpx:TrackPointExtension>
        </extensions>
      </trkpt>
      <trkpt lat="46.18842" lon="4.78126">
        <ele>168.2002</ele>
        <time>2026-05-13T13:53:31+02:00</time>
        <extensions>
          <gpxtpx:TrackPointExtension xmlns:gpxtpx="http://www.garmin.com/xmlschemas/TrackPointExtension/v1">
            <gpxtpx:hr>135</gpxtpx:hr>
          </gpxtpx:TrackPointExtension>
        </extensions>
      </trkpt>
      <trkpt lat="46.18846" lon="4.78128">
        <ele>168.2002</ele>
        <time>2026-05-13T13:53:32+02:00</time>
        <extensions>
          <gpxtpx:TrackPointExtension xmlns:gpxtpx="http://www.garmin.com/xmlschemas/TrackPointExtension/v1">
            <gpxtpx:hr>135</gpxtpx:hr>
          </gpxtpx:TrackPointExtension>
        </extensions>
      </trkpt>
      <trkpt lat="46.1885" lon="4.7813">
        <ele>168.2002</ele>
        <time>2026-05-13T13:53:33+02:00</time>
        <extensions>
          <gpxtpx:TrackPointExtension xmlns:gpxtpx="http://www.garmin.com/xmlschemas/TrackPointExtension/v1">
            <gpxtpx:hr>136</gpxtpx:hr>
          </gpxtpx:TrackPointExtension>
        </extensions>
      </trkpt>
      <trkpt lat="46.18854" lon="4.78132">
        <ele>168.2002</ele>
        <time>2026-05-13T13:53:34+02:00</time>
        <extensions>
          <gpxtpx:TrackPointExtension xmlns:gpxtpx="http://www.garmin.com/xmlschemas/TrackPointExtension/v1">
            <gpxtpx:hr>136</gpxtpx:hr>
          </gpxtpx:TrackPointExtension>
        </extensions>
      </trkpt>
      <trkpt lat="46.18858" lon="4.78133">
        <ele>168.2002</ele>
        <time>2026-05-13T13:53:35+02:00</time>
        <extensions>
          <gpxtpx:TrackPointExtension xmlns:gpxtpx="http://www.garmin.com/xmlschemas/TrackPointExtension/v1">
            <gpxtpx:hr>136</gpxtpx:hr>
          </gpxtpx:TrackPointExtension>
        </extensions>
      </trkpt>
      <trkpt lat="46.18862" lon="4.78135">
        <ele>168.2002</ele>
        <time>2026-05-13T13:53:36+02:00</time>
        <extensions>
          <gpxtpx:TrackPointExtension xmlns:gpxtpx="http://www.garmin.com/xmlschemas/TrackPointExtension/v1">
            <gpxtpx:hr>137</gpxtpx:hr>
          </gpxtpx:TrackPointExtension>
        </extensions>
      </trkpt>
      <trkpt lat="46.18866" lon="4.78136">
        <ele>168.2002</ele>
        <time>2026-05-13T13:53:37+02:00</time>
        <extensions>
          <gpxtpx:TrackPointExtension xmlns:gpxtpx="http://www.garmin.com/xmlschemas/TrackPointExtension/v1">
            <gpxtpx:hr>137</gpxtpx:hr>
          </gpxtpx:TrackPointExtension>
        </extensions>
      </trkpt>
      <trkpt lat="46.18871" lon="4.78137">
        <ele>168.2002</ele>
        <time>2026-05-13T13:53:38+02:00</time>
        <extensions>
          <gpxtpx:TrackPointExtension xmlns:gpxtpx="http://www.garmin.com/xmlschemas/TrackPointExtension/v1">
            <gpxtpx:hr>138</gpxtpx:hr>
          </gpxtpx:TrackPointExtension>
        </extensions>
      </trkpt>
      <trkpt lat="46.18875" lon="4.78139">
        <ele>168.2002</ele>
        <time>2026-05-13T13:53:39+02:00</time>
        <extensions>
          <gpxtpx:TrackPointExtension xmlns:gpxtpx="http://www.garmin.com/xmlschemas/TrackPointExtension/v1">
            <gpxtpx:hr>138</gpxtpx:hr>
          </gpxtpx:TrackPointExtension>
        </extensions>
      </trkpt>
      <trkpt lat="46.18879" lon="4.7814">
        <ele>168.2002</ele>
        <time>2026-05-13T13:53:40+02:00</time>
        <extensions>
          <gpxtpx:TrackPointExtension xmlns:gpxtpx="http://www.garmin.com/xmlschemas/TrackPointExtension/v1">
            <gpxtpx:hr>139</gpxtpx:hr>
          </gpxtpx:TrackPointExtension>
        </extensions>
      </trkpt>
      <trkpt lat="46.18884" lon="4.78141">
        <ele>168.2002</ele>
        <time>2026-05-13T13:53:41+02:00</time>
        <extensions>
          <gpxtpx:TrackPointExtension xmlns:gpxtpx="http://www.garmin.com/xmlschemas/TrackPointExtension/v1">
            <gpxtpx:hr>139</gpxtpx:hr>
          </gpxtpx:TrackPointExtension>
        </extensions>
      </trkpt>
      <trkpt lat="46.18888" lon="4.78143">
        <ele>168.2002</ele>
        <time>2026-05-13T13:53:42+02:00</time>
        <extensions>
          <gpxtpx:TrackPointExtension xmlns:gpxtpx="http://www.garmin.com/xmlschemas/TrackPointExtension/v1">
            <gpxtpx:hr>140</gpxtpx:hr>
          </gpxtpx:TrackPointExtension>
        </extensions>
      </trkpt>
      <trkpt lat="46.18892" lon="4.78144">
        <ele>168.2002</ele>
        <time>2026-05-13T13:53:43+02:00</time>
        <extensions>
          <gpxtpx:TrackPointExtension xmlns:gpxtpx="http://www.garmin.com/xmlschemas/TrackPointExtension/v1">
            <gpxtpx:hr>140</gpxtpx:hr>
          </gpxtpx:TrackPointExtension>
        </extensions>
      </trkpt>
      <trkpt lat="46.18897" lon="4.78146">
        <ele>168.2998</ele>
        <time>2026-05-13T13:53:44+02:00</time>
        <extensions>
          <gpxtpx:TrackPointExtension xmlns:gpxtpx="http://www.garmin.com/xmlschemas/TrackPointExtension/v1">
            <gpxtpx:hr>140</gpxtpx:hr>
          </gpxtpx:TrackPointExtension>
        </extensions>
      </trkpt>
      <trkpt lat="46.18902" lon="4.78148">
        <ele>168.2998</ele>
        <time>2026-05-13T13:53:45+02:00</time>
        <extensions>
          <gpxtpx:TrackPointExtension xmlns:gpxtpx="http://www.garmin.com/xmlschemas/TrackPointExtension/v1">
            <gpxtpx:hr>141</gpxtpx:hr>
          </gpxtpx:TrackPointExtension>
        </extensions>
      </trkpt>
      <trkpt lat="46.18907" lon="4.78149">
        <ele>168.2998</ele>
        <time>2026-05-13T13:53:46+02:00</time>
        <extensions>
          <gpxtpx:TrackPointExtension xmlns:gpxtpx="http://www.garmin.com/xmlschemas/TrackPointExtension/v1">
            <gpxtpx:hr>141</gpxtpx:hr>
          </gpxtpx:TrackPointExtension>
        </extensions>
      </trkpt>
      <trkpt lat="46.18911" lon="4.78151">
        <ele>168.2998</ele>
        <time>2026-05-13T13:53:47+02:00</time>
        <extensions>
          <gpxtpx:TrackPointExtension xmlns:gpxtpx="http://www.garmin.com/xmlschemas/TrackPointExtension/v1">
            <gpxtpx:hr>141</gpxtpx:hr>
          </gpxtpx:TrackPointExtension>
        </extensions>
      </trkpt>
      <trkpt lat="46.18916" lon="4.78153">
        <ele>168.2998</ele>
        <time>2026-05-13T13:53:48+02:00</time>
        <extensions>
          <gpxtpx:TrackPointExtension xmlns:gpxtpx="http://www.garmin.com/xmlschemas/TrackPointExtension/v1">
            <gpxtpx:hr>142</gpxtpx:hr>
          </gpxtpx:TrackPointExtension>
        </extensions>
      </trkpt>
      <trkpt lat="46.18921" lon="4.78155">
        <ele>168.40039</ele>
        <time>2026-05-13T13:53:49+02:00</time>
        <extensions>
          <gpxtpx:TrackPointExtension xmlns:gpxtpx="http://www.garmin.com/xmlschemas/TrackPointExtension/v1">
            <gpxtpx:hr>142</gpxtpx:hr>
          </gpxtpx:TrackPointExtension>
        </extensions>
      </trkpt>
      <trkpt lat="46.18926" lon="4.78156">
        <ele>168.40039</ele>
        <time>2026-05-13T13:53:50+02:00</time>
        <extensions>
          <gpxtpx:TrackPointExtension xmlns:gpxtpx="http://www.garmin.com/xmlschemas/TrackPointExtension/v1">
            <gpxtpx:hr>142</gpxtpx:hr>
          </gpxtpx:TrackPointExtension>
        </extensions>
      </trkpt>
      <trkpt lat="46.18931" lon="4.78158">
        <ele>168.40039</ele>
        <time>2026-05-13T13:53:51+02:00</time>
        <extensions>
          <gpxtpx:TrackPointExtension xmlns:gpxtpx="http://www.garmin.com/xmlschemas/TrackPointExtension/v1">
            <gpxtpx:hr>143</gpxtpx:hr>
          </gpxtpx:TrackPointExtension>
        </extensions>
      </trkpt>
      <trkpt lat="46.18935" lon="4.7816">
        <ele>168.40039</ele>
        <time>2026-05-13T13:53:52+02:00</time>
        <extensions>
          <gpxtpx:TrackPointExtension xmlns:gpxtpx="http://www.garmin.com/xmlschemas/TrackPointExtension/v1">
            <gpxtpx:hr>143</gpxtpx:hr>
          </gpxtpx:TrackPointExtension>
        </extensions>
      </trkpt>
      <trkpt lat="46.1894" lon="4.78161">
        <ele>168.2998</ele>
        <time>2026-05-13T13:53:53+02:00</time>
        <extensions>
          <gpxtpx:TrackPointExtension xmlns:gpxtpx="http://www.garmin.com/xmlschemas/TrackPointExtension/v1">
            <gpxtpx:hr>142</gpxtpx:hr>
          </gpxtpx:TrackPointExtension>
        </extensions>
      </trkpt>
      <trkpt lat="46.18945" lon="4.78164">
        <ele>168.2998</ele>
        <time>2026-05-13T13:53:54+02:00</time>
        <extensions>
          <gpxtpx:TrackPointExtension xmlns:gpxtpx="http://www.garmin.com/xmlschemas/TrackPointExtension/v1">
            <gpxtpx:hr>143</gpxtpx:hr>
          </gpxtpx:TrackPointExtension>
        </extensions>
      </trkpt>
      <trkpt lat="46.18949" lon="4.78166">
        <ele>168.2998</ele>
        <time>2026-05-13T13:53:55+02:00</time>
        <extensions>
          <gpxtpx:TrackPointExtension xmlns:gpxtpx="http://www.garmin.com/xmlschemas/TrackPointExtension/v1">
            <gpxtpx:hr>142</gpxtpx:hr>
          </gpxtpx:TrackPointExtension>
        </extensions>
      </trkpt>
      <trkpt lat="46.18954" lon="4.78169">
        <ele>168.2998</ele>
        <time>2026-05-13T13:53:56+02:00</time>
        <extensions>
          <gpxtpx:TrackPointExtension xmlns:gpxtpx="http://www.garmin.com/xmlschemas/TrackPointExtension/v1">
            <gpxtpx:hr>142</gpxtpx:hr>
          </gpxtpx:TrackPointExtension>
        </extensions>
      </trkpt>
      <trkpt lat="46.18958" lon="4.78171">
        <ele>168.2998</ele>
        <time>2026-05-13T13:53:57+02:00</time>
        <extensions>
          <gpxtpx:TrackPointExtension xmlns:gpxtpx="http://www.garmin.com/xmlschemas/TrackPointExtension/v1">
            <gpxtpx:hr>142</gpxtpx:hr>
          </gpxtpx:TrackPointExtension>
        </extensions>
      </trkpt>
      <trkpt lat="46.18963" lon="4.78174">
        <ele>168.40039</ele>
        <time>2026-05-13T13:53:58+02:00</time>
        <extensions>
          <gpxtpx:TrackPointExtension xmlns:gpxtpx="http://www.garmin.com/xmlschemas/TrackPointExtension/v1">
            <gpxtpx:hr>143</gpxtpx:hr>
          </gpxtpx:TrackPointExtension>
        </extensions>
      </trkpt>
      <trkpt lat="46.18967" lon="4.78177">
        <ele>168.40039</ele>
        <time>2026-05-13T13:53:59+02:00</time>
        <extensions>
          <gpxtpx:TrackPointExtension xmlns:gpxtpx="http://www.garmin.com/xmlschemas/TrackPointExtension/v1">
            <gpxtpx:hr>143</gpxtpx:hr>
          </gpxtpx:TrackPointExtension>
        </extensions>
      </trkpt>
      <trkpt lat="46.18971" lon="4.78179">
        <ele>168.2998</ele>
        <time>2026-05-13T13:54:00+02:00</time>
        <extensions>
          <gpxtpx:TrackPointExtension xmlns:gpxtpx="http://www.garmin.com/xmlschemas/TrackPointExtension/v1">
            <gpxtpx:hr>143</gpxtpx:hr>
          </gpxtpx:TrackPointExtension>
        </extensions>
      </trkpt>
      <trkpt lat="46.18976" lon="4.78183">
        <ele>168.40039</ele>
        <time>2026-05-13T13:54:01+02:00</time>
        <extensions>
          <gpxtpx:TrackPointExtension xmlns:gpxtpx="http://www.garmin.com/xmlschemas/TrackPointExtension/v1">
            <gpxtpx:hr>143</gpxtpx:hr>
          </gpxtpx:TrackPointExtension>
        </extensions>
      </trkpt>
      <trkpt lat="46.1898" lon="4.78186">
        <ele>168.40039</ele>
        <time>2026-05-13T13:54:02+02:00</time>
        <extensions>
          <gpxtpx:TrackPointExtension xmlns:gpxtpx="http://www.garmin.com/xmlschemas/TrackPointExtension/v1">
            <gpxtpx:hr>143</gpxtpx:hr>
          </gpxtpx:TrackPointExtension>
        </extensions>
      </trkpt>
      <trkpt lat="46.18984" lon="4.7819">
        <ele>168.40039</ele>
        <time>2026-05-13T13:54:03+02:00</time>
        <extensions>
          <gpxtpx:TrackPointExtension xmlns:gpxtpx="http://www.garmin.com/xmlschemas/TrackPointExtension/v1">
            <gpxtpx:hr>144</gpxtpx:hr>
          </gpxtpx:TrackPointExtension>
        </extensions>
      </trkpt>
      <trkpt lat="46.18988" lon="4.78194">
        <ele>168.40039</ele>
        <time>2026-05-13T13:54:04+02:00</time>
        <extensions>
          <gpxtpx:TrackPointExtension xmlns:gpxtpx="http://www.garmin.com/xmlschemas/TrackPointExtension/v1">
            <gpxtpx:hr>144</gpxtpx:hr>
          </gpxtpx:TrackPointExtension>
        </extensions>
      </trkpt>
      <trkpt lat="46.18992" lon="4.78197">
        <ele>168.40039</ele>
        <time>2026-05-13T13:54:05+02:00</time>
        <extensions>
          <gpxtpx:TrackPointExtension xmlns:gpxtpx="http://www.garmin.com/xmlschemas/TrackPointExtension/v1">
            <gpxtpx:hr>144</gpxtpx:hr>
          </gpxtpx:TrackPointExtension>
        </extensions>
      </trkpt>
      <trkpt lat="46.18997" lon="4.78201">
        <ele>168.40039</ele>
        <time>2026-05-13T13:54:06+02:00</time>
        <extensions>
          <gpxtpx:TrackPointExtension xmlns:gpxtpx="http://www.garmin.com/xmlschemas/TrackPointExtension/v1">
            <gpxtpx:hr>144</gpxtpx:hr>
          </gpxtpx:TrackPointExtension>
        </extensions>
      </trkpt>
      <trkpt lat="46.19" lon="4.78205">
        <ele>168.2998</ele>
        <time>2026-05-13T13:54:07+02:00</time>
        <extensions>
          <gpxtpx:TrackPointExtension xmlns:gpxtpx="http://www.garmin.com/xmlschemas/TrackPointExtension/v1">
            <gpxtpx:hr>144</gpxtpx:hr>
          </gpxtpx:TrackPointExtension>
        </extensions>
      </trkpt>
      <trkpt lat="46.19005" lon="4.78209">
        <ele>168.5</ele>
        <time>2026-05-13T13:54:08+02:00</time>
        <extensions>
          <gpxtpx:TrackPointExtension xmlns:gpxtpx="http://www.garmin.com/xmlschemas/TrackPointExtension/v1">
            <gpxtpx:hr>144</gpxtpx:hr>
          </gpxtpx:TrackPointExtension>
        </extensions>
      </trkpt>
      <trkpt lat="46.19009" lon="4.78213">
        <ele>168.40039</ele>
        <time>2026-05-13T13:54:09+02:00</time>
        <extensions>
          <gpxtpx:TrackPointExtension xmlns:gpxtpx="http://www.garmin.com/xmlschemas/TrackPointExtension/v1">
            <gpxtpx:hr>144</gpxtpx:hr>
          </gpxtpx:TrackPointExtension>
        </extensions>
      </trkpt>
      <trkpt lat="46.19013" lon="4.78217">
        <ele>168.5</ele>
        <time>2026-05-13T13:54:10+02:00</time>
        <extensions>
          <gpxtpx:TrackPointExtension xmlns:gpxtpx="http://www.garmin.com/xmlschemas/TrackPointExtension/v1">
            <gpxtpx:hr>144</gpxtpx:hr>
          </gpxtpx:TrackPointExtension>
        </extensions>
      </trkpt>
      <trkpt lat="46.19017" lon="4.78221">
        <ele>168.5</ele>
        <time>2026-05-13T13:54:11+02:00</time>
        <extensions>
          <gpxtpx:TrackPointExtension xmlns:gpxtpx="http://www.garmin.com/xmlschemas/TrackPointExtension/v1">
            <gpxtpx:hr>144</gpxtpx:hr>
          </gpxtpx:TrackPointExtension>
        </extensions>
      </trkpt>
      <trkpt lat="46.19021" lon="4.78224">
        <ele>168.60059</ele>
        <time>2026-05-13T13:54:12+02:00</time>
        <extensions>
          <gpxtpx:TrackPointExtension xmlns:gpxtpx="http://www.garmin.com/xmlschemas/TrackPointExtension/v1">
            <gpxtpx:hr>144</gpxtpx:hr>
          </gpxtpx:TrackPointExtension>
        </extensions>
      </trkpt>
      <trkpt lat="46.19025" lon="4.78228">
        <ele>168.5</ele>
        <time>2026-05-13T13:54:13+02:00</time>
        <extensions>
          <gpxtpx:TrackPointExtension xmlns:gpxtpx="http://www.garmin.com/xmlschemas/TrackPointExtension/v1">
            <gpxtpx:hr>144</gpxtpx:hr>
          </gpxtpx:TrackPointExtension>
        </extensions>
      </trkpt>
      <trkpt lat="46.19029" lon="4.78232">
        <ele>168.7002</ele>
        <time>2026-05-13T13:54:14+02:00</time>
        <extensions>
          <gpxtpx:TrackPointExtension xmlns:gpxtpx="http://www.garmin.com/xmlschemas/TrackPointExtension/v1">
            <gpxtpx:hr>144</gpxtpx:hr>
          </gpxtpx:TrackPointExtension>
        </extensions>
      </trkpt>
      <trkpt lat="46.19033" lon="4.78236">
        <ele>168.60059</ele>
        <time>2026-05-13T13:54:15+02:00</time>
        <extensions>
          <gpxtpx:TrackPointExtension xmlns:gpxtpx="http://www.garmin.com/xmlschemas/TrackPointExtension/v1">
            <gpxtpx:hr>144</gpxtpx:hr>
          </gpxtpx:TrackPointExtension>
        </extensions>
      </trkpt>
      <trkpt lat="46.19037" lon="4.7824">
        <ele>168.60059</ele>
        <time>2026-05-13T13:54:16+02:00</time>
        <extensions>
          <gpxtpx:TrackPointExtension xmlns:gpxtpx="http://www.garmin.com/xmlschemas/TrackPointExtension/v1">
            <gpxtpx:hr>144</gpxtpx:hr>
          </gpxtpx:TrackPointExtension>
        </extensions>
      </trkpt>
      <trkpt lat="46.19042" lon="4.78244">
        <ele>168.60059</ele>
        <time>2026-05-13T13:54:17+02:00</time>
        <extensions>
          <gpxtpx:TrackPointExtension xmlns:gpxtpx="http://www.garmin.com/xmlschemas/TrackPointExtension/v1">
            <gpxtpx:hr>144</gpxtpx:hr>
          </gpxtpx:TrackPointExtension>
        </extensions>
      </trkpt>
      <trkpt lat="46.19045" lon="4.78248">
        <ele>168.60059</ele>
        <time>2026-05-13T13:54:18+02:00</time>
        <extensions>
          <gpxtpx:TrackPointExtension xmlns:gpxtpx="http://www.garmin.com/xmlschemas/TrackPointExtension/v1">
            <gpxtpx:hr>144</gpxtpx:hr>
          </gpxtpx:TrackPointExtension>
        </extensions>
      </trkpt>
      <trkpt lat="46.1905" lon="4.78252">
        <ele>168.60059</ele>
        <time>2026-05-13T13:54:19+02:00</time>
        <extensions>
          <gpxtpx:TrackPointExtension xmlns:gpxtpx="http://www.garmin.com/xmlschemas/TrackPointExtension/v1">
            <gpxtpx:hr>144</gpxtpx:hr>
          </gpxtpx:TrackPointExtension>
        </extensions>
      </trkpt>
      <trkpt lat="46.19053" lon="4.78256">
        <ele>168.5</ele>
        <time>2026-05-13T13:54:20+02:00</time>
        <extensions>
          <gpxtpx:TrackPointExtension xmlns:gpxtpx="http://www.garmin.com/xmlschemas/TrackPointExtension/v1">
            <gpxtpx:hr>144</gpxtpx:hr>
          </gpxtpx:TrackPointExtension>
        </extensions>
      </trkpt>
      <trkpt lat="46.19058" lon="4.7826">
        <ele>168.60059</ele>
        <time>2026-05-13T13:54:21+02:00</time>
        <extensions>
          <gpxtpx:TrackPointExtension xmlns:gpxtpx="http://www.garmin.com/xmlschemas/TrackPointExtension/v1">
            <gpxtpx:hr>144</gpxtpx:hr>
          </gpxtpx:TrackPointExtension>
        </extensions>
      </trkpt>
      <trkpt lat="46.19062" lon="4.78264">
        <ele>168.5</ele>
        <time>2026-05-13T13:54:22+02:00</time>
        <extensions>
          <gpxtpx:TrackPointExtension xmlns:gpxtpx="http://www.garmin.com/xmlschemas/TrackPointExtension/v1">
            <gpxtpx:hr>145</gpxtpx:hr>
          </gpxtpx:TrackPointExtension>
        </extensions>
      </trkpt>
      <trkpt lat="46.19066" lon="4.78268">
        <ele>168.60059</ele>
        <time>2026-05-13T13:54:23+02:00</time>
        <extensions>
          <gpxtpx:TrackPointExtension xmlns:gpxtpx="http://www.garmin.com/xmlschemas/TrackPointExtension/v1">
            <gpxtpx:hr>145</gpxtpx:hr>
          </gpxtpx:TrackPointExtension>
        </extensions>
      </trkpt>
      <trkpt lat="46.19071" lon="4.78272">
        <ele>168.5</ele>
        <time>2026-05-13T13:54:24+02:00</time>
        <extensions>
          <gpxtpx:TrackPointExtension xmlns:gpxtpx="http://www.garmin.com/xmlschemas/TrackPointExtension/v1">
            <gpxtpx:hr>145</gpxtpx:hr>
          </gpxtpx:TrackPointExtension>
        </extensions>
      </trkpt>
      <trkpt lat="46.19075" lon="4.78277">
        <ele>168.60059</ele>
        <time>2026-05-13T13:54:25+02:00</time>
        <extensions>
          <gpxtpx:TrackPointExtension xmlns:gpxtpx="http://www.garmin.com/xmlschemas/TrackPointExtension/v1">
            <gpxtpx:hr>146</gpxtpx:hr>
          </gpxtpx:TrackPointExtension>
        </extensions>
      </trkpt>
      <trkpt lat="46.19079" lon="4.78281">
        <ele>168.5</ele>
        <time>2026-05-13T13:54:26+02:00</time>
        <extensions>
          <gpxtpx:TrackPointExtension xmlns:gpxtpx="http://www.garmin.com/xmlschemas/TrackPointExtension/v1">
            <gpxtpx:hr>146</gpxtpx:hr>
          </gpxtpx:TrackPointExtension>
        </extensions>
      </trkpt>
      <trkpt lat="46.19084" lon="4.78285">
        <ele>168.5</ele>
        <time>2026-05-13T13:54:27+02:00</time>
        <extensions>
          <gpxtpx:TrackPointExtension xmlns:gpxtpx="http://www.garmin.com/xmlschemas/TrackPointExtension/v1">
            <gpxtpx:hr>146</gpxtpx:hr>
          </gpxtpx:TrackPointExtension>
        </extensions>
      </trkpt>
      <trkpt lat="46.19088" lon="4.78289">
        <ele>168.5</ele>
        <time>2026-05-13T13:54:28+02:00</time>
        <extensions>
          <gpxtpx:TrackPointExtension xmlns:gpxtpx="http://www.garmin.com/xmlschemas/TrackPointExtension/v1">
            <gpxtpx:hr>146</gpxtpx:hr>
          </gpxtpx:TrackPointExtension>
        </extensions>
      </trkpt>
      <trkpt lat="46.19092" lon="4.78293">
        <ele>168.5</ele>
        <time>2026-05-13T13:54:29+02:00</time>
        <extensions>
          <gpxtpx:TrackPointExtension xmlns:gpxtpx="http://www.garmin.com/xmlschemas/TrackPointExtension/v1">
            <gpxtpx:hr>146</gpxtpx:hr>
          </gpxtpx:TrackPointExtension>
        </extensions>
      </trkpt>
      <trkpt lat="46.19097" lon="4.78297">
        <ele>168.40039</ele>
        <time>2026-05-13T13:54:30+02:00</time>
        <extensions>
          <gpxtpx:TrackPointExtension xmlns:gpxtpx="http://www.garmin.com/xmlschemas/TrackPointExtension/v1">
            <gpxtpx:hr>146</gpxtpx:hr>
          </gpxtpx:TrackPointExtension>
        </extensions>
      </trkpt>
      <trkpt lat="46.19101" lon="4.78302">
        <ele>168.5</ele>
        <time>2026-05-13T13:54:31+02:00</time>
        <extensions>
          <gpxtpx:TrackPointExtension xmlns:gpxtpx="http://www.garmin.com/xmlschemas/TrackPointExtension/v1">
            <gpxtpx:hr>147</gpxtpx:hr>
          </gpxtpx:TrackPointExtension>
        </extensions>
      </trkpt>
      <trkpt lat="46.19105" lon="4.78306">
        <ele>168.5</ele>
        <time>2026-05-13T13:54:32+02:00</time>
        <extensions>
          <gpxtpx:TrackPointExtension xmlns:gpxtpx="http://www.garmin.com/xmlschemas/TrackPointExtension/v1">
            <gpxtpx:hr>147</gpxtpx:hr>
          </gpxtpx:TrackPointExtension>
        </extensions>
      </trkpt>
      <trkpt lat="46.19109" lon="4.7831">
        <ele>168.5</ele>
        <time>2026-05-13T13:54:33+02:00</time>
        <extensions>
          <gpxtpx:TrackPointExtension xmlns:gpxtpx="http://www.garmin.com/xmlschemas/TrackPointExtension/v1">
            <gpxtpx:hr>147</gpxtpx:hr>
          </gpxtpx:TrackPointExtension>
        </extensions>
      </trkpt>
      <trkpt lat="46.19114" lon="4.78314">
        <ele>168.40039</ele>
        <time>2026-05-13T13:54:34+02:00</time>
        <extensions>
          <gpxtpx:TrackPointExtension xmlns:gpxtpx="http://www.garmin.com/xmlschemas/TrackPointExtension/v1">
            <gpxtpx:hr>147</gpxtpx:hr>
          </gpxtpx:TrackPointExtension>
        </extensions>
      </trkpt>
      <trkpt lat="46.19118" lon="4.78318">
        <ele>168.5</ele>
        <time>2026-05-13T13:54:35+02:00</time>
        <extensions>
          <gpxtpx:TrackPointExtension xmlns:gpxtpx="http://www.garmin.com/xmlschemas/TrackPointExtension/v1">
            <gpxtpx:hr>147</gpxtpx:hr>
          </gpxtpx:TrackPointExtension>
        </extensions>
      </trkpt>
      <trkpt lat="46.19122" lon="4.78323">
        <ele>168.5</ele>
        <time>2026-05-13T13:54:36+02:00</time>
        <extensions>
          <gpxtpx:TrackPointExtension xmlns:gpxtpx="http://www.garmin.com/xmlschemas/TrackPointExtension/v1">
            <gpxtpx:hr>148</gpxtpx:hr>
          </gpxtpx:TrackPointExtension>
        </extensions>
      </trkpt>
      <trkpt lat="46.19127" lon="4.78327">
        <ele>168.60059</ele>
        <time>2026-05-13T13:54:37+02:00</time>
        <extensions>
          <gpxtpx:TrackPointExtension xmlns:gpxtpx="http://www.garmin.com/xmlschemas/TrackPointExtension/v1">
            <gpxtpx:hr>147</gpxtpx:hr>
          </gpxtpx:TrackPointExtension>
        </extensions>
      </trkpt>
      <trkpt lat="46.19131" lon="4.78331">
        <ele>168.60059</ele>
        <time>2026-05-13T13:54:38+02:00</time>
        <extensions>
          <gpxtpx:TrackPointExtension xmlns:gpxtpx="http://www.garmin.com/xmlschemas/TrackPointExtension/v1">
            <gpxtpx:hr>147</gpxtpx:hr>
          </gpxtpx:TrackPointExtension>
        </extensions>
      </trkpt>
      <trkpt lat="46.19135" lon="4.78335">
        <ele>168.7002</ele>
        <time>2026-05-13T13:54:39+02:00</time>
        <extensions>
          <gpxtpx:TrackPointExtension xmlns:gpxtpx="http://www.garmin.com/xmlschemas/TrackPointExtension/v1">
            <gpxtpx:hr>148</gpxtpx:hr>
          </gpxtpx:TrackPointExtension>
        </extensions>
      </trkpt>
      <trkpt lat="46.19139" lon="4.78339">
        <ele>168.60059</ele>
        <time>2026-05-13T13:54:40+02:00</time>
        <extensions>
          <gpxtpx:TrackPointExtension xmlns:gpxtpx="http://www.garmin.com/xmlschemas/TrackPointExtension/v1">
            <gpxtpx:hr>148</gpxtpx:hr>
          </gpxtpx:TrackPointExtension>
        </extensions>
      </trkpt>
      <trkpt lat="46.19143" lon="4.78343">
        <ele>168.7002</ele>
        <time>2026-05-13T13:54:41+02:00</time>
        <extensions>
          <gpxtpx:TrackPointExtension xmlns:gpxtpx="http://www.garmin.com/xmlschemas/TrackPointExtension/v1">
            <gpxtpx:hr>148</gpxtpx:hr>
          </gpxtpx:TrackPointExtension>
        </extensions>
      </trkpt>
      <trkpt lat="46.19148" lon="4.78347">
        <ele>168.60059</ele>
        <time>2026-05-13T13:54:42+02:00</time>
        <extensions>
          <gpxtpx:TrackPointExtension xmlns:gpxtpx="http://www.garmin.com/xmlschemas/TrackPointExtension/v1">
            <gpxtpx:hr>148</gpxtpx:hr>
          </gpxtpx:TrackPointExtension>
        </extensions>
      </trkpt>
      <trkpt lat="46.19152" lon="4.78351">
        <ele>168.60059</ele>
        <time>2026-05-13T13:54:43+02:00</time>
        <extensions>
          <gpxtpx:TrackPointExtension xmlns:gpxtpx="http://www.garmin.com/xmlschemas/TrackPointExtension/v1">
            <gpxtpx:hr>148</gpxtpx:hr>
          </gpxtpx:TrackPointExtension>
        </extensions>
      </trkpt>
      <trkpt lat="46.19156" lon="4.78355">
        <ele>168.60059</ele>
        <time>2026-05-13T13:54:44+02:00</time>
        <extensions>
          <gpxtpx:TrackPointExtension xmlns:gpxtpx="http://www.garmin.com/xmlschemas/TrackPointExtension/v1">
            <gpxtpx:hr>148</gpxtpx:hr>
          </gpxtpx:TrackPointExtension>
        </extensions>
      </trkpt>
      <trkpt lat="46.1916" lon="4.78359">
        <ele>168.60059</ele>
        <time>2026-05-13T13:54:45+02:00</time>
        <extensions>
          <gpxtpx:TrackPointExtension xmlns:gpxtpx="http://www.garmin.com/xmlschemas/TrackPointExtension/v1">
            <gpxtpx:hr>148</gpxtpx:hr>
          </gpxtpx:TrackPointExtension>
        </extensions>
      </trkpt>
      <trkpt lat="46.19164" lon="4.78364">
        <ele>168.7002</ele>
        <time>2026-05-13T13:54:46+02:00</time>
        <extensions>
          <gpxtpx:TrackPointExtension xmlns:gpxtpx="http://www.garmin.com/xmlschemas/TrackPointExtension/v1">
            <gpxtpx:hr>148</gpxtpx:hr>
          </gpxtpx:TrackPointExtension>
        </extensions>
      </trkpt>
      <trkpt lat="46.19169" lon="4.78368">
        <ele>168.60059</ele>
        <time>2026-05-13T13:54:47+02:00</time>
        <extensions>
          <gpxtpx:TrackPointExtension xmlns:gpxtpx="http://www.garmin.com/xmlschemas/TrackPointExtension/v1">
            <gpxtpx:hr>148</gpxtpx:hr>
          </gpxtpx:TrackPointExtension>
        </extensions>
      </trkpt>
      <trkpt lat="46.19172" lon="4.78372">
        <ele>168.60059</ele>
        <time>2026-05-13T13:54:48+02:00</time>
        <extensions>
          <gpxtpx:TrackPointExtension xmlns:gpxtpx="http://www.garmin.com/xmlschemas/TrackPointExtension/v1">
            <gpxtpx:hr>148</gpxtpx:hr>
          </gpxtpx:TrackPointExtension>
        </extensions>
      </trkpt>
      <trkpt lat="46.19177" lon="4.78376">
        <ele>168.60059</ele>
        <time>2026-05-13T13:54:49+02:00</time>
        <extensions>
          <gpxtpx:TrackPointExtension xmlns:gpxtpx="http://www.garmin.com/xmlschemas/TrackPointExtension/v1">
            <gpxtpx:hr>148</gpxtpx:hr>
          </gpxtpx:TrackPointExtension>
        </extensions>
      </trkpt>
      <trkpt lat="46.19182" lon="4.78381">
        <ele>168.60059</ele>
        <time>2026-05-13T13:54:50+02:00</time>
        <extensions>
          <gpxtpx:TrackPointExtension xmlns:gpxtpx="http://www.garmin.com/xmlschemas/TrackPointExtension/v1">
            <gpxtpx:hr>148</gpxtpx:hr>
          </gpxtpx:TrackPointExtension>
        </extensions>
      </trkpt>
      <trkpt lat="46.19186" lon="4.78385">
        <ele>168.5</ele>
        <time>2026-05-13T13:54:51+02:00</time>
        <extensions>
          <gpxtpx:TrackPointExtension xmlns:gpxtpx="http://www.garmin.com/xmlschemas/TrackPointExtension/v1">
            <gpxtpx:hr>148</gpxtpx:hr>
          </gpxtpx:TrackPointExtension>
        </extensions>
      </trkpt>
      <trkpt lat="46.1919" lon="4.78389">
        <ele>168.5</ele>
        <time>2026-05-13T13:54:52+02:00</time>
        <extensions>
          <gpxtpx:TrackPointExtension xmlns:gpxtpx="http://www.garmin.com/xmlschemas/TrackPointExtension/v1">
            <gpxtpx:hr>148</gpxtpx:hr>
          </gpxtpx:TrackPointExtension>
        </extensions>
      </trkpt>
      <trkpt lat="46.19194" lon="4.78394">
        <ele>168.5</ele>
        <time>2026-05-13T13:54:53+02:00</time>
        <extensions>
          <gpxtpx:TrackPointExtension xmlns:gpxtpx="http://www.garmin.com/xmlschemas/TrackPointExtension/v1">
            <gpxtpx:hr>149</gpxtpx:hr>
          </gpxtpx:TrackPointExtension>
        </extensions>
      </trkpt>
      <trkpt lat="46.19199" lon="4.78398">
        <ele>168.5</ele>
        <time>2026-05-13T13:54:54+02:00</time>
        <extensions>
          <gpxtpx:TrackPointExtension xmlns:gpxtpx="http://www.garmin.com/xmlschemas/TrackPointExtension/v1">
            <gpxtpx:hr>149</gpxtpx:hr>
          </gpxtpx:TrackPointExtension>
        </extensions>
      </trkpt>
      <trkpt lat="46.19203" lon="4.78403">
        <ele>168.40039</ele>
        <time>2026-05-13T13:54:55+02:00</time>
        <extensions>
          <gpxtpx:TrackPointExtension xmlns:gpxtpx="http://www.garmin.com/xmlschemas/TrackPointExtension/v1">
            <gpxtpx:hr>149</gpxtpx:hr>
          </gpxtpx:TrackPointExtension>
        </extensions>
      </trkpt>
      <trkpt lat="46.19208" lon="4.78407">
        <ele>168.40039</ele>
        <time>2026-05-13T13:54:56+02:00</time>
        <extensions>
          <gpxtpx:TrackPointExtension xmlns:gpxtpx="http://www.garmin.com/xmlschemas/TrackPointExtension/v1">
            <gpxtpx:hr>149</gpxtpx:hr>
          </gpxtpx:TrackPointExtension>
        </extensions>
      </trkpt>
      <trkpt lat="46.19212" lon="4.78411">
        <ele>168.40039</ele>
        <time>2026-05-13T13:54:57+02:00</time>
        <extensions>
          <gpxtpx:TrackPointExtension xmlns:gpxtpx="http://www.garmin.com/xmlschemas/TrackPointExtension/v1">
            <gpxtpx:hr>149</gpxtpx:hr>
          </gpxtpx:TrackPointExtension>
        </extensions>
      </trkpt>
      <trkpt lat="46.19216" lon="4.78416">
        <ele>168.40039</ele>
        <time>2026-05-13T13:54:58+02:00</time>
        <extensions>
          <gpxtpx:TrackPointExtension xmlns:gpxtpx="http://www.garmin.com/xmlschemas/TrackPointExtension/v1">
            <gpxtpx:hr>149</gpxtpx:hr>
          </gpxtpx:TrackPointExtension>
        </extensions>
      </trkpt>
      <trkpt lat="46.19221" lon="4.7842">
        <ele>168.2998</ele>
        <time>2026-05-13T13:54:59+02:00</time>
        <extensions>
          <gpxtpx:TrackPointExtension xmlns:gpxtpx="http://www.garmin.com/xmlschemas/TrackPointExtension/v1">
            <gpxtpx:hr>149</gpxtpx:hr>
          </gpxtpx:TrackPointExtension>
        </extensions>
      </trkpt>
      <trkpt lat="46.19225" lon="4.78424">
        <ele>168.40039</ele>
        <time>2026-05-13T13:55:00+02:00</time>
        <extensions>
          <gpxtpx:TrackPointExtension xmlns:gpxtpx="http://www.garmin.com/xmlschemas/TrackPointExtension/v1">
            <gpxtpx:hr>149</gpxtpx:hr>
          </gpxtpx:TrackPointExtension>
        </extensions>
      </trkpt>
      <trkpt lat="46.1923" lon="4.78428">
        <ele>168.40039</ele>
        <time>2026-05-13T13:55:01+02:00</time>
        <extensions>
          <gpxtpx:TrackPointExtension xmlns:gpxtpx="http://www.garmin.com/xmlschemas/TrackPointExtension/v1">
            <gpxtpx:hr>150</gpxtpx:hr>
          </gpxtpx:TrackPointExtension>
        </extensions>
      </trkpt>
      <trkpt lat="46.19234" lon="4.78433">
        <ele>168.40039</ele>
        <time>2026-05-13T13:55:02+02:00</time>
        <extensions>
          <gpxtpx:TrackPointExtension xmlns:gpxtpx="http://www.garmin.com/xmlschemas/TrackPointExtension/v1">
            <gpxtpx:hr>150</gpxtpx:hr>
          </gpxtpx:TrackPointExtension>
        </extensions>
      </trkpt>
      <trkpt lat="46.19238" lon="4.78437">
        <ele>168.2998</ele>
        <time>2026-05-13T13:55:03+02:00</time>
        <extensions>
          <gpxtpx:TrackPointExtension xmlns:gpxtpx="http://www.garmin.com/xmlschemas/TrackPointExtension/v1">
            <gpxtpx:hr>150</gpxtpx:hr>
          </gpxtpx:TrackPointExtension>
        </extensions>
      </trkpt>
      <trkpt lat="46.19243" lon="4.78441">
        <ele>168.40039</ele>
        <time>2026-05-13T13:55:04+02:00</time>
        <extensions>
          <gpxtpx:TrackPointExtension xmlns:gpxtpx="http://www.garmin.com/xmlschemas/TrackPointExtension/v1">
            <gpxtpx:hr>150</gpxtpx:hr>
          </gpxtpx:TrackPointExtension>
        </extensions>
      </trkpt>
      <trkpt lat="46.19247" lon="4.78446">
        <ele>168.40039</ele>
        <time>2026-05-13T13:55:05+02:00</time>
        <extensions>
          <gpxtpx:TrackPointExtension xmlns:gpxtpx="http://www.garmin.com/xmlschemas/TrackPointExtension/v1">
            <gpxtpx:hr>150</gpxtpx:hr>
          </gpxtpx:TrackPointExtension>
        </extensions>
      </trkpt>
      <trkpt lat="46.19252" lon="4.7845">
        <ele>168.40039</ele>
        <time>2026-05-13T13:55:06+02:00</time>
        <extensions>
          <gpxtpx:TrackPointExtension xmlns:gpxtpx="http://www.garmin.com/xmlschemas/TrackPointExtension/v1">
            <gpxtpx:hr>150</gpxtpx:hr>
          </gpxtpx:TrackPointExtension>
        </extensions>
      </trkpt>
      <trkpt lat="46.19256" lon="4.78454">
        <ele>168.40039</ele>
        <time>2026-05-13T13:55:07+02:00</time>
        <extensions>
          <gpxtpx:TrackPointExtension xmlns:gpxtpx="http://www.garmin.com/xmlschemas/TrackPointExtension/v1">
            <gpxtpx:hr>150</gpxtpx:hr>
          </gpxtpx:TrackPointExtension>
        </extensions>
      </trkpt>
      <trkpt lat="46.19261" lon="4.78458">
        <ele>168.40039</ele>
        <time>2026-05-13T13:55:08+02:00</time>
        <extensions>
          <gpxtpx:TrackPointExtension xmlns:gpxtpx="http://www.garmin.com/xmlschemas/TrackPointExtension/v1">
            <gpxtpx:hr>150</gpxtpx:hr>
          </gpxtpx:TrackPointExtension>
        </extensions>
      </trkpt>
      <trkpt lat="46.19265" lon="4.78463">
        <ele>168.40039</ele>
        <time>2026-05-13T13:55:09+02:00</time>
        <extensions>
          <gpxtpx:TrackPointExtension xmlns:gpxtpx="http://www.garmin.com/xmlschemas/TrackPointExtension/v1">
            <gpxtpx:hr>150</gpxtpx:hr>
          </gpxtpx:TrackPointExtension>
        </extensions>
      </trkpt>
      <trkpt lat="46.19269" lon="4.78467">
        <ele>168.40039</ele>
        <time>2026-05-13T13:55:10+02:00</time>
        <extensions>
          <gpxtpx:TrackPointExtension xmlns:gpxtpx="http://www.garmin.com/xmlschemas/TrackPointExtension/v1">
            <gpxtpx:hr>150</gpxtpx:hr>
          </gpxtpx:TrackPointExtension>
        </extensions>
      </trkpt>
      <trkpt lat="46.19274" lon="4.78472">
        <ele>168.5</ele>
        <time>2026-05-13T13:55:11+02:00</time>
        <extensions>
          <gpxtpx:TrackPointExtension xmlns:gpxtpx="http://www.garmin.com/xmlschemas/TrackPointExtension/v1">
            <gpxtpx:hr>150</gpxtpx:hr>
          </gpxtpx:TrackPointExtension>
        </extensions>
      </trkpt>
      <trkpt lat="46.19278" lon="4.78476">
        <ele>168.5</ele>
        <time>2026-05-13T13:55:12+02:00</time>
        <extensions>
          <gpxtpx:TrackPointExtension xmlns:gpxtpx="http://www.garmin.com/xmlschemas/TrackPointExtension/v1">
            <gpxtpx:hr>150</gpxtpx:hr>
          </gpxtpx:TrackPointExtension>
        </extensions>
      </trkpt>
      <trkpt lat="46.19283" lon="4.7848">
        <ele>168.40039</ele>
        <time>2026-05-13T13:55:13+02:00</time>
        <extensions>
          <gpxtpx:TrackPointExtension xmlns:gpxtpx="http://www.garmin.com/xmlschemas/TrackPointExtension/v1">
            <gpxtpx:hr>150</gpxtpx:hr>
          </gpxtpx:TrackPointExtension>
        </extensions>
      </trkpt>
      <trkpt lat="46.19287" lon="4.78485">
        <ele>168.40039</ele>
        <time>2026-05-13T13:55:14+02:00</time>
        <extensions>
          <gpxtpx:TrackPointExtension xmlns:gpxtpx="http://www.garmin.com/xmlschemas/TrackPointExtension/v1">
            <gpxtpx:hr>150</gpxtpx:hr>
          </gpxtpx:TrackPointExtension>
        </extensions>
      </trkpt>
      <trkpt lat="46.19291" lon="4.78489">
        <ele>168.40039</ele>
        <time>2026-05-13T13:55:15+02:00</time>
        <extensions>
          <gpxtpx:TrackPointExtension xmlns:gpxtpx="http://www.garmin.com/xmlschemas/TrackPointExtension/v1">
            <gpxtpx:hr>150</gpxtpx:hr>
          </gpxtpx:TrackPointExtension>
        </extensions>
      </trkpt>
      <trkpt lat="46.19296" lon="4.78493">
        <ele>168.40039</ele>
        <time>2026-05-13T13:55:16+02:00</time>
        <extensions>
          <gpxtpx:TrackPointExtension xmlns:gpxtpx="http://www.garmin.com/xmlschemas/TrackPointExtension/v1">
            <gpxtpx:hr>150</gpxtpx:hr>
          </gpxtpx:TrackPointExtension>
        </extensions>
      </trkpt>
      <trkpt lat="46.19301" lon="4.78498">
        <ele>168.40039</ele>
        <time>2026-05-13T13:55:17+02:00</time>
        <extensions>
          <gpxtpx:TrackPointExtension xmlns:gpxtpx="http://www.garmin.com/xmlschemas/TrackPointExtension/v1">
            <gpxtpx:hr>150</gpxtpx:hr>
          </gpxtpx:TrackPointExtension>
        </extensions>
      </trkpt>
      <trkpt lat="46.19305" lon="4.78502">
        <ele>168.2998</ele>
        <time>2026-05-13T13:55:18+02:00</time>
        <extensions>
          <gpxtpx:TrackPointExtension xmlns:gpxtpx="http://www.garmin.com/xmlschemas/TrackPointExtension/v1">
            <gpxtpx:hr>150</gpxtpx:hr>
          </gpxtpx:TrackPointExtension>
        </extensions>
      </trkpt>
      <trkpt lat="46.1931" lon="4.78507">
        <ele>168.2998</ele>
        <time>2026-05-13T13:55:19+02:00</time>
        <extensions>
          <gpxtpx:TrackPointExtension xmlns:gpxtpx="http://www.garmin.com/xmlschemas/TrackPointExtension/v1">
            <gpxtpx:hr>150</gpxtpx:hr>
          </gpxtpx:TrackPointExtension>
        </extensions>
      </trkpt>
      <trkpt lat="46.19314" lon="4.78511">
        <ele>168.2998</ele>
        <time>2026-05-13T13:55:20+02:00</time>
        <extensions>
          <gpxtpx:TrackPointExtension xmlns:gpxtpx="http://www.garmin.com/xmlschemas/TrackPointExtension/v1">
            <gpxtpx:hr>150</gpxtpx:hr>
          </gpxtpx:TrackPointExtension>
        </extensions>
      </trkpt>
      <trkpt lat="46.19319" lon="4.78516">
        <ele>168.2998</ele>
        <time>2026-05-13T13:55:21+02:00</time>
        <extensions>
          <gpxtpx:TrackPointExtension xmlns:gpxtpx="http://www.garmin.com/xmlschemas/TrackPointExtension/v1">
            <gpxtpx:hr>150</gpxtpx:hr>
          </gpxtpx:TrackPointExtension>
        </extensions>
      </trkpt>
      <trkpt lat="46.19323" lon="4.7852">
        <ele>168.2998</ele>
        <time>2026-05-13T13:55:22+02:00</time>
        <extensions>
          <gpxtpx:TrackPointExtension xmlns:gpxtpx="http://www.garmin.com/xmlschemas/TrackPointExtension/v1">
            <gpxtpx:hr>150</gpxtpx:hr>
          </gpxtpx:TrackPointExtension>
        </extensions>
      </trkpt>
      <trkpt lat="46.19328" lon="4.78524">
        <ele>168.2998</ele>
        <time>2026-05-13T13:55:23+02:00</time>
        <extensions>
          <gpxtpx:TrackPointExtension xmlns:gpxtpx="http://www.garmin.com/xmlschemas/TrackPointExtension/v1">
            <gpxtpx:hr>150</gpxtpx:hr>
          </gpxtpx:TrackPointExtension>
        </extensions>
      </trkpt>
      <trkpt lat="46.19332" lon="4.78529">
        <ele>168.2998</ele>
        <time>2026-05-13T13:55:24+02:00</time>
        <extensions>
          <gpxtpx:TrackPointExtension xmlns:gpxtpx="http://www.garmin.com/xmlschemas/TrackPointExtension/v1">
            <gpxtpx:hr>151</gpxtpx:hr>
          </gpxtpx:TrackPointExtension>
        </extensions>
      </trkpt>
      <trkpt lat="46.19336" lon="4.78533">
        <ele>168.2998</ele>
        <time>2026-05-13T13:55:25+02:00</time>
        <extensions>
          <gpxtpx:TrackPointExtension xmlns:gpxtpx="http://www.garmin.com/xmlschemas/TrackPointExtension/v1">
            <gpxtpx:hr>150</gpxtpx:hr>
          </gpxtpx:TrackPointExtension>
        </extensions>
      </trkpt>
      <trkpt lat="46.19341" lon="4.78538">
        <ele>168.2998</ele>
        <time>2026-05-13T13:55:26+02:00</time>
        <extensions>
          <gpxtpx:TrackPointExtension xmlns:gpxtpx="http://www.garmin.com/xmlschemas/TrackPointExtension/v1">
            <gpxtpx:hr>150</gpxtpx:hr>
          </gpxtpx:TrackPointExtension>
        </extensions>
      </trkpt>
      <trkpt lat="46.19346" lon="4.78542">
        <ele>168.2998</ele>
        <time>2026-05-13T13:55:27+02:00</time>
        <extensions>
          <gpxtpx:TrackPointExtension xmlns:gpxtpx="http://www.garmin.com/xmlschemas/TrackPointExtension/v1">
            <gpxtpx:hr>150</gpxtpx:hr>
          </gpxtpx:TrackPointExtension>
        </extensions>
      </trkpt>
      <trkpt lat="46.1935" lon="4.78547">
        <ele>168.2998</ele>
        <time>2026-05-13T13:55:28+02:00</time>
        <extensions>
          <gpxtpx:TrackPointExtension xmlns:gpxtpx="http://www.garmin.com/xmlschemas/TrackPointExtension/v1">
            <gpxtpx:hr>150</gpxtpx:hr>
          </gpxtpx:TrackPointExtension>
        </extensions>
      </trkpt>
      <trkpt lat="46.19355" lon="4.78551">
        <ele>168.2998</ele>
        <time>2026-05-13T13:55:29+02:00</time>
        <extensions>
          <gpxtpx:TrackPointExtension xmlns:gpxtpx="http://www.garmin.com/xmlschemas/TrackPointExtension/v1">
            <gpxtpx:hr>150</gpxtpx:hr>
          </gpxtpx:TrackPointExtension>
        </extensions>
      </trkpt>
      <trkpt lat="46.19359" lon="4.78556">
        <ele>168.2998</ele>
        <time>2026-05-13T13:55:30+02:00</time>
        <extensions>
          <gpxtpx:TrackPointExtension xmlns:gpxtpx="http://www.garmin.com/xmlschemas/TrackPointExtension/v1">
            <gpxtpx:hr>151</gpxtpx:hr>
          </gpxtpx:TrackPointExtension>
        </extensions>
      </trkpt>
      <trkpt lat="46.19364" lon="4.7856">
        <ele>168.2998</ele>
        <time>2026-05-13T13:55:31+02:00</time>
        <extensions>
          <gpxtpx:TrackPointExtension xmlns:gpxtpx="http://www.garmin.com/xmlschemas/TrackPointExtension/v1">
            <gpxtpx:hr>151</gpxtpx:hr>
          </gpxtpx:TrackPointExtension>
        </extensions>
      </trkpt>
      <trkpt lat="46.19368" lon="4.78565">
        <ele>168.2998</ele>
        <time>2026-05-13T13:55:32+02:00</time>
        <extensions>
          <gpxtpx:TrackPointExtension xmlns:gpxtpx="http://www.garmin.com/xmlschemas/TrackPointExtension/v1">
            <gpxtpx:hr>151</gpxtpx:hr>
          </gpxtpx:TrackPointExtension>
        </extensions>
      </trkpt>
      <trkpt lat="46.19372" lon="4.78569">
        <ele>168.2998</ele>
        <time>2026-05-13T13:55:33+02:00</time>
        <extensions>
          <gpxtpx:TrackPointExtension xmlns:gpxtpx="http://www.garmin.com/xmlschemas/TrackPointExtension/v1">
            <gpxtpx:hr>150</gpxtpx:hr>
          </gpxtpx:TrackPointExtension>
        </extensions>
      </trkpt>
      <trkpt lat="46.19377" lon="4.78574">
        <ele>168.2998</ele>
        <time>2026-05-13T13:55:34+02:00</time>
        <extensions>
          <gpxtpx:TrackPointExtension xmlns:gpxtpx="http://www.garmin.com/xmlschemas/TrackPointExtension/v1">
            <gpxtpx:hr>150</gpxtpx:hr>
          </gpxtpx:TrackPointExtension>
        </extensions>
      </trkpt>
      <trkpt lat="46.19381" lon="4.78578">
        <ele>168.2998</ele>
        <time>2026-05-13T13:55:35+02:00</time>
        <extensions>
          <gpxtpx:TrackPointExtension xmlns:gpxtpx="http://www.garmin.com/xmlschemas/TrackPointExtension/v1">
            <gpxtpx:hr>150</gpxtpx:hr>
          </gpxtpx:TrackPointExtension>
        </extensions>
      </trkpt>
      <trkpt lat="46.19386" lon="4.78583">
        <ele>168.2998</ele>
        <time>2026-05-13T13:55:36+02:00</time>
        <extensions>
          <gpxtpx:TrackPointExtension xmlns:gpxtpx="http://www.garmin.com/xmlschemas/TrackPointExtension/v1">
            <gpxtpx:hr>150</gpxtpx:hr>
          </gpxtpx:TrackPointExtension>
        </extensions>
      </trkpt>
      <trkpt lat="46.1939" lon="4.78588">
        <ele>168.40039</ele>
        <time>2026-05-13T13:55:37+02:00</time>
        <extensions>
          <gpxtpx:TrackPointExtension xmlns:gpxtpx="http://www.garmin.com/xmlschemas/TrackPointExtension/v1">
            <gpxtpx:hr>150</gpxtpx:hr>
          </gpxtpx:TrackPointExtension>
        </extensions>
      </trkpt>
      <trkpt lat="46.19395" lon="4.78592">
        <ele>168.5</ele>
        <time>2026-05-13T13:55:38+02:00</time>
        <extensions>
          <gpxtpx:TrackPointExtension xmlns:gpxtpx="http://www.garmin.com/xmlschemas/TrackPointExtension/v1">
            <gpxtpx:hr>150</gpxtpx:hr>
          </gpxtpx:TrackPointExtension>
        </extensions>
      </trkpt>
      <trkpt lat="46.194" lon="4.78597">
        <ele>168.40039</ele>
        <time>2026-05-13T13:55:39+02:00</time>
        <extensions>
          <gpxtpx:TrackPointExtension xmlns:gpxtpx="http://www.garmin.com/xmlschemas/TrackPointExtension/v1">
            <gpxtpx:hr>150</gpxtpx:hr>
          </gpxtpx:TrackPointExtension>
        </extensions>
      </trkpt>
      <trkpt lat="46.19404" lon="4.78602">
        <ele>168.5</ele>
        <time>2026-05-13T13:55:40+02:00</time>
        <extensions>
          <gpxtpx:TrackPointExtension xmlns:gpxtpx="http://www.garmin.com/xmlschemas/TrackPointExtension/v1">
            <gpxtpx:hr>150</gpxtpx:hr>
          </gpxtpx:TrackPointExtension>
        </extensions>
      </trkpt>
      <trkpt lat="46.19409" lon="4.78607">
        <ele>168.40039</ele>
        <time>2026-05-13T13:55:41+02:00</time>
        <extensions>
          <gpxtpx:TrackPointExtension xmlns:gpxtpx="http://www.garmin.com/xmlschemas/TrackPointExtension/v1">
            <gpxtpx:hr>151</gpxtpx:hr>
          </gpxtpx:TrackPointExtension>
        </extensions>
      </trkpt>
      <trkpt lat="46.19413" lon="4.78612">
        <ele>168.60059</ele>
        <time>2026-05-13T13:55:42+02:00</time>
        <extensions>
          <gpxtpx:TrackPointExtension xmlns:gpxtpx="http://www.garmin.com/xmlschemas/TrackPointExtension/v1">
            <gpxtpx:hr>151</gpxtpx:hr>
          </gpxtpx:TrackPointExtension>
        </extensions>
      </trkpt>
      <trkpt lat="46.19418" lon="4.78617">
        <ele>168.5</ele>
        <time>2026-05-13T13:55:43+02:00</time>
        <extensions>
          <gpxtpx:TrackPointExtension xmlns:gpxtpx="http://www.garmin.com/xmlschemas/TrackPointExtension/v1">
            <gpxtpx:hr>151</gpxtpx:hr>
          </gpxtpx:TrackPointExtension>
        </extensions>
      </trkpt>
      <trkpt lat="46.19422" lon="4.78622">
        <ele>168.60059</ele>
        <time>2026-05-13T13:55:44+02:00</time>
        <extensions>
          <gpxtpx:TrackPointExtension xmlns:gpxtpx="http://www.garmin.com/xmlschemas/TrackPointExtension/v1">
            <gpxtpx:hr>151</gpxtpx:hr>
          </gpxtpx:TrackPointExtension>
        </extensions>
      </trkpt>
      <trkpt lat="46.19427" lon="4.78627">
        <ele>168.7002</ele>
        <time>2026-05-13T13:55:45+02:00</time>
        <extensions>
          <gpxtpx:TrackPointExtension xmlns:gpxtpx="http://www.garmin.com/xmlschemas/TrackPointExtension/v1">
            <gpxtpx:hr>151</gpxtpx:hr>
          </gpxtpx:TrackPointExtension>
        </extensions>
      </trkpt>
      <trkpt lat="46.19431" lon="4.78631">
        <ele>168.7002</ele>
        <time>2026-05-13T13:55:46+02:00</time>
        <extensions>
          <gpxtpx:TrackPointExtension xmlns:gpxtpx="http://www.garmin.com/xmlschemas/TrackPointExtension/v1">
            <gpxtpx:hr>152</gpxtpx:hr>
          </gpxtpx:TrackPointExtension>
        </extensions>
      </trkpt>
      <trkpt lat="46.19436" lon="4.78636">
        <ele>168.7002</ele>
        <time>2026-05-13T13:55:47+02:00</time>
        <extensions>
          <gpxtpx:TrackPointExtension xmlns:gpxtpx="http://www.garmin.com/xmlschemas/TrackPointExtension/v1">
            <gpxtpx:hr>152</gpxtpx:hr>
          </gpxtpx:TrackPointExtension>
        </extensions>
      </trkpt>
      <trkpt lat="46.19441" lon="4.78642">
        <ele>168.5</ele>
        <time>2026-05-13T13:55:48+02:00</time>
        <extensions>
          <gpxtpx:TrackPointExtension xmlns:gpxtpx="http://www.garmin.com/xmlschemas/TrackPointExtension/v1">
            <gpxtpx:hr>153</gpxtpx:hr>
          </gpxtpx:TrackPointExtension>
        </extensions>
      </trkpt>
      <trkpt lat="46.19445" lon="4.78647">
        <ele>168.60059</ele>
        <time>2026-05-13T13:55:49+02:00</time>
        <extensions>
          <gpxtpx:TrackPointExtension xmlns:gpxtpx="http://www.garmin.com/xmlschemas/TrackPointExtension/v1">
            <gpxtpx:hr>152</gpxtpx:hr>
          </gpxtpx:TrackPointExtension>
        </extensions>
      </trkpt>
      <trkpt lat="46.1945" lon="4.78652">
        <ele>168.7998</ele>
        <time>2026-05-13T13:55:50+02:00</time>
        <extensions>
          <gpxtpx:TrackPointExtension xmlns:gpxtpx="http://www.garmin.com/xmlschemas/TrackPointExtension/v1">
            <gpxtpx:hr>153</gpxtpx:hr>
          </gpxtpx:TrackPointExtension>
        </extensions>
      </trkpt>
      <trkpt lat="46.19454" lon="4.78658">
        <ele>168.60059</ele>
        <time>2026-05-13T13:55:51+02:00</time>
        <extensions>
          <gpxtpx:TrackPointExtension xmlns:gpxtpx="http://www.garmin.com/xmlschemas/TrackPointExtension/v1">
            <gpxtpx:hr>153</gpxtpx:hr>
          </gpxtpx:TrackPointExtension>
        </extensions>
      </trkpt>
      <trkpt lat="46.19459" lon="4.78663">
        <ele>168.60059</ele>
        <time>2026-05-13T13:55:52+02:00</time>
        <extensions>
          <gpxtpx:TrackPointExtension xmlns:gpxtpx="http://www.garmin.com/xmlschemas/TrackPointExtension/v1">
            <gpxtpx:hr>154</gpxtpx:hr>
          </gpxtpx:TrackPointExtension>
        </extensions>
      </trkpt>
      <trkpt lat="46.19463" lon="4.78668">
        <ele>168.5</ele>
        <time>2026-05-13T13:55:53+02:00</time>
        <extensions>
          <gpxtpx:TrackPointExtension xmlns:gpxtpx="http://www.garmin.com/xmlschemas/TrackPointExtension/v1">
            <gpxtpx:hr>154</gpxtpx:hr>
          </gpxtpx:TrackPointExtension>
        </extensions>
      </trkpt>
      <trkpt lat="46.19468" lon="4.78673">
        <ele>168.60059</ele>
        <time>2026-05-13T13:55:54+02:00</time>
        <extensions>
          <gpxtpx:TrackPointExtension xmlns:gpxtpx="http://www.garmin.com/xmlschemas/TrackPointExtension/v1">
            <gpxtpx:hr>153</gpxtpx:hr>
          </gpxtpx:TrackPointExtension>
        </extensions>
      </trkpt>
      <trkpt lat="46.19472" lon="4.78679">
        <ele>168.7998</ele>
        <time>2026-05-13T13:55:55+02:00</time>
        <extensions>
          <gpxtpx:TrackPointExtension xmlns:gpxtpx="http://www.garmin.com/xmlschemas/TrackPointExtension/v1">
            <gpxtpx:hr>154</gpxtpx:hr>
          </gpxtpx:TrackPointExtension>
        </extensions>
      </trkpt>
      <trkpt lat="46.19477" lon="4.78684">
        <ele>168.60059</ele>
        <time>2026-05-13T13:55:56+02:00</time>
        <extensions>
          <gpxtpx:TrackPointExtension xmlns:gpxtpx="http://www.garmin.com/xmlschemas/TrackPointExtension/v1">
            <gpxtpx:hr>154</gpxtpx:hr>
          </gpxtpx:TrackPointExtension>
        </extensions>
      </trkpt>
      <trkpt lat="46.19481" lon="4.7869">
        <ele>168.7002</ele>
        <time>2026-05-13T13:55:57+02:00</time>
        <extensions>
          <gpxtpx:TrackPointExtension xmlns:gpxtpx="http://www.garmin.com/xmlschemas/TrackPointExtension/v1">
            <gpxtpx:hr>153</gpxtpx:hr>
          </gpxtpx:TrackPointExtension>
        </extensions>
      </trkpt>
      <trkpt lat="46.19486" lon="4.78695">
        <ele>168.90039</ele>
        <time>2026-05-13T13:55:58+02:00</time>
        <extensions>
          <gpxtpx:TrackPointExtension xmlns:gpxtpx="http://www.garmin.com/xmlschemas/TrackPointExtension/v1">
            <gpxtpx:hr>153</gpxtpx:hr>
          </gpxtpx:TrackPointExtension>
        </extensions>
      </trkpt>
      <trkpt lat="46.19491" lon="4.78701">
        <ele>168.7998</ele>
        <time>2026-05-13T13:55:59+02:00</time>
        <extensions>
          <gpxtpx:TrackPointExtension xmlns:gpxtpx="http://www.garmin.com/xmlschemas/TrackPointExtension/v1">
            <gpxtpx:hr>153</gpxtpx:hr>
          </gpxtpx:TrackPointExtension>
        </extensions>
      </trkpt>
      <trkpt lat="46.19496" lon="4.78706">
        <ele>168.7998</ele>
        <time>2026-05-13T13:56:00+02:00</time>
        <extensions>
          <gpxtpx:TrackPointExtension xmlns:gpxtpx="http://www.garmin.com/xmlschemas/TrackPointExtension/v1">
            <gpxtpx:hr>153</gpxtpx:hr>
          </gpxtpx:TrackPointExtension>
        </extensions>
      </trkpt>
      <trkpt lat="46.195" lon="4.78712">
        <ele>168.7002</ele>
        <time>2026-05-13T13:56:01+02:00</time>
        <extensions>
          <gpxtpx:TrackPointExtension xmlns:gpxtpx="http://www.garmin.com/xmlschemas/TrackPointExtension/v1">
            <gpxtpx:hr>153</gpxtpx:hr>
          </gpxtpx:TrackPointExtension>
        </extensions>
      </trkpt>
      <trkpt lat="46.19504" lon="4.78717">
        <ele>168.90039</ele>
        <time>2026-05-13T13:56:02+02:00</time>
        <extensions>
          <gpxtpx:TrackPointExtension xmlns:gpxtpx="http://www.garmin.com/xmlschemas/TrackPointExtension/v1">
            <gpxtpx:hr>153</gpxtpx:hr>
          </gpxtpx:TrackPointExtension>
        </extensions>
      </trkpt>
      <trkpt lat="46.19509" lon="4.78723">
        <ele>169.10059</ele>
        <time>2026-05-13T13:56:03+02:00</time>
        <extensions>
          <gpxtpx:TrackPointExtension xmlns:gpxtpx="http://www.garmin.com/xmlschemas/TrackPointExtension/v1">
            <gpxtpx:hr>153</gpxtpx:hr>
          </gpxtpx:TrackPointExtension>
        </extensions>
      </trkpt>
      <trkpt lat="46.19513" lon="4.78728">
        <ele>168.90039</ele>
        <time>2026-05-13T13:56:04+02:00</time>
        <extensions>
          <gpxtpx:TrackPointExtension xmlns:gpxtpx="http://www.garmin.com/xmlschemas/TrackPointExtension/v1">
            <gpxtpx:hr>153</gpxtpx:hr>
          </gpxtpx:TrackPointExtension>
        </extensions>
      </trkpt>
      <trkpt lat="46.19518" lon="4.78734">
        <ele>169</ele>
        <time>2026-05-13T13:56:05+02:00</time>
        <extensions>
          <gpxtpx:TrackPointExtension xmlns:gpxtpx="http://www.garmin.com/xmlschemas/TrackPointExtension/v1">
            <gpxtpx:hr>153</gpxtpx:hr>
          </gpxtpx:TrackPointExtension>
        </extensions>
      </trkpt>
      <trkpt lat="46.19523" lon="4.78739">
        <ele>169</ele>
        <time>2026-05-13T13:56:06+02:00</time>
        <extensions>
          <gpxtpx:TrackPointExtension xmlns:gpxtpx="http://www.garmin.com/xmlschemas/TrackPointExtension/v1">
            <gpxtpx:hr>153</gpxtpx:hr>
          </gpxtpx:TrackPointExtension>
        </extensions>
      </trkpt>
      <trkpt lat="46.19527" lon="4.78744">
        <ele>169</ele>
        <time>2026-05-13T13:56:07+02:00</time>
        <extensions>
          <gpxtpx:TrackPointExtension xmlns:gpxtpx="http://www.garmin.com/xmlschemas/TrackPointExtension/v1">
            <gpxtpx:hr>153</gpxtpx:hr>
          </gpxtpx:TrackPointExtension>
        </extensions>
      </trkpt>
      <trkpt lat="46.19532" lon="4.7875">
        <ele>169</ele>
        <time>2026-05-13T13:56:08+02:00</time>
        <extensions>
          <gpxtpx:TrackPointExtension xmlns:gpxtpx="http://www.garmin.com/xmlschemas/TrackPointExtension/v1">
            <gpxtpx:hr>153</gpxtpx:hr>
          </gpxtpx:TrackPointExtension>
        </extensions>
      </trkpt>
      <trkpt lat="46.19536" lon="4.78755">
        <ele>169.10059</ele>
        <time>2026-05-13T13:56:09+02:00</time>
        <extensions>
          <gpxtpx:TrackPointExtension xmlns:gpxtpx="http://www.garmin.com/xmlschemas/TrackPointExtension/v1">
            <gpxtpx:hr>153</gpxtpx:hr>
          </gpxtpx:TrackPointExtension>
        </extensions>
      </trkpt>
      <trkpt lat="46.19541" lon="4.7876">
        <ele>168.90039</ele>
        <time>2026-05-13T13:56:10+02:00</time>
        <extensions>
          <gpxtpx:TrackPointExtension xmlns:gpxtpx="http://www.garmin.com/xmlschemas/TrackPointExtension/v1">
            <gpxtpx:hr>153</gpxtpx:hr>
          </gpxtpx:TrackPointExtension>
        </extensions>
      </trkpt>
      <trkpt lat="46.19545" lon="4.78766">
        <ele>169.2002</ele>
        <time>2026-05-13T13:56:11+02:00</time>
        <extensions>
          <gpxtpx:TrackPointExtension xmlns:gpxtpx="http://www.garmin.com/xmlschemas/TrackPointExtension/v1">
            <gpxtpx:hr>153</gpxtpx:hr>
          </gpxtpx:TrackPointExtension>
        </extensions>
      </trkpt>
      <trkpt lat="46.1955" lon="4.78771">
        <ele>169</ele>
        <time>2026-05-13T13:56:12+02:00</time>
        <extensions>
          <gpxtpx:TrackPointExtension xmlns:gpxtpx="http://www.garmin.com/xmlschemas/TrackPointExtension/v1">
            <gpxtpx:hr>153</gpxtpx:hr>
          </gpxtpx:TrackPointExtension>
        </extensions>
      </trkpt>
      <trkpt lat="46.19554" lon="4.78777">
        <ele>169</ele>
        <time>2026-05-13T13:56:13+02:00</time>
        <extensions>
          <gpxtpx:TrackPointExtension xmlns:gpxtpx="http://www.garmin.com/xmlschemas/TrackPointExtension/v1">
            <gpxtpx:hr>153</gpxtpx:hr>
          </gpxtpx:TrackPointExtension>
        </extensions>
      </trkpt>
      <trkpt lat="46.19558" lon="4.78782">
        <ele>169.10059</ele>
        <time>2026-05-13T13:56:14+02:00</time>
        <extensions>
          <gpxtpx:TrackPointExtension xmlns:gpxtpx="http://www.garmin.com/xmlschemas/TrackPointExtension/v1">
            <gpxtpx:hr>153</gpxtpx:hr>
          </gpxtpx:TrackPointExtension>
        </extensions>
      </trkpt>
      <trkpt lat="46.19563" lon="4.78788">
        <ele>169.10059</ele>
        <time>2026-05-13T13:56:15+02:00</time>
        <extensions>
          <gpxtpx:TrackPointExtension xmlns:gpxtpx="http://www.garmin.com/xmlschemas/TrackPointExtension/v1">
            <gpxtpx:hr>154</gpxtpx:hr>
          </gpxtpx:TrackPointExtension>
        </extensions>
      </trkpt>
      <trkpt lat="46.19568" lon="4.78793">
        <ele>169.10059</ele>
        <time>2026-05-13T13:56:16+02:00</time>
        <extensions>
          <gpxtpx:TrackPointExtension xmlns:gpxtpx="http://www.garmin.com/xmlschemas/TrackPointExtension/v1">
            <gpxtpx:hr>154</gpxtpx:hr>
          </gpxtpx:TrackPointExtension>
        </extensions>
      </trkpt>
      <trkpt lat="46.19572" lon="4.78799">
        <ele>169</ele>
        <time>2026-05-13T13:56:17+02:00</time>
        <extensions>
          <gpxtpx:TrackPointExtension xmlns:gpxtpx="http://www.garmin.com/xmlschemas/TrackPointExtension/v1">
            <gpxtpx:hr>154</gpxtpx:hr>
          </gpxtpx:TrackPointExtension>
        </extensions>
      </trkpt>
      <trkpt lat="46.19576" lon="4.78804">
        <ele>168.7998</ele>
        <time>2026-05-13T13:56:18+02:00</time>
        <extensions>
          <gpxtpx:TrackPointExtension xmlns:gpxtpx="http://www.garmin.com/xmlschemas/TrackPointExtension/v1">
            <gpxtpx:hr>154</gpxtpx:hr>
          </gpxtpx:TrackPointExtension>
        </extensions>
      </trkpt>
      <trkpt lat="46.19581" lon="4.78809">
        <ele>169</ele>
        <time>2026-05-13T13:56:19+02:00</time>
        <extensions>
          <gpxtpx:TrackPointExtension xmlns:gpxtpx="http://www.garmin.com/xmlschemas/TrackPointExtension/v1">
            <gpxtpx:hr>154</gpxtpx:hr>
          </gpxtpx:TrackPointExtension>
        </extensions>
      </trkpt>
      <trkpt lat="46.19586" lon="4.78815">
        <ele>168.7998</ele>
        <time>2026-05-13T13:56:20+02:00</time>
        <extensions>
          <gpxtpx:TrackPointExtension xmlns:gpxtpx="http://www.garmin.com/xmlschemas/TrackPointExtension/v1">
            <gpxtpx:hr>154</gpxtpx:hr>
          </gpxtpx:TrackPointExtension>
        </extensions>
      </trkpt>
      <trkpt lat="46.1959" lon="4.7882">
        <ele>168.7002</ele>
        <time>2026-05-13T13:56:21+02:00</time>
        <extensions>
          <gpxtpx:TrackPointExtension xmlns:gpxtpx="http://www.garmin.com/xmlschemas/TrackPointExtension/v1">
            <gpxtpx:hr>154</gpxtpx:hr>
          </gpxtpx:TrackPointExtension>
        </extensions>
      </trkpt>
      <trkpt lat="46.19595" lon="4.78825">
        <ele>168.7998</ele>
        <time>2026-05-13T13:56:22+02:00</time>
        <extensions>
          <gpxtpx:TrackPointExtension xmlns:gpxtpx="http://www.garmin.com/xmlschemas/TrackPointExtension/v1">
            <gpxtpx:hr>154</gpxtpx:hr>
          </gpxtpx:TrackPointExtension>
        </extensions>
      </trkpt>
      <trkpt lat="46.19599" lon="4.78831">
        <ele>168.7998</ele>
        <time>2026-05-13T13:56:23+02:00</time>
        <extensions>
          <gpxtpx:TrackPointExtension xmlns:gpxtpx="http://www.garmin.com/xmlschemas/TrackPointExtension/v1">
            <gpxtpx:hr>154</gpxtpx:hr>
          </gpxtpx:TrackPointExtension>
        </extensions>
      </trkpt>
      <trkpt lat="46.19604" lon="4.78836">
        <ele>168.7998</ele>
        <time>2026-05-13T13:56:24+02:00</time>
        <extensions>
          <gpxtpx:TrackPointExtension xmlns:gpxtpx="http://www.garmin.com/xmlschemas/TrackPointExtension/v1">
            <gpxtpx:hr>154</gpxtpx:hr>
          </gpxtpx:TrackPointExtension>
        </extensions>
      </trkpt>
      <trkpt lat="46.19608" lon="4.78841">
        <ele>168.90039</ele>
        <time>2026-05-13T13:56:25+02:00</time>
        <extensions>
          <gpxtpx:TrackPointExtension xmlns:gpxtpx="http://www.garmin.com/xmlschemas/TrackPointExtension/v1">
            <gpxtpx:hr>153</gpxtpx:hr>
          </gpxtpx:TrackPointExtension>
        </extensions>
      </trkpt>
      <trkpt lat="46.19613" lon="4.78846">
        <ele>168.7002</ele>
        <time>2026-05-13T13:56:26+02:00</time>
        <extensions>
          <gpxtpx:TrackPointExtension xmlns:gpxtpx="http://www.garmin.com/xmlschemas/TrackPointExtension/v1">
            <gpxtpx:hr>153</gpxtpx:hr>
          </gpxtpx:TrackPointExtension>
        </extensions>
      </trkpt>
      <trkpt lat="46.19617" lon="4.78852">
        <ele>168.90039</ele>
        <time>2026-05-13T13:56:27+02:00</time>
        <extensions>
          <gpxtpx:TrackPointExtension xmlns:gpxtpx="http://www.garmin.com/xmlschemas/TrackPointExtension/v1">
            <gpxtpx:hr>153</gpxtpx:hr>
          </gpxtpx:TrackPointExtension>
        </extensions>
      </trkpt>
      <trkpt lat="46.19621" lon="4.78857">
        <ele>168.7998</ele>
        <time>2026-05-13T13:56:28+02:00</time>
        <extensions>
          <gpxtpx:TrackPointExtension xmlns:gpxtpx="http://www.garmin.com/xmlschemas/TrackPointExtension/v1">
            <gpxtpx:hr>153</gpxtpx:hr>
          </gpxtpx:TrackPointExtension>
        </extensions>
      </trkpt>
      <trkpt lat="46.19626" lon="4.78862">
        <ele>168.90039</ele>
        <time>2026-05-13T13:56:29+02:00</time>
        <extensions>
          <gpxtpx:TrackPointExtension xmlns:gpxtpx="http://www.garmin.com/xmlschemas/TrackPointExtension/v1">
            <gpxtpx:hr>153</gpxtpx:hr>
          </gpxtpx:TrackPointExtension>
        </extensions>
      </trkpt>
      <trkpt lat="46.1963" lon="4.78868">
        <ele>169</ele>
        <time>2026-05-13T13:56:30+02:00</time>
        <extensions>
          <gpxtpx:TrackPointExtension xmlns:gpxtpx="http://www.garmin.com/xmlschemas/TrackPointExtension/v1">
            <gpxtpx:hr>153</gpxtpx:hr>
          </gpxtpx:TrackPointExtension>
        </extensions>
      </trkpt>
      <trkpt lat="46.19635" lon="4.78873">
        <ele>168.90039</ele>
        <time>2026-05-13T13:56:31+02:00</time>
        <extensions>
          <gpxtpx:TrackPointExtension xmlns:gpxtpx="http://www.garmin.com/xmlschemas/TrackPointExtension/v1">
            <gpxtpx:hr>152</gpxtpx:hr>
          </gpxtpx:TrackPointExtension>
        </extensions>
      </trkpt>
      <trkpt lat="46.19639" lon="4.78878">
        <ele>169.2002</ele>
        <time>2026-05-13T13:56:32+02:00</time>
        <extensions>
          <gpxtpx:TrackPointExtension xmlns:gpxtpx="http://www.garmin.com/xmlschemas/TrackPointExtension/v1">
            <gpxtpx:hr>152</gpxtpx:hr>
          </gpxtpx:TrackPointExtension>
        </extensions>
      </trkpt>
      <trkpt lat="46.19643" lon="4.78883">
        <ele>169</ele>
        <time>2026-05-13T13:56:33+02:00</time>
        <extensions>
          <gpxtpx:TrackPointExtension xmlns:gpxtpx="http://www.garmin.com/xmlschemas/TrackPointExtension/v1">
            <gpxtpx:hr>151</gpxtpx:hr>
          </gpxtpx:TrackPointExtension>
        </extensions>
      </trkpt>
      <trkpt lat="46.19648" lon="4.78889">
        <ele>169.10059</ele>
        <time>2026-05-13T13:56:34+02:00</time>
        <extensions>
          <gpxtpx:TrackPointExtension xmlns:gpxtpx="http://www.garmin.com/xmlschemas/TrackPointExtension/v1">
            <gpxtpx:hr>151</gpxtpx:hr>
          </gpxtpx:TrackPointExtension>
        </extensions>
      </trkpt>
      <trkpt lat="46.19652" lon="4.78894">
        <ele>169.40039</ele>
        <time>2026-05-13T13:56:35+02:00</time>
        <extensions>
          <gpxtpx:TrackPointExtension xmlns:gpxtpx="http://www.garmin.com/xmlschemas/TrackPointExtension/v1">
            <gpxtpx:hr>151</gpxtpx:hr>
          </gpxtpx:TrackPointExtension>
        </extensions>
      </trkpt>
      <trkpt lat="46.19657" lon="4.78899">
        <ele>169.2002</ele>
        <time>2026-05-13T13:56:36+02:00</time>
        <extensions>
          <gpxtpx:TrackPointExtension xmlns:gpxtpx="http://www.garmin.com/xmlschemas/TrackPointExtension/v1">
            <gpxtpx:hr>151</gpxtpx:hr>
          </gpxtpx:TrackPointExtension>
        </extensions>
      </trkpt>
      <trkpt lat="46.19661" lon="4.78905">
        <ele>169.2998</ele>
        <time>2026-05-13T13:56:37+02:00</time>
        <extensions>
          <gpxtpx:TrackPointExtension xmlns:gpxtpx="http://www.garmin.com/xmlschemas/TrackPointExtension/v1">
            <gpxtpx:hr>151</gpxtpx:hr>
          </gpxtpx:TrackPointExtension>
        </extensions>
      </trkpt>
      <trkpt lat="46.19665" lon="4.7891">
        <ele>169.2998</ele>
        <time>2026-05-13T13:56:38+02:00</time>
        <extensions>
          <gpxtpx:TrackPointExtension xmlns:gpxtpx="http://www.garmin.com/xmlschemas/TrackPointExtension/v1">
            <gpxtpx:hr>151</gpxtpx:hr>
          </gpxtpx:TrackPointExtension>
        </extensions>
      </trkpt>
      <trkpt lat="46.1967" lon="4.78915">
        <ele>169.2998</ele>
        <time>2026-05-13T13:56:39+02:00</time>
        <extensions>
          <gpxtpx:TrackPointExtension xmlns:gpxtpx="http://www.garmin.com/xmlschemas/TrackPointExtension/v1">
            <gpxtpx:hr>152</gpxtpx:hr>
          </gpxtpx:TrackPointExtension>
        </extensions>
      </trkpt>
      <trkpt lat="46.19674" lon="4.7892">
        <ele>169.2998</ele>
        <time>2026-05-13T13:56:40+02:00</time>
        <extensions>
          <gpxtpx:TrackPointExtension xmlns:gpxtpx="http://www.garmin.com/xmlschemas/TrackPointExtension/v1">
            <gpxtpx:hr>152</gpxtpx:hr>
          </gpxtpx:TrackPointExtension>
        </extensions>
      </trkpt>
      <trkpt lat="46.19679" lon="4.78926">
        <ele>169</ele>
        <time>2026-05-13T13:56:41+02:00</time>
        <extensions>
          <gpxtpx:TrackPointExtension xmlns:gpxtpx="http://www.garmin.com/xmlschemas/TrackPointExtension/v1">
            <gpxtpx:hr>153</gpxtpx:hr>
          </gpxtpx:TrackPointExtension>
        </extensions>
      </trkpt>
      <trkpt lat="46.19683" lon="4.78931">
        <ele>169.10059</ele>
        <time>2026-05-13T13:56:42+02:00</time>
        <extensions>
          <gpxtpx:TrackPointExtension xmlns:gpxtpx="http://www.garmin.com/xmlschemas/TrackPointExtension/v1">
            <gpxtpx:hr>153</gpxtpx:hr>
          </gpxtpx:TrackPointExtension>
        </extensions>
      </trkpt>
      <trkpt lat="46.19687" lon="4.78936">
        <ele>169.2998</ele>
        <time>2026-05-13T13:56:43+02:00</time>
        <extensions>
          <gpxtpx:TrackPointExtension xmlns:gpxtpx="http://www.garmin.com/xmlschemas/TrackPointExtension/v1">
            <gpxtpx:hr>154</gpxtpx:hr>
          </gpxtpx:TrackPointExtension>
        </extensions>
      </trkpt>
      <trkpt lat="46.19692" lon="4.78941">
        <ele>169.10059</ele>
        <time>2026-05-13T13:56:44+02:00</time>
        <extensions>
          <gpxtpx:TrackPointExtension xmlns:gpxtpx="http://www.garmin.com/xmlschemas/TrackPointExtension/v1">
            <gpxtpx:hr>154</gpxtpx:hr>
          </gpxtpx:TrackPointExtension>
        </extensions>
      </trkpt>
      <trkpt lat="46.19696" lon="4.78947">
        <ele>169.10059</ele>
        <time>2026-05-13T13:56:45+02:00</time>
        <extensions>
          <gpxtpx:TrackPointExtension xmlns:gpxtpx="http://www.garmin.com/xmlschemas/TrackPointExtension/v1">
            <gpxtpx:hr>154</gpxtpx:hr>
          </gpxtpx:TrackPointExtension>
        </extensions>
      </trkpt>
      <trkpt lat="46.19701" lon="4.78952">
        <ele>168.90039</ele>
        <time>2026-05-13T13:56:46+02:00</time>
        <extensions>
          <gpxtpx:TrackPointExtension xmlns:gpxtpx="http://www.garmin.com/xmlschemas/TrackPointExtension/v1">
            <gpxtpx:hr>154</gpxtpx:hr>
          </gpxtpx:TrackPointExtension>
        </extensions>
      </trkpt>
      <trkpt lat="46.19705" lon="4.78957">
        <ele>169.10059</ele>
        <time>2026-05-13T13:56:47+02:00</time>
        <extensions>
          <gpxtpx:TrackPointExtension xmlns:gpxtpx="http://www.garmin.com/xmlschemas/TrackPointExtension/v1">
            <gpxtpx:hr>154</gpxtpx:hr>
          </gpxtpx:TrackPointExtension>
        </extensions>
      </trkpt>
      <trkpt lat="46.19709" lon="4.78962">
        <ele>169.2002</ele>
        <time>2026-05-13T13:56:48+02:00</time>
        <extensions>
          <gpxtpx:TrackPointExtension xmlns:gpxtpx="http://www.garmin.com/xmlschemas/TrackPointExtension/v1">
            <gpxtpx:hr>155</gpxtpx:hr>
          </gpxtpx:TrackPointExtension>
        </extensions>
      </trkpt>
      <trkpt lat="46.19713" lon="4.78967">
        <ele>169</ele>
        <time>2026-05-13T13:56:49+02:00</time>
        <extensions>
          <gpxtpx:TrackPointExtension xmlns:gpxtpx="http://www.garmin.com/xmlschemas/TrackPointExtension/v1">
            <gpxtpx:hr>155</gpxtpx:hr>
          </gpxtpx:TrackPointExtension>
        </extensions>
      </trkpt>
      <trkpt lat="46.19718" lon="4.78972">
        <ele>169</ele>
        <time>2026-05-13T13:56:50+02:00</time>
        <extensions>
          <gpxtpx:TrackPointExtension xmlns:gpxtpx="http://www.garmin.com/xmlschemas/TrackPointExtension/v1">
            <gpxtpx:hr>155</gpxtpx:hr>
          </gpxtpx:TrackPointExtension>
        </extensions>
      </trkpt>
      <trkpt lat="46.19722" lon="4.78977">
        <ele>169</ele>
        <time>2026-05-13T13:56:51+02:00</time>
        <extensions>
          <gpxtpx:TrackPointExtension xmlns:gpxtpx="http://www.garmin.com/xmlschemas/TrackPointExtension/v1">
            <gpxtpx:hr>155</gpxtpx:hr>
          </gpxtpx:TrackPointExtension>
        </extensions>
      </trkpt>
      <trkpt lat="46.19726" lon="4.78982">
        <ele>169</ele>
        <time>2026-05-13T13:56:52+02:00</time>
        <extensions>
          <gpxtpx:TrackPointExtension xmlns:gpxtpx="http://www.garmin.com/xmlschemas/TrackPointExtension/v1">
            <gpxtpx:hr>155</gpxtpx:hr>
          </gpxtpx:TrackPointExtension>
        </extensions>
      </trkpt>
      <trkpt lat="46.1973" lon="4.78987">
        <ele>169.10059</ele>
        <time>2026-05-13T13:56:53+02:00</time>
        <extensions>
          <gpxtpx:TrackPointExtension xmlns:gpxtpx="http://www.garmin.com/xmlschemas/TrackPointExtension/v1">
            <gpxtpx:hr>155</gpxtpx:hr>
          </gpxtpx:TrackPointExtension>
        </extensions>
      </trkpt>
      <trkpt lat="46.19734" lon="4.78992">
        <ele>169.10059</ele>
        <time>2026-05-13T13:56:54+02:00</time>
        <extensions>
          <gpxtpx:TrackPointExtension xmlns:gpxtpx="http://www.garmin.com/xmlschemas/TrackPointExtension/v1">
            <gpxtpx:hr>155</gpxtpx:hr>
          </gpxtpx:TrackPointExtension>
        </extensions>
      </trkpt>
      <trkpt lat="46.19738" lon="4.78997">
        <ele>169.2002</ele>
        <time>2026-05-13T13:56:55+02:00</time>
        <extensions>
          <gpxtpx:TrackPointExtension xmlns:gpxtpx="http://www.garmin.com/xmlschemas/TrackPointExtension/v1">
            <gpxtpx:hr>156</gpxtpx:hr>
          </gpxtpx:TrackPointExtension>
        </extensions>
      </trkpt>
      <trkpt lat="46.19742" lon="4.79002">
        <ele>169.2002</ele>
        <time>2026-05-13T13:56:56+02:00</time>
        <extensions>
          <gpxtpx:TrackPointExtension xmlns:gpxtpx="http://www.garmin.com/xmlschemas/TrackPointExtension/v1">
            <gpxtpx:hr>156</gpxtpx:hr>
          </gpxtpx:TrackPointExtension>
        </extensions>
      </trkpt>
      <trkpt lat="46.19746" lon="4.79007">
        <ele>169.10059</ele>
        <time>2026-05-13T13:56:57+02:00</time>
        <extensions>
          <gpxtpx:TrackPointExtension xmlns:gpxtpx="http://www.garmin.com/xmlschemas/TrackPointExtension/v1">
            <gpxtpx:hr>156</gpxtpx:hr>
          </gpxtpx:TrackPointExtension>
        </extensions>
      </trkpt>
      <trkpt lat="46.1975" lon="4.79012">
        <ele>168.90039</ele>
        <time>2026-05-13T13:56:58+02:00</time>
        <extensions>
          <gpxtpx:TrackPointExtension xmlns:gpxtpx="http://www.garmin.com/xmlschemas/TrackPointExtension/v1">
            <gpxtpx:hr>156</gpxtpx:hr>
          </gpxtpx:TrackPointExtension>
        </extensions>
      </trkpt>
      <trkpt lat="46.19754" lon="4.79017">
        <ele>168.90039</ele>
        <time>2026-05-13T13:56:59+02:00</time>
        <extensions>
          <gpxtpx:TrackPointExtension xmlns:gpxtpx="http://www.garmin.com/xmlschemas/TrackPointExtension/v1">
            <gpxtpx:hr>156</gpxtpx:hr>
          </gpxtpx:TrackPointExtension>
        </extensions>
      </trkpt>
      <trkpt lat="46.19758" lon="4.79022">
        <ele>169.2002</ele>
        <time>2026-05-13T13:57:00+02:00</time>
        <extensions>
          <gpxtpx:TrackPointExtension xmlns:gpxtpx="http://www.garmin.com/xmlschemas/TrackPointExtension/v1">
            <gpxtpx:hr>156</gpxtpx:hr>
          </gpxtpx:TrackPointExtension>
        </extensions>
      </trkpt>
      <trkpt lat="46.19763" lon="4.79027">
        <ele>169</ele>
        <time>2026-05-13T13:57:01+02:00</time>
        <extensions>
          <gpxtpx:TrackPointExtension xmlns:gpxtpx="http://www.garmin.com/xmlschemas/TrackPointExtension/v1">
            <gpxtpx:hr>156</gpxtpx:hr>
          </gpxtpx:TrackPointExtension>
        </extensions>
      </trkpt>
      <trkpt lat="46.19767" lon="4.79032">
        <ele>168.90039</ele>
        <time>2026-05-13T13:57:02+02:00</time>
        <extensions>
          <gpxtpx:TrackPointExtension xmlns:gpxtpx="http://www.garmin.com/xmlschemas/TrackPointExtension/v1">
            <gpxtpx:hr>156</gpxtpx:hr>
          </gpxtpx:TrackPointExtension>
        </extensions>
      </trkpt>
      <trkpt lat="46.19771" lon="4.79037">
        <ele>168.90039</ele>
        <time>2026-05-13T13:57:03+02:00</time>
        <extensions>
          <gpxtpx:TrackPointExtension xmlns:gpxtpx="http://www.garmin.com/xmlschemas/TrackPointExtension/v1">
            <gpxtpx:hr>156</gpxtpx:hr>
          </gpxtpx:TrackPointExtension>
        </extensions>
      </trkpt>
      <trkpt lat="46.19775" lon="4.79042">
        <ele>169</ele>
        <time>2026-05-13T13:57:04+02:00</time>
        <extensions>
          <gpxtpx:TrackPointExtension xmlns:gpxtpx="http://www.garmin.com/xmlschemas/TrackPointExtension/v1">
            <gpxtpx:hr>156</gpxtpx:hr>
          </gpxtpx:TrackPointExtension>
        </extensions>
      </trkpt>
      <trkpt lat="46.1978" lon="4.79047">
        <ele>169</ele>
        <time>2026-05-13T13:57:05+02:00</time>
        <extensions>
          <gpxtpx:TrackPointExtension xmlns:gpxtpx="http://www.garmin.com/xmlschemas/TrackPointExtension/v1">
            <gpxtpx:hr>157</gpxtpx:hr>
          </gpxtpx:TrackPointExtension>
        </extensions>
      </trkpt>
      <trkpt lat="46.19784" lon="4.79052">
        <ele>168.7998</ele>
        <time>2026-05-13T13:57:06+02:00</time>
        <extensions>
          <gpxtpx:TrackPointExtension xmlns:gpxtpx="http://www.garmin.com/xmlschemas/TrackPointExtension/v1">
            <gpxtpx:hr>157</gpxtpx:hr>
          </gpxtpx:TrackPointExtension>
        </extensions>
      </trkpt>
      <trkpt lat="46.19788" lon="4.79057">
        <ele>169</ele>
        <time>2026-05-13T13:57:07+02:00</time>
        <extensions>
          <gpxtpx:TrackPointExtension xmlns:gpxtpx="http://www.garmin.com/xmlschemas/TrackPointExtension/v1">
            <gpxtpx:hr>156</gpxtpx:hr>
          </gpxtpx:TrackPointExtension>
        </extensions>
      </trkpt>
      <trkpt lat="46.19792" lon="4.79063">
        <ele>168.7998</ele>
        <time>2026-05-13T13:57:08+02:00</time>
        <extensions>
          <gpxtpx:TrackPointExtension xmlns:gpxtpx="http://www.garmin.com/xmlschemas/TrackPointExtension/v1">
            <gpxtpx:hr>157</gpxtpx:hr>
          </gpxtpx:TrackPointExtension>
        </extensions>
      </trkpt>
      <trkpt lat="46.19797" lon="4.79068">
        <ele>168.7998</ele>
        <time>2026-05-13T13:57:09+02:00</time>
        <extensions>
          <gpxtpx:TrackPointExtension xmlns:gpxtpx="http://www.garmin.com/xmlschemas/TrackPointExtension/v1">
            <gpxtpx:hr>157</gpxtpx:hr>
          </gpxtpx:TrackPointExtension>
        </extensions>
      </trkpt>
      <trkpt lat="46.19801" lon="4.79073">
        <ele>168.90039</ele>
        <time>2026-05-13T13:57:10+02:00</time>
        <extensions>
          <gpxtpx:TrackPointExtension xmlns:gpxtpx="http://www.garmin.com/xmlschemas/TrackPointExtension/v1">
            <gpxtpx:hr>157</gpxtpx:hr>
          </gpxtpx:TrackPointExtension>
        </extensions>
      </trkpt>
      <trkpt lat="46.19805" lon="4.79078">
        <ele>168.90039</ele>
        <time>2026-05-13T13:57:11+02:00</time>
        <extensions>
          <gpxtpx:TrackPointExtension xmlns:gpxtpx="http://www.garmin.com/xmlschemas/TrackPointExtension/v1">
            <gpxtpx:hr>157</gpxtpx:hr>
          </gpxtpx:TrackPointExtension>
        </extensions>
      </trkpt>
      <trkpt lat="46.1981" lon="4.79084">
        <ele>169.10059</ele>
        <time>2026-05-13T13:57:12+02:00</time>
        <extensions>
          <gpxtpx:TrackPointExtension xmlns:gpxtpx="http://www.garmin.com/xmlschemas/TrackPointExtension/v1">
            <gpxtpx:hr>157</gpxtpx:hr>
          </gpxtpx:TrackPointExtension>
        </extensions>
      </trkpt>
      <trkpt lat="46.19814" lon="4.79089">
        <ele>168.90039</ele>
        <time>2026-05-13T13:57:13+02:00</time>
        <extensions>
          <gpxtpx:TrackPointExtension xmlns:gpxtpx="http://www.garmin.com/xmlschemas/TrackPointExtension/v1">
            <gpxtpx:hr>157</gpxtpx:hr>
          </gpxtpx:TrackPointExtension>
        </extensions>
      </trkpt>
      <trkpt lat="46.19818" lon="4.79094">
        <ele>169.2002</ele>
        <time>2026-05-13T13:57:14+02:00</time>
        <extensions>
          <gpxtpx:TrackPointExtension xmlns:gpxtpx="http://www.garmin.com/xmlschemas/TrackPointExtension/v1">
            <gpxtpx:hr>157</gpxtpx:hr>
          </gpxtpx:TrackPointExtension>
        </extensions>
      </trkpt>
      <trkpt lat="46.19822" lon="4.79099">
        <ele>169.2002</ele>
        <time>2026-05-13T13:57:15+02:00</time>
        <extensions>
          <gpxtpx:TrackPointExtension xmlns:gpxtpx="http://www.garmin.com/xmlschemas/TrackPointExtension/v1">
            <gpxtpx:hr>158</gpxtpx:hr>
          </gpxtpx:TrackPointExtension>
        </extensions>
      </trkpt>
      <trkpt lat="46.19827" lon="4.79105">
        <ele>169.10059</ele>
        <time>2026-05-13T13:57:16+02:00</time>
        <extensions>
          <gpxtpx:TrackPointExtension xmlns:gpxtpx="http://www.garmin.com/xmlschemas/TrackPointExtension/v1">
            <gpxtpx:hr>158</gpxtpx:hr>
          </gpxtpx:TrackPointExtension>
        </extensions>
      </trkpt>
      <trkpt lat="46.19831" lon="4.7911">
        <ele>169.10059</ele>
        <time>2026-05-13T13:57:17+02:00</time>
        <extensions>
          <gpxtpx:TrackPointExtension xmlns:gpxtpx="http://www.garmin.com/xmlschemas/TrackPointExtension/v1">
            <gpxtpx:hr>158</gpxtpx:hr>
          </gpxtpx:TrackPointExtension>
        </extensions>
      </trkpt>
      <trkpt lat="46.19835" lon="4.79115">
        <ele>169.10059</ele>
        <time>2026-05-13T13:57:18+02:00</time>
        <extensions>
          <gpxtpx:TrackPointExtension xmlns:gpxtpx="http://www.garmin.com/xmlschemas/TrackPointExtension/v1">
            <gpxtpx:hr>158</gpxtpx:hr>
          </gpxtpx:TrackPointExtension>
        </extensions>
      </trkpt>
      <trkpt lat="46.1984" lon="4.79121">
        <ele>169.2998</ele>
        <time>2026-05-13T13:57:19+02:00</time>
        <extensions>
          <gpxtpx:TrackPointExtension xmlns:gpxtpx="http://www.garmin.com/xmlschemas/TrackPointExtension/v1">
            <gpxtpx:hr>158</gpxtpx:hr>
          </gpxtpx:TrackPointExtension>
        </extensions>
      </trkpt>
      <trkpt lat="46.19844" lon="4.79125">
        <ele>169.40039</ele>
        <time>2026-05-13T13:57:20+02:00</time>
        <extensions>
          <gpxtpx:TrackPointExtension xmlns:gpxtpx="http://www.garmin.com/xmlschemas/TrackPointExtension/v1">
            <gpxtpx:hr>158</gpxtpx:hr>
          </gpxtpx:TrackPointExtension>
        </extensions>
      </trkpt>
      <trkpt lat="46.19849" lon="4.7913">
        <ele>169.2002</ele>
        <time>2026-05-13T13:57:21+02:00</time>
        <extensions>
          <gpxtpx:TrackPointExtension xmlns:gpxtpx="http://www.garmin.com/xmlschemas/TrackPointExtension/v1">
            <gpxtpx:hr>158</gpxtpx:hr>
          </gpxtpx:TrackPointExtension>
        </extensions>
      </trkpt>
      <trkpt lat="46.19853" lon="4.79136">
        <ele>169.40039</ele>
        <time>2026-05-13T13:57:22+02:00</time>
        <extensions>
          <gpxtpx:TrackPointExtension xmlns:gpxtpx="http://www.garmin.com/xmlschemas/TrackPointExtension/v1">
            <gpxtpx:hr>158</gpxtpx:hr>
          </gpxtpx:TrackPointExtension>
        </extensions>
      </trkpt>
      <trkpt lat="46.19858" lon="4.79141">
        <ele>169.10059</ele>
        <time>2026-05-13T13:57:23+02:00</time>
        <extensions>
          <gpxtpx:TrackPointExtension xmlns:gpxtpx="http://www.garmin.com/xmlschemas/TrackPointExtension/v1">
            <gpxtpx:hr>158</gpxtpx:hr>
          </gpxtpx:TrackPointExtension>
        </extensions>
      </trkpt>
      <trkpt lat="46.19862" lon="4.79146">
        <ele>169.10059</ele>
        <time>2026-05-13T13:57:24+02:00</time>
        <extensions>
          <gpxtpx:TrackPointExtension xmlns:gpxtpx="http://www.garmin.com/xmlschemas/TrackPointExtension/v1">
            <gpxtpx:hr>158</gpxtpx:hr>
          </gpxtpx:TrackPointExtension>
        </extensions>
      </trkpt>
      <trkpt lat="46.19866" lon="4.79151">
        <ele>169.5</ele>
        <time>2026-05-13T13:57:25+02:00</time>
        <extensions>
          <gpxtpx:TrackPointExtension xmlns:gpxtpx="http://www.garmin.com/xmlschemas/TrackPointExtension/v1">
            <gpxtpx:hr>158</gpxtpx:hr>
          </gpxtpx:TrackPointExtension>
        </extensions>
      </trkpt>
      <trkpt lat="46.19871" lon="4.79157">
        <ele>169.2002</ele>
        <time>2026-05-13T13:57:26+02:00</time>
        <extensions>
          <gpxtpx:TrackPointExtension xmlns:gpxtpx="http://www.garmin.com/xmlschemas/TrackPointExtension/v1">
            <gpxtpx:hr>158</gpxtpx:hr>
          </gpxtpx:TrackPointExtension>
        </extensions>
      </trkpt>
      <trkpt lat="46.19875" lon="4.79162">
        <ele>169.2002</ele>
        <time>2026-05-13T13:57:27+02:00</time>
        <extensions>
          <gpxtpx:TrackPointExtension xmlns:gpxtpx="http://www.garmin.com/xmlschemas/TrackPointExtension/v1">
            <gpxtpx:hr>158</gpxtpx:hr>
          </gpxtpx:TrackPointExtension>
        </extensions>
      </trkpt>
      <trkpt lat="46.19879" lon="4.79167">
        <ele>169.10059</ele>
        <time>2026-05-13T13:57:28+02:00</time>
        <extensions>
          <gpxtpx:TrackPointExtension xmlns:gpxtpx="http://www.garmin.com/xmlschemas/TrackPointExtension/v1">
            <gpxtpx:hr>158</gpxtpx:hr>
          </gpxtpx:TrackPointExtension>
        </extensions>
      </trkpt>
      <trkpt lat="46.19883" lon="4.79172">
        <ele>169.10059</ele>
        <time>2026-05-13T13:57:29+02:00</time>
        <extensions>
          <gpxtpx:TrackPointExtension xmlns:gpxtpx="http://www.garmin.com/xmlschemas/TrackPointExtension/v1">
            <gpxtpx:hr>158</gpxtpx:hr>
          </gpxtpx:TrackPointExtension>
        </extensions>
      </trkpt>
      <trkpt lat="46.19888" lon="4.79177">
        <ele>169.10059</ele>
        <time>2026-05-13T13:57:30+02:00</time>
        <extensions>
          <gpxtpx:TrackPointExtension xmlns:gpxtpx="http://www.garmin.com/xmlschemas/TrackPointExtension/v1">
            <gpxtpx:hr>158</gpxtpx:hr>
          </gpxtpx:TrackPointExtension>
        </extensions>
      </trkpt>
      <trkpt lat="46.19892" lon="4.79182">
        <ele>168.90039</ele>
        <time>2026-05-13T13:57:31+02:00</time>
        <extensions>
          <gpxtpx:TrackPointExtension xmlns:gpxtpx="http://www.garmin.com/xmlschemas/TrackPointExtension/v1">
            <gpxtpx:hr>158</gpxtpx:hr>
          </gpxtpx:TrackPointExtension>
        </extensions>
      </trkpt>
      <trkpt lat="46.19896" lon="4.79187">
        <ele>169.10059</ele>
        <time>2026-05-13T13:57:32+02:00</time>
        <extensions>
          <gpxtpx:TrackPointExtension xmlns:gpxtpx="http://www.garmin.com/xmlschemas/TrackPointExtension/v1">
            <gpxtpx:hr>158</gpxtpx:hr>
          </gpxtpx:TrackPointExtension>
        </extensions>
      </trkpt>
      <trkpt lat="46.19901" lon="4.79192">
        <ele>168.90039</ele>
        <time>2026-05-13T13:57:33+02:00</time>
        <extensions>
          <gpxtpx:TrackPointExtension xmlns:gpxtpx="http://www.garmin.com/xmlschemas/TrackPointExtension/v1">
            <gpxtpx:hr>157</gpxtpx:hr>
          </gpxtpx:TrackPointExtension>
        </extensions>
      </trkpt>
      <trkpt lat="46.19906" lon="4.79197">
        <ele>168.7002</ele>
        <time>2026-05-13T13:57:34+02:00</time>
        <extensions>
          <gpxtpx:TrackPointExtension xmlns:gpxtpx="http://www.garmin.com/xmlschemas/TrackPointExtension/v1">
            <gpxtpx:hr>157</gpxtpx:hr>
          </gpxtpx:TrackPointExtension>
        </extensions>
      </trkpt>
      <trkpt lat="46.1991" lon="4.79202">
        <ele>168.60059</ele>
        <time>2026-05-13T13:57:35+02:00</time>
        <extensions>
          <gpxtpx:TrackPointExtension xmlns:gpxtpx="http://www.garmin.com/xmlschemas/TrackPointExtension/v1">
            <gpxtpx:hr>157</gpxtpx:hr>
          </gpxtpx:TrackPointExtension>
        </extensions>
      </trkpt>
      <trkpt lat="46.19914" lon="4.79208">
        <ele>168.60059</ele>
        <time>2026-05-13T13:57:36+02:00</time>
        <extensions>
          <gpxtpx:TrackPointExtension xmlns:gpxtpx="http://www.garmin.com/xmlschemas/TrackPointExtension/v1">
            <gpxtpx:hr>157</gpxtpx:hr>
          </gpxtpx:TrackPointExtension>
        </extensions>
      </trkpt>
      <trkpt lat="46.19918" lon="4.79213">
        <ele>168.5</ele>
        <time>2026-05-13T13:57:37+02:00</time>
        <extensions>
          <gpxtpx:TrackPointExtension xmlns:gpxtpx="http://www.garmin.com/xmlschemas/TrackPointExtension/v1">
            <gpxtpx:hr>158</gpxtpx:hr>
          </gpxtpx:TrackPointExtension>
        </extensions>
      </trkpt>
      <trkpt lat="46.19922" lon="4.79218">
        <ele>168.5</ele>
        <time>2026-05-13T13:57:38+02:00</time>
        <extensions>
          <gpxtpx:TrackPointExtension xmlns:gpxtpx="http://www.garmin.com/xmlschemas/TrackPointExtension/v1">
            <gpxtpx:hr>158</gpxtpx:hr>
          </gpxtpx:TrackPointExtension>
        </extensions>
      </trkpt>
      <trkpt lat="46.19927" lon="4.79223">
        <ele>168.40039</ele>
        <time>2026-05-13T13:57:39+02:00</time>
        <extensions>
          <gpxtpx:TrackPointExtension xmlns:gpxtpx="http://www.garmin.com/xmlschemas/TrackPointExtension/v1">
            <gpxtpx:hr>158</gpxtpx:hr>
          </gpxtpx:TrackPointExtension>
        </extensions>
      </trkpt>
      <trkpt lat="46.19931" lon="4.79228">
        <ele>168.5</ele>
        <time>2026-05-13T13:57:40+02:00</time>
        <extensions>
          <gpxtpx:TrackPointExtension xmlns:gpxtpx="http://www.garmin.com/xmlschemas/TrackPointExtension/v1">
            <gpxtpx:hr>159</gpxtpx:hr>
          </gpxtpx:TrackPointExtension>
        </extensions>
      </trkpt>
      <trkpt lat="46.19935" lon="4.79233">
        <ele>168.5</ele>
        <time>2026-05-13T13:57:41+02:00</time>
        <extensions>
          <gpxtpx:TrackPointExtension xmlns:gpxtpx="http://www.garmin.com/xmlschemas/TrackPointExtension/v1">
            <gpxtpx:hr>159</gpxtpx:hr>
          </gpxtpx:TrackPointExtension>
        </extensions>
      </trkpt>
      <trkpt lat="46.19939" lon="4.79239">
        <ele>168.5</ele>
        <time>2026-05-13T13:57:42+02:00</time>
        <extensions>
          <gpxtpx:TrackPointExtension xmlns:gpxtpx="http://www.garmin.com/xmlschemas/TrackPointExtension/v1">
            <gpxtpx:hr>159</gpxtpx:hr>
          </gpxtpx:TrackPointExtension>
        </extensions>
      </trkpt>
      <trkpt lat="46.19944" lon="4.79244">
        <ele>168.40039</ele>
        <time>2026-05-13T13:57:43+02:00</time>
        <extensions>
          <gpxtpx:TrackPointExtension xmlns:gpxtpx="http://www.garmin.com/xmlschemas/TrackPointExtension/v1">
            <gpxtpx:hr>159</gpxtpx:hr>
          </gpxtpx:TrackPointExtension>
        </extensions>
      </trkpt>
      <trkpt lat="46.19948" lon="4.79249">
        <ele>168.40039</ele>
        <time>2026-05-13T13:57:44+02:00</time>
        <extensions>
          <gpxtpx:TrackPointExtension xmlns:gpxtpx="http://www.garmin.com/xmlschemas/TrackPointExtension/v1">
            <gpxtpx:hr>159</gpxtpx:hr>
          </gpxtpx:TrackPointExtension>
        </extensions>
      </trkpt>
      <trkpt lat="46.19953" lon="4.79255">
        <ele>168.5</ele>
        <time>2026-05-13T13:57:45+02:00</time>
        <extensions>
          <gpxtpx:TrackPointExtension xmlns:gpxtpx="http://www.garmin.com/xmlschemas/TrackPointExtension/v1">
            <gpxtpx:hr>159</gpxtpx:hr>
          </gpxtpx:TrackPointExtension>
        </extensions>
      </trkpt>
      <trkpt lat="46.19957" lon="4.7926">
        <ele>168.40039</ele>
        <time>2026-05-13T13:57:46+02:00</time>
        <extensions>
          <gpxtpx:TrackPointExtension xmlns:gpxtpx="http://www.garmin.com/xmlschemas/TrackPointExtension/v1">
            <gpxtpx:hr>159</gpxtpx:hr>
          </gpxtpx:TrackPointExtension>
        </extensions>
      </trkpt>
      <trkpt lat="46.19961" lon="4.79265">
        <ele>168.5</ele>
        <time>2026-05-13T13:57:47+02:00</time>
        <extensions>
          <gpxtpx:TrackPointExtension xmlns:gpxtpx="http://www.garmin.com/xmlschemas/TrackPointExtension/v1">
            <gpxtpx:hr>160</gpxtpx:hr>
          </gpxtpx:TrackPointExtension>
        </extensions>
      </trkpt>
      <trkpt lat="46.19965" lon="4.79271">
        <ele>168.5</ele>
        <time>2026-05-13T13:57:48+02:00</time>
        <extensions>
          <gpxtpx:TrackPointExtension xmlns:gpxtpx="http://www.garmin.com/xmlschemas/TrackPointExtension/v1">
            <gpxtpx:hr>159</gpxtpx:hr>
          </gpxtpx:TrackPointExtension>
        </extensions>
      </trkpt>
      <trkpt lat="46.1997" lon="4.79276">
        <ele>168.5</ele>
        <time>2026-05-13T13:57:49+02:00</time>
        <extensions>
          <gpxtpx:TrackPointExtension xmlns:gpxtpx="http://www.garmin.com/xmlschemas/TrackPointExtension/v1">
            <gpxtpx:hr>160</gpxtpx:hr>
          </gpxtpx:TrackPointExtension>
        </extensions>
      </trkpt>
      <trkpt lat="46.19974" lon="4.79282">
        <ele>168.5</ele>
        <time>2026-05-13T13:57:50+02:00</time>
        <extensions>
          <gpxtpx:TrackPointExtension xmlns:gpxtpx="http://www.garmin.com/xmlschemas/TrackPointExtension/v1">
            <gpxtpx:hr>160</gpxtpx:hr>
          </gpxtpx:TrackPointExtension>
        </extensions>
      </trkpt>
      <trkpt lat="46.19979" lon="4.79287">
        <ele>168.5</ele>
        <time>2026-05-13T13:57:51+02:00</time>
        <extensions>
          <gpxtpx:TrackPointExtension xmlns:gpxtpx="http://www.garmin.com/xmlschemas/TrackPointExtension/v1">
            <gpxtpx:hr>160</gpxtpx:hr>
          </gpxtpx:TrackPointExtension>
        </extensions>
      </trkpt>
      <trkpt lat="46.19983" lon="4.79292">
        <ele>168.5</ele>
        <time>2026-05-13T13:57:52+02:00</time>
        <extensions>
          <gpxtpx:TrackPointExtension xmlns:gpxtpx="http://www.garmin.com/xmlschemas/TrackPointExtension/v1">
            <gpxtpx:hr>161</gpxtpx:hr>
          </gpxtpx:TrackPointExtension>
        </extensions>
      </trkpt>
      <trkpt lat="46.19988" lon="4.79298">
        <ele>168.60059</ele>
        <time>2026-05-13T13:57:53+02:00</time>
        <extensions>
          <gpxtpx:TrackPointExtension xmlns:gpxtpx="http://www.garmin.com/xmlschemas/TrackPointExtension/v1">
            <gpxtpx:hr>161</gpxtpx:hr>
          </gpxtpx:TrackPointExtension>
        </extensions>
      </trkpt>
      <trkpt lat="46.19992" lon="4.79303">
        <ele>168.5</ele>
        <time>2026-05-13T13:57:54+02:00</time>
        <extensions>
          <gpxtpx:TrackPointExtension xmlns:gpxtpx="http://www.garmin.com/xmlschemas/TrackPointExtension/v1">
            <gpxtpx:hr>161</gpxtpx:hr>
          </gpxtpx:TrackPointExtension>
        </extensions>
      </trkpt>
      <trkpt lat="46.19996" lon="4.79308">
        <ele>168.60059</ele>
        <time>2026-05-13T13:57:55+02:00</time>
        <extensions>
          <gpxtpx:TrackPointExtension xmlns:gpxtpx="http://www.garmin.com/xmlschemas/TrackPointExtension/v1">
            <gpxtpx:hr>161</gpxtpx:hr>
          </gpxtpx:TrackPointExtension>
        </extensions>
      </trkpt>
      <trkpt lat="46.20001" lon="4.79314">
        <ele>168.7002</ele>
        <time>2026-05-13T13:57:56+02:00</time>
        <extensions>
          <gpxtpx:TrackPointExtension xmlns:gpxtpx="http://www.garmin.com/xmlschemas/TrackPointExtension/v1">
            <gpxtpx:hr>161</gpxtpx:hr>
          </gpxtpx:TrackPointExtension>
        </extensions>
      </trkpt>
      <trkpt lat="46.20005" lon="4.79319">
        <ele>168.60059</ele>
        <time>2026-05-13T13:57:57+02:00</time>
        <extensions>
          <gpxtpx:TrackPointExtension xmlns:gpxtpx="http://www.garmin.com/xmlschemas/TrackPointExtension/v1">
            <gpxtpx:hr>161</gpxtpx:hr>
          </gpxtpx:TrackPointExtension>
        </extensions>
      </trkpt>
      <trkpt lat="46.2001" lon="4.79324">
        <ele>168.7002</ele>
        <time>2026-05-13T13:57:58+02:00</time>
        <extensions>
          <gpxtpx:TrackPointExtension xmlns:gpxtpx="http://www.garmin.com/xmlschemas/TrackPointExtension/v1">
            <gpxtpx:hr>161</gpxtpx:hr>
          </gpxtpx:TrackPointExtension>
        </extensions>
      </trkpt>
      <trkpt lat="46.20014" lon="4.79329">
        <ele>168.7002</ele>
        <time>2026-05-13T13:57:59+02:00</time>
        <extensions>
          <gpxtpx:TrackPointExtension xmlns:gpxtpx="http://www.garmin.com/xmlschemas/TrackPointExtension/v1">
            <gpxtpx:hr>161</gpxtpx:hr>
          </gpxtpx:TrackPointExtension>
        </extensions>
      </trkpt>
      <trkpt lat="46.20019" lon="4.79334">
        <ele>168.7002</ele>
        <time>2026-05-13T13:58:00+02:00</time>
        <extensions>
          <gpxtpx:TrackPointExtension xmlns:gpxtpx="http://www.garmin.com/xmlschemas/TrackPointExtension/v1">
            <gpxtpx:hr>161</gpxtpx:hr>
          </gpxtpx:TrackPointExtension>
        </extensions>
      </trkpt>
      <trkpt lat="46.20023" lon="4.79339">
        <ele>168.7002</ele>
        <time>2026-05-13T13:58:01+02:00</time>
        <extensions>
          <gpxtpx:TrackPointExtension xmlns:gpxtpx="http://www.garmin.com/xmlschemas/TrackPointExtension/v1">
            <gpxtpx:hr>162</gpxtpx:hr>
          </gpxtpx:TrackPointExtension>
        </extensions>
      </trkpt>
      <trkpt lat="46.20027" lon="4.79344">
        <ele>168.60059</ele>
        <time>2026-05-13T13:58:02+02:00</time>
        <extensions>
          <gpxtpx:TrackPointExtension xmlns:gpxtpx="http://www.garmin.com/xmlschemas/TrackPointExtension/v1">
            <gpxtpx:hr>162</gpxtpx:hr>
          </gpxtpx:TrackPointExtension>
        </extensions>
      </trkpt>
      <trkpt lat="46.20031" lon="4.79349">
        <ele>168.7998</ele>
        <time>2026-05-13T13:58:03+02:00</time>
        <extensions>
          <gpxtpx:TrackPointExtension xmlns:gpxtpx="http://www.garmin.com/xmlschemas/TrackPointExtension/v1">
            <gpxtpx:hr>162</gpxtpx:hr>
          </gpxtpx:TrackPointExtension>
        </extensions>
      </trkpt>
      <trkpt lat="46.20036" lon="4.79355">
        <ele>168.7002</ele>
        <time>2026-05-13T13:58:04+02:00</time>
        <extensions>
          <gpxtpx:TrackPointExtension xmlns:gpxtpx="http://www.garmin.com/xmlschemas/TrackPointExtension/v1">
            <gpxtpx:hr>162</gpxtpx:hr>
          </gpxtpx:TrackPointExtension>
        </extensions>
      </trkpt>
      <trkpt lat="46.2004" lon="4.7936">
        <ele>168.7002</ele>
        <time>2026-05-13T13:58:05+02:00</time>
        <extensions>
          <gpxtpx:TrackPointExtension xmlns:gpxtpx="http://www.garmin.com/xmlschemas/TrackPointExtension/v1">
            <gpxtpx:hr>161</gpxtpx:hr>
          </gpxtpx:TrackPointExtension>
        </extensions>
      </trkpt>
      <trkpt lat="46.20045" lon="4.79365">
        <ele>168.7002</ele>
        <time>2026-05-13T13:58:06+02:00</time>
        <extensions>
          <gpxtpx:TrackPointExtension xmlns:gpxtpx="http://www.garmin.com/xmlschemas/TrackPointExtension/v1">
            <gpxtpx:hr>161</gpxtpx:hr>
          </gpxtpx:TrackPointExtension>
        </extensions>
      </trkpt>
      <trkpt lat="46.20049" lon="4.7937">
        <ele>168.7002</ele>
        <time>2026-05-13T13:58:07+02:00</time>
        <extensions>
          <gpxtpx:TrackPointExtension xmlns:gpxtpx="http://www.garmin.com/xmlschemas/TrackPointExtension/v1">
            <gpxtpx:hr>162</gpxtpx:hr>
          </gpxtpx:TrackPointExtension>
        </extensions>
      </trkpt>
      <trkpt lat="46.20054" lon="4.79375">
        <ele>168.7002</ele>
        <time>2026-05-13T13:58:08+02:00</time>
        <extensions>
          <gpxtpx:TrackPointExtension xmlns:gpxtpx="http://www.garmin.com/xmlschemas/TrackPointExtension/v1">
            <gpxtpx:hr>161</gpxtpx:hr>
          </gpxtpx:TrackPointExtension>
        </extensions>
      </trkpt>
      <trkpt lat="46.20058" lon="4.7938">
        <ele>168.60059</ele>
        <time>2026-05-13T13:58:09+02:00</time>
        <extensions>
          <gpxtpx:TrackPointExtension xmlns:gpxtpx="http://www.garmin.com/xmlschemas/TrackPointExtension/v1">
            <gpxtpx:hr>161</gpxtpx:hr>
          </gpxtpx:TrackPointExtension>
        </extensions>
      </trkpt>
      <trkpt lat="46.20062" lon="4.79385">
        <ele>168.7998</ele>
        <time>2026-05-13T13:58:10+02:00</time>
        <extensions>
          <gpxtpx:TrackPointExtension xmlns:gpxtpx="http://www.garmin.com/xmlschemas/TrackPointExtension/v1">
            <gpxtpx:hr>161</gpxtpx:hr>
          </gpxtpx:TrackPointExtension>
        </extensions>
      </trkpt>
      <trkpt lat="46.20067" lon="4.79391">
        <ele>168.7998</ele>
        <time>2026-05-13T13:58:11+02:00</time>
        <extensions>
          <gpxtpx:TrackPointExtension xmlns:gpxtpx="http://www.garmin.com/xmlschemas/TrackPointExtension/v1">
            <gpxtpx:hr>161</gpxtpx:hr>
          </gpxtpx:TrackPointExtension>
        </extensions>
      </trkpt>
      <trkpt lat="46.20071" lon="4.79396">
        <ele>168.7002</ele>
        <time>2026-05-13T13:58:12+02:00</time>
        <extensions>
          <gpxtpx:TrackPointExtension xmlns:gpxtpx="http://www.garmin.com/xmlschemas/TrackPointExtension/v1">
            <gpxtpx:hr>161</gpxtpx:hr>
          </gpxtpx:TrackPointExtension>
        </extensions>
      </trkpt>
      <trkpt lat="46.20075" lon="4.79402">
        <ele>168.7002</ele>
        <time>2026-05-13T13:58:13+02:00</time>
        <extensions>
          <gpxtpx:TrackPointExtension xmlns:gpxtpx="http://www.garmin.com/xmlschemas/TrackPointExtension/v1">
            <gpxtpx:hr>162</gpxtpx:hr>
          </gpxtpx:TrackPointExtension>
        </extensions>
      </trkpt>
      <trkpt lat="46.2008" lon="4.79407">
        <ele>168.7002</ele>
        <time>2026-05-13T13:58:14+02:00</time>
        <extensions>
          <gpxtpx:TrackPointExtension xmlns:gpxtpx="http://www.garmin.com/xmlschemas/TrackPointExtension/v1">
            <gpxtpx:hr>162</gpxtpx:hr>
          </gpxtpx:TrackPointExtension>
        </extensions>
      </trkpt>
      <trkpt lat="46.20084" lon="4.79412">
        <ele>168.7998</ele>
        <time>2026-05-13T13:58:15+02:00</time>
        <extensions>
          <gpxtpx:TrackPointExtension xmlns:gpxtpx="http://www.garmin.com/xmlschemas/TrackPointExtension/v1">
            <gpxtpx:hr>162</gpxtpx:hr>
          </gpxtpx:TrackPointExtension>
        </extensions>
      </trkpt>
      <trkpt lat="46.20088" lon="4.79418">
        <ele>168.90039</ele>
        <time>2026-05-13T13:58:16+02:00</time>
        <extensions>
          <gpxtpx:TrackPointExtension xmlns:gpxtpx="http://www.garmin.com/xmlschemas/TrackPointExtension/v1">
            <gpxtpx:hr>162</gpxtpx:hr>
          </gpxtpx:TrackPointExtension>
        </extensions>
      </trkpt>
      <trkpt lat="46.20093" lon="4.79423">
        <ele>168.7998</ele>
        <time>2026-05-13T13:58:17+02:00</time>
        <extensions>
          <gpxtpx:TrackPointExtension xmlns:gpxtpx="http://www.garmin.com/xmlschemas/TrackPointExtension/v1">
            <gpxtpx:hr>162</gpxtpx:hr>
          </gpxtpx:TrackPointExtension>
        </extensions>
      </trkpt>
      <trkpt lat="46.20097" lon="4.79428">
        <ele>169</ele>
        <time>2026-05-13T13:58:18+02:00</time>
        <extensions>
          <gpxtpx:TrackPointExtension xmlns:gpxtpx="http://www.garmin.com/xmlschemas/TrackPointExtension/v1">
            <gpxtpx:hr>162</gpxtpx:hr>
          </gpxtpx:TrackPointExtension>
        </extensions>
      </trkpt>
      <trkpt lat="46.20102" lon="4.79433">
        <ele>168.90039</ele>
        <time>2026-05-13T13:58:19+02:00</time>
        <extensions>
          <gpxtpx:TrackPointExtension xmlns:gpxtpx="http://www.garmin.com/xmlschemas/TrackPointExtension/v1">
            <gpxtpx:hr>162</gpxtpx:hr>
          </gpxtpx:TrackPointExtension>
        </extensions>
      </trkpt>
      <trkpt lat="46.20106" lon="4.79438">
        <ele>169.2002</ele>
        <time>2026-05-13T13:58:20+02:00</time>
        <extensions>
          <gpxtpx:TrackPointExtension xmlns:gpxtpx="http://www.garmin.com/xmlschemas/TrackPointExtension/v1">
            <gpxtpx:hr>162</gpxtpx:hr>
          </gpxtpx:TrackPointExtension>
        </extensions>
      </trkpt>
      <trkpt lat="46.20111" lon="4.79443">
        <ele>169.40039</ele>
        <time>2026-05-13T13:58:21+02:00</time>
        <extensions>
          <gpxtpx:TrackPointExtension xmlns:gpxtpx="http://www.garmin.com/xmlschemas/TrackPointExtension/v1">
            <gpxtpx:hr>162</gpxtpx:hr>
          </gpxtpx:TrackPointExtension>
        </extensions>
      </trkpt>
      <trkpt lat="46.20115" lon="4.79448">
        <ele>169.40039</ele>
        <time>2026-05-13T13:58:22+02:00</time>
        <extensions>
          <gpxtpx:TrackPointExtension xmlns:gpxtpx="http://www.garmin.com/xmlschemas/TrackPointExtension/v1">
            <gpxtpx:hr>161</gpxtpx:hr>
          </gpxtpx:TrackPointExtension>
        </extensions>
      </trkpt>
      <trkpt lat="46.2012" lon="4.79453">
        <ele>169.60059</ele>
        <time>2026-05-13T13:58:23+02:00</time>
        <extensions>
          <gpxtpx:TrackPointExtension xmlns:gpxtpx="http://www.garmin.com/xmlschemas/TrackPointExtension/v1">
            <gpxtpx:hr>161</gpxtpx:hr>
          </gpxtpx:TrackPointExtension>
        </extensions>
      </trkpt>
      <trkpt lat="46.20124" lon="4.79458">
        <ele>169.2998</ele>
        <time>2026-05-13T13:58:24+02:00</time>
        <extensions>
          <gpxtpx:TrackPointExtension xmlns:gpxtpx="http://www.garmin.com/xmlschemas/TrackPointExtension/v1">
            <gpxtpx:hr>161</gpxtpx:hr>
          </gpxtpx:TrackPointExtension>
        </extensions>
      </trkpt>
      <trkpt lat="46.20129" lon="4.79463">
        <ele>169.5</ele>
        <time>2026-05-13T13:58:25+02:00</time>
        <extensions>
          <gpxtpx:TrackPointExtension xmlns:gpxtpx="http://www.garmin.com/xmlschemas/TrackPointExtension/v1">
            <gpxtpx:hr>161</gpxtpx:hr>
          </gpxtpx:TrackPointExtension>
        </extensions>
      </trkpt>
      <trkpt lat="46.20133" lon="4.79468">
        <ele>169.90039</ele>
        <time>2026-05-13T13:58:26+02:00</time>
        <extensions>
          <gpxtpx:TrackPointExtension xmlns:gpxtpx="http://www.garmin.com/xmlschemas/TrackPointExtension/v1">
            <gpxtpx:hr>161</gpxtpx:hr>
          </gpxtpx:TrackPointExtension>
        </extensions>
      </trkpt>
      <trkpt lat="46.20138" lon="4.79472">
        <ele>169.60059</ele>
        <time>2026-05-13T13:58:27+02:00</time>
        <extensions>
          <gpxtpx:TrackPointExtension xmlns:gpxtpx="http://www.garmin.com/xmlschemas/TrackPointExtension/v1">
            <gpxtpx:hr>161</gpxtpx:hr>
          </gpxtpx:TrackPointExtension>
        </extensions>
      </trkpt>
      <trkpt lat="46.20142" lon="4.79476">
        <ele>169.7998</ele>
        <time>2026-05-13T13:58:28+02:00</time>
        <extensions>
          <gpxtpx:TrackPointExtension xmlns:gpxtpx="http://www.garmin.com/xmlschemas/TrackPointExtension/v1">
            <gpxtpx:hr>161</gpxtpx:hr>
          </gpxtpx:TrackPointExtension>
        </extensions>
      </trkpt>
      <trkpt lat="46.20147" lon="4.7948">
        <ele>169.2998</ele>
        <time>2026-05-13T13:58:29+02:00</time>
        <extensions>
          <gpxtpx:TrackPointExtension xmlns:gpxtpx="http://www.garmin.com/xmlschemas/TrackPointExtension/v1">
            <gpxtpx:hr>161</gpxtpx:hr>
          </gpxtpx:TrackPointExtension>
        </extensions>
      </trkpt>
      <trkpt lat="46.20151" lon="4.79484">
        <ele>169.2998</ele>
        <time>2026-05-13T13:58:30+02:00</time>
        <extensions>
          <gpxtpx:TrackPointExtension xmlns:gpxtpx="http://www.garmin.com/xmlschemas/TrackPointExtension/v1">
            <gpxtpx:hr>161</gpxtpx:hr>
          </gpxtpx:TrackPointExtension>
        </extensions>
      </trkpt>
      <trkpt lat="46.20156" lon="4.79488">
        <ele>169.2002</ele>
        <time>2026-05-13T13:58:31+02:00</time>
        <extensions>
          <gpxtpx:TrackPointExtension xmlns:gpxtpx="http://www.garmin.com/xmlschemas/TrackPointExtension/v1">
            <gpxtpx:hr>161</gpxtpx:hr>
          </gpxtpx:TrackPointExtension>
        </extensions>
      </trkpt>
      <trkpt lat="46.2016" lon="4.79492">
        <ele>168.90039</ele>
        <time>2026-05-13T13:58:32+02:00</time>
        <extensions>
          <gpxtpx:TrackPointExtension xmlns:gpxtpx="http://www.garmin.com/xmlschemas/TrackPointExtension/v1">
            <gpxtpx:hr>161</gpxtpx:hr>
          </gpxtpx:TrackPointExtension>
        </extensions>
      </trkpt>
      <trkpt lat="46.20165" lon="4.79496">
        <ele>168.90039</ele>
        <time>2026-05-13T13:58:33+02:00</time>
        <extensions>
          <gpxtpx:TrackPointExtension xmlns:gpxtpx="http://www.garmin.com/xmlschemas/TrackPointExtension/v1">
            <gpxtpx:hr>161</gpxtpx:hr>
          </gpxtpx:TrackPointExtension>
        </extensions>
      </trkpt>
      <trkpt lat="46.2017" lon="4.79499">
        <ele>168.7002</ele>
        <time>2026-05-13T13:58:34+02:00</time>
        <extensions>
          <gpxtpx:TrackPointExtension xmlns:gpxtpx="http://www.garmin.com/xmlschemas/TrackPointExtension/v1">
            <gpxtpx:hr>161</gpxtpx:hr>
          </gpxtpx:TrackPointExtension>
        </extensions>
      </trkpt>
      <trkpt lat="46.20173" lon="4.79501">
        <ele>168.7002</ele>
        <time>2026-05-13T13:58:35+02:00</time>
        <extensions>
          <gpxtpx:TrackPointExtension xmlns:gpxtpx="http://www.garmin.com/xmlschemas/TrackPointExtension/v1">
            <gpxtpx:hr>161</gpxtpx:hr>
          </gpxtpx:TrackPointExtension>
        </extensions>
      </trkpt>
      <trkpt lat="46.20177" lon="4.79504">
        <ele>168.7002</ele>
        <time>2026-05-13T13:58:36+02:00</time>
        <extensions>
          <gpxtpx:TrackPointExtension xmlns:gpxtpx="http://www.garmin.com/xmlschemas/TrackPointExtension/v1">
            <gpxtpx:hr>160</gpxtpx:hr>
          </gpxtpx:TrackPointExtension>
        </extensions>
      </trkpt>
      <trkpt lat="46.20181" lon="4.79508">
        <ele>168.7002</ele>
        <time>2026-05-13T13:58:37+02:00</time>
        <extensions>
          <gpxtpx:TrackPointExtension xmlns:gpxtpx="http://www.garmin.com/xmlschemas/TrackPointExtension/v1">
            <gpxtpx:hr>160</gpxtpx:hr>
          </gpxtpx:TrackPointExtension>
        </extensions>
      </trkpt>
      <trkpt lat="46.20185" lon="4.79511">
        <ele>168.7002</ele>
        <time>2026-05-13T13:58:38+02:00</time>
        <extensions>
          <gpxtpx:TrackPointExtension xmlns:gpxtpx="http://www.garmin.com/xmlschemas/TrackPointExtension/v1">
            <gpxtpx:hr>160</gpxtpx:hr>
          </gpxtpx:TrackPointExtension>
        </extensions>
      </trkpt>
      <trkpt lat="46.2019" lon="4.79515">
        <ele>168.7998</ele>
        <time>2026-05-13T13:58:39+02:00</time>
        <extensions>
          <gpxtpx:TrackPointExtension xmlns:gpxtpx="http://www.garmin.com/xmlschemas/TrackPointExtension/v1">
            <gpxtpx:hr>160</gpxtpx:hr>
          </gpxtpx:TrackPointExtension>
        </extensions>
      </trkpt>
      <trkpt lat="46.20194" lon="4.7952">
        <ele>169</ele>
        <time>2026-05-13T13:58:40+02:00</time>
        <extensions>
          <gpxtpx:TrackPointExtension xmlns:gpxtpx="http://www.garmin.com/xmlschemas/TrackPointExtension/v1">
            <gpxtpx:hr>159</gpxtpx:hr>
          </gpxtpx:TrackPointExtension>
        </extensions>
      </trkpt>
      <trkpt lat="46.20199" lon="4.79524">
        <ele>169</ele>
        <time>2026-05-13T13:58:41+02:00</time>
        <extensions>
          <gpxtpx:TrackPointExtension xmlns:gpxtpx="http://www.garmin.com/xmlschemas/TrackPointExtension/v1">
            <gpxtpx:hr>159</gpxtpx:hr>
          </gpxtpx:TrackPointExtension>
        </extensions>
      </trkpt>
      <trkpt lat="46.20204" lon="4.79529">
        <ele>169.2998</ele>
        <time>2026-05-13T13:58:42+02:00</time>
        <extensions>
          <gpxtpx:TrackPointExtension xmlns:gpxtpx="http://www.garmin.com/xmlschemas/TrackPointExtension/v1">
            <gpxtpx:hr>160</gpxtpx:hr>
          </gpxtpx:TrackPointExtension>
        </extensions>
      </trkpt>
      <trkpt lat="46.20208" lon="4.79533">
        <ele>169.2002</ele>
        <time>2026-05-13T13:58:43+02:00</time>
        <extensions>
          <gpxtpx:TrackPointExtension xmlns:gpxtpx="http://www.garmin.com/xmlschemas/TrackPointExtension/v1">
            <gpxtpx:hr>160</gpxtpx:hr>
          </gpxtpx:TrackPointExtension>
        </extensions>
      </trkpt>
      <trkpt lat="46.20213" lon="4.79538">
        <ele>169.60059</ele>
        <time>2026-05-13T13:58:44+02:00</time>
        <extensions>
          <gpxtpx:TrackPointExtension xmlns:gpxtpx="http://www.garmin.com/xmlschemas/TrackPointExtension/v1">
            <gpxtpx:hr>160</gpxtpx:hr>
          </gpxtpx:TrackPointExtension>
        </extensions>
      </trkpt>
      <trkpt lat="46.20217" lon="4.79544">
        <ele>169.40039</ele>
        <time>2026-05-13T13:58:45+02:00</time>
        <extensions>
          <gpxtpx:TrackPointExtension xmlns:gpxtpx="http://www.garmin.com/xmlschemas/TrackPointExtension/v1">
            <gpxtpx:hr>161</gpxtpx:hr>
          </gpxtpx:TrackPointExtension>
        </extensions>
      </trkpt>
      <trkpt lat="46.20221" lon="4.79549">
        <ele>169.7998</ele>
        <time>2026-05-13T13:58:46+02:00</time>
        <extensions>
          <gpxtpx:TrackPointExtension xmlns:gpxtpx="http://www.garmin.com/xmlschemas/TrackPointExtension/v1">
            <gpxtpx:hr>161</gpxtpx:hr>
          </gpxtpx:TrackPointExtension>
        </extensions>
      </trkpt>
      <trkpt lat="46.20225" lon="4.79554">
        <ele>169.90039</ele>
        <time>2026-05-13T13:58:47+02:00</time>
        <extensions>
          <gpxtpx:TrackPointExtension xmlns:gpxtpx="http://www.garmin.com/xmlschemas/TrackPointExtension/v1">
            <gpxtpx:hr>161</gpxtpx:hr>
          </gpxtpx:TrackPointExtension>
        </extensions>
      </trkpt>
      <trkpt lat="46.2023" lon="4.79558">
        <ele>169.60059</ele>
        <time>2026-05-13T13:58:48+02:00</time>
        <extensions>
          <gpxtpx:TrackPointExtension xmlns:gpxtpx="http://www.garmin.com/xmlschemas/TrackPointExtension/v1">
            <gpxtpx:hr>161</gpxtpx:hr>
          </gpxtpx:TrackPointExtension>
        </extensions>
      </trkpt>
      <trkpt lat="46.20235" lon="4.79561">
        <ele>169.2998</ele>
        <time>2026-05-13T13:58:49+02:00</time>
        <extensions>
          <gpxtpx:TrackPointExtension xmlns:gpxtpx="http://www.garmin.com/xmlschemas/TrackPointExtension/v1">
            <gpxtpx:hr>161</gpxtpx:hr>
          </gpxtpx:TrackPointExtension>
        </extensions>
      </trkpt>
      <trkpt lat="46.2024" lon="4.79563">
        <ele>169.5</ele>
        <time>2026-05-13T13:58:50+02:00</time>
        <extensions>
          <gpxtpx:TrackPointExtension xmlns:gpxtpx="http://www.garmin.com/xmlschemas/TrackPointExtension/v1">
            <gpxtpx:hr>161</gpxtpx:hr>
          </gpxtpx:TrackPointExtension>
        </extensions>
      </trkpt>
      <trkpt lat="46.20245" lon="4.79566">
        <ele>169.2998</ele>
        <time>2026-05-13T13:58:51+02:00</time>
        <extensions>
          <gpxtpx:TrackPointExtension xmlns:gpxtpx="http://www.garmin.com/xmlschemas/TrackPointExtension/v1">
            <gpxtpx:hr>161</gpxtpx:hr>
          </gpxtpx:TrackPointExtension>
        </extensions>
      </trkpt>
      <trkpt lat="46.2025" lon="4.79568">
        <ele>169.2002</ele>
        <time>2026-05-13T13:58:52+02:00</time>
        <extensions>
          <gpxtpx:TrackPointExtension xmlns:gpxtpx="http://www.garmin.com/xmlschemas/TrackPointExtension/v1">
            <gpxtpx:hr>161</gpxtpx:hr>
          </gpxtpx:TrackPointExtension>
        </extensions>
      </trkpt>
      <trkpt lat="46.20256" lon="4.79569">
        <ele>169</ele>
        <time>2026-05-13T13:58:53+02:00</time>
        <extensions>
          <gpxtpx:TrackPointExtension xmlns:gpxtpx="http://www.garmin.com/xmlschemas/TrackPointExtension/v1">
            <gpxtpx:hr>161</gpxtpx:hr>
          </gpxtpx:TrackPointExtension>
        </extensions>
      </trkpt>
      <trkpt lat="46.20261" lon="4.79571">
        <ele>169.2002</ele>
        <time>2026-05-13T13:58:54+02:00</time>
        <extensions>
          <gpxtpx:TrackPointExtension xmlns:gpxtpx="http://www.garmin.com/xmlschemas/TrackPointExtension/v1">
            <gpxtpx:hr>160</gpxtpx:hr>
          </gpxtpx:TrackPointExtension>
        </extensions>
      </trkpt>
      <trkpt lat="46.20266" lon="4.79572">
        <ele>169</ele>
        <time>2026-05-13T13:58:55+02:00</time>
        <extensions>
          <gpxtpx:TrackPointExtension xmlns:gpxtpx="http://www.garmin.com/xmlschemas/TrackPointExtension/v1">
            <gpxtpx:hr>161</gpxtpx:hr>
          </gpxtpx:TrackPointExtension>
        </extensions>
      </trkpt>
      <trkpt lat="46.20272" lon="4.79574">
        <ele>168.7998</ele>
        <time>2026-05-13T13:58:56+02:00</time>
        <extensions>
          <gpxtpx:TrackPointExtension xmlns:gpxtpx="http://www.garmin.com/xmlschemas/TrackPointExtension/v1">
            <gpxtpx:hr>161</gpxtpx:hr>
          </gpxtpx:TrackPointExtension>
        </extensions>
      </trkpt>
      <trkpt lat="46.20278" lon="4.79575">
        <ele>168.60059</ele>
        <time>2026-05-13T13:58:57+02:00</time>
        <extensions>
          <gpxtpx:TrackPointExtension xmlns:gpxtpx="http://www.garmin.com/xmlschemas/TrackPointExtension/v1">
            <gpxtpx:hr>161</gpxtpx:hr>
          </gpxtpx:TrackPointExtension>
        </extensions>
      </trkpt>
      <trkpt lat="46.20283" lon="4.79576">
        <ele>168.5</ele>
        <time>2026-05-13T13:58:58+02:00</time>
        <extensions>
          <gpxtpx:TrackPointExtension xmlns:gpxtpx="http://www.garmin.com/xmlschemas/TrackPointExtension/v1">
            <gpxtpx:hr>161</gpxtpx:hr>
          </gpxtpx:TrackPointExtension>
        </extensions>
      </trkpt>
      <trkpt lat="46.20289" lon="4.79577">
        <ele>168.2998</ele>
        <time>2026-05-13T13:58:59+02:00</time>
        <extensions>
          <gpxtpx:TrackPointExtension xmlns:gpxtpx="http://www.garmin.com/xmlschemas/TrackPointExtension/v1">
            <gpxtpx:hr>161</gpxtpx:hr>
          </gpxtpx:TrackPointExtension>
        </extensions>
      </trkpt>
      <trkpt lat="46.20294" lon="4.79578">
        <ele>168.2998</ele>
        <time>2026-05-13T13:59:00+02:00</time>
        <extensions>
          <gpxtpx:TrackPointExtension xmlns:gpxtpx="http://www.garmin.com/xmlschemas/TrackPointExtension/v1">
            <gpxtpx:hr>161</gpxtpx:hr>
          </gpxtpx:TrackPointExtension>
        </extensions>
      </trkpt>
      <trkpt lat="46.203" lon="4.79579">
        <ele>168.2998</ele>
        <time>2026-05-13T13:59:01+02:00</time>
        <extensions>
          <gpxtpx:TrackPointExtension xmlns:gpxtpx="http://www.garmin.com/xmlschemas/TrackPointExtension/v1">
            <gpxtpx:hr>161</gpxtpx:hr>
          </gpxtpx:TrackPointExtension>
        </extensions>
      </trkpt>
      <trkpt lat="46.20306" lon="4.7958">
        <ele>168.2002</ele>
        <time>2026-05-13T13:59:02+02:00</time>
        <extensions>
          <gpxtpx:TrackPointExtension xmlns:gpxtpx="http://www.garmin.com/xmlschemas/TrackPointExtension/v1">
            <gpxtpx:hr>161</gpxtpx:hr>
          </gpxtpx:TrackPointExtension>
        </extensions>
      </trkpt>
      <trkpt lat="46.20311" lon="4.7958">
        <ele>168.2002</ele>
        <time>2026-05-13T13:59:03+02:00</time>
        <extensions>
          <gpxtpx:TrackPointExtension xmlns:gpxtpx="http://www.garmin.com/xmlschemas/TrackPointExtension/v1">
            <gpxtpx:hr>161</gpxtpx:hr>
          </gpxtpx:TrackPointExtension>
        </extensions>
      </trkpt>
      <trkpt lat="46.20317" lon="4.79581">
        <ele>168.2002</ele>
        <time>2026-05-13T13:59:04+02:00</time>
        <extensions>
          <gpxtpx:TrackPointExtension xmlns:gpxtpx="http://www.garmin.com/xmlschemas/TrackPointExtension/v1">
            <gpxtpx:hr>161</gpxtpx:hr>
          </gpxtpx:TrackPointExtension>
        </extensions>
      </trkpt>
      <trkpt lat="46.20323" lon="4.79582">
        <ele>168.2998</ele>
        <time>2026-05-13T13:59:05+02:00</time>
        <extensions>
          <gpxtpx:TrackPointExtension xmlns:gpxtpx="http://www.garmin.com/xmlschemas/TrackPointExtension/v1">
            <gpxtpx:hr>162</gpxtpx:hr>
          </gpxtpx:TrackPointExtension>
        </extensions>
      </trkpt>
      <trkpt lat="46.20328" lon="4.79583">
        <ele>168.40039</ele>
        <time>2026-05-13T13:59:06+02:00</time>
        <extensions>
          <gpxtpx:TrackPointExtension xmlns:gpxtpx="http://www.garmin.com/xmlschemas/TrackPointExtension/v1">
            <gpxtpx:hr>162</gpxtpx:hr>
          </gpxtpx:TrackPointExtension>
        </extensions>
      </trkpt>
      <trkpt lat="46.20333" lon="4.79584">
        <ele>168.40039</ele>
        <time>2026-05-13T13:59:07+02:00</time>
        <extensions>
          <gpxtpx:TrackPointExtension xmlns:gpxtpx="http://www.garmin.com/xmlschemas/TrackPointExtension/v1">
            <gpxtpx:hr>162</gpxtpx:hr>
          </gpxtpx:TrackPointExtension>
        </extensions>
      </trkpt>
      <trkpt lat="46.20339" lon="4.79586">
        <ele>168.5</ele>
        <time>2026-05-13T13:59:08+02:00</time>
        <extensions>
          <gpxtpx:TrackPointExtension xmlns:gpxtpx="http://www.garmin.com/xmlschemas/TrackPointExtension/v1">
            <gpxtpx:hr>162</gpxtpx:hr>
          </gpxtpx:TrackPointExtension>
        </extensions>
      </trkpt>
      <trkpt lat="46.20344" lon="4.79587">
        <ele>168.60059</ele>
        <time>2026-05-13T13:59:09+02:00</time>
        <extensions>
          <gpxtpx:TrackPointExtension xmlns:gpxtpx="http://www.garmin.com/xmlschemas/TrackPointExtension/v1">
            <gpxtpx:hr>162</gpxtpx:hr>
          </gpxtpx:TrackPointExtension>
        </extensions>
      </trkpt>
      <trkpt lat="46.20349" lon="4.79588">
        <ele>168.7998</ele>
        <time>2026-05-13T13:59:10+02:00</time>
        <extensions>
          <gpxtpx:TrackPointExtension xmlns:gpxtpx="http://www.garmin.com/xmlschemas/TrackPointExtension/v1">
            <gpxtpx:hr>162</gpxtpx:hr>
          </gpxtpx:TrackPointExtension>
        </extensions>
      </trkpt>
      <trkpt lat="46.20355" lon="4.79589">
        <ele>168.90039</ele>
        <time>2026-05-13T13:59:11+02:00</time>
        <extensions>
          <gpxtpx:TrackPointExtension xmlns:gpxtpx="http://www.garmin.com/xmlschemas/TrackPointExtension/v1">
            <gpxtpx:hr>161</gpxtpx:hr>
          </gpxtpx:TrackPointExtension>
        </extensions>
      </trkpt>
      <trkpt lat="46.20361" lon="4.7959">
        <ele>169.10059</ele>
        <time>2026-05-13T13:59:12+02:00</time>
        <extensions>
          <gpxtpx:TrackPointExtension xmlns:gpxtpx="http://www.garmin.com/xmlschemas/TrackPointExtension/v1">
            <gpxtpx:hr>162</gpxtpx:hr>
          </gpxtpx:TrackPointExtension>
        </extensions>
      </trkpt>
      <trkpt lat="46.20366" lon="4.7959">
        <ele>169.2998</ele>
        <time>2026-05-13T13:59:13+02:00</time>
        <extensions>
          <gpxtpx:TrackPointExtension xmlns:gpxtpx="http://www.garmin.com/xmlschemas/TrackPointExtension/v1">
            <gpxtpx:hr>162</gpxtpx:hr>
          </gpxtpx:TrackPointExtension>
        </extensions>
      </trkpt>
      <trkpt lat="46.20372" lon="4.79591">
        <ele>169.40039</ele>
        <time>2026-05-13T13:59:14+02:00</time>
        <extensions>
          <gpxtpx:TrackPointExtension xmlns:gpxtpx="http://www.garmin.com/xmlschemas/TrackPointExtension/v1">
            <gpxtpx:hr>162</gpxtpx:hr>
          </gpxtpx:TrackPointExtension>
        </extensions>
      </trkpt>
      <trkpt lat="46.20377" lon="4.79591">
        <ele>169.40039</ele>
        <time>2026-05-13T13:59:15+02:00</time>
        <extensions>
          <gpxtpx:TrackPointExtension xmlns:gpxtpx="http://www.garmin.com/xmlschemas/TrackPointExtension/v1">
            <gpxtpx:hr>161</gpxtpx:hr>
          </gpxtpx:TrackPointExtension>
        </extensions>
      </trkpt>
      <trkpt lat="46.20383" lon="4.79591">
        <ele>169.7002</ele>
        <time>2026-05-13T13:59:16+02:00</time>
        <extensions>
          <gpxtpx:TrackPointExtension xmlns:gpxtpx="http://www.garmin.com/xmlschemas/TrackPointExtension/v1">
            <gpxtpx:hr>161</gpxtpx:hr>
          </gpxtpx:TrackPointExtension>
        </extensions>
      </trkpt>
      <trkpt lat="46.20389" lon="4.7959">
        <ele>169.90039</ele>
        <time>2026-05-13T13:59:17+02:00</time>
        <extensions>
          <gpxtpx:TrackPointExtension xmlns:gpxtpx="http://www.garmin.com/xmlschemas/TrackPointExtension/v1">
            <gpxtpx:hr>161</gpxtpx:hr>
          </gpxtpx:TrackPointExtension>
        </extensions>
      </trkpt>
      <trkpt lat="46.20394" lon="4.7959">
        <ele>170.10059</ele>
        <time>2026-05-13T13:59:18+02:00</time>
        <extensions>
          <gpxtpx:TrackPointExtension xmlns:gpxtpx="http://www.garmin.com/xmlschemas/TrackPointExtension/v1">
            <gpxtpx:hr>161</gpxtpx:hr>
          </gpxtpx:TrackPointExtension>
        </extensions>
      </trkpt>
      <trkpt lat="46.204" lon="4.79588">
        <ele>170.40039</ele>
        <time>2026-05-13T13:59:19+02:00</time>
        <extensions>
          <gpxtpx:TrackPointExtension xmlns:gpxtpx="http://www.garmin.com/xmlschemas/TrackPointExtension/v1">
            <gpxtpx:hr>161</gpxtpx:hr>
          </gpxtpx:TrackPointExtension>
        </extensions>
      </trkpt>
      <trkpt lat="46.20406" lon="4.79587">
        <ele>170.40039</ele>
        <time>2026-05-13T13:59:20+02:00</time>
        <extensions>
          <gpxtpx:TrackPointExtension xmlns:gpxtpx="http://www.garmin.com/xmlschemas/TrackPointExtension/v1">
            <gpxtpx:hr>161</gpxtpx:hr>
          </gpxtpx:TrackPointExtension>
        </extensions>
      </trkpt>
      <trkpt lat="46.20411" lon="4.79585">
        <ele>170.40039</ele>
        <time>2026-05-13T13:59:21+02:00</time>
        <extensions>
          <gpxtpx:TrackPointExtension xmlns:gpxtpx="http://www.garmin.com/xmlschemas/TrackPointExtension/v1">
            <gpxtpx:hr>161</gpxtpx:hr>
          </gpxtpx:TrackPointExtension>
        </extensions>
      </trkpt>
      <trkpt lat="46.20417" lon="4.79584">
        <ele>170.40039</ele>
        <time>2026-05-13T13:59:22+02:00</time>
        <extensions>
          <gpxtpx:TrackPointExtension xmlns:gpxtpx="http://www.garmin.com/xmlschemas/TrackPointExtension/v1">
            <gpxtpx:hr>162</gpxtpx:hr>
          </gpxtpx:TrackPointExtension>
        </extensions>
      </trkpt>
      <trkpt lat="46.20423" lon="4.79582">
        <ele>170.2998</ele>
        <time>2026-05-13T13:59:23+02:00</time>
        <extensions>
          <gpxtpx:TrackPointExtension xmlns:gpxtpx="http://www.garmin.com/xmlschemas/TrackPointExtension/v1">
            <gpxtpx:hr>161</gpxtpx:hr>
          </gpxtpx:TrackPointExtension>
        </extensions>
      </trkpt>
      <trkpt lat="46.20429" lon="4.7958">
        <ele>170.2998</ele>
        <time>2026-05-13T13:59:24+02:00</time>
        <extensions>
          <gpxtpx:TrackPointExtension xmlns:gpxtpx="http://www.garmin.com/xmlschemas/TrackPointExtension/v1">
            <gpxtpx:hr>161</gpxtpx:hr>
          </gpxtpx:TrackPointExtension>
        </extensions>
      </trkpt>
      <trkpt lat="46.20434" lon="4.79579">
        <ele>170.2998</ele>
        <time>2026-05-13T13:59:25+02:00</time>
        <extensions>
          <gpxtpx:TrackPointExtension xmlns:gpxtpx="http://www.garmin.com/xmlschemas/TrackPointExtension/v1">
            <gpxtpx:hr>161</gpxtpx:hr>
          </gpxtpx:TrackPointExtension>
        </extensions>
      </trkpt>
      <trkpt lat="46.2044" lon="4.79578">
        <ele>170</ele>
        <time>2026-05-13T13:59:26+02:00</time>
        <extensions>
          <gpxtpx:TrackPointExtension xmlns:gpxtpx="http://www.garmin.com/xmlschemas/TrackPointExtension/v1">
            <gpxtpx:hr>161</gpxtpx:hr>
          </gpxtpx:TrackPointExtension>
        </extensions>
      </trkpt>
      <trkpt lat="46.20445" lon="4.79576">
        <ele>169.90039</ele>
        <time>2026-05-13T13:59:27+02:00</time>
        <extensions>
          <gpxtpx:TrackPointExtension xmlns:gpxtpx="http://www.garmin.com/xmlschemas/TrackPointExtension/v1">
            <gpxtpx:hr>162</gpxtpx:hr>
          </gpxtpx:TrackPointExtension>
        </extensions>
      </trkpt>
      <trkpt lat="46.20451" lon="4.79575">
        <ele>169.7998</ele>
        <time>2026-05-13T13:59:28+02:00</time>
        <extensions>
          <gpxtpx:TrackPointExtension xmlns:gpxtpx="http://www.garmin.com/xmlschemas/TrackPointExtension/v1">
            <gpxtpx:hr>162</gpxtpx:hr>
          </gpxtpx:TrackPointExtension>
        </extensions>
      </trkpt>
      <trkpt lat="46.20457" lon="4.79573">
        <ele>169.7002</ele>
        <time>2026-05-13T13:59:29+02:00</time>
        <extensions>
          <gpxtpx:TrackPointExtension xmlns:gpxtpx="http://www.garmin.com/xmlschemas/TrackPointExtension/v1">
            <gpxtpx:hr>162</gpxtpx:hr>
          </gpxtpx:TrackPointExtension>
        </extensions>
      </trkpt>
      <trkpt lat="46.20463" lon="4.79571">
        <ele>169.7002</ele>
        <time>2026-05-13T13:59:30+02:00</time>
        <extensions>
          <gpxtpx:TrackPointExtension xmlns:gpxtpx="http://www.garmin.com/xmlschemas/TrackPointExtension/v1">
            <gpxtpx:hr>162</gpxtpx:hr>
          </gpxtpx:TrackPointExtension>
        </extensions>
      </trkpt>
      <trkpt lat="46.20468" lon="4.7957">
        <ele>169.2998</ele>
        <time>2026-05-13T13:59:31+02:00</time>
        <extensions>
          <gpxtpx:TrackPointExtension xmlns:gpxtpx="http://www.garmin.com/xmlschemas/TrackPointExtension/v1">
            <gpxtpx:hr>162</gpxtpx:hr>
          </gpxtpx:TrackPointExtension>
        </extensions>
      </trkpt>
      <trkpt lat="46.20474" lon="4.79569">
        <ele>169.2002</ele>
        <time>2026-05-13T13:59:32+02:00</time>
        <extensions>
          <gpxtpx:TrackPointExtension xmlns:gpxtpx="http://www.garmin.com/xmlschemas/TrackPointExtension/v1">
            <gpxtpx:hr>162</gpxtpx:hr>
          </gpxtpx:TrackPointExtension>
        </extensions>
      </trkpt>
      <trkpt lat="46.2048" lon="4.79568">
        <ele>169.10059</ele>
        <time>2026-05-13T13:59:33+02:00</time>
        <extensions>
          <gpxtpx:TrackPointExtension xmlns:gpxtpx="http://www.garmin.com/xmlschemas/TrackPointExtension/v1">
            <gpxtpx:hr>162</gpxtpx:hr>
          </gpxtpx:TrackPointExtension>
        </extensions>
      </trkpt>
      <trkpt lat="46.20485" lon="4.79568">
        <ele>169</ele>
        <time>2026-05-13T13:59:34+02:00</time>
        <extensions>
          <gpxtpx:TrackPointExtension xmlns:gpxtpx="http://www.garmin.com/xmlschemas/TrackPointExtension/v1">
            <gpxtpx:hr>162</gpxtpx:hr>
          </gpxtpx:TrackPointExtension>
        </extensions>
      </trkpt>
      <trkpt lat="46.20491" lon="4.79567">
        <ele>168.90039</ele>
        <time>2026-05-13T13:59:35+02:00</time>
        <extensions>
          <gpxtpx:TrackPointExtension xmlns:gpxtpx="http://www.garmin.com/xmlschemas/TrackPointExtension/v1">
            <gpxtpx:hr>162</gpxtpx:hr>
          </gpxtpx:TrackPointExtension>
        </extensions>
      </trkpt>
      <trkpt lat="46.20497" lon="4.79566">
        <ele>168.90039</ele>
        <time>2026-05-13T13:59:36+02:00</time>
        <extensions>
          <gpxtpx:TrackPointExtension xmlns:gpxtpx="http://www.garmin.com/xmlschemas/TrackPointExtension/v1">
            <gpxtpx:hr>163</gpxtpx:hr>
          </gpxtpx:TrackPointExtension>
        </extensions>
      </trkpt>
      <trkpt lat="46.20503" lon="4.79565">
        <ele>168.7998</ele>
        <time>2026-05-13T13:59:37+02:00</time>
        <extensions>
          <gpxtpx:TrackPointExtension xmlns:gpxtpx="http://www.garmin.com/xmlschemas/TrackPointExtension/v1">
            <gpxtpx:hr>163</gpxtpx:hr>
          </gpxtpx:TrackPointExtension>
        </extensions>
      </trkpt>
      <trkpt lat="46.20508" lon="4.79564">
        <ele>168.7998</ele>
        <time>2026-05-13T13:59:38+02:00</time>
        <extensions>
          <gpxtpx:TrackPointExtension xmlns:gpxtpx="http://www.garmin.com/xmlschemas/TrackPointExtension/v1">
            <gpxtpx:hr>163</gpxtpx:hr>
          </gpxtpx:TrackPointExtension>
        </extensions>
      </trkpt>
      <trkpt lat="46.20513" lon="4.79562">
        <ele>168.7002</ele>
        <time>2026-05-13T13:59:39+02:00</time>
        <extensions>
          <gpxtpx:TrackPointExtension xmlns:gpxtpx="http://www.garmin.com/xmlschemas/TrackPointExtension/v1">
            <gpxtpx:hr>164</gpxtpx:hr>
          </gpxtpx:TrackPointExtension>
        </extensions>
      </trkpt>
      <trkpt lat="46.20519" lon="4.79561">
        <ele>168.5</ele>
        <time>2026-05-13T13:59:40+02:00</time>
        <extensions>
          <gpxtpx:TrackPointExtension xmlns:gpxtpx="http://www.garmin.com/xmlschemas/TrackPointExtension/v1">
            <gpxtpx:hr>164</gpxtpx:hr>
          </gpxtpx:TrackPointExtension>
        </extensions>
      </trkpt>
      <trkpt lat="46.20525" lon="4.7956">
        <ele>168.5</ele>
        <time>2026-05-13T13:59:41+02:00</time>
        <extensions>
          <gpxtpx:TrackPointExtension xmlns:gpxtpx="http://www.garmin.com/xmlschemas/TrackPointExtension/v1">
            <gpxtpx:hr>164</gpxtpx:hr>
          </gpxtpx:TrackPointExtension>
        </extensions>
      </trkpt>
      <trkpt lat="46.2053" lon="4.79558">
        <ele>168.60059</ele>
        <time>2026-05-13T13:59:42+02:00</time>
        <extensions>
          <gpxtpx:TrackPointExtension xmlns:gpxtpx="http://www.garmin.com/xmlschemas/TrackPointExtension/v1">
            <gpxtpx:hr>164</gpxtpx:hr>
          </gpxtpx:TrackPointExtension>
        </extensions>
      </trkpt>
      <trkpt lat="46.20535" lon="4.79555">
        <ele>168.60059</ele>
        <time>2026-05-13T13:59:43+02:00</time>
        <extensions>
          <gpxtpx:TrackPointExtension xmlns:gpxtpx="http://www.garmin.com/xmlschemas/TrackPointExtension/v1">
            <gpxtpx:hr>165</gpxtpx:hr>
          </gpxtpx:TrackPointExtension>
        </extensions>
      </trkpt>
      <trkpt lat="46.20541" lon="4.79553">
        <ele>168.60059</ele>
        <time>2026-05-13T13:59:44+02:00</time>
        <extensions>
          <gpxtpx:TrackPointExtension xmlns:gpxtpx="http://www.garmin.com/xmlschemas/TrackPointExtension/v1">
            <gpxtpx:hr>165</gpxtpx:hr>
          </gpxtpx:TrackPointExtension>
        </extensions>
      </trkpt>
      <trkpt lat="46.20546" lon="4.79551">
        <ele>168.60059</ele>
        <time>2026-05-13T13:59:45+02:00</time>
        <extensions>
          <gpxtpx:TrackPointExtension xmlns:gpxtpx="http://www.garmin.com/xmlschemas/TrackPointExtension/v1">
            <gpxtpx:hr>165</gpxtpx:hr>
          </gpxtpx:TrackPointExtension>
        </extensions>
      </trkpt>
      <trkpt lat="46.20551" lon="4.79548">
        <ele>168.7002</ele>
        <time>2026-05-13T13:59:46+02:00</time>
        <extensions>
          <gpxtpx:TrackPointExtension xmlns:gpxtpx="http://www.garmin.com/xmlschemas/TrackPointExtension/v1">
            <gpxtpx:hr>165</gpxtpx:hr>
          </gpxtpx:TrackPointExtension>
        </extensions>
      </trkpt>
      <trkpt lat="46.20557" lon="4.79546">
        <ele>168.7002</ele>
        <time>2026-05-13T13:59:47+02:00</time>
        <extensions>
          <gpxtpx:TrackPointExtension xmlns:gpxtpx="http://www.garmin.com/xmlschemas/TrackPointExtension/v1">
            <gpxtpx:hr>164</gpxtpx:hr>
          </gpxtpx:TrackPointExtension>
        </extensions>
      </trkpt>
      <trkpt lat="46.20562" lon="4.79543">
        <ele>168.60059</ele>
        <time>2026-05-13T13:59:48+02:00</time>
        <extensions>
          <gpxtpx:TrackPointExtension xmlns:gpxtpx="http://www.garmin.com/xmlschemas/TrackPointExtension/v1">
            <gpxtpx:hr>164</gpxtpx:hr>
          </gpxtpx:TrackPointExtension>
        </extensions>
      </trkpt>
      <trkpt lat="46.20567" lon="4.79541">
        <ele>168.60059</ele>
        <time>2026-05-13T13:59:49+02:00</time>
        <extensions>
          <gpxtpx:TrackPointExtension xmlns:gpxtpx="http://www.garmin.com/xmlschemas/TrackPointExtension/v1">
            <gpxtpx:hr>164</gpxtpx:hr>
          </gpxtpx:TrackPointExtension>
        </extensions>
      </trkpt>
      <trkpt lat="46.20572" lon="4.79538">
        <ele>168.60059</ele>
        <time>2026-05-13T13:59:50+02:00</time>
        <extensions>
          <gpxtpx:TrackPointExtension xmlns:gpxtpx="http://www.garmin.com/xmlschemas/TrackPointExtension/v1">
            <gpxtpx:hr>164</gpxtpx:hr>
          </gpxtpx:TrackPointExtension>
        </extensions>
      </trkpt>
      <trkpt lat="46.20578" lon="4.79535">
        <ele>168.5</ele>
        <time>2026-05-13T13:59:51+02:00</time>
        <extensions>
          <gpxtpx:TrackPointExtension xmlns:gpxtpx="http://www.garmin.com/xmlschemas/TrackPointExtension/v1">
            <gpxtpx:hr>165</gpxtpx:hr>
          </gpxtpx:TrackPointExtension>
        </extensions>
      </trkpt>
      <trkpt lat="46.20583" lon="4.79533">
        <ele>168.5</ele>
        <time>2026-05-13T13:59:52+02:00</time>
        <extensions>
          <gpxtpx:TrackPointExtension xmlns:gpxtpx="http://www.garmin.com/xmlschemas/TrackPointExtension/v1">
            <gpxtpx:hr>165</gpxtpx:hr>
          </gpxtpx:TrackPointExtension>
        </extensions>
      </trkpt>
      <trkpt lat="46.20588" lon="4.7953">
        <ele>168.60059</ele>
        <time>2026-05-13T13:59:53+02:00</time>
        <extensions>
          <gpxtpx:TrackPointExtension xmlns:gpxtpx="http://www.garmin.com/xmlschemas/TrackPointExtension/v1">
            <gpxtpx:hr>165</gpxtpx:hr>
          </gpxtpx:TrackPointExtension>
        </extensions>
      </trkpt>
      <trkpt lat="46.20593" lon="4.79528">
        <ele>168.60059</ele>
        <time>2026-05-13T13:59:54+02:00</time>
        <extensions>
          <gpxtpx:TrackPointExtension xmlns:gpxtpx="http://www.garmin.com/xmlschemas/TrackPointExtension/v1">
            <gpxtpx:hr>165</gpxtpx:hr>
          </gpxtpx:TrackPointExtension>
        </extensions>
      </trkpt>
      <trkpt lat="46.20599" lon="4.79525">
        <ele>168.60059</ele>
        <time>2026-05-13T13:59:55+02:00</time>
        <extensions>
          <gpxtpx:TrackPointExtension xmlns:gpxtpx="http://www.garmin.com/xmlschemas/TrackPointExtension/v1">
            <gpxtpx:hr>165</gpxtpx:hr>
          </gpxtpx:TrackPointExtension>
        </extensions>
      </trkpt>
      <trkpt lat="46.20604" lon="4.79521">
        <ele>168.7002</ele>
        <time>2026-05-13T13:59:56+02:00</time>
        <extensions>
          <gpxtpx:TrackPointExtension xmlns:gpxtpx="http://www.garmin.com/xmlschemas/TrackPointExtension/v1">
            <gpxtpx:hr>166</gpxtpx:hr>
          </gpxtpx:TrackPointExtension>
        </extensions>
      </trkpt>
      <trkpt lat="46.20609" lon="4.79517">
        <ele>168.5</ele>
        <time>2026-05-13T13:59:57+02:00</time>
        <extensions>
          <gpxtpx:TrackPointExtension xmlns:gpxtpx="http://www.garmin.com/xmlschemas/TrackPointExtension/v1">
            <gpxtpx:hr>166</gpxtpx:hr>
          </gpxtpx:TrackPointExtension>
        </extensions>
      </trkpt>
      <trkpt lat="46.20614" lon="4.79513">
        <ele>168.60059</ele>
        <time>2026-05-13T13:59:58+02:00</time>
        <extensions>
          <gpxtpx:TrackPointExtension xmlns:gpxtpx="http://www.garmin.com/xmlschemas/TrackPointExtension/v1">
            <gpxtpx:hr>166</gpxtpx:hr>
          </gpxtpx:TrackPointExtension>
        </extensions>
      </trkpt>
      <trkpt lat="46.20619" lon="4.79508">
        <ele>168.60059</ele>
        <time>2026-05-13T13:59:59+02:00</time>
        <extensions>
          <gpxtpx:TrackPointExtension xmlns:gpxtpx="http://www.garmin.com/xmlschemas/TrackPointExtension/v1">
            <gpxtpx:hr>166</gpxtpx:hr>
          </gpxtpx:TrackPointExtension>
        </extensions>
      </trkpt>
      <trkpt lat="46.20623" lon="4.79503">
        <ele>168.7998</ele>
        <time>2026-05-13T14:00:00+02:00</time>
        <extensions>
          <gpxtpx:TrackPointExtension xmlns:gpxtpx="http://www.garmin.com/xmlschemas/TrackPointExtension/v1">
            <gpxtpx:hr>166</gpxtpx:hr>
          </gpxtpx:TrackPointExtension>
        </extensions>
      </trkpt>
      <trkpt lat="46.20627" lon="4.79498">
        <ele>168.60059</ele>
        <time>2026-05-13T14:00:01+02:00</time>
        <extensions>
          <gpxtpx:TrackPointExtension xmlns:gpxtpx="http://www.garmin.com/xmlschemas/TrackPointExtension/v1">
            <gpxtpx:hr>166</gpxtpx:hr>
          </gpxtpx:TrackPointExtension>
        </extensions>
      </trkpt>
      <trkpt lat="46.20631" lon="4.79493">
        <ele>168.60059</ele>
        <time>2026-05-13T14:00:02+02:00</time>
        <extensions>
          <gpxtpx:TrackPointExtension xmlns:gpxtpx="http://www.garmin.com/xmlschemas/TrackPointExtension/v1">
            <gpxtpx:hr>165</gpxtpx:hr>
          </gpxtpx:TrackPointExtension>
        </extensions>
      </trkpt>
      <trkpt lat="46.20635" lon="4.79488">
        <ele>168.7002</ele>
        <time>2026-05-13T14:00:03+02:00</time>
        <extensions>
          <gpxtpx:TrackPointExtension xmlns:gpxtpx="http://www.garmin.com/xmlschemas/TrackPointExtension/v1">
            <gpxtpx:hr>165</gpxtpx:hr>
          </gpxtpx:TrackPointExtension>
        </extensions>
      </trkpt>
      <trkpt lat="46.20638" lon="4.79483">
        <ele>168.5</ele>
        <time>2026-05-13T14:00:04+02:00</time>
        <extensions>
          <gpxtpx:TrackPointExtension xmlns:gpxtpx="http://www.garmin.com/xmlschemas/TrackPointExtension/v1">
            <gpxtpx:hr>165</gpxtpx:hr>
          </gpxtpx:TrackPointExtension>
        </extensions>
      </trkpt>
      <trkpt lat="46.20643" lon="4.7948">
        <ele>168.60059</ele>
        <time>2026-05-13T14:00:05+02:00</time>
        <extensions>
          <gpxtpx:TrackPointExtension xmlns:gpxtpx="http://www.garmin.com/xmlschemas/TrackPointExtension/v1">
            <gpxtpx:hr>165</gpxtpx:hr>
          </gpxtpx:TrackPointExtension>
        </extensions>
      </trkpt>
      <trkpt lat="46.20648" lon="4.79478">
        <ele>168.60059</ele>
        <time>2026-05-13T14:00:06+02:00</time>
        <extensions>
          <gpxtpx:TrackPointExtension xmlns:gpxtpx="http://www.garmin.com/xmlschemas/TrackPointExtension/v1">
            <gpxtpx:hr>165</gpxtpx:hr>
          </gpxtpx:TrackPointExtension>
        </extensions>
      </trkpt>
      <trkpt lat="46.20653" lon="4.79476">
        <ele>168.60059</ele>
        <time>2026-05-13T14:00:07+02:00</time>
        <extensions>
          <gpxtpx:TrackPointExtension xmlns:gpxtpx="http://www.garmin.com/xmlschemas/TrackPointExtension/v1">
            <gpxtpx:hr>164</gpxtpx:hr>
          </gpxtpx:TrackPointExtension>
        </extensions>
      </trkpt>
      <trkpt lat="46.20658" lon="4.79475">
        <ele>168.5</ele>
        <time>2026-05-13T14:00:08+02:00</time>
        <extensions>
          <gpxtpx:TrackPointExtension xmlns:gpxtpx="http://www.garmin.com/xmlschemas/TrackPointExtension/v1">
            <gpxtpx:hr>163</gpxtpx:hr>
          </gpxtpx:TrackPointExtension>
        </extensions>
      </trkpt>
      <trkpt lat="46.20664" lon="4.79473">
        <ele>168.5</ele>
        <time>2026-05-13T14:00:09+02:00</time>
        <extensions>
          <gpxtpx:TrackPointExtension xmlns:gpxtpx="http://www.garmin.com/xmlschemas/TrackPointExtension/v1">
            <gpxtpx:hr>162</gpxtpx:hr>
          </gpxtpx:TrackPointExtension>
        </extensions>
      </trkpt>
      <trkpt lat="46.20669" lon="4.79471">
        <ele>168.5</ele>
        <time>2026-05-13T14:00:10+02:00</time>
        <extensions>
          <gpxtpx:TrackPointExtension xmlns:gpxtpx="http://www.garmin.com/xmlschemas/TrackPointExtension/v1">
            <gpxtpx:hr>163</gpxtpx:hr>
          </gpxtpx:TrackPointExtension>
        </extensions>
      </trkpt>
      <trkpt lat="46.20674" lon="4.79469">
        <ele>168.5</ele>
        <time>2026-05-13T14:00:11+02:00</time>
        <extensions>
          <gpxtpx:TrackPointExtension xmlns:gpxtpx="http://www.garmin.com/xmlschemas/TrackPointExtension/v1">
            <gpxtpx:hr>161</gpxtpx:hr>
          </gpxtpx:TrackPointExtension>
        </extensions>
      </trkpt>
      <trkpt lat="46.20679" lon="4.79468">
        <ele>168.5</ele>
        <time>2026-05-13T14:00:12+02:00</time>
        <extensions>
          <gpxtpx:TrackPointExtension xmlns:gpxtpx="http://www.garmin.com/xmlschemas/TrackPointExtension/v1">
            <gpxtpx:hr>161</gpxtpx:hr>
          </gpxtpx:TrackPointExtension>
        </extensions>
      </trkpt>
      <trkpt lat="46.20685" lon="4.79467">
        <ele>168.40039</ele>
        <time>2026-05-13T14:00:13+02:00</time>
        <extensions>
          <gpxtpx:TrackPointExtension xmlns:gpxtpx="http://www.garmin.com/xmlschemas/TrackPointExtension/v1">
            <gpxtpx:hr>161</gpxtpx:hr>
          </gpxtpx:TrackPointExtension>
        </extensions>
      </trkpt>
      <trkpt lat="46.2069" lon="4.79467">
        <ele>168.40039</ele>
        <time>2026-05-13T14:00:14+02:00</time>
        <extensions>
          <gpxtpx:TrackPointExtension xmlns:gpxtpx="http://www.garmin.com/xmlschemas/TrackPointExtension/v1">
            <gpxtpx:hr>162</gpxtpx:hr>
          </gpxtpx:TrackPointExtension>
        </extensions>
      </trkpt>
      <trkpt lat="46.20695" lon="4.79471">
        <ele>168.60059</ele>
        <time>2026-05-13T14:00:15+02:00</time>
        <extensions>
          <gpxtpx:TrackPointExtension xmlns:gpxtpx="http://www.garmin.com/xmlschemas/TrackPointExtension/v1">
            <gpxtpx:hr>161</gpxtpx:hr>
          </gpxtpx:TrackPointExtension>
        </extensions>
      </trkpt>
      <trkpt lat="46.20699" lon="4.79475">
        <ele>168.60059</ele>
        <time>2026-05-13T14:00:16+02:00</time>
        <extensions>
          <gpxtpx:TrackPointExtension xmlns:gpxtpx="http://www.garmin.com/xmlschemas/TrackPointExtension/v1">
            <gpxtpx:hr>162</gpxtpx:hr>
          </gpxtpx:TrackPointExtension>
        </extensions>
      </trkpt>
      <trkpt lat="46.20704" lon="4.7948">
        <ele>168.90039</ele>
        <time>2026-05-13T14:00:17+02:00</time>
        <extensions>
          <gpxtpx:TrackPointExtension xmlns:gpxtpx="http://www.garmin.com/xmlschemas/TrackPointExtension/v1">
            <gpxtpx:hr>162</gpxtpx:hr>
          </gpxtpx:TrackPointExtension>
        </extensions>
      </trkpt>
      <trkpt lat="46.2071" lon="4.79485">
        <ele>169.2998</ele>
        <time>2026-05-13T14:00:18+02:00</time>
        <extensions>
          <gpxtpx:TrackPointExtension xmlns:gpxtpx="http://www.garmin.com/xmlschemas/TrackPointExtension/v1">
            <gpxtpx:hr>163</gpxtpx:hr>
          </gpxtpx:TrackPointExtension>
        </extensions>
      </trkpt>
      <trkpt lat="46.20715" lon="4.79489">
        <ele>169.2998</ele>
        <time>2026-05-13T14:00:19+02:00</time>
        <extensions>
          <gpxtpx:TrackPointExtension xmlns:gpxtpx="http://www.garmin.com/xmlschemas/TrackPointExtension/v1">
            <gpxtpx:hr>163</gpxtpx:hr>
          </gpxtpx:TrackPointExtension>
        </extensions>
      </trkpt>
      <trkpt lat="46.2072" lon="4.79491">
        <ele>169.2998</ele>
        <time>2026-05-13T14:00:20+02:00</time>
        <extensions>
          <gpxtpx:TrackPointExtension xmlns:gpxtpx="http://www.garmin.com/xmlschemas/TrackPointExtension/v1">
            <gpxtpx:hr>163</gpxtpx:hr>
          </gpxtpx:TrackPointExtension>
        </extensions>
      </trkpt>
      <trkpt lat="46.20726" lon="4.79493">
        <ele>169.2998</ele>
        <time>2026-05-13T14:00:21+02:00</time>
        <extensions>
          <gpxtpx:TrackPointExtension xmlns:gpxtpx="http://www.garmin.com/xmlschemas/TrackPointExtension/v1">
            <gpxtpx:hr>163</gpxtpx:hr>
          </gpxtpx:TrackPointExtension>
        </extensions>
      </trkpt>
      <trkpt lat="46.20732" lon="4.79494">
        <ele>169.7998</ele>
        <time>2026-05-13T14:00:22+02:00</time>
        <extensions>
          <gpxtpx:TrackPointExtension xmlns:gpxtpx="http://www.garmin.com/xmlschemas/TrackPointExtension/v1">
            <gpxtpx:hr>164</gpxtpx:hr>
          </gpxtpx:TrackPointExtension>
        </extensions>
      </trkpt>
      <trkpt lat="46.20737" lon="4.79494">
        <ele>169.7998</ele>
        <time>2026-05-13T14:00:23+02:00</time>
        <extensions>
          <gpxtpx:TrackPointExtension xmlns:gpxtpx="http://www.garmin.com/xmlschemas/TrackPointExtension/v1">
            <gpxtpx:hr>164</gpxtpx:hr>
          </gpxtpx:TrackPointExtension>
        </extensions>
      </trkpt>
      <trkpt lat="46.20743" lon="4.79494">
        <ele>169.7998</ele>
        <time>2026-05-13T14:00:24+02:00</time>
        <extensions>
          <gpxtpx:TrackPointExtension xmlns:gpxtpx="http://www.garmin.com/xmlschemas/TrackPointExtension/v1">
            <gpxtpx:hr>164</gpxtpx:hr>
          </gpxtpx:TrackPointExtension>
        </extensions>
      </trkpt>
      <trkpt lat="46.20748" lon="4.79494">
        <ele>169.7002</ele>
        <time>2026-05-13T14:00:25+02:00</time>
        <extensions>
          <gpxtpx:TrackPointExtension xmlns:gpxtpx="http://www.garmin.com/xmlschemas/TrackPointExtension/v1">
            <gpxtpx:hr>165</gpxtpx:hr>
          </gpxtpx:TrackPointExtension>
        </extensions>
      </trkpt>
      <trkpt lat="46.20754" lon="4.79493">
        <ele>169.2002</ele>
        <time>2026-05-13T14:00:26+02:00</time>
        <extensions>
          <gpxtpx:TrackPointExtension xmlns:gpxtpx="http://www.garmin.com/xmlschemas/TrackPointExtension/v1">
            <gpxtpx:hr>165</gpxtpx:hr>
          </gpxtpx:TrackPointExtension>
        </extensions>
      </trkpt>
      <trkpt lat="46.20759" lon="4.79492">
        <ele>169.10059</ele>
        <time>2026-05-13T14:00:27+02:00</time>
        <extensions>
          <gpxtpx:TrackPointExtension xmlns:gpxtpx="http://www.garmin.com/xmlschemas/TrackPointExtension/v1">
            <gpxtpx:hr>165</gpxtpx:hr>
          </gpxtpx:TrackPointExtension>
        </extensions>
      </trkpt>
      <trkpt lat="46.20765" lon="4.79491">
        <ele>169</ele>
        <time>2026-05-13T14:00:28+02:00</time>
        <extensions>
          <gpxtpx:TrackPointExtension xmlns:gpxtpx="http://www.garmin.com/xmlschemas/TrackPointExtension/v1">
            <gpxtpx:hr>165</gpxtpx:hr>
          </gpxtpx:TrackPointExtension>
        </extensions>
      </trkpt>
      <trkpt lat="46.2077" lon="4.79489">
        <ele>168.90039</ele>
        <time>2026-05-13T14:00:29+02:00</time>
        <extensions>
          <gpxtpx:TrackPointExtension xmlns:gpxtpx="http://www.garmin.com/xmlschemas/TrackPointExtension/v1">
            <gpxtpx:hr>166</gpxtpx:hr>
          </gpxtpx:TrackPointExtension>
        </extensions>
      </trkpt>
      <trkpt lat="46.20776" lon="4.79488">
        <ele>168.7998</ele>
        <time>2026-05-13T14:00:30+02:00</time>
        <extensions>
          <gpxtpx:TrackPointExtension xmlns:gpxtpx="http://www.garmin.com/xmlschemas/TrackPointExtension/v1">
            <gpxtpx:hr>166</gpxtpx:hr>
          </gpxtpx:TrackPointExtension>
        </extensions>
      </trkpt>
      <trkpt lat="46.20782" lon="4.79487">
        <ele>168.7002</ele>
        <time>2026-05-13T14:00:31+02:00</time>
        <extensions>
          <gpxtpx:TrackPointExtension xmlns:gpxtpx="http://www.garmin.com/xmlschemas/TrackPointExtension/v1">
            <gpxtpx:hr>166</gpxtpx:hr>
          </gpxtpx:TrackPointExtension>
        </extensions>
      </trkpt>
      <trkpt lat="46.20788" lon="4.79486">
        <ele>168.60059</ele>
        <time>2026-05-13T14:00:32+02:00</time>
        <extensions>
          <gpxtpx:TrackPointExtension xmlns:gpxtpx="http://www.garmin.com/xmlschemas/TrackPointExtension/v1">
            <gpxtpx:hr>166</gpxtpx:hr>
          </gpxtpx:TrackPointExtension>
        </extensions>
      </trkpt>
      <trkpt lat="46.20793" lon="4.79485">
        <ele>168.60059</ele>
        <time>2026-05-13T14:00:33+02:00</time>
        <extensions>
          <gpxtpx:TrackPointExtension xmlns:gpxtpx="http://www.garmin.com/xmlschemas/TrackPointExtension/v1">
            <gpxtpx:hr>166</gpxtpx:hr>
          </gpxtpx:TrackPointExtension>
        </extensions>
      </trkpt>
      <trkpt lat="46.20799" lon="4.79483">
        <ele>168.5</ele>
        <time>2026-05-13T14:00:34+02:00</time>
        <extensions>
          <gpxtpx:TrackPointExtension xmlns:gpxtpx="http://www.garmin.com/xmlschemas/TrackPointExtension/v1">
            <gpxtpx:hr>166</gpxtpx:hr>
          </gpxtpx:TrackPointExtension>
        </extensions>
      </trkpt>
      <trkpt lat="46.20804" lon="4.79482">
        <ele>168.40039</ele>
        <time>2026-05-13T14:00:35+02:00</time>
        <extensions>
          <gpxtpx:TrackPointExtension xmlns:gpxtpx="http://www.garmin.com/xmlschemas/TrackPointExtension/v1">
            <gpxtpx:hr>166</gpxtpx:hr>
          </gpxtpx:TrackPointExtension>
        </extensions>
      </trkpt>
      <trkpt lat="46.2081" lon="4.79481">
        <ele>168.40039</ele>
        <time>2026-05-13T14:00:36+02:00</time>
        <extensions>
          <gpxtpx:TrackPointExtension xmlns:gpxtpx="http://www.garmin.com/xmlschemas/TrackPointExtension/v1">
            <gpxtpx:hr>166</gpxtpx:hr>
          </gpxtpx:TrackPointExtension>
        </extensions>
      </trkpt>
      <trkpt lat="46.20815" lon="4.7948">
        <ele>168.2998</ele>
        <time>2026-05-13T14:00:37+02:00</time>
        <extensions>
          <gpxtpx:TrackPointExtension xmlns:gpxtpx="http://www.garmin.com/xmlschemas/TrackPointExtension/v1">
            <gpxtpx:hr>166</gpxtpx:hr>
          </gpxtpx:TrackPointExtension>
        </extensions>
      </trkpt>
      <trkpt lat="46.20821" lon="4.79479">
        <ele>168.2998</ele>
        <time>2026-05-13T14:00:38+02:00</time>
        <extensions>
          <gpxtpx:TrackPointExtension xmlns:gpxtpx="http://www.garmin.com/xmlschemas/TrackPointExtension/v1">
            <gpxtpx:hr>167</gpxtpx:hr>
          </gpxtpx:TrackPointExtension>
        </extensions>
      </trkpt>
      <trkpt lat="46.20827" lon="4.79478">
        <ele>168.40039</ele>
        <time>2026-05-13T14:00:39+02:00</time>
        <extensions>
          <gpxtpx:TrackPointExtension xmlns:gpxtpx="http://www.garmin.com/xmlschemas/TrackPointExtension/v1">
            <gpxtpx:hr>166</gpxtpx:hr>
          </gpxtpx:TrackPointExtension>
        </extensions>
      </trkpt>
      <trkpt lat="46.20833" lon="4.79477">
        <ele>168.60059</ele>
        <time>2026-05-13T14:00:40+02:00</time>
        <extensions>
          <gpxtpx:TrackPointExtension xmlns:gpxtpx="http://www.garmin.com/xmlschemas/TrackPointExtension/v1">
            <gpxtpx:hr>166</gpxtpx:hr>
          </gpxtpx:TrackPointExtension>
        </extensions>
      </trkpt>
      <trkpt lat="46.20838" lon="4.79476">
        <ele>168.90039</ele>
        <time>2026-05-13T14:00:41+02:00</time>
        <extensions>
          <gpxtpx:TrackPointExtension xmlns:gpxtpx="http://www.garmin.com/xmlschemas/TrackPointExtension/v1">
            <gpxtpx:hr>166</gpxtpx:hr>
          </gpxtpx:TrackPointExtension>
        </extensions>
      </trkpt>
      <trkpt lat="46.20844" lon="4.79475">
        <ele>168.7998</ele>
        <time>2026-05-13T14:00:42+02:00</time>
        <extensions>
          <gpxtpx:TrackPointExtension xmlns:gpxtpx="http://www.garmin.com/xmlschemas/TrackPointExtension/v1">
            <gpxtpx:hr>166</gpxtpx:hr>
          </gpxtpx:TrackPointExtension>
        </extensions>
      </trkpt>
      <trkpt lat="46.2085" lon="4.79474">
        <ele>169</ele>
        <time>2026-05-13T14:00:43+02:00</time>
        <extensions>
          <gpxtpx:TrackPointExtension xmlns:gpxtpx="http://www.garmin.com/xmlschemas/TrackPointExtension/v1">
            <gpxtpx:hr>166</gpxtpx:hr>
          </gpxtpx:TrackPointExtension>
        </extensions>
      </trkpt>
      <trkpt lat="46.20855" lon="4.79473">
        <ele>169.10059</ele>
        <time>2026-05-13T14:00:44+02:00</time>
        <extensions>
          <gpxtpx:TrackPointExtension xmlns:gpxtpx="http://www.garmin.com/xmlschemas/TrackPointExtension/v1">
            <gpxtpx:hr>166</gpxtpx:hr>
          </gpxtpx:TrackPointExtension>
        </extensions>
      </trkpt>
      <trkpt lat="46.20861" lon="4.79472">
        <ele>169.2998</ele>
        <time>2026-05-13T14:00:45+02:00</time>
        <extensions>
          <gpxtpx:TrackPointExtension xmlns:gpxtpx="http://www.garmin.com/xmlschemas/TrackPointExtension/v1">
            <gpxtpx:hr>166</gpxtpx:hr>
          </gpxtpx:TrackPointExtension>
        </extensions>
      </trkpt>
      <trkpt lat="46.20867" lon="4.79471">
        <ele>169.40039</ele>
        <time>2026-05-13T14:00:46+02:00</time>
        <extensions>
          <gpxtpx:TrackPointExtension xmlns:gpxtpx="http://www.garmin.com/xmlschemas/TrackPointExtension/v1">
            <gpxtpx:hr>166</gpxtpx:hr>
          </gpxtpx:TrackPointExtension>
        </extensions>
      </trkpt>
      <trkpt lat="46.20873" lon="4.7947">
        <ele>169.5</ele>
        <time>2026-05-13T14:00:47+02:00</time>
        <extensions>
          <gpxtpx:TrackPointExtension xmlns:gpxtpx="http://www.garmin.com/xmlschemas/TrackPointExtension/v1">
            <gpxtpx:hr>166</gpxtpx:hr>
          </gpxtpx:TrackPointExtension>
        </extensions>
      </trkpt>
      <trkpt lat="46.20879" lon="4.79469">
        <ele>169.60059</ele>
        <time>2026-05-13T14:00:48+02:00</time>
        <extensions>
          <gpxtpx:TrackPointExtension xmlns:gpxtpx="http://www.garmin.com/xmlschemas/TrackPointExtension/v1">
            <gpxtpx:hr>166</gpxtpx:hr>
          </gpxtpx:TrackPointExtension>
        </extensions>
      </trkpt>
      <trkpt lat="46.20884" lon="4.79468">
        <ele>169.60059</ele>
        <time>2026-05-13T14:00:49+02:00</time>
        <extensions>
          <gpxtpx:TrackPointExtension xmlns:gpxtpx="http://www.garmin.com/xmlschemas/TrackPointExtension/v1">
            <gpxtpx:hr>167</gpxtpx:hr>
          </gpxtpx:TrackPointExtension>
        </extensions>
      </trkpt>
      <trkpt lat="46.2089" lon="4.79468">
        <ele>169.7002</ele>
        <time>2026-05-13T14:00:50+02:00</time>
        <extensions>
          <gpxtpx:TrackPointExtension xmlns:gpxtpx="http://www.garmin.com/xmlschemas/TrackPointExtension/v1">
            <gpxtpx:hr>167</gpxtpx:hr>
          </gpxtpx:TrackPointExtension>
        </extensions>
      </trkpt>
      <trkpt lat="46.20896" lon="4.79467">
        <ele>169.2002</ele>
        <time>2026-05-13T14:00:51+02:00</time>
        <extensions>
          <gpxtpx:TrackPointExtension xmlns:gpxtpx="http://www.garmin.com/xmlschemas/TrackPointExtension/v1">
            <gpxtpx:hr>166</gpxtpx:hr>
          </gpxtpx:TrackPointExtension>
        </extensions>
      </trkpt>
      <trkpt lat="46.20901" lon="4.79466">
        <ele>169.2002</ele>
        <time>2026-05-13T14:00:52+02:00</time>
        <extensions>
          <gpxtpx:TrackPointExtension xmlns:gpxtpx="http://www.garmin.com/xmlschemas/TrackPointExtension/v1">
            <gpxtpx:hr>167</gpxtpx:hr>
          </gpxtpx:TrackPointExtension>
        </extensions>
      </trkpt>
      <trkpt lat="46.20907" lon="4.79465">
        <ele>169.2002</ele>
        <time>2026-05-13T14:00:53+02:00</time>
        <extensions>
          <gpxtpx:TrackPointExtension xmlns:gpxtpx="http://www.garmin.com/xmlschemas/TrackPointExtension/v1">
            <gpxtpx:hr>166</gpxtpx:hr>
          </gpxtpx:TrackPointExtension>
        </extensions>
      </trkpt>
      <trkpt lat="46.20913" lon="4.79465">
        <ele>169.2002</ele>
        <time>2026-05-13T14:00:54+02:00</time>
        <extensions>
          <gpxtpx:TrackPointExtension xmlns:gpxtpx="http://www.garmin.com/xmlschemas/TrackPointExtension/v1">
            <gpxtpx:hr>166</gpxtpx:hr>
          </gpxtpx:TrackPointExtension>
        </extensions>
      </trkpt>
      <trkpt lat="46.20918" lon="4.79464">
        <ele>169.2002</ele>
        <time>2026-05-13T14:00:55+02:00</time>
        <extensions>
          <gpxtpx:TrackPointExtension xmlns:gpxtpx="http://www.garmin.com/xmlschemas/TrackPointExtension/v1">
            <gpxtpx:hr>167</gpxtpx:hr>
          </gpxtpx:TrackPointExtension>
        </extensions>
      </trkpt>
      <trkpt lat="46.20925" lon="4.79464">
        <ele>169.2002</ele>
        <time>2026-05-13T14:00:56+02:00</time>
        <extensions>
          <gpxtpx:TrackPointExtension xmlns:gpxtpx="http://www.garmin.com/xmlschemas/TrackPointExtension/v1">
            <gpxtpx:hr>166</gpxtpx:hr>
          </gpxtpx:TrackPointExtension>
        </extensions>
      </trkpt>
      <trkpt lat="46.2093" lon="4.79463">
        <ele>169.2002</ele>
        <time>2026-05-13T14:00:57+02:00</time>
        <extensions>
          <gpxtpx:TrackPointExtension xmlns:gpxtpx="http://www.garmin.com/xmlschemas/TrackPointExtension/v1">
            <gpxtpx:hr>166</gpxtpx:hr>
          </gpxtpx:TrackPointExtension>
        </extensions>
      </trkpt>
      <trkpt lat="46.20936" lon="4.79463">
        <ele>169.2002</ele>
        <time>2026-05-13T14:00:58+02:00</time>
        <extensions>
          <gpxtpx:TrackPointExtension xmlns:gpxtpx="http://www.garmin.com/xmlschemas/TrackPointExtension/v1">
            <gpxtpx:hr>167</gpxtpx:hr>
          </gpxtpx:TrackPointExtension>
        </extensions>
      </trkpt>
      <trkpt lat="46.20942" lon="4.79462">
        <ele>169.2002</ele>
        <time>2026-05-13T14:00:59+02:00</time>
        <extensions>
          <gpxtpx:TrackPointExtension xmlns:gpxtpx="http://www.garmin.com/xmlschemas/TrackPointExtension/v1">
            <gpxtpx:hr>167</gpxtpx:hr>
          </gpxtpx:TrackPointExtension>
        </extensions>
      </trkpt>
      <trkpt lat="46.20948" lon="4.79462">
        <ele>169.2002</ele>
        <time>2026-05-13T14:01:00+02:00</time>
        <extensions>
          <gpxtpx:TrackPointExtension xmlns:gpxtpx="http://www.garmin.com/xmlschemas/TrackPointExtension/v1">
            <gpxtpx:hr>167</gpxtpx:hr>
          </gpxtpx:TrackPointExtension>
        </extensions>
      </trkpt>
      <trkpt lat="46.20954" lon="4.79461">
        <ele>169.2002</ele>
        <time>2026-05-13T14:01:01+02:00</time>
        <extensions>
          <gpxtpx:TrackPointExtension xmlns:gpxtpx="http://www.garmin.com/xmlschemas/TrackPointExtension/v1">
            <gpxtpx:hr>167</gpxtpx:hr>
          </gpxtpx:TrackPointExtension>
        </extensions>
      </trkpt>
      <trkpt lat="46.2096" lon="4.79461">
        <ele>169.10059</ele>
        <time>2026-05-13T14:01:02+02:00</time>
        <extensions>
          <gpxtpx:TrackPointExtension xmlns:gpxtpx="http://www.garmin.com/xmlschemas/TrackPointExtension/v1">
            <gpxtpx:hr>167</gpxtpx:hr>
          </gpxtpx:TrackPointExtension>
        </extensions>
      </trkpt>
      <trkpt lat="46.20966" lon="4.7946">
        <ele>169.10059</ele>
        <time>2026-05-13T14:01:03+02:00</time>
        <extensions>
          <gpxtpx:TrackPointExtension xmlns:gpxtpx="http://www.garmin.com/xmlschemas/TrackPointExtension/v1">
            <gpxtpx:hr>168</gpxtpx:hr>
          </gpxtpx:TrackPointExtension>
        </extensions>
      </trkpt>
      <trkpt lat="46.20971" lon="4.7946">
        <ele>169.10059</ele>
        <time>2026-05-13T14:01:04+02:00</time>
        <extensions>
          <gpxtpx:TrackPointExtension xmlns:gpxtpx="http://www.garmin.com/xmlschemas/TrackPointExtension/v1">
            <gpxtpx:hr>168</gpxtpx:hr>
          </gpxtpx:TrackPointExtension>
        </extensions>
      </trkpt>
      <trkpt lat="46.20977" lon="4.79459">
        <ele>169.10059</ele>
        <time>2026-05-13T14:01:05+02:00</time>
        <extensions>
          <gpxtpx:TrackPointExtension xmlns:gpxtpx="http://www.garmin.com/xmlschemas/TrackPointExtension/v1">
            <gpxtpx:hr>168</gpxtpx:hr>
          </gpxtpx:TrackPointExtension>
        </extensions>
      </trkpt>
      <trkpt lat="46.20983" lon="4.79459">
        <ele>169</ele>
        <time>2026-05-13T14:01:06+02:00</time>
        <extensions>
          <gpxtpx:TrackPointExtension xmlns:gpxtpx="http://www.garmin.com/xmlschemas/TrackPointExtension/v1">
            <gpxtpx:hr>168</gpxtpx:hr>
          </gpxtpx:TrackPointExtension>
        </extensions>
      </trkpt>
      <trkpt lat="46.20989" lon="4.79459">
        <ele>169</ele>
        <time>2026-05-13T14:01:07+02:00</time>
        <extensions>
          <gpxtpx:TrackPointExtension xmlns:gpxtpx="http://www.garmin.com/xmlschemas/TrackPointExtension/v1">
            <gpxtpx:hr>168</gpxtpx:hr>
          </gpxtpx:TrackPointExtension>
        </extensions>
      </trkpt>
      <trkpt lat="46.20995" lon="4.79458">
        <ele>168.7002</ele>
        <time>2026-05-13T14:01:08+02:00</time>
        <extensions>
          <gpxtpx:TrackPointExtension xmlns:gpxtpx="http://www.garmin.com/xmlschemas/TrackPointExtension/v1">
            <gpxtpx:hr>168</gpxtpx:hr>
          </gpxtpx:TrackPointExtension>
        </extensions>
      </trkpt>
      <trkpt lat="46.21" lon="4.79458">
        <ele>168.7002</ele>
        <time>2026-05-13T14:01:09+02:00</time>
        <extensions>
          <gpxtpx:TrackPointExtension xmlns:gpxtpx="http://www.garmin.com/xmlschemas/TrackPointExtension/v1">
            <gpxtpx:hr>168</gpxtpx:hr>
          </gpxtpx:TrackPointExtension>
        </extensions>
      </trkpt>
      <trkpt lat="46.21006" lon="4.79458">
        <ele>168.7002</ele>
        <time>2026-05-13T14:01:10+02:00</time>
        <extensions>
          <gpxtpx:TrackPointExtension xmlns:gpxtpx="http://www.garmin.com/xmlschemas/TrackPointExtension/v1">
            <gpxtpx:hr>168</gpxtpx:hr>
          </gpxtpx:TrackPointExtension>
        </extensions>
      </trkpt>
      <trkpt lat="46.21012" lon="4.79458">
        <ele>168.7002</ele>
        <time>2026-05-13T14:01:11+02:00</time>
        <extensions>
          <gpxtpx:TrackPointExtension xmlns:gpxtpx="http://www.garmin.com/xmlschemas/TrackPointExtension/v1">
            <gpxtpx:hr>169</gpxtpx:hr>
          </gpxtpx:TrackPointExtension>
        </extensions>
      </trkpt>
      <trkpt lat="46.21018" lon="4.79458">
        <ele>168.7002</ele>
        <time>2026-05-13T14:01:12+02:00</time>
        <extensions>
          <gpxtpx:TrackPointExtension xmlns:gpxtpx="http://www.garmin.com/xmlschemas/TrackPointExtension/v1">
            <gpxtpx:hr>169</gpxtpx:hr>
          </gpxtpx:TrackPointExtension>
        </extensions>
      </trkpt>
      <trkpt lat="46.21023" lon="4.79458">
        <ele>168.60059</ele>
        <time>2026-05-13T14:01:13+02:00</time>
        <extensions>
          <gpxtpx:TrackPointExtension xmlns:gpxtpx="http://www.garmin.com/xmlschemas/TrackPointExtension/v1">
            <gpxtpx:hr>168</gpxtpx:hr>
          </gpxtpx:TrackPointExtension>
        </extensions>
      </trkpt>
      <trkpt lat="46.21029" lon="4.79458">
        <ele>168.60059</ele>
        <time>2026-05-13T14:01:14+02:00</time>
        <extensions>
          <gpxtpx:TrackPointExtension xmlns:gpxtpx="http://www.garmin.com/xmlschemas/TrackPointExtension/v1">
            <gpxtpx:hr>169</gpxtpx:hr>
          </gpxtpx:TrackPointExtension>
        </extensions>
      </trkpt>
      <trkpt lat="46.21034" lon="4.79458">
        <ele>168.60059</ele>
        <time>2026-05-13T14:01:15+02:00</time>
        <extensions>
          <gpxtpx:TrackPointExtension xmlns:gpxtpx="http://www.garmin.com/xmlschemas/TrackPointExtension/v1">
            <gpxtpx:hr>169</gpxtpx:hr>
          </gpxtpx:TrackPointExtension>
        </extensions>
      </trkpt>
      <trkpt lat="46.2104" lon="4.79458">
        <ele>168.60059</ele>
        <time>2026-05-13T14:01:16+02:00</time>
        <extensions>
          <gpxtpx:TrackPointExtension xmlns:gpxtpx="http://www.garmin.com/xmlschemas/TrackPointExtension/v1">
            <gpxtpx:hr>168</gpxtpx:hr>
          </gpxtpx:TrackPointExtension>
        </extensions>
      </trkpt>
      <trkpt lat="46.21045" lon="4.79458">
        <ele>168.60059</ele>
        <time>2026-05-13T14:01:17+02:00</time>
        <extensions>
          <gpxtpx:TrackPointExtension xmlns:gpxtpx="http://www.garmin.com/xmlschemas/TrackPointExtension/v1">
            <gpxtpx:hr>167</gpxtpx:hr>
          </gpxtpx:TrackPointExtension>
        </extensions>
      </trkpt>
      <trkpt lat="46.21051" lon="4.79458">
        <ele>168.60059</ele>
        <time>2026-05-13T14:01:18+02:00</time>
        <extensions>
          <gpxtpx:TrackPointExtension xmlns:gpxtpx="http://www.garmin.com/xmlschemas/TrackPointExtension/v1">
            <gpxtpx:hr>166</gpxtpx:hr>
          </gpxtpx:TrackPointExtension>
        </extensions>
      </trkpt>
      <trkpt lat="46.21056" lon="4.79459">
        <ele>168.7998</ele>
        <time>2026-05-13T14:01:19+02:00</time>
        <extensions>
          <gpxtpx:TrackPointExtension xmlns:gpxtpx="http://www.garmin.com/xmlschemas/TrackPointExtension/v1">
            <gpxtpx:hr>166</gpxtpx:hr>
          </gpxtpx:TrackPointExtension>
        </extensions>
      </trkpt>
      <trkpt lat="46.21062" lon="4.79459">
        <ele>168.7998</ele>
        <time>2026-05-13T14:01:20+02:00</time>
        <extensions>
          <gpxtpx:TrackPointExtension xmlns:gpxtpx="http://www.garmin.com/xmlschemas/TrackPointExtension/v1">
            <gpxtpx:hr>166</gpxtpx:hr>
          </gpxtpx:TrackPointExtension>
        </extensions>
      </trkpt>
      <trkpt lat="46.21068" lon="4.79459">
        <ele>168.90039</ele>
        <time>2026-05-13T14:01:21+02:00</time>
        <extensions>
          <gpxtpx:TrackPointExtension xmlns:gpxtpx="http://www.garmin.com/xmlschemas/TrackPointExtension/v1">
            <gpxtpx:hr>166</gpxtpx:hr>
          </gpxtpx:TrackPointExtension>
        </extensions>
      </trkpt>
      <trkpt lat="46.21074" lon="4.79459">
        <ele>168.90039</ele>
        <time>2026-05-13T14:01:22+02:00</time>
        <extensions>
          <gpxtpx:TrackPointExtension xmlns:gpxtpx="http://www.garmin.com/xmlschemas/TrackPointExtension/v1">
            <gpxtpx:hr>167</gpxtpx:hr>
          </gpxtpx:TrackPointExtension>
        </extensions>
      </trkpt>
      <trkpt lat="46.21079" lon="4.79459">
        <ele>168.90039</ele>
        <time>2026-05-13T14:01:23+02:00</time>
        <extensions>
          <gpxtpx:TrackPointExtension xmlns:gpxtpx="http://www.garmin.com/xmlschemas/TrackPointExtension/v1">
            <gpxtpx:hr>166</gpxtpx:hr>
          </gpxtpx:TrackPointExtension>
        </extensions>
      </trkpt>
      <trkpt lat="46.21085" lon="4.79459">
        <ele>168.90039</ele>
        <time>2026-05-13T14:01:24+02:00</time>
        <extensions>
          <gpxtpx:TrackPointExtension xmlns:gpxtpx="http://www.garmin.com/xmlschemas/TrackPointExtension/v1">
            <gpxtpx:hr>167</gpxtpx:hr>
          </gpxtpx:TrackPointExtension>
        </extensions>
      </trkpt>
      <trkpt lat="46.2109" lon="4.79458">
        <ele>168.60059</ele>
        <time>2026-05-13T14:01:25+02:00</time>
        <extensions>
          <gpxtpx:TrackPointExtension xmlns:gpxtpx="http://www.garmin.com/xmlschemas/TrackPointExtension/v1">
            <gpxtpx:hr>167</gpxtpx:hr>
          </gpxtpx:TrackPointExtension>
        </extensions>
      </trkpt>
      <trkpt lat="46.21097" lon="4.79458">
        <ele>168.5</ele>
        <time>2026-05-13T14:01:26+02:00</time>
        <extensions>
          <gpxtpx:TrackPointExtension xmlns:gpxtpx="http://www.garmin.com/xmlschemas/TrackPointExtension/v1">
            <gpxtpx:hr>166</gpxtpx:hr>
          </gpxtpx:TrackPointExtension>
        </extensions>
      </trkpt>
      <trkpt lat="46.21102" lon="4.79458">
        <ele>168.5</ele>
        <time>2026-05-13T14:01:27+02:00</time>
        <extensions>
          <gpxtpx:TrackPointExtension xmlns:gpxtpx="http://www.garmin.com/xmlschemas/TrackPointExtension/v1">
            <gpxtpx:hr>166</gpxtpx:hr>
          </gpxtpx:TrackPointExtension>
        </extensions>
      </trkpt>
      <trkpt lat="46.21108" lon="4.79458">
        <ele>168.5</ele>
        <time>2026-05-13T14:01:28+02:00</time>
        <extensions>
          <gpxtpx:TrackPointExtension xmlns:gpxtpx="http://www.garmin.com/xmlschemas/TrackPointExtension/v1">
            <gpxtpx:hr>166</gpxtpx:hr>
          </gpxtpx:TrackPointExtension>
        </extensions>
      </trkpt>
      <trkpt lat="46.21113" lon="4.79459">
        <ele>168.7998</ele>
        <time>2026-05-13T14:01:29+02:00</time>
        <extensions>
          <gpxtpx:TrackPointExtension xmlns:gpxtpx="http://www.garmin.com/xmlschemas/TrackPointExtension/v1">
            <gpxtpx:hr>166</gpxtpx:hr>
          </gpxtpx:TrackPointExtension>
        </extensions>
      </trkpt>
      <trkpt lat="46.21119" lon="4.79459">
        <ele>168.7998</ele>
        <time>2026-05-13T14:01:30+02:00</time>
        <extensions>
          <gpxtpx:TrackPointExtension xmlns:gpxtpx="http://www.garmin.com/xmlschemas/TrackPointExtension/v1">
            <gpxtpx:hr>166</gpxtpx:hr>
          </gpxtpx:TrackPointExtension>
        </extensions>
      </trkpt>
      <trkpt lat="46.21124" lon="4.7946">
        <ele>168.90039</ele>
        <time>2026-05-13T14:01:31+02:00</time>
        <extensions>
          <gpxtpx:TrackPointExtension xmlns:gpxtpx="http://www.garmin.com/xmlschemas/TrackPointExtension/v1">
            <gpxtpx:hr>166</gpxtpx:hr>
          </gpxtpx:TrackPointExtension>
        </extensions>
      </trkpt>
      <trkpt lat="46.2113" lon="4.79461">
        <ele>168.90039</ele>
        <time>2026-05-13T14:01:32+02:00</time>
        <extensions>
          <gpxtpx:TrackPointExtension xmlns:gpxtpx="http://www.garmin.com/xmlschemas/TrackPointExtension/v1">
            <gpxtpx:hr>166</gpxtpx:hr>
          </gpxtpx:TrackPointExtension>
        </extensions>
      </trkpt>
      <trkpt lat="46.21135" lon="4.79461">
        <ele>168.90039</ele>
        <time>2026-05-13T14:01:33+02:00</time>
        <extensions>
          <gpxtpx:TrackPointExtension xmlns:gpxtpx="http://www.garmin.com/xmlschemas/TrackPointExtension/v1">
            <gpxtpx:hr>166</gpxtpx:hr>
          </gpxtpx:TrackPointExtension>
        </extensions>
      </trkpt>
      <trkpt lat="46.21141" lon="4.79462">
        <ele>168.90039</ele>
        <time>2026-05-13T14:01:34+02:00</time>
        <extensions>
          <gpxtpx:TrackPointExtension xmlns:gpxtpx="http://www.garmin.com/xmlschemas/TrackPointExtension/v1">
            <gpxtpx:hr>167</gpxtpx:hr>
          </gpxtpx:TrackPointExtension>
        </extensions>
      </trkpt>
      <trkpt lat="46.21147" lon="4.79462">
        <ele>169</ele>
        <time>2026-05-13T14:01:35+02:00</time>
        <extensions>
          <gpxtpx:TrackPointExtension xmlns:gpxtpx="http://www.garmin.com/xmlschemas/TrackPointExtension/v1">
            <gpxtpx:hr>167</gpxtpx:hr>
          </gpxtpx:TrackPointExtension>
        </extensions>
      </trkpt>
      <trkpt lat="46.21153" lon="4.79463">
        <ele>169</ele>
        <time>2026-05-13T14:01:36+02:00</time>
        <extensions>
          <gpxtpx:TrackPointExtension xmlns:gpxtpx="http://www.garmin.com/xmlschemas/TrackPointExtension/v1">
            <gpxtpx:hr>168</gpxtpx:hr>
          </gpxtpx:TrackPointExtension>
        </extensions>
      </trkpt>
      <trkpt lat="46.21158" lon="4.79463">
        <ele>169</ele>
        <time>2026-05-13T14:01:37+02:00</time>
        <extensions>
          <gpxtpx:TrackPointExtension xmlns:gpxtpx="http://www.garmin.com/xmlschemas/TrackPointExtension/v1">
            <gpxtpx:hr>167</gpxtpx:hr>
          </gpxtpx:TrackPointExtension>
        </extensions>
      </trkpt>
      <trkpt lat="46.21164" lon="4.79464">
        <ele>169.10059</ele>
        <time>2026-05-13T14:01:38+02:00</time>
        <extensions>
          <gpxtpx:TrackPointExtension xmlns:gpxtpx="http://www.garmin.com/xmlschemas/TrackPointExtension/v1">
            <gpxtpx:hr>168</gpxtpx:hr>
          </gpxtpx:TrackPointExtension>
        </extensions>
      </trkpt>
      <trkpt lat="46.21169" lon="4.79465">
        <ele>169.10059</ele>
        <time>2026-05-13T14:01:39+02:00</time>
        <extensions>
          <gpxtpx:TrackPointExtension xmlns:gpxtpx="http://www.garmin.com/xmlschemas/TrackPointExtension/v1">
            <gpxtpx:hr>168</gpxtpx:hr>
          </gpxtpx:TrackPointExtension>
        </extensions>
      </trkpt>
      <trkpt lat="46.21175" lon="4.79465">
        <ele>169.10059</ele>
        <time>2026-05-13T14:01:40+02:00</time>
        <extensions>
          <gpxtpx:TrackPointExtension xmlns:gpxtpx="http://www.garmin.com/xmlschemas/TrackPointExtension/v1">
            <gpxtpx:hr>168</gpxtpx:hr>
          </gpxtpx:TrackPointExtension>
        </extensions>
      </trkpt>
      <trkpt lat="46.2118" lon="4.79466">
        <ele>169.10059</ele>
        <time>2026-05-13T14:01:41+02:00</time>
        <extensions>
          <gpxtpx:TrackPointExtension xmlns:gpxtpx="http://www.garmin.com/xmlschemas/TrackPointExtension/v1">
            <gpxtpx:hr>169</gpxtpx:hr>
          </gpxtpx:TrackPointExtension>
        </extensions>
      </trkpt>
      <trkpt lat="46.21186" lon="4.79466">
        <ele>169.2002</ele>
        <time>2026-05-13T14:01:42+02:00</time>
        <extensions>
          <gpxtpx:TrackPointExtension xmlns:gpxtpx="http://www.garmin.com/xmlschemas/TrackPointExtension/v1">
            <gpxtpx:hr>169</gpxtpx:hr>
          </gpxtpx:TrackPointExtension>
        </extensions>
      </trkpt>
      <trkpt lat="46.21192" lon="4.79466">
        <ele>169.2002</ele>
        <time>2026-05-13T14:01:43+02:00</time>
        <extensions>
          <gpxtpx:TrackPointExtension xmlns:gpxtpx="http://www.garmin.com/xmlschemas/TrackPointExtension/v1">
            <gpxtpx:hr>168</gpxtpx:hr>
          </gpxtpx:TrackPointExtension>
        </extensions>
      </trkpt>
      <trkpt lat="46.21197" lon="4.79467">
        <ele>169.2002</ele>
        <time>2026-05-13T14:01:44+02:00</time>
        <extensions>
          <gpxtpx:TrackPointExtension xmlns:gpxtpx="http://www.garmin.com/xmlschemas/TrackPointExtension/v1">
            <gpxtpx:hr>169</gpxtpx:hr>
          </gpxtpx:TrackPointExtension>
        </extensions>
      </trkpt>
      <trkpt lat="46.21203" lon="4.79468">
        <ele>169.90039</ele>
        <time>2026-05-13T14:01:45+02:00</time>
        <extensions>
          <gpxtpx:TrackPointExtension xmlns:gpxtpx="http://www.garmin.com/xmlschemas/TrackPointExtension/v1">
            <gpxtpx:hr>169</gpxtpx:hr>
          </gpxtpx:TrackPointExtension>
        </extensions>
      </trkpt>
      <trkpt lat="46.21209" lon="4.79469">
        <ele>169.90039</ele>
        <time>2026-05-13T14:01:46+02:00</time>
        <extensions>
          <gpxtpx:TrackPointExtension xmlns:gpxtpx="http://www.garmin.com/xmlschemas/TrackPointExtension/v1">
            <gpxtpx:hr>169</gpxtpx:hr>
          </gpxtpx:TrackPointExtension>
        </extensions>
      </trkpt>
      <trkpt lat="46.21214" lon="4.79469">
        <ele>170</ele>
        <time>2026-05-13T14:01:47+02:00</time>
        <extensions>
          <gpxtpx:TrackPointExtension xmlns:gpxtpx="http://www.garmin.com/xmlschemas/TrackPointExtension/v1">
            <gpxtpx:hr>169</gpxtpx:hr>
          </gpxtpx:TrackPointExtension>
        </extensions>
      </trkpt>
      <trkpt lat="46.2122" lon="4.7947">
        <ele>170.10059</ele>
        <time>2026-05-13T14:01:48+02:00</time>
        <extensions>
          <gpxtpx:TrackPointExtension xmlns:gpxtpx="http://www.garmin.com/xmlschemas/TrackPointExtension/v1">
            <gpxtpx:hr>169</gpxtpx:hr>
          </gpxtpx:TrackPointExtension>
        </extensions>
      </trkpt>
      <trkpt lat="46.21226" lon="4.7947">
        <ele>170.10059</ele>
        <time>2026-05-13T14:01:49+02:00</time>
        <extensions>
          <gpxtpx:TrackPointExtension xmlns:gpxtpx="http://www.garmin.com/xmlschemas/TrackPointExtension/v1">
            <gpxtpx:hr>169</gpxtpx:hr>
          </gpxtpx:TrackPointExtension>
        </extensions>
      </trkpt>
      <trkpt lat="46.21231" lon="4.79471">
        <ele>170.10059</ele>
        <time>2026-05-13T14:01:50+02:00</time>
        <extensions>
          <gpxtpx:TrackPointExtension xmlns:gpxtpx="http://www.garmin.com/xmlschemas/TrackPointExtension/v1">
            <gpxtpx:hr>169</gpxtpx:hr>
          </gpxtpx:TrackPointExtension>
        </extensions>
      </trkpt>
      <trkpt lat="46.21237" lon="4.79472">
        <ele>170.10059</ele>
        <time>2026-05-13T14:01:51+02:00</time>
        <extensions>
          <gpxtpx:TrackPointExtension xmlns:gpxtpx="http://www.garmin.com/xmlschemas/TrackPointExtension/v1">
            <gpxtpx:hr>169</gpxtpx:hr>
          </gpxtpx:TrackPointExtension>
        </extensions>
      </trkpt>
      <trkpt lat="46.21243" lon="4.79473">
        <ele>170.10059</ele>
        <time>2026-05-13T14:01:52+02:00</time>
        <extensions>
          <gpxtpx:TrackPointExtension xmlns:gpxtpx="http://www.garmin.com/xmlschemas/TrackPointExtension/v1">
            <gpxtpx:hr>169</gpxtpx:hr>
          </gpxtpx:TrackPointExtension>
        </extensions>
      </trkpt>
      <trkpt lat="46.21248" lon="4.79474">
        <ele>170.10059</ele>
        <time>2026-05-13T14:01:53+02:00</time>
        <extensions>
          <gpxtpx:TrackPointExtension xmlns:gpxtpx="http://www.garmin.com/xmlschemas/TrackPointExtension/v1">
            <gpxtpx:hr>169</gpxtpx:hr>
          </gpxtpx:TrackPointExtension>
        </extensions>
      </trkpt>
      <trkpt lat="46.21254" lon="4.79474">
        <ele>170.10059</ele>
        <time>2026-05-13T14:01:54+02:00</time>
        <extensions>
          <gpxtpx:TrackPointExtension xmlns:gpxtpx="http://www.garmin.com/xmlschemas/TrackPointExtension/v1">
            <gpxtpx:hr>169</gpxtpx:hr>
          </gpxtpx:TrackPointExtension>
        </extensions>
      </trkpt>
      <trkpt lat="46.2126" lon="4.79475">
        <ele>170.10059</ele>
        <time>2026-05-13T14:01:55+02:00</time>
        <extensions>
          <gpxtpx:TrackPointExtension xmlns:gpxtpx="http://www.garmin.com/xmlschemas/TrackPointExtension/v1">
            <gpxtpx:hr>170</gpxtpx:hr>
          </gpxtpx:TrackPointExtension>
        </extensions>
      </trkpt>
      <trkpt lat="46.21266" lon="4.79475">
        <ele>170</ele>
        <time>2026-05-13T14:01:56+02:00</time>
        <extensions>
          <gpxtpx:TrackPointExtension xmlns:gpxtpx="http://www.garmin.com/xmlschemas/TrackPointExtension/v1">
            <gpxtpx:hr>170</gpxtpx:hr>
          </gpxtpx:TrackPointExtension>
        </extensions>
      </trkpt>
      <trkpt lat="46.21271" lon="4.79476">
        <ele>170.60059</ele>
        <time>2026-05-13T14:01:57+02:00</time>
        <extensions>
          <gpxtpx:TrackPointExtension xmlns:gpxtpx="http://www.garmin.com/xmlschemas/TrackPointExtension/v1">
            <gpxtpx:hr>170</gpxtpx:hr>
          </gpxtpx:TrackPointExtension>
        </extensions>
      </trkpt>
      <trkpt lat="46.21277" lon="4.79477">
        <ele>170.40039</ele>
        <time>2026-05-13T14:01:58+02:00</time>
        <extensions>
          <gpxtpx:TrackPointExtension xmlns:gpxtpx="http://www.garmin.com/xmlschemas/TrackPointExtension/v1">
            <gpxtpx:hr>170</gpxtpx:hr>
          </gpxtpx:TrackPointExtension>
        </extensions>
      </trkpt>
      <trkpt lat="46.21283" lon="4.79477">
        <ele>170.2002</ele>
        <time>2026-05-13T14:01:59+02:00</time>
        <extensions>
          <gpxtpx:TrackPointExtension xmlns:gpxtpx="http://www.garmin.com/xmlschemas/TrackPointExtension/v1">
            <gpxtpx:hr>170</gpxtpx:hr>
          </gpxtpx:TrackPointExtension>
        </extensions>
      </trkpt>
      <trkpt lat="46.21288" lon="4.79478">
        <ele>169.90039</ele>
        <time>2026-05-13T14:02:00+02:00</time>
        <extensions>
          <gpxtpx:TrackPointExtension xmlns:gpxtpx="http://www.garmin.com/xmlschemas/TrackPointExtension/v1">
            <gpxtpx:hr>170</gpxtpx:hr>
          </gpxtpx:TrackPointExtension>
        </extensions>
      </trkpt>
      <trkpt lat="46.21294" lon="4.79478">
        <ele>169.60059</ele>
        <time>2026-05-13T14:02:01+02:00</time>
        <extensions>
          <gpxtpx:TrackPointExtension xmlns:gpxtpx="http://www.garmin.com/xmlschemas/TrackPointExtension/v1">
            <gpxtpx:hr>170</gpxtpx:hr>
          </gpxtpx:TrackPointExtension>
        </extensions>
      </trkpt>
      <trkpt lat="46.213" lon="4.79479">
        <ele>169.40039</ele>
        <time>2026-05-13T14:02:02+02:00</time>
        <extensions>
          <gpxtpx:TrackPointExtension xmlns:gpxtpx="http://www.garmin.com/xmlschemas/TrackPointExtension/v1">
            <gpxtpx:hr>170</gpxtpx:hr>
          </gpxtpx:TrackPointExtension>
        </extensions>
      </trkpt>
      <trkpt lat="46.21306" lon="4.7948">
        <ele>169.2002</ele>
        <time>2026-05-13T14:02:03+02:00</time>
        <extensions>
          <gpxtpx:TrackPointExtension xmlns:gpxtpx="http://www.garmin.com/xmlschemas/TrackPointExtension/v1">
            <gpxtpx:hr>171</gpxtpx:hr>
          </gpxtpx:TrackPointExtension>
        </extensions>
      </trkpt>
      <trkpt lat="46.21312" lon="4.7948">
        <ele>169.10059</ele>
        <time>2026-05-13T14:02:04+02:00</time>
        <extensions>
          <gpxtpx:TrackPointExtension xmlns:gpxtpx="http://www.garmin.com/xmlschemas/TrackPointExtension/v1">
            <gpxtpx:hr>171</gpxtpx:hr>
          </gpxtpx:TrackPointExtension>
        </extensions>
      </trkpt>
      <trkpt lat="46.21317" lon="4.79481">
        <ele>169</ele>
        <time>2026-05-13T14:02:05+02:00</time>
        <extensions>
          <gpxtpx:TrackPointExtension xmlns:gpxtpx="http://www.garmin.com/xmlschemas/TrackPointExtension/v1">
            <gpxtpx:hr>171</gpxtpx:hr>
          </gpxtpx:TrackPointExtension>
        </extensions>
      </trkpt>
      <trkpt lat="46.21324" lon="4.79482">
        <ele>168.90039</ele>
        <time>2026-05-13T14:02:06+02:00</time>
        <extensions>
          <gpxtpx:TrackPointExtension xmlns:gpxtpx="http://www.garmin.com/xmlschemas/TrackPointExtension/v1">
            <gpxtpx:hr>171</gpxtpx:hr>
          </gpxtpx:TrackPointExtension>
        </extensions>
      </trkpt>
      <trkpt lat="46.21329" lon="4.79482">
        <ele>168.90039</ele>
        <time>2026-05-13T14:02:07+02:00</time>
        <extensions>
          <gpxtpx:TrackPointExtension xmlns:gpxtpx="http://www.garmin.com/xmlschemas/TrackPointExtension/v1">
            <gpxtpx:hr>171</gpxtpx:hr>
          </gpxtpx:TrackPointExtension>
        </extensions>
      </trkpt>
      <trkpt lat="46.21335" lon="4.79483">
        <ele>168.7998</ele>
        <time>2026-05-13T14:02:08+02:00</time>
        <extensions>
          <gpxtpx:TrackPointExtension xmlns:gpxtpx="http://www.garmin.com/xmlschemas/TrackPointExtension/v1">
            <gpxtpx:hr>171</gpxtpx:hr>
          </gpxtpx:TrackPointExtension>
        </extensions>
      </trkpt>
      <trkpt lat="46.21341" lon="4.79484">
        <ele>168.7002</ele>
        <time>2026-05-13T14:02:09+02:00</time>
        <extensions>
          <gpxtpx:TrackPointExtension xmlns:gpxtpx="http://www.garmin.com/xmlschemas/TrackPointExtension/v1">
            <gpxtpx:hr>170</gpxtpx:hr>
          </gpxtpx:TrackPointExtension>
        </extensions>
      </trkpt>
      <trkpt lat="46.21347" lon="4.79485">
        <ele>168.90039</ele>
        <time>2026-05-13T14:02:10+02:00</time>
        <extensions>
          <gpxtpx:TrackPointExtension xmlns:gpxtpx="http://www.garmin.com/xmlschemas/TrackPointExtension/v1">
            <gpxtpx:hr>171</gpxtpx:hr>
          </gpxtpx:TrackPointExtension>
        </extensions>
      </trkpt>
      <trkpt lat="46.21353" lon="4.79486">
        <ele>168.7998</ele>
        <time>2026-05-13T14:02:11+02:00</time>
        <extensions>
          <gpxtpx:TrackPointExtension xmlns:gpxtpx="http://www.garmin.com/xmlschemas/TrackPointExtension/v1">
            <gpxtpx:hr>171</gpxtpx:hr>
          </gpxtpx:TrackPointExtension>
        </extensions>
      </trkpt>
      <trkpt lat="46.21359" lon="4.79487">
        <ele>168.7002</ele>
        <time>2026-05-13T14:02:12+02:00</time>
        <extensions>
          <gpxtpx:TrackPointExtension xmlns:gpxtpx="http://www.garmin.com/xmlschemas/TrackPointExtension/v1">
            <gpxtpx:hr>170</gpxtpx:hr>
          </gpxtpx:TrackPointExtension>
        </extensions>
      </trkpt>
      <trkpt lat="46.21365" lon="4.79488">
        <ele>168.7002</ele>
        <time>2026-05-13T14:02:13+02:00</time>
        <extensions>
          <gpxtpx:TrackPointExtension xmlns:gpxtpx="http://www.garmin.com/xmlschemas/TrackPointExtension/v1">
            <gpxtpx:hr>171</gpxtpx:hr>
          </gpxtpx:TrackPointExtension>
        </extensions>
      </trkpt>
      <trkpt lat="46.21371" lon="4.79489">
        <ele>168.60059</ele>
        <time>2026-05-13T14:02:14+02:00</time>
        <extensions>
          <gpxtpx:TrackPointExtension xmlns:gpxtpx="http://www.garmin.com/xmlschemas/TrackPointExtension/v1">
            <gpxtpx:hr>171</gpxtpx:hr>
          </gpxtpx:TrackPointExtension>
        </extensions>
      </trkpt>
      <trkpt lat="46.21377" lon="4.7949">
        <ele>168.60059</ele>
        <time>2026-05-13T14:02:15+02:00</time>
        <extensions>
          <gpxtpx:TrackPointExtension xmlns:gpxtpx="http://www.garmin.com/xmlschemas/TrackPointExtension/v1">
            <gpxtpx:hr>171</gpxtpx:hr>
          </gpxtpx:TrackPointExtension>
        </extensions>
      </trkpt>
      <trkpt lat="46.21383" lon="4.7949">
        <ele>168.5</ele>
        <time>2026-05-13T14:02:16+02:00</time>
        <extensions>
          <gpxtpx:TrackPointExtension xmlns:gpxtpx="http://www.garmin.com/xmlschemas/TrackPointExtension/v1">
            <gpxtpx:hr>171</gpxtpx:hr>
          </gpxtpx:TrackPointExtension>
        </extensions>
      </trkpt>
      <trkpt lat="46.21389" lon="4.79492">
        <ele>168.5</ele>
        <time>2026-05-13T14:02:17+02:00</time>
        <extensions>
          <gpxtpx:TrackPointExtension xmlns:gpxtpx="http://www.garmin.com/xmlschemas/TrackPointExtension/v1">
            <gpxtpx:hr>171</gpxtpx:hr>
          </gpxtpx:TrackPointExtension>
        </extensions>
      </trkpt>
      <trkpt lat="46.21395" lon="4.79493">
        <ele>168.5</ele>
        <time>2026-05-13T14:02:18+02:00</time>
        <extensions>
          <gpxtpx:TrackPointExtension xmlns:gpxtpx="http://www.garmin.com/xmlschemas/TrackPointExtension/v1">
            <gpxtpx:hr>172</gpxtpx:hr>
          </gpxtpx:TrackPointExtension>
        </extensions>
      </trkpt>
      <trkpt lat="46.21401" lon="4.79495">
        <ele>168.60059</ele>
        <time>2026-05-13T14:02:19+02:00</time>
        <extensions>
          <gpxtpx:TrackPointExtension xmlns:gpxtpx="http://www.garmin.com/xmlschemas/TrackPointExtension/v1">
            <gpxtpx:hr>171</gpxtpx:hr>
          </gpxtpx:TrackPointExtension>
        </extensions>
      </trkpt>
      <trkpt lat="46.21407" lon="4.79496">
        <ele>168.60059</ele>
        <time>2026-05-13T14:02:20+02:00</time>
        <extensions>
          <gpxtpx:TrackPointExtension xmlns:gpxtpx="http://www.garmin.com/xmlschemas/TrackPointExtension/v1">
            <gpxtpx:hr>171</gpxtpx:hr>
          </gpxtpx:TrackPointExtension>
        </extensions>
      </trkpt>
      <trkpt lat="46.21412" lon="4.79498">
        <ele>168.7002</ele>
        <time>2026-05-13T14:02:21+02:00</time>
        <extensions>
          <gpxtpx:TrackPointExtension xmlns:gpxtpx="http://www.garmin.com/xmlschemas/TrackPointExtension/v1">
            <gpxtpx:hr>171</gpxtpx:hr>
          </gpxtpx:TrackPointExtension>
        </extensions>
      </trkpt>
      <trkpt lat="46.21419" lon="4.795">
        <ele>168.60059</ele>
        <time>2026-05-13T14:02:22+02:00</time>
        <extensions>
          <gpxtpx:TrackPointExtension xmlns:gpxtpx="http://www.garmin.com/xmlschemas/TrackPointExtension/v1">
            <gpxtpx:hr>172</gpxtpx:hr>
          </gpxtpx:TrackPointExtension>
        </extensions>
      </trkpt>
      <trkpt lat="46.21424" lon="4.79501">
        <ele>168.60059</ele>
        <time>2026-05-13T14:02:23+02:00</time>
        <extensions>
          <gpxtpx:TrackPointExtension xmlns:gpxtpx="http://www.garmin.com/xmlschemas/TrackPointExtension/v1">
            <gpxtpx:hr>171</gpxtpx:hr>
          </gpxtpx:TrackPointExtension>
        </extensions>
      </trkpt>
      <trkpt lat="46.2143" lon="4.79503">
        <ele>168.7998</ele>
        <time>2026-05-13T14:02:24+02:00</time>
        <extensions>
          <gpxtpx:TrackPointExtension xmlns:gpxtpx="http://www.garmin.com/xmlschemas/TrackPointExtension/v1">
            <gpxtpx:hr>171</gpxtpx:hr>
          </gpxtpx:TrackPointExtension>
        </extensions>
      </trkpt>
      <trkpt lat="46.21436" lon="4.79505">
        <ele>168.7998</ele>
        <time>2026-05-13T14:02:25+02:00</time>
        <extensions>
          <gpxtpx:TrackPointExtension xmlns:gpxtpx="http://www.garmin.com/xmlschemas/TrackPointExtension/v1">
            <gpxtpx:hr>172</gpxtpx:hr>
          </gpxtpx:TrackPointExtension>
        </extensions>
      </trkpt>
      <trkpt lat="46.21442" lon="4.79507">
        <ele>168.90039</ele>
        <time>2026-05-13T14:02:26+02:00</time>
        <extensions>
          <gpxtpx:TrackPointExtension xmlns:gpxtpx="http://www.garmin.com/xmlschemas/TrackPointExtension/v1">
            <gpxtpx:hr>171</gpxtpx:hr>
          </gpxtpx:TrackPointExtension>
        </extensions>
      </trkpt>
      <trkpt lat="46.21448" lon="4.79508">
        <ele>168.90039</ele>
        <time>2026-05-13T14:02:27+02:00</time>
        <extensions>
          <gpxtpx:TrackPointExtension xmlns:gpxtpx="http://www.garmin.com/xmlschemas/TrackPointExtension/v1">
            <gpxtpx:hr>171</gpxtpx:hr>
          </gpxtpx:TrackPointExtension>
        </extensions>
      </trkpt>
      <trkpt lat="46.21454" lon="4.7951">
        <ele>168.90039</ele>
        <time>2026-05-13T14:02:28+02:00</time>
        <extensions>
          <gpxtpx:TrackPointExtension xmlns:gpxtpx="http://www.garmin.com/xmlschemas/TrackPointExtension/v1">
            <gpxtpx:hr>171</gpxtpx:hr>
          </gpxtpx:TrackPointExtension>
        </extensions>
      </trkpt>
      <trkpt lat="46.2146" lon="4.79512">
        <ele>169.2998</ele>
        <time>2026-05-13T14:02:29+02:00</time>
        <extensions>
          <gpxtpx:TrackPointExtension xmlns:gpxtpx="http://www.garmin.com/xmlschemas/TrackPointExtension/v1">
            <gpxtpx:hr>171</gpxtpx:hr>
          </gpxtpx:TrackPointExtension>
        </extensions>
      </trkpt>
      <trkpt lat="46.21465" lon="4.79513">
        <ele>169.40039</ele>
        <time>2026-05-13T14:02:30+02:00</time>
        <extensions>
          <gpxtpx:TrackPointExtension xmlns:gpxtpx="http://www.garmin.com/xmlschemas/TrackPointExtension/v1">
            <gpxtpx:hr>171</gpxtpx:hr>
          </gpxtpx:TrackPointExtension>
        </extensions>
      </trkpt>
      <trkpt lat="46.21472" lon="4.79515">
        <ele>169.5</ele>
        <time>2026-05-13T14:02:31+02:00</time>
        <extensions>
          <gpxtpx:TrackPointExtension xmlns:gpxtpx="http://www.garmin.com/xmlschemas/TrackPointExtension/v1">
            <gpxtpx:hr>171</gpxtpx:hr>
          </gpxtpx:TrackPointExtension>
        </extensions>
      </trkpt>
      <trkpt lat="46.21478" lon="4.79517">
        <ele>169.60059</ele>
        <time>2026-05-13T14:02:32+02:00</time>
        <extensions>
          <gpxtpx:TrackPointExtension xmlns:gpxtpx="http://www.garmin.com/xmlschemas/TrackPointExtension/v1">
            <gpxtpx:hr>171</gpxtpx:hr>
          </gpxtpx:TrackPointExtension>
        </extensions>
      </trkpt>
      <trkpt lat="46.21484" lon="4.79518">
        <ele>169.60059</ele>
        <time>2026-05-13T14:02:33+02:00</time>
        <extensions>
          <gpxtpx:TrackPointExtension xmlns:gpxtpx="http://www.garmin.com/xmlschemas/TrackPointExtension/v1">
            <gpxtpx:hr>171</gpxtpx:hr>
          </gpxtpx:TrackPointExtension>
        </extensions>
      </trkpt>
      <trkpt lat="46.21489" lon="4.7952">
        <ele>170.2002</ele>
        <time>2026-05-13T14:02:34+02:00</time>
        <extensions>
          <gpxtpx:TrackPointExtension xmlns:gpxtpx="http://www.garmin.com/xmlschemas/TrackPointExtension/v1">
            <gpxtpx:hr>171</gpxtpx:hr>
          </gpxtpx:TrackPointExtension>
        </extensions>
      </trkpt>
      <trkpt lat="46.21496" lon="4.79522">
        <ele>170.10059</ele>
        <time>2026-05-13T14:02:35+02:00</time>
        <extensions>
          <gpxtpx:TrackPointExtension xmlns:gpxtpx="http://www.garmin.com/xmlschemas/TrackPointExtension/v1">
            <gpxtpx:hr>171</gpxtpx:hr>
          </gpxtpx:TrackPointExtension>
        </extensions>
      </trkpt>
      <trkpt lat="46.21501" lon="4.79524">
        <ele>170</ele>
        <time>2026-05-13T14:02:36+02:00</time>
        <extensions>
          <gpxtpx:TrackPointExtension xmlns:gpxtpx="http://www.garmin.com/xmlschemas/TrackPointExtension/v1">
            <gpxtpx:hr>171</gpxtpx:hr>
          </gpxtpx:TrackPointExtension>
        </extensions>
      </trkpt>
      <trkpt lat="46.21507" lon="4.79526">
        <ele>169.7998</ele>
        <time>2026-05-13T14:02:37+02:00</time>
        <extensions>
          <gpxtpx:TrackPointExtension xmlns:gpxtpx="http://www.garmin.com/xmlschemas/TrackPointExtension/v1">
            <gpxtpx:hr>171</gpxtpx:hr>
          </gpxtpx:TrackPointExtension>
        </extensions>
      </trkpt>
      <trkpt lat="46.21513" lon="4.79528">
        <ele>170.10059</ele>
        <time>2026-05-13T14:02:38+02:00</time>
        <extensions>
          <gpxtpx:TrackPointExtension xmlns:gpxtpx="http://www.garmin.com/xmlschemas/TrackPointExtension/v1">
            <gpxtpx:hr>171</gpxtpx:hr>
          </gpxtpx:TrackPointExtension>
        </extensions>
      </trkpt>
      <trkpt lat="46.21519" lon="4.79529">
        <ele>169.90039</ele>
        <time>2026-05-13T14:02:39+02:00</time>
        <extensions>
          <gpxtpx:TrackPointExtension xmlns:gpxtpx="http://www.garmin.com/xmlschemas/TrackPointExtension/v1">
            <gpxtpx:hr>171</gpxtpx:hr>
          </gpxtpx:TrackPointExtension>
        </extensions>
      </trkpt>
      <trkpt lat="46.21525" lon="4.79531">
        <ele>169.7002</ele>
        <time>2026-05-13T14:02:40+02:00</time>
        <extensions>
          <gpxtpx:TrackPointExtension xmlns:gpxtpx="http://www.garmin.com/xmlschemas/TrackPointExtension/v1">
            <gpxtpx:hr>171</gpxtpx:hr>
          </gpxtpx:TrackPointExtension>
        </extensions>
      </trkpt>
      <trkpt lat="46.21531" lon="4.79533">
        <ele>169.60059</ele>
        <time>2026-05-13T14:02:41+02:00</time>
        <extensions>
          <gpxtpx:TrackPointExtension xmlns:gpxtpx="http://www.garmin.com/xmlschemas/TrackPointExtension/v1">
            <gpxtpx:hr>172</gpxtpx:hr>
          </gpxtpx:TrackPointExtension>
        </extensions>
      </trkpt>
      <trkpt lat="46.21537" lon="4.79535">
        <ele>169.5</ele>
        <time>2026-05-13T14:02:42+02:00</time>
        <extensions>
          <gpxtpx:TrackPointExtension xmlns:gpxtpx="http://www.garmin.com/xmlschemas/TrackPointExtension/v1">
            <gpxtpx:hr>172</gpxtpx:hr>
          </gpxtpx:TrackPointExtension>
        </extensions>
      </trkpt>
      <trkpt lat="46.21542" lon="4.79537">
        <ele>170.10059</ele>
        <time>2026-05-13T14:02:43+02:00</time>
        <extensions>
          <gpxtpx:TrackPointExtension xmlns:gpxtpx="http://www.garmin.com/xmlschemas/TrackPointExtension/v1">
            <gpxtpx:hr>172</gpxtpx:hr>
          </gpxtpx:TrackPointExtension>
        </extensions>
      </trkpt>
      <trkpt lat="46.21548" lon="4.79538">
        <ele>169.90039</ele>
        <time>2026-05-13T14:02:44+02:00</time>
        <extensions>
          <gpxtpx:TrackPointExtension xmlns:gpxtpx="http://www.garmin.com/xmlschemas/TrackPointExtension/v1">
            <gpxtpx:hr>172</gpxtpx:hr>
          </gpxtpx:TrackPointExtension>
        </extensions>
      </trkpt>
      <trkpt lat="46.21554" lon="4.7954">
        <ele>169.7002</ele>
        <time>2026-05-13T14:02:45+02:00</time>
        <extensions>
          <gpxtpx:TrackPointExtension xmlns:gpxtpx="http://www.garmin.com/xmlschemas/TrackPointExtension/v1">
            <gpxtpx:hr>172</gpxtpx:hr>
          </gpxtpx:TrackPointExtension>
        </extensions>
      </trkpt>
      <trkpt lat="46.21559" lon="4.79542">
        <ele>169.7002</ele>
        <time>2026-05-13T14:02:46+02:00</time>
        <extensions>
          <gpxtpx:TrackPointExtension xmlns:gpxtpx="http://www.garmin.com/xmlschemas/TrackPointExtension/v1">
            <gpxtpx:hr>172</gpxtpx:hr>
          </gpxtpx:TrackPointExtension>
        </extensions>
      </trkpt>
      <trkpt lat="46.21565" lon="4.79543">
        <ele>169.2998</ele>
        <time>2026-05-13T14:02:47+02:00</time>
        <extensions>
          <gpxtpx:TrackPointExtension xmlns:gpxtpx="http://www.garmin.com/xmlschemas/TrackPointExtension/v1">
            <gpxtpx:hr>172</gpxtpx:hr>
          </gpxtpx:TrackPointExtension>
        </extensions>
      </trkpt>
      <trkpt lat="46.21571" lon="4.79545">
        <ele>169.10059</ele>
        <time>2026-05-13T14:02:48+02:00</time>
        <extensions>
          <gpxtpx:TrackPointExtension xmlns:gpxtpx="http://www.garmin.com/xmlschemas/TrackPointExtension/v1">
            <gpxtpx:hr>172</gpxtpx:hr>
          </gpxtpx:TrackPointExtension>
        </extensions>
      </trkpt>
      <trkpt lat="46.21577" lon="4.79547">
        <ele>168.7002</ele>
        <time>2026-05-13T14:02:49+02:00</time>
        <extensions>
          <gpxtpx:TrackPointExtension xmlns:gpxtpx="http://www.garmin.com/xmlschemas/TrackPointExtension/v1">
            <gpxtpx:hr>172</gpxtpx:hr>
          </gpxtpx:TrackPointExtension>
        </extensions>
      </trkpt>
      <trkpt lat="46.21583" lon="4.79549">
        <ele>168.5</ele>
        <time>2026-05-13T14:02:50+02:00</time>
        <extensions>
          <gpxtpx:TrackPointExtension xmlns:gpxtpx="http://www.garmin.com/xmlschemas/TrackPointExtension/v1">
            <gpxtpx:hr>172</gpxtpx:hr>
          </gpxtpx:TrackPointExtension>
        </extensions>
      </trkpt>
      <trkpt lat="46.21588" lon="4.79551">
        <ele>168.40039</ele>
        <time>2026-05-13T14:02:51+02:00</time>
        <extensions>
          <gpxtpx:TrackPointExtension xmlns:gpxtpx="http://www.garmin.com/xmlschemas/TrackPointExtension/v1">
            <gpxtpx:hr>172</gpxtpx:hr>
          </gpxtpx:TrackPointExtension>
        </extensions>
      </trkpt>
      <trkpt lat="46.21593" lon="4.79553">
        <ele>168.2998</ele>
        <time>2026-05-13T14:02:52+02:00</time>
        <extensions>
          <gpxtpx:TrackPointExtension xmlns:gpxtpx="http://www.garmin.com/xmlschemas/TrackPointExtension/v1">
            <gpxtpx:hr>171</gpxtpx:hr>
          </gpxtpx:TrackPointExtension>
        </extensions>
      </trkpt>
      <trkpt lat="46.21599" lon="4.79555">
        <ele>168.5</ele>
        <time>2026-05-13T14:02:53+02:00</time>
        <extensions>
          <gpxtpx:TrackPointExtension xmlns:gpxtpx="http://www.garmin.com/xmlschemas/TrackPointExtension/v1">
            <gpxtpx:hr>172</gpxtpx:hr>
          </gpxtpx:TrackPointExtension>
        </extensions>
      </trkpt>
      <trkpt lat="46.21605" lon="4.79556">
        <ele>168.7998</ele>
        <time>2026-05-13T14:02:54+02:00</time>
        <extensions>
          <gpxtpx:TrackPointExtension xmlns:gpxtpx="http://www.garmin.com/xmlschemas/TrackPointExtension/v1">
            <gpxtpx:hr>172</gpxtpx:hr>
          </gpxtpx:TrackPointExtension>
        </extensions>
      </trkpt>
      <trkpt lat="46.2161" lon="4.79558">
        <ele>169.10059</ele>
        <time>2026-05-13T14:02:55+02:00</time>
        <extensions>
          <gpxtpx:TrackPointExtension xmlns:gpxtpx="http://www.garmin.com/xmlschemas/TrackPointExtension/v1">
            <gpxtpx:hr>171</gpxtpx:hr>
          </gpxtpx:TrackPointExtension>
        </extensions>
      </trkpt>
      <trkpt lat="46.21616" lon="4.7956">
        <ele>169.40039</ele>
        <time>2026-05-13T14:02:56+02:00</time>
        <extensions>
          <gpxtpx:TrackPointExtension xmlns:gpxtpx="http://www.garmin.com/xmlschemas/TrackPointExtension/v1">
            <gpxtpx:hr>172</gpxtpx:hr>
          </gpxtpx:TrackPointExtension>
        </extensions>
      </trkpt>
      <trkpt lat="46.21621" lon="4.79562">
        <ele>170.2002</ele>
        <time>2026-05-13T14:02:57+02:00</time>
        <extensions>
          <gpxtpx:TrackPointExtension xmlns:gpxtpx="http://www.garmin.com/xmlschemas/TrackPointExtension/v1">
            <gpxtpx:hr>171</gpxtpx:hr>
          </gpxtpx:TrackPointExtension>
        </extensions>
      </trkpt>
      <trkpt lat="46.21627" lon="4.79564">
        <ele>170.10059</ele>
        <time>2026-05-13T14:02:58+02:00</time>
        <extensions>
          <gpxtpx:TrackPointExtension xmlns:gpxtpx="http://www.garmin.com/xmlschemas/TrackPointExtension/v1">
            <gpxtpx:hr>171</gpxtpx:hr>
          </gpxtpx:TrackPointExtension>
        </extensions>
      </trkpt>
      <trkpt lat="46.21632" lon="4.79566">
        <ele>170</ele>
        <time>2026-05-13T14:02:59+02:00</time>
        <extensions>
          <gpxtpx:TrackPointExtension xmlns:gpxtpx="http://www.garmin.com/xmlschemas/TrackPointExtension/v1">
            <gpxtpx:hr>171</gpxtpx:hr>
          </gpxtpx:TrackPointExtension>
        </extensions>
      </trkpt>
      <trkpt lat="46.21638" lon="4.79567">
        <ele>169.90039</ele>
        <time>2026-05-13T14:03:00+02:00</time>
        <extensions>
          <gpxtpx:TrackPointExtension xmlns:gpxtpx="http://www.garmin.com/xmlschemas/TrackPointExtension/v1">
            <gpxtpx:hr>171</gpxtpx:hr>
          </gpxtpx:TrackPointExtension>
        </extensions>
      </trkpt>
      <trkpt lat="46.21644" lon="4.79569">
        <ele>169.7002</ele>
        <time>2026-05-13T14:03:01+02:00</time>
        <extensions>
          <gpxtpx:TrackPointExtension xmlns:gpxtpx="http://www.garmin.com/xmlschemas/TrackPointExtension/v1">
            <gpxtpx:hr>171</gpxtpx:hr>
          </gpxtpx:TrackPointExtension>
        </extensions>
      </trkpt>
      <trkpt lat="46.21649" lon="4.79571">
        <ele>170</ele>
        <time>2026-05-13T14:03:02+02:00</time>
        <extensions>
          <gpxtpx:TrackPointExtension xmlns:gpxtpx="http://www.garmin.com/xmlschemas/TrackPointExtension/v1">
            <gpxtpx:hr>171</gpxtpx:hr>
          </gpxtpx:TrackPointExtension>
        </extensions>
      </trkpt>
      <trkpt lat="46.21655" lon="4.79573">
        <ele>169.7002</ele>
        <time>2026-05-13T14:03:03+02:00</time>
        <extensions>
          <gpxtpx:TrackPointExtension xmlns:gpxtpx="http://www.garmin.com/xmlschemas/TrackPointExtension/v1">
            <gpxtpx:hr>171</gpxtpx:hr>
          </gpxtpx:TrackPointExtension>
        </extensions>
      </trkpt>
      <trkpt lat="46.21661" lon="4.79574">
        <ele>169.5</ele>
        <time>2026-05-13T14:03:04+02:00</time>
        <extensions>
          <gpxtpx:TrackPointExtension xmlns:gpxtpx="http://www.garmin.com/xmlschemas/TrackPointExtension/v1">
            <gpxtpx:hr>170</gpxtpx:hr>
          </gpxtpx:TrackPointExtension>
        </extensions>
      </trkpt>
      <trkpt lat="46.21666" lon="4.79576">
        <ele>169.5</ele>
        <time>2026-05-13T14:03:05+02:00</time>
        <extensions>
          <gpxtpx:TrackPointExtension xmlns:gpxtpx="http://www.garmin.com/xmlschemas/TrackPointExtension/v1">
            <gpxtpx:hr>171</gpxtpx:hr>
          </gpxtpx:TrackPointExtension>
        </extensions>
      </trkpt>
      <trkpt lat="46.21672" lon="4.79578">
        <ele>169.2998</ele>
        <time>2026-05-13T14:03:06+02:00</time>
        <extensions>
          <gpxtpx:TrackPointExtension xmlns:gpxtpx="http://www.garmin.com/xmlschemas/TrackPointExtension/v1">
            <gpxtpx:hr>171</gpxtpx:hr>
          </gpxtpx:TrackPointExtension>
        </extensions>
      </trkpt>
      <trkpt lat="46.21678" lon="4.7958">
        <ele>169.60059</ele>
        <time>2026-05-13T14:03:07+02:00</time>
        <extensions>
          <gpxtpx:TrackPointExtension xmlns:gpxtpx="http://www.garmin.com/xmlschemas/TrackPointExtension/v1">
            <gpxtpx:hr>171</gpxtpx:hr>
          </gpxtpx:TrackPointExtension>
        </extensions>
      </trkpt>
      <trkpt lat="46.21683" lon="4.79582">
        <ele>169.5</ele>
        <time>2026-05-13T14:03:08+02:00</time>
        <extensions>
          <gpxtpx:TrackPointExtension xmlns:gpxtpx="http://www.garmin.com/xmlschemas/TrackPointExtension/v1">
            <gpxtpx:hr>171</gpxtpx:hr>
          </gpxtpx:TrackPointExtension>
        </extensions>
      </trkpt>
      <trkpt lat="46.21689" lon="4.79584">
        <ele>169.40039</ele>
        <time>2026-05-13T14:03:09+02:00</time>
        <extensions>
          <gpxtpx:TrackPointExtension xmlns:gpxtpx="http://www.garmin.com/xmlschemas/TrackPointExtension/v1">
            <gpxtpx:hr>172</gpxtpx:hr>
          </gpxtpx:TrackPointExtension>
        </extensions>
      </trkpt>
      <trkpt lat="46.21694" lon="4.79586">
        <ele>169.2998</ele>
        <time>2026-05-13T14:03:10+02:00</time>
        <extensions>
          <gpxtpx:TrackPointExtension xmlns:gpxtpx="http://www.garmin.com/xmlschemas/TrackPointExtension/v1">
            <gpxtpx:hr>172</gpxtpx:hr>
          </gpxtpx:TrackPointExtension>
        </extensions>
      </trkpt>
      <trkpt lat="46.217" lon="4.79588">
        <ele>169.60059</ele>
        <time>2026-05-13T14:03:11+02:00</time>
        <extensions>
          <gpxtpx:TrackPointExtension xmlns:gpxtpx="http://www.garmin.com/xmlschemas/TrackPointExtension/v1">
            <gpxtpx:hr>172</gpxtpx:hr>
          </gpxtpx:TrackPointExtension>
        </extensions>
      </trkpt>
      <trkpt lat="46.21706" lon="4.79589">
        <ele>169</ele>
        <time>2026-05-13T14:03:12+02:00</time>
        <extensions>
          <gpxtpx:TrackPointExtension xmlns:gpxtpx="http://www.garmin.com/xmlschemas/TrackPointExtension/v1">
            <gpxtpx:hr>172</gpxtpx:hr>
          </gpxtpx:TrackPointExtension>
        </extensions>
      </trkpt>
      <trkpt lat="46.21711" lon="4.79591">
        <ele>168.7002</ele>
        <time>2026-05-13T14:03:13+02:00</time>
        <extensions>
          <gpxtpx:TrackPointExtension xmlns:gpxtpx="http://www.garmin.com/xmlschemas/TrackPointExtension/v1">
            <gpxtpx:hr>172</gpxtpx:hr>
          </gpxtpx:TrackPointExtension>
        </extensions>
      </trkpt>
      <trkpt lat="46.21718" lon="4.79593">
        <ele>168.7002</ele>
        <time>2026-05-13T14:03:14+02:00</time>
        <extensions>
          <gpxtpx:TrackPointExtension xmlns:gpxtpx="http://www.garmin.com/xmlschemas/TrackPointExtension/v1">
            <gpxtpx:hr>172</gpxtpx:hr>
          </gpxtpx:TrackPointExtension>
        </extensions>
      </trkpt>
      <trkpt lat="46.21724" lon="4.79595">
        <ele>168.7998</ele>
        <time>2026-05-13T14:03:15+02:00</time>
        <extensions>
          <gpxtpx:TrackPointExtension xmlns:gpxtpx="http://www.garmin.com/xmlschemas/TrackPointExtension/v1">
            <gpxtpx:hr>172</gpxtpx:hr>
          </gpxtpx:TrackPointExtension>
        </extensions>
      </trkpt>
      <trkpt lat="46.2173" lon="4.79598">
        <ele>169.10059</ele>
        <time>2026-05-13T14:03:16+02:00</time>
        <extensions>
          <gpxtpx:TrackPointExtension xmlns:gpxtpx="http://www.garmin.com/xmlschemas/TrackPointExtension/v1">
            <gpxtpx:hr>172</gpxtpx:hr>
          </gpxtpx:TrackPointExtension>
        </extensions>
      </trkpt>
      <trkpt lat="46.21737" lon="4.796">
        <ele>169.2998</ele>
        <time>2026-05-13T14:03:17+02:00</time>
        <extensions>
          <gpxtpx:TrackPointExtension xmlns:gpxtpx="http://www.garmin.com/xmlschemas/TrackPointExtension/v1">
            <gpxtpx:hr>172</gpxtpx:hr>
          </gpxtpx:TrackPointExtension>
        </extensions>
      </trkpt>
      <trkpt lat="46.21743" lon="4.79603">
        <ele>169.2002</ele>
        <time>2026-05-13T14:03:18+02:00</time>
        <extensions>
          <gpxtpx:TrackPointExtension xmlns:gpxtpx="http://www.garmin.com/xmlschemas/TrackPointExtension/v1">
            <gpxtpx:hr>172</gpxtpx:hr>
          </gpxtpx:TrackPointExtension>
        </extensions>
      </trkpt>
      <trkpt lat="46.21749" lon="4.79606">
        <ele>169.7002</ele>
        <time>2026-05-13T14:03:19+02:00</time>
        <extensions>
          <gpxtpx:TrackPointExtension xmlns:gpxtpx="http://www.garmin.com/xmlschemas/TrackPointExtension/v1">
            <gpxtpx:hr>172</gpxtpx:hr>
          </gpxtpx:TrackPointExtension>
        </extensions>
      </trkpt>
      <trkpt lat="46.21755" lon="4.79608">
        <ele>169.60059</ele>
        <time>2026-05-13T14:03:20+02:00</time>
        <extensions>
          <gpxtpx:TrackPointExtension xmlns:gpxtpx="http://www.garmin.com/xmlschemas/TrackPointExtension/v1">
            <gpxtpx:hr>172</gpxtpx:hr>
          </gpxtpx:TrackPointExtension>
        </extensions>
      </trkpt>
      <trkpt lat="46.21761" lon="4.79611">
        <ele>169.60059</ele>
        <time>2026-05-13T14:03:21+02:00</time>
        <extensions>
          <gpxtpx:TrackPointExtension xmlns:gpxtpx="http://www.garmin.com/xmlschemas/TrackPointExtension/v1">
            <gpxtpx:hr>173</gpxtpx:hr>
          </gpxtpx:TrackPointExtension>
        </extensions>
      </trkpt>
      <trkpt lat="46.21767" lon="4.79614">
        <ele>170.2002</ele>
        <time>2026-05-13T14:03:22+02:00</time>
        <extensions>
          <gpxtpx:TrackPointExtension xmlns:gpxtpx="http://www.garmin.com/xmlschemas/TrackPointExtension/v1">
            <gpxtpx:hr>173</gpxtpx:hr>
          </gpxtpx:TrackPointExtension>
        </extensions>
      </trkpt>
      <trkpt lat="46.21773" lon="4.79617">
        <ele>170.10059</ele>
        <time>2026-05-13T14:03:23+02:00</time>
        <extensions>
          <gpxtpx:TrackPointExtension xmlns:gpxtpx="http://www.garmin.com/xmlschemas/TrackPointExtension/v1">
            <gpxtpx:hr>172</gpxtpx:hr>
          </gpxtpx:TrackPointExtension>
        </extensions>
      </trkpt>
      <trkpt lat="46.2178" lon="4.79619">
        <ele>169.7002</ele>
        <time>2026-05-13T14:03:24+02:00</time>
        <extensions>
          <gpxtpx:TrackPointExtension xmlns:gpxtpx="http://www.garmin.com/xmlschemas/TrackPointExtension/v1">
            <gpxtpx:hr>172</gpxtpx:hr>
          </gpxtpx:TrackPointExtension>
        </extensions>
      </trkpt>
      <trkpt lat="46.21786" lon="4.79622">
        <ele>170</ele>
        <time>2026-05-13T14:03:25+02:00</time>
        <extensions>
          <gpxtpx:TrackPointExtension xmlns:gpxtpx="http://www.garmin.com/xmlschemas/TrackPointExtension/v1">
            <gpxtpx:hr>173</gpxtpx:hr>
          </gpxtpx:TrackPointExtension>
        </extensions>
      </trkpt>
      <trkpt lat="46.21792" lon="4.79625">
        <ele>169.7002</ele>
        <time>2026-05-13T14:03:26+02:00</time>
        <extensions>
          <gpxtpx:TrackPointExtension xmlns:gpxtpx="http://www.garmin.com/xmlschemas/TrackPointExtension/v1">
            <gpxtpx:hr>173</gpxtpx:hr>
          </gpxtpx:TrackPointExtension>
        </extensions>
      </trkpt>
      <trkpt lat="46.21798" lon="4.79628">
        <ele>169.5</ele>
        <time>2026-05-13T14:03:27+02:00</time>
        <extensions>
          <gpxtpx:TrackPointExtension xmlns:gpxtpx="http://www.garmin.com/xmlschemas/TrackPointExtension/v1">
            <gpxtpx:hr>173</gpxtpx:hr>
          </gpxtpx:TrackPointExtension>
        </extensions>
      </trkpt>
      <trkpt lat="46.21804" lon="4.79631">
        <ele>169.60059</ele>
        <time>2026-05-13T14:03:28+02:00</time>
        <extensions>
          <gpxtpx:TrackPointExtension xmlns:gpxtpx="http://www.garmin.com/xmlschemas/TrackPointExtension/v1">
            <gpxtpx:hr>173</gpxtpx:hr>
          </gpxtpx:TrackPointExtension>
        </extensions>
      </trkpt>
      <trkpt lat="46.2181" lon="4.79633">
        <ele>169.40039</ele>
        <time>2026-05-13T14:03:29+02:00</time>
        <extensions>
          <gpxtpx:TrackPointExtension xmlns:gpxtpx="http://www.garmin.com/xmlschemas/TrackPointExtension/v1">
            <gpxtpx:hr>173</gpxtpx:hr>
          </gpxtpx:TrackPointExtension>
        </extensions>
      </trkpt>
      <trkpt lat="46.21816" lon="4.79636">
        <ele>169.2998</ele>
        <time>2026-05-13T14:03:30+02:00</time>
        <extensions>
          <gpxtpx:TrackPointExtension xmlns:gpxtpx="http://www.garmin.com/xmlschemas/TrackPointExtension/v1">
            <gpxtpx:hr>173</gpxtpx:hr>
          </gpxtpx:TrackPointExtension>
        </extensions>
      </trkpt>
      <trkpt lat="46.21822" lon="4.79638">
        <ele>169.2002</ele>
        <time>2026-05-13T14:03:31+02:00</time>
        <extensions>
          <gpxtpx:TrackPointExtension xmlns:gpxtpx="http://www.garmin.com/xmlschemas/TrackPointExtension/v1">
            <gpxtpx:hr>173</gpxtpx:hr>
          </gpxtpx:TrackPointExtension>
        </extensions>
      </trkpt>
      <trkpt lat="46.21828" lon="4.79641">
        <ele>169.60059</ele>
        <time>2026-05-13T14:03:32+02:00</time>
        <extensions>
          <gpxtpx:TrackPointExtension xmlns:gpxtpx="http://www.garmin.com/xmlschemas/TrackPointExtension/v1">
            <gpxtpx:hr>172</gpxtpx:hr>
          </gpxtpx:TrackPointExtension>
        </extensions>
      </trkpt>
      <trkpt lat="46.21834" lon="4.79644">
        <ele>169.2998</ele>
        <time>2026-05-13T14:03:33+02:00</time>
        <extensions>
          <gpxtpx:TrackPointExtension xmlns:gpxtpx="http://www.garmin.com/xmlschemas/TrackPointExtension/v1">
            <gpxtpx:hr>173</gpxtpx:hr>
          </gpxtpx:TrackPointExtension>
        </extensions>
      </trkpt>
      <trkpt lat="46.2184" lon="4.79647">
        <ele>168.90039</ele>
        <time>2026-05-13T14:03:34+02:00</time>
        <extensions>
          <gpxtpx:TrackPointExtension xmlns:gpxtpx="http://www.garmin.com/xmlschemas/TrackPointExtension/v1">
            <gpxtpx:hr>173</gpxtpx:hr>
          </gpxtpx:TrackPointExtension>
        </extensions>
      </trkpt>
      <trkpt lat="46.21846" lon="4.7965">
        <ele>168.60059</ele>
        <time>2026-05-13T14:03:35+02:00</time>
        <extensions>
          <gpxtpx:TrackPointExtension xmlns:gpxtpx="http://www.garmin.com/xmlschemas/TrackPointExtension/v1">
            <gpxtpx:hr>173</gpxtpx:hr>
          </gpxtpx:TrackPointExtension>
        </extensions>
      </trkpt>
      <trkpt lat="46.21852" lon="4.79653">
        <ele>168.5</ele>
        <time>2026-05-13T14:03:36+02:00</time>
        <extensions>
          <gpxtpx:TrackPointExtension xmlns:gpxtpx="http://www.garmin.com/xmlschemas/TrackPointExtension/v1">
            <gpxtpx:hr>173</gpxtpx:hr>
          </gpxtpx:TrackPointExtension>
        </extensions>
      </trkpt>
      <trkpt lat="46.21858" lon="4.79656">
        <ele>168.5</ele>
        <time>2026-05-13T14:03:37+02:00</time>
        <extensions>
          <gpxtpx:TrackPointExtension xmlns:gpxtpx="http://www.garmin.com/xmlschemas/TrackPointExtension/v1">
            <gpxtpx:hr>173</gpxtpx:hr>
          </gpxtpx:TrackPointExtension>
        </extensions>
      </trkpt>
      <trkpt lat="46.21864" lon="4.7966">
        <ele>168.7998</ele>
        <time>2026-05-13T14:03:38+02:00</time>
        <extensions>
          <gpxtpx:TrackPointExtension xmlns:gpxtpx="http://www.garmin.com/xmlschemas/TrackPointExtension/v1">
            <gpxtpx:hr>174</gpxtpx:hr>
          </gpxtpx:TrackPointExtension>
        </extensions>
      </trkpt>
      <trkpt lat="46.21869" lon="4.79663">
        <ele>168.7998</ele>
        <time>2026-05-13T14:03:39+02:00</time>
        <extensions>
          <gpxtpx:TrackPointExtension xmlns:gpxtpx="http://www.garmin.com/xmlschemas/TrackPointExtension/v1">
            <gpxtpx:hr>173</gpxtpx:hr>
          </gpxtpx:TrackPointExtension>
        </extensions>
      </trkpt>
      <trkpt lat="46.21876" lon="4.79666">
        <ele>169.10059</ele>
        <time>2026-05-13T14:03:40+02:00</time>
        <extensions>
          <gpxtpx:TrackPointExtension xmlns:gpxtpx="http://www.garmin.com/xmlschemas/TrackPointExtension/v1">
            <gpxtpx:hr>174</gpxtpx:hr>
          </gpxtpx:TrackPointExtension>
        </extensions>
      </trkpt>
      <trkpt lat="46.21881" lon="4.79669">
        <ele>168.90039</ele>
        <time>2026-05-13T14:03:41+02:00</time>
        <extensions>
          <gpxtpx:TrackPointExtension xmlns:gpxtpx="http://www.garmin.com/xmlschemas/TrackPointExtension/v1">
            <gpxtpx:hr>173</gpxtpx:hr>
          </gpxtpx:TrackPointExtension>
        </extensions>
      </trkpt>
      <trkpt lat="46.21887" lon="4.79672">
        <ele>168.7998</ele>
        <time>2026-05-13T14:03:42+02:00</time>
        <extensions>
          <gpxtpx:TrackPointExtension xmlns:gpxtpx="http://www.garmin.com/xmlschemas/TrackPointExtension/v1">
            <gpxtpx:hr>173</gpxtpx:hr>
          </gpxtpx:TrackPointExtension>
        </extensions>
      </trkpt>
      <trkpt lat="46.21892" lon="4.79676">
        <ele>168.7998</ele>
        <time>2026-05-13T14:03:43+02:00</time>
        <extensions>
          <gpxtpx:TrackPointExtension xmlns:gpxtpx="http://www.garmin.com/xmlschemas/TrackPointExtension/v1">
            <gpxtpx:hr>173</gpxtpx:hr>
          </gpxtpx:TrackPointExtension>
        </extensions>
      </trkpt>
      <trkpt lat="46.21898" lon="4.7968">
        <ele>168.7998</ele>
        <time>2026-05-13T14:03:44+02:00</time>
        <extensions>
          <gpxtpx:TrackPointExtension xmlns:gpxtpx="http://www.garmin.com/xmlschemas/TrackPointExtension/v1">
            <gpxtpx:hr>174</gpxtpx:hr>
          </gpxtpx:TrackPointExtension>
        </extensions>
      </trkpt>
      <trkpt lat="46.21904" lon="4.79683">
        <ele>168.90039</ele>
        <time>2026-05-13T14:03:45+02:00</time>
        <extensions>
          <gpxtpx:TrackPointExtension xmlns:gpxtpx="http://www.garmin.com/xmlschemas/TrackPointExtension/v1">
            <gpxtpx:hr>174</gpxtpx:hr>
          </gpxtpx:TrackPointExtension>
        </extensions>
      </trkpt>
      <trkpt lat="46.2191" lon="4.79687">
        <ele>168.90039</ele>
        <time>2026-05-13T14:03:46+02:00</time>
        <extensions>
          <gpxtpx:TrackPointExtension xmlns:gpxtpx="http://www.garmin.com/xmlschemas/TrackPointExtension/v1">
            <gpxtpx:hr>174</gpxtpx:hr>
          </gpxtpx:TrackPointExtension>
        </extensions>
      </trkpt>
      <trkpt lat="46.21916" lon="4.79691">
        <ele>169.10059</ele>
        <time>2026-05-13T14:03:47+02:00</time>
        <extensions>
          <gpxtpx:TrackPointExtension xmlns:gpxtpx="http://www.garmin.com/xmlschemas/TrackPointExtension/v1">
            <gpxtpx:hr>174</gpxtpx:hr>
          </gpxtpx:TrackPointExtension>
        </extensions>
      </trkpt>
      <trkpt lat="46.21921" lon="4.79694">
        <ele>169.10059</ele>
        <time>2026-05-13T14:03:48+02:00</time>
        <extensions>
          <gpxtpx:TrackPointExtension xmlns:gpxtpx="http://www.garmin.com/xmlschemas/TrackPointExtension/v1">
            <gpxtpx:hr>174</gpxtpx:hr>
          </gpxtpx:TrackPointExtension>
        </extensions>
      </trkpt>
      <trkpt lat="46.21927" lon="4.79698">
        <ele>169</ele>
        <time>2026-05-13T14:03:49+02:00</time>
        <extensions>
          <gpxtpx:TrackPointExtension xmlns:gpxtpx="http://www.garmin.com/xmlschemas/TrackPointExtension/v1">
            <gpxtpx:hr>174</gpxtpx:hr>
          </gpxtpx:TrackPointExtension>
        </extensions>
      </trkpt>
      <trkpt lat="46.21933" lon="4.79702">
        <ele>169.2002</ele>
        <time>2026-05-13T14:03:50+02:00</time>
        <extensions>
          <gpxtpx:TrackPointExtension xmlns:gpxtpx="http://www.garmin.com/xmlschemas/TrackPointExtension/v1">
            <gpxtpx:hr>175</gpxtpx:hr>
          </gpxtpx:TrackPointExtension>
        </extensions>
      </trkpt>
      <trkpt lat="46.21938" lon="4.79706">
        <ele>169.10059</ele>
        <time>2026-05-13T14:03:51+02:00</time>
        <extensions>
          <gpxtpx:TrackPointExtension xmlns:gpxtpx="http://www.garmin.com/xmlschemas/TrackPointExtension/v1">
            <gpxtpx:hr>175</gpxtpx:hr>
          </gpxtpx:TrackPointExtension>
        </extensions>
      </trkpt>
      <trkpt lat="46.21944" lon="4.79709">
        <ele>169.2002</ele>
        <time>2026-05-13T14:03:52+02:00</time>
        <extensions>
          <gpxtpx:TrackPointExtension xmlns:gpxtpx="http://www.garmin.com/xmlschemas/TrackPointExtension/v1">
            <gpxtpx:hr>175</gpxtpx:hr>
          </gpxtpx:TrackPointExtension>
        </extensions>
      </trkpt>
      <trkpt lat="46.21949" lon="4.79713">
        <ele>169.10059</ele>
        <time>2026-05-13T14:03:53+02:00</time>
        <extensions>
          <gpxtpx:TrackPointExtension xmlns:gpxtpx="http://www.garmin.com/xmlschemas/TrackPointExtension/v1">
            <gpxtpx:hr>174</gpxtpx:hr>
          </gpxtpx:TrackPointExtension>
        </extensions>
      </trkpt>
      <trkpt lat="46.21954" lon="4.79716">
        <ele>169</ele>
        <time>2026-05-13T14:03:54+02:00</time>
        <extensions>
          <gpxtpx:TrackPointExtension xmlns:gpxtpx="http://www.garmin.com/xmlschemas/TrackPointExtension/v1">
            <gpxtpx:hr>175</gpxtpx:hr>
          </gpxtpx:TrackPointExtension>
        </extensions>
      </trkpt>
      <trkpt lat="46.2196" lon="4.79719">
        <ele>169.2998</ele>
        <time>2026-05-13T14:03:55+02:00</time>
        <extensions>
          <gpxtpx:TrackPointExtension xmlns:gpxtpx="http://www.garmin.com/xmlschemas/TrackPointExtension/v1">
            <gpxtpx:hr>175</gpxtpx:hr>
          </gpxtpx:TrackPointExtension>
        </extensions>
      </trkpt>
      <trkpt lat="46.21966" lon="4.79723">
        <ele>169.2002</ele>
        <time>2026-05-13T14:03:56+02:00</time>
        <extensions>
          <gpxtpx:TrackPointExtension xmlns:gpxtpx="http://www.garmin.com/xmlschemas/TrackPointExtension/v1">
            <gpxtpx:hr>175</gpxtpx:hr>
          </gpxtpx:TrackPointExtension>
        </extensions>
      </trkpt>
      <trkpt lat="46.21971" lon="4.79727">
        <ele>169.7002</ele>
        <time>2026-05-13T14:03:57+02:00</time>
        <extensions>
          <gpxtpx:TrackPointExtension xmlns:gpxtpx="http://www.garmin.com/xmlschemas/TrackPointExtension/v1">
            <gpxtpx:hr>175</gpxtpx:hr>
          </gpxtpx:TrackPointExtension>
        </extensions>
      </trkpt>
      <trkpt lat="46.21976" lon="4.7973">
        <ele>169.5</ele>
        <time>2026-05-13T14:03:58+02:00</time>
        <extensions>
          <gpxtpx:TrackPointExtension xmlns:gpxtpx="http://www.garmin.com/xmlschemas/TrackPointExtension/v1">
            <gpxtpx:hr>175</gpxtpx:hr>
          </gpxtpx:TrackPointExtension>
        </extensions>
      </trkpt>
      <trkpt lat="46.21982" lon="4.79734">
        <ele>169.60059</ele>
        <time>2026-05-13T14:03:59+02:00</time>
        <extensions>
          <gpxtpx:TrackPointExtension xmlns:gpxtpx="http://www.garmin.com/xmlschemas/TrackPointExtension/v1">
            <gpxtpx:hr>175</gpxtpx:hr>
          </gpxtpx:TrackPointExtension>
        </extensions>
      </trkpt>
      <trkpt lat="46.21987" lon="4.79738">
        <ele>169.40039</ele>
        <time>2026-05-13T14:04:00+02:00</time>
        <extensions>
          <gpxtpx:TrackPointExtension xmlns:gpxtpx="http://www.garmin.com/xmlschemas/TrackPointExtension/v1">
            <gpxtpx:hr>175</gpxtpx:hr>
          </gpxtpx:TrackPointExtension>
        </extensions>
      </trkpt>
      <trkpt lat="46.21992" lon="4.79742">
        <ele>169.40039</ele>
        <time>2026-05-13T14:04:01+02:00</time>
        <extensions>
          <gpxtpx:TrackPointExtension xmlns:gpxtpx="http://www.garmin.com/xmlschemas/TrackPointExtension/v1">
            <gpxtpx:hr>175</gpxtpx:hr>
          </gpxtpx:TrackPointExtension>
        </extensions>
      </trkpt>
      <trkpt lat="46.21998" lon="4.79745">
        <ele>169.40039</ele>
        <time>2026-05-13T14:04:02+02:00</time>
        <extensions>
          <gpxtpx:TrackPointExtension xmlns:gpxtpx="http://www.garmin.com/xmlschemas/TrackPointExtension/v1">
            <gpxtpx:hr>176</gpxtpx:hr>
          </gpxtpx:TrackPointExtension>
        </extensions>
      </trkpt>
      <trkpt lat="46.22004" lon="4.79749">
        <ele>169.2002</ele>
        <time>2026-05-13T14:04:03+02:00</time>
        <extensions>
          <gpxtpx:TrackPointExtension xmlns:gpxtpx="http://www.garmin.com/xmlschemas/TrackPointExtension/v1">
            <gpxtpx:hr>176</gpxtpx:hr>
          </gpxtpx:TrackPointExtension>
        </extensions>
      </trkpt>
      <trkpt lat="46.22009" lon="4.79753">
        <ele>169</ele>
        <time>2026-05-13T14:04:04+02:00</time>
        <extensions>
          <gpxtpx:TrackPointExtension xmlns:gpxtpx="http://www.garmin.com/xmlschemas/TrackPointExtension/v1">
            <gpxtpx:hr>176</gpxtpx:hr>
          </gpxtpx:TrackPointExtension>
        </extensions>
      </trkpt>
      <trkpt lat="46.22015" lon="4.79757">
        <ele>168.7998</ele>
        <time>2026-05-13T14:04:05+02:00</time>
        <extensions>
          <gpxtpx:TrackPointExtension xmlns:gpxtpx="http://www.garmin.com/xmlschemas/TrackPointExtension/v1">
            <gpxtpx:hr>175</gpxtpx:hr>
          </gpxtpx:TrackPointExtension>
        </extensions>
      </trkpt>
      <trkpt lat="46.22021" lon="4.79761">
        <ele>168.7002</ele>
        <time>2026-05-13T14:04:06+02:00</time>
        <extensions>
          <gpxtpx:TrackPointExtension xmlns:gpxtpx="http://www.garmin.com/xmlschemas/TrackPointExtension/v1">
            <gpxtpx:hr>176</gpxtpx:hr>
          </gpxtpx:TrackPointExtension>
        </extensions>
      </trkpt>
      <trkpt lat="46.22027" lon="4.79765">
        <ele>168.60059</ele>
        <time>2026-05-13T14:04:07+02:00</time>
        <extensions>
          <gpxtpx:TrackPointExtension xmlns:gpxtpx="http://www.garmin.com/xmlschemas/TrackPointExtension/v1">
            <gpxtpx:hr>177</gpxtpx:hr>
          </gpxtpx:TrackPointExtension>
        </extensions>
      </trkpt>
      <trkpt lat="46.22033" lon="4.79769">
        <ele>168.60059</ele>
        <time>2026-05-13T14:04:08+02:00</time>
        <extensions>
          <gpxtpx:TrackPointExtension xmlns:gpxtpx="http://www.garmin.com/xmlschemas/TrackPointExtension/v1">
            <gpxtpx:hr>176</gpxtpx:hr>
          </gpxtpx:TrackPointExtension>
        </extensions>
      </trkpt>
      <trkpt lat="46.22039" lon="4.79773">
        <ele>168.60059</ele>
        <time>2026-05-13T14:04:09+02:00</time>
        <extensions>
          <gpxtpx:TrackPointExtension xmlns:gpxtpx="http://www.garmin.com/xmlschemas/TrackPointExtension/v1">
            <gpxtpx:hr>177</gpxtpx:hr>
          </gpxtpx:TrackPointExtension>
        </extensions>
      </trkpt>
      <trkpt lat="46.22045" lon="4.79777">
        <ele>168.5</ele>
        <time>2026-05-13T14:04:10+02:00</time>
        <extensions>
          <gpxtpx:TrackPointExtension xmlns:gpxtpx="http://www.garmin.com/xmlschemas/TrackPointExtension/v1">
            <gpxtpx:hr>177</gpxtpx:hr>
          </gpxtpx:TrackPointExtension>
        </extensions>
      </trkpt>
      <trkpt lat="46.22051" lon="4.79782">
        <ele>168.40039</ele>
        <time>2026-05-13T14:04:11+02:00</time>
        <extensions>
          <gpxtpx:TrackPointExtension xmlns:gpxtpx="http://www.garmin.com/xmlschemas/TrackPointExtension/v1">
            <gpxtpx:hr>178</gpxtpx:hr>
          </gpxtpx:TrackPointExtension>
        </extensions>
      </trkpt>
      <trkpt lat="46.22057" lon="4.79786">
        <ele>168.2998</ele>
        <time>2026-05-13T14:04:12+02:00</time>
        <extensions>
          <gpxtpx:TrackPointExtension xmlns:gpxtpx="http://www.garmin.com/xmlschemas/TrackPointExtension/v1">
            <gpxtpx:hr>177</gpxtpx:hr>
          </gpxtpx:TrackPointExtension>
        </extensions>
      </trkpt>
      <trkpt lat="46.22064" lon="4.7979">
        <ele>168.2998</ele>
        <time>2026-05-13T14:04:13+02:00</time>
        <extensions>
          <gpxtpx:TrackPointExtension xmlns:gpxtpx="http://www.garmin.com/xmlschemas/TrackPointExtension/v1">
            <gpxtpx:hr>177</gpxtpx:hr>
          </gpxtpx:TrackPointExtension>
        </extensions>
      </trkpt>
      <trkpt lat="46.22069" lon="4.79794">
        <ele>168.2998</ele>
        <time>2026-05-13T14:04:14+02:00</time>
        <extensions>
          <gpxtpx:TrackPointExtension xmlns:gpxtpx="http://www.garmin.com/xmlschemas/TrackPointExtension/v1">
            <gpxtpx:hr>178</gpxtpx:hr>
          </gpxtpx:TrackPointExtension>
        </extensions>
      </trkpt>
      <trkpt lat="46.22075" lon="4.79798">
        <ele>168.40039</ele>
        <time>2026-05-13T14:04:15+02:00</time>
        <extensions>
          <gpxtpx:TrackPointExtension xmlns:gpxtpx="http://www.garmin.com/xmlschemas/TrackPointExtension/v1">
            <gpxtpx:hr>178</gpxtpx:hr>
          </gpxtpx:TrackPointExtension>
        </extensions>
      </trkpt>
      <trkpt lat="46.22081" lon="4.79802">
        <ele>168.5</ele>
        <time>2026-05-13T14:04:16+02:00</time>
        <extensions>
          <gpxtpx:TrackPointExtension xmlns:gpxtpx="http://www.garmin.com/xmlschemas/TrackPointExtension/v1">
            <gpxtpx:hr>177</gpxtpx:hr>
          </gpxtpx:TrackPointExtension>
        </extensions>
      </trkpt>
      <trkpt lat="46.22087" lon="4.79805">
        <ele>168.7002</ele>
        <time>2026-05-13T14:04:17+02:00</time>
        <extensions>
          <gpxtpx:TrackPointExtension xmlns:gpxtpx="http://www.garmin.com/xmlschemas/TrackPointExtension/v1">
            <gpxtpx:hr>178</gpxtpx:hr>
          </gpxtpx:TrackPointExtension>
        </extensions>
      </trkpt>
      <trkpt lat="46.22093" lon="4.79809">
        <ele>168.7002</ele>
        <time>2026-05-13T14:04:18+02:00</time>
        <extensions>
          <gpxtpx:TrackPointExtension xmlns:gpxtpx="http://www.garmin.com/xmlschemas/TrackPointExtension/v1">
            <gpxtpx:hr>177</gpxtpx:hr>
          </gpxtpx:TrackPointExtension>
        </extensions>
      </trkpt>
      <trkpt lat="46.22098" lon="4.79813">
        <ele>168.90039</ele>
        <time>2026-05-13T14:04:19+02:00</time>
        <extensions>
          <gpxtpx:TrackPointExtension xmlns:gpxtpx="http://www.garmin.com/xmlschemas/TrackPointExtension/v1">
            <gpxtpx:hr>177</gpxtpx:hr>
          </gpxtpx:TrackPointExtension>
        </extensions>
      </trkpt>
      <trkpt lat="46.22104" lon="4.79817">
        <ele>168.90039</ele>
        <time>2026-05-13T14:04:20+02:00</time>
        <extensions>
          <gpxtpx:TrackPointExtension xmlns:gpxtpx="http://www.garmin.com/xmlschemas/TrackPointExtension/v1">
            <gpxtpx:hr>177</gpxtpx:hr>
          </gpxtpx:TrackPointExtension>
        </extensions>
      </trkpt>
      <trkpt lat="46.2211" lon="4.7982">
        <ele>169.2002</ele>
        <time>2026-05-13T14:04:21+02:00</time>
        <extensions>
          <gpxtpx:TrackPointExtension xmlns:gpxtpx="http://www.garmin.com/xmlschemas/TrackPointExtension/v1">
            <gpxtpx:hr>177</gpxtpx:hr>
          </gpxtpx:TrackPointExtension>
        </extensions>
      </trkpt>
      <trkpt lat="46.22115" lon="4.79824">
        <ele>169.10059</ele>
        <time>2026-05-13T14:04:22+02:00</time>
        <extensions>
          <gpxtpx:TrackPointExtension xmlns:gpxtpx="http://www.garmin.com/xmlschemas/TrackPointExtension/v1">
            <gpxtpx:hr>177</gpxtpx:hr>
          </gpxtpx:TrackPointExtension>
        </extensions>
      </trkpt>
      <trkpt lat="46.22121" lon="4.79827">
        <ele>169</ele>
        <time>2026-05-13T14:04:23+02:00</time>
        <extensions>
          <gpxtpx:TrackPointExtension xmlns:gpxtpx="http://www.garmin.com/xmlschemas/TrackPointExtension/v1">
            <gpxtpx:hr>177</gpxtpx:hr>
          </gpxtpx:TrackPointExtension>
        </extensions>
      </trkpt>
      <trkpt lat="46.22127" lon="4.7983">
        <ele>169.2002</ele>
        <time>2026-05-13T14:04:24+02:00</time>
        <extensions>
          <gpxtpx:TrackPointExtension xmlns:gpxtpx="http://www.garmin.com/xmlschemas/TrackPointExtension/v1">
            <gpxtpx:hr>176</gpxtpx:hr>
          </gpxtpx:TrackPointExtension>
        </extensions>
      </trkpt>
      <trkpt lat="46.22131" lon="4.79834">
        <ele>169.2002</ele>
        <time>2026-05-13T14:04:25+02:00</time>
        <extensions>
          <gpxtpx:TrackPointExtension xmlns:gpxtpx="http://www.garmin.com/xmlschemas/TrackPointExtension/v1">
            <gpxtpx:hr>176</gpxtpx:hr>
          </gpxtpx:TrackPointExtension>
        </extensions>
      </trkpt>
      <trkpt lat="46.22137" lon="4.79837">
        <ele>169.60059</ele>
        <time>2026-05-13T14:04:26+02:00</time>
        <extensions>
          <gpxtpx:TrackPointExtension xmlns:gpxtpx="http://www.garmin.com/xmlschemas/TrackPointExtension/v1">
            <gpxtpx:hr>176</gpxtpx:hr>
          </gpxtpx:TrackPointExtension>
        </extensions>
      </trkpt>
      <trkpt lat="46.22142" lon="4.7984">
        <ele>169.60059</ele>
        <time>2026-05-13T14:04:27+02:00</time>
        <extensions>
          <gpxtpx:TrackPointExtension xmlns:gpxtpx="http://www.garmin.com/xmlschemas/TrackPointExtension/v1">
            <gpxtpx:hr>176</gpxtpx:hr>
          </gpxtpx:TrackPointExtension>
        </extensions>
      </trkpt>
      <trkpt lat="46.22147" lon="4.79843">
        <ele>169.60059</ele>
        <time>2026-05-13T14:04:28+02:00</time>
        <extensions>
          <gpxtpx:TrackPointExtension xmlns:gpxtpx="http://www.garmin.com/xmlschemas/TrackPointExtension/v1">
            <gpxtpx:hr>175</gpxtpx:hr>
          </gpxtpx:TrackPointExtension>
        </extensions>
      </trkpt>
      <trkpt lat="46.22152" lon="4.79846">
        <ele>170</ele>
        <time>2026-05-13T14:04:29+02:00</time>
        <extensions>
          <gpxtpx:TrackPointExtension xmlns:gpxtpx="http://www.garmin.com/xmlschemas/TrackPointExtension/v1">
            <gpxtpx:hr>174</gpxtpx:hr>
          </gpxtpx:TrackPointExtension>
        </extensions>
      </trkpt>
      <trkpt lat="46.22157" lon="4.79849">
        <ele>169.90039</ele>
        <time>2026-05-13T14:04:30+02:00</time>
        <extensions>
          <gpxtpx:TrackPointExtension xmlns:gpxtpx="http://www.garmin.com/xmlschemas/TrackPointExtension/v1">
            <gpxtpx:hr>174</gpxtpx:hr>
          </gpxtpx:TrackPointExtension>
        </extensions>
      </trkpt>
      <trkpt lat="46.22163" lon="4.79852">
        <ele>169.5</ele>
        <time>2026-05-13T14:04:31+02:00</time>
        <extensions>
          <gpxtpx:TrackPointExtension xmlns:gpxtpx="http://www.garmin.com/xmlschemas/TrackPointExtension/v1">
            <gpxtpx:hr>174</gpxtpx:hr>
          </gpxtpx:TrackPointExtension>
        </extensions>
      </trkpt>
      <trkpt lat="46.22167" lon="4.79854">
        <ele>169.2002</ele>
        <time>2026-05-13T14:04:32+02:00</time>
        <extensions>
          <gpxtpx:TrackPointExtension xmlns:gpxtpx="http://www.garmin.com/xmlschemas/TrackPointExtension/v1">
            <gpxtpx:hr>173</gpxtpx:hr>
          </gpxtpx:TrackPointExtension>
        </extensions>
      </trkpt>
      <trkpt lat="46.22172" lon="4.79857">
        <ele>168.90039</ele>
        <time>2026-05-13T14:04:33+02:00</time>
        <extensions>
          <gpxtpx:TrackPointExtension xmlns:gpxtpx="http://www.garmin.com/xmlschemas/TrackPointExtension/v1">
            <gpxtpx:hr>173</gpxtpx:hr>
          </gpxtpx:TrackPointExtension>
        </extensions>
      </trkpt>
      <trkpt lat="46.22177" lon="4.7986">
        <ele>168.7998</ele>
        <time>2026-05-13T14:04:34+02:00</time>
        <extensions>
          <gpxtpx:TrackPointExtension xmlns:gpxtpx="http://www.garmin.com/xmlschemas/TrackPointExtension/v1">
            <gpxtpx:hr>173</gpxtpx:hr>
          </gpxtpx:TrackPointExtension>
        </extensions>
      </trkpt>
      <trkpt lat="46.22182" lon="4.79862">
        <ele>168.7998</ele>
        <time>2026-05-13T14:04:35+02:00</time>
        <extensions>
          <gpxtpx:TrackPointExtension xmlns:gpxtpx="http://www.garmin.com/xmlschemas/TrackPointExtension/v1">
            <gpxtpx:hr>173</gpxtpx:hr>
          </gpxtpx:TrackPointExtension>
        </extensions>
      </trkpt>
      <trkpt lat="46.22187" lon="4.79865">
        <ele>168.90039</ele>
        <time>2026-05-13T14:04:36+02:00</time>
        <extensions>
          <gpxtpx:TrackPointExtension xmlns:gpxtpx="http://www.garmin.com/xmlschemas/TrackPointExtension/v1">
            <gpxtpx:hr>172</gpxtpx:hr>
          </gpxtpx:TrackPointExtension>
        </extensions>
      </trkpt>
      <trkpt lat="46.22193" lon="4.79867">
        <ele>168.7998</ele>
        <time>2026-05-13T14:04:37+02:00</time>
        <extensions>
          <gpxtpx:TrackPointExtension xmlns:gpxtpx="http://www.garmin.com/xmlschemas/TrackPointExtension/v1">
            <gpxtpx:hr>172</gpxtpx:hr>
          </gpxtpx:TrackPointExtension>
        </extensions>
      </trkpt>
      <trkpt lat="46.22198" lon="4.7987">
        <ele>168.7998</ele>
        <time>2026-05-13T14:04:38+02:00</time>
        <extensions>
          <gpxtpx:TrackPointExtension xmlns:gpxtpx="http://www.garmin.com/xmlschemas/TrackPointExtension/v1">
            <gpxtpx:hr>171</gpxtpx:hr>
          </gpxtpx:TrackPointExtension>
        </extensions>
      </trkpt>
      <trkpt lat="46.22203" lon="4.79873">
        <ele>168.90039</ele>
        <time>2026-05-13T14:04:39+02:00</time>
        <extensions>
          <gpxtpx:TrackPointExtension xmlns:gpxtpx="http://www.garmin.com/xmlschemas/TrackPointExtension/v1">
            <gpxtpx:hr>172</gpxtpx:hr>
          </gpxtpx:TrackPointExtension>
        </extensions>
      </trkpt>
      <trkpt lat="46.22208" lon="4.79876">
        <ele>168.7002</ele>
        <time>2026-05-13T14:04:40+02:00</time>
        <extensions>
          <gpxtpx:TrackPointExtension xmlns:gpxtpx="http://www.garmin.com/xmlschemas/TrackPointExtension/v1">
            <gpxtpx:hr>172</gpxtpx:hr>
          </gpxtpx:TrackPointExtension>
        </extensions>
      </trkpt>
      <trkpt lat="46.22213" lon="4.79879">
        <ele>168.60059</ele>
        <time>2026-05-13T14:04:41+02:00</time>
        <extensions>
          <gpxtpx:TrackPointExtension xmlns:gpxtpx="http://www.garmin.com/xmlschemas/TrackPointExtension/v1">
            <gpxtpx:hr>172</gpxtpx:hr>
          </gpxtpx:TrackPointExtension>
        </extensions>
      </trkpt>
      <trkpt lat="46.22218" lon="4.79881">
        <ele>168.7002</ele>
        <time>2026-05-13T14:04:42+02:00</time>
        <extensions>
          <gpxtpx:TrackPointExtension xmlns:gpxtpx="http://www.garmin.com/xmlschemas/TrackPointExtension/v1">
            <gpxtpx:hr>171</gpxtpx:hr>
          </gpxtpx:TrackPointExtension>
        </extensions>
      </trkpt>
      <trkpt lat="46.22224" lon="4.79884">
        <ele>168.60059</ele>
        <time>2026-05-13T14:04:43+02:00</time>
        <extensions>
          <gpxtpx:TrackPointExtension xmlns:gpxtpx="http://www.garmin.com/xmlschemas/TrackPointExtension/v1">
            <gpxtpx:hr>171</gpxtpx:hr>
          </gpxtpx:TrackPointExtension>
        </extensions>
      </trkpt>
      <trkpt lat="46.22229" lon="4.79887">
        <ele>168.5</ele>
        <time>2026-05-13T14:04:44+02:00</time>
        <extensions>
          <gpxtpx:TrackPointExtension xmlns:gpxtpx="http://www.garmin.com/xmlschemas/TrackPointExtension/v1">
            <gpxtpx:hr>172</gpxtpx:hr>
          </gpxtpx:TrackPointExtension>
        </extensions>
      </trkpt>
      <trkpt lat="46.22234" lon="4.7989">
        <ele>168.7002</ele>
        <time>2026-05-13T14:04:45+02:00</time>
        <extensions>
          <gpxtpx:TrackPointExtension xmlns:gpxtpx="http://www.garmin.com/xmlschemas/TrackPointExtension/v1">
            <gpxtpx:hr>171</gpxtpx:hr>
          </gpxtpx:TrackPointExtension>
        </extensions>
      </trkpt>
      <trkpt lat="46.22239" lon="4.79893">
        <ele>168.7002</ele>
        <time>2026-05-13T14:04:46+02:00</time>
        <extensions>
          <gpxtpx:TrackPointExtension xmlns:gpxtpx="http://www.garmin.com/xmlschemas/TrackPointExtension/v1">
            <gpxtpx:hr>171</gpxtpx:hr>
          </gpxtpx:TrackPointExtension>
        </extensions>
      </trkpt>
      <trkpt lat="46.22244" lon="4.79896">
        <ele>168.7002</ele>
        <time>2026-05-13T14:04:47+02:00</time>
        <extensions>
          <gpxtpx:TrackPointExtension xmlns:gpxtpx="http://www.garmin.com/xmlschemas/TrackPointExtension/v1">
            <gpxtpx:hr>171</gpxtpx:hr>
          </gpxtpx:TrackPointExtension>
        </extensions>
      </trkpt>
      <trkpt lat="46.2225" lon="4.79899">
        <ele>168.90039</ele>
        <time>2026-05-13T14:04:48+02:00</time>
        <extensions>
          <gpxtpx:TrackPointExtension xmlns:gpxtpx="http://www.garmin.com/xmlschemas/TrackPointExtension/v1">
            <gpxtpx:hr>171</gpxtpx:hr>
          </gpxtpx:TrackPointExtension>
        </extensions>
      </trkpt>
      <trkpt lat="46.22255" lon="4.799">
        <ele>168.7998</ele>
        <time>2026-05-13T14:04:49+02:00</time>
        <extensions>
          <gpxtpx:TrackPointExtension xmlns:gpxtpx="http://www.garmin.com/xmlschemas/TrackPointExtension/v1">
            <gpxtpx:hr>171</gpxtpx:hr>
          </gpxtpx:TrackPointExtension>
        </extensions>
      </trkpt>
      <trkpt lat="46.22261" lon="4.79902">
        <ele>168.7002</ele>
        <time>2026-05-13T14:04:50+02:00</time>
        <extensions>
          <gpxtpx:TrackPointExtension xmlns:gpxtpx="http://www.garmin.com/xmlschemas/TrackPointExtension/v1">
            <gpxtpx:hr>171</gpxtpx:hr>
          </gpxtpx:TrackPointExtension>
        </extensions>
      </trkpt>
      <trkpt lat="46.22267" lon="4.79904">
        <ele>168.60059</ele>
        <time>2026-05-13T14:04:51+02:00</time>
        <extensions>
          <gpxtpx:TrackPointExtension xmlns:gpxtpx="http://www.garmin.com/xmlschemas/TrackPointExtension/v1">
            <gpxtpx:hr>171</gpxtpx:hr>
          </gpxtpx:TrackPointExtension>
        </extensions>
      </trkpt>
      <trkpt lat="46.22272" lon="4.79906">
        <ele>168.7998</ele>
        <time>2026-05-13T14:04:52+02:00</time>
        <extensions>
          <gpxtpx:TrackPointExtension xmlns:gpxtpx="http://www.garmin.com/xmlschemas/TrackPointExtension/v1">
            <gpxtpx:hr>171</gpxtpx:hr>
          </gpxtpx:TrackPointExtension>
        </extensions>
      </trkpt>
      <trkpt lat="46.22278" lon="4.79907">
        <ele>168.7998</ele>
        <time>2026-05-13T14:04:53+02:00</time>
        <extensions>
          <gpxtpx:TrackPointExtension xmlns:gpxtpx="http://www.garmin.com/xmlschemas/TrackPointExtension/v1">
            <gpxtpx:hr>171</gpxtpx:hr>
          </gpxtpx:TrackPointExtension>
        </extensions>
      </trkpt>
      <trkpt lat="46.22284" lon="4.7991">
        <ele>168.7998</ele>
        <time>2026-05-13T14:04:54+02:00</time>
        <extensions>
          <gpxtpx:TrackPointExtension xmlns:gpxtpx="http://www.garmin.com/xmlschemas/TrackPointExtension/v1">
            <gpxtpx:hr>171</gpxtpx:hr>
          </gpxtpx:TrackPointExtension>
        </extensions>
      </trkpt>
      <trkpt lat="46.22289" lon="4.79912">
        <ele>168.7998</ele>
        <time>2026-05-13T14:04:55+02:00</time>
        <extensions>
          <gpxtpx:TrackPointExtension xmlns:gpxtpx="http://www.garmin.com/xmlschemas/TrackPointExtension/v1">
            <gpxtpx:hr>171</gpxtpx:hr>
          </gpxtpx:TrackPointExtension>
        </extensions>
      </trkpt>
      <trkpt lat="46.22295" lon="4.79915">
        <ele>169.10059</ele>
        <time>2026-05-13T14:04:56+02:00</time>
        <extensions>
          <gpxtpx:TrackPointExtension xmlns:gpxtpx="http://www.garmin.com/xmlschemas/TrackPointExtension/v1">
            <gpxtpx:hr>170</gpxtpx:hr>
          </gpxtpx:TrackPointExtension>
        </extensions>
      </trkpt>
      <trkpt lat="46.223" lon="4.79918">
        <ele>169.10059</ele>
        <time>2026-05-13T14:04:57+02:00</time>
        <extensions>
          <gpxtpx:TrackPointExtension xmlns:gpxtpx="http://www.garmin.com/xmlschemas/TrackPointExtension/v1">
            <gpxtpx:hr>170</gpxtpx:hr>
          </gpxtpx:TrackPointExtension>
        </extensions>
      </trkpt>
      <trkpt lat="46.22305" lon="4.79921">
        <ele>169.2002</ele>
        <time>2026-05-13T14:04:58+02:00</time>
        <extensions>
          <gpxtpx:TrackPointExtension xmlns:gpxtpx="http://www.garmin.com/xmlschemas/TrackPointExtension/v1">
            <gpxtpx:hr>171</gpxtpx:hr>
          </gpxtpx:TrackPointExtension>
        </extensions>
      </trkpt>
      <trkpt lat="46.22311" lon="4.79924">
        <ele>169.7002</ele>
        <time>2026-05-13T14:04:59+02:00</time>
        <extensions>
          <gpxtpx:TrackPointExtension xmlns:gpxtpx="http://www.garmin.com/xmlschemas/TrackPointExtension/v1">
            <gpxtpx:hr>171</gpxtpx:hr>
          </gpxtpx:TrackPointExtension>
        </extensions>
      </trkpt>
      <trkpt lat="46.22316" lon="4.79926">
        <ele>169.7998</ele>
        <time>2026-05-13T14:05:00+02:00</time>
        <extensions>
          <gpxtpx:TrackPointExtension xmlns:gpxtpx="http://www.garmin.com/xmlschemas/TrackPointExtension/v1">
            <gpxtpx:hr>171</gpxtpx:hr>
          </gpxtpx:TrackPointExtension>
        </extensions>
      </trkpt>
      <trkpt lat="46.22321" lon="4.79929">
        <ele>169.7002</ele>
        <time>2026-05-13T14:05:01+02:00</time>
        <extensions>
          <gpxtpx:TrackPointExtension xmlns:gpxtpx="http://www.garmin.com/xmlschemas/TrackPointExtension/v1">
            <gpxtpx:hr>170</gpxtpx:hr>
          </gpxtpx:TrackPointExtension>
        </extensions>
      </trkpt>
      <trkpt lat="46.22327" lon="4.79932">
        <ele>169.90039</ele>
        <time>2026-05-13T14:05:02+02:00</time>
        <extensions>
          <gpxtpx:TrackPointExtension xmlns:gpxtpx="http://www.garmin.com/xmlschemas/TrackPointExtension/v1">
            <gpxtpx:hr>171</gpxtpx:hr>
          </gpxtpx:TrackPointExtension>
        </extensions>
      </trkpt>
      <trkpt lat="46.22332" lon="4.79934">
        <ele>169.7998</ele>
        <time>2026-05-13T14:05:03+02:00</time>
        <extensions>
          <gpxtpx:TrackPointExtension xmlns:gpxtpx="http://www.garmin.com/xmlschemas/TrackPointExtension/v1">
            <gpxtpx:hr>170</gpxtpx:hr>
          </gpxtpx:TrackPointExtension>
        </extensions>
      </trkpt>
      <trkpt lat="46.22337" lon="4.79937">
        <ele>169.7998</ele>
        <time>2026-05-13T14:05:04+02:00</time>
        <extensions>
          <gpxtpx:TrackPointExtension xmlns:gpxtpx="http://www.garmin.com/xmlschemas/TrackPointExtension/v1">
            <gpxtpx:hr>170</gpxtpx:hr>
          </gpxtpx:TrackPointExtension>
        </extensions>
      </trkpt>
      <trkpt lat="46.22343" lon="4.7994">
        <ele>169.7998</ele>
        <time>2026-05-13T14:05:05+02:00</time>
        <extensions>
          <gpxtpx:TrackPointExtension xmlns:gpxtpx="http://www.garmin.com/xmlschemas/TrackPointExtension/v1">
            <gpxtpx:hr>170</gpxtpx:hr>
          </gpxtpx:TrackPointExtension>
        </extensions>
      </trkpt>
      <trkpt lat="46.22348" lon="4.79943">
        <ele>169.60059</ele>
        <time>2026-05-13T14:05:06+02:00</time>
        <extensions>
          <gpxtpx:TrackPointExtension xmlns:gpxtpx="http://www.garmin.com/xmlschemas/TrackPointExtension/v1">
            <gpxtpx:hr>170</gpxtpx:hr>
          </gpxtpx:TrackPointExtension>
        </extensions>
      </trkpt>
      <trkpt lat="46.22353" lon="4.79945">
        <ele>169.40039</ele>
        <time>2026-05-13T14:05:07+02:00</time>
        <extensions>
          <gpxtpx:TrackPointExtension xmlns:gpxtpx="http://www.garmin.com/xmlschemas/TrackPointExtension/v1">
            <gpxtpx:hr>169</gpxtpx:hr>
          </gpxtpx:TrackPointExtension>
        </extensions>
      </trkpt>
      <trkpt lat="46.22358" lon="4.79948">
        <ele>169.2998</ele>
        <time>2026-05-13T14:05:08+02:00</time>
        <extensions>
          <gpxtpx:TrackPointExtension xmlns:gpxtpx="http://www.garmin.com/xmlschemas/TrackPointExtension/v1">
            <gpxtpx:hr>169</gpxtpx:hr>
          </gpxtpx:TrackPointExtension>
        </extensions>
      </trkpt>
      <trkpt lat="46.22364" lon="4.7995">
        <ele>169.60059</ele>
        <time>2026-05-13T14:05:09+02:00</time>
        <extensions>
          <gpxtpx:TrackPointExtension xmlns:gpxtpx="http://www.garmin.com/xmlschemas/TrackPointExtension/v1">
            <gpxtpx:hr>169</gpxtpx:hr>
          </gpxtpx:TrackPointExtension>
        </extensions>
      </trkpt>
      <trkpt lat="46.22369" lon="4.79953">
        <ele>169.5</ele>
        <time>2026-05-13T14:05:10+02:00</time>
        <extensions>
          <gpxtpx:TrackPointExtension xmlns:gpxtpx="http://www.garmin.com/xmlschemas/TrackPointExtension/v1">
            <gpxtpx:hr>170</gpxtpx:hr>
          </gpxtpx:TrackPointExtension>
        </extensions>
      </trkpt>
      <trkpt lat="46.22374" lon="4.79956">
        <ele>169.5</ele>
        <time>2026-05-13T14:05:11+02:00</time>
        <extensions>
          <gpxtpx:TrackPointExtension xmlns:gpxtpx="http://www.garmin.com/xmlschemas/TrackPointExtension/v1">
            <gpxtpx:hr>170</gpxtpx:hr>
          </gpxtpx:TrackPointExtension>
        </extensions>
      </trkpt>
      <trkpt lat="46.22379" lon="4.79958">
        <ele>169.7998</ele>
        <time>2026-05-13T14:05:12+02:00</time>
        <extensions>
          <gpxtpx:TrackPointExtension xmlns:gpxtpx="http://www.garmin.com/xmlschemas/TrackPointExtension/v1">
            <gpxtpx:hr>169</gpxtpx:hr>
          </gpxtpx:TrackPointExtension>
        </extensions>
      </trkpt>
      <trkpt lat="46.22384" lon="4.79961">
        <ele>169.7998</ele>
        <time>2026-05-13T14:05:13+02:00</time>
        <extensions>
          <gpxtpx:TrackPointExtension xmlns:gpxtpx="http://www.garmin.com/xmlschemas/TrackPointExtension/v1">
            <gpxtpx:hr>169</gpxtpx:hr>
          </gpxtpx:TrackPointExtension>
        </extensions>
      </trkpt>
      <trkpt lat="46.2239" lon="4.79963">
        <ele>169.7998</ele>
        <time>2026-05-13T14:05:14+02:00</time>
        <extensions>
          <gpxtpx:TrackPointExtension xmlns:gpxtpx="http://www.garmin.com/xmlschemas/TrackPointExtension/v1">
            <gpxtpx:hr>169</gpxtpx:hr>
          </gpxtpx:TrackPointExtension>
        </extensions>
      </trkpt>
      <trkpt lat="46.22395" lon="4.79965">
        <ele>169.7998</ele>
        <time>2026-05-13T14:05:15+02:00</time>
        <extensions>
          <gpxtpx:TrackPointExtension xmlns:gpxtpx="http://www.garmin.com/xmlschemas/TrackPointExtension/v1">
            <gpxtpx:hr>170</gpxtpx:hr>
          </gpxtpx:TrackPointExtension>
        </extensions>
      </trkpt>
      <trkpt lat="46.224" lon="4.79968">
        <ele>170.10059</ele>
        <time>2026-05-13T14:05:16+02:00</time>
        <extensions>
          <gpxtpx:TrackPointExtension xmlns:gpxtpx="http://www.garmin.com/xmlschemas/TrackPointExtension/v1">
            <gpxtpx:hr>169</gpxtpx:hr>
          </gpxtpx:TrackPointExtension>
        </extensions>
      </trkpt>
      <trkpt lat="46.22405" lon="4.7997">
        <ele>170</ele>
        <time>2026-05-13T14:05:17+02:00</time>
        <extensions>
          <gpxtpx:TrackPointExtension xmlns:gpxtpx="http://www.garmin.com/xmlschemas/TrackPointExtension/v1">
            <gpxtpx:hr>170</gpxtpx:hr>
          </gpxtpx:TrackPointExtension>
        </extensions>
      </trkpt>
      <trkpt lat="46.22411" lon="4.79973">
        <ele>170</ele>
        <time>2026-05-13T14:05:18+02:00</time>
        <extensions>
          <gpxtpx:TrackPointExtension xmlns:gpxtpx="http://www.garmin.com/xmlschemas/TrackPointExtension/v1">
            <gpxtpx:hr>169</gpxtpx:hr>
          </gpxtpx:TrackPointExtension>
        </extensions>
      </trkpt>
      <trkpt lat="46.22416" lon="4.79976">
        <ele>170.2002</ele>
        <time>2026-05-13T14:05:19+02:00</time>
        <extensions>
          <gpxtpx:TrackPointExtension xmlns:gpxtpx="http://www.garmin.com/xmlschemas/TrackPointExtension/v1">
            <gpxtpx:hr>170</gpxtpx:hr>
          </gpxtpx:TrackPointExtension>
        </extensions>
      </trkpt>
      <trkpt lat="46.22421" lon="4.79978">
        <ele>170.2002</ele>
        <time>2026-05-13T14:05:20+02:00</time>
        <extensions>
          <gpxtpx:TrackPointExtension xmlns:gpxtpx="http://www.garmin.com/xmlschemas/TrackPointExtension/v1">
            <gpxtpx:hr>169</gpxtpx:hr>
          </gpxtpx:TrackPointExtension>
        </extensions>
      </trkpt>
      <trkpt lat="46.22426" lon="4.79981">
        <ele>170.2002</ele>
        <time>2026-05-13T14:05:21+02:00</time>
        <extensions>
          <gpxtpx:TrackPointExtension xmlns:gpxtpx="http://www.garmin.com/xmlschemas/TrackPointExtension/v1">
            <gpxtpx:hr>169</gpxtpx:hr>
          </gpxtpx:TrackPointExtension>
        </extensions>
      </trkpt>
      <trkpt lat="46.22431" lon="4.79983">
        <ele>170.60059</ele>
        <time>2026-05-13T14:05:22+02:00</time>
        <extensions>
          <gpxtpx:TrackPointExtension xmlns:gpxtpx="http://www.garmin.com/xmlschemas/TrackPointExtension/v1">
            <gpxtpx:hr>170</gpxtpx:hr>
          </gpxtpx:TrackPointExtension>
        </extensions>
      </trkpt>
      <trkpt lat="46.22436" lon="4.79985">
        <ele>170.5</ele>
        <time>2026-05-13T14:05:23+02:00</time>
        <extensions>
          <gpxtpx:TrackPointExtension xmlns:gpxtpx="http://www.garmin.com/xmlschemas/TrackPointExtension/v1">
            <gpxtpx:hr>169</gpxtpx:hr>
          </gpxtpx:TrackPointExtension>
        </extensions>
      </trkpt>
      <trkpt lat="46.22441" lon="4.79988">
        <ele>170.5</ele>
        <time>2026-05-13T14:05:24+02:00</time>
        <extensions>
          <gpxtpx:TrackPointExtension xmlns:gpxtpx="http://www.garmin.com/xmlschemas/TrackPointExtension/v1">
            <gpxtpx:hr>169</gpxtpx:hr>
          </gpxtpx:TrackPointExtension>
        </extensions>
      </trkpt>
      <trkpt lat="46.22447" lon="4.7999">
        <ele>170.5</ele>
        <time>2026-05-13T14:05:25+02:00</time>
        <extensions>
          <gpxtpx:TrackPointExtension xmlns:gpxtpx="http://www.garmin.com/xmlschemas/TrackPointExtension/v1">
            <gpxtpx:hr>169</gpxtpx:hr>
          </gpxtpx:TrackPointExtension>
        </extensions>
      </trkpt>
      <trkpt lat="46.22452" lon="4.79992">
        <ele>170.7002</ele>
        <time>2026-05-13T14:05:26+02:00</time>
        <extensions>
          <gpxtpx:TrackPointExtension xmlns:gpxtpx="http://www.garmin.com/xmlschemas/TrackPointExtension/v1">
            <gpxtpx:hr>169</gpxtpx:hr>
          </gpxtpx:TrackPointExtension>
        </extensions>
      </trkpt>
      <trkpt lat="46.22457" lon="4.79994">
        <ele>170.60059</ele>
        <time>2026-05-13T14:05:27+02:00</time>
        <extensions>
          <gpxtpx:TrackPointExtension xmlns:gpxtpx="http://www.garmin.com/xmlschemas/TrackPointExtension/v1">
            <gpxtpx:hr>169</gpxtpx:hr>
          </gpxtpx:TrackPointExtension>
        </extensions>
      </trkpt>
      <trkpt lat="46.22463" lon="4.79997">
        <ele>170.5</ele>
        <time>2026-05-13T14:05:28+02:00</time>
        <extensions>
          <gpxtpx:TrackPointExtension xmlns:gpxtpx="http://www.garmin.com/xmlschemas/TrackPointExtension/v1">
            <gpxtpx:hr>168</gpxtpx:hr>
          </gpxtpx:TrackPointExtension>
        </extensions>
      </trkpt>
      <trkpt lat="46.22468" lon="4.79999">
        <ele>170.40039</ele>
        <time>2026-05-13T14:05:29+02:00</time>
        <extensions>
          <gpxtpx:TrackPointExtension xmlns:gpxtpx="http://www.garmin.com/xmlschemas/TrackPointExtension/v1">
            <gpxtpx:hr>168</gpxtpx:hr>
          </gpxtpx:TrackPointExtension>
        </extensions>
      </trkpt>
      <trkpt lat="46.22473" lon="4.80001">
        <ele>170.7002</ele>
        <time>2026-05-13T14:05:30+02:00</time>
        <extensions>
          <gpxtpx:TrackPointExtension xmlns:gpxtpx="http://www.garmin.com/xmlschemas/TrackPointExtension/v1">
            <gpxtpx:hr>167</gpxtpx:hr>
          </gpxtpx:TrackPointExtension>
        </extensions>
      </trkpt>
      <trkpt lat="46.22478" lon="4.80004">
        <ele>170.60059</ele>
        <time>2026-05-13T14:05:31+02:00</time>
        <extensions>
          <gpxtpx:TrackPointExtension xmlns:gpxtpx="http://www.garmin.com/xmlschemas/TrackPointExtension/v1">
            <gpxtpx:hr>166</gpxtpx:hr>
          </gpxtpx:TrackPointExtension>
        </extensions>
      </trkpt>
      <trkpt lat="46.22484" lon="4.80006">
        <ele>170.5</ele>
        <time>2026-05-13T14:05:32+02:00</time>
        <extensions>
          <gpxtpx:TrackPointExtension xmlns:gpxtpx="http://www.garmin.com/xmlschemas/TrackPointExtension/v1">
            <gpxtpx:hr>165</gpxtpx:hr>
          </gpxtpx:TrackPointExtension>
        </extensions>
      </trkpt>
      <trkpt lat="46.22489" lon="4.80008">
        <ele>170.40039</ele>
        <time>2026-05-13T14:05:33+02:00</time>
        <extensions>
          <gpxtpx:TrackPointExtension xmlns:gpxtpx="http://www.garmin.com/xmlschemas/TrackPointExtension/v1">
            <gpxtpx:hr>165</gpxtpx:hr>
          </gpxtpx:TrackPointExtension>
        </extensions>
      </trkpt>
      <trkpt lat="46.22494" lon="4.8001">
        <ele>170.60059</ele>
        <time>2026-05-13T14:05:34+02:00</time>
        <extensions>
          <gpxtpx:TrackPointExtension xmlns:gpxtpx="http://www.garmin.com/xmlschemas/TrackPointExtension/v1">
            <gpxtpx:hr>166</gpxtpx:hr>
          </gpxtpx:TrackPointExtension>
        </extensions>
      </trkpt>
      <trkpt lat="46.225" lon="4.80013">
        <ele>170.5</ele>
        <time>2026-05-13T14:05:35+02:00</time>
        <extensions>
          <gpxtpx:TrackPointExtension xmlns:gpxtpx="http://www.garmin.com/xmlschemas/TrackPointExtension/v1">
            <gpxtpx:hr>165</gpxtpx:hr>
          </gpxtpx:TrackPointExtension>
        </extensions>
      </trkpt>
      <trkpt lat="46.22506" lon="4.80015">
        <ele>170.2998</ele>
        <time>2026-05-13T14:05:36+02:00</time>
        <extensions>
          <gpxtpx:TrackPointExtension xmlns:gpxtpx="http://www.garmin.com/xmlschemas/TrackPointExtension/v1">
            <gpxtpx:hr>165</gpxtpx:hr>
          </gpxtpx:TrackPointExtension>
        </extensions>
      </trkpt>
      <trkpt lat="46.22511" lon="4.80018">
        <ele>170.2998</ele>
        <time>2026-05-13T14:05:37+02:00</time>
        <extensions>
          <gpxtpx:TrackPointExtension xmlns:gpxtpx="http://www.garmin.com/xmlschemas/TrackPointExtension/v1">
            <gpxtpx:hr>166</gpxtpx:hr>
          </gpxtpx:TrackPointExtension>
        </extensions>
      </trkpt>
      <trkpt lat="46.22517" lon="4.8002">
        <ele>170.10059</ele>
        <time>2026-05-13T14:05:38+02:00</time>
        <extensions>
          <gpxtpx:TrackPointExtension xmlns:gpxtpx="http://www.garmin.com/xmlschemas/TrackPointExtension/v1">
            <gpxtpx:hr>166</gpxtpx:hr>
          </gpxtpx:TrackPointExtension>
        </extensions>
      </trkpt>
      <trkpt lat="46.22523" lon="4.80023">
        <ele>169.90039</ele>
        <time>2026-05-13T14:05:39+02:00</time>
        <extensions>
          <gpxtpx:TrackPointExtension xmlns:gpxtpx="http://www.garmin.com/xmlschemas/TrackPointExtension/v1">
            <gpxtpx:hr>166</gpxtpx:hr>
          </gpxtpx:TrackPointExtension>
        </extensions>
      </trkpt>
      <trkpt lat="46.22529" lon="4.80025">
        <ele>169.7002</ele>
        <time>2026-05-13T14:05:40+02:00</time>
        <extensions>
          <gpxtpx:TrackPointExtension xmlns:gpxtpx="http://www.garmin.com/xmlschemas/TrackPointExtension/v1">
            <gpxtpx:hr>166</gpxtpx:hr>
          </gpxtpx:TrackPointExtension>
        </extensions>
      </trkpt>
      <trkpt lat="46.22535" lon="4.80027">
        <ele>169.7998</ele>
        <time>2026-05-13T14:05:41+02:00</time>
        <extensions>
          <gpxtpx:TrackPointExtension xmlns:gpxtpx="http://www.garmin.com/xmlschemas/TrackPointExtension/v1">
            <gpxtpx:hr>166</gpxtpx:hr>
          </gpxtpx:TrackPointExtension>
        </extensions>
      </trkpt>
      <trkpt lat="46.22541" lon="4.80029">
        <ele>169.60059</ele>
        <time>2026-05-13T14:05:42+02:00</time>
        <extensions>
          <gpxtpx:TrackPointExtension xmlns:gpxtpx="http://www.garmin.com/xmlschemas/TrackPointExtension/v1">
            <gpxtpx:hr>167</gpxtpx:hr>
          </gpxtpx:TrackPointExtension>
        </extensions>
      </trkpt>
      <trkpt lat="46.22547" lon="4.80031">
        <ele>169.40039</ele>
        <time>2026-05-13T14:05:43+02:00</time>
        <extensions>
          <gpxtpx:TrackPointExtension xmlns:gpxtpx="http://www.garmin.com/xmlschemas/TrackPointExtension/v1">
            <gpxtpx:hr>167</gpxtpx:hr>
          </gpxtpx:TrackPointExtension>
        </extensions>
      </trkpt>
      <trkpt lat="46.22554" lon="4.80033">
        <ele>169.2998</ele>
        <time>2026-05-13T14:05:44+02:00</time>
        <extensions>
          <gpxtpx:TrackPointExtension xmlns:gpxtpx="http://www.garmin.com/xmlschemas/TrackPointExtension/v1">
            <gpxtpx:hr>166</gpxtpx:hr>
          </gpxtpx:TrackPointExtension>
        </extensions>
      </trkpt>
      <trkpt lat="46.22559" lon="4.80036">
        <ele>169.40039</ele>
        <time>2026-05-13T14:05:45+02:00</time>
        <extensions>
          <gpxtpx:TrackPointExtension xmlns:gpxtpx="http://www.garmin.com/xmlschemas/TrackPointExtension/v1">
            <gpxtpx:hr>167</gpxtpx:hr>
          </gpxtpx:TrackPointExtension>
        </extensions>
      </trkpt>
      <trkpt lat="46.22566" lon="4.80038">
        <ele>169.2998</ele>
        <time>2026-05-13T14:05:46+02:00</time>
        <extensions>
          <gpxtpx:TrackPointExtension xmlns:gpxtpx="http://www.garmin.com/xmlschemas/TrackPointExtension/v1">
            <gpxtpx:hr>168</gpxtpx:hr>
          </gpxtpx:TrackPointExtension>
        </extensions>
      </trkpt>
      <trkpt lat="46.22571" lon="4.8004">
        <ele>169.2998</ele>
        <time>2026-05-13T14:05:47+02:00</time>
        <extensions>
          <gpxtpx:TrackPointExtension xmlns:gpxtpx="http://www.garmin.com/xmlschemas/TrackPointExtension/v1">
            <gpxtpx:hr>167</gpxtpx:hr>
          </gpxtpx:TrackPointExtension>
        </extensions>
      </trkpt>
      <trkpt lat="46.22577" lon="4.80042">
        <ele>169.2002</ele>
        <time>2026-05-13T14:05:48+02:00</time>
        <extensions>
          <gpxtpx:TrackPointExtension xmlns:gpxtpx="http://www.garmin.com/xmlschemas/TrackPointExtension/v1">
            <gpxtpx:hr>167</gpxtpx:hr>
          </gpxtpx:TrackPointExtension>
        </extensions>
      </trkpt>
      <trkpt lat="46.22583" lon="4.80044">
        <ele>169.40039</ele>
        <time>2026-05-13T14:05:49+02:00</time>
        <extensions>
          <gpxtpx:TrackPointExtension xmlns:gpxtpx="http://www.garmin.com/xmlschemas/TrackPointExtension/v1">
            <gpxtpx:hr>166</gpxtpx:hr>
          </gpxtpx:TrackPointExtension>
        </extensions>
      </trkpt>
      <trkpt lat="46.22589" lon="4.80047">
        <ele>169.40039</ele>
        <time>2026-05-13T14:05:50+02:00</time>
        <extensions>
          <gpxtpx:TrackPointExtension xmlns:gpxtpx="http://www.garmin.com/xmlschemas/TrackPointExtension/v1">
            <gpxtpx:hr>166</gpxtpx:hr>
          </gpxtpx:TrackPointExtension>
        </extensions>
      </trkpt>
      <trkpt lat="46.22595" lon="4.80049">
        <ele>169.2998</ele>
        <time>2026-05-13T14:05:51+02:00</time>
        <extensions>
          <gpxtpx:TrackPointExtension xmlns:gpxtpx="http://www.garmin.com/xmlschemas/TrackPointExtension/v1">
            <gpxtpx:hr>166</gpxtpx:hr>
          </gpxtpx:TrackPointExtension>
        </extensions>
      </trkpt>
      <trkpt lat="46.226" lon="4.80051">
        <ele>169.2998</ele>
        <time>2026-05-13T14:05:52+02:00</time>
        <extensions>
          <gpxtpx:TrackPointExtension xmlns:gpxtpx="http://www.garmin.com/xmlschemas/TrackPointExtension/v1">
            <gpxtpx:hr>167</gpxtpx:hr>
          </gpxtpx:TrackPointExtension>
        </extensions>
      </trkpt>
      <trkpt lat="46.22606" lon="4.80054">
        <ele>169.60059</ele>
        <time>2026-05-13T14:05:53+02:00</time>
        <extensions>
          <gpxtpx:TrackPointExtension xmlns:gpxtpx="http://www.garmin.com/xmlschemas/TrackPointExtension/v1">
            <gpxtpx:hr>167</gpxtpx:hr>
          </gpxtpx:TrackPointExtension>
        </extensions>
      </trkpt>
      <trkpt lat="46.22612" lon="4.80056">
        <ele>169.5</ele>
        <time>2026-05-13T14:05:54+02:00</time>
        <extensions>
          <gpxtpx:TrackPointExtension xmlns:gpxtpx="http://www.garmin.com/xmlschemas/TrackPointExtension/v1">
            <gpxtpx:hr>166</gpxtpx:hr>
          </gpxtpx:TrackPointExtension>
        </extensions>
      </trkpt>
      <trkpt lat="46.22617" lon="4.80059">
        <ele>169.40039</ele>
        <time>2026-05-13T14:05:55+02:00</time>
        <extensions>
          <gpxtpx:TrackPointExtension xmlns:gpxtpx="http://www.garmin.com/xmlschemas/TrackPointExtension/v1">
            <gpxtpx:hr>166</gpxtpx:hr>
          </gpxtpx:TrackPointExtension>
        </extensions>
      </trkpt>
      <trkpt lat="46.22623" lon="4.80061">
        <ele>169.7002</ele>
        <time>2026-05-13T14:05:56+02:00</time>
        <extensions>
          <gpxtpx:TrackPointExtension xmlns:gpxtpx="http://www.garmin.com/xmlschemas/TrackPointExtension/v1">
            <gpxtpx:hr>165</gpxtpx:hr>
          </gpxtpx:TrackPointExtension>
        </extensions>
      </trkpt>
      <trkpt lat="46.22629" lon="4.80064">
        <ele>169.7002</ele>
        <time>2026-05-13T14:05:57+02:00</time>
        <extensions>
          <gpxtpx:TrackPointExtension xmlns:gpxtpx="http://www.garmin.com/xmlschemas/TrackPointExtension/v1">
            <gpxtpx:hr>165</gpxtpx:hr>
          </gpxtpx:TrackPointExtension>
        </extensions>
      </trkpt>
      <trkpt lat="46.22634" lon="4.80066">
        <ele>169.7002</ele>
        <time>2026-05-13T14:05:58+02:00</time>
        <extensions>
          <gpxtpx:TrackPointExtension xmlns:gpxtpx="http://www.garmin.com/xmlschemas/TrackPointExtension/v1">
            <gpxtpx:hr>164</gpxtpx:hr>
          </gpxtpx:TrackPointExtension>
        </extensions>
      </trkpt>
      <trkpt lat="46.2264" lon="4.80069">
        <ele>170</ele>
        <time>2026-05-13T14:05:59+02:00</time>
        <extensions>
          <gpxtpx:TrackPointExtension xmlns:gpxtpx="http://www.garmin.com/xmlschemas/TrackPointExtension/v1">
            <gpxtpx:hr>164</gpxtpx:hr>
          </gpxtpx:TrackPointExtension>
        </extensions>
      </trkpt>
      <trkpt lat="46.22646" lon="4.80071">
        <ele>170</ele>
        <time>2026-05-13T14:06:00+02:00</time>
        <extensions>
          <gpxtpx:TrackPointExtension xmlns:gpxtpx="http://www.garmin.com/xmlschemas/TrackPointExtension/v1">
            <gpxtpx:hr>164</gpxtpx:hr>
          </gpxtpx:TrackPointExtension>
        </extensions>
      </trkpt>
      <trkpt lat="46.22651" lon="4.80074">
        <ele>170</ele>
        <time>2026-05-13T14:06:01+02:00</time>
        <extensions>
          <gpxtpx:TrackPointExtension xmlns:gpxtpx="http://www.garmin.com/xmlschemas/TrackPointExtension/v1">
            <gpxtpx:hr>164</gpxtpx:hr>
          </gpxtpx:TrackPointExtension>
        </extensions>
      </trkpt>
      <trkpt lat="46.22657" lon="4.80076">
        <ele>170</ele>
        <time>2026-05-13T14:06:02+02:00</time>
        <extensions>
          <gpxtpx:TrackPointExtension xmlns:gpxtpx="http://www.garmin.com/xmlschemas/TrackPointExtension/v1">
            <gpxtpx:hr>164</gpxtpx:hr>
          </gpxtpx:TrackPointExtension>
        </extensions>
      </trkpt>
      <trkpt lat="46.22662" lon="4.80078">
        <ele>170.60059</ele>
        <time>2026-05-13T14:06:03+02:00</time>
        <extensions>
          <gpxtpx:TrackPointExtension xmlns:gpxtpx="http://www.garmin.com/xmlschemas/TrackPointExtension/v1">
            <gpxtpx:hr>164</gpxtpx:hr>
          </gpxtpx:TrackPointExtension>
        </extensions>
      </trkpt>
      <trkpt lat="46.22668" lon="4.80081">
        <ele>170.60059</ele>
        <time>2026-05-13T14:06:04+02:00</time>
        <extensions>
          <gpxtpx:TrackPointExtension xmlns:gpxtpx="http://www.garmin.com/xmlschemas/TrackPointExtension/v1">
            <gpxtpx:hr>164</gpxtpx:hr>
          </gpxtpx:TrackPointExtension>
        </extensions>
      </trkpt>
      <trkpt lat="46.22674" lon="4.80083">
        <ele>170.40039</ele>
        <time>2026-05-13T14:06:05+02:00</time>
        <extensions>
          <gpxtpx:TrackPointExtension xmlns:gpxtpx="http://www.garmin.com/xmlschemas/TrackPointExtension/v1">
            <gpxtpx:hr>164</gpxtpx:hr>
          </gpxtpx:TrackPointExtension>
        </extensions>
      </trkpt>
      <trkpt lat="46.22679" lon="4.80086">
        <ele>170.90039</ele>
        <time>2026-05-13T14:06:06+02:00</time>
        <extensions>
          <gpxtpx:TrackPointExtension xmlns:gpxtpx="http://www.garmin.com/xmlschemas/TrackPointExtension/v1">
            <gpxtpx:hr>164</gpxtpx:hr>
          </gpxtpx:TrackPointExtension>
        </extensions>
      </trkpt>
      <trkpt lat="46.22685" lon="4.80089">
        <ele>170.7998</ele>
        <time>2026-05-13T14:06:07+02:00</time>
        <extensions>
          <gpxtpx:TrackPointExtension xmlns:gpxtpx="http://www.garmin.com/xmlschemas/TrackPointExtension/v1">
            <gpxtpx:hr>165</gpxtpx:hr>
          </gpxtpx:TrackPointExtension>
        </extensions>
      </trkpt>
      <trkpt lat="46.22691" lon="4.80091">
        <ele>170.7002</ele>
        <time>2026-05-13T14:06:08+02:00</time>
        <extensions>
          <gpxtpx:TrackPointExtension xmlns:gpxtpx="http://www.garmin.com/xmlschemas/TrackPointExtension/v1">
            <gpxtpx:hr>164</gpxtpx:hr>
          </gpxtpx:TrackPointExtension>
        </extensions>
      </trkpt>
      <trkpt lat="46.22696" lon="4.80094">
        <ele>171.10059</ele>
        <time>2026-05-13T14:06:09+02:00</time>
        <extensions>
          <gpxtpx:TrackPointExtension xmlns:gpxtpx="http://www.garmin.com/xmlschemas/TrackPointExtension/v1">
            <gpxtpx:hr>164</gpxtpx:hr>
          </gpxtpx:TrackPointExtension>
        </extensions>
      </trkpt>
      <trkpt lat="46.22702" lon="4.80097">
        <ele>170.90039</ele>
        <time>2026-05-13T14:06:10+02:00</time>
        <extensions>
          <gpxtpx:TrackPointExtension xmlns:gpxtpx="http://www.garmin.com/xmlschemas/TrackPointExtension/v1">
            <gpxtpx:hr>165</gpxtpx:hr>
          </gpxtpx:TrackPointExtension>
        </extensions>
      </trkpt>
      <trkpt lat="46.22708" lon="4.801">
        <ele>170.7002</ele>
        <time>2026-05-13T14:06:11+02:00</time>
        <extensions>
          <gpxtpx:TrackPointExtension xmlns:gpxtpx="http://www.garmin.com/xmlschemas/TrackPointExtension/v1">
            <gpxtpx:hr>165</gpxtpx:hr>
          </gpxtpx:TrackPointExtension>
        </extensions>
      </trkpt>
      <trkpt lat="46.22714" lon="4.80103">
        <ele>170.7998</ele>
        <time>2026-05-13T14:06:12+02:00</time>
        <extensions>
          <gpxtpx:TrackPointExtension xmlns:gpxtpx="http://www.garmin.com/xmlschemas/TrackPointExtension/v1">
            <gpxtpx:hr>165</gpxtpx:hr>
          </gpxtpx:TrackPointExtension>
        </extensions>
      </trkpt>
      <trkpt lat="46.2273" lon="4.80113">
        <ele>170.5</ele>
        <time>2026-05-13T14:06:13+02:00</time>
        <extensions>
          <gpxtpx:TrackPointExtension xmlns:gpxtpx="http://www.garmin.com/xmlschemas/TrackPointExtension/v1">
            <gpxtpx:hr>166</gpxtpx:hr>
          </gpxtpx:TrackPointExtension>
        </extensions>
      </trkpt>
      <trkpt lat="46.22736" lon="4.80117">
        <ele>170.2002</ele>
        <time>2026-05-13T14:06:14+02:00</time>
        <extensions>
          <gpxtpx:TrackPointExtension xmlns:gpxtpx="http://www.garmin.com/xmlschemas/TrackPointExtension/v1">
            <gpxtpx:hr>165</gpxtpx:hr>
          </gpxtpx:TrackPointExtension>
        </extensions>
      </trkpt>
      <trkpt lat="46.22742" lon="4.8012">
        <ele>170</ele>
        <time>2026-05-13T14:06:15+02:00</time>
        <extensions>
          <gpxtpx:TrackPointExtension xmlns:gpxtpx="http://www.garmin.com/xmlschemas/TrackPointExtension/v1">
            <gpxtpx:hr>166</gpxtpx:hr>
          </gpxtpx:TrackPointExtension>
        </extensions>
      </trkpt>
      <trkpt lat="46.22748" lon="4.80124">
        <ele>169.60059</ele>
        <time>2026-05-13T14:06:16+02:00</time>
        <extensions>
          <gpxtpx:TrackPointExtension xmlns:gpxtpx="http://www.garmin.com/xmlschemas/TrackPointExtension/v1">
            <gpxtpx:hr>165</gpxtpx:hr>
          </gpxtpx:TrackPointExtension>
        </extensions>
      </trkpt>
      <trkpt lat="46.22754" lon="4.80128">
        <ele>169.40039</ele>
        <time>2026-05-13T14:06:17+02:00</time>
        <extensions>
          <gpxtpx:TrackPointExtension xmlns:gpxtpx="http://www.garmin.com/xmlschemas/TrackPointExtension/v1">
            <gpxtpx:hr>166</gpxtpx:hr>
          </gpxtpx:TrackPointExtension>
        </extensions>
      </trkpt>
      <trkpt lat="46.22759" lon="4.80131">
        <ele>169.7002</ele>
        <time>2026-05-13T14:06:18+02:00</time>
        <extensions>
          <gpxtpx:TrackPointExtension xmlns:gpxtpx="http://www.garmin.com/xmlschemas/TrackPointExtension/v1">
            <gpxtpx:hr>166</gpxtpx:hr>
          </gpxtpx:TrackPointExtension>
        </extensions>
      </trkpt>
      <trkpt lat="46.22765" lon="4.80134">
        <ele>169.5</ele>
        <time>2026-05-13T14:06:19+02:00</time>
        <extensions>
          <gpxtpx:TrackPointExtension xmlns:gpxtpx="http://www.garmin.com/xmlschemas/TrackPointExtension/v1">
            <gpxtpx:hr>166</gpxtpx:hr>
          </gpxtpx:TrackPointExtension>
        </extensions>
      </trkpt>
      <trkpt lat="46.22771" lon="4.80138">
        <ele>169.5</ele>
        <time>2026-05-13T14:06:20+02:00</time>
        <extensions>
          <gpxtpx:TrackPointExtension xmlns:gpxtpx="http://www.garmin.com/xmlschemas/TrackPointExtension/v1">
            <gpxtpx:hr>166</gpxtpx:hr>
          </gpxtpx:TrackPointExtension>
        </extensions>
      </trkpt>
      <trkpt lat="46.22777" lon="4.80141">
        <ele>169.40039</ele>
        <time>2026-05-13T14:06:21+02:00</time>
        <extensions>
          <gpxtpx:TrackPointExtension xmlns:gpxtpx="http://www.garmin.com/xmlschemas/TrackPointExtension/v1">
            <gpxtpx:hr>166</gpxtpx:hr>
          </gpxtpx:TrackPointExtension>
        </extensions>
      </trkpt>
      <trkpt lat="46.22782" lon="4.80144">
        <ele>169.40039</ele>
        <time>2026-05-13T14:06:22+02:00</time>
        <extensions>
          <gpxtpx:TrackPointExtension xmlns:gpxtpx="http://www.garmin.com/xmlschemas/TrackPointExtension/v1">
            <gpxtpx:hr>166</gpxtpx:hr>
          </gpxtpx:TrackPointExtension>
        </extensions>
      </trkpt>
      <trkpt lat="46.22788" lon="4.80148">
        <ele>169.60059</ele>
        <time>2026-05-13T14:06:23+02:00</time>
        <extensions>
          <gpxtpx:TrackPointExtension xmlns:gpxtpx="http://www.garmin.com/xmlschemas/TrackPointExtension/v1">
            <gpxtpx:hr>166</gpxtpx:hr>
          </gpxtpx:TrackPointExtension>
        </extensions>
      </trkpt>
      <trkpt lat="46.22794" lon="4.80151">
        <ele>169.60059</ele>
        <time>2026-05-13T14:06:24+02:00</time>
        <extensions>
          <gpxtpx:TrackPointExtension xmlns:gpxtpx="http://www.garmin.com/xmlschemas/TrackPointExtension/v1">
            <gpxtpx:hr>165</gpxtpx:hr>
          </gpxtpx:TrackPointExtension>
        </extensions>
      </trkpt>
      <trkpt lat="46.22799" lon="4.80155">
        <ele>169.7002</ele>
        <time>2026-05-13T14:06:25+02:00</time>
        <extensions>
          <gpxtpx:TrackPointExtension xmlns:gpxtpx="http://www.garmin.com/xmlschemas/TrackPointExtension/v1">
            <gpxtpx:hr>165</gpxtpx:hr>
          </gpxtpx:TrackPointExtension>
        </extensions>
      </trkpt>
      <trkpt lat="46.22805" lon="4.80158">
        <ele>169.60059</ele>
        <time>2026-05-13T14:06:26+02:00</time>
        <extensions>
          <gpxtpx:TrackPointExtension xmlns:gpxtpx="http://www.garmin.com/xmlschemas/TrackPointExtension/v1">
            <gpxtpx:hr>165</gpxtpx:hr>
          </gpxtpx:TrackPointExtension>
        </extensions>
      </trkpt>
      <trkpt lat="46.2281" lon="4.80162">
        <ele>169.5</ele>
        <time>2026-05-13T14:06:27+02:00</time>
        <extensions>
          <gpxtpx:TrackPointExtension xmlns:gpxtpx="http://www.garmin.com/xmlschemas/TrackPointExtension/v1">
            <gpxtpx:hr>166</gpxtpx:hr>
          </gpxtpx:TrackPointExtension>
        </extensions>
      </trkpt>
      <trkpt lat="46.22815" lon="4.80165">
        <ele>169.60059</ele>
        <time>2026-05-13T14:06:28+02:00</time>
        <extensions>
          <gpxtpx:TrackPointExtension xmlns:gpxtpx="http://www.garmin.com/xmlschemas/TrackPointExtension/v1">
            <gpxtpx:hr>166</gpxtpx:hr>
          </gpxtpx:TrackPointExtension>
        </extensions>
      </trkpt>
      <trkpt lat="46.22821" lon="4.80168">
        <ele>169.5</ele>
        <time>2026-05-13T14:06:29+02:00</time>
        <extensions>
          <gpxtpx:TrackPointExtension xmlns:gpxtpx="http://www.garmin.com/xmlschemas/TrackPointExtension/v1">
            <gpxtpx:hr>165</gpxtpx:hr>
          </gpxtpx:TrackPointExtension>
        </extensions>
      </trkpt>
      <trkpt lat="46.22826" lon="4.80172">
        <ele>169.60059</ele>
        <time>2026-05-13T14:06:30+02:00</time>
        <extensions>
          <gpxtpx:TrackPointExtension xmlns:gpxtpx="http://www.garmin.com/xmlschemas/TrackPointExtension/v1">
            <gpxtpx:hr>165</gpxtpx:hr>
          </gpxtpx:TrackPointExtension>
        </extensions>
      </trkpt>
      <trkpt lat="46.22831" lon="4.80175">
        <ele>169.60059</ele>
        <time>2026-05-13T14:06:31+02:00</time>
        <extensions>
          <gpxtpx:TrackPointExtension xmlns:gpxtpx="http://www.garmin.com/xmlschemas/TrackPointExtension/v1">
            <gpxtpx:hr>165</gpxtpx:hr>
          </gpxtpx:TrackPointExtension>
        </extensions>
      </trkpt>
      <trkpt lat="46.22836" lon="4.80179">
        <ele>169.60059</ele>
        <time>2026-05-13T14:06:32+02:00</time>
        <extensions>
          <gpxtpx:TrackPointExtension xmlns:gpxtpx="http://www.garmin.com/xmlschemas/TrackPointExtension/v1">
            <gpxtpx:hr>165</gpxtpx:hr>
          </gpxtpx:TrackPointExtension>
        </extensions>
      </trkpt>
      <trkpt lat="46.22841" lon="4.80182">
        <ele>169.7998</ele>
        <time>2026-05-13T14:06:33+02:00</time>
        <extensions>
          <gpxtpx:TrackPointExtension xmlns:gpxtpx="http://www.garmin.com/xmlschemas/TrackPointExtension/v1">
            <gpxtpx:hr>165</gpxtpx:hr>
          </gpxtpx:TrackPointExtension>
        </extensions>
      </trkpt>
      <trkpt lat="46.22846" lon="4.80186">
        <ele>169.7002</ele>
        <time>2026-05-13T14:06:34+02:00</time>
        <extensions>
          <gpxtpx:TrackPointExtension xmlns:gpxtpx="http://www.garmin.com/xmlschemas/TrackPointExtension/v1">
            <gpxtpx:hr>165</gpxtpx:hr>
          </gpxtpx:TrackPointExtension>
        </extensions>
      </trkpt>
      <trkpt lat="46.22851" lon="4.8019">
        <ele>170</ele>
        <time>2026-05-13T14:06:35+02:00</time>
        <extensions>
          <gpxtpx:TrackPointExtension xmlns:gpxtpx="http://www.garmin.com/xmlschemas/TrackPointExtension/v1">
            <gpxtpx:hr>165</gpxtpx:hr>
          </gpxtpx:TrackPointExtension>
        </extensions>
      </trkpt>
      <trkpt lat="46.22856" lon="4.80194">
        <ele>169.7998</ele>
        <time>2026-05-13T14:06:36+02:00</time>
        <extensions>
          <gpxtpx:TrackPointExtension xmlns:gpxtpx="http://www.garmin.com/xmlschemas/TrackPointExtension/v1">
            <gpxtpx:hr>164</gpxtpx:hr>
          </gpxtpx:TrackPointExtension>
        </extensions>
      </trkpt>
      <trkpt lat="46.2286" lon="4.80198">
        <ele>170.10059</ele>
        <time>2026-05-13T14:06:37+02:00</time>
        <extensions>
          <gpxtpx:TrackPointExtension xmlns:gpxtpx="http://www.garmin.com/xmlschemas/TrackPointExtension/v1">
            <gpxtpx:hr>164</gpxtpx:hr>
          </gpxtpx:TrackPointExtension>
        </extensions>
      </trkpt>
      <trkpt lat="46.22865" lon="4.80202">
        <ele>169.7998</ele>
        <time>2026-05-13T14:06:38+02:00</time>
        <extensions>
          <gpxtpx:TrackPointExtension xmlns:gpxtpx="http://www.garmin.com/xmlschemas/TrackPointExtension/v1">
            <gpxtpx:hr>164</gpxtpx:hr>
          </gpxtpx:TrackPointExtension>
        </extensions>
      </trkpt>
      <trkpt lat="46.22869" lon="4.80206">
        <ele>169.7998</ele>
        <time>2026-05-13T14:06:39+02:00</time>
        <extensions>
          <gpxtpx:TrackPointExtension xmlns:gpxtpx="http://www.garmin.com/xmlschemas/TrackPointExtension/v1">
            <gpxtpx:hr>164</gpxtpx:hr>
          </gpxtpx:TrackPointExtension>
        </extensions>
      </trkpt>
      <trkpt lat="46.22873" lon="4.80211">
        <ele>169.7002</ele>
        <time>2026-05-13T14:06:40+02:00</time>
        <extensions>
          <gpxtpx:TrackPointExtension xmlns:gpxtpx="http://www.garmin.com/xmlschemas/TrackPointExtension/v1">
            <gpxtpx:hr>163</gpxtpx:hr>
          </gpxtpx:TrackPointExtension>
        </extensions>
      </trkpt>
      <trkpt lat="46.22878" lon="4.80215">
        <ele>170</ele>
        <time>2026-05-13T14:06:41+02:00</time>
        <extensions>
          <gpxtpx:TrackPointExtension xmlns:gpxtpx="http://www.garmin.com/xmlschemas/TrackPointExtension/v1">
            <gpxtpx:hr>163</gpxtpx:hr>
          </gpxtpx:TrackPointExtension>
        </extensions>
      </trkpt>
      <trkpt lat="46.22883" lon="4.8022">
        <ele>170</ele>
        <time>2026-05-13T14:06:42+02:00</time>
        <extensions>
          <gpxtpx:TrackPointExtension xmlns:gpxtpx="http://www.garmin.com/xmlschemas/TrackPointExtension/v1">
            <gpxtpx:hr>163</gpxtpx:hr>
          </gpxtpx:TrackPointExtension>
        </extensions>
      </trkpt>
      <trkpt lat="46.22888" lon="4.80225">
        <ele>170.5</ele>
        <time>2026-05-13T14:06:43+02:00</time>
        <extensions>
          <gpxtpx:TrackPointExtension xmlns:gpxtpx="http://www.garmin.com/xmlschemas/TrackPointExtension/v1">
            <gpxtpx:hr>163</gpxtpx:hr>
          </gpxtpx:TrackPointExtension>
        </extensions>
      </trkpt>
      <trkpt lat="46.22893" lon="4.80229">
        <ele>170.2998</ele>
        <time>2026-05-13T14:06:44+02:00</time>
        <extensions>
          <gpxtpx:TrackPointExtension xmlns:gpxtpx="http://www.garmin.com/xmlschemas/TrackPointExtension/v1">
            <gpxtpx:hr>163</gpxtpx:hr>
          </gpxtpx:TrackPointExtension>
        </extensions>
      </trkpt>
      <trkpt lat="46.22897" lon="4.80233">
        <ele>170.40039</ele>
        <time>2026-05-13T14:06:45+02:00</time>
        <extensions>
          <gpxtpx:TrackPointExtension xmlns:gpxtpx="http://www.garmin.com/xmlschemas/TrackPointExtension/v1">
            <gpxtpx:hr>163</gpxtpx:hr>
          </gpxtpx:TrackPointExtension>
        </extensions>
      </trkpt>
      <trkpt lat="46.22903" lon="4.80238">
        <ele>169.90039</ele>
        <time>2026-05-13T14:06:46+02:00</time>
        <extensions>
          <gpxtpx:TrackPointExtension xmlns:gpxtpx="http://www.garmin.com/xmlschemas/TrackPointExtension/v1">
            <gpxtpx:hr>163</gpxtpx:hr>
          </gpxtpx:TrackPointExtension>
        </extensions>
      </trkpt>
      <trkpt lat="46.22908" lon="4.80242">
        <ele>169.60059</ele>
        <time>2026-05-13T14:06:47+02:00</time>
        <extensions>
          <gpxtpx:TrackPointExtension xmlns:gpxtpx="http://www.garmin.com/xmlschemas/TrackPointExtension/v1">
            <gpxtpx:hr>162</gpxtpx:hr>
          </gpxtpx:TrackPointExtension>
        </extensions>
      </trkpt>
      <trkpt lat="46.22913" lon="4.80245">
        <ele>169.60059</ele>
        <time>2026-05-13T14:06:48+02:00</time>
        <extensions>
          <gpxtpx:TrackPointExtension xmlns:gpxtpx="http://www.garmin.com/xmlschemas/TrackPointExtension/v1">
            <gpxtpx:hr>162</gpxtpx:hr>
          </gpxtpx:TrackPointExtension>
        </extensions>
      </trkpt>
      <trkpt lat="46.22918" lon="4.80248">
        <ele>169.2002</ele>
        <time>2026-05-13T14:06:49+02:00</time>
        <extensions>
          <gpxtpx:TrackPointExtension xmlns:gpxtpx="http://www.garmin.com/xmlschemas/TrackPointExtension/v1">
            <gpxtpx:hr>162</gpxtpx:hr>
          </gpxtpx:TrackPointExtension>
        </extensions>
      </trkpt>
      <trkpt lat="46.22923" lon="4.80251">
        <ele>169.2002</ele>
        <time>2026-05-13T14:06:50+02:00</time>
        <extensions>
          <gpxtpx:TrackPointExtension xmlns:gpxtpx="http://www.garmin.com/xmlschemas/TrackPointExtension/v1">
            <gpxtpx:hr>162</gpxtpx:hr>
          </gpxtpx:TrackPointExtension>
        </extensions>
      </trkpt>
      <trkpt lat="46.22928" lon="4.80254">
        <ele>168.7998</ele>
        <time>2026-05-13T14:06:51+02:00</time>
        <extensions>
          <gpxtpx:TrackPointExtension xmlns:gpxtpx="http://www.garmin.com/xmlschemas/TrackPointExtension/v1">
            <gpxtpx:hr>162</gpxtpx:hr>
          </gpxtpx:TrackPointExtension>
        </extensions>
      </trkpt>
      <trkpt lat="46.22933" lon="4.80257">
        <ele>168.40039</ele>
        <time>2026-05-13T14:06:52+02:00</time>
        <extensions>
          <gpxtpx:TrackPointExtension xmlns:gpxtpx="http://www.garmin.com/xmlschemas/TrackPointExtension/v1">
            <gpxtpx:hr>162</gpxtpx:hr>
          </gpxtpx:TrackPointExtension>
        </extensions>
      </trkpt>
      <trkpt lat="46.22938" lon="4.8026">
        <ele>168.2002</ele>
        <time>2026-05-13T14:06:53+02:00</time>
        <extensions>
          <gpxtpx:TrackPointExtension xmlns:gpxtpx="http://www.garmin.com/xmlschemas/TrackPointExtension/v1">
            <gpxtpx:hr>162</gpxtpx:hr>
          </gpxtpx:TrackPointExtension>
        </extensions>
      </trkpt>
      <trkpt lat="46.22942" lon="4.80263">
        <ele>168.2002</ele>
        <time>2026-05-13T14:06:54+02:00</time>
        <extensions>
          <gpxtpx:TrackPointExtension xmlns:gpxtpx="http://www.garmin.com/xmlschemas/TrackPointExtension/v1">
            <gpxtpx:hr>161</gpxtpx:hr>
          </gpxtpx:TrackPointExtension>
        </extensions>
      </trkpt>
      <trkpt lat="46.22947" lon="4.80266">
        <ele>168.40039</ele>
        <time>2026-05-13T14:06:55+02:00</time>
        <extensions>
          <gpxtpx:TrackPointExtension xmlns:gpxtpx="http://www.garmin.com/xmlschemas/TrackPointExtension/v1">
            <gpxtpx:hr>162</gpxtpx:hr>
          </gpxtpx:TrackPointExtension>
        </extensions>
      </trkpt>
      <trkpt lat="46.22953" lon="4.8027">
        <ele>168.7002</ele>
        <time>2026-05-13T14:06:56+02:00</time>
        <extensions>
          <gpxtpx:TrackPointExtension xmlns:gpxtpx="http://www.garmin.com/xmlschemas/TrackPointExtension/v1">
            <gpxtpx:hr>162</gpxtpx:hr>
          </gpxtpx:TrackPointExtension>
        </extensions>
      </trkpt>
      <trkpt lat="46.22959" lon="4.80274">
        <ele>169</ele>
        <time>2026-05-13T14:06:57+02:00</time>
        <extensions>
          <gpxtpx:TrackPointExtension xmlns:gpxtpx="http://www.garmin.com/xmlschemas/TrackPointExtension/v1">
            <gpxtpx:hr>162</gpxtpx:hr>
          </gpxtpx:TrackPointExtension>
        </extensions>
      </trkpt>
      <trkpt lat="46.22964" lon="4.80278">
        <ele>169.2002</ele>
        <time>2026-05-13T14:06:58+02:00</time>
        <extensions>
          <gpxtpx:TrackPointExtension xmlns:gpxtpx="http://www.garmin.com/xmlschemas/TrackPointExtension/v1">
            <gpxtpx:hr>162</gpxtpx:hr>
          </gpxtpx:TrackPointExtension>
        </extensions>
      </trkpt>
      <trkpt lat="46.22969" lon="4.80282">
        <ele>169</ele>
        <time>2026-05-13T14:06:59+02:00</time>
        <extensions>
          <gpxtpx:TrackPointExtension xmlns:gpxtpx="http://www.garmin.com/xmlschemas/TrackPointExtension/v1">
            <gpxtpx:hr>163</gpxtpx:hr>
          </gpxtpx:TrackPointExtension>
        </extensions>
      </trkpt>
      <trkpt lat="46.22975" lon="4.80286">
        <ele>168.90039</ele>
        <time>2026-05-13T14:07:00+02:00</time>
        <extensions>
          <gpxtpx:TrackPointExtension xmlns:gpxtpx="http://www.garmin.com/xmlschemas/TrackPointExtension/v1">
            <gpxtpx:hr>163</gpxtpx:hr>
          </gpxtpx:TrackPointExtension>
        </extensions>
      </trkpt>
      <trkpt lat="46.2298" lon="4.8029">
        <ele>168.7998</ele>
        <time>2026-05-13T14:07:01+02:00</time>
        <extensions>
          <gpxtpx:TrackPointExtension xmlns:gpxtpx="http://www.garmin.com/xmlschemas/TrackPointExtension/v1">
            <gpxtpx:hr>164</gpxtpx:hr>
          </gpxtpx:TrackPointExtension>
        </extensions>
      </trkpt>
      <trkpt lat="46.22986" lon="4.80294">
        <ele>168.7998</ele>
        <time>2026-05-13T14:07:02+02:00</time>
        <extensions>
          <gpxtpx:TrackPointExtension xmlns:gpxtpx="http://www.garmin.com/xmlschemas/TrackPointExtension/v1">
            <gpxtpx:hr>163</gpxtpx:hr>
          </gpxtpx:TrackPointExtension>
        </extensions>
      </trkpt>
      <trkpt lat="46.22991" lon="4.80299">
        <ele>168.7002</ele>
        <time>2026-05-13T14:07:03+02:00</time>
        <extensions>
          <gpxtpx:TrackPointExtension xmlns:gpxtpx="http://www.garmin.com/xmlschemas/TrackPointExtension/v1">
            <gpxtpx:hr>164</gpxtpx:hr>
          </gpxtpx:TrackPointExtension>
        </extensions>
      </trkpt>
      <trkpt lat="46.22996" lon="4.80303">
        <ele>168.7998</ele>
        <time>2026-05-13T14:07:04+02:00</time>
        <extensions>
          <gpxtpx:TrackPointExtension xmlns:gpxtpx="http://www.garmin.com/xmlschemas/TrackPointExtension/v1">
            <gpxtpx:hr>164</gpxtpx:hr>
          </gpxtpx:TrackPointExtension>
        </extensions>
      </trkpt>
      <trkpt lat="46.23002" lon="4.80308">
        <ele>168.7998</ele>
        <time>2026-05-13T14:07:05+02:00</time>
        <extensions>
          <gpxtpx:TrackPointExtension xmlns:gpxtpx="http://www.garmin.com/xmlschemas/TrackPointExtension/v1">
            <gpxtpx:hr>165</gpxtpx:hr>
          </gpxtpx:TrackPointExtension>
        </extensions>
      </trkpt>
      <trkpt lat="46.23007" lon="4.80313">
        <ele>168.90039</ele>
        <time>2026-05-13T14:07:06+02:00</time>
        <extensions>
          <gpxtpx:TrackPointExtension xmlns:gpxtpx="http://www.garmin.com/xmlschemas/TrackPointExtension/v1">
            <gpxtpx:hr>165</gpxtpx:hr>
          </gpxtpx:TrackPointExtension>
        </extensions>
      </trkpt>
      <trkpt lat="46.23013" lon="4.80317">
        <ele>168.7998</ele>
        <time>2026-05-13T14:07:07+02:00</time>
        <extensions>
          <gpxtpx:TrackPointExtension xmlns:gpxtpx="http://www.garmin.com/xmlschemas/TrackPointExtension/v1">
            <gpxtpx:hr>165</gpxtpx:hr>
          </gpxtpx:TrackPointExtension>
        </extensions>
      </trkpt>
      <trkpt lat="46.23018" lon="4.80322">
        <ele>169</ele>
        <time>2026-05-13T14:07:08+02:00</time>
        <extensions>
          <gpxtpx:TrackPointExtension xmlns:gpxtpx="http://www.garmin.com/xmlschemas/TrackPointExtension/v1">
            <gpxtpx:hr>165</gpxtpx:hr>
          </gpxtpx:TrackPointExtension>
        </extensions>
      </trkpt>
      <trkpt lat="46.23023" lon="4.80327">
        <ele>169.2002</ele>
        <time>2026-05-13T14:07:09+02:00</time>
        <extensions>
          <gpxtpx:TrackPointExtension xmlns:gpxtpx="http://www.garmin.com/xmlschemas/TrackPointExtension/v1">
            <gpxtpx:hr>165</gpxtpx:hr>
          </gpxtpx:TrackPointExtension>
        </extensions>
      </trkpt>
      <trkpt lat="46.23028" lon="4.80332">
        <ele>169</ele>
        <time>2026-05-13T14:07:10+02:00</time>
        <extensions>
          <gpxtpx:TrackPointExtension xmlns:gpxtpx="http://www.garmin.com/xmlschemas/TrackPointExtension/v1">
            <gpxtpx:hr>165</gpxtpx:hr>
          </gpxtpx:TrackPointExtension>
        </extensions>
      </trkpt>
      <trkpt lat="46.23033" lon="4.80336">
        <ele>169.10059</ele>
        <time>2026-05-13T14:07:11+02:00</time>
        <extensions>
          <gpxtpx:TrackPointExtension xmlns:gpxtpx="http://www.garmin.com/xmlschemas/TrackPointExtension/v1">
            <gpxtpx:hr>165</gpxtpx:hr>
          </gpxtpx:TrackPointExtension>
        </extensions>
      </trkpt>
      <trkpt lat="46.23039" lon="4.80341">
        <ele>168.90039</ele>
        <time>2026-05-13T14:07:12+02:00</time>
        <extensions>
          <gpxtpx:TrackPointExtension xmlns:gpxtpx="http://www.garmin.com/xmlschemas/TrackPointExtension/v1">
            <gpxtpx:hr>165</gpxtpx:hr>
          </gpxtpx:TrackPointExtension>
        </extensions>
      </trkpt>
      <trkpt lat="46.23044" lon="4.80346">
        <ele>169.2002</ele>
        <time>2026-05-13T14:07:13+02:00</time>
        <extensions>
          <gpxtpx:TrackPointExtension xmlns:gpxtpx="http://www.garmin.com/xmlschemas/TrackPointExtension/v1">
            <gpxtpx:hr>165</gpxtpx:hr>
          </gpxtpx:TrackPointExtension>
        </extensions>
      </trkpt>
      <trkpt lat="46.23048" lon="4.80351">
        <ele>169</ele>
        <time>2026-05-13T14:07:14+02:00</time>
        <extensions>
          <gpxtpx:TrackPointExtension xmlns:gpxtpx="http://www.garmin.com/xmlschemas/TrackPointExtension/v1">
            <gpxtpx:hr>165</gpxtpx:hr>
          </gpxtpx:TrackPointExtension>
        </extensions>
      </trkpt>
      <trkpt lat="46.23053" lon="4.80356">
        <ele>169.10059</ele>
        <time>2026-05-13T14:07:15+02:00</time>
        <extensions>
          <gpxtpx:TrackPointExtension xmlns:gpxtpx="http://www.garmin.com/xmlschemas/TrackPointExtension/v1">
            <gpxtpx:hr>165</gpxtpx:hr>
          </gpxtpx:TrackPointExtension>
        </extensions>
      </trkpt>
      <trkpt lat="46.23058" lon="4.80362">
        <ele>169.40039</ele>
        <time>2026-05-13T14:07:16+02:00</time>
        <extensions>
          <gpxtpx:TrackPointExtension xmlns:gpxtpx="http://www.garmin.com/xmlschemas/TrackPointExtension/v1">
            <gpxtpx:hr>166</gpxtpx:hr>
          </gpxtpx:TrackPointExtension>
        </extensions>
      </trkpt>
      <trkpt lat="46.23063" lon="4.80367">
        <ele>169.2002</ele>
        <time>2026-05-13T14:07:17+02:00</time>
        <extensions>
          <gpxtpx:TrackPointExtension xmlns:gpxtpx="http://www.garmin.com/xmlschemas/TrackPointExtension/v1">
            <gpxtpx:hr>166</gpxtpx:hr>
          </gpxtpx:TrackPointExtension>
        </extensions>
      </trkpt>
      <trkpt lat="46.23068" lon="4.80372">
        <ele>169.2998</ele>
        <time>2026-05-13T14:07:18+02:00</time>
        <extensions>
          <gpxtpx:TrackPointExtension xmlns:gpxtpx="http://www.garmin.com/xmlschemas/TrackPointExtension/v1">
            <gpxtpx:hr>165</gpxtpx:hr>
          </gpxtpx:TrackPointExtension>
        </extensions>
      </trkpt>
      <trkpt lat="46.23073" lon="4.80377">
        <ele>169.2998</ele>
        <time>2026-05-13T14:07:19+02:00</time>
        <extensions>
          <gpxtpx:TrackPointExtension xmlns:gpxtpx="http://www.garmin.com/xmlschemas/TrackPointExtension/v1">
            <gpxtpx:hr>166</gpxtpx:hr>
          </gpxtpx:TrackPointExtension>
        </extensions>
      </trkpt>
      <trkpt lat="46.23078" lon="4.80382">
        <ele>169.2998</ele>
        <time>2026-05-13T14:07:20+02:00</time>
        <extensions>
          <gpxtpx:TrackPointExtension xmlns:gpxtpx="http://www.garmin.com/xmlschemas/TrackPointExtension/v1">
            <gpxtpx:hr>165</gpxtpx:hr>
          </gpxtpx:TrackPointExtension>
        </extensions>
      </trkpt>
      <trkpt lat="46.23082" lon="4.80387">
        <ele>169.40039</ele>
        <time>2026-05-13T14:07:21+02:00</time>
        <extensions>
          <gpxtpx:TrackPointExtension xmlns:gpxtpx="http://www.garmin.com/xmlschemas/TrackPointExtension/v1">
            <gpxtpx:hr>165</gpxtpx:hr>
          </gpxtpx:TrackPointExtension>
        </extensions>
      </trkpt>
      <trkpt lat="46.23087" lon="4.80392">
        <ele>169.2002</ele>
        <time>2026-05-13T14:07:22+02:00</time>
        <extensions>
          <gpxtpx:TrackPointExtension xmlns:gpxtpx="http://www.garmin.com/xmlschemas/TrackPointExtension/v1">
            <gpxtpx:hr>165</gpxtpx:hr>
          </gpxtpx:TrackPointExtension>
        </extensions>
      </trkpt>
      <trkpt lat="46.23092" lon="4.80397">
        <ele>169.2998</ele>
        <time>2026-05-13T14:07:23+02:00</time>
        <extensions>
          <gpxtpx:TrackPointExtension xmlns:gpxtpx="http://www.garmin.com/xmlschemas/TrackPointExtension/v1">
            <gpxtpx:hr>165</gpxtpx:hr>
          </gpxtpx:TrackPointExtension>
        </extensions>
      </trkpt>
      <trkpt lat="46.23096" lon="4.80402">
        <ele>169.2998</ele>
        <time>2026-05-13T14:07:24+02:00</time>
        <extensions>
          <gpxtpx:TrackPointExtension xmlns:gpxtpx="http://www.garmin.com/xmlschemas/TrackPointExtension/v1">
            <gpxtpx:hr>165</gpxtpx:hr>
          </gpxtpx:TrackPointExtension>
        </extensions>
      </trkpt>
      <trkpt lat="46.231" lon="4.80407">
        <ele>169.2002</ele>
        <time>2026-05-13T14:07:25+02:00</time>
        <extensions>
          <gpxtpx:TrackPointExtension xmlns:gpxtpx="http://www.garmin.com/xmlschemas/TrackPointExtension/v1">
            <gpxtpx:hr>165</gpxtpx:hr>
          </gpxtpx:TrackPointExtension>
        </extensions>
      </trkpt>
      <trkpt lat="46.23105" lon="4.80412">
        <ele>169.10059</ele>
        <time>2026-05-13T14:07:26+02:00</time>
        <extensions>
          <gpxtpx:TrackPointExtension xmlns:gpxtpx="http://www.garmin.com/xmlschemas/TrackPointExtension/v1">
            <gpxtpx:hr>165</gpxtpx:hr>
          </gpxtpx:TrackPointExtension>
        </extensions>
      </trkpt>
      <trkpt lat="46.2311" lon="4.80417">
        <ele>168.90039</ele>
        <time>2026-05-13T14:07:27+02:00</time>
        <extensions>
          <gpxtpx:TrackPointExtension xmlns:gpxtpx="http://www.garmin.com/xmlschemas/TrackPointExtension/v1">
            <gpxtpx:hr>165</gpxtpx:hr>
          </gpxtpx:TrackPointExtension>
        </extensions>
      </trkpt>
      <trkpt lat="46.23115" lon="4.80422">
        <ele>169.2002</ele>
        <time>2026-05-13T14:07:28+02:00</time>
        <extensions>
          <gpxtpx:TrackPointExtension xmlns:gpxtpx="http://www.garmin.com/xmlschemas/TrackPointExtension/v1">
            <gpxtpx:hr>165</gpxtpx:hr>
          </gpxtpx:TrackPointExtension>
        </extensions>
      </trkpt>
      <trkpt lat="46.23119" lon="4.80427">
        <ele>169</ele>
        <time>2026-05-13T14:07:29+02:00</time>
        <extensions>
          <gpxtpx:TrackPointExtension xmlns:gpxtpx="http://www.garmin.com/xmlschemas/TrackPointExtension/v1">
            <gpxtpx:hr>166</gpxtpx:hr>
          </gpxtpx:TrackPointExtension>
        </extensions>
      </trkpt>
      <trkpt lat="46.23124" lon="4.80432">
        <ele>168.90039</ele>
        <time>2026-05-13T14:07:30+02:00</time>
        <extensions>
          <gpxtpx:TrackPointExtension xmlns:gpxtpx="http://www.garmin.com/xmlschemas/TrackPointExtension/v1">
            <gpxtpx:hr>165</gpxtpx:hr>
          </gpxtpx:TrackPointExtension>
        </extensions>
      </trkpt>
      <trkpt lat="46.23129" lon="4.80437">
        <ele>168.7002</ele>
        <time>2026-05-13T14:07:31+02:00</time>
        <extensions>
          <gpxtpx:TrackPointExtension xmlns:gpxtpx="http://www.garmin.com/xmlschemas/TrackPointExtension/v1">
            <gpxtpx:hr>166</gpxtpx:hr>
          </gpxtpx:TrackPointExtension>
        </extensions>
      </trkpt>
      <trkpt lat="46.23134" lon="4.80442">
        <ele>168.60059</ele>
        <time>2026-05-13T14:07:32+02:00</time>
        <extensions>
          <gpxtpx:TrackPointExtension xmlns:gpxtpx="http://www.garmin.com/xmlschemas/TrackPointExtension/v1">
            <gpxtpx:hr>166</gpxtpx:hr>
          </gpxtpx:TrackPointExtension>
        </extensions>
      </trkpt>
      <trkpt lat="46.23139" lon="4.80447">
        <ele>168.60059</ele>
        <time>2026-05-13T14:07:33+02:00</time>
        <extensions>
          <gpxtpx:TrackPointExtension xmlns:gpxtpx="http://www.garmin.com/xmlschemas/TrackPointExtension/v1">
            <gpxtpx:hr>166</gpxtpx:hr>
          </gpxtpx:TrackPointExtension>
        </extensions>
      </trkpt>
      <trkpt lat="46.23143" lon="4.80452">
        <ele>168.60059</ele>
        <time>2026-05-13T14:07:34+02:00</time>
        <extensions>
          <gpxtpx:TrackPointExtension xmlns:gpxtpx="http://www.garmin.com/xmlschemas/TrackPointExtension/v1">
            <gpxtpx:hr>165</gpxtpx:hr>
          </gpxtpx:TrackPointExtension>
        </extensions>
      </trkpt>
      <trkpt lat="46.23148" lon="4.80457">
        <ele>168.60059</ele>
        <time>2026-05-13T14:07:35+02:00</time>
        <extensions>
          <gpxtpx:TrackPointExtension xmlns:gpxtpx="http://www.garmin.com/xmlschemas/TrackPointExtension/v1">
            <gpxtpx:hr>166</gpxtpx:hr>
          </gpxtpx:TrackPointExtension>
        </extensions>
      </trkpt>
      <trkpt lat="46.23153" lon="4.80463">
        <ele>168.5</ele>
        <time>2026-05-13T14:07:36+02:00</time>
        <extensions>
          <gpxtpx:TrackPointExtension xmlns:gpxtpx="http://www.garmin.com/xmlschemas/TrackPointExtension/v1">
            <gpxtpx:hr>166</gpxtpx:hr>
          </gpxtpx:TrackPointExtension>
        </extensions>
      </trkpt>
      <trkpt lat="46.23157" lon="4.80468">
        <ele>168.5</ele>
        <time>2026-05-13T14:07:37+02:00</time>
        <extensions>
          <gpxtpx:TrackPointExtension xmlns:gpxtpx="http://www.garmin.com/xmlschemas/TrackPointExtension/v1">
            <gpxtpx:hr>166</gpxtpx:hr>
          </gpxtpx:TrackPointExtension>
        </extensions>
      </trkpt>
      <trkpt lat="46.23162" lon="4.80473">
        <ele>168.5</ele>
        <time>2026-05-13T14:07:38+02:00</time>
        <extensions>
          <gpxtpx:TrackPointExtension xmlns:gpxtpx="http://www.garmin.com/xmlschemas/TrackPointExtension/v1">
            <gpxtpx:hr>166</gpxtpx:hr>
          </gpxtpx:TrackPointExtension>
        </extensions>
      </trkpt>
      <trkpt lat="46.23166" lon="4.80479">
        <ele>168.5</ele>
        <time>2026-05-13T14:07:39+02:00</time>
        <extensions>
          <gpxtpx:TrackPointExtension xmlns:gpxtpx="http://www.garmin.com/xmlschemas/TrackPointExtension/v1">
            <gpxtpx:hr>166</gpxtpx:hr>
          </gpxtpx:TrackPointExtension>
        </extensions>
      </trkpt>
      <trkpt lat="46.23171" lon="4.80484">
        <ele>168.40039</ele>
        <time>2026-05-13T14:07:40+02:00</time>
        <extensions>
          <gpxtpx:TrackPointExtension xmlns:gpxtpx="http://www.garmin.com/xmlschemas/TrackPointExtension/v1">
            <gpxtpx:hr>166</gpxtpx:hr>
          </gpxtpx:TrackPointExtension>
        </extensions>
      </trkpt>
      <trkpt lat="46.23176" lon="4.8049">
        <ele>168.40039</ele>
        <time>2026-05-13T14:07:41+02:00</time>
        <extensions>
          <gpxtpx:TrackPointExtension xmlns:gpxtpx="http://www.garmin.com/xmlschemas/TrackPointExtension/v1">
            <gpxtpx:hr>166</gpxtpx:hr>
          </gpxtpx:TrackPointExtension>
        </extensions>
      </trkpt>
      <trkpt lat="46.2318" lon="4.80495">
        <ele>168.40039</ele>
        <time>2026-05-13T14:07:42+02:00</time>
        <extensions>
          <gpxtpx:TrackPointExtension xmlns:gpxtpx="http://www.garmin.com/xmlschemas/TrackPointExtension/v1">
            <gpxtpx:hr>166</gpxtpx:hr>
          </gpxtpx:TrackPointExtension>
        </extensions>
      </trkpt>
      <trkpt lat="46.23185" lon="4.80501">
        <ele>168.40039</ele>
        <time>2026-05-13T14:07:43+02:00</time>
        <extensions>
          <gpxtpx:TrackPointExtension xmlns:gpxtpx="http://www.garmin.com/xmlschemas/TrackPointExtension/v1">
            <gpxtpx:hr>165</gpxtpx:hr>
          </gpxtpx:TrackPointExtension>
        </extensions>
      </trkpt>
      <trkpt lat="46.23189" lon="4.80507">
        <ele>168.40039</ele>
        <time>2026-05-13T14:07:44+02:00</time>
        <extensions>
          <gpxtpx:TrackPointExtension xmlns:gpxtpx="http://www.garmin.com/xmlschemas/TrackPointExtension/v1">
            <gpxtpx:hr>165</gpxtpx:hr>
          </gpxtpx:TrackPointExtension>
        </extensions>
      </trkpt>
      <trkpt lat="46.23193" lon="4.80512">
        <ele>168.2998</ele>
        <time>2026-05-13T14:07:45+02:00</time>
        <extensions>
          <gpxtpx:TrackPointExtension xmlns:gpxtpx="http://www.garmin.com/xmlschemas/TrackPointExtension/v1">
            <gpxtpx:hr>166</gpxtpx:hr>
          </gpxtpx:TrackPointExtension>
        </extensions>
      </trkpt>
      <trkpt lat="46.23198" lon="4.80518">
        <ele>168.40039</ele>
        <time>2026-05-13T14:07:46+02:00</time>
        <extensions>
          <gpxtpx:TrackPointExtension xmlns:gpxtpx="http://www.garmin.com/xmlschemas/TrackPointExtension/v1">
            <gpxtpx:hr>165</gpxtpx:hr>
          </gpxtpx:TrackPointExtension>
        </extensions>
      </trkpt>
      <trkpt lat="46.23202" lon="4.80524">
        <ele>168.5</ele>
        <time>2026-05-13T14:07:47+02:00</time>
        <extensions>
          <gpxtpx:TrackPointExtension xmlns:gpxtpx="http://www.garmin.com/xmlschemas/TrackPointExtension/v1">
            <gpxtpx:hr>165</gpxtpx:hr>
          </gpxtpx:TrackPointExtension>
        </extensions>
      </trkpt>
      <trkpt lat="46.23207" lon="4.80529">
        <ele>168.40039</ele>
        <time>2026-05-13T14:07:48+02:00</time>
        <extensions>
          <gpxtpx:TrackPointExtension xmlns:gpxtpx="http://www.garmin.com/xmlschemas/TrackPointExtension/v1">
            <gpxtpx:hr>166</gpxtpx:hr>
          </gpxtpx:TrackPointExtension>
        </extensions>
      </trkpt>
      <trkpt lat="46.23212" lon="4.80535">
        <ele>168.40039</ele>
        <time>2026-05-13T14:07:49+02:00</time>
        <extensions>
          <gpxtpx:TrackPointExtension xmlns:gpxtpx="http://www.garmin.com/xmlschemas/TrackPointExtension/v1">
            <gpxtpx:hr>165</gpxtpx:hr>
          </gpxtpx:TrackPointExtension>
        </extensions>
      </trkpt>
      <trkpt lat="46.23217" lon="4.8054">
        <ele>168.2998</ele>
        <time>2026-05-13T14:07:50+02:00</time>
        <extensions>
          <gpxtpx:TrackPointExtension xmlns:gpxtpx="http://www.garmin.com/xmlschemas/TrackPointExtension/v1">
            <gpxtpx:hr>166</gpxtpx:hr>
          </gpxtpx:TrackPointExtension>
        </extensions>
      </trkpt>
      <trkpt lat="46.23221" lon="4.80546">
        <ele>168.40039</ele>
        <time>2026-05-13T14:07:51+02:00</time>
        <extensions>
          <gpxtpx:TrackPointExtension xmlns:gpxtpx="http://www.garmin.com/xmlschemas/TrackPointExtension/v1">
            <gpxtpx:hr>167</gpxtpx:hr>
          </gpxtpx:TrackPointExtension>
        </extensions>
      </trkpt>
      <trkpt lat="46.23226" lon="4.80551">
        <ele>168.5</ele>
        <time>2026-05-13T14:07:52+02:00</time>
        <extensions>
          <gpxtpx:TrackPointExtension xmlns:gpxtpx="http://www.garmin.com/xmlschemas/TrackPointExtension/v1">
            <gpxtpx:hr>167</gpxtpx:hr>
          </gpxtpx:TrackPointExtension>
        </extensions>
      </trkpt>
      <trkpt lat="46.2323" lon="4.80557">
        <ele>168.40039</ele>
        <time>2026-05-13T14:07:53+02:00</time>
        <extensions>
          <gpxtpx:TrackPointExtension xmlns:gpxtpx="http://www.garmin.com/xmlschemas/TrackPointExtension/v1">
            <gpxtpx:hr>167</gpxtpx:hr>
          </gpxtpx:TrackPointExtension>
        </extensions>
      </trkpt>
      <trkpt lat="46.23235" lon="4.80563">
        <ele>168.40039</ele>
        <time>2026-05-13T14:07:54+02:00</time>
        <extensions>
          <gpxtpx:TrackPointExtension xmlns:gpxtpx="http://www.garmin.com/xmlschemas/TrackPointExtension/v1">
            <gpxtpx:hr>167</gpxtpx:hr>
          </gpxtpx:TrackPointExtension>
        </extensions>
      </trkpt>
      <trkpt lat="46.23239" lon="4.80568">
        <ele>168.5</ele>
        <time>2026-05-13T14:07:55+02:00</time>
        <extensions>
          <gpxtpx:TrackPointExtension xmlns:gpxtpx="http://www.garmin.com/xmlschemas/TrackPointExtension/v1">
            <gpxtpx:hr>167</gpxtpx:hr>
          </gpxtpx:TrackPointExtension>
        </extensions>
      </trkpt>
      <trkpt lat="46.23244" lon="4.80574">
        <ele>168.40039</ele>
        <time>2026-05-13T14:07:56+02:00</time>
        <extensions>
          <gpxtpx:TrackPointExtension xmlns:gpxtpx="http://www.garmin.com/xmlschemas/TrackPointExtension/v1">
            <gpxtpx:hr>167</gpxtpx:hr>
          </gpxtpx:TrackPointExtension>
        </extensions>
      </trkpt>
      <trkpt lat="46.23248" lon="4.80579">
        <ele>168.40039</ele>
        <time>2026-05-13T14:07:57+02:00</time>
        <extensions>
          <gpxtpx:TrackPointExtension xmlns:gpxtpx="http://www.garmin.com/xmlschemas/TrackPointExtension/v1">
            <gpxtpx:hr>167</gpxtpx:hr>
          </gpxtpx:TrackPointExtension>
        </extensions>
      </trkpt>
      <trkpt lat="46.23253" lon="4.80585">
        <ele>168.40039</ele>
        <time>2026-05-13T14:07:58+02:00</time>
        <extensions>
          <gpxtpx:TrackPointExtension xmlns:gpxtpx="http://www.garmin.com/xmlschemas/TrackPointExtension/v1">
            <gpxtpx:hr>167</gpxtpx:hr>
          </gpxtpx:TrackPointExtension>
        </extensions>
      </trkpt>
      <trkpt lat="46.23258" lon="4.8059">
        <ele>168.2998</ele>
        <time>2026-05-13T14:07:59+02:00</time>
        <extensions>
          <gpxtpx:TrackPointExtension xmlns:gpxtpx="http://www.garmin.com/xmlschemas/TrackPointExtension/v1">
            <gpxtpx:hr>168</gpxtpx:hr>
          </gpxtpx:TrackPointExtension>
        </extensions>
      </trkpt>
      <trkpt lat="46.23262" lon="4.80595">
        <ele>168.40039</ele>
        <time>2026-05-13T14:08:00+02:00</time>
        <extensions>
          <gpxtpx:TrackPointExtension xmlns:gpxtpx="http://www.garmin.com/xmlschemas/TrackPointExtension/v1">
            <gpxtpx:hr>168</gpxtpx:hr>
          </gpxtpx:TrackPointExtension>
        </extensions>
      </trkpt>
      <trkpt lat="46.23267" lon="4.80601">
        <ele>168.40039</ele>
        <time>2026-05-13T14:08:01+02:00</time>
        <extensions>
          <gpxtpx:TrackPointExtension xmlns:gpxtpx="http://www.garmin.com/xmlschemas/TrackPointExtension/v1">
            <gpxtpx:hr>168</gpxtpx:hr>
          </gpxtpx:TrackPointExtension>
        </extensions>
      </trkpt>
      <trkpt lat="46.23271" lon="4.80606">
        <ele>168.2998</ele>
        <time>2026-05-13T14:08:02+02:00</time>
        <extensions>
          <gpxtpx:TrackPointExtension xmlns:gpxtpx="http://www.garmin.com/xmlschemas/TrackPointExtension/v1">
            <gpxtpx:hr>169</gpxtpx:hr>
          </gpxtpx:TrackPointExtension>
        </extensions>
      </trkpt>
      <trkpt lat="46.23276" lon="4.80612">
        <ele>168.40039</ele>
        <time>2026-05-13T14:08:03+02:00</time>
        <extensions>
          <gpxtpx:TrackPointExtension xmlns:gpxtpx="http://www.garmin.com/xmlschemas/TrackPointExtension/v1">
            <gpxtpx:hr>169</gpxtpx:hr>
          </gpxtpx:TrackPointExtension>
        </extensions>
      </trkpt>
      <trkpt lat="46.23281" lon="4.80617">
        <ele>168.40039</ele>
        <time>2026-05-13T14:08:04+02:00</time>
        <extensions>
          <gpxtpx:TrackPointExtension xmlns:gpxtpx="http://www.garmin.com/xmlschemas/TrackPointExtension/v1">
            <gpxtpx:hr>170</gpxtpx:hr>
          </gpxtpx:TrackPointExtension>
        </extensions>
      </trkpt>
      <trkpt lat="46.23285" lon="4.80623">
        <ele>168.40039</ele>
        <time>2026-05-13T14:08:05+02:00</time>
        <extensions>
          <gpxtpx:TrackPointExtension xmlns:gpxtpx="http://www.garmin.com/xmlschemas/TrackPointExtension/v1">
            <gpxtpx:hr>170</gpxtpx:hr>
          </gpxtpx:TrackPointExtension>
        </extensions>
      </trkpt>
      <trkpt lat="46.2329" lon="4.80628">
        <ele>168.40039</ele>
        <time>2026-05-13T14:08:06+02:00</time>
        <extensions>
          <gpxtpx:TrackPointExtension xmlns:gpxtpx="http://www.garmin.com/xmlschemas/TrackPointExtension/v1">
            <gpxtpx:hr>170</gpxtpx:hr>
          </gpxtpx:TrackPointExtension>
        </extensions>
      </trkpt>
      <trkpt lat="46.23295" lon="4.80634">
        <ele>168.2998</ele>
        <time>2026-05-13T14:08:07+02:00</time>
        <extensions>
          <gpxtpx:TrackPointExtension xmlns:gpxtpx="http://www.garmin.com/xmlschemas/TrackPointExtension/v1">
            <gpxtpx:hr>170</gpxtpx:hr>
          </gpxtpx:TrackPointExtension>
        </extensions>
      </trkpt>
      <trkpt lat="46.233" lon="4.80639">
        <ele>168.40039</ele>
        <time>2026-05-13T14:08:08+02:00</time>
        <extensions>
          <gpxtpx:TrackPointExtension xmlns:gpxtpx="http://www.garmin.com/xmlschemas/TrackPointExtension/v1">
            <gpxtpx:hr>171</gpxtpx:hr>
          </gpxtpx:TrackPointExtension>
        </extensions>
      </trkpt>
      <trkpt lat="46.23305" lon="4.80645">
        <ele>168.5</ele>
        <time>2026-05-13T14:08:09+02:00</time>
        <extensions>
          <gpxtpx:TrackPointExtension xmlns:gpxtpx="http://www.garmin.com/xmlschemas/TrackPointExtension/v1">
            <gpxtpx:hr>171</gpxtpx:hr>
          </gpxtpx:TrackPointExtension>
        </extensions>
      </trkpt>
      <trkpt lat="46.2331" lon="4.8065">
        <ele>168.40039</ele>
        <time>2026-05-13T14:08:10+02:00</time>
        <extensions>
          <gpxtpx:TrackPointExtension xmlns:gpxtpx="http://www.garmin.com/xmlschemas/TrackPointExtension/v1">
            <gpxtpx:hr>171</gpxtpx:hr>
          </gpxtpx:TrackPointExtension>
        </extensions>
      </trkpt>
      <trkpt lat="46.23315" lon="4.80656">
        <ele>168.40039</ele>
        <time>2026-05-13T14:08:11+02:00</time>
        <extensions>
          <gpxtpx:TrackPointExtension xmlns:gpxtpx="http://www.garmin.com/xmlschemas/TrackPointExtension/v1">
            <gpxtpx:hr>171</gpxtpx:hr>
          </gpxtpx:TrackPointExtension>
        </extensions>
      </trkpt>
      <trkpt lat="46.2332" lon="4.80661">
        <ele>168.5</ele>
        <time>2026-05-13T14:08:12+02:00</time>
        <extensions>
          <gpxtpx:TrackPointExtension xmlns:gpxtpx="http://www.garmin.com/xmlschemas/TrackPointExtension/v1">
            <gpxtpx:hr>172</gpxtpx:hr>
          </gpxtpx:TrackPointExtension>
        </extensions>
      </trkpt>
      <trkpt lat="46.23325" lon="4.80667">
        <ele>168.5</ele>
        <time>2026-05-13T14:08:13+02:00</time>
        <extensions>
          <gpxtpx:TrackPointExtension xmlns:gpxtpx="http://www.garmin.com/xmlschemas/TrackPointExtension/v1">
            <gpxtpx:hr>172</gpxtpx:hr>
          </gpxtpx:TrackPointExtension>
        </extensions>
      </trkpt>
      <trkpt lat="46.2333" lon="4.80672">
        <ele>168.60059</ele>
        <time>2026-05-13T14:08:14+02:00</time>
        <extensions>
          <gpxtpx:TrackPointExtension xmlns:gpxtpx="http://www.garmin.com/xmlschemas/TrackPointExtension/v1">
            <gpxtpx:hr>172</gpxtpx:hr>
          </gpxtpx:TrackPointExtension>
        </extensions>
      </trkpt>
      <trkpt lat="46.23335" lon="4.80678">
        <ele>168.7998</ele>
        <time>2026-05-13T14:08:15+02:00</time>
        <extensions>
          <gpxtpx:TrackPointExtension xmlns:gpxtpx="http://www.garmin.com/xmlschemas/TrackPointExtension/v1">
            <gpxtpx:hr>172</gpxtpx:hr>
          </gpxtpx:TrackPointExtension>
        </extensions>
      </trkpt>
      <trkpt lat="46.2334" lon="4.80683">
        <ele>168.7002</ele>
        <time>2026-05-13T14:08:16+02:00</time>
        <extensions>
          <gpxtpx:TrackPointExtension xmlns:gpxtpx="http://www.garmin.com/xmlschemas/TrackPointExtension/v1">
            <gpxtpx:hr>173</gpxtpx:hr>
          </gpxtpx:TrackPointExtension>
        </extensions>
      </trkpt>
      <trkpt lat="46.23345" lon="4.80689">
        <ele>168.90039</ele>
        <time>2026-05-13T14:08:17+02:00</time>
        <extensions>
          <gpxtpx:TrackPointExtension xmlns:gpxtpx="http://www.garmin.com/xmlschemas/TrackPointExtension/v1">
            <gpxtpx:hr>172</gpxtpx:hr>
          </gpxtpx:TrackPointExtension>
        </extensions>
      </trkpt>
      <trkpt lat="46.23349" lon="4.80694">
        <ele>168.7002</ele>
        <time>2026-05-13T14:08:18+02:00</time>
        <extensions>
          <gpxtpx:TrackPointExtension xmlns:gpxtpx="http://www.garmin.com/xmlschemas/TrackPointExtension/v1">
            <gpxtpx:hr>172</gpxtpx:hr>
          </gpxtpx:TrackPointExtension>
        </extensions>
      </trkpt>
      <trkpt lat="46.23354" lon="4.80699">
        <ele>168.7002</ele>
        <time>2026-05-13T14:08:19+02:00</time>
        <extensions>
          <gpxtpx:TrackPointExtension xmlns:gpxtpx="http://www.garmin.com/xmlschemas/TrackPointExtension/v1">
            <gpxtpx:hr>173</gpxtpx:hr>
          </gpxtpx:TrackPointExtension>
        </extensions>
      </trkpt>
      <trkpt lat="46.23359" lon="4.80705">
        <ele>168.7998</ele>
        <time>2026-05-13T14:08:20+02:00</time>
        <extensions>
          <gpxtpx:TrackPointExtension xmlns:gpxtpx="http://www.garmin.com/xmlschemas/TrackPointExtension/v1">
            <gpxtpx:hr>173</gpxtpx:hr>
          </gpxtpx:TrackPointExtension>
        </extensions>
      </trkpt>
      <trkpt lat="46.23363" lon="4.8071">
        <ele>168.7998</ele>
        <time>2026-05-13T14:08:21+02:00</time>
        <extensions>
          <gpxtpx:TrackPointExtension xmlns:gpxtpx="http://www.garmin.com/xmlschemas/TrackPointExtension/v1">
            <gpxtpx:hr>173</gpxtpx:hr>
          </gpxtpx:TrackPointExtension>
        </extensions>
      </trkpt>
      <trkpt lat="46.23368" lon="4.80715">
        <ele>168.7998</ele>
        <time>2026-05-13T14:08:22+02:00</time>
        <extensions>
          <gpxtpx:TrackPointExtension xmlns:gpxtpx="http://www.garmin.com/xmlschemas/TrackPointExtension/v1">
            <gpxtpx:hr>173</gpxtpx:hr>
          </gpxtpx:TrackPointExtension>
        </extensions>
      </trkpt>
      <trkpt lat="46.23373" lon="4.8072">
        <ele>168.60059</ele>
        <time>2026-05-13T14:08:23+02:00</time>
        <extensions>
          <gpxtpx:TrackPointExtension xmlns:gpxtpx="http://www.garmin.com/xmlschemas/TrackPointExtension/v1">
            <gpxtpx:hr>173</gpxtpx:hr>
          </gpxtpx:TrackPointExtension>
        </extensions>
      </trkpt>
      <trkpt lat="46.23378" lon="4.80725">
        <ele>168.60059</ele>
        <time>2026-05-13T14:08:24+02:00</time>
        <extensions>
          <gpxtpx:TrackPointExtension xmlns:gpxtpx="http://www.garmin.com/xmlschemas/TrackPointExtension/v1">
            <gpxtpx:hr>174</gpxtpx:hr>
          </gpxtpx:TrackPointExtension>
        </extensions>
      </trkpt>
      <trkpt lat="46.23383" lon="4.8073">
        <ele>168.60059</ele>
        <time>2026-05-13T14:08:25+02:00</time>
        <extensions>
          <gpxtpx:TrackPointExtension xmlns:gpxtpx="http://www.garmin.com/xmlschemas/TrackPointExtension/v1">
            <gpxtpx:hr>174</gpxtpx:hr>
          </gpxtpx:TrackPointExtension>
        </extensions>
      </trkpt>
      <trkpt lat="46.23387" lon="4.80735">
        <ele>168.60059</ele>
        <time>2026-05-13T14:08:26+02:00</time>
        <extensions>
          <gpxtpx:TrackPointExtension xmlns:gpxtpx="http://www.garmin.com/xmlschemas/TrackPointExtension/v1">
            <gpxtpx:hr>174</gpxtpx:hr>
          </gpxtpx:TrackPointExtension>
        </extensions>
      </trkpt>
      <trkpt lat="46.23392" lon="4.8074">
        <ele>168.60059</ele>
        <time>2026-05-13T14:08:27+02:00</time>
        <extensions>
          <gpxtpx:TrackPointExtension xmlns:gpxtpx="http://www.garmin.com/xmlschemas/TrackPointExtension/v1">
            <gpxtpx:hr>174</gpxtpx:hr>
          </gpxtpx:TrackPointExtension>
        </extensions>
      </trkpt>
      <trkpt lat="46.23397" lon="4.80745">
        <ele>168.5</ele>
        <time>2026-05-13T14:08:28+02:00</time>
        <extensions>
          <gpxtpx:TrackPointExtension xmlns:gpxtpx="http://www.garmin.com/xmlschemas/TrackPointExtension/v1">
            <gpxtpx:hr>174</gpxtpx:hr>
          </gpxtpx:TrackPointExtension>
        </extensions>
      </trkpt>
      <trkpt lat="46.23402" lon="4.8075">
        <ele>168.5</ele>
        <time>2026-05-13T14:08:29+02:00</time>
        <extensions>
          <gpxtpx:TrackPointExtension xmlns:gpxtpx="http://www.garmin.com/xmlschemas/TrackPointExtension/v1">
            <gpxtpx:hr>174</gpxtpx:hr>
          </gpxtpx:TrackPointExtension>
        </extensions>
      </trkpt>
      <trkpt lat="46.23407" lon="4.80755">
        <ele>168.5</ele>
        <time>2026-05-13T14:08:30+02:00</time>
        <extensions>
          <gpxtpx:TrackPointExtension xmlns:gpxtpx="http://www.garmin.com/xmlschemas/TrackPointExtension/v1">
            <gpxtpx:hr>175</gpxtpx:hr>
          </gpxtpx:TrackPointExtension>
        </extensions>
      </trkpt>
      <trkpt lat="46.23412" lon="4.8076">
        <ele>168.5</ele>
        <time>2026-05-13T14:08:31+02:00</time>
        <extensions>
          <gpxtpx:TrackPointExtension xmlns:gpxtpx="http://www.garmin.com/xmlschemas/TrackPointExtension/v1">
            <gpxtpx:hr>175</gpxtpx:hr>
          </gpxtpx:TrackPointExtension>
        </extensions>
      </trkpt>
      <trkpt lat="46.23417" lon="4.80764">
        <ele>168.5</ele>
        <time>2026-05-13T14:08:32+02:00</time>
        <extensions>
          <gpxtpx:TrackPointExtension xmlns:gpxtpx="http://www.garmin.com/xmlschemas/TrackPointExtension/v1">
            <gpxtpx:hr>175</gpxtpx:hr>
          </gpxtpx:TrackPointExtension>
        </extensions>
      </trkpt>
      <trkpt lat="46.23422" lon="4.8077">
        <ele>168.40039</ele>
        <time>2026-05-13T14:08:33+02:00</time>
        <extensions>
          <gpxtpx:TrackPointExtension xmlns:gpxtpx="http://www.garmin.com/xmlschemas/TrackPointExtension/v1">
            <gpxtpx:hr>175</gpxtpx:hr>
          </gpxtpx:TrackPointExtension>
        </extensions>
      </trkpt>
      <trkpt lat="46.23427" lon="4.80774">
        <ele>168.5</ele>
        <time>2026-05-13T14:08:34+02:00</time>
        <extensions>
          <gpxtpx:TrackPointExtension xmlns:gpxtpx="http://www.garmin.com/xmlschemas/TrackPointExtension/v1">
            <gpxtpx:hr>174</gpxtpx:hr>
          </gpxtpx:TrackPointExtension>
        </extensions>
      </trkpt>
      <trkpt lat="46.23432" lon="4.80779">
        <ele>168.40039</ele>
        <time>2026-05-13T14:08:35+02:00</time>
        <extensions>
          <gpxtpx:TrackPointExtension xmlns:gpxtpx="http://www.garmin.com/xmlschemas/TrackPointExtension/v1">
            <gpxtpx:hr>175</gpxtpx:hr>
          </gpxtpx:TrackPointExtension>
        </extensions>
      </trkpt>
      <trkpt lat="46.23436" lon="4.80784">
        <ele>168.40039</ele>
        <time>2026-05-13T14:08:36+02:00</time>
        <extensions>
          <gpxtpx:TrackPointExtension xmlns:gpxtpx="http://www.garmin.com/xmlschemas/TrackPointExtension/v1">
            <gpxtpx:hr>174</gpxtpx:hr>
          </gpxtpx:TrackPointExtension>
        </extensions>
      </trkpt>
      <trkpt lat="46.23441" lon="4.80789">
        <ele>168.40039</ele>
        <time>2026-05-13T14:08:37+02:00</time>
        <extensions>
          <gpxtpx:TrackPointExtension xmlns:gpxtpx="http://www.garmin.com/xmlschemas/TrackPointExtension/v1">
            <gpxtpx:hr>174</gpxtpx:hr>
          </gpxtpx:TrackPointExtension>
        </extensions>
      </trkpt>
      <trkpt lat="46.23446" lon="4.80793">
        <ele>168.40039</ele>
        <time>2026-05-13T14:08:38+02:00</time>
        <extensions>
          <gpxtpx:TrackPointExtension xmlns:gpxtpx="http://www.garmin.com/xmlschemas/TrackPointExtension/v1">
            <gpxtpx:hr>174</gpxtpx:hr>
          </gpxtpx:TrackPointExtension>
        </extensions>
      </trkpt>
      <trkpt lat="46.23451" lon="4.80797">
        <ele>168.40039</ele>
        <time>2026-05-13T14:08:39+02:00</time>
        <extensions>
          <gpxtpx:TrackPointExtension xmlns:gpxtpx="http://www.garmin.com/xmlschemas/TrackPointExtension/v1">
            <gpxtpx:hr>174</gpxtpx:hr>
          </gpxtpx:TrackPointExtension>
        </extensions>
      </trkpt>
      <trkpt lat="46.23456" lon="4.80802">
        <ele>168.40039</ele>
        <time>2026-05-13T14:08:40+02:00</time>
        <extensions>
          <gpxtpx:TrackPointExtension xmlns:gpxtpx="http://www.garmin.com/xmlschemas/TrackPointExtension/v1">
            <gpxtpx:hr>174</gpxtpx:hr>
          </gpxtpx:TrackPointExtension>
        </extensions>
      </trkpt>
      <trkpt lat="46.23461" lon="4.80806">
        <ele>168.40039</ele>
        <time>2026-05-13T14:08:41+02:00</time>
        <extensions>
          <gpxtpx:TrackPointExtension xmlns:gpxtpx="http://www.garmin.com/xmlschemas/TrackPointExtension/v1">
            <gpxtpx:hr>174</gpxtpx:hr>
          </gpxtpx:TrackPointExtension>
        </extensions>
      </trkpt>
      <trkpt lat="46.23465" lon="4.80811">
        <ele>168.40039</ele>
        <time>2026-05-13T14:08:42+02:00</time>
        <extensions>
          <gpxtpx:TrackPointExtension xmlns:gpxtpx="http://www.garmin.com/xmlschemas/TrackPointExtension/v1">
            <gpxtpx:hr>174</gpxtpx:hr>
          </gpxtpx:TrackPointExtension>
        </extensions>
      </trkpt>
      <trkpt lat="46.2347" lon="4.80816">
        <ele>168.5</ele>
        <time>2026-05-13T14:08:43+02:00</time>
        <extensions>
          <gpxtpx:TrackPointExtension xmlns:gpxtpx="http://www.garmin.com/xmlschemas/TrackPointExtension/v1">
            <gpxtpx:hr>175</gpxtpx:hr>
          </gpxtpx:TrackPointExtension>
        </extensions>
      </trkpt>
      <trkpt lat="46.23475" lon="4.80821">
        <ele>168.40039</ele>
        <time>2026-05-13T14:08:44+02:00</time>
        <extensions>
          <gpxtpx:TrackPointExtension xmlns:gpxtpx="http://www.garmin.com/xmlschemas/TrackPointExtension/v1">
            <gpxtpx:hr>175</gpxtpx:hr>
          </gpxtpx:TrackPointExtension>
        </extensions>
      </trkpt>
      <trkpt lat="46.2348" lon="4.80826">
        <ele>168.5</ele>
        <time>2026-05-13T14:08:45+02:00</time>
        <extensions>
          <gpxtpx:TrackPointExtension xmlns:gpxtpx="http://www.garmin.com/xmlschemas/TrackPointExtension/v1">
            <gpxtpx:hr>175</gpxtpx:hr>
          </gpxtpx:TrackPointExtension>
        </extensions>
      </trkpt>
      <trkpt lat="46.23484" lon="4.80831">
        <ele>168.40039</ele>
        <time>2026-05-13T14:08:46+02:00</time>
        <extensions>
          <gpxtpx:TrackPointExtension xmlns:gpxtpx="http://www.garmin.com/xmlschemas/TrackPointExtension/v1">
            <gpxtpx:hr>175</gpxtpx:hr>
          </gpxtpx:TrackPointExtension>
        </extensions>
      </trkpt>
      <trkpt lat="46.23489" lon="4.80836">
        <ele>168.5</ele>
        <time>2026-05-13T14:08:47+02:00</time>
        <extensions>
          <gpxtpx:TrackPointExtension xmlns:gpxtpx="http://www.garmin.com/xmlschemas/TrackPointExtension/v1">
            <gpxtpx:hr>175</gpxtpx:hr>
          </gpxtpx:TrackPointExtension>
        </extensions>
      </trkpt>
      <trkpt lat="46.23494" lon="4.80841">
        <ele>168.60059</ele>
        <time>2026-05-13T14:08:48+02:00</time>
        <extensions>
          <gpxtpx:TrackPointExtension xmlns:gpxtpx="http://www.garmin.com/xmlschemas/TrackPointExtension/v1">
            <gpxtpx:hr>175</gpxtpx:hr>
          </gpxtpx:TrackPointExtension>
        </extensions>
      </trkpt>
      <trkpt lat="46.23499" lon="4.80846">
        <ele>168.5</ele>
        <time>2026-05-13T14:08:49+02:00</time>
        <extensions>
          <gpxtpx:TrackPointExtension xmlns:gpxtpx="http://www.garmin.com/xmlschemas/TrackPointExtension/v1">
            <gpxtpx:hr>176</gpxtpx:hr>
          </gpxtpx:TrackPointExtension>
        </extensions>
      </trkpt>
      <trkpt lat="46.23504" lon="4.80851">
        <ele>168.60059</ele>
        <time>2026-05-13T14:08:50+02:00</time>
        <extensions>
          <gpxtpx:TrackPointExtension xmlns:gpxtpx="http://www.garmin.com/xmlschemas/TrackPointExtension/v1">
            <gpxtpx:hr>176</gpxtpx:hr>
          </gpxtpx:TrackPointExtension>
        </extensions>
      </trkpt>
      <trkpt lat="46.23509" lon="4.80855">
        <ele>168.5</ele>
        <time>2026-05-13T14:08:51+02:00</time>
        <extensions>
          <gpxtpx:TrackPointExtension xmlns:gpxtpx="http://www.garmin.com/xmlschemas/TrackPointExtension/v1">
            <gpxtpx:hr>176</gpxtpx:hr>
          </gpxtpx:TrackPointExtension>
        </extensions>
      </trkpt>
      <trkpt lat="46.23515" lon="4.8086">
        <ele>168.60059</ele>
        <time>2026-05-13T14:08:52+02:00</time>
        <extensions>
          <gpxtpx:TrackPointExtension xmlns:gpxtpx="http://www.garmin.com/xmlschemas/TrackPointExtension/v1">
            <gpxtpx:hr>175</gpxtpx:hr>
          </gpxtpx:TrackPointExtension>
        </extensions>
      </trkpt>
      <trkpt lat="46.2352" lon="4.80864">
        <ele>168.5</ele>
        <time>2026-05-13T14:08:53+02:00</time>
        <extensions>
          <gpxtpx:TrackPointExtension xmlns:gpxtpx="http://www.garmin.com/xmlschemas/TrackPointExtension/v1">
            <gpxtpx:hr>176</gpxtpx:hr>
          </gpxtpx:TrackPointExtension>
        </extensions>
      </trkpt>
      <trkpt lat="46.23526" lon="4.80868">
        <ele>168.5</ele>
        <time>2026-05-13T14:08:54+02:00</time>
        <extensions>
          <gpxtpx:TrackPointExtension xmlns:gpxtpx="http://www.garmin.com/xmlschemas/TrackPointExtension/v1">
            <gpxtpx:hr>176</gpxtpx:hr>
          </gpxtpx:TrackPointExtension>
        </extensions>
      </trkpt>
      <trkpt lat="46.23531" lon="4.80873">
        <ele>168.40039</ele>
        <time>2026-05-13T14:08:55+02:00</time>
        <extensions>
          <gpxtpx:TrackPointExtension xmlns:gpxtpx="http://www.garmin.com/xmlschemas/TrackPointExtension/v1">
            <gpxtpx:hr>176</gpxtpx:hr>
          </gpxtpx:TrackPointExtension>
        </extensions>
      </trkpt>
      <trkpt lat="46.23536" lon="4.80878">
        <ele>168.5</ele>
        <time>2026-05-13T14:08:56+02:00</time>
        <extensions>
          <gpxtpx:TrackPointExtension xmlns:gpxtpx="http://www.garmin.com/xmlschemas/TrackPointExtension/v1">
            <gpxtpx:hr>176</gpxtpx:hr>
          </gpxtpx:TrackPointExtension>
        </extensions>
      </trkpt>
      <trkpt lat="46.23542" lon="4.80882">
        <ele>168.5</ele>
        <time>2026-05-13T14:08:57+02:00</time>
        <extensions>
          <gpxtpx:TrackPointExtension xmlns:gpxtpx="http://www.garmin.com/xmlschemas/TrackPointExtension/v1">
            <gpxtpx:hr>176</gpxtpx:hr>
          </gpxtpx:TrackPointExtension>
        </extensions>
      </trkpt>
      <trkpt lat="46.23547" lon="4.80887">
        <ele>168.5</ele>
        <time>2026-05-13T14:08:58+02:00</time>
        <extensions>
          <gpxtpx:TrackPointExtension xmlns:gpxtpx="http://www.garmin.com/xmlschemas/TrackPointExtension/v1">
            <gpxtpx:hr>177</gpxtpx:hr>
          </gpxtpx:TrackPointExtension>
        </extensions>
      </trkpt>
      <trkpt lat="46.23552" lon="4.80892">
        <ele>168.40039</ele>
        <time>2026-05-13T14:08:59+02:00</time>
        <extensions>
          <gpxtpx:TrackPointExtension xmlns:gpxtpx="http://www.garmin.com/xmlschemas/TrackPointExtension/v1">
            <gpxtpx:hr>176</gpxtpx:hr>
          </gpxtpx:TrackPointExtension>
        </extensions>
      </trkpt>
      <trkpt lat="46.23557" lon="4.80896">
        <ele>168.40039</ele>
        <time>2026-05-13T14:09:00+02:00</time>
        <extensions>
          <gpxtpx:TrackPointExtension xmlns:gpxtpx="http://www.garmin.com/xmlschemas/TrackPointExtension/v1">
            <gpxtpx:hr>176</gpxtpx:hr>
          </gpxtpx:TrackPointExtension>
        </extensions>
      </trkpt>
      <trkpt lat="46.23562" lon="4.80901">
        <ele>168.40039</ele>
        <time>2026-05-13T14:09:01+02:00</time>
        <extensions>
          <gpxtpx:TrackPointExtension xmlns:gpxtpx="http://www.garmin.com/xmlschemas/TrackPointExtension/v1">
            <gpxtpx:hr>176</gpxtpx:hr>
          </gpxtpx:TrackPointExtension>
        </extensions>
      </trkpt>
      <trkpt lat="46.23567" lon="4.80905">
        <ele>168.2998</ele>
        <time>2026-05-13T14:09:02+02:00</time>
        <extensions>
          <gpxtpx:TrackPointExtension xmlns:gpxtpx="http://www.garmin.com/xmlschemas/TrackPointExtension/v1">
            <gpxtpx:hr>177</gpxtpx:hr>
          </gpxtpx:TrackPointExtension>
        </extensions>
      </trkpt>
      <trkpt lat="46.23573" lon="4.80909">
        <ele>168.2998</ele>
        <time>2026-05-13T14:09:03+02:00</time>
        <extensions>
          <gpxtpx:TrackPointExtension xmlns:gpxtpx="http://www.garmin.com/xmlschemas/TrackPointExtension/v1">
            <gpxtpx:hr>176</gpxtpx:hr>
          </gpxtpx:TrackPointExtension>
        </extensions>
      </trkpt>
      <trkpt lat="46.23578" lon="4.80913">
        <ele>168.2998</ele>
        <time>2026-05-13T14:09:04+02:00</time>
        <extensions>
          <gpxtpx:TrackPointExtension xmlns:gpxtpx="http://www.garmin.com/xmlschemas/TrackPointExtension/v1">
            <gpxtpx:hr>176</gpxtpx:hr>
          </gpxtpx:TrackPointExtension>
        </extensions>
      </trkpt>
      <trkpt lat="46.23583" lon="4.80918">
        <ele>168.2998</ele>
        <time>2026-05-13T14:09:05+02:00</time>
        <extensions>
          <gpxtpx:TrackPointExtension xmlns:gpxtpx="http://www.garmin.com/xmlschemas/TrackPointExtension/v1">
            <gpxtpx:hr>176</gpxtpx:hr>
          </gpxtpx:TrackPointExtension>
        </extensions>
      </trkpt>
      <trkpt lat="46.23588" lon="4.80922">
        <ele>168.2998</ele>
        <time>2026-05-13T14:09:06+02:00</time>
        <extensions>
          <gpxtpx:TrackPointExtension xmlns:gpxtpx="http://www.garmin.com/xmlschemas/TrackPointExtension/v1">
            <gpxtpx:hr>176</gpxtpx:hr>
          </gpxtpx:TrackPointExtension>
        </extensions>
      </trkpt>
      <trkpt lat="46.23594" lon="4.80926">
        <ele>168.2002</ele>
        <time>2026-05-13T14:09:07+02:00</time>
        <extensions>
          <gpxtpx:TrackPointExtension xmlns:gpxtpx="http://www.garmin.com/xmlschemas/TrackPointExtension/v1">
            <gpxtpx:hr>176</gpxtpx:hr>
          </gpxtpx:TrackPointExtension>
        </extensions>
      </trkpt>
      <trkpt lat="46.23599" lon="4.8093">
        <ele>168.2002</ele>
        <time>2026-05-13T14:09:08+02:00</time>
        <extensions>
          <gpxtpx:TrackPointExtension xmlns:gpxtpx="http://www.garmin.com/xmlschemas/TrackPointExtension/v1">
            <gpxtpx:hr>175</gpxtpx:hr>
          </gpxtpx:TrackPointExtension>
        </extensions>
      </trkpt>
      <trkpt lat="46.23604" lon="4.80934">
        <ele>168.2002</ele>
        <time>2026-05-13T14:09:09+02:00</time>
        <extensions>
          <gpxtpx:TrackPointExtension xmlns:gpxtpx="http://www.garmin.com/xmlschemas/TrackPointExtension/v1">
            <gpxtpx:hr>175</gpxtpx:hr>
          </gpxtpx:TrackPointExtension>
        </extensions>
      </trkpt>
      <trkpt lat="46.2361" lon="4.80938">
        <ele>168.2002</ele>
        <time>2026-05-13T14:09:10+02:00</time>
        <extensions>
          <gpxtpx:TrackPointExtension xmlns:gpxtpx="http://www.garmin.com/xmlschemas/TrackPointExtension/v1">
            <gpxtpx:hr>176</gpxtpx:hr>
          </gpxtpx:TrackPointExtension>
        </extensions>
      </trkpt>
      <trkpt lat="46.23615" lon="4.80942">
        <ele>168.2002</ele>
        <time>2026-05-13T14:09:11+02:00</time>
        <extensions>
          <gpxtpx:TrackPointExtension xmlns:gpxtpx="http://www.garmin.com/xmlschemas/TrackPointExtension/v1">
            <gpxtpx:hr>175</gpxtpx:hr>
          </gpxtpx:TrackPointExtension>
        </extensions>
      </trkpt>
      <trkpt lat="46.2362" lon="4.80946">
        <ele>168.2002</ele>
        <time>2026-05-13T14:09:12+02:00</time>
        <extensions>
          <gpxtpx:TrackPointExtension xmlns:gpxtpx="http://www.garmin.com/xmlschemas/TrackPointExtension/v1">
            <gpxtpx:hr>175</gpxtpx:hr>
          </gpxtpx:TrackPointExtension>
        </extensions>
      </trkpt>
      <trkpt lat="46.23626" lon="4.8095">
        <ele>168.2002</ele>
        <time>2026-05-13T14:09:13+02:00</time>
        <extensions>
          <gpxtpx:TrackPointExtension xmlns:gpxtpx="http://www.garmin.com/xmlschemas/TrackPointExtension/v1">
            <gpxtpx:hr>174</gpxtpx:hr>
          </gpxtpx:TrackPointExtension>
        </extensions>
      </trkpt>
      <trkpt lat="46.23631" lon="4.80954">
        <ele>168.2002</ele>
        <time>2026-05-13T14:09:14+02:00</time>
        <extensions>
          <gpxtpx:TrackPointExtension xmlns:gpxtpx="http://www.garmin.com/xmlschemas/TrackPointExtension/v1">
            <gpxtpx:hr>174</gpxtpx:hr>
          </gpxtpx:TrackPointExtension>
        </extensions>
      </trkpt>
      <trkpt lat="46.23637" lon="4.80957">
        <ele>168.2002</ele>
        <time>2026-05-13T14:09:15+02:00</time>
        <extensions>
          <gpxtpx:TrackPointExtension xmlns:gpxtpx="http://www.garmin.com/xmlschemas/TrackPointExtension/v1">
            <gpxtpx:hr>174</gpxtpx:hr>
          </gpxtpx:TrackPointExtension>
        </extensions>
      </trkpt>
      <trkpt lat="46.23642" lon="4.80961">
        <ele>168.2002</ele>
        <time>2026-05-13T14:09:16+02:00</time>
        <extensions>
          <gpxtpx:TrackPointExtension xmlns:gpxtpx="http://www.garmin.com/xmlschemas/TrackPointExtension/v1">
            <gpxtpx:hr>175</gpxtpx:hr>
          </gpxtpx:TrackPointExtension>
        </extensions>
      </trkpt>
      <trkpt lat="46.23647" lon="4.80965">
        <ele>168.2002</ele>
        <time>2026-05-13T14:09:17+02:00</time>
        <extensions>
          <gpxtpx:TrackPointExtension xmlns:gpxtpx="http://www.garmin.com/xmlschemas/TrackPointExtension/v1">
            <gpxtpx:hr>175</gpxtpx:hr>
          </gpxtpx:TrackPointExtension>
        </extensions>
      </trkpt>
      <trkpt lat="46.23652" lon="4.80969">
        <ele>168.2002</ele>
        <time>2026-05-13T14:09:18+02:00</time>
        <extensions>
          <gpxtpx:TrackPointExtension xmlns:gpxtpx="http://www.garmin.com/xmlschemas/TrackPointExtension/v1">
            <gpxtpx:hr>174</gpxtpx:hr>
          </gpxtpx:TrackPointExtension>
        </extensions>
      </trkpt>
      <trkpt lat="46.23658" lon="4.80973">
        <ele>168.2002</ele>
        <time>2026-05-13T14:09:19+02:00</time>
        <extensions>
          <gpxtpx:TrackPointExtension xmlns:gpxtpx="http://www.garmin.com/xmlschemas/TrackPointExtension/v1">
            <gpxtpx:hr>174</gpxtpx:hr>
          </gpxtpx:TrackPointExtension>
        </extensions>
      </trkpt>
      <trkpt lat="46.23664" lon="4.80977">
        <ele>168.2002</ele>
        <time>2026-05-13T14:09:20+02:00</time>
        <extensions>
          <gpxtpx:TrackPointExtension xmlns:gpxtpx="http://www.garmin.com/xmlschemas/TrackPointExtension/v1">
            <gpxtpx:hr>174</gpxtpx:hr>
          </gpxtpx:TrackPointExtension>
        </extensions>
      </trkpt>
      <trkpt lat="46.2367" lon="4.80981">
        <ele>168.2002</ele>
        <time>2026-05-13T14:09:21+02:00</time>
        <extensions>
          <gpxtpx:TrackPointExtension xmlns:gpxtpx="http://www.garmin.com/xmlschemas/TrackPointExtension/v1">
            <gpxtpx:hr>174</gpxtpx:hr>
          </gpxtpx:TrackPointExtension>
        </extensions>
      </trkpt>
      <trkpt lat="46.23675" lon="4.80984">
        <ele>168.2002</ele>
        <time>2026-05-13T14:09:22+02:00</time>
        <extensions>
          <gpxtpx:TrackPointExtension xmlns:gpxtpx="http://www.garmin.com/xmlschemas/TrackPointExtension/v1">
            <gpxtpx:hr>175</gpxtpx:hr>
          </gpxtpx:TrackPointExtension>
        </extensions>
      </trkpt>
      <trkpt lat="46.23681" lon="4.80989">
        <ele>168.2002</ele>
        <time>2026-05-13T14:09:23+02:00</time>
        <extensions>
          <gpxtpx:TrackPointExtension xmlns:gpxtpx="http://www.garmin.com/xmlschemas/TrackPointExtension/v1">
            <gpxtpx:hr>175</gpxtpx:hr>
          </gpxtpx:TrackPointExtension>
        </extensions>
      </trkpt>
      <trkpt lat="46.23686" lon="4.80993">
        <ele>168.2002</ele>
        <time>2026-05-13T14:09:24+02:00</time>
        <extensions>
          <gpxtpx:TrackPointExtension xmlns:gpxtpx="http://www.garmin.com/xmlschemas/TrackPointExtension/v1">
            <gpxtpx:hr>175</gpxtpx:hr>
          </gpxtpx:TrackPointExtension>
        </extensions>
      </trkpt>
      <trkpt lat="46.23692" lon="4.80996">
        <ele>168.2998</ele>
        <time>2026-05-13T14:09:25+02:00</time>
        <extensions>
          <gpxtpx:TrackPointExtension xmlns:gpxtpx="http://www.garmin.com/xmlschemas/TrackPointExtension/v1">
            <gpxtpx:hr>175</gpxtpx:hr>
          </gpxtpx:TrackPointExtension>
        </extensions>
      </trkpt>
      <trkpt lat="46.23698" lon="4.81">
        <ele>168.2998</ele>
        <time>2026-05-13T14:09:26+02:00</time>
        <extensions>
          <gpxtpx:TrackPointExtension xmlns:gpxtpx="http://www.garmin.com/xmlschemas/TrackPointExtension/v1">
            <gpxtpx:hr>175</gpxtpx:hr>
          </gpxtpx:TrackPointExtension>
        </extensions>
      </trkpt>
      <trkpt lat="46.23704" lon="4.81003">
        <ele>168.2998</ele>
        <time>2026-05-13T14:09:27+02:00</time>
        <extensions>
          <gpxtpx:TrackPointExtension xmlns:gpxtpx="http://www.garmin.com/xmlschemas/TrackPointExtension/v1">
            <gpxtpx:hr>175</gpxtpx:hr>
          </gpxtpx:TrackPointExtension>
        </extensions>
      </trkpt>
      <trkpt lat="46.23709" lon="4.81007">
        <ele>168.2998</ele>
        <time>2026-05-13T14:09:28+02:00</time>
        <extensions>
          <gpxtpx:TrackPointExtension xmlns:gpxtpx="http://www.garmin.com/xmlschemas/TrackPointExtension/v1">
            <gpxtpx:hr>176</gpxtpx:hr>
          </gpxtpx:TrackPointExtension>
        </extensions>
      </trkpt>
      <trkpt lat="46.23715" lon="4.8101">
        <ele>168.2998</ele>
        <time>2026-05-13T14:09:29+02:00</time>
        <extensions>
          <gpxtpx:TrackPointExtension xmlns:gpxtpx="http://www.garmin.com/xmlschemas/TrackPointExtension/v1">
            <gpxtpx:hr>176</gpxtpx:hr>
          </gpxtpx:TrackPointExtension>
        </extensions>
      </trkpt>
      <trkpt lat="46.2372" lon="4.81013">
        <ele>168.40039</ele>
        <time>2026-05-13T14:09:30+02:00</time>
        <extensions>
          <gpxtpx:TrackPointExtension xmlns:gpxtpx="http://www.garmin.com/xmlschemas/TrackPointExtension/v1">
            <gpxtpx:hr>176</gpxtpx:hr>
          </gpxtpx:TrackPointExtension>
        </extensions>
      </trkpt>
      <trkpt lat="46.23726" lon="4.81016">
        <ele>168.40039</ele>
        <time>2026-05-13T14:09:31+02:00</time>
        <extensions>
          <gpxtpx:TrackPointExtension xmlns:gpxtpx="http://www.garmin.com/xmlschemas/TrackPointExtension/v1">
            <gpxtpx:hr>176</gpxtpx:hr>
          </gpxtpx:TrackPointExtension>
        </extensions>
      </trkpt>
      <trkpt lat="46.23732" lon="4.81019">
        <ele>168.40039</ele>
        <time>2026-05-13T14:09:32+02:00</time>
        <extensions>
          <gpxtpx:TrackPointExtension xmlns:gpxtpx="http://www.garmin.com/xmlschemas/TrackPointExtension/v1">
            <gpxtpx:hr>175</gpxtpx:hr>
          </gpxtpx:TrackPointExtension>
        </extensions>
      </trkpt>
      <trkpt lat="46.23737" lon="4.81022">
        <ele>168.5</ele>
        <time>2026-05-13T14:09:33+02:00</time>
        <extensions>
          <gpxtpx:TrackPointExtension xmlns:gpxtpx="http://www.garmin.com/xmlschemas/TrackPointExtension/v1">
            <gpxtpx:hr>176</gpxtpx:hr>
          </gpxtpx:TrackPointExtension>
        </extensions>
      </trkpt>
      <trkpt lat="46.23743" lon="4.81025">
        <ele>168.5</ele>
        <time>2026-05-13T14:09:34+02:00</time>
        <extensions>
          <gpxtpx:TrackPointExtension xmlns:gpxtpx="http://www.garmin.com/xmlschemas/TrackPointExtension/v1">
            <gpxtpx:hr>177</gpxtpx:hr>
          </gpxtpx:TrackPointExtension>
        </extensions>
      </trkpt>
      <trkpt lat="46.23748" lon="4.81027">
        <ele>168.5</ele>
        <time>2026-05-13T14:09:35+02:00</time>
        <extensions>
          <gpxtpx:TrackPointExtension xmlns:gpxtpx="http://www.garmin.com/xmlschemas/TrackPointExtension/v1">
            <gpxtpx:hr>176</gpxtpx:hr>
          </gpxtpx:TrackPointExtension>
        </extensions>
      </trkpt>
      <trkpt lat="46.23754" lon="4.8103">
        <ele>168.60059</ele>
        <time>2026-05-13T14:09:36+02:00</time>
        <extensions>
          <gpxtpx:TrackPointExtension xmlns:gpxtpx="http://www.garmin.com/xmlschemas/TrackPointExtension/v1">
            <gpxtpx:hr>176</gpxtpx:hr>
          </gpxtpx:TrackPointExtension>
        </extensions>
      </trkpt>
      <trkpt lat="46.2376" lon="4.81033">
        <ele>168.60059</ele>
        <time>2026-05-13T14:09:37+02:00</time>
        <extensions>
          <gpxtpx:TrackPointExtension xmlns:gpxtpx="http://www.garmin.com/xmlschemas/TrackPointExtension/v1">
            <gpxtpx:hr>177</gpxtpx:hr>
          </gpxtpx:TrackPointExtension>
        </extensions>
      </trkpt>
      <trkpt lat="46.23765" lon="4.81035">
        <ele>168.60059</ele>
        <time>2026-05-13T14:09:38+02:00</time>
        <extensions>
          <gpxtpx:TrackPointExtension xmlns:gpxtpx="http://www.garmin.com/xmlschemas/TrackPointExtension/v1">
            <gpxtpx:hr>176</gpxtpx:hr>
          </gpxtpx:TrackPointExtension>
        </extensions>
      </trkpt>
      <trkpt lat="46.23771" lon="4.81038">
        <ele>168.60059</ele>
        <time>2026-05-13T14:09:39+02:00</time>
        <extensions>
          <gpxtpx:TrackPointExtension xmlns:gpxtpx="http://www.garmin.com/xmlschemas/TrackPointExtension/v1">
            <gpxtpx:hr>176</gpxtpx:hr>
          </gpxtpx:TrackPointExtension>
        </extensions>
      </trkpt>
      <trkpt lat="46.23777" lon="4.81041">
        <ele>168.7998</ele>
        <time>2026-05-13T14:09:40+02:00</time>
        <extensions>
          <gpxtpx:TrackPointExtension xmlns:gpxtpx="http://www.garmin.com/xmlschemas/TrackPointExtension/v1">
            <gpxtpx:hr>176</gpxtpx:hr>
          </gpxtpx:TrackPointExtension>
        </extensions>
      </trkpt>
      <trkpt lat="46.23782" lon="4.81043">
        <ele>168.7998</ele>
        <time>2026-05-13T14:09:41+02:00</time>
        <extensions>
          <gpxtpx:TrackPointExtension xmlns:gpxtpx="http://www.garmin.com/xmlschemas/TrackPointExtension/v1">
            <gpxtpx:hr>176</gpxtpx:hr>
          </gpxtpx:TrackPointExtension>
        </extensions>
      </trkpt>
      <trkpt lat="46.23787" lon="4.81046">
        <ele>168.7002</ele>
        <time>2026-05-13T14:09:42+02:00</time>
        <extensions>
          <gpxtpx:TrackPointExtension xmlns:gpxtpx="http://www.garmin.com/xmlschemas/TrackPointExtension/v1">
            <gpxtpx:hr>177</gpxtpx:hr>
          </gpxtpx:TrackPointExtension>
        </extensions>
      </trkpt>
      <trkpt lat="46.23793" lon="4.81049">
        <ele>168.90039</ele>
        <time>2026-05-13T14:09:43+02:00</time>
        <extensions>
          <gpxtpx:TrackPointExtension xmlns:gpxtpx="http://www.garmin.com/xmlschemas/TrackPointExtension/v1">
            <gpxtpx:hr>176</gpxtpx:hr>
          </gpxtpx:TrackPointExtension>
        </extensions>
      </trkpt>
      <trkpt lat="46.23799" lon="4.81051">
        <ele>168.7998</ele>
        <time>2026-05-13T14:09:44+02:00</time>
        <extensions>
          <gpxtpx:TrackPointExtension xmlns:gpxtpx="http://www.garmin.com/xmlschemas/TrackPointExtension/v1">
            <gpxtpx:hr>176</gpxtpx:hr>
          </gpxtpx:TrackPointExtension>
        </extensions>
      </trkpt>
      <trkpt lat="46.23804" lon="4.81054">
        <ele>168.7998</ele>
        <time>2026-05-13T14:09:45+02:00</time>
        <extensions>
          <gpxtpx:TrackPointExtension xmlns:gpxtpx="http://www.garmin.com/xmlschemas/TrackPointExtension/v1">
            <gpxtpx:hr>177</gpxtpx:hr>
          </gpxtpx:TrackPointExtension>
        </extensions>
      </trkpt>
      <trkpt lat="46.2381" lon="4.81056">
        <ele>169</ele>
        <time>2026-05-13T14:09:46+02:00</time>
        <extensions>
          <gpxtpx:TrackPointExtension xmlns:gpxtpx="http://www.garmin.com/xmlschemas/TrackPointExtension/v1">
            <gpxtpx:hr>176</gpxtpx:hr>
          </gpxtpx:TrackPointExtension>
        </extensions>
      </trkpt>
      <trkpt lat="46.23815" lon="4.81058">
        <ele>169</ele>
        <time>2026-05-13T14:09:47+02:00</time>
        <extensions>
          <gpxtpx:TrackPointExtension xmlns:gpxtpx="http://www.garmin.com/xmlschemas/TrackPointExtension/v1">
            <gpxtpx:hr>176</gpxtpx:hr>
          </gpxtpx:TrackPointExtension>
        </extensions>
      </trkpt>
      <trkpt lat="46.23821" lon="4.8106">
        <ele>168.90039</ele>
        <time>2026-05-13T14:09:48+02:00</time>
        <extensions>
          <gpxtpx:TrackPointExtension xmlns:gpxtpx="http://www.garmin.com/xmlschemas/TrackPointExtension/v1">
            <gpxtpx:hr>176</gpxtpx:hr>
          </gpxtpx:TrackPointExtension>
        </extensions>
      </trkpt>
      <trkpt lat="46.23826" lon="4.81062">
        <ele>168.7998</ele>
        <time>2026-05-13T14:09:49+02:00</time>
        <extensions>
          <gpxtpx:TrackPointExtension xmlns:gpxtpx="http://www.garmin.com/xmlschemas/TrackPointExtension/v1">
            <gpxtpx:hr>176</gpxtpx:hr>
          </gpxtpx:TrackPointExtension>
        </extensions>
      </trkpt>
      <trkpt lat="46.23832" lon="4.81064">
        <ele>168.90039</ele>
        <time>2026-05-13T14:09:50+02:00</time>
        <extensions>
          <gpxtpx:TrackPointExtension xmlns:gpxtpx="http://www.garmin.com/xmlschemas/TrackPointExtension/v1">
            <gpxtpx:hr>176</gpxtpx:hr>
          </gpxtpx:TrackPointExtension>
        </extensions>
      </trkpt>
      <trkpt lat="46.23837" lon="4.81066">
        <ele>168.7998</ele>
        <time>2026-05-13T14:09:51+02:00</time>
        <extensions>
          <gpxtpx:TrackPointExtension xmlns:gpxtpx="http://www.garmin.com/xmlschemas/TrackPointExtension/v1">
            <gpxtpx:hr>177</gpxtpx:hr>
          </gpxtpx:TrackPointExtension>
        </extensions>
      </trkpt>
      <trkpt lat="46.23843" lon="4.81068">
        <ele>168.7998</ele>
        <time>2026-05-13T14:09:52+02:00</time>
        <extensions>
          <gpxtpx:TrackPointExtension xmlns:gpxtpx="http://www.garmin.com/xmlschemas/TrackPointExtension/v1">
            <gpxtpx:hr>177</gpxtpx:hr>
          </gpxtpx:TrackPointExtension>
        </extensions>
      </trkpt>
      <trkpt lat="46.23848" lon="4.81069">
        <ele>168.7002</ele>
        <time>2026-05-13T14:09:53+02:00</time>
        <extensions>
          <gpxtpx:TrackPointExtension xmlns:gpxtpx="http://www.garmin.com/xmlschemas/TrackPointExtension/v1">
            <gpxtpx:hr>177</gpxtpx:hr>
          </gpxtpx:TrackPointExtension>
        </extensions>
      </trkpt>
      <trkpt lat="46.23853" lon="4.81071">
        <ele>168.7002</ele>
        <time>2026-05-13T14:09:54+02:00</time>
        <extensions>
          <gpxtpx:TrackPointExtension xmlns:gpxtpx="http://www.garmin.com/xmlschemas/TrackPointExtension/v1">
            <gpxtpx:hr>177</gpxtpx:hr>
          </gpxtpx:TrackPointExtension>
        </extensions>
      </trkpt>
      <trkpt lat="46.23859" lon="4.81073">
        <ele>168.90039</ele>
        <time>2026-05-13T14:09:55+02:00</time>
        <extensions>
          <gpxtpx:TrackPointExtension xmlns:gpxtpx="http://www.garmin.com/xmlschemas/TrackPointExtension/v1">
            <gpxtpx:hr>176</gpxtpx:hr>
          </gpxtpx:TrackPointExtension>
        </extensions>
      </trkpt>
      <trkpt lat="46.23865" lon="4.81074">
        <ele>168.90039</ele>
        <time>2026-05-13T14:09:56+02:00</time>
        <extensions>
          <gpxtpx:TrackPointExtension xmlns:gpxtpx="http://www.garmin.com/xmlschemas/TrackPointExtension/v1">
            <gpxtpx:hr>176</gpxtpx:hr>
          </gpxtpx:TrackPointExtension>
        </extensions>
      </trkpt>
      <trkpt lat="46.23871" lon="4.81076">
        <ele>169</ele>
        <time>2026-05-13T14:09:57+02:00</time>
        <extensions>
          <gpxtpx:TrackPointExtension xmlns:gpxtpx="http://www.garmin.com/xmlschemas/TrackPointExtension/v1">
            <gpxtpx:hr>176</gpxtpx:hr>
          </gpxtpx:TrackPointExtension>
        </extensions>
      </trkpt>
      <trkpt lat="46.23876" lon="4.81077">
        <ele>169.10059</ele>
        <time>2026-05-13T14:09:58+02:00</time>
        <extensions>
          <gpxtpx:TrackPointExtension xmlns:gpxtpx="http://www.garmin.com/xmlschemas/TrackPointExtension/v1">
            <gpxtpx:hr>175</gpxtpx:hr>
          </gpxtpx:TrackPointExtension>
        </extensions>
      </trkpt>
      <trkpt lat="46.23882" lon="4.81079">
        <ele>169.10059</ele>
        <time>2026-05-13T14:09:59+02:00</time>
        <extensions>
          <gpxtpx:TrackPointExtension xmlns:gpxtpx="http://www.garmin.com/xmlschemas/TrackPointExtension/v1">
            <gpxtpx:hr>176</gpxtpx:hr>
          </gpxtpx:TrackPointExtension>
        </extensions>
      </trkpt>
      <trkpt lat="46.23887" lon="4.8108">
        <ele>169.10059</ele>
        <time>2026-05-13T14:10:00+02:00</time>
        <extensions>
          <gpxtpx:TrackPointExtension xmlns:gpxtpx="http://www.garmin.com/xmlschemas/TrackPointExtension/v1">
            <gpxtpx:hr>175</gpxtpx:hr>
          </gpxtpx:TrackPointExtension>
        </extensions>
      </trkpt>
      <trkpt lat="46.23893" lon="4.81081">
        <ele>169.10059</ele>
        <time>2026-05-13T14:10:01+02:00</time>
        <extensions>
          <gpxtpx:TrackPointExtension xmlns:gpxtpx="http://www.garmin.com/xmlschemas/TrackPointExtension/v1">
            <gpxtpx:hr>176</gpxtpx:hr>
          </gpxtpx:TrackPointExtension>
        </extensions>
      </trkpt>
      <trkpt lat="46.23898" lon="4.81083">
        <ele>169.5</ele>
        <time>2026-05-13T14:10:02+02:00</time>
        <extensions>
          <gpxtpx:TrackPointExtension xmlns:gpxtpx="http://www.garmin.com/xmlschemas/TrackPointExtension/v1">
            <gpxtpx:hr>175</gpxtpx:hr>
          </gpxtpx:TrackPointExtension>
        </extensions>
      </trkpt>
      <trkpt lat="46.23904" lon="4.81084">
        <ele>169.5</ele>
        <time>2026-05-13T14:10:03+02:00</time>
        <extensions>
          <gpxtpx:TrackPointExtension xmlns:gpxtpx="http://www.garmin.com/xmlschemas/TrackPointExtension/v1">
            <gpxtpx:hr>176</gpxtpx:hr>
          </gpxtpx:TrackPointExtension>
        </extensions>
      </trkpt>
      <trkpt lat="46.2391" lon="4.81085">
        <ele>169.5</ele>
        <time>2026-05-13T14:10:04+02:00</time>
        <extensions>
          <gpxtpx:TrackPointExtension xmlns:gpxtpx="http://www.garmin.com/xmlschemas/TrackPointExtension/v1">
            <gpxtpx:hr>175</gpxtpx:hr>
          </gpxtpx:TrackPointExtension>
        </extensions>
      </trkpt>
      <trkpt lat="46.23915" lon="4.81087">
        <ele>169.5</ele>
        <time>2026-05-13T14:10:05+02:00</time>
        <extensions>
          <gpxtpx:TrackPointExtension xmlns:gpxtpx="http://www.garmin.com/xmlschemas/TrackPointExtension/v1">
            <gpxtpx:hr>177</gpxtpx:hr>
          </gpxtpx:TrackPointExtension>
        </extensions>
      </trkpt>
      <trkpt lat="46.2392" lon="4.81088">
        <ele>169.5</ele>
        <time>2026-05-13T14:10:06+02:00</time>
        <extensions>
          <gpxtpx:TrackPointExtension xmlns:gpxtpx="http://www.garmin.com/xmlschemas/TrackPointExtension/v1">
            <gpxtpx:hr>176</gpxtpx:hr>
          </gpxtpx:TrackPointExtension>
        </extensions>
      </trkpt>
      <trkpt lat="46.23926" lon="4.81089">
        <ele>169.60059</ele>
        <time>2026-05-13T14:10:07+02:00</time>
        <extensions>
          <gpxtpx:TrackPointExtension xmlns:gpxtpx="http://www.garmin.com/xmlschemas/TrackPointExtension/v1">
            <gpxtpx:hr>177</gpxtpx:hr>
          </gpxtpx:TrackPointExtension>
        </extensions>
      </trkpt>
      <trkpt lat="46.2393" lon="4.81091">
        <ele>170.40039</ele>
        <time>2026-05-13T14:10:08+02:00</time>
        <extensions>
          <gpxtpx:TrackPointExtension xmlns:gpxtpx="http://www.garmin.com/xmlschemas/TrackPointExtension/v1">
            <gpxtpx:hr>177</gpxtpx:hr>
          </gpxtpx:TrackPointExtension>
        </extensions>
      </trkpt>
      <trkpt lat="46.23936" lon="4.81093">
        <ele>170.60059</ele>
        <time>2026-05-13T14:10:09+02:00</time>
        <extensions>
          <gpxtpx:TrackPointExtension xmlns:gpxtpx="http://www.garmin.com/xmlschemas/TrackPointExtension/v1">
            <gpxtpx:hr>177</gpxtpx:hr>
          </gpxtpx:TrackPointExtension>
        </extensions>
      </trkpt>
      <trkpt lat="46.23941" lon="4.81094">
        <ele>170.7002</ele>
        <time>2026-05-13T14:10:10+02:00</time>
        <extensions>
          <gpxtpx:TrackPointExtension xmlns:gpxtpx="http://www.garmin.com/xmlschemas/TrackPointExtension/v1">
            <gpxtpx:hr>176</gpxtpx:hr>
          </gpxtpx:TrackPointExtension>
        </extensions>
      </trkpt>
      <trkpt lat="46.23947" lon="4.81095">
        <ele>170.7998</ele>
        <time>2026-05-13T14:10:11+02:00</time>
        <extensions>
          <gpxtpx:TrackPointExtension xmlns:gpxtpx="http://www.garmin.com/xmlschemas/TrackPointExtension/v1">
            <gpxtpx:hr>177</gpxtpx:hr>
          </gpxtpx:TrackPointExtension>
        </extensions>
      </trkpt>
      <trkpt lat="46.23951" lon="4.81097">
        <ele>170.7998</ele>
        <time>2026-05-13T14:10:12+02:00</time>
        <extensions>
          <gpxtpx:TrackPointExtension xmlns:gpxtpx="http://www.garmin.com/xmlschemas/TrackPointExtension/v1">
            <gpxtpx:hr>177</gpxtpx:hr>
          </gpxtpx:TrackPointExtension>
        </extensions>
      </trkpt>
      <trkpt lat="46.23957" lon="4.81098">
        <ele>170.90039</ele>
        <time>2026-05-13T14:10:13+02:00</time>
        <extensions>
          <gpxtpx:TrackPointExtension xmlns:gpxtpx="http://www.garmin.com/xmlschemas/TrackPointExtension/v1">
            <gpxtpx:hr>177</gpxtpx:hr>
          </gpxtpx:TrackPointExtension>
        </extensions>
      </trkpt>
      <trkpt lat="46.23962" lon="4.81099">
        <ele>171.90039</ele>
        <time>2026-05-13T14:10:14+02:00</time>
        <extensions>
          <gpxtpx:TrackPointExtension xmlns:gpxtpx="http://www.garmin.com/xmlschemas/TrackPointExtension/v1">
            <gpxtpx:hr>177</gpxtpx:hr>
          </gpxtpx:TrackPointExtension>
        </extensions>
      </trkpt>
      <trkpt lat="46.23968" lon="4.811">
        <ele>172.10059</ele>
        <time>2026-05-13T14:10:15+02:00</time>
        <extensions>
          <gpxtpx:TrackPointExtension xmlns:gpxtpx="http://www.garmin.com/xmlschemas/TrackPointExtension/v1">
            <gpxtpx:hr>177</gpxtpx:hr>
          </gpxtpx:TrackPointExtension>
        </extensions>
      </trkpt>
      <trkpt lat="46.23973" lon="4.81102">
        <ele>172.10059</ele>
        <time>2026-05-13T14:10:16+02:00</time>
        <extensions>
          <gpxtpx:TrackPointExtension xmlns:gpxtpx="http://www.garmin.com/xmlschemas/TrackPointExtension/v1">
            <gpxtpx:hr>177</gpxtpx:hr>
          </gpxtpx:TrackPointExtension>
        </extensions>
      </trkpt>
      <trkpt lat="46.23978" lon="4.81103">
        <ele>172.2998</ele>
        <time>2026-05-13T14:10:17+02:00</time>
        <extensions>
          <gpxtpx:TrackPointExtension xmlns:gpxtpx="http://www.garmin.com/xmlschemas/TrackPointExtension/v1">
            <gpxtpx:hr>178</gpxtpx:hr>
          </gpxtpx:TrackPointExtension>
        </extensions>
      </trkpt>
      <trkpt lat="46.23984" lon="4.81104">
        <ele>172.5</ele>
        <time>2026-05-13T14:10:18+02:00</time>
        <extensions>
          <gpxtpx:TrackPointExtension xmlns:gpxtpx="http://www.garmin.com/xmlschemas/TrackPointExtension/v1">
            <gpxtpx:hr>178</gpxtpx:hr>
          </gpxtpx:TrackPointExtension>
        </extensions>
      </trkpt>
      <trkpt lat="46.23989" lon="4.81106">
        <ele>172.5</ele>
        <time>2026-05-13T14:10:19+02:00</time>
        <extensions>
          <gpxtpx:TrackPointExtension xmlns:gpxtpx="http://www.garmin.com/xmlschemas/TrackPointExtension/v1">
            <gpxtpx:hr>178</gpxtpx:hr>
          </gpxtpx:TrackPointExtension>
        </extensions>
      </trkpt>
      <trkpt lat="46.23993" lon="4.81106">
        <ele>172.5</ele>
        <time>2026-05-13T14:10:20+02:00</time>
        <extensions>
          <gpxtpx:TrackPointExtension xmlns:gpxtpx="http://www.garmin.com/xmlschemas/TrackPointExtension/v1">
            <gpxtpx:hr>177</gpxtpx:hr>
          </gpxtpx:TrackPointExtension>
        </extensions>
      </trkpt>
      <trkpt lat="46.23998" lon="4.81105">
        <ele>172.2998</ele>
        <time>2026-05-13T14:10:21+02:00</time>
        <extensions>
          <gpxtpx:TrackPointExtension xmlns:gpxtpx="http://www.garmin.com/xmlschemas/TrackPointExtension/v1">
            <gpxtpx:hr>177</gpxtpx:hr>
          </gpxtpx:TrackPointExtension>
        </extensions>
      </trkpt>
      <trkpt lat="46.24002" lon="4.81102">
        <ele>171.7998</ele>
        <time>2026-05-13T14:10:22+02:00</time>
        <extensions>
          <gpxtpx:TrackPointExtension xmlns:gpxtpx="http://www.garmin.com/xmlschemas/TrackPointExtension/v1">
            <gpxtpx:hr>177</gpxtpx:hr>
          </gpxtpx:TrackPointExtension>
        </extensions>
      </trkpt>
      <trkpt lat="46.24006" lon="4.81099">
        <ele>171</ele>
        <time>2026-05-13T14:10:23+02:00</time>
        <extensions>
          <gpxtpx:TrackPointExtension xmlns:gpxtpx="http://www.garmin.com/xmlschemas/TrackPointExtension/v1">
            <gpxtpx:hr>176</gpxtpx:hr>
          </gpxtpx:TrackPointExtension>
        </extensions>
      </trkpt>
      <trkpt lat="46.24011" lon="4.81095">
        <ele>170.40039</ele>
        <time>2026-05-13T14:10:24+02:00</time>
        <extensions>
          <gpxtpx:TrackPointExtension xmlns:gpxtpx="http://www.garmin.com/xmlschemas/TrackPointExtension/v1">
            <gpxtpx:hr>176</gpxtpx:hr>
          </gpxtpx:TrackPointExtension>
        </extensions>
      </trkpt>
      <trkpt lat="46.24016" lon="4.81091">
        <ele>169.7002</ele>
        <time>2026-05-13T14:10:25+02:00</time>
        <extensions>
          <gpxtpx:TrackPointExtension xmlns:gpxtpx="http://www.garmin.com/xmlschemas/TrackPointExtension/v1">
            <gpxtpx:hr>176</gpxtpx:hr>
          </gpxtpx:TrackPointExtension>
        </extensions>
      </trkpt>
      <trkpt lat="46.2402" lon="4.81087">
        <ele>169.10059</ele>
        <time>2026-05-13T14:10:26+02:00</time>
        <extensions>
          <gpxtpx:TrackPointExtension xmlns:gpxtpx="http://www.garmin.com/xmlschemas/TrackPointExtension/v1">
            <gpxtpx:hr>176</gpxtpx:hr>
          </gpxtpx:TrackPointExtension>
        </extensions>
      </trkpt>
      <trkpt lat="46.24025" lon="4.81083">
        <ele>168.90039</ele>
        <time>2026-05-13T14:10:27+02:00</time>
        <extensions>
          <gpxtpx:TrackPointExtension xmlns:gpxtpx="http://www.garmin.com/xmlschemas/TrackPointExtension/v1">
            <gpxtpx:hr>175</gpxtpx:hr>
          </gpxtpx:TrackPointExtension>
        </extensions>
      </trkpt>
      <trkpt lat="46.2403" lon="4.8108">
        <ele>168.5</ele>
        <time>2026-05-13T14:10:28+02:00</time>
        <extensions>
          <gpxtpx:TrackPointExtension xmlns:gpxtpx="http://www.garmin.com/xmlschemas/TrackPointExtension/v1">
            <gpxtpx:hr>175</gpxtpx:hr>
          </gpxtpx:TrackPointExtension>
        </extensions>
      </trkpt>
      <trkpt lat="46.24036" lon="4.81077">
        <ele>168.2998</ele>
        <time>2026-05-13T14:10:29+02:00</time>
        <extensions>
          <gpxtpx:TrackPointExtension xmlns:gpxtpx="http://www.garmin.com/xmlschemas/TrackPointExtension/v1">
            <gpxtpx:hr>175</gpxtpx:hr>
          </gpxtpx:TrackPointExtension>
        </extensions>
      </trkpt>
      <trkpt lat="46.24041" lon="4.81076">
        <ele>168.2998</ele>
        <time>2026-05-13T14:10:30+02:00</time>
        <extensions>
          <gpxtpx:TrackPointExtension xmlns:gpxtpx="http://www.garmin.com/xmlschemas/TrackPointExtension/v1">
            <gpxtpx:hr>174</gpxtpx:hr>
          </gpxtpx:TrackPointExtension>
        </extensions>
      </trkpt>
      <trkpt lat="46.24047" lon="4.81075">
        <ele>168.2998</ele>
        <time>2026-05-13T14:10:31+02:00</time>
        <extensions>
          <gpxtpx:TrackPointExtension xmlns:gpxtpx="http://www.garmin.com/xmlschemas/TrackPointExtension/v1">
            <gpxtpx:hr>174</gpxtpx:hr>
          </gpxtpx:TrackPointExtension>
        </extensions>
      </trkpt>
      <trkpt lat="46.24053" lon="4.81075">
        <ele>168.2998</ele>
        <time>2026-05-13T14:10:32+02:00</time>
        <extensions>
          <gpxtpx:TrackPointExtension xmlns:gpxtpx="http://www.garmin.com/xmlschemas/TrackPointExtension/v1">
            <gpxtpx:hr>175</gpxtpx:hr>
          </gpxtpx:TrackPointExtension>
        </extensions>
      </trkpt>
      <trkpt lat="46.24059" lon="4.81076">
        <ele>168.2998</ele>
        <time>2026-05-13T14:10:33+02:00</time>
        <extensions>
          <gpxtpx:TrackPointExtension xmlns:gpxtpx="http://www.garmin.com/xmlschemas/TrackPointExtension/v1">
            <gpxtpx:hr>174</gpxtpx:hr>
          </gpxtpx:TrackPointExtension>
        </extensions>
      </trkpt>
      <trkpt lat="46.24064" lon="4.81078">
        <ele>168.2998</ele>
        <time>2026-05-13T14:10:34+02:00</time>
        <extensions>
          <gpxtpx:TrackPointExtension xmlns:gpxtpx="http://www.garmin.com/xmlschemas/TrackPointExtension/v1">
            <gpxtpx:hr>174</gpxtpx:hr>
          </gpxtpx:TrackPointExtension>
        </extensions>
      </trkpt>
      <trkpt lat="46.2407" lon="4.8108">
        <ele>168.2998</ele>
        <time>2026-05-13T14:10:35+02:00</time>
        <extensions>
          <gpxtpx:TrackPointExtension xmlns:gpxtpx="http://www.garmin.com/xmlschemas/TrackPointExtension/v1">
            <gpxtpx:hr>175</gpxtpx:hr>
          </gpxtpx:TrackPointExtension>
        </extensions>
      </trkpt>
      <trkpt lat="46.24075" lon="4.81084">
        <ele>168.5</ele>
        <time>2026-05-13T14:10:36+02:00</time>
        <extensions>
          <gpxtpx:TrackPointExtension xmlns:gpxtpx="http://www.garmin.com/xmlschemas/TrackPointExtension/v1">
            <gpxtpx:hr>175</gpxtpx:hr>
          </gpxtpx:TrackPointExtension>
        </extensions>
      </trkpt>
      <trkpt lat="46.24079" lon="4.81088">
        <ele>168.5</ele>
        <time>2026-05-13T14:10:37+02:00</time>
        <extensions>
          <gpxtpx:TrackPointExtension xmlns:gpxtpx="http://www.garmin.com/xmlschemas/TrackPointExtension/v1">
            <gpxtpx:hr>175</gpxtpx:hr>
          </gpxtpx:TrackPointExtension>
        </extensions>
      </trkpt>
      <trkpt lat="46.24083" lon="4.81093">
        <ele>168.7002</ele>
        <time>2026-05-13T14:10:38+02:00</time>
        <extensions>
          <gpxtpx:TrackPointExtension xmlns:gpxtpx="http://www.garmin.com/xmlschemas/TrackPointExtension/v1">
            <gpxtpx:hr>175</gpxtpx:hr>
          </gpxtpx:TrackPointExtension>
        </extensions>
      </trkpt>
      <trkpt lat="46.24088" lon="4.81099">
        <ele>169</ele>
        <time>2026-05-13T14:10:39+02:00</time>
        <extensions>
          <gpxtpx:TrackPointExtension xmlns:gpxtpx="http://www.garmin.com/xmlschemas/TrackPointExtension/v1">
            <gpxtpx:hr>175</gpxtpx:hr>
          </gpxtpx:TrackPointExtension>
        </extensions>
      </trkpt>
      <trkpt lat="46.24092" lon="4.81105">
        <ele>168.90039</ele>
        <time>2026-05-13T14:10:40+02:00</time>
        <extensions>
          <gpxtpx:TrackPointExtension xmlns:gpxtpx="http://www.garmin.com/xmlschemas/TrackPointExtension/v1">
            <gpxtpx:hr>176</gpxtpx:hr>
          </gpxtpx:TrackPointExtension>
        </extensions>
      </trkpt>
      <trkpt lat="46.24096" lon="4.81111">
        <ele>169.2002</ele>
        <time>2026-05-13T14:10:41+02:00</time>
        <extensions>
          <gpxtpx:TrackPointExtension xmlns:gpxtpx="http://www.garmin.com/xmlschemas/TrackPointExtension/v1">
            <gpxtpx:hr>176</gpxtpx:hr>
          </gpxtpx:TrackPointExtension>
        </extensions>
      </trkpt>
      <trkpt lat="46.241" lon="4.81116">
        <ele>169.60059</ele>
        <time>2026-05-13T14:10:42+02:00</time>
        <extensions>
          <gpxtpx:TrackPointExtension xmlns:gpxtpx="http://www.garmin.com/xmlschemas/TrackPointExtension/v1">
            <gpxtpx:hr>176</gpxtpx:hr>
          </gpxtpx:TrackPointExtension>
        </extensions>
      </trkpt>
      <trkpt lat="46.24104" lon="4.81122">
        <ele>169.2998</ele>
        <time>2026-05-13T14:10:43+02:00</time>
        <extensions>
          <gpxtpx:TrackPointExtension xmlns:gpxtpx="http://www.garmin.com/xmlschemas/TrackPointExtension/v1">
            <gpxtpx:hr>176</gpxtpx:hr>
          </gpxtpx:TrackPointExtension>
        </extensions>
      </trkpt>
      <trkpt lat="46.24108" lon="4.81127">
        <ele>169.2998</ele>
        <time>2026-05-13T14:10:44+02:00</time>
        <extensions>
          <gpxtpx:TrackPointExtension xmlns:gpxtpx="http://www.garmin.com/xmlschemas/TrackPointExtension/v1">
            <gpxtpx:hr>176</gpxtpx:hr>
          </gpxtpx:TrackPointExtension>
        </extensions>
      </trkpt>
      <trkpt lat="46.24113" lon="4.81131">
        <ele>169.2002</ele>
        <time>2026-05-13T14:10:45+02:00</time>
        <extensions>
          <gpxtpx:TrackPointExtension xmlns:gpxtpx="http://www.garmin.com/xmlschemas/TrackPointExtension/v1">
            <gpxtpx:hr>175</gpxtpx:hr>
          </gpxtpx:TrackPointExtension>
        </extensions>
      </trkpt>
      <trkpt lat="46.24119" lon="4.81134">
        <ele>169.40039</ele>
        <time>2026-05-13T14:10:46+02:00</time>
        <extensions>
          <gpxtpx:TrackPointExtension xmlns:gpxtpx="http://www.garmin.com/xmlschemas/TrackPointExtension/v1">
            <gpxtpx:hr>176</gpxtpx:hr>
          </gpxtpx:TrackPointExtension>
        </extensions>
      </trkpt>
      <trkpt lat="46.24124" lon="4.81136">
        <ele>169.40039</ele>
        <time>2026-05-13T14:10:47+02:00</time>
        <extensions>
          <gpxtpx:TrackPointExtension xmlns:gpxtpx="http://www.garmin.com/xmlschemas/TrackPointExtension/v1">
            <gpxtpx:hr>176</gpxtpx:hr>
          </gpxtpx:TrackPointExtension>
        </extensions>
      </trkpt>
      <trkpt lat="46.24129" lon="4.81136">
        <ele>169.2998</ele>
        <time>2026-05-13T14:10:48+02:00</time>
        <extensions>
          <gpxtpx:TrackPointExtension xmlns:gpxtpx="http://www.garmin.com/xmlschemas/TrackPointExtension/v1">
            <gpxtpx:hr>176</gpxtpx:hr>
          </gpxtpx:TrackPointExtension>
        </extensions>
      </trkpt>
      <trkpt lat="46.24135" lon="4.81136">
        <ele>169.2002</ele>
        <time>2026-05-13T14:10:49+02:00</time>
        <extensions>
          <gpxtpx:TrackPointExtension xmlns:gpxtpx="http://www.garmin.com/xmlschemas/TrackPointExtension/v1">
            <gpxtpx:hr>175</gpxtpx:hr>
          </gpxtpx:TrackPointExtension>
        </extensions>
      </trkpt>
      <trkpt lat="46.2414" lon="4.81134">
        <ele>169.2002</ele>
        <time>2026-05-13T14:10:50+02:00</time>
        <extensions>
          <gpxtpx:TrackPointExtension xmlns:gpxtpx="http://www.garmin.com/xmlschemas/TrackPointExtension/v1">
            <gpxtpx:hr>175</gpxtpx:hr>
          </gpxtpx:TrackPointExtension>
        </extensions>
      </trkpt>
      <trkpt lat="46.24146" lon="4.81132">
        <ele>168.7998</ele>
        <time>2026-05-13T14:10:51+02:00</time>
        <extensions>
          <gpxtpx:TrackPointExtension xmlns:gpxtpx="http://www.garmin.com/xmlschemas/TrackPointExtension/v1">
            <gpxtpx:hr>175</gpxtpx:hr>
          </gpxtpx:TrackPointExtension>
        </extensions>
      </trkpt>
      <trkpt lat="46.24151" lon="4.8113">
        <ele>168.7998</ele>
        <time>2026-05-13T14:10:52+02:00</time>
        <extensions>
          <gpxtpx:TrackPointExtension xmlns:gpxtpx="http://www.garmin.com/xmlschemas/TrackPointExtension/v1">
            <gpxtpx:hr>174</gpxtpx:hr>
          </gpxtpx:TrackPointExtension>
        </extensions>
      </trkpt>
      <trkpt lat="46.24156" lon="4.81129">
        <ele>168.7002</ele>
        <time>2026-05-13T14:10:53+02:00</time>
        <extensions>
          <gpxtpx:TrackPointExtension xmlns:gpxtpx="http://www.garmin.com/xmlschemas/TrackPointExtension/v1">
            <gpxtpx:hr>175</gpxtpx:hr>
          </gpxtpx:TrackPointExtension>
        </extensions>
      </trkpt>
      <trkpt lat="46.24162" lon="4.8113">
        <ele>168.7002</ele>
        <time>2026-05-13T14:10:54+02:00</time>
        <extensions>
          <gpxtpx:TrackPointExtension xmlns:gpxtpx="http://www.garmin.com/xmlschemas/TrackPointExtension/v1">
            <gpxtpx:hr>175</gpxtpx:hr>
          </gpxtpx:TrackPointExtension>
        </extensions>
      </trkpt>
      <trkpt lat="46.24167" lon="4.81131">
        <ele>168.60059</ele>
        <time>2026-05-13T14:10:55+02:00</time>
        <extensions>
          <gpxtpx:TrackPointExtension xmlns:gpxtpx="http://www.garmin.com/xmlschemas/TrackPointExtension/v1">
            <gpxtpx:hr>174</gpxtpx:hr>
          </gpxtpx:TrackPointExtension>
        </extensions>
      </trkpt>
      <trkpt lat="46.24172" lon="4.81134">
        <ele>168.7998</ele>
        <time>2026-05-13T14:10:56+02:00</time>
        <extensions>
          <gpxtpx:TrackPointExtension xmlns:gpxtpx="http://www.garmin.com/xmlschemas/TrackPointExtension/v1">
            <gpxtpx:hr>174</gpxtpx:hr>
          </gpxtpx:TrackPointExtension>
        </extensions>
      </trkpt>
      <trkpt lat="46.24177" lon="4.81139">
        <ele>168.7002</ele>
        <time>2026-05-13T14:10:57+02:00</time>
        <extensions>
          <gpxtpx:TrackPointExtension xmlns:gpxtpx="http://www.garmin.com/xmlschemas/TrackPointExtension/v1">
            <gpxtpx:hr>173</gpxtpx:hr>
          </gpxtpx:TrackPointExtension>
        </extensions>
      </trkpt>
      <trkpt lat="46.24181" lon="4.81144">
        <ele>168.7002</ele>
        <time>2026-05-13T14:10:58+02:00</time>
        <extensions>
          <gpxtpx:TrackPointExtension xmlns:gpxtpx="http://www.garmin.com/xmlschemas/TrackPointExtension/v1">
            <gpxtpx:hr>174</gpxtpx:hr>
          </gpxtpx:TrackPointExtension>
        </extensions>
      </trkpt>
      <trkpt lat="46.24185" lon="4.8115">
        <ele>168.7998</ele>
        <time>2026-05-13T14:10:59+02:00</time>
        <extensions>
          <gpxtpx:TrackPointExtension xmlns:gpxtpx="http://www.garmin.com/xmlschemas/TrackPointExtension/v1">
            <gpxtpx:hr>173</gpxtpx:hr>
          </gpxtpx:TrackPointExtension>
        </extensions>
      </trkpt>
      <trkpt lat="46.24188" lon="4.81156">
        <ele>168.7998</ele>
        <time>2026-05-13T14:11:00+02:00</time>
        <extensions>
          <gpxtpx:TrackPointExtension xmlns:gpxtpx="http://www.garmin.com/xmlschemas/TrackPointExtension/v1">
            <gpxtpx:hr>174</gpxtpx:hr>
          </gpxtpx:TrackPointExtension>
        </extensions>
      </trkpt>
      <trkpt lat="46.24193" lon="4.81161">
        <ele>169.2002</ele>
        <time>2026-05-13T14:11:01+02:00</time>
        <extensions>
          <gpxtpx:TrackPointExtension xmlns:gpxtpx="http://www.garmin.com/xmlschemas/TrackPointExtension/v1">
            <gpxtpx:hr>174</gpxtpx:hr>
          </gpxtpx:TrackPointExtension>
        </extensions>
      </trkpt>
      <trkpt lat="46.24198" lon="4.81163">
        <ele>169.2002</ele>
        <time>2026-05-13T14:11:02+02:00</time>
        <extensions>
          <gpxtpx:TrackPointExtension xmlns:gpxtpx="http://www.garmin.com/xmlschemas/TrackPointExtension/v1">
            <gpxtpx:hr>173</gpxtpx:hr>
          </gpxtpx:TrackPointExtension>
        </extensions>
      </trkpt>
      <trkpt lat="46.24203" lon="4.81165">
        <ele>169.10059</ele>
        <time>2026-05-13T14:11:03+02:00</time>
        <extensions>
          <gpxtpx:TrackPointExtension xmlns:gpxtpx="http://www.garmin.com/xmlschemas/TrackPointExtension/v1">
            <gpxtpx:hr>173</gpxtpx:hr>
          </gpxtpx:TrackPointExtension>
        </extensions>
      </trkpt>
      <trkpt lat="46.24208" lon="4.81166">
        <ele>169</ele>
        <time>2026-05-13T14:11:04+02:00</time>
        <extensions>
          <gpxtpx:TrackPointExtension xmlns:gpxtpx="http://www.garmin.com/xmlschemas/TrackPointExtension/v1">
            <gpxtpx:hr>174</gpxtpx:hr>
          </gpxtpx:TrackPointExtension>
        </extensions>
      </trkpt>
      <trkpt lat="46.24214" lon="4.81168">
        <ele>169.10059</ele>
        <time>2026-05-13T14:11:05+02:00</time>
        <extensions>
          <gpxtpx:TrackPointExtension xmlns:gpxtpx="http://www.garmin.com/xmlschemas/TrackPointExtension/v1">
            <gpxtpx:hr>173</gpxtpx:hr>
          </gpxtpx:TrackPointExtension>
        </extensions>
      </trkpt>
      <trkpt lat="46.24219" lon="4.8117">
        <ele>169.10059</ele>
        <time>2026-05-13T14:11:06+02:00</time>
        <extensions>
          <gpxtpx:TrackPointExtension xmlns:gpxtpx="http://www.garmin.com/xmlschemas/TrackPointExtension/v1">
            <gpxtpx:hr>174</gpxtpx:hr>
          </gpxtpx:TrackPointExtension>
        </extensions>
      </trkpt>
      <trkpt lat="46.24225" lon="4.81172">
        <ele>168.90039</ele>
        <time>2026-05-13T14:11:07+02:00</time>
        <extensions>
          <gpxtpx:TrackPointExtension xmlns:gpxtpx="http://www.garmin.com/xmlschemas/TrackPointExtension/v1">
            <gpxtpx:hr>174</gpxtpx:hr>
          </gpxtpx:TrackPointExtension>
        </extensions>
      </trkpt>
      <trkpt lat="46.2423" lon="4.81174">
        <ele>168.7998</ele>
        <time>2026-05-13T14:11:08+02:00</time>
        <extensions>
          <gpxtpx:TrackPointExtension xmlns:gpxtpx="http://www.garmin.com/xmlschemas/TrackPointExtension/v1">
            <gpxtpx:hr>174</gpxtpx:hr>
          </gpxtpx:TrackPointExtension>
        </extensions>
      </trkpt>
      <trkpt lat="46.24236" lon="4.81176">
        <ele>168.7998</ele>
        <time>2026-05-13T14:11:09+02:00</time>
        <extensions>
          <gpxtpx:TrackPointExtension xmlns:gpxtpx="http://www.garmin.com/xmlschemas/TrackPointExtension/v1">
            <gpxtpx:hr>174</gpxtpx:hr>
          </gpxtpx:TrackPointExtension>
        </extensions>
      </trkpt>
      <trkpt lat="46.24241" lon="4.81178">
        <ele>168.7002</ele>
        <time>2026-05-13T14:11:10+02:00</time>
        <extensions>
          <gpxtpx:TrackPointExtension xmlns:gpxtpx="http://www.garmin.com/xmlschemas/TrackPointExtension/v1">
            <gpxtpx:hr>174</gpxtpx:hr>
          </gpxtpx:TrackPointExtension>
        </extensions>
      </trkpt>
      <trkpt lat="46.24247" lon="4.8118">
        <ele>168.7002</ele>
        <time>2026-05-13T14:11:11+02:00</time>
        <extensions>
          <gpxtpx:TrackPointExtension xmlns:gpxtpx="http://www.garmin.com/xmlschemas/TrackPointExtension/v1">
            <gpxtpx:hr>174</gpxtpx:hr>
          </gpxtpx:TrackPointExtension>
        </extensions>
      </trkpt>
      <trkpt lat="46.24253" lon="4.81181">
        <ele>168.60059</ele>
        <time>2026-05-13T14:11:12+02:00</time>
        <extensions>
          <gpxtpx:TrackPointExtension xmlns:gpxtpx="http://www.garmin.com/xmlschemas/TrackPointExtension/v1">
            <gpxtpx:hr>174</gpxtpx:hr>
          </gpxtpx:TrackPointExtension>
        </extensions>
      </trkpt>
      <trkpt lat="46.24258" lon="4.81183">
        <ele>168.5</ele>
        <time>2026-05-13T14:11:13+02:00</time>
        <extensions>
          <gpxtpx:TrackPointExtension xmlns:gpxtpx="http://www.garmin.com/xmlschemas/TrackPointExtension/v1">
            <gpxtpx:hr>174</gpxtpx:hr>
          </gpxtpx:TrackPointExtension>
        </extensions>
      </trkpt>
      <trkpt lat="46.24264" lon="4.81185">
        <ele>168.60059</ele>
        <time>2026-05-13T14:11:14+02:00</time>
        <extensions>
          <gpxtpx:TrackPointExtension xmlns:gpxtpx="http://www.garmin.com/xmlschemas/TrackPointExtension/v1">
            <gpxtpx:hr>175</gpxtpx:hr>
          </gpxtpx:TrackPointExtension>
        </extensions>
      </trkpt>
      <trkpt lat="46.24269" lon="4.81187">
        <ele>168.5</ele>
        <time>2026-05-13T14:11:15+02:00</time>
        <extensions>
          <gpxtpx:TrackPointExtension xmlns:gpxtpx="http://www.garmin.com/xmlschemas/TrackPointExtension/v1">
            <gpxtpx:hr>175</gpxtpx:hr>
          </gpxtpx:TrackPointExtension>
        </extensions>
      </trkpt>
      <trkpt lat="46.24275" lon="4.81189">
        <ele>168.5</ele>
        <time>2026-05-13T14:11:16+02:00</time>
        <extensions>
          <gpxtpx:TrackPointExtension xmlns:gpxtpx="http://www.garmin.com/xmlschemas/TrackPointExtension/v1">
            <gpxtpx:hr>175</gpxtpx:hr>
          </gpxtpx:TrackPointExtension>
        </extensions>
      </trkpt>
      <trkpt lat="46.2428" lon="4.81191">
        <ele>168.40039</ele>
        <time>2026-05-13T14:11:17+02:00</time>
        <extensions>
          <gpxtpx:TrackPointExtension xmlns:gpxtpx="http://www.garmin.com/xmlschemas/TrackPointExtension/v1">
            <gpxtpx:hr>175</gpxtpx:hr>
          </gpxtpx:TrackPointExtension>
        </extensions>
      </trkpt>
      <trkpt lat="46.24285" lon="4.81193">
        <ele>168.5</ele>
        <time>2026-05-13T14:11:18+02:00</time>
        <extensions>
          <gpxtpx:TrackPointExtension xmlns:gpxtpx="http://www.garmin.com/xmlschemas/TrackPointExtension/v1">
            <gpxtpx:hr>175</gpxtpx:hr>
          </gpxtpx:TrackPointExtension>
        </extensions>
      </trkpt>
      <trkpt lat="46.24291" lon="4.81195">
        <ele>168.5</ele>
        <time>2026-05-13T14:11:19+02:00</time>
        <extensions>
          <gpxtpx:TrackPointExtension xmlns:gpxtpx="http://www.garmin.com/xmlschemas/TrackPointExtension/v1">
            <gpxtpx:hr>175</gpxtpx:hr>
          </gpxtpx:TrackPointExtension>
        </extensions>
      </trkpt>
      <trkpt lat="46.24296" lon="4.81196">
        <ele>168.5</ele>
        <time>2026-05-13T14:11:20+02:00</time>
        <extensions>
          <gpxtpx:TrackPointExtension xmlns:gpxtpx="http://www.garmin.com/xmlschemas/TrackPointExtension/v1">
            <gpxtpx:hr>176</gpxtpx:hr>
          </gpxtpx:TrackPointExtension>
        </extensions>
      </trkpt>
      <trkpt lat="46.24301" lon="4.81198">
        <ele>168.5</ele>
        <time>2026-05-13T14:11:21+02:00</time>
        <extensions>
          <gpxtpx:TrackPointExtension xmlns:gpxtpx="http://www.garmin.com/xmlschemas/TrackPointExtension/v1">
            <gpxtpx:hr>177</gpxtpx:hr>
          </gpxtpx:TrackPointExtension>
        </extensions>
      </trkpt>
      <trkpt lat="46.24306" lon="4.812">
        <ele>168.5</ele>
        <time>2026-05-13T14:11:22+02:00</time>
        <extensions>
          <gpxtpx:TrackPointExtension xmlns:gpxtpx="http://www.garmin.com/xmlschemas/TrackPointExtension/v1">
            <gpxtpx:hr>177</gpxtpx:hr>
          </gpxtpx:TrackPointExtension>
        </extensions>
      </trkpt>
      <trkpt lat="46.24312" lon="4.81202">
        <ele>168.60059</ele>
        <time>2026-05-13T14:11:23+02:00</time>
        <extensions>
          <gpxtpx:TrackPointExtension xmlns:gpxtpx="http://www.garmin.com/xmlschemas/TrackPointExtension/v1">
            <gpxtpx:hr>176</gpxtpx:hr>
          </gpxtpx:TrackPointExtension>
        </extensions>
      </trkpt>
      <trkpt lat="46.24317" lon="4.81204">
        <ele>168.60059</ele>
        <time>2026-05-13T14:11:24+02:00</time>
        <extensions>
          <gpxtpx:TrackPointExtension xmlns:gpxtpx="http://www.garmin.com/xmlschemas/TrackPointExtension/v1">
            <gpxtpx:hr>177</gpxtpx:hr>
          </gpxtpx:TrackPointExtension>
        </extensions>
      </trkpt>
      <trkpt lat="46.24323" lon="4.81206">
        <ele>168.60059</ele>
        <time>2026-05-13T14:11:25+02:00</time>
        <extensions>
          <gpxtpx:TrackPointExtension xmlns:gpxtpx="http://www.garmin.com/xmlschemas/TrackPointExtension/v1">
            <gpxtpx:hr>177</gpxtpx:hr>
          </gpxtpx:TrackPointExtension>
        </extensions>
      </trkpt>
      <trkpt lat="46.24328" lon="4.81207">
        <ele>168.60059</ele>
        <time>2026-05-13T14:11:26+02:00</time>
        <extensions>
          <gpxtpx:TrackPointExtension xmlns:gpxtpx="http://www.garmin.com/xmlschemas/TrackPointExtension/v1">
            <gpxtpx:hr>177</gpxtpx:hr>
          </gpxtpx:TrackPointExtension>
        </extensions>
      </trkpt>
      <trkpt lat="46.24333" lon="4.81209">
        <ele>168.60059</ele>
        <time>2026-05-13T14:11:27+02:00</time>
        <extensions>
          <gpxtpx:TrackPointExtension xmlns:gpxtpx="http://www.garmin.com/xmlschemas/TrackPointExtension/v1">
            <gpxtpx:hr>177</gpxtpx:hr>
          </gpxtpx:TrackPointExtension>
        </extensions>
      </trkpt>
      <trkpt lat="46.24339" lon="4.81211">
        <ele>168.7998</ele>
        <time>2026-05-13T14:11:28+02:00</time>
        <extensions>
          <gpxtpx:TrackPointExtension xmlns:gpxtpx="http://www.garmin.com/xmlschemas/TrackPointExtension/v1">
            <gpxtpx:hr>177</gpxtpx:hr>
          </gpxtpx:TrackPointExtension>
        </extensions>
      </trkpt>
      <trkpt lat="46.24344" lon="4.81213">
        <ele>168.7998</ele>
        <time>2026-05-13T14:11:29+02:00</time>
        <extensions>
          <gpxtpx:TrackPointExtension xmlns:gpxtpx="http://www.garmin.com/xmlschemas/TrackPointExtension/v1">
            <gpxtpx:hr>177</gpxtpx:hr>
          </gpxtpx:TrackPointExtension>
        </extensions>
      </trkpt>
      <trkpt lat="46.2435" lon="4.81215">
        <ele>168.7002</ele>
        <time>2026-05-13T14:11:30+02:00</time>
        <extensions>
          <gpxtpx:TrackPointExtension xmlns:gpxtpx="http://www.garmin.com/xmlschemas/TrackPointExtension/v1">
            <gpxtpx:hr>177</gpxtpx:hr>
          </gpxtpx:TrackPointExtension>
        </extensions>
      </trkpt>
      <trkpt lat="46.24355" lon="4.81217">
        <ele>168.7002</ele>
        <time>2026-05-13T14:11:31+02:00</time>
        <extensions>
          <gpxtpx:TrackPointExtension xmlns:gpxtpx="http://www.garmin.com/xmlschemas/TrackPointExtension/v1">
            <gpxtpx:hr>177</gpxtpx:hr>
          </gpxtpx:TrackPointExtension>
        </extensions>
      </trkpt>
      <trkpt lat="46.2436" lon="4.81219">
        <ele>168.7998</ele>
        <time>2026-05-13T14:11:32+02:00</time>
        <extensions>
          <gpxtpx:TrackPointExtension xmlns:gpxtpx="http://www.garmin.com/xmlschemas/TrackPointExtension/v1">
            <gpxtpx:hr>177</gpxtpx:hr>
          </gpxtpx:TrackPointExtension>
        </extensions>
      </trkpt>
      <trkpt lat="46.24366" lon="4.81221">
        <ele>168.7002</ele>
        <time>2026-05-13T14:11:33+02:00</time>
        <extensions>
          <gpxtpx:TrackPointExtension xmlns:gpxtpx="http://www.garmin.com/xmlschemas/TrackPointExtension/v1">
            <gpxtpx:hr>177</gpxtpx:hr>
          </gpxtpx:TrackPointExtension>
        </extensions>
      </trkpt>
      <trkpt lat="46.24371" lon="4.81223">
        <ele>168.60059</ele>
        <time>2026-05-13T14:11:34+02:00</time>
        <extensions>
          <gpxtpx:TrackPointExtension xmlns:gpxtpx="http://www.garmin.com/xmlschemas/TrackPointExtension/v1">
            <gpxtpx:hr>177</gpxtpx:hr>
          </gpxtpx:TrackPointExtension>
        </extensions>
      </trkpt>
      <trkpt lat="46.24377" lon="4.81225">
        <ele>168.60059</ele>
        <time>2026-05-13T14:11:35+02:00</time>
        <extensions>
          <gpxtpx:TrackPointExtension xmlns:gpxtpx="http://www.garmin.com/xmlschemas/TrackPointExtension/v1">
            <gpxtpx:hr>177</gpxtpx:hr>
          </gpxtpx:TrackPointExtension>
        </extensions>
      </trkpt>
      <trkpt lat="46.24383" lon="4.81227">
        <ele>168.7002</ele>
        <time>2026-05-13T14:11:36+02:00</time>
        <extensions>
          <gpxtpx:TrackPointExtension xmlns:gpxtpx="http://www.garmin.com/xmlschemas/TrackPointExtension/v1">
            <gpxtpx:hr>178</gpxtpx:hr>
          </gpxtpx:TrackPointExtension>
        </extensions>
      </trkpt>
      <trkpt lat="46.24388" lon="4.81229">
        <ele>168.7002</ele>
        <time>2026-05-13T14:11:37+02:00</time>
        <extensions>
          <gpxtpx:TrackPointExtension xmlns:gpxtpx="http://www.garmin.com/xmlschemas/TrackPointExtension/v1">
            <gpxtpx:hr>178</gpxtpx:hr>
          </gpxtpx:TrackPointExtension>
        </extensions>
      </trkpt>
      <trkpt lat="46.24394" lon="4.8123">
        <ele>168.60059</ele>
        <time>2026-05-13T14:11:38+02:00</time>
        <extensions>
          <gpxtpx:TrackPointExtension xmlns:gpxtpx="http://www.garmin.com/xmlschemas/TrackPointExtension/v1">
            <gpxtpx:hr>178</gpxtpx:hr>
          </gpxtpx:TrackPointExtension>
        </extensions>
      </trkpt>
      <trkpt lat="46.244" lon="4.81232">
        <ele>168.60059</ele>
        <time>2026-05-13T14:11:39+02:00</time>
        <extensions>
          <gpxtpx:TrackPointExtension xmlns:gpxtpx="http://www.garmin.com/xmlschemas/TrackPointExtension/v1">
            <gpxtpx:hr>178</gpxtpx:hr>
          </gpxtpx:TrackPointExtension>
        </extensions>
      </trkpt>
      <trkpt lat="46.24405" lon="4.81234">
        <ele>168.5</ele>
        <time>2026-05-13T14:11:40+02:00</time>
        <extensions>
          <gpxtpx:TrackPointExtension xmlns:gpxtpx="http://www.garmin.com/xmlschemas/TrackPointExtension/v1">
            <gpxtpx:hr>178</gpxtpx:hr>
          </gpxtpx:TrackPointExtension>
        </extensions>
      </trkpt>
      <trkpt lat="46.24411" lon="4.81237">
        <ele>168.7002</ele>
        <time>2026-05-13T14:11:41+02:00</time>
        <extensions>
          <gpxtpx:TrackPointExtension xmlns:gpxtpx="http://www.garmin.com/xmlschemas/TrackPointExtension/v1">
            <gpxtpx:hr>178</gpxtpx:hr>
          </gpxtpx:TrackPointExtension>
        </extensions>
      </trkpt>
      <trkpt lat="46.24417" lon="4.81239">
        <ele>168.7002</ele>
        <time>2026-05-13T14:11:42+02:00</time>
        <extensions>
          <gpxtpx:TrackPointExtension xmlns:gpxtpx="http://www.garmin.com/xmlschemas/TrackPointExtension/v1">
            <gpxtpx:hr>178</gpxtpx:hr>
          </gpxtpx:TrackPointExtension>
        </extensions>
      </trkpt>
      <trkpt lat="46.24423" lon="4.81241">
        <ele>168.60059</ele>
        <time>2026-05-13T14:11:43+02:00</time>
        <extensions>
          <gpxtpx:TrackPointExtension xmlns:gpxtpx="http://www.garmin.com/xmlschemas/TrackPointExtension/v1">
            <gpxtpx:hr>178</gpxtpx:hr>
          </gpxtpx:TrackPointExtension>
        </extensions>
      </trkpt>
      <trkpt lat="46.24428" lon="4.81243">
        <ele>168.60059</ele>
        <time>2026-05-13T14:11:44+02:00</time>
        <extensions>
          <gpxtpx:TrackPointExtension xmlns:gpxtpx="http://www.garmin.com/xmlschemas/TrackPointExtension/v1">
            <gpxtpx:hr>179</gpxtpx:hr>
          </gpxtpx:TrackPointExtension>
        </extensions>
      </trkpt>
      <trkpt lat="46.24434" lon="4.81245">
        <ele>168.7002</ele>
        <time>2026-05-13T14:11:45+02:00</time>
        <extensions>
          <gpxtpx:TrackPointExtension xmlns:gpxtpx="http://www.garmin.com/xmlschemas/TrackPointExtension/v1">
            <gpxtpx:hr>179</gpxtpx:hr>
          </gpxtpx:TrackPointExtension>
        </extensions>
      </trkpt>
      <trkpt lat="46.2444" lon="4.81247">
        <ele>168.7002</ele>
        <time>2026-05-13T14:11:46+02:00</time>
        <extensions>
          <gpxtpx:TrackPointExtension xmlns:gpxtpx="http://www.garmin.com/xmlschemas/TrackPointExtension/v1">
            <gpxtpx:hr>178</gpxtpx:hr>
          </gpxtpx:TrackPointExtension>
        </extensions>
      </trkpt>
      <trkpt lat="46.24445" lon="4.81249">
        <ele>168.7002</ele>
        <time>2026-05-13T14:11:47+02:00</time>
        <extensions>
          <gpxtpx:TrackPointExtension xmlns:gpxtpx="http://www.garmin.com/xmlschemas/TrackPointExtension/v1">
            <gpxtpx:hr>179</gpxtpx:hr>
          </gpxtpx:TrackPointExtension>
        </extensions>
      </trkpt>
      <trkpt lat="46.24451" lon="4.81251">
        <ele>168.60059</ele>
        <time>2026-05-13T14:11:48+02:00</time>
        <extensions>
          <gpxtpx:TrackPointExtension xmlns:gpxtpx="http://www.garmin.com/xmlschemas/TrackPointExtension/v1">
            <gpxtpx:hr>178</gpxtpx:hr>
          </gpxtpx:TrackPointExtension>
        </extensions>
      </trkpt>
      <trkpt lat="46.24457" lon="4.81253">
        <ele>168.7998</ele>
        <time>2026-05-13T14:11:49+02:00</time>
        <extensions>
          <gpxtpx:TrackPointExtension xmlns:gpxtpx="http://www.garmin.com/xmlschemas/TrackPointExtension/v1">
            <gpxtpx:hr>178</gpxtpx:hr>
          </gpxtpx:TrackPointExtension>
        </extensions>
      </trkpt>
      <trkpt lat="46.24462" lon="4.81255">
        <ele>168.7998</ele>
        <time>2026-05-13T14:11:50+02:00</time>
        <extensions>
          <gpxtpx:TrackPointExtension xmlns:gpxtpx="http://www.garmin.com/xmlschemas/TrackPointExtension/v1">
            <gpxtpx:hr>178</gpxtpx:hr>
          </gpxtpx:TrackPointExtension>
        </extensions>
      </trkpt>
      <trkpt lat="46.24468" lon="4.81257">
        <ele>168.7998</ele>
        <time>2026-05-13T14:11:51+02:00</time>
        <extensions>
          <gpxtpx:TrackPointExtension xmlns:gpxtpx="http://www.garmin.com/xmlschemas/TrackPointExtension/v1">
            <gpxtpx:hr>178</gpxtpx:hr>
          </gpxtpx:TrackPointExtension>
        </extensions>
      </trkpt>
      <trkpt lat="46.24473" lon="4.81259">
        <ele>168.7002</ele>
        <time>2026-05-13T14:11:52+02:00</time>
        <extensions>
          <gpxtpx:TrackPointExtension xmlns:gpxtpx="http://www.garmin.com/xmlschemas/TrackPointExtension/v1">
            <gpxtpx:hr>178</gpxtpx:hr>
          </gpxtpx:TrackPointExtension>
        </extensions>
      </trkpt>
      <trkpt lat="46.24479" lon="4.81261">
        <ele>168.7002</ele>
        <time>2026-05-13T14:11:53+02:00</time>
        <extensions>
          <gpxtpx:TrackPointExtension xmlns:gpxtpx="http://www.garmin.com/xmlschemas/TrackPointExtension/v1">
            <gpxtpx:hr>179</gpxtpx:hr>
          </gpxtpx:TrackPointExtension>
        </extensions>
      </trkpt>
      <trkpt lat="46.24484" lon="4.81263">
        <ele>169</ele>
        <time>2026-05-13T14:11:54+02:00</time>
        <extensions>
          <gpxtpx:TrackPointExtension xmlns:gpxtpx="http://www.garmin.com/xmlschemas/TrackPointExtension/v1">
            <gpxtpx:hr>179</gpxtpx:hr>
          </gpxtpx:TrackPointExtension>
        </extensions>
      </trkpt>
      <trkpt lat="46.2449" lon="4.81265">
        <ele>168.90039</ele>
        <time>2026-05-13T14:11:55+02:00</time>
        <extensions>
          <gpxtpx:TrackPointExtension xmlns:gpxtpx="http://www.garmin.com/xmlschemas/TrackPointExtension/v1">
            <gpxtpx:hr>179</gpxtpx:hr>
          </gpxtpx:TrackPointExtension>
        </extensions>
      </trkpt>
      <trkpt lat="46.24495" lon="4.81266">
        <ele>168.90039</ele>
        <time>2026-05-13T14:11:56+02:00</time>
        <extensions>
          <gpxtpx:TrackPointExtension xmlns:gpxtpx="http://www.garmin.com/xmlschemas/TrackPointExtension/v1">
            <gpxtpx:hr>178</gpxtpx:hr>
          </gpxtpx:TrackPointExtension>
        </extensions>
      </trkpt>
      <trkpt lat="46.24501" lon="4.81268">
        <ele>168.90039</ele>
        <time>2026-05-13T14:11:57+02:00</time>
        <extensions>
          <gpxtpx:TrackPointExtension xmlns:gpxtpx="http://www.garmin.com/xmlschemas/TrackPointExtension/v1">
            <gpxtpx:hr>178</gpxtpx:hr>
          </gpxtpx:TrackPointExtension>
        </extensions>
      </trkpt>
      <trkpt lat="46.24507" lon="4.8127">
        <ele>169.2002</ele>
        <time>2026-05-13T14:11:58+02:00</time>
        <extensions>
          <gpxtpx:TrackPointExtension xmlns:gpxtpx="http://www.garmin.com/xmlschemas/TrackPointExtension/v1">
            <gpxtpx:hr>178</gpxtpx:hr>
          </gpxtpx:TrackPointExtension>
        </extensions>
      </trkpt>
      <trkpt lat="46.24512" lon="4.81272">
        <ele>169.2002</ele>
        <time>2026-05-13T14:11:59+02:00</time>
        <extensions>
          <gpxtpx:TrackPointExtension xmlns:gpxtpx="http://www.garmin.com/xmlschemas/TrackPointExtension/v1">
            <gpxtpx:hr>178</gpxtpx:hr>
          </gpxtpx:TrackPointExtension>
        </extensions>
      </trkpt>
      <trkpt lat="46.24518" lon="4.81274">
        <ele>169.2998</ele>
        <time>2026-05-13T14:12:00+02:00</time>
        <extensions>
          <gpxtpx:TrackPointExtension xmlns:gpxtpx="http://www.garmin.com/xmlschemas/TrackPointExtension/v1">
            <gpxtpx:hr>179</gpxtpx:hr>
          </gpxtpx:TrackPointExtension>
        </extensions>
      </trkpt>
      <trkpt lat="46.24523" lon="4.81276">
        <ele>169.2998</ele>
        <time>2026-05-13T14:12:01+02:00</time>
        <extensions>
          <gpxtpx:TrackPointExtension xmlns:gpxtpx="http://www.garmin.com/xmlschemas/TrackPointExtension/v1">
            <gpxtpx:hr>179</gpxtpx:hr>
          </gpxtpx:TrackPointExtension>
        </extensions>
      </trkpt>
      <trkpt lat="46.24529" lon="4.81279">
        <ele>169.60059</ele>
        <time>2026-05-13T14:12:02+02:00</time>
        <extensions>
          <gpxtpx:TrackPointExtension xmlns:gpxtpx="http://www.garmin.com/xmlschemas/TrackPointExtension/v1">
            <gpxtpx:hr>179</gpxtpx:hr>
          </gpxtpx:TrackPointExtension>
        </extensions>
      </trkpt>
      <trkpt lat="46.24534" lon="4.81281">
        <ele>169.60059</ele>
        <time>2026-05-13T14:12:03+02:00</time>
        <extensions>
          <gpxtpx:TrackPointExtension xmlns:gpxtpx="http://www.garmin.com/xmlschemas/TrackPointExtension/v1">
            <gpxtpx:hr>178</gpxtpx:hr>
          </gpxtpx:TrackPointExtension>
        </extensions>
      </trkpt>
      <trkpt lat="46.24539" lon="4.81284">
        <ele>169.60059</ele>
        <time>2026-05-13T14:12:04+02:00</time>
        <extensions>
          <gpxtpx:TrackPointExtension xmlns:gpxtpx="http://www.garmin.com/xmlschemas/TrackPointExtension/v1">
            <gpxtpx:hr>179</gpxtpx:hr>
          </gpxtpx:TrackPointExtension>
        </extensions>
      </trkpt>
      <trkpt lat="46.24542" lon="4.81287">
        <ele>170.10059</ele>
        <time>2026-05-13T14:12:05+02:00</time>
        <extensions>
          <gpxtpx:TrackPointExtension xmlns:gpxtpx="http://www.garmin.com/xmlschemas/TrackPointExtension/v1">
            <gpxtpx:hr>179</gpxtpx:hr>
          </gpxtpx:TrackPointExtension>
        </extensions>
      </trkpt>
      <trkpt lat="46.24544" lon="4.8129">
        <ele>170.10059</ele>
        <time>2026-05-13T14:12:06+02:00</time>
        <extensions>
          <gpxtpx:TrackPointExtension xmlns:gpxtpx="http://www.garmin.com/xmlschemas/TrackPointExtension/v1">
            <gpxtpx:hr>178</gpxtpx:hr>
          </gpxtpx:TrackPointExtension>
        </extensions>
      </trkpt>
      <trkpt lat="46.24544" lon="4.81293">
        <ele>170.10059</ele>
        <time>2026-05-13T14:12:07+02:00</time>
        <extensions>
          <gpxtpx:TrackPointExtension xmlns:gpxtpx="http://www.garmin.com/xmlschemas/TrackPointExtension/v1">
            <gpxtpx:hr>178</gpxtpx:hr>
          </gpxtpx:TrackPointExtension>
        </extensions>
      </trkpt>
      <trkpt lat="46.24543" lon="4.81297">
        <ele>170.7998</ele>
        <time>2026-05-13T14:12:08+02:00</time>
        <extensions>
          <gpxtpx:TrackPointExtension xmlns:gpxtpx="http://www.garmin.com/xmlschemas/TrackPointExtension/v1">
            <gpxtpx:hr>177</gpxtpx:hr>
          </gpxtpx:TrackPointExtension>
        </extensions>
      </trkpt>
      <trkpt lat="46.24542" lon="4.813">
        <ele>170.7998</ele>
        <time>2026-05-13T14:12:09+02:00</time>
        <extensions>
          <gpxtpx:TrackPointExtension xmlns:gpxtpx="http://www.garmin.com/xmlschemas/TrackPointExtension/v1">
            <gpxtpx:hr>177</gpxtpx:hr>
          </gpxtpx:TrackPointExtension>
        </extensions>
      </trkpt>
      <trkpt lat="46.24541" lon="4.81304">
        <ele>170.7998</ele>
        <time>2026-05-13T14:12:10+02:00</time>
        <extensions>
          <gpxtpx:TrackPointExtension xmlns:gpxtpx="http://www.garmin.com/xmlschemas/TrackPointExtension/v1">
            <gpxtpx:hr>176</gpxtpx:hr>
          </gpxtpx:TrackPointExtension>
        </extensions>
      </trkpt>
      <trkpt lat="46.2454" lon="4.81309">
        <ele>171.5</ele>
        <time>2026-05-13T14:12:11+02:00</time>
        <extensions>
          <gpxtpx:TrackPointExtension xmlns:gpxtpx="http://www.garmin.com/xmlschemas/TrackPointExtension/v1">
            <gpxtpx:hr>175</gpxtpx:hr>
          </gpxtpx:TrackPointExtension>
        </extensions>
      </trkpt>
      <trkpt lat="46.2454" lon="4.81314">
        <ele>171.90039</ele>
        <time>2026-05-13T14:12:12+02:00</time>
        <extensions>
          <gpxtpx:TrackPointExtension xmlns:gpxtpx="http://www.garmin.com/xmlschemas/TrackPointExtension/v1">
            <gpxtpx:hr>175</gpxtpx:hr>
          </gpxtpx:TrackPointExtension>
        </extensions>
      </trkpt>
      <trkpt lat="46.24539" lon="4.81319">
        <ele>171.90039</ele>
        <time>2026-05-13T14:12:13+02:00</time>
        <extensions>
          <gpxtpx:TrackPointExtension xmlns:gpxtpx="http://www.garmin.com/xmlschemas/TrackPointExtension/v1">
            <gpxtpx:hr>174</gpxtpx:hr>
          </gpxtpx:TrackPointExtension>
        </extensions>
      </trkpt>
      <trkpt lat="46.24538" lon="4.81325">
        <ele>172.10059</ele>
        <time>2026-05-13T14:12:14+02:00</time>
        <extensions>
          <gpxtpx:TrackPointExtension xmlns:gpxtpx="http://www.garmin.com/xmlschemas/TrackPointExtension/v1">
            <gpxtpx:hr>174</gpxtpx:hr>
          </gpxtpx:TrackPointExtension>
        </extensions>
      </trkpt>
      <trkpt lat="46.24537" lon="4.81331">
        <ele>172.10059</ele>
        <time>2026-05-13T14:12:15+02:00</time>
        <extensions>
          <gpxtpx:TrackPointExtension xmlns:gpxtpx="http://www.garmin.com/xmlschemas/TrackPointExtension/v1">
            <gpxtpx:hr>173</gpxtpx:hr>
          </gpxtpx:TrackPointExtension>
        </extensions>
      </trkpt>
      <trkpt lat="46.24536" lon="4.81336">
        <ele>172.10059</ele>
        <time>2026-05-13T14:12:16+02:00</time>
        <extensions>
          <gpxtpx:TrackPointExtension xmlns:gpxtpx="http://www.garmin.com/xmlschemas/TrackPointExtension/v1">
            <gpxtpx:hr>173</gpxtpx:hr>
          </gpxtpx:TrackPointExtension>
        </extensions>
      </trkpt>
      <trkpt lat="46.24535" lon="4.81343">
        <ele>172.10059</ele>
        <time>2026-05-13T14:12:17+02:00</time>
        <extensions>
          <gpxtpx:TrackPointExtension xmlns:gpxtpx="http://www.garmin.com/xmlschemas/TrackPointExtension/v1">
            <gpxtpx:hr>173</gpxtpx:hr>
          </gpxtpx:TrackPointExtension>
        </extensions>
      </trkpt>
      <trkpt lat="46.24533" lon="4.81349">
        <ele>172.10059</ele>
        <time>2026-05-13T14:12:18+02:00</time>
        <extensions>
          <gpxtpx:TrackPointExtension xmlns:gpxtpx="http://www.garmin.com/xmlschemas/TrackPointExtension/v1">
            <gpxtpx:hr>173</gpxtpx:hr>
          </gpxtpx:TrackPointExtension>
        </extensions>
      </trkpt>
      <trkpt lat="46.24532" lon="4.81356">
        <ele>172</ele>
        <time>2026-05-13T14:12:19+02:00</time>
        <extensions>
          <gpxtpx:TrackPointExtension xmlns:gpxtpx="http://www.garmin.com/xmlschemas/TrackPointExtension/v1">
            <gpxtpx:hr>172</gpxtpx:hr>
          </gpxtpx:TrackPointExtension>
        </extensions>
      </trkpt>
      <trkpt lat="46.24531" lon="4.81363">
        <ele>172</ele>
        <time>2026-05-13T14:12:20+02:00</time>
        <extensions>
          <gpxtpx:TrackPointExtension xmlns:gpxtpx="http://www.garmin.com/xmlschemas/TrackPointExtension/v1">
            <gpxtpx:hr>172</gpxtpx:hr>
          </gpxtpx:TrackPointExtension>
        </extensions>
      </trkpt>
      <trkpt lat="46.24529" lon="4.8137">
        <ele>172</ele>
        <time>2026-05-13T14:12:21+02:00</time>
        <extensions>
          <gpxtpx:TrackPointExtension xmlns:gpxtpx="http://www.garmin.com/xmlschemas/TrackPointExtension/v1">
            <gpxtpx:hr>172</gpxtpx:hr>
          </gpxtpx:TrackPointExtension>
        </extensions>
      </trkpt>
      <trkpt lat="46.24527" lon="4.81377">
        <ele>171.90039</ele>
        <time>2026-05-13T14:12:22+02:00</time>
        <extensions>
          <gpxtpx:TrackPointExtension xmlns:gpxtpx="http://www.garmin.com/xmlschemas/TrackPointExtension/v1">
            <gpxtpx:hr>172</gpxtpx:hr>
          </gpxtpx:TrackPointExtension>
        </extensions>
      </trkpt>
      <trkpt lat="46.24526" lon="4.81384">
        <ele>171.7998</ele>
        <time>2026-05-13T14:12:23+02:00</time>
        <extensions>
          <gpxtpx:TrackPointExtension xmlns:gpxtpx="http://www.garmin.com/xmlschemas/TrackPointExtension/v1">
            <gpxtpx:hr>172</gpxtpx:hr>
          </gpxtpx:TrackPointExtension>
        </extensions>
      </trkpt>
      <trkpt lat="46.24524" lon="4.81391">
        <ele>171.7998</ele>
        <time>2026-05-13T14:12:24+02:00</time>
        <extensions>
          <gpxtpx:TrackPointExtension xmlns:gpxtpx="http://www.garmin.com/xmlschemas/TrackPointExtension/v1">
            <gpxtpx:hr>172</gpxtpx:hr>
          </gpxtpx:TrackPointExtension>
        </extensions>
      </trkpt>
      <trkpt lat="46.24523" lon="4.81399">
        <ele>171.7998</ele>
        <time>2026-05-13T14:12:25+02:00</time>
        <extensions>
          <gpxtpx:TrackPointExtension xmlns:gpxtpx="http://www.garmin.com/xmlschemas/TrackPointExtension/v1">
            <gpxtpx:hr>172</gpxtpx:hr>
          </gpxtpx:TrackPointExtension>
        </extensions>
      </trkpt>
      <trkpt lat="46.24522" lon="4.81406">
        <ele>171.7002</ele>
        <time>2026-05-13T14:12:26+02:00</time>
        <extensions>
          <gpxtpx:TrackPointExtension xmlns:gpxtpx="http://www.garmin.com/xmlschemas/TrackPointExtension/v1">
            <gpxtpx:hr>172</gpxtpx:hr>
          </gpxtpx:TrackPointExtension>
        </extensions>
      </trkpt>
      <trkpt lat="46.2452" lon="4.81413">
        <ele>171.7002</ele>
        <time>2026-05-13T14:12:27+02:00</time>
        <extensions>
          <gpxtpx:TrackPointExtension xmlns:gpxtpx="http://www.garmin.com/xmlschemas/TrackPointExtension/v1">
            <gpxtpx:hr>172</gpxtpx:hr>
          </gpxtpx:TrackPointExtension>
        </extensions>
      </trkpt>
      <trkpt lat="46.24519" lon="4.81421">
        <ele>171.7002</ele>
        <time>2026-05-13T14:12:28+02:00</time>
        <extensions>
          <gpxtpx:TrackPointExtension xmlns:gpxtpx="http://www.garmin.com/xmlschemas/TrackPointExtension/v1">
            <gpxtpx:hr>173</gpxtpx:hr>
          </gpxtpx:TrackPointExtension>
        </extensions>
      </trkpt>
      <trkpt lat="46.24518" lon="4.81429">
        <ele>171.7002</ele>
        <time>2026-05-13T14:12:29+02:00</time>
        <extensions>
          <gpxtpx:TrackPointExtension xmlns:gpxtpx="http://www.garmin.com/xmlschemas/TrackPointExtension/v1">
            <gpxtpx:hr>173</gpxtpx:hr>
          </gpxtpx:TrackPointExtension>
        </extensions>
      </trkpt>
      <trkpt lat="46.24516" lon="4.81436">
        <ele>171.7002</ele>
        <time>2026-05-13T14:12:30+02:00</time>
        <extensions>
          <gpxtpx:TrackPointExtension xmlns:gpxtpx="http://www.garmin.com/xmlschemas/TrackPointExtension/v1">
            <gpxtpx:hr>172</gpxtpx:hr>
          </gpxtpx:TrackPointExtension>
        </extensions>
      </trkpt>
      <trkpt lat="46.24515" lon="4.81444">
        <ele>171.7998</ele>
        <time>2026-05-13T14:12:31+02:00</time>
        <extensions>
          <gpxtpx:TrackPointExtension xmlns:gpxtpx="http://www.garmin.com/xmlschemas/TrackPointExtension/v1">
            <gpxtpx:hr>171</gpxtpx:hr>
          </gpxtpx:TrackPointExtension>
        </extensions>
      </trkpt>
      <trkpt lat="46.24513" lon="4.81451">
        <ele>171.90039</ele>
        <time>2026-05-13T14:12:32+02:00</time>
        <extensions>
          <gpxtpx:TrackPointExtension xmlns:gpxtpx="http://www.garmin.com/xmlschemas/TrackPointExtension/v1">
            <gpxtpx:hr>172</gpxtpx:hr>
          </gpxtpx:TrackPointExtension>
        </extensions>
      </trkpt>
      <trkpt lat="46.24511" lon="4.81459">
        <ele>172</ele>
        <time>2026-05-13T14:12:33+02:00</time>
        <extensions>
          <gpxtpx:TrackPointExtension xmlns:gpxtpx="http://www.garmin.com/xmlschemas/TrackPointExtension/v1">
            <gpxtpx:hr>172</gpxtpx:hr>
          </gpxtpx:TrackPointExtension>
        </extensions>
      </trkpt>
      <trkpt lat="46.2451" lon="4.81466">
        <ele>172</ele>
        <time>2026-05-13T14:12:34+02:00</time>
        <extensions>
          <gpxtpx:TrackPointExtension xmlns:gpxtpx="http://www.garmin.com/xmlschemas/TrackPointExtension/v1">
            <gpxtpx:hr>172</gpxtpx:hr>
          </gpxtpx:TrackPointExtension>
        </extensions>
      </trkpt>
      <trkpt lat="46.24508" lon="4.81474">
        <ele>172.10059</ele>
        <time>2026-05-13T14:12:35+02:00</time>
        <extensions>
          <gpxtpx:TrackPointExtension xmlns:gpxtpx="http://www.garmin.com/xmlschemas/TrackPointExtension/v1">
            <gpxtpx:hr>172</gpxtpx:hr>
          </gpxtpx:TrackPointExtension>
        </extensions>
      </trkpt>
      <trkpt lat="46.24507" lon="4.81482">
        <ele>172.2002</ele>
        <time>2026-05-13T14:12:36+02:00</time>
        <extensions>
          <gpxtpx:TrackPointExtension xmlns:gpxtpx="http://www.garmin.com/xmlschemas/TrackPointExtension/v1">
            <gpxtpx:hr>172</gpxtpx:hr>
          </gpxtpx:TrackPointExtension>
        </extensions>
      </trkpt>
      <trkpt lat="46.24505" lon="4.8149">
        <ele>172.40039</ele>
        <time>2026-05-13T14:12:37+02:00</time>
        <extensions>
          <gpxtpx:TrackPointExtension xmlns:gpxtpx="http://www.garmin.com/xmlschemas/TrackPointExtension/v1">
            <gpxtpx:hr>172</gpxtpx:hr>
          </gpxtpx:TrackPointExtension>
        </extensions>
      </trkpt>
      <trkpt lat="46.24504" lon="4.81497">
        <ele>172.40039</ele>
        <time>2026-05-13T14:12:38+02:00</time>
        <extensions>
          <gpxtpx:TrackPointExtension xmlns:gpxtpx="http://www.garmin.com/xmlschemas/TrackPointExtension/v1">
            <gpxtpx:hr>172</gpxtpx:hr>
          </gpxtpx:TrackPointExtension>
        </extensions>
      </trkpt>
      <trkpt lat="46.24503" lon="4.81505">
        <ele>172.60059</ele>
        <time>2026-05-13T14:12:39+02:00</time>
        <extensions>
          <gpxtpx:TrackPointExtension xmlns:gpxtpx="http://www.garmin.com/xmlschemas/TrackPointExtension/v1">
            <gpxtpx:hr>171</gpxtpx:hr>
          </gpxtpx:TrackPointExtension>
        </extensions>
      </trkpt>
      <trkpt lat="46.24501" lon="4.81512">
        <ele>172.7002</ele>
        <time>2026-05-13T14:12:40+02:00</time>
        <extensions>
          <gpxtpx:TrackPointExtension xmlns:gpxtpx="http://www.garmin.com/xmlschemas/TrackPointExtension/v1">
            <gpxtpx:hr>171</gpxtpx:hr>
          </gpxtpx:TrackPointExtension>
        </extensions>
      </trkpt>
      <trkpt lat="46.245" lon="4.81519">
        <ele>172.90039</ele>
        <time>2026-05-13T14:12:41+02:00</time>
        <extensions>
          <gpxtpx:TrackPointExtension xmlns:gpxtpx="http://www.garmin.com/xmlschemas/TrackPointExtension/v1">
            <gpxtpx:hr>171</gpxtpx:hr>
          </gpxtpx:TrackPointExtension>
        </extensions>
      </trkpt>
      <trkpt lat="46.245" lon="4.81525">
        <ele>172.90039</ele>
        <time>2026-05-13T14:12:42+02:00</time>
        <extensions>
          <gpxtpx:TrackPointExtension xmlns:gpxtpx="http://www.garmin.com/xmlschemas/TrackPointExtension/v1">
            <gpxtpx:hr>170</gpxtpx:hr>
          </gpxtpx:TrackPointExtension>
        </extensions>
      </trkpt>
      <trkpt lat="46.24502" lon="4.81531">
        <ele>173.10059</ele>
        <time>2026-05-13T14:12:43+02:00</time>
        <extensions>
          <gpxtpx:TrackPointExtension xmlns:gpxtpx="http://www.garmin.com/xmlschemas/TrackPointExtension/v1">
            <gpxtpx:hr>169</gpxtpx:hr>
          </gpxtpx:TrackPointExtension>
        </extensions>
      </trkpt>
      <trkpt lat="46.24505" lon="4.81534">
        <ele>173.10059</ele>
        <time>2026-05-13T14:12:44+02:00</time>
        <extensions>
          <gpxtpx:TrackPointExtension xmlns:gpxtpx="http://www.garmin.com/xmlschemas/TrackPointExtension/v1">
            <gpxtpx:hr>168</gpxtpx:hr>
          </gpxtpx:TrackPointExtension>
        </extensions>
      </trkpt>
      <trkpt lat="46.24509" lon="4.81536">
        <ele>173.2998</ele>
        <time>2026-05-13T14:12:45+02:00</time>
        <extensions>
          <gpxtpx:TrackPointExtension xmlns:gpxtpx="http://www.garmin.com/xmlschemas/TrackPointExtension/v1">
            <gpxtpx:hr>169</gpxtpx:hr>
          </gpxtpx:TrackPointExtension>
        </extensions>
      </trkpt>
      <trkpt lat="46.24513" lon="4.81537">
        <ele>173.2998</ele>
        <time>2026-05-13T14:12:46+02:00</time>
        <extensions>
          <gpxtpx:TrackPointExtension xmlns:gpxtpx="http://www.garmin.com/xmlschemas/TrackPointExtension/v1">
            <gpxtpx:hr>169</gpxtpx:hr>
          </gpxtpx:TrackPointExtension>
        </extensions>
      </trkpt>
      <trkpt lat="46.24518" lon="4.81538">
        <ele>173.2998</ele>
        <time>2026-05-13T14:12:47+02:00</time>
        <extensions>
          <gpxtpx:TrackPointExtension xmlns:gpxtpx="http://www.garmin.com/xmlschemas/TrackPointExtension/v1">
            <gpxtpx:hr>169</gpxtpx:hr>
          </gpxtpx:TrackPointExtension>
        </extensions>
      </trkpt>
      <trkpt lat="46.24523" lon="4.81538">
        <ele>173.2998</ele>
        <time>2026-05-13T14:12:48+02:00</time>
        <extensions>
          <gpxtpx:TrackPointExtension xmlns:gpxtpx="http://www.garmin.com/xmlschemas/TrackPointExtension/v1">
            <gpxtpx:hr>169</gpxtpx:hr>
          </gpxtpx:TrackPointExtension>
        </extensions>
      </trkpt>
      <trkpt lat="46.24527" lon="4.81539">
        <ele>173.2998</ele>
        <time>2026-05-13T14:12:49+02:00</time>
        <extensions>
          <gpxtpx:TrackPointExtension xmlns:gpxtpx="http://www.garmin.com/xmlschemas/TrackPointExtension/v1">
            <gpxtpx:hr>168</gpxtpx:hr>
          </gpxtpx:TrackPointExtension>
        </extensions>
      </trkpt>
      <trkpt lat="46.24532" lon="4.8154">
        <ele>173.2998</ele>
        <time>2026-05-13T14:12:50+02:00</time>
        <extensions>
          <gpxtpx:TrackPointExtension xmlns:gpxtpx="http://www.garmin.com/xmlschemas/TrackPointExtension/v1">
            <gpxtpx:hr>169</gpxtpx:hr>
          </gpxtpx:TrackPointExtension>
        </extensions>
      </trkpt>
      <trkpt lat="46.24537" lon="4.8154">
        <ele>173.2998</ele>
        <time>2026-05-13T14:12:51+02:00</time>
        <extensions>
          <gpxtpx:TrackPointExtension xmlns:gpxtpx="http://www.garmin.com/xmlschemas/TrackPointExtension/v1">
            <gpxtpx:hr>169</gpxtpx:hr>
          </gpxtpx:TrackPointExtension>
        </extensions>
      </trkpt>
      <trkpt lat="46.24542" lon="4.8154">
        <ele>173.2998</ele>
        <time>2026-05-13T14:12:52+02:00</time>
        <extensions>
          <gpxtpx:TrackPointExtension xmlns:gpxtpx="http://www.garmin.com/xmlschemas/TrackPointExtension/v1">
            <gpxtpx:hr>169</gpxtpx:hr>
          </gpxtpx:TrackPointExtension>
        </extensions>
      </trkpt>
      <trkpt lat="46.24547" lon="4.81539">
        <ele>173.2998</ele>
        <time>2026-05-13T14:12:53+02:00</time>
        <extensions>
          <gpxtpx:TrackPointExtension xmlns:gpxtpx="http://www.garmin.com/xmlschemas/TrackPointExtension/v1">
            <gpxtpx:hr>170</gpxtpx:hr>
          </gpxtpx:TrackPointExtension>
        </extensions>
      </trkpt>
      <trkpt lat="46.24552" lon="4.81539">
        <ele>173.2998</ele>
        <time>2026-05-13T14:12:54+02:00</time>
        <extensions>
          <gpxtpx:TrackPointExtension xmlns:gpxtpx="http://www.garmin.com/xmlschemas/TrackPointExtension/v1">
            <gpxtpx:hr>170</gpxtpx:hr>
          </gpxtpx:TrackPointExtension>
        </extensions>
      </trkpt>
      <trkpt lat="46.24557" lon="4.81539">
        <ele>173.2998</ele>
        <time>2026-05-13T14:12:55+02:00</time>
        <extensions>
          <gpxtpx:TrackPointExtension xmlns:gpxtpx="http://www.garmin.com/xmlschemas/TrackPointExtension/v1">
            <gpxtpx:hr>171</gpxtpx:hr>
          </gpxtpx:TrackPointExtension>
        </extensions>
      </trkpt>
      <trkpt lat="46.24562" lon="4.81539">
        <ele>173.2998</ele>
        <time>2026-05-13T14:12:56+02:00</time>
        <extensions>
          <gpxtpx:TrackPointExtension xmlns:gpxtpx="http://www.garmin.com/xmlschemas/TrackPointExtension/v1">
            <gpxtpx:hr>171</gpxtpx:hr>
          </gpxtpx:TrackPointExtension>
        </extensions>
      </trkpt>
      <trkpt lat="46.24567" lon="4.8154">
        <ele>173.2002</ele>
        <time>2026-05-13T14:12:57+02:00</time>
        <extensions>
          <gpxtpx:TrackPointExtension xmlns:gpxtpx="http://www.garmin.com/xmlschemas/TrackPointExtension/v1">
            <gpxtpx:hr>172</gpxtpx:hr>
          </gpxtpx:TrackPointExtension>
        </extensions>
      </trkpt>
      <trkpt lat="46.24572" lon="4.8154">
        <ele>173.2002</ele>
        <time>2026-05-13T14:12:58+02:00</time>
        <extensions>
          <gpxtpx:TrackPointExtension xmlns:gpxtpx="http://www.garmin.com/xmlschemas/TrackPointExtension/v1">
            <gpxtpx:hr>172</gpxtpx:hr>
          </gpxtpx:TrackPointExtension>
        </extensions>
      </trkpt>
      <trkpt lat="46.24577" lon="4.8154">
        <ele>173.2002</ele>
        <time>2026-05-13T14:12:59+02:00</time>
        <extensions>
          <gpxtpx:TrackPointExtension xmlns:gpxtpx="http://www.garmin.com/xmlschemas/TrackPointExtension/v1">
            <gpxtpx:hr>172</gpxtpx:hr>
          </gpxtpx:TrackPointExtension>
        </extensions>
      </trkpt>
      <trkpt lat="46.24582" lon="4.81541">
        <ele>173.10059</ele>
        <time>2026-05-13T14:13:00+02:00</time>
        <extensions>
          <gpxtpx:TrackPointExtension xmlns:gpxtpx="http://www.garmin.com/xmlschemas/TrackPointExtension/v1">
            <gpxtpx:hr>173</gpxtpx:hr>
          </gpxtpx:TrackPointExtension>
        </extensions>
      </trkpt>
      <trkpt lat="46.24587" lon="4.81542">
        <ele>173.10059</ele>
        <time>2026-05-13T14:13:01+02:00</time>
        <extensions>
          <gpxtpx:TrackPointExtension xmlns:gpxtpx="http://www.garmin.com/xmlschemas/TrackPointExtension/v1">
            <gpxtpx:hr>173</gpxtpx:hr>
          </gpxtpx:TrackPointExtension>
        </extensions>
      </trkpt>
      <trkpt lat="46.24592" lon="4.81542">
        <ele>173.10059</ele>
        <time>2026-05-13T14:13:02+02:00</time>
        <extensions>
          <gpxtpx:TrackPointExtension xmlns:gpxtpx="http://www.garmin.com/xmlschemas/TrackPointExtension/v1">
            <gpxtpx:hr>173</gpxtpx:hr>
          </gpxtpx:TrackPointExtension>
        </extensions>
      </trkpt>
      <trkpt lat="46.24598" lon="4.81543">
        <ele>173</ele>
        <time>2026-05-13T14:13:03+02:00</time>
        <extensions>
          <gpxtpx:TrackPointExtension xmlns:gpxtpx="http://www.garmin.com/xmlschemas/TrackPointExtension/v1">
            <gpxtpx:hr>174</gpxtpx:hr>
          </gpxtpx:TrackPointExtension>
        </extensions>
      </trkpt>
      <trkpt lat="46.24603" lon="4.81544">
        <ele>173</ele>
        <time>2026-05-13T14:13:04+02:00</time>
        <extensions>
          <gpxtpx:TrackPointExtension xmlns:gpxtpx="http://www.garmin.com/xmlschemas/TrackPointExtension/v1">
            <gpxtpx:hr>174</gpxtpx:hr>
          </gpxtpx:TrackPointExtension>
        </extensions>
      </trkpt>
      <trkpt lat="46.24609" lon="4.81545">
        <ele>173</ele>
        <time>2026-05-13T14:13:05+02:00</time>
        <extensions>
          <gpxtpx:TrackPointExtension xmlns:gpxtpx="http://www.garmin.com/xmlschemas/TrackPointExtension/v1">
            <gpxtpx:hr>174</gpxtpx:hr>
          </gpxtpx:TrackPointExtension>
        </extensions>
      </trkpt>
      <trkpt lat="46.24614" lon="4.81546">
        <ele>172.90039</ele>
        <time>2026-05-13T14:13:06+02:00</time>
        <extensions>
          <gpxtpx:TrackPointExtension xmlns:gpxtpx="http://www.garmin.com/xmlschemas/TrackPointExtension/v1">
            <gpxtpx:hr>175</gpxtpx:hr>
          </gpxtpx:TrackPointExtension>
        </extensions>
      </trkpt>
      <trkpt lat="46.2462" lon="4.81547">
        <ele>172.90039</ele>
        <time>2026-05-13T14:13:07+02:00</time>
        <extensions>
          <gpxtpx:TrackPointExtension xmlns:gpxtpx="http://www.garmin.com/xmlschemas/TrackPointExtension/v1">
            <gpxtpx:hr>174</gpxtpx:hr>
          </gpxtpx:TrackPointExtension>
        </extensions>
      </trkpt>
      <trkpt lat="46.24626" lon="4.81547">
        <ele>172.7998</ele>
        <time>2026-05-13T14:13:08+02:00</time>
        <extensions>
          <gpxtpx:TrackPointExtension xmlns:gpxtpx="http://www.garmin.com/xmlschemas/TrackPointExtension/v1">
            <gpxtpx:hr>174</gpxtpx:hr>
          </gpxtpx:TrackPointExtension>
        </extensions>
      </trkpt>
      <trkpt lat="46.24631" lon="4.81548">
        <ele>172.7998</ele>
        <time>2026-05-13T14:13:09+02:00</time>
        <extensions>
          <gpxtpx:TrackPointExtension xmlns:gpxtpx="http://www.garmin.com/xmlschemas/TrackPointExtension/v1">
            <gpxtpx:hr>175</gpxtpx:hr>
          </gpxtpx:TrackPointExtension>
        </extensions>
      </trkpt>
      <trkpt lat="46.24637" lon="4.81549">
        <ele>172.7002</ele>
        <time>2026-05-13T14:13:10+02:00</time>
        <extensions>
          <gpxtpx:TrackPointExtension xmlns:gpxtpx="http://www.garmin.com/xmlschemas/TrackPointExtension/v1">
            <gpxtpx:hr>175</gpxtpx:hr>
          </gpxtpx:TrackPointExtension>
        </extensions>
      </trkpt>
      <trkpt lat="46.24643" lon="4.8155">
        <ele>172.60059</ele>
        <time>2026-05-13T14:13:11+02:00</time>
        <extensions>
          <gpxtpx:TrackPointExtension xmlns:gpxtpx="http://www.garmin.com/xmlschemas/TrackPointExtension/v1">
            <gpxtpx:hr>174</gpxtpx:hr>
          </gpxtpx:TrackPointExtension>
        </extensions>
      </trkpt>
      <trkpt lat="46.24648" lon="4.81551">
        <ele>172.60059</ele>
        <time>2026-05-13T14:13:12+02:00</time>
        <extensions>
          <gpxtpx:TrackPointExtension xmlns:gpxtpx="http://www.garmin.com/xmlschemas/TrackPointExtension/v1">
            <gpxtpx:hr>175</gpxtpx:hr>
          </gpxtpx:TrackPointExtension>
        </extensions>
      </trkpt>
      <trkpt lat="46.24654" lon="4.81552">
        <ele>172.5</ele>
        <time>2026-05-13T14:13:13+02:00</time>
        <extensions>
          <gpxtpx:TrackPointExtension xmlns:gpxtpx="http://www.garmin.com/xmlschemas/TrackPointExtension/v1">
            <gpxtpx:hr>175</gpxtpx:hr>
          </gpxtpx:TrackPointExtension>
        </extensions>
      </trkpt>
      <trkpt lat="46.24659" lon="4.81552">
        <ele>172.40039</ele>
        <time>2026-05-13T14:13:14+02:00</time>
        <extensions>
          <gpxtpx:TrackPointExtension xmlns:gpxtpx="http://www.garmin.com/xmlschemas/TrackPointExtension/v1">
            <gpxtpx:hr>175</gpxtpx:hr>
          </gpxtpx:TrackPointExtension>
        </extensions>
      </trkpt>
      <trkpt lat="46.24665" lon="4.81554">
        <ele>172.5</ele>
        <time>2026-05-13T14:13:15+02:00</time>
        <extensions>
          <gpxtpx:TrackPointExtension xmlns:gpxtpx="http://www.garmin.com/xmlschemas/TrackPointExtension/v1">
            <gpxtpx:hr>175</gpxtpx:hr>
          </gpxtpx:TrackPointExtension>
        </extensions>
      </trkpt>
      <trkpt lat="46.2467" lon="4.81555">
        <ele>172.5</ele>
        <time>2026-05-13T14:13:16+02:00</time>
        <extensions>
          <gpxtpx:TrackPointExtension xmlns:gpxtpx="http://www.garmin.com/xmlschemas/TrackPointExtension/v1">
            <gpxtpx:hr>176</gpxtpx:hr>
          </gpxtpx:TrackPointExtension>
        </extensions>
      </trkpt>
      <trkpt lat="46.24676" lon="4.81557">
        <ele>172.5</ele>
        <time>2026-05-13T14:13:17+02:00</time>
        <extensions>
          <gpxtpx:TrackPointExtension xmlns:gpxtpx="http://www.garmin.com/xmlschemas/TrackPointExtension/v1">
            <gpxtpx:hr>175</gpxtpx:hr>
          </gpxtpx:TrackPointExtension>
        </extensions>
      </trkpt>
      <trkpt lat="46.24682" lon="4.81559">
        <ele>172.2998</ele>
        <time>2026-05-13T14:13:18+02:00</time>
        <extensions>
          <gpxtpx:TrackPointExtension xmlns:gpxtpx="http://www.garmin.com/xmlschemas/TrackPointExtension/v1">
            <gpxtpx:hr>174</gpxtpx:hr>
          </gpxtpx:TrackPointExtension>
        </extensions>
      </trkpt>
      <trkpt lat="46.24688" lon="4.81561">
        <ele>172.2002</ele>
        <time>2026-05-13T14:13:19+02:00</time>
        <extensions>
          <gpxtpx:TrackPointExtension xmlns:gpxtpx="http://www.garmin.com/xmlschemas/TrackPointExtension/v1">
            <gpxtpx:hr>175</gpxtpx:hr>
          </gpxtpx:TrackPointExtension>
        </extensions>
      </trkpt>
      <trkpt lat="46.24693" lon="4.81562">
        <ele>172.2998</ele>
        <time>2026-05-13T14:13:20+02:00</time>
        <extensions>
          <gpxtpx:TrackPointExtension xmlns:gpxtpx="http://www.garmin.com/xmlschemas/TrackPointExtension/v1">
            <gpxtpx:hr>174</gpxtpx:hr>
          </gpxtpx:TrackPointExtension>
        </extensions>
      </trkpt>
      <trkpt lat="46.247" lon="4.81564">
        <ele>172.2002</ele>
        <time>2026-05-13T14:13:21+02:00</time>
        <extensions>
          <gpxtpx:TrackPointExtension xmlns:gpxtpx="http://www.garmin.com/xmlschemas/TrackPointExtension/v1">
            <gpxtpx:hr>173</gpxtpx:hr>
          </gpxtpx:TrackPointExtension>
        </extensions>
      </trkpt>
      <trkpt lat="46.24706" lon="4.81567">
        <ele>172.10059</ele>
        <time>2026-05-13T14:13:22+02:00</time>
        <extensions>
          <gpxtpx:TrackPointExtension xmlns:gpxtpx="http://www.garmin.com/xmlschemas/TrackPointExtension/v1">
            <gpxtpx:hr>173</gpxtpx:hr>
          </gpxtpx:TrackPointExtension>
        </extensions>
      </trkpt>
      <trkpt lat="46.24712" lon="4.81569">
        <ele>172</ele>
        <time>2026-05-13T14:13:23+02:00</time>
        <extensions>
          <gpxtpx:TrackPointExtension xmlns:gpxtpx="http://www.garmin.com/xmlschemas/TrackPointExtension/v1">
            <gpxtpx:hr>173</gpxtpx:hr>
          </gpxtpx:TrackPointExtension>
        </extensions>
      </trkpt>
      <trkpt lat="46.24718" lon="4.81572">
        <ele>172.10059</ele>
        <time>2026-05-13T14:13:24+02:00</time>
        <extensions>
          <gpxtpx:TrackPointExtension xmlns:gpxtpx="http://www.garmin.com/xmlschemas/TrackPointExtension/v1">
            <gpxtpx:hr>172</gpxtpx:hr>
          </gpxtpx:TrackPointExtension>
        </extensions>
      </trkpt>
      <trkpt lat="46.24724" lon="4.81574">
        <ele>171.90039</ele>
        <time>2026-05-13T14:13:25+02:00</time>
        <extensions>
          <gpxtpx:TrackPointExtension xmlns:gpxtpx="http://www.garmin.com/xmlschemas/TrackPointExtension/v1">
            <gpxtpx:hr>173</gpxtpx:hr>
          </gpxtpx:TrackPointExtension>
        </extensions>
      </trkpt>
      <trkpt lat="46.2473" lon="4.81576">
        <ele>171.7998</ele>
        <time>2026-05-13T14:13:26+02:00</time>
        <extensions>
          <gpxtpx:TrackPointExtension xmlns:gpxtpx="http://www.garmin.com/xmlschemas/TrackPointExtension/v1">
            <gpxtpx:hr>172</gpxtpx:hr>
          </gpxtpx:TrackPointExtension>
        </extensions>
      </trkpt>
      <trkpt lat="46.24737" lon="4.81577">
        <ele>171.40039</ele>
        <time>2026-05-13T14:13:27+02:00</time>
        <extensions>
          <gpxtpx:TrackPointExtension xmlns:gpxtpx="http://www.garmin.com/xmlschemas/TrackPointExtension/v1">
            <gpxtpx:hr>172</gpxtpx:hr>
          </gpxtpx:TrackPointExtension>
        </extensions>
      </trkpt>
      <trkpt lat="46.24743" lon="4.81578">
        <ele>171.2002</ele>
        <time>2026-05-13T14:13:28+02:00</time>
        <extensions>
          <gpxtpx:TrackPointExtension xmlns:gpxtpx="http://www.garmin.com/xmlschemas/TrackPointExtension/v1">
            <gpxtpx:hr>172</gpxtpx:hr>
          </gpxtpx:TrackPointExtension>
        </extensions>
      </trkpt>
      <trkpt lat="46.24749" lon="4.81579">
        <ele>171</ele>
        <time>2026-05-13T14:13:29+02:00</time>
        <extensions>
          <gpxtpx:TrackPointExtension xmlns:gpxtpx="http://www.garmin.com/xmlschemas/TrackPointExtension/v1">
            <gpxtpx:hr>172</gpxtpx:hr>
          </gpxtpx:TrackPointExtension>
        </extensions>
      </trkpt>
      <trkpt lat="46.24755" lon="4.81582">
        <ele>170.7998</ele>
        <time>2026-05-13T14:13:30+02:00</time>
        <extensions>
          <gpxtpx:TrackPointExtension xmlns:gpxtpx="http://www.garmin.com/xmlschemas/TrackPointExtension/v1">
            <gpxtpx:hr>171</gpxtpx:hr>
          </gpxtpx:TrackPointExtension>
        </extensions>
      </trkpt>
      <trkpt lat="46.24761" lon="4.81586">
        <ele>170.60059</ele>
        <time>2026-05-13T14:13:31+02:00</time>
        <extensions>
          <gpxtpx:TrackPointExtension xmlns:gpxtpx="http://www.garmin.com/xmlschemas/TrackPointExtension/v1">
            <gpxtpx:hr>171</gpxtpx:hr>
          </gpxtpx:TrackPointExtension>
        </extensions>
      </trkpt>
      <trkpt lat="46.24766" lon="4.81592">
        <ele>170.2998</ele>
        <time>2026-05-13T14:13:32+02:00</time>
        <extensions>
          <gpxtpx:TrackPointExtension xmlns:gpxtpx="http://www.garmin.com/xmlschemas/TrackPointExtension/v1">
            <gpxtpx:hr>171</gpxtpx:hr>
          </gpxtpx:TrackPointExtension>
        </extensions>
      </trkpt>
      <trkpt lat="46.24771" lon="4.81598">
        <ele>170.2998</ele>
        <time>2026-05-13T14:13:33+02:00</time>
        <extensions>
          <gpxtpx:TrackPointExtension xmlns:gpxtpx="http://www.garmin.com/xmlschemas/TrackPointExtension/v1">
            <gpxtpx:hr>170</gpxtpx:hr>
          </gpxtpx:TrackPointExtension>
        </extensions>
      </trkpt>
      <trkpt lat="46.24775" lon="4.81604">
        <ele>170</ele>
        <time>2026-05-13T14:13:34+02:00</time>
        <extensions>
          <gpxtpx:TrackPointExtension xmlns:gpxtpx="http://www.garmin.com/xmlschemas/TrackPointExtension/v1">
            <gpxtpx:hr>170</gpxtpx:hr>
          </gpxtpx:TrackPointExtension>
        </extensions>
      </trkpt>
      <trkpt lat="46.2478" lon="4.81611">
        <ele>169.7998</ele>
        <time>2026-05-13T14:13:35+02:00</time>
        <extensions>
          <gpxtpx:TrackPointExtension xmlns:gpxtpx="http://www.garmin.com/xmlschemas/TrackPointExtension/v1">
            <gpxtpx:hr>169</gpxtpx:hr>
          </gpxtpx:TrackPointExtension>
        </extensions>
      </trkpt>
      <trkpt lat="46.24785" lon="4.81618">
        <ele>169.7002</ele>
        <time>2026-05-13T14:13:36+02:00</time>
        <extensions>
          <gpxtpx:TrackPointExtension xmlns:gpxtpx="http://www.garmin.com/xmlschemas/TrackPointExtension/v1">
            <gpxtpx:hr>170</gpxtpx:hr>
          </gpxtpx:TrackPointExtension>
        </extensions>
      </trkpt>
      <trkpt lat="46.24789" lon="4.81624">
        <ele>169.7002</ele>
        <time>2026-05-13T14:13:37+02:00</time>
        <extensions>
          <gpxtpx:TrackPointExtension xmlns:gpxtpx="http://www.garmin.com/xmlschemas/TrackPointExtension/v1">
            <gpxtpx:hr>169</gpxtpx:hr>
          </gpxtpx:TrackPointExtension>
        </extensions>
      </trkpt>
      <trkpt lat="46.24794" lon="4.81631">
        <ele>169.60059</ele>
        <time>2026-05-13T14:13:38+02:00</time>
        <extensions>
          <gpxtpx:TrackPointExtension xmlns:gpxtpx="http://www.garmin.com/xmlschemas/TrackPointExtension/v1">
            <gpxtpx:hr>170</gpxtpx:hr>
          </gpxtpx:TrackPointExtension>
        </extensions>
      </trkpt>
      <trkpt lat="46.24798" lon="4.81638">
        <ele>169.40039</ele>
        <time>2026-05-13T14:13:39+02:00</time>
        <extensions>
          <gpxtpx:TrackPointExtension xmlns:gpxtpx="http://www.garmin.com/xmlschemas/TrackPointExtension/v1">
            <gpxtpx:hr>170</gpxtpx:hr>
          </gpxtpx:TrackPointExtension>
        </extensions>
      </trkpt>
      <trkpt lat="46.24804" lon="4.81644">
        <ele>169.40039</ele>
        <time>2026-05-13T14:13:40+02:00</time>
        <extensions>
          <gpxtpx:TrackPointExtension xmlns:gpxtpx="http://www.garmin.com/xmlschemas/TrackPointExtension/v1">
            <gpxtpx:hr>169</gpxtpx:hr>
          </gpxtpx:TrackPointExtension>
        </extensions>
      </trkpt>
      <trkpt lat="46.24809" lon="4.8165">
        <ele>169.2998</ele>
        <time>2026-05-13T14:13:41+02:00</time>
        <extensions>
          <gpxtpx:TrackPointExtension xmlns:gpxtpx="http://www.garmin.com/xmlschemas/TrackPointExtension/v1">
            <gpxtpx:hr>170</gpxtpx:hr>
          </gpxtpx:TrackPointExtension>
        </extensions>
      </trkpt>
      <trkpt lat="46.24814" lon="4.81656">
        <ele>169.2002</ele>
        <time>2026-05-13T14:13:42+02:00</time>
        <extensions>
          <gpxtpx:TrackPointExtension xmlns:gpxtpx="http://www.garmin.com/xmlschemas/TrackPointExtension/v1">
            <gpxtpx:hr>170</gpxtpx:hr>
          </gpxtpx:TrackPointExtension>
        </extensions>
      </trkpt>
      <trkpt lat="46.24819" lon="4.81662">
        <ele>169.2002</ele>
        <time>2026-05-13T14:13:43+02:00</time>
        <extensions>
          <gpxtpx:TrackPointExtension xmlns:gpxtpx="http://www.garmin.com/xmlschemas/TrackPointExtension/v1">
            <gpxtpx:hr>170</gpxtpx:hr>
          </gpxtpx:TrackPointExtension>
        </extensions>
      </trkpt>
      <trkpt lat="46.24824" lon="4.81667">
        <ele>169.2998</ele>
        <time>2026-05-13T14:13:44+02:00</time>
        <extensions>
          <gpxtpx:TrackPointExtension xmlns:gpxtpx="http://www.garmin.com/xmlschemas/TrackPointExtension/v1">
            <gpxtpx:hr>171</gpxtpx:hr>
          </gpxtpx:TrackPointExtension>
        </extensions>
      </trkpt>
      <trkpt lat="46.24829" lon="4.81672">
        <ele>169.2002</ele>
        <time>2026-05-13T14:13:45+02:00</time>
        <extensions>
          <gpxtpx:TrackPointExtension xmlns:gpxtpx="http://www.garmin.com/xmlschemas/TrackPointExtension/v1">
            <gpxtpx:hr>170</gpxtpx:hr>
          </gpxtpx:TrackPointExtension>
        </extensions>
      </trkpt>
      <trkpt lat="46.24835" lon="4.81677">
        <ele>169.2002</ele>
        <time>2026-05-13T14:13:46+02:00</time>
        <extensions>
          <gpxtpx:TrackPointExtension xmlns:gpxtpx="http://www.garmin.com/xmlschemas/TrackPointExtension/v1">
            <gpxtpx:hr>170</gpxtpx:hr>
          </gpxtpx:TrackPointExtension>
        </extensions>
      </trkpt>
      <trkpt lat="46.2484" lon="4.81681">
        <ele>169</ele>
        <time>2026-05-13T14:13:47+02:00</time>
        <extensions>
          <gpxtpx:TrackPointExtension xmlns:gpxtpx="http://www.garmin.com/xmlschemas/TrackPointExtension/v1">
            <gpxtpx:hr>171</gpxtpx:hr>
          </gpxtpx:TrackPointExtension>
        </extensions>
      </trkpt>
      <trkpt lat="46.24846" lon="4.81684">
        <ele>169</ele>
        <time>2026-05-13T14:13:48+02:00</time>
        <extensions>
          <gpxtpx:TrackPointExtension xmlns:gpxtpx="http://www.garmin.com/xmlschemas/TrackPointExtension/v1">
            <gpxtpx:hr>171</gpxtpx:hr>
          </gpxtpx:TrackPointExtension>
        </extensions>
      </trkpt>
      <trkpt lat="46.24852" lon="4.81687">
        <ele>168.7998</ele>
        <time>2026-05-13T14:13:49+02:00</time>
        <extensions>
          <gpxtpx:TrackPointExtension xmlns:gpxtpx="http://www.garmin.com/xmlschemas/TrackPointExtension/v1">
            <gpxtpx:hr>171</gpxtpx:hr>
          </gpxtpx:TrackPointExtension>
        </extensions>
      </trkpt>
      <trkpt lat="46.24857" lon="4.8169">
        <ele>168.60059</ele>
        <time>2026-05-13T14:13:50+02:00</time>
        <extensions>
          <gpxtpx:TrackPointExtension xmlns:gpxtpx="http://www.garmin.com/xmlschemas/TrackPointExtension/v1">
            <gpxtpx:hr>171</gpxtpx:hr>
          </gpxtpx:TrackPointExtension>
        </extensions>
      </trkpt>
      <trkpt lat="46.24864" lon="4.81692">
        <ele>168.60059</ele>
        <time>2026-05-13T14:13:51+02:00</time>
        <extensions>
          <gpxtpx:TrackPointExtension xmlns:gpxtpx="http://www.garmin.com/xmlschemas/TrackPointExtension/v1">
            <gpxtpx:hr>172</gpxtpx:hr>
          </gpxtpx:TrackPointExtension>
        </extensions>
      </trkpt>
      <trkpt lat="46.2487" lon="4.81693">
        <ele>168.40039</ele>
        <time>2026-05-13T14:13:52+02:00</time>
        <extensions>
          <gpxtpx:TrackPointExtension xmlns:gpxtpx="http://www.garmin.com/xmlschemas/TrackPointExtension/v1">
            <gpxtpx:hr>172</gpxtpx:hr>
          </gpxtpx:TrackPointExtension>
        </extensions>
      </trkpt>
      <trkpt lat="46.24877" lon="4.81695">
        <ele>168.2002</ele>
        <time>2026-05-13T14:13:53+02:00</time>
        <extensions>
          <gpxtpx:TrackPointExtension xmlns:gpxtpx="http://www.garmin.com/xmlschemas/TrackPointExtension/v1">
            <gpxtpx:hr>172</gpxtpx:hr>
          </gpxtpx:TrackPointExtension>
        </extensions>
      </trkpt>
      <trkpt lat="46.24883" lon="4.81696">
        <ele>168</ele>
        <time>2026-05-13T14:13:54+02:00</time>
        <extensions>
          <gpxtpx:TrackPointExtension xmlns:gpxtpx="http://www.garmin.com/xmlschemas/TrackPointExtension/v1">
            <gpxtpx:hr>173</gpxtpx:hr>
          </gpxtpx:TrackPointExtension>
        </extensions>
      </trkpt>
      <trkpt lat="46.24889" lon="4.81698">
        <ele>167.90039</ele>
        <time>2026-05-13T14:13:55+02:00</time>
        <extensions>
          <gpxtpx:TrackPointExtension xmlns:gpxtpx="http://www.garmin.com/xmlschemas/TrackPointExtension/v1">
            <gpxtpx:hr>173</gpxtpx:hr>
          </gpxtpx:TrackPointExtension>
        </extensions>
      </trkpt>
      <trkpt lat="46.24895" lon="4.817">
        <ele>167.90039</ele>
        <time>2026-05-13T14:13:56+02:00</time>
        <extensions>
          <gpxtpx:TrackPointExtension xmlns:gpxtpx="http://www.garmin.com/xmlschemas/TrackPointExtension/v1">
            <gpxtpx:hr>173</gpxtpx:hr>
          </gpxtpx:TrackPointExtension>
        </extensions>
      </trkpt>
      <trkpt lat="46.24901" lon="4.81702">
        <ele>167.7998</ele>
        <time>2026-05-13T14:13:57+02:00</time>
        <extensions>
          <gpxtpx:TrackPointExtension xmlns:gpxtpx="http://www.garmin.com/xmlschemas/TrackPointExtension/v1">
            <gpxtpx:hr>172</gpxtpx:hr>
          </gpxtpx:TrackPointExtension>
        </extensions>
      </trkpt>
      <trkpt lat="46.24908" lon="4.81704">
        <ele>167.7998</ele>
        <time>2026-05-13T14:13:58+02:00</time>
        <extensions>
          <gpxtpx:TrackPointExtension xmlns:gpxtpx="http://www.garmin.com/xmlschemas/TrackPointExtension/v1">
            <gpxtpx:hr>173</gpxtpx:hr>
          </gpxtpx:TrackPointExtension>
        </extensions>
      </trkpt>
      <trkpt lat="46.24914" lon="4.81706">
        <ele>168.10059</ele>
        <time>2026-05-13T14:13:59+02:00</time>
        <extensions>
          <gpxtpx:TrackPointExtension xmlns:gpxtpx="http://www.garmin.com/xmlschemas/TrackPointExtension/v1">
            <gpxtpx:hr>173</gpxtpx:hr>
          </gpxtpx:TrackPointExtension>
        </extensions>
      </trkpt>
      <trkpt lat="46.24921" lon="4.81708">
        <ele>168.40039</ele>
        <time>2026-05-13T14:14:00+02:00</time>
        <extensions>
          <gpxtpx:TrackPointExtension xmlns:gpxtpx="http://www.garmin.com/xmlschemas/TrackPointExtension/v1">
            <gpxtpx:hr>173</gpxtpx:hr>
          </gpxtpx:TrackPointExtension>
        </extensions>
      </trkpt>
      <trkpt lat="46.24927" lon="4.81709">
        <ele>168.60059</ele>
        <time>2026-05-13T14:14:01+02:00</time>
        <extensions>
          <gpxtpx:TrackPointExtension xmlns:gpxtpx="http://www.garmin.com/xmlschemas/TrackPointExtension/v1">
            <gpxtpx:hr>173</gpxtpx:hr>
          </gpxtpx:TrackPointExtension>
        </extensions>
      </trkpt>
      <trkpt lat="46.24934" lon="4.8171">
        <ele>169</ele>
        <time>2026-05-13T14:14:02+02:00</time>
        <extensions>
          <gpxtpx:TrackPointExtension xmlns:gpxtpx="http://www.garmin.com/xmlschemas/TrackPointExtension/v1">
            <gpxtpx:hr>173</gpxtpx:hr>
          </gpxtpx:TrackPointExtension>
        </extensions>
      </trkpt>
      <trkpt lat="46.2494" lon="4.81711">
        <ele>169.2998</ele>
        <time>2026-05-13T14:14:03+02:00</time>
        <extensions>
          <gpxtpx:TrackPointExtension xmlns:gpxtpx="http://www.garmin.com/xmlschemas/TrackPointExtension/v1">
            <gpxtpx:hr>173</gpxtpx:hr>
          </gpxtpx:TrackPointExtension>
        </extensions>
      </trkpt>
      <trkpt lat="46.24946" lon="4.81713">
        <ele>169.7002</ele>
        <time>2026-05-13T14:14:04+02:00</time>
        <extensions>
          <gpxtpx:TrackPointExtension xmlns:gpxtpx="http://www.garmin.com/xmlschemas/TrackPointExtension/v1">
            <gpxtpx:hr>173</gpxtpx:hr>
          </gpxtpx:TrackPointExtension>
        </extensions>
      </trkpt>
      <trkpt lat="46.24952" lon="4.81714">
        <ele>170</ele>
        <time>2026-05-13T14:14:05+02:00</time>
        <extensions>
          <gpxtpx:TrackPointExtension xmlns:gpxtpx="http://www.garmin.com/xmlschemas/TrackPointExtension/v1">
            <gpxtpx:hr>172</gpxtpx:hr>
          </gpxtpx:TrackPointExtension>
        </extensions>
      </trkpt>
      <trkpt lat="46.24959" lon="4.81715">
        <ele>170.2998</ele>
        <time>2026-05-13T14:14:06+02:00</time>
        <extensions>
          <gpxtpx:TrackPointExtension xmlns:gpxtpx="http://www.garmin.com/xmlschemas/TrackPointExtension/v1">
            <gpxtpx:hr>173</gpxtpx:hr>
          </gpxtpx:TrackPointExtension>
        </extensions>
      </trkpt>
      <trkpt lat="46.24965" lon="4.81717">
        <ele>170.7002</ele>
        <time>2026-05-13T14:14:07+02:00</time>
        <extensions>
          <gpxtpx:TrackPointExtension xmlns:gpxtpx="http://www.garmin.com/xmlschemas/TrackPointExtension/v1">
            <gpxtpx:hr>173</gpxtpx:hr>
          </gpxtpx:TrackPointExtension>
        </extensions>
      </trkpt>
      <trkpt lat="46.24971" lon="4.81718">
        <ele>171</ele>
        <time>2026-05-13T14:14:08+02:00</time>
        <extensions>
          <gpxtpx:TrackPointExtension xmlns:gpxtpx="http://www.garmin.com/xmlschemas/TrackPointExtension/v1">
            <gpxtpx:hr>173</gpxtpx:hr>
          </gpxtpx:TrackPointExtension>
        </extensions>
      </trkpt>
      <trkpt lat="46.24976" lon="4.81719">
        <ele>171.5</ele>
        <time>2026-05-13T14:14:09+02:00</time>
        <extensions>
          <gpxtpx:TrackPointExtension xmlns:gpxtpx="http://www.garmin.com/xmlschemas/TrackPointExtension/v1">
            <gpxtpx:hr>173</gpxtpx:hr>
          </gpxtpx:TrackPointExtension>
        </extensions>
      </trkpt>
      <trkpt lat="46.24982" lon="4.8172">
        <ele>172</ele>
        <time>2026-05-13T14:14:10+02:00</time>
        <extensions>
          <gpxtpx:TrackPointExtension xmlns:gpxtpx="http://www.garmin.com/xmlschemas/TrackPointExtension/v1">
            <gpxtpx:hr>173</gpxtpx:hr>
          </gpxtpx:TrackPointExtension>
        </extensions>
      </trkpt>
      <trkpt lat="46.24988" lon="4.81721">
        <ele>172.5</ele>
        <time>2026-05-13T14:14:11+02:00</time>
        <extensions>
          <gpxtpx:TrackPointExtension xmlns:gpxtpx="http://www.garmin.com/xmlschemas/TrackPointExtension/v1">
            <gpxtpx:hr>173</gpxtpx:hr>
          </gpxtpx:TrackPointExtension>
        </extensions>
      </trkpt>
      <trkpt lat="46.24993" lon="4.81723">
        <ele>173.10059</ele>
        <time>2026-05-13T14:14:12+02:00</time>
        <extensions>
          <gpxtpx:TrackPointExtension xmlns:gpxtpx="http://www.garmin.com/xmlschemas/TrackPointExtension/v1">
            <gpxtpx:hr>173</gpxtpx:hr>
          </gpxtpx:TrackPointExtension>
        </extensions>
      </trkpt>
      <trkpt lat="46.24998" lon="4.81726">
        <ele>173.90039</ele>
        <time>2026-05-13T14:14:13+02:00</time>
        <extensions>
          <gpxtpx:TrackPointExtension xmlns:gpxtpx="http://www.garmin.com/xmlschemas/TrackPointExtension/v1">
            <gpxtpx:hr>172</gpxtpx:hr>
          </gpxtpx:TrackPointExtension>
        </extensions>
      </trkpt>
      <trkpt lat="46.25002" lon="4.81732">
        <ele>173.90039</ele>
        <time>2026-05-13T14:14:14+02:00</time>
        <extensions>
          <gpxtpx:TrackPointExtension xmlns:gpxtpx="http://www.garmin.com/xmlschemas/TrackPointExtension/v1">
            <gpxtpx:hr>172</gpxtpx:hr>
          </gpxtpx:TrackPointExtension>
        </extensions>
      </trkpt>
      <trkpt lat="46.25002" lon="4.8174">
        <ele>174</ele>
        <time>2026-05-13T14:14:15+02:00</time>
        <extensions>
          <gpxtpx:TrackPointExtension xmlns:gpxtpx="http://www.garmin.com/xmlschemas/TrackPointExtension/v1">
            <gpxtpx:hr>171</gpxtpx:hr>
          </gpxtpx:TrackPointExtension>
        </extensions>
      </trkpt>
      <trkpt lat="46.25001" lon="4.81747">
        <ele>173.90039</ele>
        <time>2026-05-13T14:14:16+02:00</time>
        <extensions>
          <gpxtpx:TrackPointExtension xmlns:gpxtpx="http://www.garmin.com/xmlschemas/TrackPointExtension/v1">
            <gpxtpx:hr>170</gpxtpx:hr>
          </gpxtpx:TrackPointExtension>
        </extensions>
      </trkpt>
      <trkpt lat="46.24998" lon="4.81754">
        <ele>173.7002</ele>
        <time>2026-05-13T14:14:17+02:00</time>
        <extensions>
          <gpxtpx:TrackPointExtension xmlns:gpxtpx="http://www.garmin.com/xmlschemas/TrackPointExtension/v1">
            <gpxtpx:hr>170</gpxtpx:hr>
          </gpxtpx:TrackPointExtension>
        </extensions>
      </trkpt>
      <trkpt lat="46.24996" lon="4.81761">
        <ele>172.7998</ele>
        <time>2026-05-13T14:14:18+02:00</time>
        <extensions>
          <gpxtpx:TrackPointExtension xmlns:gpxtpx="http://www.garmin.com/xmlschemas/TrackPointExtension/v1">
            <gpxtpx:hr>170</gpxtpx:hr>
          </gpxtpx:TrackPointExtension>
        </extensions>
      </trkpt>
      <trkpt lat="46.24993" lon="4.81769">
        <ele>172.2998</ele>
        <time>2026-05-13T14:14:19+02:00</time>
        <extensions>
          <gpxtpx:TrackPointExtension xmlns:gpxtpx="http://www.garmin.com/xmlschemas/TrackPointExtension/v1">
            <gpxtpx:hr>170</gpxtpx:hr>
          </gpxtpx:TrackPointExtension>
        </extensions>
      </trkpt>
      <trkpt lat="46.2499" lon="4.81776">
        <ele>171.7998</ele>
        <time>2026-05-13T14:14:20+02:00</time>
        <extensions>
          <gpxtpx:TrackPointExtension xmlns:gpxtpx="http://www.garmin.com/xmlschemas/TrackPointExtension/v1">
            <gpxtpx:hr>169</gpxtpx:hr>
          </gpxtpx:TrackPointExtension>
        </extensions>
      </trkpt>
      <trkpt lat="46.24987" lon="4.81784">
        <ele>171.2998</ele>
        <time>2026-05-13T14:14:21+02:00</time>
        <extensions>
          <gpxtpx:TrackPointExtension xmlns:gpxtpx="http://www.garmin.com/xmlschemas/TrackPointExtension/v1">
            <gpxtpx:hr>169</gpxtpx:hr>
          </gpxtpx:TrackPointExtension>
        </extensions>
      </trkpt>
      <trkpt lat="46.24984" lon="4.81791">
        <ele>170.5</ele>
        <time>2026-05-13T14:14:22+02:00</time>
        <extensions>
          <gpxtpx:TrackPointExtension xmlns:gpxtpx="http://www.garmin.com/xmlschemas/TrackPointExtension/v1">
            <gpxtpx:hr>169</gpxtpx:hr>
          </gpxtpx:TrackPointExtension>
        </extensions>
      </trkpt>
      <trkpt lat="46.24981" lon="4.81799">
        <ele>170.2998</ele>
        <time>2026-05-13T14:14:23+02:00</time>
        <extensions>
          <gpxtpx:TrackPointExtension xmlns:gpxtpx="http://www.garmin.com/xmlschemas/TrackPointExtension/v1">
            <gpxtpx:hr>169</gpxtpx:hr>
          </gpxtpx:TrackPointExtension>
        </extensions>
      </trkpt>
      <trkpt lat="46.24978" lon="4.81806">
        <ele>169.7998</ele>
        <time>2026-05-13T14:14:24+02:00</time>
        <extensions>
          <gpxtpx:TrackPointExtension xmlns:gpxtpx="http://www.garmin.com/xmlschemas/TrackPointExtension/v1">
            <gpxtpx:hr>169</gpxtpx:hr>
          </gpxtpx:TrackPointExtension>
        </extensions>
      </trkpt>
      <trkpt lat="46.24975" lon="4.81814">
        <ele>169.7002</ele>
        <time>2026-05-13T14:14:25+02:00</time>
        <extensions>
          <gpxtpx:TrackPointExtension xmlns:gpxtpx="http://www.garmin.com/xmlschemas/TrackPointExtension/v1">
            <gpxtpx:hr>169</gpxtpx:hr>
          </gpxtpx:TrackPointExtension>
        </extensions>
      </trkpt>
      <trkpt lat="46.24972" lon="4.81822">
        <ele>169.40039</ele>
        <time>2026-05-13T14:14:26+02:00</time>
        <extensions>
          <gpxtpx:TrackPointExtension xmlns:gpxtpx="http://www.garmin.com/xmlschemas/TrackPointExtension/v1">
            <gpxtpx:hr>169</gpxtpx:hr>
          </gpxtpx:TrackPointExtension>
        </extensions>
      </trkpt>
      <trkpt lat="46.24969" lon="4.81829">
        <ele>169.40039</ele>
        <time>2026-05-13T14:14:27+02:00</time>
        <extensions>
          <gpxtpx:TrackPointExtension xmlns:gpxtpx="http://www.garmin.com/xmlschemas/TrackPointExtension/v1">
            <gpxtpx:hr>169</gpxtpx:hr>
          </gpxtpx:TrackPointExtension>
        </extensions>
      </trkpt>
      <trkpt lat="46.24967" lon="4.81837">
        <ele>169.2002</ele>
        <time>2026-05-13T14:14:28+02:00</time>
        <extensions>
          <gpxtpx:TrackPointExtension xmlns:gpxtpx="http://www.garmin.com/xmlschemas/TrackPointExtension/v1">
            <gpxtpx:hr>169</gpxtpx:hr>
          </gpxtpx:TrackPointExtension>
        </extensions>
      </trkpt>
      <trkpt lat="46.24964" lon="4.81845">
        <ele>169.40039</ele>
        <time>2026-05-13T14:14:29+02:00</time>
        <extensions>
          <gpxtpx:TrackPointExtension xmlns:gpxtpx="http://www.garmin.com/xmlschemas/TrackPointExtension/v1">
            <gpxtpx:hr>170</gpxtpx:hr>
          </gpxtpx:TrackPointExtension>
        </extensions>
      </trkpt>
      <trkpt lat="46.24961" lon="4.81852">
        <ele>169.10059</ele>
        <time>2026-05-13T14:14:30+02:00</time>
        <extensions>
          <gpxtpx:TrackPointExtension xmlns:gpxtpx="http://www.garmin.com/xmlschemas/TrackPointExtension/v1">
            <gpxtpx:hr>169</gpxtpx:hr>
          </gpxtpx:TrackPointExtension>
        </extensions>
      </trkpt>
      <trkpt lat="46.24959" lon="4.8186">
        <ele>169.2002</ele>
        <time>2026-05-13T14:14:31+02:00</time>
        <extensions>
          <gpxtpx:TrackPointExtension xmlns:gpxtpx="http://www.garmin.com/xmlschemas/TrackPointExtension/v1">
            <gpxtpx:hr>169</gpxtpx:hr>
          </gpxtpx:TrackPointExtension>
        </extensions>
      </trkpt>
      <trkpt lat="46.24955" lon="4.81867">
        <ele>169</ele>
        <time>2026-05-13T14:14:32+02:00</time>
        <extensions>
          <gpxtpx:TrackPointExtension xmlns:gpxtpx="http://www.garmin.com/xmlschemas/TrackPointExtension/v1">
            <gpxtpx:hr>168</gpxtpx:hr>
          </gpxtpx:TrackPointExtension>
        </extensions>
      </trkpt>
      <trkpt lat="46.24953" lon="4.81874">
        <ele>169.10059</ele>
        <time>2026-05-13T14:14:33+02:00</time>
        <extensions>
          <gpxtpx:TrackPointExtension xmlns:gpxtpx="http://www.garmin.com/xmlschemas/TrackPointExtension/v1">
            <gpxtpx:hr>169</gpxtpx:hr>
          </gpxtpx:TrackPointExtension>
        </extensions>
      </trkpt>
      <trkpt lat="46.24953" lon="4.81881">
        <ele>169.2002</ele>
        <time>2026-05-13T14:14:34+02:00</time>
        <extensions>
          <gpxtpx:TrackPointExtension xmlns:gpxtpx="http://www.garmin.com/xmlschemas/TrackPointExtension/v1">
            <gpxtpx:hr>169</gpxtpx:hr>
          </gpxtpx:TrackPointExtension>
        </extensions>
      </trkpt>
      <trkpt lat="46.24954" lon="4.81888">
        <ele>169.2998</ele>
        <time>2026-05-13T14:14:35+02:00</time>
        <extensions>
          <gpxtpx:TrackPointExtension xmlns:gpxtpx="http://www.garmin.com/xmlschemas/TrackPointExtension/v1">
            <gpxtpx:hr>169</gpxtpx:hr>
          </gpxtpx:TrackPointExtension>
        </extensions>
      </trkpt>
      <trkpt lat="46.24957" lon="4.81893">
        <ele>169.5</ele>
        <time>2026-05-13T14:14:36+02:00</time>
        <extensions>
          <gpxtpx:TrackPointExtension xmlns:gpxtpx="http://www.garmin.com/xmlschemas/TrackPointExtension/v1">
            <gpxtpx:hr>168</gpxtpx:hr>
          </gpxtpx:TrackPointExtension>
        </extensions>
      </trkpt>
      <trkpt lat="46.2496" lon="4.81896">
        <ele>169.5</ele>
        <time>2026-05-13T14:14:37+02:00</time>
        <extensions>
          <gpxtpx:TrackPointExtension xmlns:gpxtpx="http://www.garmin.com/xmlschemas/TrackPointExtension/v1">
            <gpxtpx:hr>168</gpxtpx:hr>
          </gpxtpx:TrackPointExtension>
        </extensions>
      </trkpt>
      <trkpt lat="46.24964" lon="4.81896">
        <ele>169.7002</ele>
        <time>2026-05-13T14:14:38+02:00</time>
        <extensions>
          <gpxtpx:TrackPointExtension xmlns:gpxtpx="http://www.garmin.com/xmlschemas/TrackPointExtension/v1">
            <gpxtpx:hr>168</gpxtpx:hr>
          </gpxtpx:TrackPointExtension>
        </extensions>
      </trkpt>
      <trkpt lat="46.24967" lon="4.81896">
        <ele>169.7002</ele>
        <time>2026-05-13T14:14:39+02:00</time>
        <extensions>
          <gpxtpx:TrackPointExtension xmlns:gpxtpx="http://www.garmin.com/xmlschemas/TrackPointExtension/v1">
            <gpxtpx:hr>168</gpxtpx:hr>
          </gpxtpx:TrackPointExtension>
        </extensions>
      </trkpt>
      <trkpt lat="46.24971" lon="4.81897">
        <ele>169.7998</ele>
        <time>2026-05-13T14:14:40+02:00</time>
        <extensions>
          <gpxtpx:TrackPointExtension xmlns:gpxtpx="http://www.garmin.com/xmlschemas/TrackPointExtension/v1">
            <gpxtpx:hr>168</gpxtpx:hr>
          </gpxtpx:TrackPointExtension>
        </extensions>
      </trkpt>
      <trkpt lat="46.24975" lon="4.819">
        <ele>170</ele>
        <time>2026-05-13T14:14:41+02:00</time>
        <extensions>
          <gpxtpx:TrackPointExtension xmlns:gpxtpx="http://www.garmin.com/xmlschemas/TrackPointExtension/v1">
            <gpxtpx:hr>168</gpxtpx:hr>
          </gpxtpx:TrackPointExtension>
        </extensions>
      </trkpt>
      <trkpt lat="46.24979" lon="4.81901">
        <ele>170</ele>
        <time>2026-05-13T14:14:42+02:00</time>
        <extensions>
          <gpxtpx:TrackPointExtension xmlns:gpxtpx="http://www.garmin.com/xmlschemas/TrackPointExtension/v1">
            <gpxtpx:hr>168</gpxtpx:hr>
          </gpxtpx:TrackPointExtension>
        </extensions>
      </trkpt>
      <trkpt lat="46.24984" lon="4.81903">
        <ele>170.2002</ele>
        <time>2026-05-13T14:14:43+02:00</time>
        <extensions>
          <gpxtpx:TrackPointExtension xmlns:gpxtpx="http://www.garmin.com/xmlschemas/TrackPointExtension/v1">
            <gpxtpx:hr>168</gpxtpx:hr>
          </gpxtpx:TrackPointExtension>
        </extensions>
      </trkpt>
      <trkpt lat="46.24989" lon="4.81905">
        <ele>170.10059</ele>
        <time>2026-05-13T14:14:44+02:00</time>
        <extensions>
          <gpxtpx:TrackPointExtension xmlns:gpxtpx="http://www.garmin.com/xmlschemas/TrackPointExtension/v1">
            <gpxtpx:hr>169</gpxtpx:hr>
          </gpxtpx:TrackPointExtension>
        </extensions>
      </trkpt>
      <trkpt lat="46.24995" lon="4.81908">
        <ele>170.2002</ele>
        <time>2026-05-13T14:14:45+02:00</time>
        <extensions>
          <gpxtpx:TrackPointExtension xmlns:gpxtpx="http://www.garmin.com/xmlschemas/TrackPointExtension/v1">
            <gpxtpx:hr>168</gpxtpx:hr>
          </gpxtpx:TrackPointExtension>
        </extensions>
      </trkpt>
      <trkpt lat="46.25" lon="4.8191">
        <ele>170.2002</ele>
        <time>2026-05-13T14:14:46+02:00</time>
        <extensions>
          <gpxtpx:TrackPointExtension xmlns:gpxtpx="http://www.garmin.com/xmlschemas/TrackPointExtension/v1">
            <gpxtpx:hr>170</gpxtpx:hr>
          </gpxtpx:TrackPointExtension>
        </extensions>
      </trkpt>
      <trkpt lat="46.25005" lon="4.81912">
        <ele>170.10059</ele>
        <time>2026-05-13T14:14:47+02:00</time>
        <extensions>
          <gpxtpx:TrackPointExtension xmlns:gpxtpx="http://www.garmin.com/xmlschemas/TrackPointExtension/v1">
            <gpxtpx:hr>170</gpxtpx:hr>
          </gpxtpx:TrackPointExtension>
        </extensions>
      </trkpt>
      <trkpt lat="46.2501" lon="4.81914">
        <ele>169.7998</ele>
        <time>2026-05-13T14:14:48+02:00</time>
        <extensions>
          <gpxtpx:TrackPointExtension xmlns:gpxtpx="http://www.garmin.com/xmlschemas/TrackPointExtension/v1">
            <gpxtpx:hr>170</gpxtpx:hr>
          </gpxtpx:TrackPointExtension>
        </extensions>
      </trkpt>
      <trkpt lat="46.25013" lon="4.81915">
        <ele>169.7998</ele>
        <time>2026-05-13T14:14:49+02:00</time>
        <extensions>
          <gpxtpx:TrackPointExtension xmlns:gpxtpx="http://www.garmin.com/xmlschemas/TrackPointExtension/v1">
            <gpxtpx:hr>171</gpxtpx:hr>
          </gpxtpx:TrackPointExtension>
        </extensions>
      </trkpt>
      <trkpt lat="46.25015" lon="4.81916">
        <ele>169.7998</ele>
        <time>2026-05-13T14:14:50+02:00</time>
        <extensions>
          <gpxtpx:TrackPointExtension xmlns:gpxtpx="http://www.garmin.com/xmlschemas/TrackPointExtension/v1">
            <gpxtpx:hr>171</gpxtpx:hr>
          </gpxtpx:TrackPointExtension>
        </extensions>
      </trkpt>
      <trkpt lat="46.25017" lon="4.81916">
        <ele>169.40039</ele>
        <time>2026-05-13T14:14:51+02:00</time>
        <extensions>
          <gpxtpx:TrackPointExtension xmlns:gpxtpx="http://www.garmin.com/xmlschemas/TrackPointExtension/v1">
            <gpxtpx:hr>171</gpxtpx:hr>
          </gpxtpx:TrackPointExtension>
        </extensions>
      </trkpt>
      <trkpt lat="46.25019" lon="4.81916">
        <ele>169.40039</ele>
        <time>2026-05-13T14:14:52+02:00</time>
        <extensions>
          <gpxtpx:TrackPointExtension xmlns:gpxtpx="http://www.garmin.com/xmlschemas/TrackPointExtension/v1">
            <gpxtpx:hr>171</gpxtpx:hr>
          </gpxtpx:TrackPointExtension>
        </extensions>
      </trkpt>
      <trkpt lat="46.25021" lon="4.81917">
        <ele>169.10059</ele>
        <time>2026-05-13T14:14:53+02:00</time>
        <extensions>
          <gpxtpx:TrackPointExtension xmlns:gpxtpx="http://www.garmin.com/xmlschemas/TrackPointExtension/v1">
            <gpxtpx:hr>172</gpxtpx:hr>
          </gpxtpx:TrackPointExtension>
        </extensions>
      </trkpt>
      <trkpt lat="46.25024" lon="4.81918">
        <ele>169.10059</ele>
        <time>2026-05-13T14:14:54+02:00</time>
        <extensions>
          <gpxtpx:TrackPointExtension xmlns:gpxtpx="http://www.garmin.com/xmlschemas/TrackPointExtension/v1">
            <gpxtpx:hr>171</gpxtpx:hr>
          </gpxtpx:TrackPointExtension>
        </extensions>
      </trkpt>
      <trkpt lat="46.25026" lon="4.81919">
        <ele>169.10059</ele>
        <time>2026-05-13T14:14:55+02:00</time>
        <extensions>
          <gpxtpx:TrackPointExtension xmlns:gpxtpx="http://www.garmin.com/xmlschemas/TrackPointExtension/v1">
            <gpxtpx:hr>171</gpxtpx:hr>
          </gpxtpx:TrackPointExtension>
        </extensions>
      </trkpt>
      <trkpt lat="46.2503" lon="4.81919">
        <ele>168.7998</ele>
        <time>2026-05-13T14:14:56+02:00</time>
        <extensions>
          <gpxtpx:TrackPointExtension xmlns:gpxtpx="http://www.garmin.com/xmlschemas/TrackPointExtension/v1">
            <gpxtpx:hr>170</gpxtpx:hr>
          </gpxtpx:TrackPointExtension>
        </extensions>
      </trkpt>
      <trkpt lat="46.25033" lon="4.81921">
        <ele>168.7002</ele>
        <time>2026-05-13T14:14:57+02:00</time>
        <extensions>
          <gpxtpx:TrackPointExtension xmlns:gpxtpx="http://www.garmin.com/xmlschemas/TrackPointExtension/v1">
            <gpxtpx:hr>170</gpxtpx:hr>
          </gpxtpx:TrackPointExtension>
        </extensions>
      </trkpt>
      <trkpt lat="46.25036" lon="4.81922">
        <ele>168.7002</ele>
        <time>2026-05-13T14:14:58+02:00</time>
        <extensions>
          <gpxtpx:TrackPointExtension xmlns:gpxtpx="http://www.garmin.com/xmlschemas/TrackPointExtension/v1">
            <gpxtpx:hr>170</gpxtpx:hr>
          </gpxtpx:TrackPointExtension>
        </extensions>
      </trkpt>
      <trkpt lat="46.25039" lon="4.81923">
        <ele>168.2002</ele>
        <time>2026-05-13T14:14:59+02:00</time>
        <extensions>
          <gpxtpx:TrackPointExtension xmlns:gpxtpx="http://www.garmin.com/xmlschemas/TrackPointExtension/v1">
            <gpxtpx:hr>170</gpxtpx:hr>
          </gpxtpx:TrackPointExtension>
        </extensions>
      </trkpt>
      <trkpt lat="46.25043" lon="4.81924">
        <ele>168.2002</ele>
        <time>2026-05-13T14:15:00+02:00</time>
        <extensions>
          <gpxtpx:TrackPointExtension xmlns:gpxtpx="http://www.garmin.com/xmlschemas/TrackPointExtension/v1">
            <gpxtpx:hr>169</gpxtpx:hr>
          </gpxtpx:TrackPointExtension>
        </extensions>
      </trkpt>
      <trkpt lat="46.25047" lon="4.81926">
        <ele>168</ele>
        <time>2026-05-13T14:15:01+02:00</time>
        <extensions>
          <gpxtpx:TrackPointExtension xmlns:gpxtpx="http://www.garmin.com/xmlschemas/TrackPointExtension/v1">
            <gpxtpx:hr>169</gpxtpx:hr>
          </gpxtpx:TrackPointExtension>
        </extensions>
      </trkpt>
      <trkpt lat="46.2505" lon="4.81928">
        <ele>168</ele>
        <time>2026-05-13T14:15:02+02:00</time>
        <extensions>
          <gpxtpx:TrackPointExtension xmlns:gpxtpx="http://www.garmin.com/xmlschemas/TrackPointExtension/v1">
            <gpxtpx:hr>169</gpxtpx:hr>
          </gpxtpx:TrackPointExtension>
        </extensions>
      </trkpt>
      <trkpt lat="46.25054" lon="4.8193">
        <ele>167.90039</ele>
        <time>2026-05-13T14:15:03+02:00</time>
        <extensions>
          <gpxtpx:TrackPointExtension xmlns:gpxtpx="http://www.garmin.com/xmlschemas/TrackPointExtension/v1">
            <gpxtpx:hr>168</gpxtpx:hr>
          </gpxtpx:TrackPointExtension>
        </extensions>
      </trkpt>
      <trkpt lat="46.25057" lon="4.81931">
        <ele>167.5</ele>
        <time>2026-05-13T14:15:04+02:00</time>
        <extensions>
          <gpxtpx:TrackPointExtension xmlns:gpxtpx="http://www.garmin.com/xmlschemas/TrackPointExtension/v1">
            <gpxtpx:hr>168</gpxtpx:hr>
          </gpxtpx:TrackPointExtension>
        </extensions>
      </trkpt>
      <trkpt lat="46.25061" lon="4.81932">
        <ele>167.5</ele>
        <time>2026-05-13T14:15:05+02:00</time>
        <extensions>
          <gpxtpx:TrackPointExtension xmlns:gpxtpx="http://www.garmin.com/xmlschemas/TrackPointExtension/v1">
            <gpxtpx:hr>168</gpxtpx:hr>
          </gpxtpx:TrackPointExtension>
        </extensions>
      </trkpt>
      <trkpt lat="46.25065" lon="4.81933">
        <ele>167.7998</ele>
        <time>2026-05-13T14:15:06+02:00</time>
        <extensions>
          <gpxtpx:TrackPointExtension xmlns:gpxtpx="http://www.garmin.com/xmlschemas/TrackPointExtension/v1">
            <gpxtpx:hr>169</gpxtpx:hr>
          </gpxtpx:TrackPointExtension>
        </extensions>
      </trkpt>
      <trkpt lat="46.25069" lon="4.81934">
        <ele>168</ele>
        <time>2026-05-13T14:15:07+02:00</time>
        <extensions>
          <gpxtpx:TrackPointExtension xmlns:gpxtpx="http://www.garmin.com/xmlschemas/TrackPointExtension/v1">
            <gpxtpx:hr>167</gpxtpx:hr>
          </gpxtpx:TrackPointExtension>
        </extensions>
      </trkpt>
      <trkpt lat="46.25072" lon="4.81936">
        <ele>168</ele>
        <time>2026-05-13T14:15:08+02:00</time>
        <extensions>
          <gpxtpx:TrackPointExtension xmlns:gpxtpx="http://www.garmin.com/xmlschemas/TrackPointExtension/v1">
            <gpxtpx:hr>168</gpxtpx:hr>
          </gpxtpx:TrackPointExtension>
        </extensions>
      </trkpt>
      <trkpt lat="46.25076" lon="4.81937">
        <ele>168.2002</ele>
        <time>2026-05-13T14:15:09+02:00</time>
        <extensions>
          <gpxtpx:TrackPointExtension xmlns:gpxtpx="http://www.garmin.com/xmlschemas/TrackPointExtension/v1">
            <gpxtpx:hr>168</gpxtpx:hr>
          </gpxtpx:TrackPointExtension>
        </extensions>
      </trkpt>
      <trkpt lat="46.25079" lon="4.81938">
        <ele>168.2002</ele>
        <time>2026-05-13T14:15:10+02:00</time>
        <extensions>
          <gpxtpx:TrackPointExtension xmlns:gpxtpx="http://www.garmin.com/xmlschemas/TrackPointExtension/v1">
            <gpxtpx:hr>168</gpxtpx:hr>
          </gpxtpx:TrackPointExtension>
        </extensions>
      </trkpt>
      <trkpt lat="46.25083" lon="4.8194">
        <ele>168.10059</ele>
        <time>2026-05-13T14:15:11+02:00</time>
        <extensions>
          <gpxtpx:TrackPointExtension xmlns:gpxtpx="http://www.garmin.com/xmlschemas/TrackPointExtension/v1">
            <gpxtpx:hr>168</gpxtpx:hr>
          </gpxtpx:TrackPointExtension>
        </extensions>
      </trkpt>
      <trkpt lat="46.25087" lon="4.81941">
        <ele>168.2998</ele>
        <time>2026-05-13T14:15:12+02:00</time>
        <extensions>
          <gpxtpx:TrackPointExtension xmlns:gpxtpx="http://www.garmin.com/xmlschemas/TrackPointExtension/v1">
            <gpxtpx:hr>168</gpxtpx:hr>
          </gpxtpx:TrackPointExtension>
        </extensions>
      </trkpt>
      <trkpt lat="46.2509" lon="4.81943">
        <ele>168.2998</ele>
        <time>2026-05-13T14:15:13+02:00</time>
        <extensions>
          <gpxtpx:TrackPointExtension xmlns:gpxtpx="http://www.garmin.com/xmlschemas/TrackPointExtension/v1">
            <gpxtpx:hr>169</gpxtpx:hr>
          </gpxtpx:TrackPointExtension>
        </extensions>
      </trkpt>
      <trkpt lat="46.25094" lon="4.81944">
        <ele>168.40039</ele>
        <time>2026-05-13T14:15:14+02:00</time>
        <extensions>
          <gpxtpx:TrackPointExtension xmlns:gpxtpx="http://www.garmin.com/xmlschemas/TrackPointExtension/v1">
            <gpxtpx:hr>169</gpxtpx:hr>
          </gpxtpx:TrackPointExtension>
        </extensions>
      </trkpt>
      <trkpt lat="46.25098" lon="4.81945">
        <ele>168.5</ele>
        <time>2026-05-13T14:15:15+02:00</time>
        <extensions>
          <gpxtpx:TrackPointExtension xmlns:gpxtpx="http://www.garmin.com/xmlschemas/TrackPointExtension/v1">
            <gpxtpx:hr>169</gpxtpx:hr>
          </gpxtpx:TrackPointExtension>
        </extensions>
      </trkpt>
      <trkpt lat="46.25102" lon="4.81947">
        <ele>168.5</ele>
        <time>2026-05-13T14:15:16+02:00</time>
        <extensions>
          <gpxtpx:TrackPointExtension xmlns:gpxtpx="http://www.garmin.com/xmlschemas/TrackPointExtension/v1">
            <gpxtpx:hr>170</gpxtpx:hr>
          </gpxtpx:TrackPointExtension>
        </extensions>
      </trkpt>
      <trkpt lat="46.25106" lon="4.81948">
        <ele>168.2998</ele>
        <time>2026-05-13T14:15:17+02:00</time>
        <extensions>
          <gpxtpx:TrackPointExtension xmlns:gpxtpx="http://www.garmin.com/xmlschemas/TrackPointExtension/v1">
            <gpxtpx:hr>169</gpxtpx:hr>
          </gpxtpx:TrackPointExtension>
        </extensions>
      </trkpt>
      <trkpt lat="46.2511" lon="4.81949">
        <ele>168.2998</ele>
        <time>2026-05-13T14:15:18+02:00</time>
        <extensions>
          <gpxtpx:TrackPointExtension xmlns:gpxtpx="http://www.garmin.com/xmlschemas/TrackPointExtension/v1">
            <gpxtpx:hr>169</gpxtpx:hr>
          </gpxtpx:TrackPointExtension>
        </extensions>
      </trkpt>
      <trkpt lat="46.25115" lon="4.81951">
        <ele>168.2002</ele>
        <time>2026-05-13T14:15:19+02:00</time>
        <extensions>
          <gpxtpx:TrackPointExtension xmlns:gpxtpx="http://www.garmin.com/xmlschemas/TrackPointExtension/v1">
            <gpxtpx:hr>169</gpxtpx:hr>
          </gpxtpx:TrackPointExtension>
        </extensions>
      </trkpt>
      <trkpt lat="46.25118" lon="4.81953">
        <ele>168.2002</ele>
        <time>2026-05-13T14:15:20+02:00</time>
        <extensions>
          <gpxtpx:TrackPointExtension xmlns:gpxtpx="http://www.garmin.com/xmlschemas/TrackPointExtension/v1">
            <gpxtpx:hr>169</gpxtpx:hr>
          </gpxtpx:TrackPointExtension>
        </extensions>
      </trkpt>
      <trkpt lat="46.25122" lon="4.81954">
        <ele>168.10059</ele>
        <time>2026-05-13T14:15:21+02:00</time>
        <extensions>
          <gpxtpx:TrackPointExtension xmlns:gpxtpx="http://www.garmin.com/xmlschemas/TrackPointExtension/v1">
            <gpxtpx:hr>169</gpxtpx:hr>
          </gpxtpx:TrackPointExtension>
        </extensions>
      </trkpt>
      <trkpt lat="46.25126" lon="4.81956">
        <ele>168.10059</ele>
        <time>2026-05-13T14:15:22+02:00</time>
        <extensions>
          <gpxtpx:TrackPointExtension xmlns:gpxtpx="http://www.garmin.com/xmlschemas/TrackPointExtension/v1">
            <gpxtpx:hr>169</gpxtpx:hr>
          </gpxtpx:TrackPointExtension>
        </extensions>
      </trkpt>
      <trkpt lat="46.2513" lon="4.81957">
        <ele>167.90039</ele>
        <time>2026-05-13T14:15:23+02:00</time>
        <extensions>
          <gpxtpx:TrackPointExtension xmlns:gpxtpx="http://www.garmin.com/xmlschemas/TrackPointExtension/v1">
            <gpxtpx:hr>169</gpxtpx:hr>
          </gpxtpx:TrackPointExtension>
        </extensions>
      </trkpt>
      <trkpt lat="46.25134" lon="4.81959">
        <ele>167.90039</ele>
        <time>2026-05-13T14:15:24+02:00</time>
        <extensions>
          <gpxtpx:TrackPointExtension xmlns:gpxtpx="http://www.garmin.com/xmlschemas/TrackPointExtension/v1">
            <gpxtpx:hr>168</gpxtpx:hr>
          </gpxtpx:TrackPointExtension>
        </extensions>
      </trkpt>
      <trkpt lat="46.25139" lon="4.8196">
        <ele>167.90039</ele>
        <time>2026-05-13T14:15:25+02:00</time>
        <extensions>
          <gpxtpx:TrackPointExtension xmlns:gpxtpx="http://www.garmin.com/xmlschemas/TrackPointExtension/v1">
            <gpxtpx:hr>169</gpxtpx:hr>
          </gpxtpx:TrackPointExtension>
        </extensions>
      </trkpt>
      <trkpt lat="46.25143" lon="4.81962">
        <ele>167.7998</ele>
        <time>2026-05-13T14:15:26+02:00</time>
        <extensions>
          <gpxtpx:TrackPointExtension xmlns:gpxtpx="http://www.garmin.com/xmlschemas/TrackPointExtension/v1">
            <gpxtpx:hr>169</gpxtpx:hr>
          </gpxtpx:TrackPointExtension>
        </extensions>
      </trkpt>
      <trkpt lat="46.25148" lon="4.81964">
        <ele>167.7002</ele>
        <time>2026-05-13T14:15:27+02:00</time>
        <extensions>
          <gpxtpx:TrackPointExtension xmlns:gpxtpx="http://www.garmin.com/xmlschemas/TrackPointExtension/v1">
            <gpxtpx:hr>169</gpxtpx:hr>
          </gpxtpx:TrackPointExtension>
        </extensions>
      </trkpt>
      <trkpt lat="46.25153" lon="4.81966">
        <ele>167.40039</ele>
        <time>2026-05-13T14:15:28+02:00</time>
        <extensions>
          <gpxtpx:TrackPointExtension xmlns:gpxtpx="http://www.garmin.com/xmlschemas/TrackPointExtension/v1">
            <gpxtpx:hr>169</gpxtpx:hr>
          </gpxtpx:TrackPointExtension>
        </extensions>
      </trkpt>
      <trkpt lat="46.25157" lon="4.81967">
        <ele>167.40039</ele>
        <time>2026-05-13T14:15:29+02:00</time>
        <extensions>
          <gpxtpx:TrackPointExtension xmlns:gpxtpx="http://www.garmin.com/xmlschemas/TrackPointExtension/v1">
            <gpxtpx:hr>169</gpxtpx:hr>
          </gpxtpx:TrackPointExtension>
        </extensions>
      </trkpt>
      <trkpt lat="46.25162" lon="4.81969">
        <ele>167.2002</ele>
        <time>2026-05-13T14:15:30+02:00</time>
        <extensions>
          <gpxtpx:TrackPointExtension xmlns:gpxtpx="http://www.garmin.com/xmlschemas/TrackPointExtension/v1">
            <gpxtpx:hr>169</gpxtpx:hr>
          </gpxtpx:TrackPointExtension>
        </extensions>
      </trkpt>
      <trkpt lat="46.25167" lon="4.8197">
        <ele>167.2002</ele>
        <time>2026-05-13T14:15:31+02:00</time>
        <extensions>
          <gpxtpx:TrackPointExtension xmlns:gpxtpx="http://www.garmin.com/xmlschemas/TrackPointExtension/v1">
            <gpxtpx:hr>169</gpxtpx:hr>
          </gpxtpx:TrackPointExtension>
        </extensions>
      </trkpt>
      <trkpt lat="46.25172" lon="4.81972">
        <ele>167.5</ele>
        <time>2026-05-13T14:15:32+02:00</time>
        <extensions>
          <gpxtpx:TrackPointExtension xmlns:gpxtpx="http://www.garmin.com/xmlschemas/TrackPointExtension/v1">
            <gpxtpx:hr>169</gpxtpx:hr>
          </gpxtpx:TrackPointExtension>
        </extensions>
      </trkpt>
      <trkpt lat="46.25177" lon="4.81974">
        <ele>167.2998</ele>
        <time>2026-05-13T14:15:33+02:00</time>
        <extensions>
          <gpxtpx:TrackPointExtension xmlns:gpxtpx="http://www.garmin.com/xmlschemas/TrackPointExtension/v1">
            <gpxtpx:hr>169</gpxtpx:hr>
          </gpxtpx:TrackPointExtension>
        </extensions>
      </trkpt>
      <trkpt lat="46.25182" lon="4.81976">
        <ele>167.60059</ele>
        <time>2026-05-13T14:15:34+02:00</time>
        <extensions>
          <gpxtpx:TrackPointExtension xmlns:gpxtpx="http://www.garmin.com/xmlschemas/TrackPointExtension/v1">
            <gpxtpx:hr>169</gpxtpx:hr>
          </gpxtpx:TrackPointExtension>
        </extensions>
      </trkpt>
      <trkpt lat="46.25186" lon="4.81978">
        <ele>167.60059</ele>
        <time>2026-05-13T14:15:35+02:00</time>
        <extensions>
          <gpxtpx:TrackPointExtension xmlns:gpxtpx="http://www.garmin.com/xmlschemas/TrackPointExtension/v1">
            <gpxtpx:hr>168</gpxtpx:hr>
          </gpxtpx:TrackPointExtension>
        </extensions>
      </trkpt>
      <trkpt lat="46.25191" lon="4.8198">
        <ele>167.90039</ele>
        <time>2026-05-13T14:15:36+02:00</time>
        <extensions>
          <gpxtpx:TrackPointExtension xmlns:gpxtpx="http://www.garmin.com/xmlschemas/TrackPointExtension/v1">
            <gpxtpx:hr>168</gpxtpx:hr>
          </gpxtpx:TrackPointExtension>
        </extensions>
      </trkpt>
      <trkpt lat="46.25196" lon="4.81982">
        <ele>168.2998</ele>
        <time>2026-05-13T14:15:37+02:00</time>
        <extensions>
          <gpxtpx:TrackPointExtension xmlns:gpxtpx="http://www.garmin.com/xmlschemas/TrackPointExtension/v1">
            <gpxtpx:hr>168</gpxtpx:hr>
          </gpxtpx:TrackPointExtension>
        </extensions>
      </trkpt>
      <trkpt lat="46.25201" lon="4.81983">
        <ele>168.10059</ele>
        <time>2026-05-13T14:15:38+02:00</time>
        <extensions>
          <gpxtpx:TrackPointExtension xmlns:gpxtpx="http://www.garmin.com/xmlschemas/TrackPointExtension/v1">
            <gpxtpx:hr>168</gpxtpx:hr>
          </gpxtpx:TrackPointExtension>
        </extensions>
      </trkpt>
      <trkpt lat="46.25206" lon="4.81985">
        <ele>168.5</ele>
        <time>2026-05-13T14:15:39+02:00</time>
        <extensions>
          <gpxtpx:TrackPointExtension xmlns:gpxtpx="http://www.garmin.com/xmlschemas/TrackPointExtension/v1">
            <gpxtpx:hr>167</gpxtpx:hr>
          </gpxtpx:TrackPointExtension>
        </extensions>
      </trkpt>
      <trkpt lat="46.25211" lon="4.81987">
        <ele>168.7002</ele>
        <time>2026-05-13T14:15:40+02:00</time>
        <extensions>
          <gpxtpx:TrackPointExtension xmlns:gpxtpx="http://www.garmin.com/xmlschemas/TrackPointExtension/v1">
            <gpxtpx:hr>167</gpxtpx:hr>
          </gpxtpx:TrackPointExtension>
        </extensions>
      </trkpt>
      <trkpt lat="46.25216" lon="4.81989">
        <ele>168.7002</ele>
        <time>2026-05-13T14:15:41+02:00</time>
        <extensions>
          <gpxtpx:TrackPointExtension xmlns:gpxtpx="http://www.garmin.com/xmlschemas/TrackPointExtension/v1">
            <gpxtpx:hr>167</gpxtpx:hr>
          </gpxtpx:TrackPointExtension>
        </extensions>
      </trkpt>
      <trkpt lat="46.25221" lon="4.81991">
        <ele>168.5</ele>
        <time>2026-05-13T14:15:42+02:00</time>
        <extensions>
          <gpxtpx:TrackPointExtension xmlns:gpxtpx="http://www.garmin.com/xmlschemas/TrackPointExtension/v1">
            <gpxtpx:hr>168</gpxtpx:hr>
          </gpxtpx:TrackPointExtension>
        </extensions>
      </trkpt>
      <trkpt lat="46.25226" lon="4.81993">
        <ele>168.7002</ele>
        <time>2026-05-13T14:15:43+02:00</time>
        <extensions>
          <gpxtpx:TrackPointExtension xmlns:gpxtpx="http://www.garmin.com/xmlschemas/TrackPointExtension/v1">
            <gpxtpx:hr>167</gpxtpx:hr>
          </gpxtpx:TrackPointExtension>
        </extensions>
      </trkpt>
      <trkpt lat="46.25231" lon="4.81995">
        <ele>168.90039</ele>
        <time>2026-05-13T14:15:44+02:00</time>
        <extensions>
          <gpxtpx:TrackPointExtension xmlns:gpxtpx="http://www.garmin.com/xmlschemas/TrackPointExtension/v1">
            <gpxtpx:hr>168</gpxtpx:hr>
          </gpxtpx:TrackPointExtension>
        </extensions>
      </trkpt>
      <trkpt lat="46.25237" lon="4.81996">
        <ele>169</ele>
        <time>2026-05-13T14:15:45+02:00</time>
        <extensions>
          <gpxtpx:TrackPointExtension xmlns:gpxtpx="http://www.garmin.com/xmlschemas/TrackPointExtension/v1">
            <gpxtpx:hr>168</gpxtpx:hr>
          </gpxtpx:TrackPointExtension>
        </extensions>
      </trkpt>
      <trkpt lat="46.25242" lon="4.81998">
        <ele>169.2002</ele>
        <time>2026-05-13T14:15:46+02:00</time>
        <extensions>
          <gpxtpx:TrackPointExtension xmlns:gpxtpx="http://www.garmin.com/xmlschemas/TrackPointExtension/v1">
            <gpxtpx:hr>167</gpxtpx:hr>
          </gpxtpx:TrackPointExtension>
        </extensions>
      </trkpt>
      <trkpt lat="46.25247" lon="4.82001">
        <ele>169.10059</ele>
        <time>2026-05-13T14:15:47+02:00</time>
        <extensions>
          <gpxtpx:TrackPointExtension xmlns:gpxtpx="http://www.garmin.com/xmlschemas/TrackPointExtension/v1">
            <gpxtpx:hr>167</gpxtpx:hr>
          </gpxtpx:TrackPointExtension>
        </extensions>
      </trkpt>
      <trkpt lat="46.25252" lon="4.82003">
        <ele>169.10059</ele>
        <time>2026-05-13T14:15:48+02:00</time>
        <extensions>
          <gpxtpx:TrackPointExtension xmlns:gpxtpx="http://www.garmin.com/xmlschemas/TrackPointExtension/v1">
            <gpxtpx:hr>168</gpxtpx:hr>
          </gpxtpx:TrackPointExtension>
        </extensions>
      </trkpt>
      <trkpt lat="46.25258" lon="4.82004">
        <ele>169.2998</ele>
        <time>2026-05-13T14:15:49+02:00</time>
        <extensions>
          <gpxtpx:TrackPointExtension xmlns:gpxtpx="http://www.garmin.com/xmlschemas/TrackPointExtension/v1">
            <gpxtpx:hr>168</gpxtpx:hr>
          </gpxtpx:TrackPointExtension>
        </extensions>
      </trkpt>
      <trkpt lat="46.25263" lon="4.82006">
        <ele>169.40039</ele>
        <time>2026-05-13T14:15:50+02:00</time>
        <extensions>
          <gpxtpx:TrackPointExtension xmlns:gpxtpx="http://www.garmin.com/xmlschemas/TrackPointExtension/v1">
            <gpxtpx:hr>167</gpxtpx:hr>
          </gpxtpx:TrackPointExtension>
        </extensions>
      </trkpt>
      <trkpt lat="46.25268" lon="4.82008">
        <ele>169.40039</ele>
        <time>2026-05-13T14:15:51+02:00</time>
        <extensions>
          <gpxtpx:TrackPointExtension xmlns:gpxtpx="http://www.garmin.com/xmlschemas/TrackPointExtension/v1">
            <gpxtpx:hr>167</gpxtpx:hr>
          </gpxtpx:TrackPointExtension>
        </extensions>
      </trkpt>
      <trkpt lat="46.25273" lon="4.8201">
        <ele>169.60059</ele>
        <time>2026-05-13T14:15:52+02:00</time>
        <extensions>
          <gpxtpx:TrackPointExtension xmlns:gpxtpx="http://www.garmin.com/xmlschemas/TrackPointExtension/v1">
            <gpxtpx:hr>167</gpxtpx:hr>
          </gpxtpx:TrackPointExtension>
        </extensions>
      </trkpt>
      <trkpt lat="46.25278" lon="4.82012">
        <ele>169.7998</ele>
        <time>2026-05-13T14:15:53+02:00</time>
        <extensions>
          <gpxtpx:TrackPointExtension xmlns:gpxtpx="http://www.garmin.com/xmlschemas/TrackPointExtension/v1">
            <gpxtpx:hr>168</gpxtpx:hr>
          </gpxtpx:TrackPointExtension>
        </extensions>
      </trkpt>
      <trkpt lat="46.25283" lon="4.82014">
        <ele>169.90039</ele>
        <time>2026-05-13T14:15:54+02:00</time>
        <extensions>
          <gpxtpx:TrackPointExtension xmlns:gpxtpx="http://www.garmin.com/xmlschemas/TrackPointExtension/v1">
            <gpxtpx:hr>167</gpxtpx:hr>
          </gpxtpx:TrackPointExtension>
        </extensions>
      </trkpt>
      <trkpt lat="46.25288" lon="4.82016">
        <ele>170.10059</ele>
        <time>2026-05-13T14:15:55+02:00</time>
        <extensions>
          <gpxtpx:TrackPointExtension xmlns:gpxtpx="http://www.garmin.com/xmlschemas/TrackPointExtension/v1">
            <gpxtpx:hr>168</gpxtpx:hr>
          </gpxtpx:TrackPointExtension>
        </extensions>
      </trkpt>
      <trkpt lat="46.25293" lon="4.82016">
        <ele>170.10059</ele>
        <time>2026-05-13T14:15:56+02:00</time>
        <extensions>
          <gpxtpx:TrackPointExtension xmlns:gpxtpx="http://www.garmin.com/xmlschemas/TrackPointExtension/v1">
            <gpxtpx:hr>168</gpxtpx:hr>
          </gpxtpx:TrackPointExtension>
        </extensions>
      </trkpt>
      <trkpt lat="46.25298" lon="4.82014">
        <ele>170.2002</ele>
        <time>2026-05-13T14:15:57+02:00</time>
        <extensions>
          <gpxtpx:TrackPointExtension xmlns:gpxtpx="http://www.garmin.com/xmlschemas/TrackPointExtension/v1">
            <gpxtpx:hr>167</gpxtpx:hr>
          </gpxtpx:TrackPointExtension>
        </extensions>
      </trkpt>
      <trkpt lat="46.25301" lon="4.82008">
        <ele>170.40039</ele>
        <time>2026-05-13T14:15:58+02:00</time>
        <extensions>
          <gpxtpx:TrackPointExtension xmlns:gpxtpx="http://www.garmin.com/xmlschemas/TrackPointExtension/v1">
            <gpxtpx:hr>167</gpxtpx:hr>
          </gpxtpx:TrackPointExtension>
        </extensions>
      </trkpt>
      <trkpt lat="46.25303" lon="4.82003">
        <ele>170.60059</ele>
        <time>2026-05-13T14:15:59+02:00</time>
        <extensions>
          <gpxtpx:TrackPointExtension xmlns:gpxtpx="http://www.garmin.com/xmlschemas/TrackPointExtension/v1">
            <gpxtpx:hr>166</gpxtpx:hr>
          </gpxtpx:TrackPointExtension>
        </extensions>
      </trkpt>
      <trkpt lat="46.25304" lon="4.81997">
        <ele>170.7998</ele>
        <time>2026-05-13T14:16:00+02:00</time>
        <extensions>
          <gpxtpx:TrackPointExtension xmlns:gpxtpx="http://www.garmin.com/xmlschemas/TrackPointExtension/v1">
            <gpxtpx:hr>166</gpxtpx:hr>
          </gpxtpx:TrackPointExtension>
        </extensions>
      </trkpt>
      <trkpt lat="46.25304" lon="4.81991">
        <ele>170.7998</ele>
        <time>2026-05-13T14:16:01+02:00</time>
        <extensions>
          <gpxtpx:TrackPointExtension xmlns:gpxtpx="http://www.garmin.com/xmlschemas/TrackPointExtension/v1">
            <gpxtpx:hr>165</gpxtpx:hr>
          </gpxtpx:TrackPointExtension>
        </extensions>
      </trkpt>
      <trkpt lat="46.25305" lon="4.81985">
        <ele>171</ele>
        <time>2026-05-13T14:16:02+02:00</time>
        <extensions>
          <gpxtpx:TrackPointExtension xmlns:gpxtpx="http://www.garmin.com/xmlschemas/TrackPointExtension/v1">
            <gpxtpx:hr>164</gpxtpx:hr>
          </gpxtpx:TrackPointExtension>
        </extensions>
      </trkpt>
      <trkpt lat="46.25305" lon="4.81981">
        <ele>171.2002</ele>
        <time>2026-05-13T14:16:03+02:00</time>
        <extensions>
          <gpxtpx:TrackPointExtension xmlns:gpxtpx="http://www.garmin.com/xmlschemas/TrackPointExtension/v1">
            <gpxtpx:hr>163</gpxtpx:hr>
          </gpxtpx:TrackPointExtension>
        </extensions>
      </trkpt>
      <trkpt lat="46.25306" lon="4.81976">
        <ele>171.40039</ele>
        <time>2026-05-13T14:16:04+02:00</time>
        <extensions>
          <gpxtpx:TrackPointExtension xmlns:gpxtpx="http://www.garmin.com/xmlschemas/TrackPointExtension/v1">
            <gpxtpx:hr>162</gpxtpx:hr>
          </gpxtpx:TrackPointExtension>
        </extensions>
      </trkpt>
      <trkpt lat="46.25307" lon="4.81972">
        <ele>171.60059</ele>
        <time>2026-05-13T14:16:05+02:00</time>
        <extensions>
          <gpxtpx:TrackPointExtension xmlns:gpxtpx="http://www.garmin.com/xmlschemas/TrackPointExtension/v1">
            <gpxtpx:hr>162</gpxtpx:hr>
          </gpxtpx:TrackPointExtension>
        </extensions>
      </trkpt>
      <trkpt lat="46.25307" lon="4.81967">
        <ele>171.60059</ele>
        <time>2026-05-13T14:16:06+02:00</time>
        <extensions>
          <gpxtpx:TrackPointExtension xmlns:gpxtpx="http://www.garmin.com/xmlschemas/TrackPointExtension/v1">
            <gpxtpx:hr>161</gpxtpx:hr>
          </gpxtpx:TrackPointExtension>
        </extensions>
      </trkpt>
      <trkpt lat="46.25308" lon="4.81963">
        <ele>171.7998</ele>
        <time>2026-05-13T14:16:07+02:00</time>
        <extensions>
          <gpxtpx:TrackPointExtension xmlns:gpxtpx="http://www.garmin.com/xmlschemas/TrackPointExtension/v1">
            <gpxtpx:hr>161</gpxtpx:hr>
          </gpxtpx:TrackPointExtension>
        </extensions>
      </trkpt>
      <trkpt lat="46.25308" lon="4.81958">
        <ele>171.7998</ele>
        <time>2026-05-13T14:16:08+02:00</time>
        <extensions>
          <gpxtpx:TrackPointExtension xmlns:gpxtpx="http://www.garmin.com/xmlschemas/TrackPointExtension/v1">
            <gpxtpx:hr>161</gpxtpx:hr>
          </gpxtpx:TrackPointExtension>
        </extensions>
      </trkpt>
      <trkpt lat="46.25309" lon="4.81954">
        <ele>172</ele>
        <time>2026-05-13T14:16:09+02:00</time>
        <extensions>
          <gpxtpx:TrackPointExtension xmlns:gpxtpx="http://www.garmin.com/xmlschemas/TrackPointExtension/v1">
            <gpxtpx:hr>161</gpxtpx:hr>
          </gpxtpx:TrackPointExtension>
        </extensions>
      </trkpt>
      <trkpt lat="46.2531" lon="4.81949">
        <ele>172</ele>
        <time>2026-05-13T14:16:10+02:00</time>
        <extensions>
          <gpxtpx:TrackPointExtension xmlns:gpxtpx="http://www.garmin.com/xmlschemas/TrackPointExtension/v1">
            <gpxtpx:hr>161</gpxtpx:hr>
          </gpxtpx:TrackPointExtension>
        </extensions>
      </trkpt>
      <trkpt lat="46.2531" lon="4.81945">
        <ele>172.2002</ele>
        <time>2026-05-13T14:16:11+02:00</time>
        <extensions>
          <gpxtpx:TrackPointExtension xmlns:gpxtpx="http://www.garmin.com/xmlschemas/TrackPointExtension/v1">
            <gpxtpx:hr>161</gpxtpx:hr>
          </gpxtpx:TrackPointExtension>
        </extensions>
      </trkpt>
      <trkpt lat="46.25311" lon="4.81941">
        <ele>172.2002</ele>
        <time>2026-05-13T14:16:12+02:00</time>
        <extensions>
          <gpxtpx:TrackPointExtension xmlns:gpxtpx="http://www.garmin.com/xmlschemas/TrackPointExtension/v1">
            <gpxtpx:hr>161</gpxtpx:hr>
          </gpxtpx:TrackPointExtension>
        </extensions>
      </trkpt>
      <trkpt lat="46.25312" lon="4.81936">
        <ele>172.40039</ele>
        <time>2026-05-13T14:16:13+02:00</time>
        <extensions>
          <gpxtpx:TrackPointExtension xmlns:gpxtpx="http://www.garmin.com/xmlschemas/TrackPointExtension/v1">
            <gpxtpx:hr>161</gpxtpx:hr>
          </gpxtpx:TrackPointExtension>
        </extensions>
      </trkpt>
      <trkpt lat="46.25312" lon="4.81932">
        <ele>172.40039</ele>
        <time>2026-05-13T14:16:14+02:00</time>
        <extensions>
          <gpxtpx:TrackPointExtension xmlns:gpxtpx="http://www.garmin.com/xmlschemas/TrackPointExtension/v1">
            <gpxtpx:hr>160</gpxtpx:hr>
          </gpxtpx:TrackPointExtension>
        </extensions>
      </trkpt>
      <trkpt lat="46.25313" lon="4.81927">
        <ele>172.40039</ele>
        <time>2026-05-13T14:16:15+02:00</time>
        <extensions>
          <gpxtpx:TrackPointExtension xmlns:gpxtpx="http://www.garmin.com/xmlschemas/TrackPointExtension/v1">
            <gpxtpx:hr>159</gpxtpx:hr>
          </gpxtpx:TrackPointExtension>
        </extensions>
      </trkpt>
      <trkpt lat="46.25314" lon="4.81922">
        <ele>172.40039</ele>
        <time>2026-05-13T14:16:16+02:00</time>
        <extensions>
          <gpxtpx:TrackPointExtension xmlns:gpxtpx="http://www.garmin.com/xmlschemas/TrackPointExtension/v1">
            <gpxtpx:hr>159</gpxtpx:hr>
          </gpxtpx:TrackPointExtension>
        </extensions>
      </trkpt>
      <trkpt lat="46.25315" lon="4.81917">
        <ele>172.40039</ele>
        <time>2026-05-13T14:16:17+02:00</time>
        <extensions>
          <gpxtpx:TrackPointExtension xmlns:gpxtpx="http://www.garmin.com/xmlschemas/TrackPointExtension/v1">
            <gpxtpx:hr>160</gpxtpx:hr>
          </gpxtpx:TrackPointExtension>
        </extensions>
      </trkpt>
      <trkpt lat="46.25316" lon="4.81912">
        <ele>172.2002</ele>
        <time>2026-05-13T14:16:18+02:00</time>
        <extensions>
          <gpxtpx:TrackPointExtension xmlns:gpxtpx="http://www.garmin.com/xmlschemas/TrackPointExtension/v1">
            <gpxtpx:hr>160</gpxtpx:hr>
          </gpxtpx:TrackPointExtension>
        </extensions>
      </trkpt>
      <trkpt lat="46.25317" lon="4.81907">
        <ele>172.2002</ele>
        <time>2026-05-13T14:16:19+02:00</time>
        <extensions>
          <gpxtpx:TrackPointExtension xmlns:gpxtpx="http://www.garmin.com/xmlschemas/TrackPointExtension/v1">
            <gpxtpx:hr>160</gpxtpx:hr>
          </gpxtpx:TrackPointExtension>
        </extensions>
      </trkpt>
      <trkpt lat="46.25318" lon="4.81901">
        <ele>172.10059</ele>
        <time>2026-05-13T14:16:20+02:00</time>
        <extensions>
          <gpxtpx:TrackPointExtension xmlns:gpxtpx="http://www.garmin.com/xmlschemas/TrackPointExtension/v1">
            <gpxtpx:hr>159</gpxtpx:hr>
          </gpxtpx:TrackPointExtension>
        </extensions>
      </trkpt>
      <trkpt lat="46.25318" lon="4.81896">
        <ele>171.7998</ele>
        <time>2026-05-13T14:16:21+02:00</time>
        <extensions>
          <gpxtpx:TrackPointExtension xmlns:gpxtpx="http://www.garmin.com/xmlschemas/TrackPointExtension/v1">
            <gpxtpx:hr>159</gpxtpx:hr>
          </gpxtpx:TrackPointExtension>
        </extensions>
      </trkpt>
      <trkpt lat="46.25319" lon="4.81891">
        <ele>171.7998</ele>
        <time>2026-05-13T14:16:22+02:00</time>
        <extensions>
          <gpxtpx:TrackPointExtension xmlns:gpxtpx="http://www.garmin.com/xmlschemas/TrackPointExtension/v1">
            <gpxtpx:hr>158</gpxtpx:hr>
          </gpxtpx:TrackPointExtension>
        </extensions>
      </trkpt>
      <trkpt lat="46.2532" lon="4.81885">
        <ele>171.40039</ele>
        <time>2026-05-13T14:16:23+02:00</time>
        <extensions>
          <gpxtpx:TrackPointExtension xmlns:gpxtpx="http://www.garmin.com/xmlschemas/TrackPointExtension/v1">
            <gpxtpx:hr>158</gpxtpx:hr>
          </gpxtpx:TrackPointExtension>
        </extensions>
      </trkpt>
      <trkpt lat="46.25321" lon="4.81879">
        <ele>170.90039</ele>
        <time>2026-05-13T14:16:24+02:00</time>
        <extensions>
          <gpxtpx:TrackPointExtension xmlns:gpxtpx="http://www.garmin.com/xmlschemas/TrackPointExtension/v1">
            <gpxtpx:hr>158</gpxtpx:hr>
          </gpxtpx:TrackPointExtension>
        </extensions>
      </trkpt>
      <trkpt lat="46.25322" lon="4.81873">
        <ele>170.90039</ele>
        <time>2026-05-13T14:16:25+02:00</time>
        <extensions>
          <gpxtpx:TrackPointExtension xmlns:gpxtpx="http://www.garmin.com/xmlschemas/TrackPointExtension/v1">
            <gpxtpx:hr>158</gpxtpx:hr>
          </gpxtpx:TrackPointExtension>
        </extensions>
      </trkpt>
      <trkpt lat="46.25323" lon="4.81867">
        <ele>170.2998</ele>
        <time>2026-05-13T14:16:26+02:00</time>
        <extensions>
          <gpxtpx:TrackPointExtension xmlns:gpxtpx="http://www.garmin.com/xmlschemas/TrackPointExtension/v1">
            <gpxtpx:hr>158</gpxtpx:hr>
          </gpxtpx:TrackPointExtension>
        </extensions>
      </trkpt>
      <trkpt lat="46.25324" lon="4.81862">
        <ele>170.10059</ele>
        <time>2026-05-13T14:16:27+02:00</time>
        <extensions>
          <gpxtpx:TrackPointExtension xmlns:gpxtpx="http://www.garmin.com/xmlschemas/TrackPointExtension/v1">
            <gpxtpx:hr>158</gpxtpx:hr>
          </gpxtpx:TrackPointExtension>
        </extensions>
      </trkpt>
      <trkpt lat="46.25325" lon="4.81856">
        <ele>170.10059</ele>
        <time>2026-05-13T14:16:28+02:00</time>
        <extensions>
          <gpxtpx:TrackPointExtension xmlns:gpxtpx="http://www.garmin.com/xmlschemas/TrackPointExtension/v1">
            <gpxtpx:hr>157</gpxtpx:hr>
          </gpxtpx:TrackPointExtension>
        </extensions>
      </trkpt>
      <trkpt lat="46.25326" lon="4.8185">
        <ele>169.7998</ele>
        <time>2026-05-13T14:16:29+02:00</time>
        <extensions>
          <gpxtpx:TrackPointExtension xmlns:gpxtpx="http://www.garmin.com/xmlschemas/TrackPointExtension/v1">
            <gpxtpx:hr>157</gpxtpx:hr>
          </gpxtpx:TrackPointExtension>
        </extensions>
      </trkpt>
      <trkpt lat="46.25327" lon="4.81843">
        <ele>169.60059</ele>
        <time>2026-05-13T14:16:30+02:00</time>
        <extensions>
          <gpxtpx:TrackPointExtension xmlns:gpxtpx="http://www.garmin.com/xmlschemas/TrackPointExtension/v1">
            <gpxtpx:hr>157</gpxtpx:hr>
          </gpxtpx:TrackPointExtension>
        </extensions>
      </trkpt>
      <trkpt lat="46.25328" lon="4.81837">
        <ele>169.60059</ele>
        <time>2026-05-13T14:16:31+02:00</time>
        <extensions>
          <gpxtpx:TrackPointExtension xmlns:gpxtpx="http://www.garmin.com/xmlschemas/TrackPointExtension/v1">
            <gpxtpx:hr>157</gpxtpx:hr>
          </gpxtpx:TrackPointExtension>
        </extensions>
      </trkpt>
      <trkpt lat="46.25329" lon="4.81831">
        <ele>169.40039</ele>
        <time>2026-05-13T14:16:32+02:00</time>
        <extensions>
          <gpxtpx:TrackPointExtension xmlns:gpxtpx="http://www.garmin.com/xmlschemas/TrackPointExtension/v1">
            <gpxtpx:hr>157</gpxtpx:hr>
          </gpxtpx:TrackPointExtension>
        </extensions>
      </trkpt>
      <trkpt lat="46.2533" lon="4.81825">
        <ele>169.7998</ele>
        <time>2026-05-13T14:16:33+02:00</time>
        <extensions>
          <gpxtpx:TrackPointExtension xmlns:gpxtpx="http://www.garmin.com/xmlschemas/TrackPointExtension/v1">
            <gpxtpx:hr>158</gpxtpx:hr>
          </gpxtpx:TrackPointExtension>
        </extensions>
      </trkpt>
      <trkpt lat="46.2533" lon="4.81818">
        <ele>169.7002</ele>
        <time>2026-05-13T14:16:34+02:00</time>
        <extensions>
          <gpxtpx:TrackPointExtension xmlns:gpxtpx="http://www.garmin.com/xmlschemas/TrackPointExtension/v1">
            <gpxtpx:hr>158</gpxtpx:hr>
          </gpxtpx:TrackPointExtension>
        </extensions>
      </trkpt>
      <trkpt lat="46.25329" lon="4.81812">
        <ele>169.2002</ele>
        <time>2026-05-13T14:16:35+02:00</time>
        <extensions>
          <gpxtpx:TrackPointExtension xmlns:gpxtpx="http://www.garmin.com/xmlschemas/TrackPointExtension/v1">
            <gpxtpx:hr>158</gpxtpx:hr>
          </gpxtpx:TrackPointExtension>
        </extensions>
      </trkpt>
      <trkpt lat="46.25327" lon="4.81806">
        <ele>169.2002</ele>
        <time>2026-05-13T14:16:36+02:00</time>
        <extensions>
          <gpxtpx:TrackPointExtension xmlns:gpxtpx="http://www.garmin.com/xmlschemas/TrackPointExtension/v1">
            <gpxtpx:hr>158</gpxtpx:hr>
          </gpxtpx:TrackPointExtension>
        </extensions>
      </trkpt>
      <trkpt lat="46.25325" lon="4.81801">
        <ele>169.10059</ele>
        <time>2026-05-13T14:16:37+02:00</time>
        <extensions>
          <gpxtpx:TrackPointExtension xmlns:gpxtpx="http://www.garmin.com/xmlschemas/TrackPointExtension/v1">
            <gpxtpx:hr>158</gpxtpx:hr>
          </gpxtpx:TrackPointExtension>
        </extensions>
      </trkpt>
      <trkpt lat="46.25321" lon="4.81796">
        <ele>168.60059</ele>
        <time>2026-05-13T14:16:38+02:00</time>
        <extensions>
          <gpxtpx:TrackPointExtension xmlns:gpxtpx="http://www.garmin.com/xmlschemas/TrackPointExtension/v1">
            <gpxtpx:hr>158</gpxtpx:hr>
          </gpxtpx:TrackPointExtension>
        </extensions>
      </trkpt>
      <trkpt lat="46.25318" lon="4.81792">
        <ele>168.60059</ele>
        <time>2026-05-13T14:16:39+02:00</time>
        <extensions>
          <gpxtpx:TrackPointExtension xmlns:gpxtpx="http://www.garmin.com/xmlschemas/TrackPointExtension/v1">
            <gpxtpx:hr>158</gpxtpx:hr>
          </gpxtpx:TrackPointExtension>
        </extensions>
      </trkpt>
      <trkpt lat="46.25315" lon="4.81788">
        <ele>168.10059</ele>
        <time>2026-05-13T14:16:40+02:00</time>
        <extensions>
          <gpxtpx:TrackPointExtension xmlns:gpxtpx="http://www.garmin.com/xmlschemas/TrackPointExtension/v1">
            <gpxtpx:hr>157</gpxtpx:hr>
          </gpxtpx:TrackPointExtension>
        </extensions>
      </trkpt>
      <trkpt lat="46.25312" lon="4.81785">
        <ele>168.10059</ele>
        <time>2026-05-13T14:16:41+02:00</time>
        <extensions>
          <gpxtpx:TrackPointExtension xmlns:gpxtpx="http://www.garmin.com/xmlschemas/TrackPointExtension/v1">
            <gpxtpx:hr>156</gpxtpx:hr>
          </gpxtpx:TrackPointExtension>
        </extensions>
      </trkpt>
      <trkpt lat="46.2531" lon="4.81781">
        <ele>167.60059</ele>
        <time>2026-05-13T14:16:42+02:00</time>
        <extensions>
          <gpxtpx:TrackPointExtension xmlns:gpxtpx="http://www.garmin.com/xmlschemas/TrackPointExtension/v1">
            <gpxtpx:hr>155</gpxtpx:hr>
          </gpxtpx:TrackPointExtension>
        </extensions>
      </trkpt>
      <trkpt lat="46.25308" lon="4.81777">
        <ele>167.60059</ele>
        <time>2026-05-13T14:16:43+02:00</time>
        <extensions>
          <gpxtpx:TrackPointExtension xmlns:gpxtpx="http://www.garmin.com/xmlschemas/TrackPointExtension/v1">
            <gpxtpx:hr>154</gpxtpx:hr>
          </gpxtpx:TrackPointExtension>
        </extensions>
      </trkpt>
      <trkpt lat="46.25307" lon="4.81772">
        <ele>167.60059</ele>
        <time>2026-05-13T14:16:44+02:00</time>
        <extensions>
          <gpxtpx:TrackPointExtension xmlns:gpxtpx="http://www.garmin.com/xmlschemas/TrackPointExtension/v1">
            <gpxtpx:hr>153</gpxtpx:hr>
          </gpxtpx:TrackPointExtension>
        </extensions>
      </trkpt>
      <trkpt lat="46.25306" lon="4.81768">
        <ele>167.60059</ele>
        <time>2026-05-13T14:16:45+02:00</time>
        <extensions>
          <gpxtpx:TrackPointExtension xmlns:gpxtpx="http://www.garmin.com/xmlschemas/TrackPointExtension/v1">
            <gpxtpx:hr>153</gpxtpx:hr>
          </gpxtpx:TrackPointExtension>
        </extensions>
      </trkpt>
      <trkpt lat="46.25306" lon="4.81764">
        <ele>167.60059</ele>
        <time>2026-05-13T14:16:46+02:00</time>
        <extensions>
          <gpxtpx:TrackPointExtension xmlns:gpxtpx="http://www.garmin.com/xmlschemas/TrackPointExtension/v1">
            <gpxtpx:hr>154</gpxtpx:hr>
          </gpxtpx:TrackPointExtension>
        </extensions>
      </trkpt>
      <trkpt lat="46.25306" lon="4.81761">
        <ele>167.60059</ele>
        <time>2026-05-13T14:16:47+02:00</time>
        <extensions>
          <gpxtpx:TrackPointExtension xmlns:gpxtpx="http://www.garmin.com/xmlschemas/TrackPointExtension/v1">
            <gpxtpx:hr>154</gpxtpx:hr>
          </gpxtpx:TrackPointExtension>
        </extensions>
      </trkpt>
      <trkpt lat="46.25307" lon="4.81757">
        <ele>167.60059</ele>
        <time>2026-05-13T14:16:48+02:00</time>
        <extensions>
          <gpxtpx:TrackPointExtension xmlns:gpxtpx="http://www.garmin.com/xmlschemas/TrackPointExtension/v1">
            <gpxtpx:hr>153</gpxtpx:hr>
          </gpxtpx:TrackPointExtension>
        </extensions>
      </trkpt>
      <trkpt lat="46.25308" lon="4.81754">
        <ele>167.60059</ele>
        <time>2026-05-13T14:16:49+02:00</time>
        <extensions>
          <gpxtpx:TrackPointExtension xmlns:gpxtpx="http://www.garmin.com/xmlschemas/TrackPointExtension/v1">
            <gpxtpx:hr>153</gpxtpx:hr>
          </gpxtpx:TrackPointExtension>
        </extensions>
      </trkpt>
      <trkpt lat="46.25308" lon="4.8175">
        <ele>167.60059</ele>
        <time>2026-05-13T14:16:50+02:00</time>
        <extensions>
          <gpxtpx:TrackPointExtension xmlns:gpxtpx="http://www.garmin.com/xmlschemas/TrackPointExtension/v1">
            <gpxtpx:hr>153</gpxtpx:hr>
          </gpxtpx:TrackPointExtension>
        </extensions>
      </trkpt>
      <trkpt lat="46.25309" lon="4.81746">
        <ele>167.60059</ele>
        <time>2026-05-13T14:16:51+02:00</time>
        <extensions>
          <gpxtpx:TrackPointExtension xmlns:gpxtpx="http://www.garmin.com/xmlschemas/TrackPointExtension/v1">
            <gpxtpx:hr>152</gpxtpx:hr>
          </gpxtpx:TrackPointExtension>
        </extensions>
      </trkpt>
      <trkpt lat="46.2531" lon="4.81741">
        <ele>167.7002</ele>
        <time>2026-05-13T14:16:52+02:00</time>
        <extensions>
          <gpxtpx:TrackPointExtension xmlns:gpxtpx="http://www.garmin.com/xmlschemas/TrackPointExtension/v1">
            <gpxtpx:hr>151</gpxtpx:hr>
          </gpxtpx:TrackPointExtension>
        </extensions>
      </trkpt>
      <trkpt lat="46.2531" lon="4.81737">
        <ele>167.7002</ele>
        <time>2026-05-13T14:16:53+02:00</time>
        <extensions>
          <gpxtpx:TrackPointExtension xmlns:gpxtpx="http://www.garmin.com/xmlschemas/TrackPointExtension/v1">
            <gpxtpx:hr>151</gpxtpx:hr>
          </gpxtpx:TrackPointExtension>
        </extensions>
      </trkpt>
      <trkpt lat="46.25311" lon="4.81733">
        <ele>167.7002</ele>
        <time>2026-05-13T14:16:54+02:00</time>
        <extensions>
          <gpxtpx:TrackPointExtension xmlns:gpxtpx="http://www.garmin.com/xmlschemas/TrackPointExtension/v1">
            <gpxtpx:hr>150</gpxtpx:hr>
          </gpxtpx:TrackPointExtension>
        </extensions>
      </trkpt>
      <trkpt lat="46.25313" lon="4.81728">
        <ele>168.2002</ele>
        <time>2026-05-13T14:16:55+02:00</time>
        <extensions>
          <gpxtpx:TrackPointExtension xmlns:gpxtpx="http://www.garmin.com/xmlschemas/TrackPointExtension/v1">
            <gpxtpx:hr>151</gpxtpx:hr>
          </gpxtpx:TrackPointExtension>
        </extensions>
      </trkpt>
      <trkpt lat="46.25314" lon="4.81724">
        <ele>168.2998</ele>
        <time>2026-05-13T14:16:56+02:00</time>
        <extensions>
          <gpxtpx:TrackPointExtension xmlns:gpxtpx="http://www.garmin.com/xmlschemas/TrackPointExtension/v1">
            <gpxtpx:hr>151</gpxtpx:hr>
          </gpxtpx:TrackPointExtension>
        </extensions>
      </trkpt>
      <trkpt lat="46.25315" lon="4.81719">
        <ele>168.2998</ele>
        <time>2026-05-13T14:16:57+02:00</time>
        <extensions>
          <gpxtpx:TrackPointExtension xmlns:gpxtpx="http://www.garmin.com/xmlschemas/TrackPointExtension/v1">
            <gpxtpx:hr>151</gpxtpx:hr>
          </gpxtpx:TrackPointExtension>
        </extensions>
      </trkpt>
      <trkpt lat="46.25316" lon="4.81714">
        <ele>168.2998</ele>
        <time>2026-05-13T14:16:58+02:00</time>
        <extensions>
          <gpxtpx:TrackPointExtension xmlns:gpxtpx="http://www.garmin.com/xmlschemas/TrackPointExtension/v1">
            <gpxtpx:hr>152</gpxtpx:hr>
          </gpxtpx:TrackPointExtension>
        </extensions>
      </trkpt>
      <trkpt lat="46.25317" lon="4.81708">
        <ele>168.2998</ele>
        <time>2026-05-13T14:16:59+02:00</time>
        <extensions>
          <gpxtpx:TrackPointExtension xmlns:gpxtpx="http://www.garmin.com/xmlschemas/TrackPointExtension/v1">
            <gpxtpx:hr>152</gpxtpx:hr>
          </gpxtpx:TrackPointExtension>
        </extensions>
      </trkpt>
      <trkpt lat="46.25318" lon="4.81703">
        <ele>169.2002</ele>
        <time>2026-05-13T14:17:00+02:00</time>
        <extensions>
          <gpxtpx:TrackPointExtension xmlns:gpxtpx="http://www.garmin.com/xmlschemas/TrackPointExtension/v1">
            <gpxtpx:hr>153</gpxtpx:hr>
          </gpxtpx:TrackPointExtension>
        </extensions>
      </trkpt>
      <trkpt lat="46.25319" lon="4.81697">
        <ele>169.2002</ele>
        <time>2026-05-13T14:17:01+02:00</time>
        <extensions>
          <gpxtpx:TrackPointExtension xmlns:gpxtpx="http://www.garmin.com/xmlschemas/TrackPointExtension/v1">
            <gpxtpx:hr>153</gpxtpx:hr>
          </gpxtpx:TrackPointExtension>
        </extensions>
      </trkpt>
      <trkpt lat="46.25321" lon="4.81692">
        <ele>169.2002</ele>
        <time>2026-05-13T14:17:02+02:00</time>
        <extensions>
          <gpxtpx:TrackPointExtension xmlns:gpxtpx="http://www.garmin.com/xmlschemas/TrackPointExtension/v1">
            <gpxtpx:hr>153</gpxtpx:hr>
          </gpxtpx:TrackPointExtension>
        </extensions>
      </trkpt>
      <trkpt lat="46.25322" lon="4.81686">
        <ele>169</ele>
        <time>2026-05-13T14:17:03+02:00</time>
        <extensions>
          <gpxtpx:TrackPointExtension xmlns:gpxtpx="http://www.garmin.com/xmlschemas/TrackPointExtension/v1">
            <gpxtpx:hr>153</gpxtpx:hr>
          </gpxtpx:TrackPointExtension>
        </extensions>
      </trkpt>
      <trkpt lat="46.25323" lon="4.81681">
        <ele>168.60059</ele>
        <time>2026-05-13T14:17:04+02:00</time>
        <extensions>
          <gpxtpx:TrackPointExtension xmlns:gpxtpx="http://www.garmin.com/xmlschemas/TrackPointExtension/v1">
            <gpxtpx:hr>154</gpxtpx:hr>
          </gpxtpx:TrackPointExtension>
        </extensions>
      </trkpt>
      <trkpt lat="46.25325" lon="4.81676">
        <ele>169.10059</ele>
        <time>2026-05-13T14:17:05+02:00</time>
        <extensions>
          <gpxtpx:TrackPointExtension xmlns:gpxtpx="http://www.garmin.com/xmlschemas/TrackPointExtension/v1">
            <gpxtpx:hr>154</gpxtpx:hr>
          </gpxtpx:TrackPointExtension>
        </extensions>
      </trkpt>
      <trkpt lat="46.25326" lon="4.8167">
        <ele>168.5</ele>
        <time>2026-05-13T14:17:06+02:00</time>
        <extensions>
          <gpxtpx:TrackPointExtension xmlns:gpxtpx="http://www.garmin.com/xmlschemas/TrackPointExtension/v1">
            <gpxtpx:hr>154</gpxtpx:hr>
          </gpxtpx:TrackPointExtension>
        </extensions>
      </trkpt>
      <trkpt lat="46.25327" lon="4.81665">
        <ele>168.5</ele>
        <time>2026-05-13T14:17:07+02:00</time>
        <extensions>
          <gpxtpx:TrackPointExtension xmlns:gpxtpx="http://www.garmin.com/xmlschemas/TrackPointExtension/v1">
            <gpxtpx:hr>153</gpxtpx:hr>
          </gpxtpx:TrackPointExtension>
        </extensions>
      </trkpt>
      <trkpt lat="46.25329" lon="4.81659">
        <ele>168</ele>
        <time>2026-05-13T14:17:08+02:00</time>
        <extensions>
          <gpxtpx:TrackPointExtension xmlns:gpxtpx="http://www.garmin.com/xmlschemas/TrackPointExtension/v1">
            <gpxtpx:hr>154</gpxtpx:hr>
          </gpxtpx:TrackPointExtension>
        </extensions>
      </trkpt>
      <trkpt lat="46.2533" lon="4.81654">
        <ele>168.10059</ele>
        <time>2026-05-13T14:17:09+02:00</time>
        <extensions>
          <gpxtpx:TrackPointExtension xmlns:gpxtpx="http://www.garmin.com/xmlschemas/TrackPointExtension/v1">
            <gpxtpx:hr>154</gpxtpx:hr>
          </gpxtpx:TrackPointExtension>
        </extensions>
      </trkpt>
      <trkpt lat="46.25332" lon="4.81648">
        <ele>168.10059</ele>
        <time>2026-05-13T14:17:10+02:00</time>
        <extensions>
          <gpxtpx:TrackPointExtension xmlns:gpxtpx="http://www.garmin.com/xmlschemas/TrackPointExtension/v1">
            <gpxtpx:hr>153</gpxtpx:hr>
          </gpxtpx:TrackPointExtension>
        </extensions>
      </trkpt>
      <trkpt lat="46.25333" lon="4.81643">
        <ele>167.90039</ele>
        <time>2026-05-13T14:17:11+02:00</time>
        <extensions>
          <gpxtpx:TrackPointExtension xmlns:gpxtpx="http://www.garmin.com/xmlschemas/TrackPointExtension/v1">
            <gpxtpx:hr>153</gpxtpx:hr>
          </gpxtpx:TrackPointExtension>
        </extensions>
      </trkpt>
      <trkpt lat="46.25334" lon="4.81638">
        <ele>167.7002</ele>
        <time>2026-05-13T14:17:12+02:00</time>
        <extensions>
          <gpxtpx:TrackPointExtension xmlns:gpxtpx="http://www.garmin.com/xmlschemas/TrackPointExtension/v1">
            <gpxtpx:hr>152</gpxtpx:hr>
          </gpxtpx:TrackPointExtension>
        </extensions>
      </trkpt>
      <trkpt lat="46.25335" lon="4.81632">
        <ele>167.7002</ele>
        <time>2026-05-13T14:17:13+02:00</time>
        <extensions>
          <gpxtpx:TrackPointExtension xmlns:gpxtpx="http://www.garmin.com/xmlschemas/TrackPointExtension/v1">
            <gpxtpx:hr>151</gpxtpx:hr>
          </gpxtpx:TrackPointExtension>
        </extensions>
      </trkpt>
      <trkpt lat="46.25336" lon="4.81627">
        <ele>167.60059</ele>
        <time>2026-05-13T14:17:14+02:00</time>
        <extensions>
          <gpxtpx:TrackPointExtension xmlns:gpxtpx="http://www.garmin.com/xmlschemas/TrackPointExtension/v1">
            <gpxtpx:hr>151</gpxtpx:hr>
          </gpxtpx:TrackPointExtension>
        </extensions>
      </trkpt>
      <trkpt lat="46.25338" lon="4.81622">
        <ele>167.60059</ele>
        <time>2026-05-13T14:17:15+02:00</time>
        <extensions>
          <gpxtpx:TrackPointExtension xmlns:gpxtpx="http://www.garmin.com/xmlschemas/TrackPointExtension/v1">
            <gpxtpx:hr>151</gpxtpx:hr>
          </gpxtpx:TrackPointExtension>
        </extensions>
      </trkpt>
      <trkpt lat="46.25339" lon="4.81616">
        <ele>167.2002</ele>
        <time>2026-05-13T14:17:16+02:00</time>
        <extensions>
          <gpxtpx:TrackPointExtension xmlns:gpxtpx="http://www.garmin.com/xmlschemas/TrackPointExtension/v1">
            <gpxtpx:hr>151</gpxtpx:hr>
          </gpxtpx:TrackPointExtension>
        </extensions>
      </trkpt>
      <trkpt lat="46.2534" lon="4.81611">
        <ele>166.7998</ele>
        <time>2026-05-13T14:17:17+02:00</time>
        <extensions>
          <gpxtpx:TrackPointExtension xmlns:gpxtpx="http://www.garmin.com/xmlschemas/TrackPointExtension/v1">
            <gpxtpx:hr>151</gpxtpx:hr>
          </gpxtpx:TrackPointExtension>
        </extensions>
      </trkpt>
      <trkpt lat="46.25342" lon="4.81606">
        <ele>166.90039</ele>
        <time>2026-05-13T14:17:18+02:00</time>
        <extensions>
          <gpxtpx:TrackPointExtension xmlns:gpxtpx="http://www.garmin.com/xmlschemas/TrackPointExtension/v1">
            <gpxtpx:hr>151</gpxtpx:hr>
          </gpxtpx:TrackPointExtension>
        </extensions>
      </trkpt>
      <trkpt lat="46.25345" lon="4.81602">
        <ele>166.5</ele>
        <time>2026-05-13T14:17:19+02:00</time>
        <extensions>
          <gpxtpx:TrackPointExtension xmlns:gpxtpx="http://www.garmin.com/xmlschemas/TrackPointExtension/v1">
            <gpxtpx:hr>150</gpxtpx:hr>
          </gpxtpx:TrackPointExtension>
        </extensions>
      </trkpt>
      <trkpt lat="46.25348" lon="4.81598">
        <ele>166.60059</ele>
        <time>2026-05-13T14:17:20+02:00</time>
        <extensions>
          <gpxtpx:TrackPointExtension xmlns:gpxtpx="http://www.garmin.com/xmlschemas/TrackPointExtension/v1">
            <gpxtpx:hr>150</gpxtpx:hr>
          </gpxtpx:TrackPointExtension>
        </extensions>
      </trkpt>
      <trkpt lat="46.25352" lon="4.81595">
        <ele>166.40039</ele>
        <time>2026-05-13T14:17:21+02:00</time>
        <extensions>
          <gpxtpx:TrackPointExtension xmlns:gpxtpx="http://www.garmin.com/xmlschemas/TrackPointExtension/v1">
            <gpxtpx:hr>150</gpxtpx:hr>
          </gpxtpx:TrackPointExtension>
        </extensions>
      </trkpt>
      <trkpt lat="46.25356" lon="4.81593">
        <ele>166.5</ele>
        <time>2026-05-13T14:17:22+02:00</time>
        <extensions>
          <gpxtpx:TrackPointExtension xmlns:gpxtpx="http://www.garmin.com/xmlschemas/TrackPointExtension/v1">
            <gpxtpx:hr>150</gpxtpx:hr>
          </gpxtpx:TrackPointExtension>
        </extensions>
      </trkpt>
      <trkpt lat="46.25359" lon="4.81592">
        <ele>166.5</ele>
        <time>2026-05-13T14:17:23+02:00</time>
        <extensions>
          <gpxtpx:TrackPointExtension xmlns:gpxtpx="http://www.garmin.com/xmlschemas/TrackPointExtension/v1">
            <gpxtpx:hr>149</gpxtpx:hr>
          </gpxtpx:TrackPointExtension>
        </extensions>
      </trkpt>
      <trkpt lat="46.25363" lon="4.81592">
        <ele>166.7998</ele>
        <time>2026-05-13T14:17:24+02:00</time>
        <extensions>
          <gpxtpx:TrackPointExtension xmlns:gpxtpx="http://www.garmin.com/xmlschemas/TrackPointExtension/v1">
            <gpxtpx:hr>150</gpxtpx:hr>
          </gpxtpx:TrackPointExtension>
        </extensions>
      </trkpt>
      <trkpt lat="46.25367" lon="4.81592">
        <ele>167</ele>
        <time>2026-05-13T14:17:25+02:00</time>
        <extensions>
          <gpxtpx:TrackPointExtension xmlns:gpxtpx="http://www.garmin.com/xmlschemas/TrackPointExtension/v1">
            <gpxtpx:hr>150</gpxtpx:hr>
          </gpxtpx:TrackPointExtension>
        </extensions>
      </trkpt>
      <trkpt lat="46.25369" lon="4.81593">
        <ele>167</ele>
        <time>2026-05-13T14:17:26+02:00</time>
        <extensions>
          <gpxtpx:TrackPointExtension xmlns:gpxtpx="http://www.garmin.com/xmlschemas/TrackPointExtension/v1">
            <gpxtpx:hr>151</gpxtpx:hr>
          </gpxtpx:TrackPointExtension>
        </extensions>
      </trkpt>
      <trkpt lat="46.25371" lon="4.81593">
        <ele>167.10059</ele>
        <time>2026-05-13T14:17:27+02:00</time>
        <extensions>
          <gpxtpx:TrackPointExtension xmlns:gpxtpx="http://www.garmin.com/xmlschemas/TrackPointExtension/v1">
            <gpxtpx:hr>151</gpxtpx:hr>
          </gpxtpx:TrackPointExtension>
        </extensions>
      </trkpt>
      <trkpt lat="46.25372" lon="4.81593">
        <ele>167.10059</ele>
        <time>2026-05-13T14:17:28+02:00</time>
        <extensions>
          <gpxtpx:TrackPointExtension xmlns:gpxtpx="http://www.garmin.com/xmlschemas/TrackPointExtension/v1">
            <gpxtpx:hr>151</gpxtpx:hr>
          </gpxtpx:TrackPointExtension>
        </extensions>
      </trkpt>
      <trkpt lat="46.25372" lon="4.81593">
        <ele>167.10059</ele>
        <time>2026-05-13T14:17:29+02:00</time>
        <extensions>
          <gpxtpx:TrackPointExtension xmlns:gpxtpx="http://www.garmin.com/xmlschemas/TrackPointExtension/v1">
            <gpxtpx:hr>150</gpxtpx:hr>
          </gpxtpx:TrackPointExtension>
        </extensions>
      </trkpt>
      <trkpt lat="46.25372" lon="4.81593">
        <ele>167.10059</ele>
        <time>2026-05-13T14:17:30+02:00</time>
        <extensions>
          <gpxtpx:TrackPointExtension xmlns:gpxtpx="http://www.garmin.com/xmlschemas/TrackPointExtension/v1">
            <gpxtpx:hr>150</gpxtpx:hr>
          </gpxtpx:TrackPointExtension>
        </extensions>
      </trkpt>
      <trkpt lat="46.25372" lon="4.81593">
        <ele>167.10059</ele>
        <time>2026-05-13T14:17:31+02:00</time>
        <extensions>
          <gpxtpx:TrackPointExtension xmlns:gpxtpx="http://www.garmin.com/xmlschemas/TrackPointExtension/v1">
            <gpxtpx:hr>151</gpxtpx:hr>
          </gpxtpx:TrackPointExtension>
        </extensions>
      </trkpt>
      <trkpt lat="46.25372" lon="4.81593">
        <ele>167.10059</ele>
        <time>2026-05-13T14:17:32+02:00</time>
        <extensions>
          <gpxtpx:TrackPointExtension xmlns:gpxtpx="http://www.garmin.com/xmlschemas/TrackPointExtension/v1">
            <gpxtpx:hr>151</gpxtpx:hr>
          </gpxtpx:TrackPointExtension>
        </extensions>
      </trkpt>
      <trkpt lat="46.25372" lon="4.81593">
        <ele>167.10059</ele>
        <time>2026-05-13T14:17:33+02:00</time>
        <extensions>
          <gpxtpx:TrackPointExtension xmlns:gpxtpx="http://www.garmin.com/xmlschemas/TrackPointExtension/v1">
            <gpxtpx:hr>151</gpxtpx:hr>
          </gpxtpx:TrackPointExtension>
        </extensions>
      </trkpt>
      <trkpt lat="46.25383" lon="4.81595">
        <ele>167.10059</ele>
        <time>2026-05-13T14:18:05+02:00</time>
        <extensions>
          <gpxtpx:TrackPointExtension xmlns:gpxtpx="http://www.garmin.com/xmlschemas/TrackPointExtension/v1">
            <gpxtpx:hr>148</gpxtpx:hr>
          </gpxtpx:TrackPointExtension>
        </extensions>
      </trkpt>
      <trkpt lat="46.25386" lon="4.81596">
        <ele>167.10059</ele>
        <time>2026-05-13T14:18:06+02:00</time>
        <extensions>
          <gpxtpx:TrackPointExtension xmlns:gpxtpx="http://www.garmin.com/xmlschemas/TrackPointExtension/v1">
            <gpxtpx:hr>148</gpxtpx:hr>
          </gpxtpx:TrackPointExtension>
        </extensions>
      </trkpt>
      <trkpt lat="46.25389" lon="4.81598">
        <ele>167.2998</ele>
        <time>2026-05-13T14:18:07+02:00</time>
        <extensions>
          <gpxtpx:TrackPointExtension xmlns:gpxtpx="http://www.garmin.com/xmlschemas/TrackPointExtension/v1">
            <gpxtpx:hr>147</gpxtpx:hr>
          </gpxtpx:TrackPointExtension>
        </extensions>
      </trkpt>
      <trkpt lat="46.25393" lon="4.81598">
        <ele>167.2998</ele>
        <time>2026-05-13T14:18:08+02:00</time>
        <extensions>
          <gpxtpx:TrackPointExtension xmlns:gpxtpx="http://www.garmin.com/xmlschemas/TrackPointExtension/v1">
            <gpxtpx:hr>147</gpxtpx:hr>
          </gpxtpx:TrackPointExtension>
        </extensions>
      </trkpt>
      <trkpt lat="46.25397" lon="4.81599">
        <ele>167.2002</ele>
        <time>2026-05-13T14:18:09+02:00</time>
        <extensions>
          <gpxtpx:TrackPointExtension xmlns:gpxtpx="http://www.garmin.com/xmlschemas/TrackPointExtension/v1">
            <gpxtpx:hr>147</gpxtpx:hr>
          </gpxtpx:TrackPointExtension>
        </extensions>
      </trkpt>
      <trkpt lat="46.25401" lon="4.81599">
        <ele>167.10059</ele>
        <time>2026-05-13T14:18:10+02:00</time>
        <extensions>
          <gpxtpx:TrackPointExtension xmlns:gpxtpx="http://www.garmin.com/xmlschemas/TrackPointExtension/v1">
            <gpxtpx:hr>147</gpxtpx:hr>
          </gpxtpx:TrackPointExtension>
        </extensions>
      </trkpt>
      <trkpt lat="46.25405" lon="4.816">
        <ele>167.10059</ele>
        <time>2026-05-13T14:18:11+02:00</time>
        <extensions>
          <gpxtpx:TrackPointExtension xmlns:gpxtpx="http://www.garmin.com/xmlschemas/TrackPointExtension/v1">
            <gpxtpx:hr>147</gpxtpx:hr>
          </gpxtpx:TrackPointExtension>
        </extensions>
      </trkpt>
      <trkpt lat="46.25409" lon="4.816">
        <ele>166.90039</ele>
        <time>2026-05-13T14:18:12+02:00</time>
        <extensions>
          <gpxtpx:TrackPointExtension xmlns:gpxtpx="http://www.garmin.com/xmlschemas/TrackPointExtension/v1">
            <gpxtpx:hr>147</gpxtpx:hr>
          </gpxtpx:TrackPointExtension>
        </extensions>
      </trkpt>
      <trkpt lat="46.25414" lon="4.81601">
        <ele>166.7002</ele>
        <time>2026-05-13T14:18:13+02:00</time>
        <extensions>
          <gpxtpx:TrackPointExtension xmlns:gpxtpx="http://www.garmin.com/xmlschemas/TrackPointExtension/v1">
            <gpxtpx:hr>148</gpxtpx:hr>
          </gpxtpx:TrackPointExtension>
        </extensions>
      </trkpt>
      <trkpt lat="46.25418" lon="4.81601">
        <ele>166.7002</ele>
        <time>2026-05-13T14:18:14+02:00</time>
        <extensions>
          <gpxtpx:TrackPointExtension xmlns:gpxtpx="http://www.garmin.com/xmlschemas/TrackPointExtension/v1">
            <gpxtpx:hr>148</gpxtpx:hr>
          </gpxtpx:TrackPointExtension>
        </extensions>
      </trkpt>
      <trkpt lat="46.25423" lon="4.81602">
        <ele>166.7002</ele>
        <time>2026-05-13T14:18:15+02:00</time>
        <extensions>
          <gpxtpx:TrackPointExtension xmlns:gpxtpx="http://www.garmin.com/xmlschemas/TrackPointExtension/v1">
            <gpxtpx:hr>148</gpxtpx:hr>
          </gpxtpx:TrackPointExtension>
        </extensions>
      </trkpt>
      <trkpt lat="46.25428" lon="4.81602">
        <ele>166.90039</ele>
        <time>2026-05-13T14:18:16+02:00</time>
        <extensions>
          <gpxtpx:TrackPointExtension xmlns:gpxtpx="http://www.garmin.com/xmlschemas/TrackPointExtension/v1">
            <gpxtpx:hr>148</gpxtpx:hr>
          </gpxtpx:TrackPointExtension>
        </extensions>
      </trkpt>
      <trkpt lat="46.25432" lon="4.81603">
        <ele>167.10059</ele>
        <time>2026-05-13T14:18:17+02:00</time>
        <extensions>
          <gpxtpx:TrackPointExtension xmlns:gpxtpx="http://www.garmin.com/xmlschemas/TrackPointExtension/v1">
            <gpxtpx:hr>148</gpxtpx:hr>
          </gpxtpx:TrackPointExtension>
        </extensions>
      </trkpt>
      <trkpt lat="46.25437" lon="4.81603">
        <ele>167.2998</ele>
        <time>2026-05-13T14:18:18+02:00</time>
        <extensions>
          <gpxtpx:TrackPointExtension xmlns:gpxtpx="http://www.garmin.com/xmlschemas/TrackPointExtension/v1">
            <gpxtpx:hr>148</gpxtpx:hr>
          </gpxtpx:TrackPointExtension>
        </extensions>
      </trkpt>
      <trkpt lat="46.25442" lon="4.81603">
        <ele>167.2998</ele>
        <time>2026-05-13T14:18:19+02:00</time>
        <extensions>
          <gpxtpx:TrackPointExtension xmlns:gpxtpx="http://www.garmin.com/xmlschemas/TrackPointExtension/v1">
            <gpxtpx:hr>149</gpxtpx:hr>
          </gpxtpx:TrackPointExtension>
        </extensions>
      </trkpt>
      <trkpt lat="46.25447" lon="4.81604">
        <ele>167.7002</ele>
        <time>2026-05-13T14:18:20+02:00</time>
        <extensions>
          <gpxtpx:TrackPointExtension xmlns:gpxtpx="http://www.garmin.com/xmlschemas/TrackPointExtension/v1">
            <gpxtpx:hr>150</gpxtpx:hr>
          </gpxtpx:TrackPointExtension>
        </extensions>
      </trkpt>
      <trkpt lat="46.25452" lon="4.81604">
        <ele>168.10059</ele>
        <time>2026-05-13T14:18:21+02:00</time>
        <extensions>
          <gpxtpx:TrackPointExtension xmlns:gpxtpx="http://www.garmin.com/xmlschemas/TrackPointExtension/v1">
            <gpxtpx:hr>150</gpxtpx:hr>
          </gpxtpx:TrackPointExtension>
        </extensions>
      </trkpt>
      <trkpt lat="46.25457" lon="4.81605">
        <ele>168.2002</ele>
        <time>2026-05-13T14:18:22+02:00</time>
        <extensions>
          <gpxtpx:TrackPointExtension xmlns:gpxtpx="http://www.garmin.com/xmlschemas/TrackPointExtension/v1">
            <gpxtpx:hr>150</gpxtpx:hr>
          </gpxtpx:TrackPointExtension>
        </extensions>
      </trkpt>
      <trkpt lat="46.25462" lon="4.81605">
        <ele>168.5</ele>
        <time>2026-05-13T14:18:23+02:00</time>
        <extensions>
          <gpxtpx:TrackPointExtension xmlns:gpxtpx="http://www.garmin.com/xmlschemas/TrackPointExtension/v1">
            <gpxtpx:hr>151</gpxtpx:hr>
          </gpxtpx:TrackPointExtension>
        </extensions>
      </trkpt>
      <trkpt lat="46.25467" lon="4.81605">
        <ele>168.7002</ele>
        <time>2026-05-13T14:18:24+02:00</time>
        <extensions>
          <gpxtpx:TrackPointExtension xmlns:gpxtpx="http://www.garmin.com/xmlschemas/TrackPointExtension/v1">
            <gpxtpx:hr>151</gpxtpx:hr>
          </gpxtpx:TrackPointExtension>
        </extensions>
      </trkpt>
      <trkpt lat="46.25473" lon="4.81606">
        <ele>168.7998</ele>
        <time>2026-05-13T14:18:25+02:00</time>
        <extensions>
          <gpxtpx:TrackPointExtension xmlns:gpxtpx="http://www.garmin.com/xmlschemas/TrackPointExtension/v1">
            <gpxtpx:hr>151</gpxtpx:hr>
          </gpxtpx:TrackPointExtension>
        </extensions>
      </trkpt>
      <trkpt lat="46.25478" lon="4.81606">
        <ele>168.90039</ele>
        <time>2026-05-13T14:18:26+02:00</time>
        <extensions>
          <gpxtpx:TrackPointExtension xmlns:gpxtpx="http://www.garmin.com/xmlschemas/TrackPointExtension/v1">
            <gpxtpx:hr>152</gpxtpx:hr>
          </gpxtpx:TrackPointExtension>
        </extensions>
      </trkpt>
      <trkpt lat="46.25484" lon="4.81607">
        <ele>169</ele>
        <time>2026-05-13T14:18:27+02:00</time>
        <extensions>
          <gpxtpx:TrackPointExtension xmlns:gpxtpx="http://www.garmin.com/xmlschemas/TrackPointExtension/v1">
            <gpxtpx:hr>153</gpxtpx:hr>
          </gpxtpx:TrackPointExtension>
        </extensions>
      </trkpt>
      <trkpt lat="46.2549" lon="4.81608">
        <ele>169</ele>
        <time>2026-05-13T14:18:28+02:00</time>
        <extensions>
          <gpxtpx:TrackPointExtension xmlns:gpxtpx="http://www.garmin.com/xmlschemas/TrackPointExtension/v1">
            <gpxtpx:hr>153</gpxtpx:hr>
          </gpxtpx:TrackPointExtension>
        </extensions>
      </trkpt>
      <trkpt lat="46.25495" lon="4.81611">
        <ele>169</ele>
        <time>2026-05-13T14:18:29+02:00</time>
        <extensions>
          <gpxtpx:TrackPointExtension xmlns:gpxtpx="http://www.garmin.com/xmlschemas/TrackPointExtension/v1">
            <gpxtpx:hr>153</gpxtpx:hr>
          </gpxtpx:TrackPointExtension>
        </extensions>
      </trkpt>
      <trkpt lat="46.25498" lon="4.81616">
        <ele>168.90039</ele>
        <time>2026-05-13T14:18:30+02:00</time>
        <extensions>
          <gpxtpx:TrackPointExtension xmlns:gpxtpx="http://www.garmin.com/xmlschemas/TrackPointExtension/v1">
            <gpxtpx:hr>153</gpxtpx:hr>
          </gpxtpx:TrackPointExtension>
        </extensions>
      </trkpt>
      <trkpt lat="46.25499" lon="4.81621">
        <ele>168.90039</ele>
        <time>2026-05-13T14:18:31+02:00</time>
        <extensions>
          <gpxtpx:TrackPointExtension xmlns:gpxtpx="http://www.garmin.com/xmlschemas/TrackPointExtension/v1">
            <gpxtpx:hr>152</gpxtpx:hr>
          </gpxtpx:TrackPointExtension>
        </extensions>
      </trkpt>
      <trkpt lat="46.25499" lon="4.81627">
        <ele>168.60059</ele>
        <time>2026-05-13T14:18:32+02:00</time>
        <extensions>
          <gpxtpx:TrackPointExtension xmlns:gpxtpx="http://www.garmin.com/xmlschemas/TrackPointExtension/v1">
            <gpxtpx:hr>152</gpxtpx:hr>
          </gpxtpx:TrackPointExtension>
        </extensions>
      </trkpt>
      <trkpt lat="46.25498" lon="4.81632">
        <ele>168.2998</ele>
        <time>2026-05-13T14:18:33+02:00</time>
        <extensions>
          <gpxtpx:TrackPointExtension xmlns:gpxtpx="http://www.garmin.com/xmlschemas/TrackPointExtension/v1">
            <gpxtpx:hr>153</gpxtpx:hr>
          </gpxtpx:TrackPointExtension>
        </extensions>
      </trkpt>
      <trkpt lat="46.25496" lon="4.81638">
        <ele>168.2998</ele>
        <time>2026-05-13T14:18:34+02:00</time>
        <extensions>
          <gpxtpx:TrackPointExtension xmlns:gpxtpx="http://www.garmin.com/xmlschemas/TrackPointExtension/v1">
            <gpxtpx:hr>153</gpxtpx:hr>
          </gpxtpx:TrackPointExtension>
        </extensions>
      </trkpt>
      <trkpt lat="46.25495" lon="4.81644">
        <ele>167.90039</ele>
        <time>2026-05-13T14:18:35+02:00</time>
        <extensions>
          <gpxtpx:TrackPointExtension xmlns:gpxtpx="http://www.garmin.com/xmlschemas/TrackPointExtension/v1">
            <gpxtpx:hr>154</gpxtpx:hr>
          </gpxtpx:TrackPointExtension>
        </extensions>
      </trkpt>
      <trkpt lat="46.25493" lon="4.81651">
        <ele>167.7002</ele>
        <time>2026-05-13T14:18:36+02:00</time>
        <extensions>
          <gpxtpx:TrackPointExtension xmlns:gpxtpx="http://www.garmin.com/xmlschemas/TrackPointExtension/v1">
            <gpxtpx:hr>154</gpxtpx:hr>
          </gpxtpx:TrackPointExtension>
        </extensions>
      </trkpt>
      <trkpt lat="46.2549" lon="4.81657">
        <ele>167.5</ele>
        <time>2026-05-13T14:18:37+02:00</time>
        <extensions>
          <gpxtpx:TrackPointExtension xmlns:gpxtpx="http://www.garmin.com/xmlschemas/TrackPointExtension/v1">
            <gpxtpx:hr>154</gpxtpx:hr>
          </gpxtpx:TrackPointExtension>
        </extensions>
      </trkpt>
      <trkpt lat="46.25488" lon="4.81664">
        <ele>167.40039</ele>
        <time>2026-05-13T14:18:38+02:00</time>
        <extensions>
          <gpxtpx:TrackPointExtension xmlns:gpxtpx="http://www.garmin.com/xmlschemas/TrackPointExtension/v1">
            <gpxtpx:hr>155</gpxtpx:hr>
          </gpxtpx:TrackPointExtension>
        </extensions>
      </trkpt>
      <trkpt lat="46.25487" lon="4.81671">
        <ele>167.2002</ele>
        <time>2026-05-13T14:18:39+02:00</time>
        <extensions>
          <gpxtpx:TrackPointExtension xmlns:gpxtpx="http://www.garmin.com/xmlschemas/TrackPointExtension/v1">
            <gpxtpx:hr>156</gpxtpx:hr>
          </gpxtpx:TrackPointExtension>
        </extensions>
      </trkpt>
      <trkpt lat="46.25485" lon="4.81679">
        <ele>167.10059</ele>
        <time>2026-05-13T14:18:40+02:00</time>
        <extensions>
          <gpxtpx:TrackPointExtension xmlns:gpxtpx="http://www.garmin.com/xmlschemas/TrackPointExtension/v1">
            <gpxtpx:hr>156</gpxtpx:hr>
          </gpxtpx:TrackPointExtension>
        </extensions>
      </trkpt>
      <trkpt lat="46.25483" lon="4.81686">
        <ele>167</ele>
        <time>2026-05-13T14:18:41+02:00</time>
        <extensions>
          <gpxtpx:TrackPointExtension xmlns:gpxtpx="http://www.garmin.com/xmlschemas/TrackPointExtension/v1">
            <gpxtpx:hr>157</gpxtpx:hr>
          </gpxtpx:TrackPointExtension>
        </extensions>
      </trkpt>
      <trkpt lat="46.25481" lon="4.81693">
        <ele>167.10059</ele>
        <time>2026-05-13T14:18:42+02:00</time>
        <extensions>
          <gpxtpx:TrackPointExtension xmlns:gpxtpx="http://www.garmin.com/xmlschemas/TrackPointExtension/v1">
            <gpxtpx:hr>158</gpxtpx:hr>
          </gpxtpx:TrackPointExtension>
        </extensions>
      </trkpt>
      <trkpt lat="46.25479" lon="4.817">
        <ele>167.2998</ele>
        <time>2026-05-13T14:18:43+02:00</time>
        <extensions>
          <gpxtpx:TrackPointExtension xmlns:gpxtpx="http://www.garmin.com/xmlschemas/TrackPointExtension/v1">
            <gpxtpx:hr>159</gpxtpx:hr>
          </gpxtpx:TrackPointExtension>
        </extensions>
      </trkpt>
      <trkpt lat="46.25477" lon="4.81708">
        <ele>167.5</ele>
        <time>2026-05-13T14:18:44+02:00</time>
        <extensions>
          <gpxtpx:TrackPointExtension xmlns:gpxtpx="http://www.garmin.com/xmlschemas/TrackPointExtension/v1">
            <gpxtpx:hr>160</gpxtpx:hr>
          </gpxtpx:TrackPointExtension>
        </extensions>
      </trkpt>
      <trkpt lat="46.25475" lon="4.81715">
        <ele>167.5</ele>
        <time>2026-05-13T14:18:45+02:00</time>
        <extensions>
          <gpxtpx:TrackPointExtension xmlns:gpxtpx="http://www.garmin.com/xmlschemas/TrackPointExtension/v1">
            <gpxtpx:hr>160</gpxtpx:hr>
          </gpxtpx:TrackPointExtension>
        </extensions>
      </trkpt>
      <trkpt lat="46.25474" lon="4.81723">
        <ele>167.60059</ele>
        <time>2026-05-13T14:18:46+02:00</time>
        <extensions>
          <gpxtpx:TrackPointExtension xmlns:gpxtpx="http://www.garmin.com/xmlschemas/TrackPointExtension/v1">
            <gpxtpx:hr>160</gpxtpx:hr>
          </gpxtpx:TrackPointExtension>
        </extensions>
      </trkpt>
      <trkpt lat="46.25472" lon="4.81731">
        <ele>167.7998</ele>
        <time>2026-05-13T14:18:47+02:00</time>
        <extensions>
          <gpxtpx:TrackPointExtension xmlns:gpxtpx="http://www.garmin.com/xmlschemas/TrackPointExtension/v1">
            <gpxtpx:hr>161</gpxtpx:hr>
          </gpxtpx:TrackPointExtension>
        </extensions>
      </trkpt>
      <trkpt lat="46.2547" lon="4.81738">
        <ele>168</ele>
        <time>2026-05-13T14:18:48+02:00</time>
        <extensions>
          <gpxtpx:TrackPointExtension xmlns:gpxtpx="http://www.garmin.com/xmlschemas/TrackPointExtension/v1">
            <gpxtpx:hr>161</gpxtpx:hr>
          </gpxtpx:TrackPointExtension>
        </extensions>
      </trkpt>
      <trkpt lat="46.25468" lon="4.81746">
        <ele>168.2002</ele>
        <time>2026-05-13T14:18:49+02:00</time>
        <extensions>
          <gpxtpx:TrackPointExtension xmlns:gpxtpx="http://www.garmin.com/xmlschemas/TrackPointExtension/v1">
            <gpxtpx:hr>162</gpxtpx:hr>
          </gpxtpx:TrackPointExtension>
        </extensions>
      </trkpt>
      <trkpt lat="46.25466" lon="4.81754">
        <ele>168.40039</ele>
        <time>2026-05-13T14:18:50+02:00</time>
        <extensions>
          <gpxtpx:TrackPointExtension xmlns:gpxtpx="http://www.garmin.com/xmlschemas/TrackPointExtension/v1">
            <gpxtpx:hr>162</gpxtpx:hr>
          </gpxtpx:TrackPointExtension>
        </extensions>
      </trkpt>
      <trkpt lat="46.25464" lon="4.81761">
        <ele>168.60059</ele>
        <time>2026-05-13T14:18:51+02:00</time>
        <extensions>
          <gpxtpx:TrackPointExtension xmlns:gpxtpx="http://www.garmin.com/xmlschemas/TrackPointExtension/v1">
            <gpxtpx:hr>163</gpxtpx:hr>
          </gpxtpx:TrackPointExtension>
        </extensions>
      </trkpt>
      <trkpt lat="46.25462" lon="4.81769">
        <ele>168.7002</ele>
        <time>2026-05-13T14:18:52+02:00</time>
        <extensions>
          <gpxtpx:TrackPointExtension xmlns:gpxtpx="http://www.garmin.com/xmlschemas/TrackPointExtension/v1">
            <gpxtpx:hr>163</gpxtpx:hr>
          </gpxtpx:TrackPointExtension>
        </extensions>
      </trkpt>
      <trkpt lat="46.25461" lon="4.81777">
        <ele>168.7998</ele>
        <time>2026-05-13T14:18:53+02:00</time>
        <extensions>
          <gpxtpx:TrackPointExtension xmlns:gpxtpx="http://www.garmin.com/xmlschemas/TrackPointExtension/v1">
            <gpxtpx:hr>164</gpxtpx:hr>
          </gpxtpx:TrackPointExtension>
        </extensions>
      </trkpt>
      <trkpt lat="46.25459" lon="4.81785">
        <ele>169</ele>
        <time>2026-05-13T14:18:54+02:00</time>
        <extensions>
          <gpxtpx:TrackPointExtension xmlns:gpxtpx="http://www.garmin.com/xmlschemas/TrackPointExtension/v1">
            <gpxtpx:hr>164</gpxtpx:hr>
          </gpxtpx:TrackPointExtension>
        </extensions>
      </trkpt>
      <trkpt lat="46.25459" lon="4.81793">
        <ele>169</ele>
        <time>2026-05-13T14:18:55+02:00</time>
        <extensions>
          <gpxtpx:TrackPointExtension xmlns:gpxtpx="http://www.garmin.com/xmlschemas/TrackPointExtension/v1">
            <gpxtpx:hr>165</gpxtpx:hr>
          </gpxtpx:TrackPointExtension>
        </extensions>
      </trkpt>
      <trkpt lat="46.2546" lon="4.81801">
        <ele>169.10059</ele>
        <time>2026-05-13T14:18:56+02:00</time>
        <extensions>
          <gpxtpx:TrackPointExtension xmlns:gpxtpx="http://www.garmin.com/xmlschemas/TrackPointExtension/v1">
            <gpxtpx:hr>165</gpxtpx:hr>
          </gpxtpx:TrackPointExtension>
        </extensions>
      </trkpt>
      <trkpt lat="46.25463" lon="4.81808">
        <ele>169.2002</ele>
        <time>2026-05-13T14:18:57+02:00</time>
        <extensions>
          <gpxtpx:TrackPointExtension xmlns:gpxtpx="http://www.garmin.com/xmlschemas/TrackPointExtension/v1">
            <gpxtpx:hr>165</gpxtpx:hr>
          </gpxtpx:TrackPointExtension>
        </extensions>
      </trkpt>
      <trkpt lat="46.25467" lon="4.81812">
        <ele>169.2998</ele>
        <time>2026-05-13T14:18:58+02:00</time>
        <extensions>
          <gpxtpx:TrackPointExtension xmlns:gpxtpx="http://www.garmin.com/xmlschemas/TrackPointExtension/v1">
            <gpxtpx:hr>165</gpxtpx:hr>
          </gpxtpx:TrackPointExtension>
        </extensions>
      </trkpt>
      <trkpt lat="46.25472" lon="4.81816">
        <ele>169.2998</ele>
        <time>2026-05-13T14:18:59+02:00</time>
        <extensions>
          <gpxtpx:TrackPointExtension xmlns:gpxtpx="http://www.garmin.com/xmlschemas/TrackPointExtension/v1">
            <gpxtpx:hr>166</gpxtpx:hr>
          </gpxtpx:TrackPointExtension>
        </extensions>
      </trkpt>
      <trkpt lat="46.25478" lon="4.81819">
        <ele>169.2002</ele>
        <time>2026-05-13T14:19:00+02:00</time>
        <extensions>
          <gpxtpx:TrackPointExtension xmlns:gpxtpx="http://www.garmin.com/xmlschemas/TrackPointExtension/v1">
            <gpxtpx:hr>167</gpxtpx:hr>
          </gpxtpx:TrackPointExtension>
        </extensions>
      </trkpt>
      <trkpt lat="46.25483" lon="4.81822">
        <ele>169.2998</ele>
        <time>2026-05-13T14:19:01+02:00</time>
        <extensions>
          <gpxtpx:TrackPointExtension xmlns:gpxtpx="http://www.garmin.com/xmlschemas/TrackPointExtension/v1">
            <gpxtpx:hr>167</gpxtpx:hr>
          </gpxtpx:TrackPointExtension>
        </extensions>
      </trkpt>
      <trkpt lat="46.25488" lon="4.81825">
        <ele>169.2002</ele>
        <time>2026-05-13T14:19:02+02:00</time>
        <extensions>
          <gpxtpx:TrackPointExtension xmlns:gpxtpx="http://www.garmin.com/xmlschemas/TrackPointExtension/v1">
            <gpxtpx:hr>167</gpxtpx:hr>
          </gpxtpx:TrackPointExtension>
        </extensions>
      </trkpt>
      <trkpt lat="46.25494" lon="4.81828">
        <ele>169.2998</ele>
        <time>2026-05-13T14:19:03+02:00</time>
        <extensions>
          <gpxtpx:TrackPointExtension xmlns:gpxtpx="http://www.garmin.com/xmlschemas/TrackPointExtension/v1">
            <gpxtpx:hr>168</gpxtpx:hr>
          </gpxtpx:TrackPointExtension>
        </extensions>
      </trkpt>
      <trkpt lat="46.25499" lon="4.8183">
        <ele>169.2002</ele>
        <time>2026-05-13T14:19:04+02:00</time>
        <extensions>
          <gpxtpx:TrackPointExtension xmlns:gpxtpx="http://www.garmin.com/xmlschemas/TrackPointExtension/v1">
            <gpxtpx:hr>168</gpxtpx:hr>
          </gpxtpx:TrackPointExtension>
        </extensions>
      </trkpt>
      <trkpt lat="46.25505" lon="4.81833">
        <ele>169.2002</ele>
        <time>2026-05-13T14:19:05+02:00</time>
        <extensions>
          <gpxtpx:TrackPointExtension xmlns:gpxtpx="http://www.garmin.com/xmlschemas/TrackPointExtension/v1">
            <gpxtpx:hr>169</gpxtpx:hr>
          </gpxtpx:TrackPointExtension>
        </extensions>
      </trkpt>
      <trkpt lat="46.25511" lon="4.81836">
        <ele>169.2002</ele>
        <time>2026-05-13T14:19:06+02:00</time>
        <extensions>
          <gpxtpx:TrackPointExtension xmlns:gpxtpx="http://www.garmin.com/xmlschemas/TrackPointExtension/v1">
            <gpxtpx:hr>167</gpxtpx:hr>
          </gpxtpx:TrackPointExtension>
        </extensions>
      </trkpt>
      <trkpt lat="46.25516" lon="4.81839">
        <ele>169.2002</ele>
        <time>2026-05-13T14:19:07+02:00</time>
        <extensions>
          <gpxtpx:TrackPointExtension xmlns:gpxtpx="http://www.garmin.com/xmlschemas/TrackPointExtension/v1">
            <gpxtpx:hr>168</gpxtpx:hr>
          </gpxtpx:TrackPointExtension>
        </extensions>
      </trkpt>
      <trkpt lat="46.25522" lon="4.81842">
        <ele>169.10059</ele>
        <time>2026-05-13T14:19:08+02:00</time>
        <extensions>
          <gpxtpx:TrackPointExtension xmlns:gpxtpx="http://www.garmin.com/xmlschemas/TrackPointExtension/v1">
            <gpxtpx:hr>167</gpxtpx:hr>
          </gpxtpx:TrackPointExtension>
        </extensions>
      </trkpt>
      <trkpt lat="46.25528" lon="4.81845">
        <ele>169</ele>
        <time>2026-05-13T14:19:09+02:00</time>
        <extensions>
          <gpxtpx:TrackPointExtension xmlns:gpxtpx="http://www.garmin.com/xmlschemas/TrackPointExtension/v1">
            <gpxtpx:hr>167</gpxtpx:hr>
          </gpxtpx:TrackPointExtension>
        </extensions>
      </trkpt>
      <trkpt lat="46.25533" lon="4.81849">
        <ele>168.7002</ele>
        <time>2026-05-13T14:19:10+02:00</time>
        <extensions>
          <gpxtpx:TrackPointExtension xmlns:gpxtpx="http://www.garmin.com/xmlschemas/TrackPointExtension/v1">
            <gpxtpx:hr>167</gpxtpx:hr>
          </gpxtpx:TrackPointExtension>
        </extensions>
      </trkpt>
      <trkpt lat="46.25539" lon="4.81851">
        <ele>168.40039</ele>
        <time>2026-05-13T14:19:11+02:00</time>
        <extensions>
          <gpxtpx:TrackPointExtension xmlns:gpxtpx="http://www.garmin.com/xmlschemas/TrackPointExtension/v1">
            <gpxtpx:hr>168</gpxtpx:hr>
          </gpxtpx:TrackPointExtension>
        </extensions>
      </trkpt>
      <trkpt lat="46.25545" lon="4.81854">
        <ele>168.40039</ele>
        <time>2026-05-13T14:19:12+02:00</time>
        <extensions>
          <gpxtpx:TrackPointExtension xmlns:gpxtpx="http://www.garmin.com/xmlschemas/TrackPointExtension/v1">
            <gpxtpx:hr>168</gpxtpx:hr>
          </gpxtpx:TrackPointExtension>
        </extensions>
      </trkpt>
      <trkpt lat="46.25551" lon="4.81857">
        <ele>168.10059</ele>
        <time>2026-05-13T14:19:13+02:00</time>
        <extensions>
          <gpxtpx:TrackPointExtension xmlns:gpxtpx="http://www.garmin.com/xmlschemas/TrackPointExtension/v1">
            <gpxtpx:hr>168</gpxtpx:hr>
          </gpxtpx:TrackPointExtension>
        </extensions>
      </trkpt>
      <trkpt lat="46.25556" lon="4.8186">
        <ele>167.7998</ele>
        <time>2026-05-13T14:19:14+02:00</time>
        <extensions>
          <gpxtpx:TrackPointExtension xmlns:gpxtpx="http://www.garmin.com/xmlschemas/TrackPointExtension/v1">
            <gpxtpx:hr>169</gpxtpx:hr>
          </gpxtpx:TrackPointExtension>
        </extensions>
      </trkpt>
      <trkpt lat="46.25562" lon="4.81863">
        <ele>168.10059</ele>
        <time>2026-05-13T14:19:15+02:00</time>
        <extensions>
          <gpxtpx:TrackPointExtension xmlns:gpxtpx="http://www.garmin.com/xmlschemas/TrackPointExtension/v1">
            <gpxtpx:hr>169</gpxtpx:hr>
          </gpxtpx:TrackPointExtension>
        </extensions>
      </trkpt>
      <trkpt lat="46.25568" lon="4.81866">
        <ele>168</ele>
        <time>2026-05-13T14:19:16+02:00</time>
        <extensions>
          <gpxtpx:TrackPointExtension xmlns:gpxtpx="http://www.garmin.com/xmlschemas/TrackPointExtension/v1">
            <gpxtpx:hr>170</gpxtpx:hr>
          </gpxtpx:TrackPointExtension>
        </extensions>
      </trkpt>
      <trkpt lat="46.25573" lon="4.81869">
        <ele>167.90039</ele>
        <time>2026-05-13T14:19:17+02:00</time>
        <extensions>
          <gpxtpx:TrackPointExtension xmlns:gpxtpx="http://www.garmin.com/xmlschemas/TrackPointExtension/v1">
            <gpxtpx:hr>170</gpxtpx:hr>
          </gpxtpx:TrackPointExtension>
        </extensions>
      </trkpt>
      <trkpt lat="46.25578" lon="4.81873">
        <ele>168.40039</ele>
        <time>2026-05-13T14:19:18+02:00</time>
        <extensions>
          <gpxtpx:TrackPointExtension xmlns:gpxtpx="http://www.garmin.com/xmlschemas/TrackPointExtension/v1">
            <gpxtpx:hr>170</gpxtpx:hr>
          </gpxtpx:TrackPointExtension>
        </extensions>
      </trkpt>
      <trkpt lat="46.25583" lon="4.81878">
        <ele>168.40039</ele>
        <time>2026-05-13T14:19:19+02:00</time>
        <extensions>
          <gpxtpx:TrackPointExtension xmlns:gpxtpx="http://www.garmin.com/xmlschemas/TrackPointExtension/v1">
            <gpxtpx:hr>171</gpxtpx:hr>
          </gpxtpx:TrackPointExtension>
        </extensions>
      </trkpt>
      <trkpt lat="46.25587" lon="4.81883">
        <ele>169</ele>
        <time>2026-05-13T14:19:20+02:00</time>
        <extensions>
          <gpxtpx:TrackPointExtension xmlns:gpxtpx="http://www.garmin.com/xmlschemas/TrackPointExtension/v1">
            <gpxtpx:hr>171</gpxtpx:hr>
          </gpxtpx:TrackPointExtension>
        </extensions>
      </trkpt>
      <trkpt lat="46.25592" lon="4.81888">
        <ele>169.7002</ele>
        <time>2026-05-13T14:19:21+02:00</time>
        <extensions>
          <gpxtpx:TrackPointExtension xmlns:gpxtpx="http://www.garmin.com/xmlschemas/TrackPointExtension/v1">
            <gpxtpx:hr>171</gpxtpx:hr>
          </gpxtpx:TrackPointExtension>
        </extensions>
      </trkpt>
      <trkpt lat="46.25596" lon="4.81892">
        <ele>169.7002</ele>
        <time>2026-05-13T14:19:22+02:00</time>
        <extensions>
          <gpxtpx:TrackPointExtension xmlns:gpxtpx="http://www.garmin.com/xmlschemas/TrackPointExtension/v1">
            <gpxtpx:hr>171</gpxtpx:hr>
          </gpxtpx:TrackPointExtension>
        </extensions>
      </trkpt>
      <trkpt lat="46.25601" lon="4.81895">
        <ele>169.7998</ele>
        <time>2026-05-13T14:19:23+02:00</time>
        <extensions>
          <gpxtpx:TrackPointExtension xmlns:gpxtpx="http://www.garmin.com/xmlschemas/TrackPointExtension/v1">
            <gpxtpx:hr>170</gpxtpx:hr>
          </gpxtpx:TrackPointExtension>
        </extensions>
      </trkpt>
      <trkpt lat="46.25607" lon="4.81898">
        <ele>170.2998</ele>
        <time>2026-05-13T14:19:24+02:00</time>
        <extensions>
          <gpxtpx:TrackPointExtension xmlns:gpxtpx="http://www.garmin.com/xmlschemas/TrackPointExtension/v1">
            <gpxtpx:hr>169</gpxtpx:hr>
          </gpxtpx:TrackPointExtension>
        </extensions>
      </trkpt>
      <trkpt lat="46.25612" lon="4.819">
        <ele>170.40039</ele>
        <time>2026-05-13T14:19:25+02:00</time>
        <extensions>
          <gpxtpx:TrackPointExtension xmlns:gpxtpx="http://www.garmin.com/xmlschemas/TrackPointExtension/v1">
            <gpxtpx:hr>169</gpxtpx:hr>
          </gpxtpx:TrackPointExtension>
        </extensions>
      </trkpt>
      <trkpt lat="46.25617" lon="4.81901">
        <ele>170.40039</ele>
        <time>2026-05-13T14:19:26+02:00</time>
        <extensions>
          <gpxtpx:TrackPointExtension xmlns:gpxtpx="http://www.garmin.com/xmlschemas/TrackPointExtension/v1">
            <gpxtpx:hr>169</gpxtpx:hr>
          </gpxtpx:TrackPointExtension>
        </extensions>
      </trkpt>
      <trkpt lat="46.25623" lon="4.81903">
        <ele>170.5</ele>
        <time>2026-05-13T14:19:27+02:00</time>
        <extensions>
          <gpxtpx:TrackPointExtension xmlns:gpxtpx="http://www.garmin.com/xmlschemas/TrackPointExtension/v1">
            <gpxtpx:hr>169</gpxtpx:hr>
          </gpxtpx:TrackPointExtension>
        </extensions>
      </trkpt>
      <trkpt lat="46.25628" lon="4.81904">
        <ele>170.5</ele>
        <time>2026-05-13T14:19:28+02:00</time>
        <extensions>
          <gpxtpx:TrackPointExtension xmlns:gpxtpx="http://www.garmin.com/xmlschemas/TrackPointExtension/v1">
            <gpxtpx:hr>168</gpxtpx:hr>
          </gpxtpx:TrackPointExtension>
        </extensions>
      </trkpt>
      <trkpt lat="46.25634" lon="4.81905">
        <ele>170.90039</ele>
        <time>2026-05-13T14:19:29+02:00</time>
        <extensions>
          <gpxtpx:TrackPointExtension xmlns:gpxtpx="http://www.garmin.com/xmlschemas/TrackPointExtension/v1">
            <gpxtpx:hr>168</gpxtpx:hr>
          </gpxtpx:TrackPointExtension>
        </extensions>
      </trkpt>
      <trkpt lat="46.2564" lon="4.81907">
        <ele>170.90039</ele>
        <time>2026-05-13T14:19:30+02:00</time>
        <extensions>
          <gpxtpx:TrackPointExtension xmlns:gpxtpx="http://www.garmin.com/xmlschemas/TrackPointExtension/v1">
            <gpxtpx:hr>167</gpxtpx:hr>
          </gpxtpx:TrackPointExtension>
        </extensions>
      </trkpt>
      <trkpt lat="46.25645" lon="4.81908">
        <ele>171</ele>
        <time>2026-05-13T14:19:31+02:00</time>
        <extensions>
          <gpxtpx:TrackPointExtension xmlns:gpxtpx="http://www.garmin.com/xmlschemas/TrackPointExtension/v1">
            <gpxtpx:hr>167</gpxtpx:hr>
          </gpxtpx:TrackPointExtension>
        </extensions>
      </trkpt>
      <trkpt lat="46.25651" lon="4.8191">
        <ele>171</ele>
        <time>2026-05-13T14:19:32+02:00</time>
        <extensions>
          <gpxtpx:TrackPointExtension xmlns:gpxtpx="http://www.garmin.com/xmlschemas/TrackPointExtension/v1">
            <gpxtpx:hr>167</gpxtpx:hr>
          </gpxtpx:TrackPointExtension>
        </extensions>
      </trkpt>
      <trkpt lat="46.25657" lon="4.81912">
        <ele>171.10059</ele>
        <time>2026-05-13T14:19:33+02:00</time>
        <extensions>
          <gpxtpx:TrackPointExtension xmlns:gpxtpx="http://www.garmin.com/xmlschemas/TrackPointExtension/v1">
            <gpxtpx:hr>167</gpxtpx:hr>
          </gpxtpx:TrackPointExtension>
        </extensions>
      </trkpt>
      <trkpt lat="46.25662" lon="4.81914">
        <ele>171.5</ele>
        <time>2026-05-13T14:19:34+02:00</time>
        <extensions>
          <gpxtpx:TrackPointExtension xmlns:gpxtpx="http://www.garmin.com/xmlschemas/TrackPointExtension/v1">
            <gpxtpx:hr>166</gpxtpx:hr>
          </gpxtpx:TrackPointExtension>
        </extensions>
      </trkpt>
      <trkpt lat="46.25668" lon="4.81916">
        <ele>171.60059</ele>
        <time>2026-05-13T14:19:35+02:00</time>
        <extensions>
          <gpxtpx:TrackPointExtension xmlns:gpxtpx="http://www.garmin.com/xmlschemas/TrackPointExtension/v1">
            <gpxtpx:hr>166</gpxtpx:hr>
          </gpxtpx:TrackPointExtension>
        </extensions>
      </trkpt>
      <trkpt lat="46.25673" lon="4.81918">
        <ele>171.60059</ele>
        <time>2026-05-13T14:19:36+02:00</time>
        <extensions>
          <gpxtpx:TrackPointExtension xmlns:gpxtpx="http://www.garmin.com/xmlschemas/TrackPointExtension/v1">
            <gpxtpx:hr>166</gpxtpx:hr>
          </gpxtpx:TrackPointExtension>
        </extensions>
      </trkpt>
      <trkpt lat="46.25679" lon="4.8192">
        <ele>171.7002</ele>
        <time>2026-05-13T14:19:37+02:00</time>
        <extensions>
          <gpxtpx:TrackPointExtension xmlns:gpxtpx="http://www.garmin.com/xmlschemas/TrackPointExtension/v1">
            <gpxtpx:hr>166</gpxtpx:hr>
          </gpxtpx:TrackPointExtension>
        </extensions>
      </trkpt>
      <trkpt lat="46.25684" lon="4.81923">
        <ele>171.90039</ele>
        <time>2026-05-13T14:19:38+02:00</time>
        <extensions>
          <gpxtpx:TrackPointExtension xmlns:gpxtpx="http://www.garmin.com/xmlschemas/TrackPointExtension/v1">
            <gpxtpx:hr>167</gpxtpx:hr>
          </gpxtpx:TrackPointExtension>
        </extensions>
      </trkpt>
      <trkpt lat="46.25689" lon="4.81925">
        <ele>172</ele>
        <time>2026-05-13T14:19:39+02:00</time>
        <extensions>
          <gpxtpx:TrackPointExtension xmlns:gpxtpx="http://www.garmin.com/xmlschemas/TrackPointExtension/v1">
            <gpxtpx:hr>166</gpxtpx:hr>
          </gpxtpx:TrackPointExtension>
        </extensions>
      </trkpt>
      <trkpt lat="46.25694" lon="4.81926">
        <ele>172.10059</ele>
        <time>2026-05-13T14:19:40+02:00</time>
        <extensions>
          <gpxtpx:TrackPointExtension xmlns:gpxtpx="http://www.garmin.com/xmlschemas/TrackPointExtension/v1">
            <gpxtpx:hr>166</gpxtpx:hr>
          </gpxtpx:TrackPointExtension>
        </extensions>
      </trkpt>
      <trkpt lat="46.25699" lon="4.81926">
        <ele>172.10059</ele>
        <time>2026-05-13T14:19:41+02:00</time>
        <extensions>
          <gpxtpx:TrackPointExtension xmlns:gpxtpx="http://www.garmin.com/xmlschemas/TrackPointExtension/v1">
            <gpxtpx:hr>165</gpxtpx:hr>
          </gpxtpx:TrackPointExtension>
        </extensions>
      </trkpt>
      <trkpt lat="46.25704" lon="4.81923">
        <ele>172.10059</ele>
        <time>2026-05-13T14:19:42+02:00</time>
        <extensions>
          <gpxtpx:TrackPointExtension xmlns:gpxtpx="http://www.garmin.com/xmlschemas/TrackPointExtension/v1">
            <gpxtpx:hr>165</gpxtpx:hr>
          </gpxtpx:TrackPointExtension>
        </extensions>
      </trkpt>
      <trkpt lat="46.25707" lon="4.81918">
        <ele>172</ele>
        <time>2026-05-13T14:19:43+02:00</time>
        <extensions>
          <gpxtpx:TrackPointExtension xmlns:gpxtpx="http://www.garmin.com/xmlschemas/TrackPointExtension/v1">
            <gpxtpx:hr>165</gpxtpx:hr>
          </gpxtpx:TrackPointExtension>
        </extensions>
      </trkpt>
      <trkpt lat="46.2571" lon="4.81911">
        <ele>171.7998</ele>
        <time>2026-05-13T14:19:44+02:00</time>
        <extensions>
          <gpxtpx:TrackPointExtension xmlns:gpxtpx="http://www.garmin.com/xmlschemas/TrackPointExtension/v1">
            <gpxtpx:hr>165</gpxtpx:hr>
          </gpxtpx:TrackPointExtension>
        </extensions>
      </trkpt>
      <trkpt lat="46.25713" lon="4.81904">
        <ele>171.5</ele>
        <time>2026-05-13T14:19:45+02:00</time>
        <extensions>
          <gpxtpx:TrackPointExtension xmlns:gpxtpx="http://www.garmin.com/xmlschemas/TrackPointExtension/v1">
            <gpxtpx:hr>164</gpxtpx:hr>
          </gpxtpx:TrackPointExtension>
        </extensions>
      </trkpt>
      <trkpt lat="46.25715" lon="4.81897">
        <ele>171.5</ele>
        <time>2026-05-13T14:19:46+02:00</time>
        <extensions>
          <gpxtpx:TrackPointExtension xmlns:gpxtpx="http://www.garmin.com/xmlschemas/TrackPointExtension/v1">
            <gpxtpx:hr>164</gpxtpx:hr>
          </gpxtpx:TrackPointExtension>
        </extensions>
      </trkpt>
      <trkpt lat="46.25717" lon="4.81891">
        <ele>171.2002</ele>
        <time>2026-05-13T14:19:47+02:00</time>
        <extensions>
          <gpxtpx:TrackPointExtension xmlns:gpxtpx="http://www.garmin.com/xmlschemas/TrackPointExtension/v1">
            <gpxtpx:hr>164</gpxtpx:hr>
          </gpxtpx:TrackPointExtension>
        </extensions>
      </trkpt>
      <trkpt lat="46.2572" lon="4.81884">
        <ele>170.90039</ele>
        <time>2026-05-13T14:19:48+02:00</time>
        <extensions>
          <gpxtpx:TrackPointExtension xmlns:gpxtpx="http://www.garmin.com/xmlschemas/TrackPointExtension/v1">
            <gpxtpx:hr>164</gpxtpx:hr>
          </gpxtpx:TrackPointExtension>
        </extensions>
      </trkpt>
      <trkpt lat="46.25722" lon="4.81877">
        <ele>170.60059</ele>
        <time>2026-05-13T14:19:49+02:00</time>
        <extensions>
          <gpxtpx:TrackPointExtension xmlns:gpxtpx="http://www.garmin.com/xmlschemas/TrackPointExtension/v1">
            <gpxtpx:hr>164</gpxtpx:hr>
          </gpxtpx:TrackPointExtension>
        </extensions>
      </trkpt>
      <trkpt lat="46.25724" lon="4.8187">
        <ele>170.2998</ele>
        <time>2026-05-13T14:19:50+02:00</time>
        <extensions>
          <gpxtpx:TrackPointExtension xmlns:gpxtpx="http://www.garmin.com/xmlschemas/TrackPointExtension/v1">
            <gpxtpx:hr>164</gpxtpx:hr>
          </gpxtpx:TrackPointExtension>
        </extensions>
      </trkpt>
      <trkpt lat="46.25726" lon="4.81863">
        <ele>170.2998</ele>
        <time>2026-05-13T14:19:51+02:00</time>
        <extensions>
          <gpxtpx:TrackPointExtension xmlns:gpxtpx="http://www.garmin.com/xmlschemas/TrackPointExtension/v1">
            <gpxtpx:hr>164</gpxtpx:hr>
          </gpxtpx:TrackPointExtension>
        </extensions>
      </trkpt>
      <trkpt lat="46.25728" lon="4.81856">
        <ele>170.10059</ele>
        <time>2026-05-13T14:19:52+02:00</time>
        <extensions>
          <gpxtpx:TrackPointExtension xmlns:gpxtpx="http://www.garmin.com/xmlschemas/TrackPointExtension/v1">
            <gpxtpx:hr>165</gpxtpx:hr>
          </gpxtpx:TrackPointExtension>
        </extensions>
      </trkpt>
      <trkpt lat="46.2573" lon="4.81848">
        <ele>169.7998</ele>
        <time>2026-05-13T14:19:53+02:00</time>
        <extensions>
          <gpxtpx:TrackPointExtension xmlns:gpxtpx="http://www.garmin.com/xmlschemas/TrackPointExtension/v1">
            <gpxtpx:hr>164</gpxtpx:hr>
          </gpxtpx:TrackPointExtension>
        </extensions>
      </trkpt>
      <trkpt lat="46.25732" lon="4.81841">
        <ele>169.5</ele>
        <time>2026-05-13T14:19:54+02:00</time>
        <extensions>
          <gpxtpx:TrackPointExtension xmlns:gpxtpx="http://www.garmin.com/xmlschemas/TrackPointExtension/v1">
            <gpxtpx:hr>165</gpxtpx:hr>
          </gpxtpx:TrackPointExtension>
        </extensions>
      </trkpt>
      <trkpt lat="46.25734" lon="4.81834">
        <ele>169.40039</ele>
        <time>2026-05-13T14:19:55+02:00</time>
        <extensions>
          <gpxtpx:TrackPointExtension xmlns:gpxtpx="http://www.garmin.com/xmlschemas/TrackPointExtension/v1">
            <gpxtpx:hr>164</gpxtpx:hr>
          </gpxtpx:TrackPointExtension>
        </extensions>
      </trkpt>
      <trkpt lat="46.25736" lon="4.81827">
        <ele>169.2002</ele>
        <time>2026-05-13T14:19:56+02:00</time>
        <extensions>
          <gpxtpx:TrackPointExtension xmlns:gpxtpx="http://www.garmin.com/xmlschemas/TrackPointExtension/v1">
            <gpxtpx:hr>165</gpxtpx:hr>
          </gpxtpx:TrackPointExtension>
        </extensions>
      </trkpt>
      <trkpt lat="46.25738" lon="4.81819">
        <ele>169</ele>
        <time>2026-05-13T14:19:57+02:00</time>
        <extensions>
          <gpxtpx:TrackPointExtension xmlns:gpxtpx="http://www.garmin.com/xmlschemas/TrackPointExtension/v1">
            <gpxtpx:hr>165</gpxtpx:hr>
          </gpxtpx:TrackPointExtension>
        </extensions>
      </trkpt>
      <trkpt lat="46.25739" lon="4.81812">
        <ele>169</ele>
        <time>2026-05-13T14:19:58+02:00</time>
        <extensions>
          <gpxtpx:TrackPointExtension xmlns:gpxtpx="http://www.garmin.com/xmlschemas/TrackPointExtension/v1">
            <gpxtpx:hr>166</gpxtpx:hr>
          </gpxtpx:TrackPointExtension>
        </extensions>
      </trkpt>
      <trkpt lat="46.25741" lon="4.81804">
        <ele>168.90039</ele>
        <time>2026-05-13T14:19:59+02:00</time>
        <extensions>
          <gpxtpx:TrackPointExtension xmlns:gpxtpx="http://www.garmin.com/xmlschemas/TrackPointExtension/v1">
            <gpxtpx:hr>166</gpxtpx:hr>
          </gpxtpx:TrackPointExtension>
        </extensions>
      </trkpt>
      <trkpt lat="46.25743" lon="4.81797">
        <ele>168.7998</ele>
        <time>2026-05-13T14:20:00+02:00</time>
        <extensions>
          <gpxtpx:TrackPointExtension xmlns:gpxtpx="http://www.garmin.com/xmlschemas/TrackPointExtension/v1">
            <gpxtpx:hr>166</gpxtpx:hr>
          </gpxtpx:TrackPointExtension>
        </extensions>
      </trkpt>
      <trkpt lat="46.25745" lon="4.8179">
        <ele>168.7998</ele>
        <time>2026-05-13T14:20:01+02:00</time>
        <extensions>
          <gpxtpx:TrackPointExtension xmlns:gpxtpx="http://www.garmin.com/xmlschemas/TrackPointExtension/v1">
            <gpxtpx:hr>167</gpxtpx:hr>
          </gpxtpx:TrackPointExtension>
        </extensions>
      </trkpt>
      <trkpt lat="46.25746" lon="4.81782">
        <ele>168.7002</ele>
        <time>2026-05-13T14:20:02+02:00</time>
        <extensions>
          <gpxtpx:TrackPointExtension xmlns:gpxtpx="http://www.garmin.com/xmlschemas/TrackPointExtension/v1">
            <gpxtpx:hr>167</gpxtpx:hr>
          </gpxtpx:TrackPointExtension>
        </extensions>
      </trkpt>
      <trkpt lat="46.25748" lon="4.81775">
        <ele>168.7002</ele>
        <time>2026-05-13T14:20:03+02:00</time>
        <extensions>
          <gpxtpx:TrackPointExtension xmlns:gpxtpx="http://www.garmin.com/xmlschemas/TrackPointExtension/v1">
            <gpxtpx:hr>167</gpxtpx:hr>
          </gpxtpx:TrackPointExtension>
        </extensions>
      </trkpt>
      <trkpt lat="46.2575" lon="4.81767">
        <ele>168.7002</ele>
        <time>2026-05-13T14:20:04+02:00</time>
        <extensions>
          <gpxtpx:TrackPointExtension xmlns:gpxtpx="http://www.garmin.com/xmlschemas/TrackPointExtension/v1">
            <gpxtpx:hr>168</gpxtpx:hr>
          </gpxtpx:TrackPointExtension>
        </extensions>
      </trkpt>
      <trkpt lat="46.25751" lon="4.8176">
        <ele>168.7998</ele>
        <time>2026-05-13T14:20:05+02:00</time>
        <extensions>
          <gpxtpx:TrackPointExtension xmlns:gpxtpx="http://www.garmin.com/xmlschemas/TrackPointExtension/v1">
            <gpxtpx:hr>168</gpxtpx:hr>
          </gpxtpx:TrackPointExtension>
        </extensions>
      </trkpt>
      <trkpt lat="46.25753" lon="4.81752">
        <ele>168.7998</ele>
        <time>2026-05-13T14:20:06+02:00</time>
        <extensions>
          <gpxtpx:TrackPointExtension xmlns:gpxtpx="http://www.garmin.com/xmlschemas/TrackPointExtension/v1">
            <gpxtpx:hr>168</gpxtpx:hr>
          </gpxtpx:TrackPointExtension>
        </extensions>
      </trkpt>
      <trkpt lat="46.25754" lon="4.81745">
        <ele>168.7998</ele>
        <time>2026-05-13T14:20:07+02:00</time>
        <extensions>
          <gpxtpx:TrackPointExtension xmlns:gpxtpx="http://www.garmin.com/xmlschemas/TrackPointExtension/v1">
            <gpxtpx:hr>169</gpxtpx:hr>
          </gpxtpx:TrackPointExtension>
        </extensions>
      </trkpt>
      <trkpt lat="46.25755" lon="4.81737">
        <ele>168.7998</ele>
        <time>2026-05-13T14:20:08+02:00</time>
        <extensions>
          <gpxtpx:TrackPointExtension xmlns:gpxtpx="http://www.garmin.com/xmlschemas/TrackPointExtension/v1">
            <gpxtpx:hr>169</gpxtpx:hr>
          </gpxtpx:TrackPointExtension>
        </extensions>
      </trkpt>
      <trkpt lat="46.25756" lon="4.8173">
        <ele>168.90039</ele>
        <time>2026-05-13T14:20:09+02:00</time>
        <extensions>
          <gpxtpx:TrackPointExtension xmlns:gpxtpx="http://www.garmin.com/xmlschemas/TrackPointExtension/v1">
            <gpxtpx:hr>169</gpxtpx:hr>
          </gpxtpx:TrackPointExtension>
        </extensions>
      </trkpt>
      <trkpt lat="46.25758" lon="4.81723">
        <ele>169.10059</ele>
        <time>2026-05-13T14:20:10+02:00</time>
        <extensions>
          <gpxtpx:TrackPointExtension xmlns:gpxtpx="http://www.garmin.com/xmlschemas/TrackPointExtension/v1">
            <gpxtpx:hr>169</gpxtpx:hr>
          </gpxtpx:TrackPointExtension>
        </extensions>
      </trkpt>
      <trkpt lat="46.2576" lon="4.81716">
        <ele>169.2998</ele>
        <time>2026-05-13T14:20:11+02:00</time>
        <extensions>
          <gpxtpx:TrackPointExtension xmlns:gpxtpx="http://www.garmin.com/xmlschemas/TrackPointExtension/v1">
            <gpxtpx:hr>170</gpxtpx:hr>
          </gpxtpx:TrackPointExtension>
        </extensions>
      </trkpt>
      <trkpt lat="46.25763" lon="4.8171">
        <ele>169.40039</ele>
        <time>2026-05-13T14:20:12+02:00</time>
        <extensions>
          <gpxtpx:TrackPointExtension xmlns:gpxtpx="http://www.garmin.com/xmlschemas/TrackPointExtension/v1">
            <gpxtpx:hr>170</gpxtpx:hr>
          </gpxtpx:TrackPointExtension>
        </extensions>
      </trkpt>
      <trkpt lat="46.25768" lon="4.81707">
        <ele>169.5</ele>
        <time>2026-05-13T14:20:13+02:00</time>
        <extensions>
          <gpxtpx:TrackPointExtension xmlns:gpxtpx="http://www.garmin.com/xmlschemas/TrackPointExtension/v1">
            <gpxtpx:hr>171</gpxtpx:hr>
          </gpxtpx:TrackPointExtension>
        </extensions>
      </trkpt>
      <trkpt lat="46.25773" lon="4.81706">
        <ele>169.7002</ele>
        <time>2026-05-13T14:20:14+02:00</time>
        <extensions>
          <gpxtpx:TrackPointExtension xmlns:gpxtpx="http://www.garmin.com/xmlschemas/TrackPointExtension/v1">
            <gpxtpx:hr>170</gpxtpx:hr>
          </gpxtpx:TrackPointExtension>
        </extensions>
      </trkpt>
      <trkpt lat="46.25778" lon="4.81708">
        <ele>169.7002</ele>
        <time>2026-05-13T14:20:15+02:00</time>
        <extensions>
          <gpxtpx:TrackPointExtension xmlns:gpxtpx="http://www.garmin.com/xmlschemas/TrackPointExtension/v1">
            <gpxtpx:hr>170</gpxtpx:hr>
          </gpxtpx:TrackPointExtension>
        </extensions>
      </trkpt>
      <trkpt lat="46.25782" lon="4.8171">
        <ele>169.7998</ele>
        <time>2026-05-13T14:20:16+02:00</time>
        <extensions>
          <gpxtpx:TrackPointExtension xmlns:gpxtpx="http://www.garmin.com/xmlschemas/TrackPointExtension/v1">
            <gpxtpx:hr>170</gpxtpx:hr>
          </gpxtpx:TrackPointExtension>
        </extensions>
      </trkpt>
      <trkpt lat="46.25786" lon="4.81713">
        <ele>169.7998</ele>
        <time>2026-05-13T14:20:17+02:00</time>
        <extensions>
          <gpxtpx:TrackPointExtension xmlns:gpxtpx="http://www.garmin.com/xmlschemas/TrackPointExtension/v1">
            <gpxtpx:hr>170</gpxtpx:hr>
          </gpxtpx:TrackPointExtension>
        </extensions>
      </trkpt>
      <trkpt lat="46.25791" lon="4.81715">
        <ele>169.90039</ele>
        <time>2026-05-13T14:20:18+02:00</time>
        <extensions>
          <gpxtpx:TrackPointExtension xmlns:gpxtpx="http://www.garmin.com/xmlschemas/TrackPointExtension/v1">
            <gpxtpx:hr>169</gpxtpx:hr>
          </gpxtpx:TrackPointExtension>
        </extensions>
      </trkpt>
      <trkpt lat="46.25795" lon="4.81718">
        <ele>170</ele>
        <time>2026-05-13T14:20:19+02:00</time>
        <extensions>
          <gpxtpx:TrackPointExtension xmlns:gpxtpx="http://www.garmin.com/xmlschemas/TrackPointExtension/v1">
            <gpxtpx:hr>168</gpxtpx:hr>
          </gpxtpx:TrackPointExtension>
        </extensions>
      </trkpt>
      <trkpt lat="46.258" lon="4.8172">
        <ele>170.2002</ele>
        <time>2026-05-13T14:20:20+02:00</time>
        <extensions>
          <gpxtpx:TrackPointExtension xmlns:gpxtpx="http://www.garmin.com/xmlschemas/TrackPointExtension/v1">
            <gpxtpx:hr>168</gpxtpx:hr>
          </gpxtpx:TrackPointExtension>
        </extensions>
      </trkpt>
      <trkpt lat="46.25805" lon="4.81723">
        <ele>170.2998</ele>
        <time>2026-05-13T14:20:21+02:00</time>
        <extensions>
          <gpxtpx:TrackPointExtension xmlns:gpxtpx="http://www.garmin.com/xmlschemas/TrackPointExtension/v1">
            <gpxtpx:hr>168</gpxtpx:hr>
          </gpxtpx:TrackPointExtension>
        </extensions>
      </trkpt>
      <trkpt lat="46.2581" lon="4.81725">
        <ele>170.2998</ele>
        <time>2026-05-13T14:20:22+02:00</time>
        <extensions>
          <gpxtpx:TrackPointExtension xmlns:gpxtpx="http://www.garmin.com/xmlschemas/TrackPointExtension/v1">
            <gpxtpx:hr>168</gpxtpx:hr>
          </gpxtpx:TrackPointExtension>
        </extensions>
      </trkpt>
      <trkpt lat="46.25815" lon="4.81727">
        <ele>170.5</ele>
        <time>2026-05-13T14:20:23+02:00</time>
        <extensions>
          <gpxtpx:TrackPointExtension xmlns:gpxtpx="http://www.garmin.com/xmlschemas/TrackPointExtension/v1">
            <gpxtpx:hr>168</gpxtpx:hr>
          </gpxtpx:TrackPointExtension>
        </extensions>
      </trkpt>
      <trkpt lat="46.2582" lon="4.81729">
        <ele>170.7002</ele>
        <time>2026-05-13T14:20:24+02:00</time>
        <extensions>
          <gpxtpx:TrackPointExtension xmlns:gpxtpx="http://www.garmin.com/xmlschemas/TrackPointExtension/v1">
            <gpxtpx:hr>168</gpxtpx:hr>
          </gpxtpx:TrackPointExtension>
        </extensions>
      </trkpt>
      <trkpt lat="46.25826" lon="4.81732">
        <ele>170.7998</ele>
        <time>2026-05-13T14:20:25+02:00</time>
        <extensions>
          <gpxtpx:TrackPointExtension xmlns:gpxtpx="http://www.garmin.com/xmlschemas/TrackPointExtension/v1">
            <gpxtpx:hr>168</gpxtpx:hr>
          </gpxtpx:TrackPointExtension>
        </extensions>
      </trkpt>
      <trkpt lat="46.25831" lon="4.81734">
        <ele>171</ele>
        <time>2026-05-13T14:20:26+02:00</time>
        <extensions>
          <gpxtpx:TrackPointExtension xmlns:gpxtpx="http://www.garmin.com/xmlschemas/TrackPointExtension/v1">
            <gpxtpx:hr>169</gpxtpx:hr>
          </gpxtpx:TrackPointExtension>
        </extensions>
      </trkpt>
      <trkpt lat="46.25836" lon="4.81736">
        <ele>171.10059</ele>
        <time>2026-05-13T14:20:27+02:00</time>
        <extensions>
          <gpxtpx:TrackPointExtension xmlns:gpxtpx="http://www.garmin.com/xmlschemas/TrackPointExtension/v1">
            <gpxtpx:hr>168</gpxtpx:hr>
          </gpxtpx:TrackPointExtension>
        </extensions>
      </trkpt>
      <trkpt lat="46.25842" lon="4.81739">
        <ele>171.2002</ele>
        <time>2026-05-13T14:20:28+02:00</time>
        <extensions>
          <gpxtpx:TrackPointExtension xmlns:gpxtpx="http://www.garmin.com/xmlschemas/TrackPointExtension/v1">
            <gpxtpx:hr>169</gpxtpx:hr>
          </gpxtpx:TrackPointExtension>
        </extensions>
      </trkpt>
      <trkpt lat="46.25847" lon="4.81741">
        <ele>171.2998</ele>
        <time>2026-05-13T14:20:29+02:00</time>
        <extensions>
          <gpxtpx:TrackPointExtension xmlns:gpxtpx="http://www.garmin.com/xmlschemas/TrackPointExtension/v1">
            <gpxtpx:hr>169</gpxtpx:hr>
          </gpxtpx:TrackPointExtension>
        </extensions>
      </trkpt>
      <trkpt lat="46.25852" lon="4.81743">
        <ele>171.40039</ele>
        <time>2026-05-13T14:20:30+02:00</time>
        <extensions>
          <gpxtpx:TrackPointExtension xmlns:gpxtpx="http://www.garmin.com/xmlschemas/TrackPointExtension/v1">
            <gpxtpx:hr>168</gpxtpx:hr>
          </gpxtpx:TrackPointExtension>
        </extensions>
      </trkpt>
      <trkpt lat="46.25857" lon="4.81745">
        <ele>171.40039</ele>
        <time>2026-05-13T14:20:31+02:00</time>
        <extensions>
          <gpxtpx:TrackPointExtension xmlns:gpxtpx="http://www.garmin.com/xmlschemas/TrackPointExtension/v1">
            <gpxtpx:hr>168</gpxtpx:hr>
          </gpxtpx:TrackPointExtension>
        </extensions>
      </trkpt>
      <trkpt lat="46.25861" lon="4.81747">
        <ele>171.5</ele>
        <time>2026-05-13T14:20:32+02:00</time>
        <extensions>
          <gpxtpx:TrackPointExtension xmlns:gpxtpx="http://www.garmin.com/xmlschemas/TrackPointExtension/v1">
            <gpxtpx:hr>168</gpxtpx:hr>
          </gpxtpx:TrackPointExtension>
        </extensions>
      </trkpt>
      <trkpt lat="46.25866" lon="4.81749">
        <ele>171.5</ele>
        <time>2026-05-13T14:20:33+02:00</time>
        <extensions>
          <gpxtpx:TrackPointExtension xmlns:gpxtpx="http://www.garmin.com/xmlschemas/TrackPointExtension/v1">
            <gpxtpx:hr>168</gpxtpx:hr>
          </gpxtpx:TrackPointExtension>
        </extensions>
      </trkpt>
      <trkpt lat="46.25871" lon="4.81751">
        <ele>171.5</ele>
        <time>2026-05-13T14:20:34+02:00</time>
        <extensions>
          <gpxtpx:TrackPointExtension xmlns:gpxtpx="http://www.garmin.com/xmlschemas/TrackPointExtension/v1">
            <gpxtpx:hr>167</gpxtpx:hr>
          </gpxtpx:TrackPointExtension>
        </extensions>
      </trkpt>
      <trkpt lat="46.25876" lon="4.81753">
        <ele>171.5</ele>
        <time>2026-05-13T14:20:35+02:00</time>
        <extensions>
          <gpxtpx:TrackPointExtension xmlns:gpxtpx="http://www.garmin.com/xmlschemas/TrackPointExtension/v1">
            <gpxtpx:hr>168</gpxtpx:hr>
          </gpxtpx:TrackPointExtension>
        </extensions>
      </trkpt>
      <trkpt lat="46.25881" lon="4.81754">
        <ele>171.5</ele>
        <time>2026-05-13T14:20:36+02:00</time>
        <extensions>
          <gpxtpx:TrackPointExtension xmlns:gpxtpx="http://www.garmin.com/xmlschemas/TrackPointExtension/v1">
            <gpxtpx:hr>167</gpxtpx:hr>
          </gpxtpx:TrackPointExtension>
        </extensions>
      </trkpt>
      <trkpt lat="46.25885" lon="4.81753">
        <ele>171.5</ele>
        <time>2026-05-13T14:20:37+02:00</time>
        <extensions>
          <gpxtpx:TrackPointExtension xmlns:gpxtpx="http://www.garmin.com/xmlschemas/TrackPointExtension/v1">
            <gpxtpx:hr>166</gpxtpx:hr>
          </gpxtpx:TrackPointExtension>
        </extensions>
      </trkpt>
      <trkpt lat="46.2589" lon="4.81749">
        <ele>171.5</ele>
        <time>2026-05-13T14:20:38+02:00</time>
        <extensions>
          <gpxtpx:TrackPointExtension xmlns:gpxtpx="http://www.garmin.com/xmlschemas/TrackPointExtension/v1">
            <gpxtpx:hr>166</gpxtpx:hr>
          </gpxtpx:TrackPointExtension>
        </extensions>
      </trkpt>
      <trkpt lat="46.25893" lon="4.81744">
        <ele>171.5</ele>
        <time>2026-05-13T14:20:39+02:00</time>
        <extensions>
          <gpxtpx:TrackPointExtension xmlns:gpxtpx="http://www.garmin.com/xmlschemas/TrackPointExtension/v1">
            <gpxtpx:hr>166</gpxtpx:hr>
          </gpxtpx:TrackPointExtension>
        </extensions>
      </trkpt>
      <trkpt lat="46.25895" lon="4.81737">
        <ele>171.60059</ele>
        <time>2026-05-13T14:20:40+02:00</time>
        <extensions>
          <gpxtpx:TrackPointExtension xmlns:gpxtpx="http://www.garmin.com/xmlschemas/TrackPointExtension/v1">
            <gpxtpx:hr>166</gpxtpx:hr>
          </gpxtpx:TrackPointExtension>
        </extensions>
      </trkpt>
      <trkpt lat="46.25897" lon="4.8173">
        <ele>171.7002</ele>
        <time>2026-05-13T14:20:41+02:00</time>
        <extensions>
          <gpxtpx:TrackPointExtension xmlns:gpxtpx="http://www.garmin.com/xmlschemas/TrackPointExtension/v1">
            <gpxtpx:hr>166</gpxtpx:hr>
          </gpxtpx:TrackPointExtension>
        </extensions>
      </trkpt>
      <trkpt lat="46.25898" lon="4.81723">
        <ele>171.90039</ele>
        <time>2026-05-13T14:20:42+02:00</time>
        <extensions>
          <gpxtpx:TrackPointExtension xmlns:gpxtpx="http://www.garmin.com/xmlschemas/TrackPointExtension/v1">
            <gpxtpx:hr>165</gpxtpx:hr>
          </gpxtpx:TrackPointExtension>
        </extensions>
      </trkpt>
      <trkpt lat="46.259" lon="4.81716">
        <ele>172.2002</ele>
        <time>2026-05-13T14:20:43+02:00</time>
        <extensions>
          <gpxtpx:TrackPointExtension xmlns:gpxtpx="http://www.garmin.com/xmlschemas/TrackPointExtension/v1">
            <gpxtpx:hr>165</gpxtpx:hr>
          </gpxtpx:TrackPointExtension>
        </extensions>
      </trkpt>
      <trkpt lat="46.25902" lon="4.81708">
        <ele>172.2002</ele>
        <time>2026-05-13T14:20:44+02:00</time>
        <extensions>
          <gpxtpx:TrackPointExtension xmlns:gpxtpx="http://www.garmin.com/xmlschemas/TrackPointExtension/v1">
            <gpxtpx:hr>165</gpxtpx:hr>
          </gpxtpx:TrackPointExtension>
        </extensions>
      </trkpt>
      <trkpt lat="46.25903" lon="4.81701">
        <ele>172.40039</ele>
        <time>2026-05-13T14:20:45+02:00</time>
        <extensions>
          <gpxtpx:TrackPointExtension xmlns:gpxtpx="http://www.garmin.com/xmlschemas/TrackPointExtension/v1">
            <gpxtpx:hr>165</gpxtpx:hr>
          </gpxtpx:TrackPointExtension>
        </extensions>
      </trkpt>
      <trkpt lat="46.25905" lon="4.81693">
        <ele>172.60059</ele>
        <time>2026-05-13T14:20:46+02:00</time>
        <extensions>
          <gpxtpx:TrackPointExtension xmlns:gpxtpx="http://www.garmin.com/xmlschemas/TrackPointExtension/v1">
            <gpxtpx:hr>165</gpxtpx:hr>
          </gpxtpx:TrackPointExtension>
        </extensions>
      </trkpt>
      <trkpt lat="46.25907" lon="4.81686">
        <ele>172.90039</ele>
        <time>2026-05-13T14:20:47+02:00</time>
        <extensions>
          <gpxtpx:TrackPointExtension xmlns:gpxtpx="http://www.garmin.com/xmlschemas/TrackPointExtension/v1">
            <gpxtpx:hr>165</gpxtpx:hr>
          </gpxtpx:TrackPointExtension>
        </extensions>
      </trkpt>
      <trkpt lat="46.25908" lon="4.81678">
        <ele>173.10059</ele>
        <time>2026-05-13T14:20:48+02:00</time>
        <extensions>
          <gpxtpx:TrackPointExtension xmlns:gpxtpx="http://www.garmin.com/xmlschemas/TrackPointExtension/v1">
            <gpxtpx:hr>165</gpxtpx:hr>
          </gpxtpx:TrackPointExtension>
        </extensions>
      </trkpt>
      <trkpt lat="46.2591" lon="4.81671">
        <ele>173.2998</ele>
        <time>2026-05-13T14:20:49+02:00</time>
        <extensions>
          <gpxtpx:TrackPointExtension xmlns:gpxtpx="http://www.garmin.com/xmlschemas/TrackPointExtension/v1">
            <gpxtpx:hr>166</gpxtpx:hr>
          </gpxtpx:TrackPointExtension>
        </extensions>
      </trkpt>
      <trkpt lat="46.25911" lon="4.81663">
        <ele>173.40039</ele>
        <time>2026-05-13T14:20:50+02:00</time>
        <extensions>
          <gpxtpx:TrackPointExtension xmlns:gpxtpx="http://www.garmin.com/xmlschemas/TrackPointExtension/v1">
            <gpxtpx:hr>167</gpxtpx:hr>
          </gpxtpx:TrackPointExtension>
        </extensions>
      </trkpt>
      <trkpt lat="46.25913" lon="4.81655">
        <ele>173.60059</ele>
        <time>2026-05-13T14:20:51+02:00</time>
        <extensions>
          <gpxtpx:TrackPointExtension xmlns:gpxtpx="http://www.garmin.com/xmlschemas/TrackPointExtension/v1">
            <gpxtpx:hr>167</gpxtpx:hr>
          </gpxtpx:TrackPointExtension>
        </extensions>
      </trkpt>
      <trkpt lat="46.25914" lon="4.81648">
        <ele>173.60059</ele>
        <time>2026-05-13T14:20:52+02:00</time>
        <extensions>
          <gpxtpx:TrackPointExtension xmlns:gpxtpx="http://www.garmin.com/xmlschemas/TrackPointExtension/v1">
            <gpxtpx:hr>167</gpxtpx:hr>
          </gpxtpx:TrackPointExtension>
        </extensions>
      </trkpt>
      <trkpt lat="46.25916" lon="4.8164">
        <ele>173.7002</ele>
        <time>2026-05-13T14:20:53+02:00</time>
        <extensions>
          <gpxtpx:TrackPointExtension xmlns:gpxtpx="http://www.garmin.com/xmlschemas/TrackPointExtension/v1">
            <gpxtpx:hr>166</gpxtpx:hr>
          </gpxtpx:TrackPointExtension>
        </extensions>
      </trkpt>
      <trkpt lat="46.25917" lon="4.81632">
        <ele>173.7002</ele>
        <time>2026-05-13T14:20:54+02:00</time>
        <extensions>
          <gpxtpx:TrackPointExtension xmlns:gpxtpx="http://www.garmin.com/xmlschemas/TrackPointExtension/v1">
            <gpxtpx:hr>167</gpxtpx:hr>
          </gpxtpx:TrackPointExtension>
        </extensions>
      </trkpt>
      <trkpt lat="46.25919" lon="4.81625">
        <ele>173.7002</ele>
        <time>2026-05-13T14:20:55+02:00</time>
        <extensions>
          <gpxtpx:TrackPointExtension xmlns:gpxtpx="http://www.garmin.com/xmlschemas/TrackPointExtension/v1">
            <gpxtpx:hr>167</gpxtpx:hr>
          </gpxtpx:TrackPointExtension>
        </extensions>
      </trkpt>
      <trkpt lat="46.2592" lon="4.81617">
        <ele>173.7002</ele>
        <time>2026-05-13T14:20:56+02:00</time>
        <extensions>
          <gpxtpx:TrackPointExtension xmlns:gpxtpx="http://www.garmin.com/xmlschemas/TrackPointExtension/v1">
            <gpxtpx:hr>168</gpxtpx:hr>
          </gpxtpx:TrackPointExtension>
        </extensions>
      </trkpt>
      <trkpt lat="46.25922" lon="4.8161">
        <ele>173.7998</ele>
        <time>2026-05-13T14:20:57+02:00</time>
        <extensions>
          <gpxtpx:TrackPointExtension xmlns:gpxtpx="http://www.garmin.com/xmlschemas/TrackPointExtension/v1">
            <gpxtpx:hr>168</gpxtpx:hr>
          </gpxtpx:TrackPointExtension>
        </extensions>
      </trkpt>
      <trkpt lat="46.25923" lon="4.81602">
        <ele>173.7002</ele>
        <time>2026-05-13T14:20:58+02:00</time>
        <extensions>
          <gpxtpx:TrackPointExtension xmlns:gpxtpx="http://www.garmin.com/xmlschemas/TrackPointExtension/v1">
            <gpxtpx:hr>168</gpxtpx:hr>
          </gpxtpx:TrackPointExtension>
        </extensions>
      </trkpt>
      <trkpt lat="46.25924" lon="4.81595">
        <ele>173.7002</ele>
        <time>2026-05-13T14:20:59+02:00</time>
        <extensions>
          <gpxtpx:TrackPointExtension xmlns:gpxtpx="http://www.garmin.com/xmlschemas/TrackPointExtension/v1">
            <gpxtpx:hr>169</gpxtpx:hr>
          </gpxtpx:TrackPointExtension>
        </extensions>
      </trkpt>
      <trkpt lat="46.25926" lon="4.81587">
        <ele>173.7998</ele>
        <time>2026-05-13T14:21:00+02:00</time>
        <extensions>
          <gpxtpx:TrackPointExtension xmlns:gpxtpx="http://www.garmin.com/xmlschemas/TrackPointExtension/v1">
            <gpxtpx:hr>168</gpxtpx:hr>
          </gpxtpx:TrackPointExtension>
        </extensions>
      </trkpt>
      <trkpt lat="46.25927" lon="4.8158">
        <ele>173.7998</ele>
        <time>2026-05-13T14:21:01+02:00</time>
        <extensions>
          <gpxtpx:TrackPointExtension xmlns:gpxtpx="http://www.garmin.com/xmlschemas/TrackPointExtension/v1">
            <gpxtpx:hr>168</gpxtpx:hr>
          </gpxtpx:TrackPointExtension>
        </extensions>
      </trkpt>
      <trkpt lat="46.25929" lon="4.81572">
        <ele>173.7998</ele>
        <time>2026-05-13T14:21:02+02:00</time>
        <extensions>
          <gpxtpx:TrackPointExtension xmlns:gpxtpx="http://www.garmin.com/xmlschemas/TrackPointExtension/v1">
            <gpxtpx:hr>169</gpxtpx:hr>
          </gpxtpx:TrackPointExtension>
        </extensions>
      </trkpt>
      <trkpt lat="46.25931" lon="4.81565">
        <ele>173.60059</ele>
        <time>2026-05-13T14:21:03+02:00</time>
        <extensions>
          <gpxtpx:TrackPointExtension xmlns:gpxtpx="http://www.garmin.com/xmlschemas/TrackPointExtension/v1">
            <gpxtpx:hr>169</gpxtpx:hr>
          </gpxtpx:TrackPointExtension>
        </extensions>
      </trkpt>
      <trkpt lat="46.25932" lon="4.81558">
        <ele>173.60059</ele>
        <time>2026-05-13T14:21:04+02:00</time>
        <extensions>
          <gpxtpx:TrackPointExtension xmlns:gpxtpx="http://www.garmin.com/xmlschemas/TrackPointExtension/v1">
            <gpxtpx:hr>170</gpxtpx:hr>
          </gpxtpx:TrackPointExtension>
        </extensions>
      </trkpt>
      <trkpt lat="46.25933" lon="4.81551">
        <ele>173.60059</ele>
        <time>2026-05-13T14:21:05+02:00</time>
        <extensions>
          <gpxtpx:TrackPointExtension xmlns:gpxtpx="http://www.garmin.com/xmlschemas/TrackPointExtension/v1">
            <gpxtpx:hr>170</gpxtpx:hr>
          </gpxtpx:TrackPointExtension>
        </extensions>
      </trkpt>
      <trkpt lat="46.25935" lon="4.81544">
        <ele>173.5</ele>
        <time>2026-05-13T14:21:06+02:00</time>
        <extensions>
          <gpxtpx:TrackPointExtension xmlns:gpxtpx="http://www.garmin.com/xmlschemas/TrackPointExtension/v1">
            <gpxtpx:hr>168</gpxtpx:hr>
          </gpxtpx:TrackPointExtension>
        </extensions>
      </trkpt>
      <trkpt lat="46.25936" lon="4.81537">
        <ele>173.5</ele>
        <time>2026-05-13T14:21:07+02:00</time>
        <extensions>
          <gpxtpx:TrackPointExtension xmlns:gpxtpx="http://www.garmin.com/xmlschemas/TrackPointExtension/v1">
            <gpxtpx:hr>169</gpxtpx:hr>
          </gpxtpx:TrackPointExtension>
        </extensions>
      </trkpt>
      <trkpt lat="46.25937" lon="4.8153">
        <ele>173.40039</ele>
        <time>2026-05-13T14:21:08+02:00</time>
        <extensions>
          <gpxtpx:TrackPointExtension xmlns:gpxtpx="http://www.garmin.com/xmlschemas/TrackPointExtension/v1">
            <gpxtpx:hr>169</gpxtpx:hr>
          </gpxtpx:TrackPointExtension>
        </extensions>
      </trkpt>
      <trkpt lat="46.25939" lon="4.81522">
        <ele>173.40039</ele>
        <time>2026-05-13T14:21:09+02:00</time>
        <extensions>
          <gpxtpx:TrackPointExtension xmlns:gpxtpx="http://www.garmin.com/xmlschemas/TrackPointExtension/v1">
            <gpxtpx:hr>169</gpxtpx:hr>
          </gpxtpx:TrackPointExtension>
        </extensions>
      </trkpt>
      <trkpt lat="46.25941" lon="4.81515">
        <ele>173.2002</ele>
        <time>2026-05-13T14:21:10+02:00</time>
        <extensions>
          <gpxtpx:TrackPointExtension xmlns:gpxtpx="http://www.garmin.com/xmlschemas/TrackPointExtension/v1">
            <gpxtpx:hr>169</gpxtpx:hr>
          </gpxtpx:TrackPointExtension>
        </extensions>
      </trkpt>
      <trkpt lat="46.25942" lon="4.81508">
        <ele>173.10059</ele>
        <time>2026-05-13T14:21:11+02:00</time>
        <extensions>
          <gpxtpx:TrackPointExtension xmlns:gpxtpx="http://www.garmin.com/xmlschemas/TrackPointExtension/v1">
            <gpxtpx:hr>170</gpxtpx:hr>
          </gpxtpx:TrackPointExtension>
        </extensions>
      </trkpt>
      <trkpt lat="46.25947" lon="4.81486">
        <ele>172.7998</ele>
        <time>2026-05-13T14:21:12+02:00</time>
        <extensions>
          <gpxtpx:TrackPointExtension xmlns:gpxtpx="http://www.garmin.com/xmlschemas/TrackPointExtension/v1">
            <gpxtpx:hr>171</gpxtpx:hr>
          </gpxtpx:TrackPointExtension>
        </extensions>
      </trkpt>
      <trkpt lat="46.25948" lon="4.81479">
        <ele>172.7998</ele>
        <time>2026-05-13T14:21:13+02:00</time>
        <extensions>
          <gpxtpx:TrackPointExtension xmlns:gpxtpx="http://www.garmin.com/xmlschemas/TrackPointExtension/v1">
            <gpxtpx:hr>171</gpxtpx:hr>
          </gpxtpx:TrackPointExtension>
        </extensions>
      </trkpt>
      <trkpt lat="46.2595" lon="4.81472">
        <ele>172.7002</ele>
        <time>2026-05-13T14:21:14+02:00</time>
        <extensions>
          <gpxtpx:TrackPointExtension xmlns:gpxtpx="http://www.garmin.com/xmlschemas/TrackPointExtension/v1">
            <gpxtpx:hr>170</gpxtpx:hr>
          </gpxtpx:TrackPointExtension>
        </extensions>
      </trkpt>
      <trkpt lat="46.25951" lon="4.81465">
        <ele>172.7002</ele>
        <time>2026-05-13T14:21:15+02:00</time>
        <extensions>
          <gpxtpx:TrackPointExtension xmlns:gpxtpx="http://www.garmin.com/xmlschemas/TrackPointExtension/v1">
            <gpxtpx:hr>170</gpxtpx:hr>
          </gpxtpx:TrackPointExtension>
        </extensions>
      </trkpt>
      <trkpt lat="46.25952" lon="4.81457">
        <ele>172.60059</ele>
        <time>2026-05-13T14:21:16+02:00</time>
        <extensions>
          <gpxtpx:TrackPointExtension xmlns:gpxtpx="http://www.garmin.com/xmlschemas/TrackPointExtension/v1">
            <gpxtpx:hr>171</gpxtpx:hr>
          </gpxtpx:TrackPointExtension>
        </extensions>
      </trkpt>
      <trkpt lat="46.25954" lon="4.8145">
        <ele>172.2998</ele>
        <time>2026-05-13T14:21:17+02:00</time>
        <extensions>
          <gpxtpx:TrackPointExtension xmlns:gpxtpx="http://www.garmin.com/xmlschemas/TrackPointExtension/v1">
            <gpxtpx:hr>171</gpxtpx:hr>
          </gpxtpx:TrackPointExtension>
        </extensions>
      </trkpt>
      <trkpt lat="46.25955" lon="4.81443">
        <ele>172.2998</ele>
        <time>2026-05-13T14:21:18+02:00</time>
        <extensions>
          <gpxtpx:TrackPointExtension xmlns:gpxtpx="http://www.garmin.com/xmlschemas/TrackPointExtension/v1">
            <gpxtpx:hr>171</gpxtpx:hr>
          </gpxtpx:TrackPointExtension>
        </extensions>
      </trkpt>
      <trkpt lat="46.25957" lon="4.81436">
        <ele>172.2002</ele>
        <time>2026-05-13T14:21:19+02:00</time>
        <extensions>
          <gpxtpx:TrackPointExtension xmlns:gpxtpx="http://www.garmin.com/xmlschemas/TrackPointExtension/v1">
            <gpxtpx:hr>171</gpxtpx:hr>
          </gpxtpx:TrackPointExtension>
        </extensions>
      </trkpt>
      <trkpt lat="46.25958" lon="4.81428">
        <ele>172</ele>
        <time>2026-05-13T14:21:20+02:00</time>
        <extensions>
          <gpxtpx:TrackPointExtension xmlns:gpxtpx="http://www.garmin.com/xmlschemas/TrackPointExtension/v1">
            <gpxtpx:hr>171</gpxtpx:hr>
          </gpxtpx:TrackPointExtension>
        </extensions>
      </trkpt>
      <trkpt lat="46.2596" lon="4.81421">
        <ele>171.2998</ele>
        <time>2026-05-13T14:21:21+02:00</time>
        <extensions>
          <gpxtpx:TrackPointExtension xmlns:gpxtpx="http://www.garmin.com/xmlschemas/TrackPointExtension/v1">
            <gpxtpx:hr>171</gpxtpx:hr>
          </gpxtpx:TrackPointExtension>
        </extensions>
      </trkpt>
      <trkpt lat="46.25961" lon="4.81414">
        <ele>170.90039</ele>
        <time>2026-05-13T14:21:22+02:00</time>
        <extensions>
          <gpxtpx:TrackPointExtension xmlns:gpxtpx="http://www.garmin.com/xmlschemas/TrackPointExtension/v1">
            <gpxtpx:hr>171</gpxtpx:hr>
          </gpxtpx:TrackPointExtension>
        </extensions>
      </trkpt>
      <trkpt lat="46.25962" lon="4.81406">
        <ele>170.5</ele>
        <time>2026-05-13T14:21:23+02:00</time>
        <extensions>
          <gpxtpx:TrackPointExtension xmlns:gpxtpx="http://www.garmin.com/xmlschemas/TrackPointExtension/v1">
            <gpxtpx:hr>171</gpxtpx:hr>
          </gpxtpx:TrackPointExtension>
        </extensions>
      </trkpt>
      <trkpt lat="46.25963" lon="4.814">
        <ele>170.5</ele>
        <time>2026-05-13T14:21:24+02:00</time>
        <extensions>
          <gpxtpx:TrackPointExtension xmlns:gpxtpx="http://www.garmin.com/xmlschemas/TrackPointExtension/v1">
            <gpxtpx:hr>171</gpxtpx:hr>
          </gpxtpx:TrackPointExtension>
        </extensions>
      </trkpt>
      <trkpt lat="46.25964" lon="4.81393">
        <ele>170.2002</ele>
        <time>2026-05-13T14:21:25+02:00</time>
        <extensions>
          <gpxtpx:TrackPointExtension xmlns:gpxtpx="http://www.garmin.com/xmlschemas/TrackPointExtension/v1">
            <gpxtpx:hr>171</gpxtpx:hr>
          </gpxtpx:TrackPointExtension>
        </extensions>
      </trkpt>
      <trkpt lat="46.25966" lon="4.81387">
        <ele>169.60059</ele>
        <time>2026-05-13T14:21:26+02:00</time>
        <extensions>
          <gpxtpx:TrackPointExtension xmlns:gpxtpx="http://www.garmin.com/xmlschemas/TrackPointExtension/v1">
            <gpxtpx:hr>170</gpxtpx:hr>
          </gpxtpx:TrackPointExtension>
        </extensions>
      </trkpt>
      <trkpt lat="46.25966" lon="4.81381">
        <ele>169.2998</ele>
        <time>2026-05-13T14:21:27+02:00</time>
        <extensions>
          <gpxtpx:TrackPointExtension xmlns:gpxtpx="http://www.garmin.com/xmlschemas/TrackPointExtension/v1">
            <gpxtpx:hr>170</gpxtpx:hr>
          </gpxtpx:TrackPointExtension>
        </extensions>
      </trkpt>
      <trkpt lat="46.25968" lon="4.81375">
        <ele>169.2998</ele>
        <time>2026-05-13T14:21:28+02:00</time>
        <extensions>
          <gpxtpx:TrackPointExtension xmlns:gpxtpx="http://www.garmin.com/xmlschemas/TrackPointExtension/v1">
            <gpxtpx:hr>170</gpxtpx:hr>
          </gpxtpx:TrackPointExtension>
        </extensions>
      </trkpt>
      <trkpt lat="46.25971" lon="4.81371">
        <ele>169</ele>
        <time>2026-05-13T14:21:29+02:00</time>
        <extensions>
          <gpxtpx:TrackPointExtension xmlns:gpxtpx="http://www.garmin.com/xmlschemas/TrackPointExtension/v1">
            <gpxtpx:hr>170</gpxtpx:hr>
          </gpxtpx:TrackPointExtension>
        </extensions>
      </trkpt>
      <trkpt lat="46.25974" lon="4.8137">
        <ele>169</ele>
        <time>2026-05-13T14:21:30+02:00</time>
        <extensions>
          <gpxtpx:TrackPointExtension xmlns:gpxtpx="http://www.garmin.com/xmlschemas/TrackPointExtension/v1">
            <gpxtpx:hr>170</gpxtpx:hr>
          </gpxtpx:TrackPointExtension>
        </extensions>
      </trkpt>
      <trkpt lat="46.25979" lon="4.81371">
        <ele>168.7998</ele>
        <time>2026-05-13T14:21:31+02:00</time>
        <extensions>
          <gpxtpx:TrackPointExtension xmlns:gpxtpx="http://www.garmin.com/xmlschemas/TrackPointExtension/v1">
            <gpxtpx:hr>169</gpxtpx:hr>
          </gpxtpx:TrackPointExtension>
        </extensions>
      </trkpt>
      <trkpt lat="46.25982" lon="4.81375">
        <ele>169</ele>
        <time>2026-05-13T14:21:32+02:00</time>
        <extensions>
          <gpxtpx:TrackPointExtension xmlns:gpxtpx="http://www.garmin.com/xmlschemas/TrackPointExtension/v1">
            <gpxtpx:hr>168</gpxtpx:hr>
          </gpxtpx:TrackPointExtension>
        </extensions>
      </trkpt>
      <trkpt lat="46.25986" lon="4.81379">
        <ele>168.7998</ele>
        <time>2026-05-13T14:21:33+02:00</time>
        <extensions>
          <gpxtpx:TrackPointExtension xmlns:gpxtpx="http://www.garmin.com/xmlschemas/TrackPointExtension/v1">
            <gpxtpx:hr>168</gpxtpx:hr>
          </gpxtpx:TrackPointExtension>
        </extensions>
      </trkpt>
      <trkpt lat="46.2599" lon="4.81383">
        <ele>168.90039</ele>
        <time>2026-05-13T14:21:34+02:00</time>
        <extensions>
          <gpxtpx:TrackPointExtension xmlns:gpxtpx="http://www.garmin.com/xmlschemas/TrackPointExtension/v1">
            <gpxtpx:hr>168</gpxtpx:hr>
          </gpxtpx:TrackPointExtension>
        </extensions>
      </trkpt>
      <trkpt lat="46.25994" lon="4.81388">
        <ele>168.90039</ele>
        <time>2026-05-13T14:21:35+02:00</time>
        <extensions>
          <gpxtpx:TrackPointExtension xmlns:gpxtpx="http://www.garmin.com/xmlschemas/TrackPointExtension/v1">
            <gpxtpx:hr>167</gpxtpx:hr>
          </gpxtpx:TrackPointExtension>
        </extensions>
      </trkpt>
      <trkpt lat="46.25998" lon="4.81393">
        <ele>168.90039</ele>
        <time>2026-05-13T14:21:36+02:00</time>
        <extensions>
          <gpxtpx:TrackPointExtension xmlns:gpxtpx="http://www.garmin.com/xmlschemas/TrackPointExtension/v1">
            <gpxtpx:hr>167</gpxtpx:hr>
          </gpxtpx:TrackPointExtension>
        </extensions>
      </trkpt>
      <trkpt lat="46.26002" lon="4.81398">
        <ele>168.7998</ele>
        <time>2026-05-13T14:21:37+02:00</time>
        <extensions>
          <gpxtpx:TrackPointExtension xmlns:gpxtpx="http://www.garmin.com/xmlschemas/TrackPointExtension/v1">
            <gpxtpx:hr>167</gpxtpx:hr>
          </gpxtpx:TrackPointExtension>
        </extensions>
      </trkpt>
      <trkpt lat="46.26006" lon="4.81403">
        <ele>168.90039</ele>
        <time>2026-05-13T14:21:38+02:00</time>
        <extensions>
          <gpxtpx:TrackPointExtension xmlns:gpxtpx="http://www.garmin.com/xmlschemas/TrackPointExtension/v1">
            <gpxtpx:hr>168</gpxtpx:hr>
          </gpxtpx:TrackPointExtension>
        </extensions>
      </trkpt>
      <trkpt lat="46.2601" lon="4.81409">
        <ele>168.90039</ele>
        <time>2026-05-13T14:21:39+02:00</time>
        <extensions>
          <gpxtpx:TrackPointExtension xmlns:gpxtpx="http://www.garmin.com/xmlschemas/TrackPointExtension/v1">
            <gpxtpx:hr>168</gpxtpx:hr>
          </gpxtpx:TrackPointExtension>
        </extensions>
      </trkpt>
      <trkpt lat="46.26014" lon="4.81415">
        <ele>168.7998</ele>
        <time>2026-05-13T14:21:40+02:00</time>
        <extensions>
          <gpxtpx:TrackPointExtension xmlns:gpxtpx="http://www.garmin.com/xmlschemas/TrackPointExtension/v1">
            <gpxtpx:hr>168</gpxtpx:hr>
          </gpxtpx:TrackPointExtension>
        </extensions>
      </trkpt>
      <trkpt lat="46.26018" lon="4.81421">
        <ele>168.7002</ele>
        <time>2026-05-13T14:21:41+02:00</time>
        <extensions>
          <gpxtpx:TrackPointExtension xmlns:gpxtpx="http://www.garmin.com/xmlschemas/TrackPointExtension/v1">
            <gpxtpx:hr>168</gpxtpx:hr>
          </gpxtpx:TrackPointExtension>
        </extensions>
      </trkpt>
      <trkpt lat="46.26022" lon="4.81428">
        <ele>168.7998</ele>
        <time>2026-05-13T14:21:42+02:00</time>
        <extensions>
          <gpxtpx:TrackPointExtension xmlns:gpxtpx="http://www.garmin.com/xmlschemas/TrackPointExtension/v1">
            <gpxtpx:hr>169</gpxtpx:hr>
          </gpxtpx:TrackPointExtension>
        </extensions>
      </trkpt>
      <trkpt lat="46.26026" lon="4.81434">
        <ele>168.7002</ele>
        <time>2026-05-13T14:21:43+02:00</time>
        <extensions>
          <gpxtpx:TrackPointExtension xmlns:gpxtpx="http://www.garmin.com/xmlschemas/TrackPointExtension/v1">
            <gpxtpx:hr>169</gpxtpx:hr>
          </gpxtpx:TrackPointExtension>
        </extensions>
      </trkpt>
      <trkpt lat="46.2603" lon="4.8144">
        <ele>168.60059</ele>
        <time>2026-05-13T14:21:44+02:00</time>
        <extensions>
          <gpxtpx:TrackPointExtension xmlns:gpxtpx="http://www.garmin.com/xmlschemas/TrackPointExtension/v1">
            <gpxtpx:hr>170</gpxtpx:hr>
          </gpxtpx:TrackPointExtension>
        </extensions>
      </trkpt>
      <trkpt lat="46.26034" lon="4.81446">
        <ele>168.7002</ele>
        <time>2026-05-13T14:21:45+02:00</time>
        <extensions>
          <gpxtpx:TrackPointExtension xmlns:gpxtpx="http://www.garmin.com/xmlschemas/TrackPointExtension/v1">
            <gpxtpx:hr>170</gpxtpx:hr>
          </gpxtpx:TrackPointExtension>
        </extensions>
      </trkpt>
      <trkpt lat="46.26038" lon="4.81453">
        <ele>168.7002</ele>
        <time>2026-05-13T14:21:46+02:00</time>
        <extensions>
          <gpxtpx:TrackPointExtension xmlns:gpxtpx="http://www.garmin.com/xmlschemas/TrackPointExtension/v1">
            <gpxtpx:hr>170</gpxtpx:hr>
          </gpxtpx:TrackPointExtension>
        </extensions>
      </trkpt>
      <trkpt lat="46.26042" lon="4.81459">
        <ele>168.60059</ele>
        <time>2026-05-13T14:21:47+02:00</time>
        <extensions>
          <gpxtpx:TrackPointExtension xmlns:gpxtpx="http://www.garmin.com/xmlschemas/TrackPointExtension/v1">
            <gpxtpx:hr>170</gpxtpx:hr>
          </gpxtpx:TrackPointExtension>
        </extensions>
      </trkpt>
      <trkpt lat="46.26046" lon="4.81466">
        <ele>168.60059</ele>
        <time>2026-05-13T14:21:48+02:00</time>
        <extensions>
          <gpxtpx:TrackPointExtension xmlns:gpxtpx="http://www.garmin.com/xmlschemas/TrackPointExtension/v1">
            <gpxtpx:hr>170</gpxtpx:hr>
          </gpxtpx:TrackPointExtension>
        </extensions>
      </trkpt>
      <trkpt lat="46.2605" lon="4.81472">
        <ele>168.5</ele>
        <time>2026-05-13T14:21:49+02:00</time>
        <extensions>
          <gpxtpx:TrackPointExtension xmlns:gpxtpx="http://www.garmin.com/xmlschemas/TrackPointExtension/v1">
            <gpxtpx:hr>171</gpxtpx:hr>
          </gpxtpx:TrackPointExtension>
        </extensions>
      </trkpt>
      <trkpt lat="46.26053" lon="4.81479">
        <ele>168.2998</ele>
        <time>2026-05-13T14:21:50+02:00</time>
        <extensions>
          <gpxtpx:TrackPointExtension xmlns:gpxtpx="http://www.garmin.com/xmlschemas/TrackPointExtension/v1">
            <gpxtpx:hr>170</gpxtpx:hr>
          </gpxtpx:TrackPointExtension>
        </extensions>
      </trkpt>
      <trkpt lat="46.26057" lon="4.81485">
        <ele>168.40039</ele>
        <time>2026-05-13T14:21:51+02:00</time>
        <extensions>
          <gpxtpx:TrackPointExtension xmlns:gpxtpx="http://www.garmin.com/xmlschemas/TrackPointExtension/v1">
            <gpxtpx:hr>170</gpxtpx:hr>
          </gpxtpx:TrackPointExtension>
        </extensions>
      </trkpt>
      <trkpt lat="46.2606" lon="4.81492">
        <ele>168.5</ele>
        <time>2026-05-13T14:21:52+02:00</time>
        <extensions>
          <gpxtpx:TrackPointExtension xmlns:gpxtpx="http://www.garmin.com/xmlschemas/TrackPointExtension/v1">
            <gpxtpx:hr>170</gpxtpx:hr>
          </gpxtpx:TrackPointExtension>
        </extensions>
      </trkpt>
      <trkpt lat="46.26064" lon="4.81498">
        <ele>168.60059</ele>
        <time>2026-05-13T14:21:53+02:00</time>
        <extensions>
          <gpxtpx:TrackPointExtension xmlns:gpxtpx="http://www.garmin.com/xmlschemas/TrackPointExtension/v1">
            <gpxtpx:hr>170</gpxtpx:hr>
          </gpxtpx:TrackPointExtension>
        </extensions>
      </trkpt>
      <trkpt lat="46.26068" lon="4.81504">
        <ele>168.7002</ele>
        <time>2026-05-13T14:21:54+02:00</time>
        <extensions>
          <gpxtpx:TrackPointExtension xmlns:gpxtpx="http://www.garmin.com/xmlschemas/TrackPointExtension/v1">
            <gpxtpx:hr>170</gpxtpx:hr>
          </gpxtpx:TrackPointExtension>
        </extensions>
      </trkpt>
      <trkpt lat="46.26072" lon="4.8151">
        <ele>168.60059</ele>
        <time>2026-05-13T14:21:55+02:00</time>
        <extensions>
          <gpxtpx:TrackPointExtension xmlns:gpxtpx="http://www.garmin.com/xmlschemas/TrackPointExtension/v1">
            <gpxtpx:hr>170</gpxtpx:hr>
          </gpxtpx:TrackPointExtension>
        </extensions>
      </trkpt>
      <trkpt lat="46.26076" lon="4.81516">
        <ele>168.7002</ele>
        <time>2026-05-13T14:21:56+02:00</time>
        <extensions>
          <gpxtpx:TrackPointExtension xmlns:gpxtpx="http://www.garmin.com/xmlschemas/TrackPointExtension/v1">
            <gpxtpx:hr>170</gpxtpx:hr>
          </gpxtpx:TrackPointExtension>
        </extensions>
      </trkpt>
      <trkpt lat="46.2608" lon="4.81523">
        <ele>168.7998</ele>
        <time>2026-05-13T14:21:57+02:00</time>
        <extensions>
          <gpxtpx:TrackPointExtension xmlns:gpxtpx="http://www.garmin.com/xmlschemas/TrackPointExtension/v1">
            <gpxtpx:hr>170</gpxtpx:hr>
          </gpxtpx:TrackPointExtension>
        </extensions>
      </trkpt>
      <trkpt lat="46.26084" lon="4.81529">
        <ele>168.90039</ele>
        <time>2026-05-13T14:21:58+02:00</time>
        <extensions>
          <gpxtpx:TrackPointExtension xmlns:gpxtpx="http://www.garmin.com/xmlschemas/TrackPointExtension/v1">
            <gpxtpx:hr>170</gpxtpx:hr>
          </gpxtpx:TrackPointExtension>
        </extensions>
      </trkpt>
      <trkpt lat="46.26088" lon="4.81536">
        <ele>169.10059</ele>
        <time>2026-05-13T14:21:59+02:00</time>
        <extensions>
          <gpxtpx:TrackPointExtension xmlns:gpxtpx="http://www.garmin.com/xmlschemas/TrackPointExtension/v1">
            <gpxtpx:hr>170</gpxtpx:hr>
          </gpxtpx:TrackPointExtension>
        </extensions>
      </trkpt>
      <trkpt lat="46.26092" lon="4.81542">
        <ele>168.90039</ele>
        <time>2026-05-13T14:22:00+02:00</time>
        <extensions>
          <gpxtpx:TrackPointExtension xmlns:gpxtpx="http://www.garmin.com/xmlschemas/TrackPointExtension/v1">
            <gpxtpx:hr>170</gpxtpx:hr>
          </gpxtpx:TrackPointExtension>
        </extensions>
      </trkpt>
      <trkpt lat="46.26096" lon="4.81548">
        <ele>168.90039</ele>
        <time>2026-05-13T14:22:01+02:00</time>
        <extensions>
          <gpxtpx:TrackPointExtension xmlns:gpxtpx="http://www.garmin.com/xmlschemas/TrackPointExtension/v1">
            <gpxtpx:hr>170</gpxtpx:hr>
          </gpxtpx:TrackPointExtension>
        </extensions>
      </trkpt>
      <trkpt lat="46.261" lon="4.81555">
        <ele>169.10059</ele>
        <time>2026-05-13T14:22:02+02:00</time>
        <extensions>
          <gpxtpx:TrackPointExtension xmlns:gpxtpx="http://www.garmin.com/xmlschemas/TrackPointExtension/v1">
            <gpxtpx:hr>170</gpxtpx:hr>
          </gpxtpx:TrackPointExtension>
        </extensions>
      </trkpt>
      <trkpt lat="46.26104" lon="4.81561">
        <ele>168.90039</ele>
        <time>2026-05-13T14:22:03+02:00</time>
        <extensions>
          <gpxtpx:TrackPointExtension xmlns:gpxtpx="http://www.garmin.com/xmlschemas/TrackPointExtension/v1">
            <gpxtpx:hr>170</gpxtpx:hr>
          </gpxtpx:TrackPointExtension>
        </extensions>
      </trkpt>
      <trkpt lat="46.26108" lon="4.81568">
        <ele>169</ele>
        <time>2026-05-13T14:22:04+02:00</time>
        <extensions>
          <gpxtpx:TrackPointExtension xmlns:gpxtpx="http://www.garmin.com/xmlschemas/TrackPointExtension/v1">
            <gpxtpx:hr>170</gpxtpx:hr>
          </gpxtpx:TrackPointExtension>
        </extensions>
      </trkpt>
      <trkpt lat="46.26112" lon="4.81574">
        <ele>169.10059</ele>
        <time>2026-05-13T14:22:05+02:00</time>
        <extensions>
          <gpxtpx:TrackPointExtension xmlns:gpxtpx="http://www.garmin.com/xmlschemas/TrackPointExtension/v1">
            <gpxtpx:hr>170</gpxtpx:hr>
          </gpxtpx:TrackPointExtension>
        </extensions>
      </trkpt>
      <trkpt lat="46.26116" lon="4.8158">
        <ele>169.2998</ele>
        <time>2026-05-13T14:22:06+02:00</time>
        <extensions>
          <gpxtpx:TrackPointExtension xmlns:gpxtpx="http://www.garmin.com/xmlschemas/TrackPointExtension/v1">
            <gpxtpx:hr>170</gpxtpx:hr>
          </gpxtpx:TrackPointExtension>
        </extensions>
      </trkpt>
      <trkpt lat="46.2612" lon="4.81587">
        <ele>169.10059</ele>
        <time>2026-05-13T14:22:07+02:00</time>
        <extensions>
          <gpxtpx:TrackPointExtension xmlns:gpxtpx="http://www.garmin.com/xmlschemas/TrackPointExtension/v1">
            <gpxtpx:hr>171</gpxtpx:hr>
          </gpxtpx:TrackPointExtension>
        </extensions>
      </trkpt>
      <trkpt lat="46.26124" lon="4.81593">
        <ele>169.40039</ele>
        <time>2026-05-13T14:22:08+02:00</time>
        <extensions>
          <gpxtpx:TrackPointExtension xmlns:gpxtpx="http://www.garmin.com/xmlschemas/TrackPointExtension/v1">
            <gpxtpx:hr>171</gpxtpx:hr>
          </gpxtpx:TrackPointExtension>
        </extensions>
      </trkpt>
      <trkpt lat="46.26127" lon="4.81599">
        <ele>169.60059</ele>
        <time>2026-05-13T14:22:09+02:00</time>
        <extensions>
          <gpxtpx:TrackPointExtension xmlns:gpxtpx="http://www.garmin.com/xmlschemas/TrackPointExtension/v1">
            <gpxtpx:hr>170</gpxtpx:hr>
          </gpxtpx:TrackPointExtension>
        </extensions>
      </trkpt>
      <trkpt lat="46.26131" lon="4.81606">
        <ele>169.60059</ele>
        <time>2026-05-13T14:22:10+02:00</time>
        <extensions>
          <gpxtpx:TrackPointExtension xmlns:gpxtpx="http://www.garmin.com/xmlschemas/TrackPointExtension/v1">
            <gpxtpx:hr>171</gpxtpx:hr>
          </gpxtpx:TrackPointExtension>
        </extensions>
      </trkpt>
      <trkpt lat="46.26135" lon="4.81612">
        <ele>169.60059</ele>
        <time>2026-05-13T14:22:11+02:00</time>
        <extensions>
          <gpxtpx:TrackPointExtension xmlns:gpxtpx="http://www.garmin.com/xmlschemas/TrackPointExtension/v1">
            <gpxtpx:hr>171</gpxtpx:hr>
          </gpxtpx:TrackPointExtension>
        </extensions>
      </trkpt>
      <trkpt lat="46.2614" lon="4.81618">
        <ele>169.7002</ele>
        <time>2026-05-13T14:22:12+02:00</time>
        <extensions>
          <gpxtpx:TrackPointExtension xmlns:gpxtpx="http://www.garmin.com/xmlschemas/TrackPointExtension/v1">
            <gpxtpx:hr>171</gpxtpx:hr>
          </gpxtpx:TrackPointExtension>
        </extensions>
      </trkpt>
      <trkpt lat="46.26144" lon="4.81625">
        <ele>169.90039</ele>
        <time>2026-05-13T14:22:13+02:00</time>
        <extensions>
          <gpxtpx:TrackPointExtension xmlns:gpxtpx="http://www.garmin.com/xmlschemas/TrackPointExtension/v1">
            <gpxtpx:hr>171</gpxtpx:hr>
          </gpxtpx:TrackPointExtension>
        </extensions>
      </trkpt>
      <trkpt lat="46.26148" lon="4.81631">
        <ele>170.5</ele>
        <time>2026-05-13T14:22:14+02:00</time>
        <extensions>
          <gpxtpx:TrackPointExtension xmlns:gpxtpx="http://www.garmin.com/xmlschemas/TrackPointExtension/v1">
            <gpxtpx:hr>172</gpxtpx:hr>
          </gpxtpx:TrackPointExtension>
        </extensions>
      </trkpt>
      <trkpt lat="46.26152" lon="4.81638">
        <ele>170.10059</ele>
        <time>2026-05-13T14:22:15+02:00</time>
        <extensions>
          <gpxtpx:TrackPointExtension xmlns:gpxtpx="http://www.garmin.com/xmlschemas/TrackPointExtension/v1">
            <gpxtpx:hr>172</gpxtpx:hr>
          </gpxtpx:TrackPointExtension>
        </extensions>
      </trkpt>
      <trkpt lat="46.26156" lon="4.81644">
        <ele>170</ele>
        <time>2026-05-13T14:22:16+02:00</time>
        <extensions>
          <gpxtpx:TrackPointExtension xmlns:gpxtpx="http://www.garmin.com/xmlschemas/TrackPointExtension/v1">
            <gpxtpx:hr>172</gpxtpx:hr>
          </gpxtpx:TrackPointExtension>
        </extensions>
      </trkpt>
      <trkpt lat="46.2616" lon="4.8165">
        <ele>170.2998</ele>
        <time>2026-05-13T14:22:17+02:00</time>
        <extensions>
          <gpxtpx:TrackPointExtension xmlns:gpxtpx="http://www.garmin.com/xmlschemas/TrackPointExtension/v1">
            <gpxtpx:hr>172</gpxtpx:hr>
          </gpxtpx:TrackPointExtension>
        </extensions>
      </trkpt>
      <trkpt lat="46.26164" lon="4.81657">
        <ele>170</ele>
        <time>2026-05-13T14:22:18+02:00</time>
        <extensions>
          <gpxtpx:TrackPointExtension xmlns:gpxtpx="http://www.garmin.com/xmlschemas/TrackPointExtension/v1">
            <gpxtpx:hr>172</gpxtpx:hr>
          </gpxtpx:TrackPointExtension>
        </extensions>
      </trkpt>
      <trkpt lat="46.26167" lon="4.81663">
        <ele>169.7002</ele>
        <time>2026-05-13T14:22:19+02:00</time>
        <extensions>
          <gpxtpx:TrackPointExtension xmlns:gpxtpx="http://www.garmin.com/xmlschemas/TrackPointExtension/v1">
            <gpxtpx:hr>172</gpxtpx:hr>
          </gpxtpx:TrackPointExtension>
        </extensions>
      </trkpt>
      <trkpt lat="46.2617" lon="4.8167">
        <ele>170</ele>
        <time>2026-05-13T14:22:20+02:00</time>
        <extensions>
          <gpxtpx:TrackPointExtension xmlns:gpxtpx="http://www.garmin.com/xmlschemas/TrackPointExtension/v1">
            <gpxtpx:hr>172</gpxtpx:hr>
          </gpxtpx:TrackPointExtension>
        </extensions>
      </trkpt>
      <trkpt lat="46.26172" lon="4.81677">
        <ele>170.2998</ele>
        <time>2026-05-13T14:22:21+02:00</time>
        <extensions>
          <gpxtpx:TrackPointExtension xmlns:gpxtpx="http://www.garmin.com/xmlschemas/TrackPointExtension/v1">
            <gpxtpx:hr>172</gpxtpx:hr>
          </gpxtpx:TrackPointExtension>
        </extensions>
      </trkpt>
      <trkpt lat="46.26174" lon="4.81684">
        <ele>170.60059</ele>
        <time>2026-05-13T14:22:22+02:00</time>
        <extensions>
          <gpxtpx:TrackPointExtension xmlns:gpxtpx="http://www.garmin.com/xmlschemas/TrackPointExtension/v1">
            <gpxtpx:hr>172</gpxtpx:hr>
          </gpxtpx:TrackPointExtension>
        </extensions>
      </trkpt>
      <trkpt lat="46.26176" lon="4.8169">
        <ele>170.60059</ele>
        <time>2026-05-13T14:22:23+02:00</time>
        <extensions>
          <gpxtpx:TrackPointExtension xmlns:gpxtpx="http://www.garmin.com/xmlschemas/TrackPointExtension/v1">
            <gpxtpx:hr>172</gpxtpx:hr>
          </gpxtpx:TrackPointExtension>
        </extensions>
      </trkpt>
      <trkpt lat="46.26179" lon="4.81695">
        <ele>170.90039</ele>
        <time>2026-05-13T14:22:24+02:00</time>
        <extensions>
          <gpxtpx:TrackPointExtension xmlns:gpxtpx="http://www.garmin.com/xmlschemas/TrackPointExtension/v1">
            <gpxtpx:hr>172</gpxtpx:hr>
          </gpxtpx:TrackPointExtension>
        </extensions>
      </trkpt>
      <trkpt lat="46.26184" lon="4.81698">
        <ele>170.40039</ele>
        <time>2026-05-13T14:22:25+02:00</time>
        <extensions>
          <gpxtpx:TrackPointExtension xmlns:gpxtpx="http://www.garmin.com/xmlschemas/TrackPointExtension/v1">
            <gpxtpx:hr>172</gpxtpx:hr>
          </gpxtpx:TrackPointExtension>
        </extensions>
      </trkpt>
      <trkpt lat="46.26189" lon="4.81702">
        <ele>170.90039</ele>
        <time>2026-05-13T14:22:26+02:00</time>
        <extensions>
          <gpxtpx:TrackPointExtension xmlns:gpxtpx="http://www.garmin.com/xmlschemas/TrackPointExtension/v1">
            <gpxtpx:hr>172</gpxtpx:hr>
          </gpxtpx:TrackPointExtension>
        </extensions>
      </trkpt>
      <trkpt lat="46.26194" lon="4.81705">
        <ele>170.40039</ele>
        <time>2026-05-13T14:22:27+02:00</time>
        <extensions>
          <gpxtpx:TrackPointExtension xmlns:gpxtpx="http://www.garmin.com/xmlschemas/TrackPointExtension/v1">
            <gpxtpx:hr>172</gpxtpx:hr>
          </gpxtpx:TrackPointExtension>
        </extensions>
      </trkpt>
      <trkpt lat="46.26199" lon="4.81708">
        <ele>170.2002</ele>
        <time>2026-05-13T14:22:28+02:00</time>
        <extensions>
          <gpxtpx:TrackPointExtension xmlns:gpxtpx="http://www.garmin.com/xmlschemas/TrackPointExtension/v1">
            <gpxtpx:hr>172</gpxtpx:hr>
          </gpxtpx:TrackPointExtension>
        </extensions>
      </trkpt>
      <trkpt lat="46.26204" lon="4.81713">
        <ele>169.7002</ele>
        <time>2026-05-13T14:22:29+02:00</time>
        <extensions>
          <gpxtpx:TrackPointExtension xmlns:gpxtpx="http://www.garmin.com/xmlschemas/TrackPointExtension/v1">
            <gpxtpx:hr>172</gpxtpx:hr>
          </gpxtpx:TrackPointExtension>
        </extensions>
      </trkpt>
      <trkpt lat="46.26208" lon="4.81719">
        <ele>169</ele>
        <time>2026-05-13T14:22:30+02:00</time>
        <extensions>
          <gpxtpx:TrackPointExtension xmlns:gpxtpx="http://www.garmin.com/xmlschemas/TrackPointExtension/v1">
            <gpxtpx:hr>172</gpxtpx:hr>
          </gpxtpx:TrackPointExtension>
        </extensions>
      </trkpt>
      <trkpt lat="46.26212" lon="4.81726">
        <ele>168.7998</ele>
        <time>2026-05-13T14:22:31+02:00</time>
        <extensions>
          <gpxtpx:TrackPointExtension xmlns:gpxtpx="http://www.garmin.com/xmlschemas/TrackPointExtension/v1">
            <gpxtpx:hr>172</gpxtpx:hr>
          </gpxtpx:TrackPointExtension>
        </extensions>
      </trkpt>
      <trkpt lat="46.26217" lon="4.81733">
        <ele>168.40039</ele>
        <time>2026-05-13T14:22:32+02:00</time>
        <extensions>
          <gpxtpx:TrackPointExtension xmlns:gpxtpx="http://www.garmin.com/xmlschemas/TrackPointExtension/v1">
            <gpxtpx:hr>172</gpxtpx:hr>
          </gpxtpx:TrackPointExtension>
        </extensions>
      </trkpt>
      <trkpt lat="46.26221" lon="4.8174">
        <ele>168.40039</ele>
        <time>2026-05-13T14:22:33+02:00</time>
        <extensions>
          <gpxtpx:TrackPointExtension xmlns:gpxtpx="http://www.garmin.com/xmlschemas/TrackPointExtension/v1">
            <gpxtpx:hr>172</gpxtpx:hr>
          </gpxtpx:TrackPointExtension>
        </extensions>
      </trkpt>
      <trkpt lat="46.26225" lon="4.81747">
        <ele>168.7998</ele>
        <time>2026-05-13T14:22:34+02:00</time>
        <extensions>
          <gpxtpx:TrackPointExtension xmlns:gpxtpx="http://www.garmin.com/xmlschemas/TrackPointExtension/v1">
            <gpxtpx:hr>172</gpxtpx:hr>
          </gpxtpx:TrackPointExtension>
        </extensions>
      </trkpt>
      <trkpt lat="46.26228" lon="4.81755">
        <ele>169.2002</ele>
        <time>2026-05-13T14:22:35+02:00</time>
        <extensions>
          <gpxtpx:TrackPointExtension xmlns:gpxtpx="http://www.garmin.com/xmlschemas/TrackPointExtension/v1">
            <gpxtpx:hr>173</gpxtpx:hr>
          </gpxtpx:TrackPointExtension>
        </extensions>
      </trkpt>
      <trkpt lat="46.2623" lon="4.81763">
        <ele>169.60059</ele>
        <time>2026-05-13T14:22:36+02:00</time>
        <extensions>
          <gpxtpx:TrackPointExtension xmlns:gpxtpx="http://www.garmin.com/xmlschemas/TrackPointExtension/v1">
            <gpxtpx:hr>173</gpxtpx:hr>
          </gpxtpx:TrackPointExtension>
        </extensions>
      </trkpt>
      <trkpt lat="46.26232" lon="4.81772">
        <ele>169.2998</ele>
        <time>2026-05-13T14:22:37+02:00</time>
        <extensions>
          <gpxtpx:TrackPointExtension xmlns:gpxtpx="http://www.garmin.com/xmlschemas/TrackPointExtension/v1">
            <gpxtpx:hr>173</gpxtpx:hr>
          </gpxtpx:TrackPointExtension>
        </extensions>
      </trkpt>
      <trkpt lat="46.26235" lon="4.81782">
        <ele>169.2002</ele>
        <time>2026-05-13T14:22:38+02:00</time>
        <extensions>
          <gpxtpx:TrackPointExtension xmlns:gpxtpx="http://www.garmin.com/xmlschemas/TrackPointExtension/v1">
            <gpxtpx:hr>173</gpxtpx:hr>
          </gpxtpx:TrackPointExtension>
        </extensions>
      </trkpt>
      <trkpt lat="46.26236" lon="4.81791">
        <ele>169</ele>
        <time>2026-05-13T14:22:39+02:00</time>
        <extensions>
          <gpxtpx:TrackPointExtension xmlns:gpxtpx="http://www.garmin.com/xmlschemas/TrackPointExtension/v1">
            <gpxtpx:hr>173</gpxtpx:hr>
          </gpxtpx:TrackPointExtension>
        </extensions>
      </trkpt>
      <trkpt lat="46.26238" lon="4.818">
        <ele>168.5</ele>
        <time>2026-05-13T14:22:40+02:00</time>
        <extensions>
          <gpxtpx:TrackPointExtension xmlns:gpxtpx="http://www.garmin.com/xmlschemas/TrackPointExtension/v1">
            <gpxtpx:hr>173</gpxtpx:hr>
          </gpxtpx:TrackPointExtension>
        </extensions>
      </trkpt>
      <trkpt lat="46.2624" lon="4.81809">
        <ele>168.7002</ele>
        <time>2026-05-13T14:22:41+02:00</time>
        <extensions>
          <gpxtpx:TrackPointExtension xmlns:gpxtpx="http://www.garmin.com/xmlschemas/TrackPointExtension/v1">
            <gpxtpx:hr>175</gpxtpx:hr>
          </gpxtpx:TrackPointExtension>
        </extensions>
      </trkpt>
      <trkpt lat="46.26241" lon="4.81818">
        <ele>169.40039</ele>
        <time>2026-05-13T14:22:42+02:00</time>
        <extensions>
          <gpxtpx:TrackPointExtension xmlns:gpxtpx="http://www.garmin.com/xmlschemas/TrackPointExtension/v1">
            <gpxtpx:hr>175</gpxtpx:hr>
          </gpxtpx:TrackPointExtension>
        </extensions>
      </trkpt>
      <trkpt lat="46.26243" lon="4.81826">
        <ele>170.10059</ele>
        <time>2026-05-13T14:22:43+02:00</time>
        <extensions>
          <gpxtpx:TrackPointExtension xmlns:gpxtpx="http://www.garmin.com/xmlschemas/TrackPointExtension/v1">
            <gpxtpx:hr>174</gpxtpx:hr>
          </gpxtpx:TrackPointExtension>
        </extensions>
      </trkpt>
      <trkpt lat="46.26245" lon="4.81835">
        <ele>170.10059</ele>
        <time>2026-05-13T14:22:44+02:00</time>
        <extensions>
          <gpxtpx:TrackPointExtension xmlns:gpxtpx="http://www.garmin.com/xmlschemas/TrackPointExtension/v1">
            <gpxtpx:hr>175</gpxtpx:hr>
          </gpxtpx:TrackPointExtension>
        </extensions>
      </trkpt>
      <trkpt lat="46.26246" lon="4.81843">
        <ele>170.2998</ele>
        <time>2026-05-13T14:22:45+02:00</time>
        <extensions>
          <gpxtpx:TrackPointExtension xmlns:gpxtpx="http://www.garmin.com/xmlschemas/TrackPointExtension/v1">
            <gpxtpx:hr>173</gpxtpx:hr>
          </gpxtpx:TrackPointExtension>
        </extensions>
      </trkpt>
      <trkpt lat="46.26248" lon="4.81852">
        <ele>170.2998</ele>
        <time>2026-05-13T14:22:46+02:00</time>
        <extensions>
          <gpxtpx:TrackPointExtension xmlns:gpxtpx="http://www.garmin.com/xmlschemas/TrackPointExtension/v1">
            <gpxtpx:hr>174</gpxtpx:hr>
          </gpxtpx:TrackPointExtension>
        </extensions>
      </trkpt>
      <trkpt lat="46.2625" lon="4.8186">
        <ele>170.2002</ele>
        <time>2026-05-13T14:22:47+02:00</time>
        <extensions>
          <gpxtpx:TrackPointExtension xmlns:gpxtpx="http://www.garmin.com/xmlschemas/TrackPointExtension/v1">
            <gpxtpx:hr>174</gpxtpx:hr>
          </gpxtpx:TrackPointExtension>
        </extensions>
      </trkpt>
      <trkpt lat="46.26252" lon="4.81868">
        <ele>170.2002</ele>
        <time>2026-05-13T14:22:48+02:00</time>
        <extensions>
          <gpxtpx:TrackPointExtension xmlns:gpxtpx="http://www.garmin.com/xmlschemas/TrackPointExtension/v1">
            <gpxtpx:hr>174</gpxtpx:hr>
          </gpxtpx:TrackPointExtension>
        </extensions>
      </trkpt>
      <trkpt lat="46.26255" lon="4.81877">
        <ele>170.2002</ele>
        <time>2026-05-13T14:22:49+02:00</time>
        <extensions>
          <gpxtpx:TrackPointExtension xmlns:gpxtpx="http://www.garmin.com/xmlschemas/TrackPointExtension/v1">
            <gpxtpx:hr>174</gpxtpx:hr>
          </gpxtpx:TrackPointExtension>
        </extensions>
      </trkpt>
      <trkpt lat="46.26257" lon="4.81885">
        <ele>170</ele>
        <time>2026-05-13T14:22:50+02:00</time>
        <extensions>
          <gpxtpx:TrackPointExtension xmlns:gpxtpx="http://www.garmin.com/xmlschemas/TrackPointExtension/v1">
            <gpxtpx:hr>173</gpxtpx:hr>
          </gpxtpx:TrackPointExtension>
        </extensions>
      </trkpt>
      <trkpt lat="46.26261" lon="4.81893">
        <ele>170</ele>
        <time>2026-05-13T14:22:51+02:00</time>
        <extensions>
          <gpxtpx:TrackPointExtension xmlns:gpxtpx="http://www.garmin.com/xmlschemas/TrackPointExtension/v1">
            <gpxtpx:hr>173</gpxtpx:hr>
          </gpxtpx:TrackPointExtension>
        </extensions>
      </trkpt>
      <trkpt lat="46.26265" lon="4.819">
        <ele>169.7998</ele>
        <time>2026-05-13T14:22:52+02:00</time>
        <extensions>
          <gpxtpx:TrackPointExtension xmlns:gpxtpx="http://www.garmin.com/xmlschemas/TrackPointExtension/v1">
            <gpxtpx:hr>173</gpxtpx:hr>
          </gpxtpx:TrackPointExtension>
        </extensions>
      </trkpt>
      <trkpt lat="46.26269" lon="4.81906">
        <ele>169.7002</ele>
        <time>2026-05-13T14:22:53+02:00</time>
        <extensions>
          <gpxtpx:TrackPointExtension xmlns:gpxtpx="http://www.garmin.com/xmlschemas/TrackPointExtension/v1">
            <gpxtpx:hr>173</gpxtpx:hr>
          </gpxtpx:TrackPointExtension>
        </extensions>
      </trkpt>
      <trkpt lat="46.26274" lon="4.81912">
        <ele>169.7002</ele>
        <time>2026-05-13T14:22:54+02:00</time>
        <extensions>
          <gpxtpx:TrackPointExtension xmlns:gpxtpx="http://www.garmin.com/xmlschemas/TrackPointExtension/v1">
            <gpxtpx:hr>172</gpxtpx:hr>
          </gpxtpx:TrackPointExtension>
        </extensions>
      </trkpt>
      <trkpt lat="46.26281" lon="4.81915">
        <ele>169.7002</ele>
        <time>2026-05-13T14:22:55+02:00</time>
        <extensions>
          <gpxtpx:TrackPointExtension xmlns:gpxtpx="http://www.garmin.com/xmlschemas/TrackPointExtension/v1">
            <gpxtpx:hr>173</gpxtpx:hr>
          </gpxtpx:TrackPointExtension>
        </extensions>
      </trkpt>
      <trkpt lat="46.26287" lon="4.81917">
        <ele>169.60059</ele>
        <time>2026-05-13T14:22:56+02:00</time>
        <extensions>
          <gpxtpx:TrackPointExtension xmlns:gpxtpx="http://www.garmin.com/xmlschemas/TrackPointExtension/v1">
            <gpxtpx:hr>172</gpxtpx:hr>
          </gpxtpx:TrackPointExtension>
        </extensions>
      </trkpt>
      <trkpt lat="46.26294" lon="4.81918">
        <ele>169.5</ele>
        <time>2026-05-13T14:22:57+02:00</time>
        <extensions>
          <gpxtpx:TrackPointExtension xmlns:gpxtpx="http://www.garmin.com/xmlschemas/TrackPointExtension/v1">
            <gpxtpx:hr>172</gpxtpx:hr>
          </gpxtpx:TrackPointExtension>
        </extensions>
      </trkpt>
      <trkpt lat="46.263" lon="4.81918">
        <ele>169.40039</ele>
        <time>2026-05-13T14:22:58+02:00</time>
        <extensions>
          <gpxtpx:TrackPointExtension xmlns:gpxtpx="http://www.garmin.com/xmlschemas/TrackPointExtension/v1">
            <gpxtpx:hr>172</gpxtpx:hr>
          </gpxtpx:TrackPointExtension>
        </extensions>
      </trkpt>
      <trkpt lat="46.26306" lon="4.81918">
        <ele>169.2002</ele>
        <time>2026-05-13T14:22:59+02:00</time>
        <extensions>
          <gpxtpx:TrackPointExtension xmlns:gpxtpx="http://www.garmin.com/xmlschemas/TrackPointExtension/v1">
            <gpxtpx:hr>172</gpxtpx:hr>
          </gpxtpx:TrackPointExtension>
        </extensions>
      </trkpt>
      <trkpt lat="46.26313" lon="4.81918">
        <ele>169.10059</ele>
        <time>2026-05-13T14:23:00+02:00</time>
        <extensions>
          <gpxtpx:TrackPointExtension xmlns:gpxtpx="http://www.garmin.com/xmlschemas/TrackPointExtension/v1">
            <gpxtpx:hr>171</gpxtpx:hr>
          </gpxtpx:TrackPointExtension>
        </extensions>
      </trkpt>
      <trkpt lat="46.26319" lon="4.81919">
        <ele>168.90039</ele>
        <time>2026-05-13T14:23:01+02:00</time>
        <extensions>
          <gpxtpx:TrackPointExtension xmlns:gpxtpx="http://www.garmin.com/xmlschemas/TrackPointExtension/v1">
            <gpxtpx:hr>171</gpxtpx:hr>
          </gpxtpx:TrackPointExtension>
        </extensions>
      </trkpt>
      <trkpt lat="46.26326" lon="4.8192">
        <ele>168.7002</ele>
        <time>2026-05-13T14:23:02+02:00</time>
        <extensions>
          <gpxtpx:TrackPointExtension xmlns:gpxtpx="http://www.garmin.com/xmlschemas/TrackPointExtension/v1">
            <gpxtpx:hr>171</gpxtpx:hr>
          </gpxtpx:TrackPointExtension>
        </extensions>
      </trkpt>
      <trkpt lat="46.26332" lon="4.81923">
        <ele>168.7002</ele>
        <time>2026-05-13T14:23:03+02:00</time>
        <extensions>
          <gpxtpx:TrackPointExtension xmlns:gpxtpx="http://www.garmin.com/xmlschemas/TrackPointExtension/v1">
            <gpxtpx:hr>170</gpxtpx:hr>
          </gpxtpx:TrackPointExtension>
        </extensions>
      </trkpt>
      <trkpt lat="46.26338" lon="4.81926">
        <ele>168.5</ele>
        <time>2026-05-13T14:23:04+02:00</time>
        <extensions>
          <gpxtpx:TrackPointExtension xmlns:gpxtpx="http://www.garmin.com/xmlschemas/TrackPointExtension/v1">
            <gpxtpx:hr>171</gpxtpx:hr>
          </gpxtpx:TrackPointExtension>
        </extensions>
      </trkpt>
      <trkpt lat="46.26344" lon="4.81929">
        <ele>168.40039</ele>
        <time>2026-05-13T14:23:05+02:00</time>
        <extensions>
          <gpxtpx:TrackPointExtension xmlns:gpxtpx="http://www.garmin.com/xmlschemas/TrackPointExtension/v1">
            <gpxtpx:hr>171</gpxtpx:hr>
          </gpxtpx:TrackPointExtension>
        </extensions>
      </trkpt>
      <trkpt lat="46.2635" lon="4.81933">
        <ele>168.60059</ele>
        <time>2026-05-13T14:23:06+02:00</time>
        <extensions>
          <gpxtpx:TrackPointExtension xmlns:gpxtpx="http://www.garmin.com/xmlschemas/TrackPointExtension/v1">
            <gpxtpx:hr>171</gpxtpx:hr>
          </gpxtpx:TrackPointExtension>
        </extensions>
      </trkpt>
      <trkpt lat="46.26356" lon="4.81936">
        <ele>168.5</ele>
        <time>2026-05-13T14:23:07+02:00</time>
        <extensions>
          <gpxtpx:TrackPointExtension xmlns:gpxtpx="http://www.garmin.com/xmlschemas/TrackPointExtension/v1">
            <gpxtpx:hr>171</gpxtpx:hr>
          </gpxtpx:TrackPointExtension>
        </extensions>
      </trkpt>
      <trkpt lat="46.26362" lon="4.81939">
        <ele>168.5</ele>
        <time>2026-05-13T14:23:08+02:00</time>
        <extensions>
          <gpxtpx:TrackPointExtension xmlns:gpxtpx="http://www.garmin.com/xmlschemas/TrackPointExtension/v1">
            <gpxtpx:hr>171</gpxtpx:hr>
          </gpxtpx:TrackPointExtension>
        </extensions>
      </trkpt>
      <trkpt lat="46.26368" lon="4.81943">
        <ele>168.60059</ele>
        <time>2026-05-13T14:23:09+02:00</time>
        <extensions>
          <gpxtpx:TrackPointExtension xmlns:gpxtpx="http://www.garmin.com/xmlschemas/TrackPointExtension/v1">
            <gpxtpx:hr>171</gpxtpx:hr>
          </gpxtpx:TrackPointExtension>
        </extensions>
      </trkpt>
      <trkpt lat="46.26374" lon="4.81946">
        <ele>168.7998</ele>
        <time>2026-05-13T14:23:10+02:00</time>
        <extensions>
          <gpxtpx:TrackPointExtension xmlns:gpxtpx="http://www.garmin.com/xmlschemas/TrackPointExtension/v1">
            <gpxtpx:hr>172</gpxtpx:hr>
          </gpxtpx:TrackPointExtension>
        </extensions>
      </trkpt>
      <trkpt lat="46.2638" lon="4.81949">
        <ele>168.7998</ele>
        <time>2026-05-13T14:23:11+02:00</time>
        <extensions>
          <gpxtpx:TrackPointExtension xmlns:gpxtpx="http://www.garmin.com/xmlschemas/TrackPointExtension/v1">
            <gpxtpx:hr>171</gpxtpx:hr>
          </gpxtpx:TrackPointExtension>
        </extensions>
      </trkpt>
      <trkpt lat="46.26385" lon="4.81948">
        <ele>168.7998</ele>
        <time>2026-05-13T14:23:12+02:00</time>
        <extensions>
          <gpxtpx:TrackPointExtension xmlns:gpxtpx="http://www.garmin.com/xmlschemas/TrackPointExtension/v1">
            <gpxtpx:hr>171</gpxtpx:hr>
          </gpxtpx:TrackPointExtension>
        </extensions>
      </trkpt>
      <trkpt lat="46.2639" lon="4.81944">
        <ele>168.90039</ele>
        <time>2026-05-13T14:23:13+02:00</time>
        <extensions>
          <gpxtpx:TrackPointExtension xmlns:gpxtpx="http://www.garmin.com/xmlschemas/TrackPointExtension/v1">
            <gpxtpx:hr>170</gpxtpx:hr>
          </gpxtpx:TrackPointExtension>
        </extensions>
      </trkpt>
      <trkpt lat="46.26394" lon="4.81938">
        <ele>169.2002</ele>
        <time>2026-05-13T14:23:14+02:00</time>
        <extensions>
          <gpxtpx:TrackPointExtension xmlns:gpxtpx="http://www.garmin.com/xmlschemas/TrackPointExtension/v1">
            <gpxtpx:hr>171</gpxtpx:hr>
          </gpxtpx:TrackPointExtension>
        </extensions>
      </trkpt>
      <trkpt lat="46.26399" lon="4.81932">
        <ele>169.2998</ele>
        <time>2026-05-13T14:23:15+02:00</time>
        <extensions>
          <gpxtpx:TrackPointExtension xmlns:gpxtpx="http://www.garmin.com/xmlschemas/TrackPointExtension/v1">
            <gpxtpx:hr>171</gpxtpx:hr>
          </gpxtpx:TrackPointExtension>
        </extensions>
      </trkpt>
      <trkpt lat="46.26403" lon="4.81925">
        <ele>169.5</ele>
        <time>2026-05-13T14:23:16+02:00</time>
        <extensions>
          <gpxtpx:TrackPointExtension xmlns:gpxtpx="http://www.garmin.com/xmlschemas/TrackPointExtension/v1">
            <gpxtpx:hr>171</gpxtpx:hr>
          </gpxtpx:TrackPointExtension>
        </extensions>
      </trkpt>
      <trkpt lat="46.26407" lon="4.81919">
        <ele>169.7998</ele>
        <time>2026-05-13T14:23:17+02:00</time>
        <extensions>
          <gpxtpx:TrackPointExtension xmlns:gpxtpx="http://www.garmin.com/xmlschemas/TrackPointExtension/v1">
            <gpxtpx:hr>170</gpxtpx:hr>
          </gpxtpx:TrackPointExtension>
        </extensions>
      </trkpt>
      <trkpt lat="46.26412" lon="4.81912">
        <ele>170</ele>
        <time>2026-05-13T14:23:18+02:00</time>
        <extensions>
          <gpxtpx:TrackPointExtension xmlns:gpxtpx="http://www.garmin.com/xmlschemas/TrackPointExtension/v1">
            <gpxtpx:hr>170</gpxtpx:hr>
          </gpxtpx:TrackPointExtension>
        </extensions>
      </trkpt>
      <trkpt lat="46.26416" lon="4.81906">
        <ele>170.10059</ele>
        <time>2026-05-13T14:23:19+02:00</time>
        <extensions>
          <gpxtpx:TrackPointExtension xmlns:gpxtpx="http://www.garmin.com/xmlschemas/TrackPointExtension/v1">
            <gpxtpx:hr>170</gpxtpx:hr>
          </gpxtpx:TrackPointExtension>
        </extensions>
      </trkpt>
      <trkpt lat="46.2642" lon="4.81899">
        <ele>170.10059</ele>
        <time>2026-05-13T14:23:20+02:00</time>
        <extensions>
          <gpxtpx:TrackPointExtension xmlns:gpxtpx="http://www.garmin.com/xmlschemas/TrackPointExtension/v1">
            <gpxtpx:hr>169</gpxtpx:hr>
          </gpxtpx:TrackPointExtension>
        </extensions>
      </trkpt>
      <trkpt lat="46.26424" lon="4.81892">
        <ele>170.2002</ele>
        <time>2026-05-13T14:23:21+02:00</time>
        <extensions>
          <gpxtpx:TrackPointExtension xmlns:gpxtpx="http://www.garmin.com/xmlschemas/TrackPointExtension/v1">
            <gpxtpx:hr>170</gpxtpx:hr>
          </gpxtpx:TrackPointExtension>
        </extensions>
      </trkpt>
      <trkpt lat="46.26428" lon="4.81885">
        <ele>170.2002</ele>
        <time>2026-05-13T14:23:22+02:00</time>
        <extensions>
          <gpxtpx:TrackPointExtension xmlns:gpxtpx="http://www.garmin.com/xmlschemas/TrackPointExtension/v1">
            <gpxtpx:hr>169</gpxtpx:hr>
          </gpxtpx:TrackPointExtension>
        </extensions>
      </trkpt>
      <trkpt lat="46.26432" lon="4.81878">
        <ele>170.10059</ele>
        <time>2026-05-13T14:23:23+02:00</time>
        <extensions>
          <gpxtpx:TrackPointExtension xmlns:gpxtpx="http://www.garmin.com/xmlschemas/TrackPointExtension/v1">
            <gpxtpx:hr>168</gpxtpx:hr>
          </gpxtpx:TrackPointExtension>
        </extensions>
      </trkpt>
      <trkpt lat="46.26436" lon="4.81872">
        <ele>170.2002</ele>
        <time>2026-05-13T14:23:24+02:00</time>
        <extensions>
          <gpxtpx:TrackPointExtension xmlns:gpxtpx="http://www.garmin.com/xmlschemas/TrackPointExtension/v1">
            <gpxtpx:hr>168</gpxtpx:hr>
          </gpxtpx:TrackPointExtension>
        </extensions>
      </trkpt>
      <trkpt lat="46.2644" lon="4.81865">
        <ele>170.10059</ele>
        <time>2026-05-13T14:23:25+02:00</time>
        <extensions>
          <gpxtpx:TrackPointExtension xmlns:gpxtpx="http://www.garmin.com/xmlschemas/TrackPointExtension/v1">
            <gpxtpx:hr>167</gpxtpx:hr>
          </gpxtpx:TrackPointExtension>
        </extensions>
      </trkpt>
      <trkpt lat="46.26444" lon="4.81859">
        <ele>169.90039</ele>
        <time>2026-05-13T14:23:26+02:00</time>
        <extensions>
          <gpxtpx:TrackPointExtension xmlns:gpxtpx="http://www.garmin.com/xmlschemas/TrackPointExtension/v1">
            <gpxtpx:hr>167</gpxtpx:hr>
          </gpxtpx:TrackPointExtension>
        </extensions>
      </trkpt>
      <trkpt lat="46.26447" lon="4.81852">
        <ele>169.7998</ele>
        <time>2026-05-13T14:23:27+02:00</time>
        <extensions>
          <gpxtpx:TrackPointExtension xmlns:gpxtpx="http://www.garmin.com/xmlschemas/TrackPointExtension/v1">
            <gpxtpx:hr>166</gpxtpx:hr>
          </gpxtpx:TrackPointExtension>
        </extensions>
      </trkpt>
      <trkpt lat="46.26451" lon="4.81846">
        <ele>169.7002</ele>
        <time>2026-05-13T14:23:28+02:00</time>
        <extensions>
          <gpxtpx:TrackPointExtension xmlns:gpxtpx="http://www.garmin.com/xmlschemas/TrackPointExtension/v1">
            <gpxtpx:hr>166</gpxtpx:hr>
          </gpxtpx:TrackPointExtension>
        </extensions>
      </trkpt>
      <trkpt lat="46.26455" lon="4.8184">
        <ele>169.5</ele>
        <time>2026-05-13T14:23:29+02:00</time>
        <extensions>
          <gpxtpx:TrackPointExtension xmlns:gpxtpx="http://www.garmin.com/xmlschemas/TrackPointExtension/v1">
            <gpxtpx:hr>166</gpxtpx:hr>
          </gpxtpx:TrackPointExtension>
        </extensions>
      </trkpt>
      <trkpt lat="46.26458" lon="4.81834">
        <ele>169.2002</ele>
        <time>2026-05-13T14:23:30+02:00</time>
        <extensions>
          <gpxtpx:TrackPointExtension xmlns:gpxtpx="http://www.garmin.com/xmlschemas/TrackPointExtension/v1">
            <gpxtpx:hr>166</gpxtpx:hr>
          </gpxtpx:TrackPointExtension>
        </extensions>
      </trkpt>
      <trkpt lat="46.26461" lon="4.81829">
        <ele>169.2002</ele>
        <time>2026-05-13T14:23:31+02:00</time>
        <extensions>
          <gpxtpx:TrackPointExtension xmlns:gpxtpx="http://www.garmin.com/xmlschemas/TrackPointExtension/v1">
            <gpxtpx:hr>166</gpxtpx:hr>
          </gpxtpx:TrackPointExtension>
        </extensions>
      </trkpt>
      <trkpt lat="46.26465" lon="4.81825">
        <ele>168.7002</ele>
        <time>2026-05-13T14:23:32+02:00</time>
        <extensions>
          <gpxtpx:TrackPointExtension xmlns:gpxtpx="http://www.garmin.com/xmlschemas/TrackPointExtension/v1">
            <gpxtpx:hr>165</gpxtpx:hr>
          </gpxtpx:TrackPointExtension>
        </extensions>
      </trkpt>
      <trkpt lat="46.26468" lon="4.81822">
        <ele>168.7002</ele>
        <time>2026-05-13T14:23:33+02:00</time>
        <extensions>
          <gpxtpx:TrackPointExtension xmlns:gpxtpx="http://www.garmin.com/xmlschemas/TrackPointExtension/v1">
            <gpxtpx:hr>165</gpxtpx:hr>
          </gpxtpx:TrackPointExtension>
        </extensions>
      </trkpt>
      <trkpt lat="46.26473" lon="4.81822">
        <ele>168.7002</ele>
        <time>2026-05-13T14:23:34+02:00</time>
        <extensions>
          <gpxtpx:TrackPointExtension xmlns:gpxtpx="http://www.garmin.com/xmlschemas/TrackPointExtension/v1">
            <gpxtpx:hr>164</gpxtpx:hr>
          </gpxtpx:TrackPointExtension>
        </extensions>
      </trkpt>
      <trkpt lat="46.26478" lon="4.81825">
        <ele>168.60059</ele>
        <time>2026-05-13T14:23:35+02:00</time>
        <extensions>
          <gpxtpx:TrackPointExtension xmlns:gpxtpx="http://www.garmin.com/xmlschemas/TrackPointExtension/v1">
            <gpxtpx:hr>164</gpxtpx:hr>
          </gpxtpx:TrackPointExtension>
        </extensions>
      </trkpt>
      <trkpt lat="46.26483" lon="4.81829">
        <ele>168.7002</ele>
        <time>2026-05-13T14:23:36+02:00</time>
        <extensions>
          <gpxtpx:TrackPointExtension xmlns:gpxtpx="http://www.garmin.com/xmlschemas/TrackPointExtension/v1">
            <gpxtpx:hr>165</gpxtpx:hr>
          </gpxtpx:TrackPointExtension>
        </extensions>
      </trkpt>
      <trkpt lat="46.26486" lon="4.81834">
        <ele>168.7002</ele>
        <time>2026-05-13T14:23:37+02:00</time>
        <extensions>
          <gpxtpx:TrackPointExtension xmlns:gpxtpx="http://www.garmin.com/xmlschemas/TrackPointExtension/v1">
            <gpxtpx:hr>165</gpxtpx:hr>
          </gpxtpx:TrackPointExtension>
        </extensions>
      </trkpt>
      <trkpt lat="46.2649" lon="4.8184">
        <ele>168.60059</ele>
        <time>2026-05-13T14:23:38+02:00</time>
        <extensions>
          <gpxtpx:TrackPointExtension xmlns:gpxtpx="http://www.garmin.com/xmlschemas/TrackPointExtension/v1">
            <gpxtpx:hr>165</gpxtpx:hr>
          </gpxtpx:TrackPointExtension>
        </extensions>
      </trkpt>
      <trkpt lat="46.26494" lon="4.81846">
        <ele>168.7998</ele>
        <time>2026-05-13T14:23:39+02:00</time>
        <extensions>
          <gpxtpx:TrackPointExtension xmlns:gpxtpx="http://www.garmin.com/xmlschemas/TrackPointExtension/v1">
            <gpxtpx:hr>166</gpxtpx:hr>
          </gpxtpx:TrackPointExtension>
        </extensions>
      </trkpt>
      <trkpt lat="46.26498" lon="4.81852">
        <ele>168.7998</ele>
        <time>2026-05-13T14:23:40+02:00</time>
        <extensions>
          <gpxtpx:TrackPointExtension xmlns:gpxtpx="http://www.garmin.com/xmlschemas/TrackPointExtension/v1">
            <gpxtpx:hr>166</gpxtpx:hr>
          </gpxtpx:TrackPointExtension>
        </extensions>
      </trkpt>
      <trkpt lat="46.26503" lon="4.81857">
        <ele>169</ele>
        <time>2026-05-13T14:23:41+02:00</time>
        <extensions>
          <gpxtpx:TrackPointExtension xmlns:gpxtpx="http://www.garmin.com/xmlschemas/TrackPointExtension/v1">
            <gpxtpx:hr>166</gpxtpx:hr>
          </gpxtpx:TrackPointExtension>
        </extensions>
      </trkpt>
      <trkpt lat="46.26507" lon="4.81862">
        <ele>168.90039</ele>
        <time>2026-05-13T14:23:42+02:00</time>
        <extensions>
          <gpxtpx:TrackPointExtension xmlns:gpxtpx="http://www.garmin.com/xmlschemas/TrackPointExtension/v1">
            <gpxtpx:hr>166</gpxtpx:hr>
          </gpxtpx:TrackPointExtension>
        </extensions>
      </trkpt>
      <trkpt lat="46.26512" lon="4.81868">
        <ele>169</ele>
        <time>2026-05-13T14:23:43+02:00</time>
        <extensions>
          <gpxtpx:TrackPointExtension xmlns:gpxtpx="http://www.garmin.com/xmlschemas/TrackPointExtension/v1">
            <gpxtpx:hr>167</gpxtpx:hr>
          </gpxtpx:TrackPointExtension>
        </extensions>
      </trkpt>
      <trkpt lat="46.26516" lon="4.81873">
        <ele>169.2002</ele>
        <time>2026-05-13T14:23:44+02:00</time>
        <extensions>
          <gpxtpx:TrackPointExtension xmlns:gpxtpx="http://www.garmin.com/xmlschemas/TrackPointExtension/v1">
            <gpxtpx:hr>166</gpxtpx:hr>
          </gpxtpx:TrackPointExtension>
        </extensions>
      </trkpt>
      <trkpt lat="46.2652" lon="4.81879">
        <ele>169.10059</ele>
        <time>2026-05-13T14:23:45+02:00</time>
        <extensions>
          <gpxtpx:TrackPointExtension xmlns:gpxtpx="http://www.garmin.com/xmlschemas/TrackPointExtension/v1">
            <gpxtpx:hr>166</gpxtpx:hr>
          </gpxtpx:TrackPointExtension>
        </extensions>
      </trkpt>
      <trkpt lat="46.26524" lon="4.81885">
        <ele>169.2002</ele>
        <time>2026-05-13T14:23:46+02:00</time>
        <extensions>
          <gpxtpx:TrackPointExtension xmlns:gpxtpx="http://www.garmin.com/xmlschemas/TrackPointExtension/v1">
            <gpxtpx:hr>166</gpxtpx:hr>
          </gpxtpx:TrackPointExtension>
        </extensions>
      </trkpt>
      <trkpt lat="46.26529" lon="4.81891">
        <ele>169.2998</ele>
        <time>2026-05-13T14:23:47+02:00</time>
        <extensions>
          <gpxtpx:TrackPointExtension xmlns:gpxtpx="http://www.garmin.com/xmlschemas/TrackPointExtension/v1">
            <gpxtpx:hr>166</gpxtpx:hr>
          </gpxtpx:TrackPointExtension>
        </extensions>
      </trkpt>
      <trkpt lat="46.26533" lon="4.81896">
        <ele>169.2998</ele>
        <time>2026-05-13T14:23:48+02:00</time>
        <extensions>
          <gpxtpx:TrackPointExtension xmlns:gpxtpx="http://www.garmin.com/xmlschemas/TrackPointExtension/v1">
            <gpxtpx:hr>167</gpxtpx:hr>
          </gpxtpx:TrackPointExtension>
        </extensions>
      </trkpt>
      <trkpt lat="46.26537" lon="4.81902">
        <ele>169.2002</ele>
        <time>2026-05-13T14:23:49+02:00</time>
        <extensions>
          <gpxtpx:TrackPointExtension xmlns:gpxtpx="http://www.garmin.com/xmlschemas/TrackPointExtension/v1">
            <gpxtpx:hr>167</gpxtpx:hr>
          </gpxtpx:TrackPointExtension>
        </extensions>
      </trkpt>
      <trkpt lat="46.26542" lon="4.81908">
        <ele>169.10059</ele>
        <time>2026-05-13T14:23:50+02:00</time>
        <extensions>
          <gpxtpx:TrackPointExtension xmlns:gpxtpx="http://www.garmin.com/xmlschemas/TrackPointExtension/v1">
            <gpxtpx:hr>167</gpxtpx:hr>
          </gpxtpx:TrackPointExtension>
        </extensions>
      </trkpt>
      <trkpt lat="46.26546" lon="4.81914">
        <ele>169</ele>
        <time>2026-05-13T14:23:51+02:00</time>
        <extensions>
          <gpxtpx:TrackPointExtension xmlns:gpxtpx="http://www.garmin.com/xmlschemas/TrackPointExtension/v1">
            <gpxtpx:hr>167</gpxtpx:hr>
          </gpxtpx:TrackPointExtension>
        </extensions>
      </trkpt>
      <trkpt lat="46.26551" lon="4.8192">
        <ele>169</ele>
        <time>2026-05-13T14:23:52+02:00</time>
        <extensions>
          <gpxtpx:TrackPointExtension xmlns:gpxtpx="http://www.garmin.com/xmlschemas/TrackPointExtension/v1">
            <gpxtpx:hr>167</gpxtpx:hr>
          </gpxtpx:TrackPointExtension>
        </extensions>
      </trkpt>
      <trkpt lat="46.26555" lon="4.81926">
        <ele>168.7998</ele>
        <time>2026-05-13T14:23:53+02:00</time>
        <extensions>
          <gpxtpx:TrackPointExtension xmlns:gpxtpx="http://www.garmin.com/xmlschemas/TrackPointExtension/v1">
            <gpxtpx:hr>167</gpxtpx:hr>
          </gpxtpx:TrackPointExtension>
        </extensions>
      </trkpt>
      <trkpt lat="46.2656" lon="4.81932">
        <ele>168.7002</ele>
        <time>2026-05-13T14:23:54+02:00</time>
        <extensions>
          <gpxtpx:TrackPointExtension xmlns:gpxtpx="http://www.garmin.com/xmlschemas/TrackPointExtension/v1">
            <gpxtpx:hr>167</gpxtpx:hr>
          </gpxtpx:TrackPointExtension>
        </extensions>
      </trkpt>
      <trkpt lat="46.26564" lon="4.81938">
        <ele>168.60059</ele>
        <time>2026-05-13T14:23:55+02:00</time>
        <extensions>
          <gpxtpx:TrackPointExtension xmlns:gpxtpx="http://www.garmin.com/xmlschemas/TrackPointExtension/v1">
            <gpxtpx:hr>167</gpxtpx:hr>
          </gpxtpx:TrackPointExtension>
        </extensions>
      </trkpt>
      <trkpt lat="46.26568" lon="4.81943">
        <ele>168.60059</ele>
        <time>2026-05-13T14:23:56+02:00</time>
        <extensions>
          <gpxtpx:TrackPointExtension xmlns:gpxtpx="http://www.garmin.com/xmlschemas/TrackPointExtension/v1">
            <gpxtpx:hr>167</gpxtpx:hr>
          </gpxtpx:TrackPointExtension>
        </extensions>
      </trkpt>
      <trkpt lat="46.26573" lon="4.81949">
        <ele>168.5</ele>
        <time>2026-05-13T14:23:57+02:00</time>
        <extensions>
          <gpxtpx:TrackPointExtension xmlns:gpxtpx="http://www.garmin.com/xmlschemas/TrackPointExtension/v1">
            <gpxtpx:hr>167</gpxtpx:hr>
          </gpxtpx:TrackPointExtension>
        </extensions>
      </trkpt>
      <trkpt lat="46.26577" lon="4.81955">
        <ele>168.40039</ele>
        <time>2026-05-13T14:23:58+02:00</time>
        <extensions>
          <gpxtpx:TrackPointExtension xmlns:gpxtpx="http://www.garmin.com/xmlschemas/TrackPointExtension/v1">
            <gpxtpx:hr>166</gpxtpx:hr>
          </gpxtpx:TrackPointExtension>
        </extensions>
      </trkpt>
      <trkpt lat="46.26581" lon="4.8196">
        <ele>168.40039</ele>
        <time>2026-05-13T14:23:59+02:00</time>
        <extensions>
          <gpxtpx:TrackPointExtension xmlns:gpxtpx="http://www.garmin.com/xmlschemas/TrackPointExtension/v1">
            <gpxtpx:hr>166</gpxtpx:hr>
          </gpxtpx:TrackPointExtension>
        </extensions>
      </trkpt>
      <trkpt lat="46.26586" lon="4.81966">
        <ele>168.40039</ele>
        <time>2026-05-13T14:24:00+02:00</time>
        <extensions>
          <gpxtpx:TrackPointExtension xmlns:gpxtpx="http://www.garmin.com/xmlschemas/TrackPointExtension/v1">
            <gpxtpx:hr>167</gpxtpx:hr>
          </gpxtpx:TrackPointExtension>
        </extensions>
      </trkpt>
      <trkpt lat="46.2659" lon="4.81972">
        <ele>168.40039</ele>
        <time>2026-05-13T14:24:01+02:00</time>
        <extensions>
          <gpxtpx:TrackPointExtension xmlns:gpxtpx="http://www.garmin.com/xmlschemas/TrackPointExtension/v1">
            <gpxtpx:hr>168</gpxtpx:hr>
          </gpxtpx:TrackPointExtension>
        </extensions>
      </trkpt>
      <trkpt lat="46.26594" lon="4.81978">
        <ele>168.40039</ele>
        <time>2026-05-13T14:24:02+02:00</time>
        <extensions>
          <gpxtpx:TrackPointExtension xmlns:gpxtpx="http://www.garmin.com/xmlschemas/TrackPointExtension/v1">
            <gpxtpx:hr>167</gpxtpx:hr>
          </gpxtpx:TrackPointExtension>
        </extensions>
      </trkpt>
      <trkpt lat="46.26598" lon="4.81984">
        <ele>168.5</ele>
        <time>2026-05-13T14:24:03+02:00</time>
        <extensions>
          <gpxtpx:TrackPointExtension xmlns:gpxtpx="http://www.garmin.com/xmlschemas/TrackPointExtension/v1">
            <gpxtpx:hr>167</gpxtpx:hr>
          </gpxtpx:TrackPointExtension>
        </extensions>
      </trkpt>
      <trkpt lat="46.26603" lon="4.8199">
        <ele>168.5</ele>
        <time>2026-05-13T14:24:04+02:00</time>
        <extensions>
          <gpxtpx:TrackPointExtension xmlns:gpxtpx="http://www.garmin.com/xmlschemas/TrackPointExtension/v1">
            <gpxtpx:hr>168</gpxtpx:hr>
          </gpxtpx:TrackPointExtension>
        </extensions>
      </trkpt>
      <trkpt lat="46.26607" lon="4.81996">
        <ele>168.5</ele>
        <time>2026-05-13T14:24:05+02:00</time>
        <extensions>
          <gpxtpx:TrackPointExtension xmlns:gpxtpx="http://www.garmin.com/xmlschemas/TrackPointExtension/v1">
            <gpxtpx:hr>168</gpxtpx:hr>
          </gpxtpx:TrackPointExtension>
        </extensions>
      </trkpt>
      <trkpt lat="46.26612" lon="4.82002">
        <ele>168.5</ele>
        <time>2026-05-13T14:24:06+02:00</time>
        <extensions>
          <gpxtpx:TrackPointExtension xmlns:gpxtpx="http://www.garmin.com/xmlschemas/TrackPointExtension/v1">
            <gpxtpx:hr>168</gpxtpx:hr>
          </gpxtpx:TrackPointExtension>
        </extensions>
      </trkpt>
      <trkpt lat="46.26616" lon="4.82007">
        <ele>168.5</ele>
        <time>2026-05-13T14:24:07+02:00</time>
        <extensions>
          <gpxtpx:TrackPointExtension xmlns:gpxtpx="http://www.garmin.com/xmlschemas/TrackPointExtension/v1">
            <gpxtpx:hr>169</gpxtpx:hr>
          </gpxtpx:TrackPointExtension>
        </extensions>
      </trkpt>
      <trkpt lat="46.26621" lon="4.82013">
        <ele>168.5</ele>
        <time>2026-05-13T14:24:08+02:00</time>
        <extensions>
          <gpxtpx:TrackPointExtension xmlns:gpxtpx="http://www.garmin.com/xmlschemas/TrackPointExtension/v1">
            <gpxtpx:hr>168</gpxtpx:hr>
          </gpxtpx:TrackPointExtension>
        </extensions>
      </trkpt>
      <trkpt lat="46.26625" lon="4.82018">
        <ele>168.5</ele>
        <time>2026-05-13T14:24:09+02:00</time>
        <extensions>
          <gpxtpx:TrackPointExtension xmlns:gpxtpx="http://www.garmin.com/xmlschemas/TrackPointExtension/v1">
            <gpxtpx:hr>168</gpxtpx:hr>
          </gpxtpx:TrackPointExtension>
        </extensions>
      </trkpt>
      <trkpt lat="46.26629" lon="4.82023">
        <ele>168.5</ele>
        <time>2026-05-13T14:24:10+02:00</time>
        <extensions>
          <gpxtpx:TrackPointExtension xmlns:gpxtpx="http://www.garmin.com/xmlschemas/TrackPointExtension/v1">
            <gpxtpx:hr>168</gpxtpx:hr>
          </gpxtpx:TrackPointExtension>
        </extensions>
      </trkpt>
      <trkpt lat="46.26633" lon="4.82028">
        <ele>168.60059</ele>
        <time>2026-05-13T14:24:11+02:00</time>
        <extensions>
          <gpxtpx:TrackPointExtension xmlns:gpxtpx="http://www.garmin.com/xmlschemas/TrackPointExtension/v1">
            <gpxtpx:hr>167</gpxtpx:hr>
          </gpxtpx:TrackPointExtension>
        </extensions>
      </trkpt>
      <trkpt lat="46.26637" lon="4.82033">
        <ele>168.5</ele>
        <time>2026-05-13T14:24:12+02:00</time>
        <extensions>
          <gpxtpx:TrackPointExtension xmlns:gpxtpx="http://www.garmin.com/xmlschemas/TrackPointExtension/v1">
            <gpxtpx:hr>166</gpxtpx:hr>
          </gpxtpx:TrackPointExtension>
        </extensions>
      </trkpt>
      <trkpt lat="46.26641" lon="4.82037">
        <ele>168.5</ele>
        <time>2026-05-13T14:24:13+02:00</time>
        <extensions>
          <gpxtpx:TrackPointExtension xmlns:gpxtpx="http://www.garmin.com/xmlschemas/TrackPointExtension/v1">
            <gpxtpx:hr>166</gpxtpx:hr>
          </gpxtpx:TrackPointExtension>
        </extensions>
      </trkpt>
      <trkpt lat="46.26645" lon="4.82042">
        <ele>168.5</ele>
        <time>2026-05-13T14:24:14+02:00</time>
        <extensions>
          <gpxtpx:TrackPointExtension xmlns:gpxtpx="http://www.garmin.com/xmlschemas/TrackPointExtension/v1">
            <gpxtpx:hr>165</gpxtpx:hr>
          </gpxtpx:TrackPointExtension>
        </extensions>
      </trkpt>
      <trkpt lat="46.26648" lon="4.82047">
        <ele>168.5</ele>
        <time>2026-05-13T14:24:15+02:00</time>
        <extensions>
          <gpxtpx:TrackPointExtension xmlns:gpxtpx="http://www.garmin.com/xmlschemas/TrackPointExtension/v1">
            <gpxtpx:hr>164</gpxtpx:hr>
          </gpxtpx:TrackPointExtension>
        </extensions>
      </trkpt>
      <trkpt lat="46.26652" lon="4.82051">
        <ele>168.5</ele>
        <time>2026-05-13T14:24:16+02:00</time>
        <extensions>
          <gpxtpx:TrackPointExtension xmlns:gpxtpx="http://www.garmin.com/xmlschemas/TrackPointExtension/v1">
            <gpxtpx:hr>164</gpxtpx:hr>
          </gpxtpx:TrackPointExtension>
        </extensions>
      </trkpt>
      <trkpt lat="46.26655" lon="4.82055">
        <ele>168.5</ele>
        <time>2026-05-13T14:24:17+02:00</time>
        <extensions>
          <gpxtpx:TrackPointExtension xmlns:gpxtpx="http://www.garmin.com/xmlschemas/TrackPointExtension/v1">
            <gpxtpx:hr>163</gpxtpx:hr>
          </gpxtpx:TrackPointExtension>
        </extensions>
      </trkpt>
      <trkpt lat="46.26658" lon="4.82059">
        <ele>168.5</ele>
        <time>2026-05-13T14:24:18+02:00</time>
        <extensions>
          <gpxtpx:TrackPointExtension xmlns:gpxtpx="http://www.garmin.com/xmlschemas/TrackPointExtension/v1">
            <gpxtpx:hr>162</gpxtpx:hr>
          </gpxtpx:TrackPointExtension>
        </extensions>
      </trkpt>
      <trkpt lat="46.26661" lon="4.82063">
        <ele>168.5</ele>
        <time>2026-05-13T14:24:19+02:00</time>
        <extensions>
          <gpxtpx:TrackPointExtension xmlns:gpxtpx="http://www.garmin.com/xmlschemas/TrackPointExtension/v1">
            <gpxtpx:hr>162</gpxtpx:hr>
          </gpxtpx:TrackPointExtension>
        </extensions>
      </trkpt>
      <trkpt lat="46.26665" lon="4.82067">
        <ele>168.40039</ele>
        <time>2026-05-13T14:24:20+02:00</time>
        <extensions>
          <gpxtpx:TrackPointExtension xmlns:gpxtpx="http://www.garmin.com/xmlschemas/TrackPointExtension/v1">
            <gpxtpx:hr>161</gpxtpx:hr>
          </gpxtpx:TrackPointExtension>
        </extensions>
      </trkpt>
      <trkpt lat="46.26669" lon="4.82071">
        <ele>168.40039</ele>
        <time>2026-05-13T14:24:21+02:00</time>
        <extensions>
          <gpxtpx:TrackPointExtension xmlns:gpxtpx="http://www.garmin.com/xmlschemas/TrackPointExtension/v1">
            <gpxtpx:hr>161</gpxtpx:hr>
          </gpxtpx:TrackPointExtension>
        </extensions>
      </trkpt>
      <trkpt lat="46.26672" lon="4.82075">
        <ele>168.2998</ele>
        <time>2026-05-13T14:24:22+02:00</time>
        <extensions>
          <gpxtpx:TrackPointExtension xmlns:gpxtpx="http://www.garmin.com/xmlschemas/TrackPointExtension/v1">
            <gpxtpx:hr>161</gpxtpx:hr>
          </gpxtpx:TrackPointExtension>
        </extensions>
      </trkpt>
      <trkpt lat="46.26676" lon="4.8208">
        <ele>168.2998</ele>
        <time>2026-05-13T14:24:23+02:00</time>
        <extensions>
          <gpxtpx:TrackPointExtension xmlns:gpxtpx="http://www.garmin.com/xmlschemas/TrackPointExtension/v1">
            <gpxtpx:hr>161</gpxtpx:hr>
          </gpxtpx:TrackPointExtension>
        </extensions>
      </trkpt>
      <trkpt lat="46.2668" lon="4.82084">
        <ele>168.2998</ele>
        <time>2026-05-13T14:24:24+02:00</time>
        <extensions>
          <gpxtpx:TrackPointExtension xmlns:gpxtpx="http://www.garmin.com/xmlschemas/TrackPointExtension/v1">
            <gpxtpx:hr>161</gpxtpx:hr>
          </gpxtpx:TrackPointExtension>
        </extensions>
      </trkpt>
      <trkpt lat="46.26684" lon="4.82088">
        <ele>168.2998</ele>
        <time>2026-05-13T14:24:25+02:00</time>
        <extensions>
          <gpxtpx:TrackPointExtension xmlns:gpxtpx="http://www.garmin.com/xmlschemas/TrackPointExtension/v1">
            <gpxtpx:hr>161</gpxtpx:hr>
          </gpxtpx:TrackPointExtension>
        </extensions>
      </trkpt>
      <trkpt lat="46.26689" lon="4.82093">
        <ele>168.2998</ele>
        <time>2026-05-13T14:24:26+02:00</time>
        <extensions>
          <gpxtpx:TrackPointExtension xmlns:gpxtpx="http://www.garmin.com/xmlschemas/TrackPointExtension/v1">
            <gpxtpx:hr>161</gpxtpx:hr>
          </gpxtpx:TrackPointExtension>
        </extensions>
      </trkpt>
      <trkpt lat="46.26693" lon="4.82097">
        <ele>168.40039</ele>
        <time>2026-05-13T14:24:27+02:00</time>
        <extensions>
          <gpxtpx:TrackPointExtension xmlns:gpxtpx="http://www.garmin.com/xmlschemas/TrackPointExtension/v1">
            <gpxtpx:hr>162</gpxtpx:hr>
          </gpxtpx:TrackPointExtension>
        </extensions>
      </trkpt>
      <trkpt lat="46.26698" lon="4.82101">
        <ele>168.40039</ele>
        <time>2026-05-13T14:24:28+02:00</time>
        <extensions>
          <gpxtpx:TrackPointExtension xmlns:gpxtpx="http://www.garmin.com/xmlschemas/TrackPointExtension/v1">
            <gpxtpx:hr>162</gpxtpx:hr>
          </gpxtpx:TrackPointExtension>
        </extensions>
      </trkpt>
      <trkpt lat="46.26703" lon="4.82106">
        <ele>168.40039</ele>
        <time>2026-05-13T14:24:29+02:00</time>
        <extensions>
          <gpxtpx:TrackPointExtension xmlns:gpxtpx="http://www.garmin.com/xmlschemas/TrackPointExtension/v1">
            <gpxtpx:hr>162</gpxtpx:hr>
          </gpxtpx:TrackPointExtension>
        </extensions>
      </trkpt>
      <trkpt lat="46.26708" lon="4.82111">
        <ele>168.40039</ele>
        <time>2026-05-13T14:24:30+02:00</time>
        <extensions>
          <gpxtpx:TrackPointExtension xmlns:gpxtpx="http://www.garmin.com/xmlschemas/TrackPointExtension/v1">
            <gpxtpx:hr>163</gpxtpx:hr>
          </gpxtpx:TrackPointExtension>
        </extensions>
      </trkpt>
      <trkpt lat="46.26712" lon="4.82116">
        <ele>168.40039</ele>
        <time>2026-05-13T14:24:31+02:00</time>
        <extensions>
          <gpxtpx:TrackPointExtension xmlns:gpxtpx="http://www.garmin.com/xmlschemas/TrackPointExtension/v1">
            <gpxtpx:hr>162</gpxtpx:hr>
          </gpxtpx:TrackPointExtension>
        </extensions>
      </trkpt>
      <trkpt lat="46.26717" lon="4.82121">
        <ele>168.60059</ele>
        <time>2026-05-13T14:24:32+02:00</time>
        <extensions>
          <gpxtpx:TrackPointExtension xmlns:gpxtpx="http://www.garmin.com/xmlschemas/TrackPointExtension/v1">
            <gpxtpx:hr>163</gpxtpx:hr>
          </gpxtpx:TrackPointExtension>
        </extensions>
      </trkpt>
      <trkpt lat="46.26722" lon="4.82126">
        <ele>168.60059</ele>
        <time>2026-05-13T14:24:33+02:00</time>
        <extensions>
          <gpxtpx:TrackPointExtension xmlns:gpxtpx="http://www.garmin.com/xmlschemas/TrackPointExtension/v1">
            <gpxtpx:hr>164</gpxtpx:hr>
          </gpxtpx:TrackPointExtension>
        </extensions>
      </trkpt>
      <trkpt lat="46.26727" lon="4.82131">
        <ele>168.60059</ele>
        <time>2026-05-13T14:24:34+02:00</time>
        <extensions>
          <gpxtpx:TrackPointExtension xmlns:gpxtpx="http://www.garmin.com/xmlschemas/TrackPointExtension/v1">
            <gpxtpx:hr>164</gpxtpx:hr>
          </gpxtpx:TrackPointExtension>
        </extensions>
      </trkpt>
      <trkpt lat="46.26731" lon="4.82137">
        <ele>168.60059</ele>
        <time>2026-05-13T14:24:35+02:00</time>
        <extensions>
          <gpxtpx:TrackPointExtension xmlns:gpxtpx="http://www.garmin.com/xmlschemas/TrackPointExtension/v1">
            <gpxtpx:hr>164</gpxtpx:hr>
          </gpxtpx:TrackPointExtension>
        </extensions>
      </trkpt>
      <trkpt lat="46.26736" lon="4.82142">
        <ele>168.60059</ele>
        <time>2026-05-13T14:24:36+02:00</time>
        <extensions>
          <gpxtpx:TrackPointExtension xmlns:gpxtpx="http://www.garmin.com/xmlschemas/TrackPointExtension/v1">
            <gpxtpx:hr>164</gpxtpx:hr>
          </gpxtpx:TrackPointExtension>
        </extensions>
      </trkpt>
      <trkpt lat="46.26741" lon="4.82148">
        <ele>168.60059</ele>
        <time>2026-05-13T14:24:37+02:00</time>
        <extensions>
          <gpxtpx:TrackPointExtension xmlns:gpxtpx="http://www.garmin.com/xmlschemas/TrackPointExtension/v1">
            <gpxtpx:hr>164</gpxtpx:hr>
          </gpxtpx:TrackPointExtension>
        </extensions>
      </trkpt>
      <trkpt lat="46.26746" lon="4.82154">
        <ele>168.60059</ele>
        <time>2026-05-13T14:24:38+02:00</time>
        <extensions>
          <gpxtpx:TrackPointExtension xmlns:gpxtpx="http://www.garmin.com/xmlschemas/TrackPointExtension/v1">
            <gpxtpx:hr>165</gpxtpx:hr>
          </gpxtpx:TrackPointExtension>
        </extensions>
      </trkpt>
      <trkpt lat="46.26751" lon="4.8216">
        <ele>168.60059</ele>
        <time>2026-05-13T14:24:39+02:00</time>
        <extensions>
          <gpxtpx:TrackPointExtension xmlns:gpxtpx="http://www.garmin.com/xmlschemas/TrackPointExtension/v1">
            <gpxtpx:hr>165</gpxtpx:hr>
          </gpxtpx:TrackPointExtension>
        </extensions>
      </trkpt>
      <trkpt lat="46.26756" lon="4.82165">
        <ele>168.60059</ele>
        <time>2026-05-13T14:24:40+02:00</time>
        <extensions>
          <gpxtpx:TrackPointExtension xmlns:gpxtpx="http://www.garmin.com/xmlschemas/TrackPointExtension/v1">
            <gpxtpx:hr>166</gpxtpx:hr>
          </gpxtpx:TrackPointExtension>
        </extensions>
      </trkpt>
      <trkpt lat="46.2676" lon="4.82171">
        <ele>168.5</ele>
        <time>2026-05-13T14:24:41+02:00</time>
        <extensions>
          <gpxtpx:TrackPointExtension xmlns:gpxtpx="http://www.garmin.com/xmlschemas/TrackPointExtension/v1">
            <gpxtpx:hr>166</gpxtpx:hr>
          </gpxtpx:TrackPointExtension>
        </extensions>
      </trkpt>
      <trkpt lat="46.26765" lon="4.82177">
        <ele>168.60059</ele>
        <time>2026-05-13T14:24:42+02:00</time>
        <extensions>
          <gpxtpx:TrackPointExtension xmlns:gpxtpx="http://www.garmin.com/xmlschemas/TrackPointExtension/v1">
            <gpxtpx:hr>165</gpxtpx:hr>
          </gpxtpx:TrackPointExtension>
        </extensions>
      </trkpt>
      <trkpt lat="46.2677" lon="4.82182">
        <ele>168.7002</ele>
        <time>2026-05-13T14:24:43+02:00</time>
        <extensions>
          <gpxtpx:TrackPointExtension xmlns:gpxtpx="http://www.garmin.com/xmlschemas/TrackPointExtension/v1">
            <gpxtpx:hr>166</gpxtpx:hr>
          </gpxtpx:TrackPointExtension>
        </extensions>
      </trkpt>
      <trkpt lat="46.26775" lon="4.82188">
        <ele>168.60059</ele>
        <time>2026-05-13T14:24:44+02:00</time>
        <extensions>
          <gpxtpx:TrackPointExtension xmlns:gpxtpx="http://www.garmin.com/xmlschemas/TrackPointExtension/v1">
            <gpxtpx:hr>166</gpxtpx:hr>
          </gpxtpx:TrackPointExtension>
        </extensions>
      </trkpt>
      <trkpt lat="46.26779" lon="4.82194">
        <ele>168.7002</ele>
        <time>2026-05-13T14:24:45+02:00</time>
        <extensions>
          <gpxtpx:TrackPointExtension xmlns:gpxtpx="http://www.garmin.com/xmlschemas/TrackPointExtension/v1">
            <gpxtpx:hr>165</gpxtpx:hr>
          </gpxtpx:TrackPointExtension>
        </extensions>
      </trkpt>
      <trkpt lat="46.26784" lon="4.82199">
        <ele>168.7002</ele>
        <time>2026-05-13T14:24:46+02:00</time>
        <extensions>
          <gpxtpx:TrackPointExtension xmlns:gpxtpx="http://www.garmin.com/xmlschemas/TrackPointExtension/v1">
            <gpxtpx:hr>166</gpxtpx:hr>
          </gpxtpx:TrackPointExtension>
        </extensions>
      </trkpt>
      <trkpt lat="46.26789" lon="4.82205">
        <ele>168.7002</ele>
        <time>2026-05-13T14:24:47+02:00</time>
        <extensions>
          <gpxtpx:TrackPointExtension xmlns:gpxtpx="http://www.garmin.com/xmlschemas/TrackPointExtension/v1">
            <gpxtpx:hr>166</gpxtpx:hr>
          </gpxtpx:TrackPointExtension>
        </extensions>
      </trkpt>
      <trkpt lat="46.26794" lon="4.8221">
        <ele>168.60059</ele>
        <time>2026-05-13T14:24:48+02:00</time>
        <extensions>
          <gpxtpx:TrackPointExtension xmlns:gpxtpx="http://www.garmin.com/xmlschemas/TrackPointExtension/v1">
            <gpxtpx:hr>166</gpxtpx:hr>
          </gpxtpx:TrackPointExtension>
        </extensions>
      </trkpt>
      <trkpt lat="46.26799" lon="4.82215">
        <ele>168.60059</ele>
        <time>2026-05-13T14:24:49+02:00</time>
        <extensions>
          <gpxtpx:TrackPointExtension xmlns:gpxtpx="http://www.garmin.com/xmlschemas/TrackPointExtension/v1">
            <gpxtpx:hr>166</gpxtpx:hr>
          </gpxtpx:TrackPointExtension>
        </extensions>
      </trkpt>
      <trkpt lat="46.26804" lon="4.82221">
        <ele>168.5</ele>
        <time>2026-05-13T14:24:50+02:00</time>
        <extensions>
          <gpxtpx:TrackPointExtension xmlns:gpxtpx="http://www.garmin.com/xmlschemas/TrackPointExtension/v1">
            <gpxtpx:hr>166</gpxtpx:hr>
          </gpxtpx:TrackPointExtension>
        </extensions>
      </trkpt>
      <trkpt lat="46.26809" lon="4.82227">
        <ele>168.5</ele>
        <time>2026-05-13T14:24:51+02:00</time>
        <extensions>
          <gpxtpx:TrackPointExtension xmlns:gpxtpx="http://www.garmin.com/xmlschemas/TrackPointExtension/v1">
            <gpxtpx:hr>166</gpxtpx:hr>
          </gpxtpx:TrackPointExtension>
        </extensions>
      </trkpt>
      <trkpt lat="46.26814" lon="4.82232">
        <ele>168.5</ele>
        <time>2026-05-13T14:24:52+02:00</time>
        <extensions>
          <gpxtpx:TrackPointExtension xmlns:gpxtpx="http://www.garmin.com/xmlschemas/TrackPointExtension/v1">
            <gpxtpx:hr>166</gpxtpx:hr>
          </gpxtpx:TrackPointExtension>
        </extensions>
      </trkpt>
      <trkpt lat="46.26819" lon="4.82238">
        <ele>168.5</ele>
        <time>2026-05-13T14:24:53+02:00</time>
        <extensions>
          <gpxtpx:TrackPointExtension xmlns:gpxtpx="http://www.garmin.com/xmlschemas/TrackPointExtension/v1">
            <gpxtpx:hr>167</gpxtpx:hr>
          </gpxtpx:TrackPointExtension>
        </extensions>
      </trkpt>
      <trkpt lat="46.26824" lon="4.82243">
        <ele>168.5</ele>
        <time>2026-05-13T14:24:54+02:00</time>
        <extensions>
          <gpxtpx:TrackPointExtension xmlns:gpxtpx="http://www.garmin.com/xmlschemas/TrackPointExtension/v1">
            <gpxtpx:hr>167</gpxtpx:hr>
          </gpxtpx:TrackPointExtension>
        </extensions>
      </trkpt>
      <trkpt lat="46.26829" lon="4.82248">
        <ele>168.5</ele>
        <time>2026-05-13T14:24:55+02:00</time>
        <extensions>
          <gpxtpx:TrackPointExtension xmlns:gpxtpx="http://www.garmin.com/xmlschemas/TrackPointExtension/v1">
            <gpxtpx:hr>167</gpxtpx:hr>
          </gpxtpx:TrackPointExtension>
        </extensions>
      </trkpt>
      <trkpt lat="46.26834" lon="4.82253">
        <ele>168.60059</ele>
        <time>2026-05-13T14:24:56+02:00</time>
        <extensions>
          <gpxtpx:TrackPointExtension xmlns:gpxtpx="http://www.garmin.com/xmlschemas/TrackPointExtension/v1">
            <gpxtpx:hr>166</gpxtpx:hr>
          </gpxtpx:TrackPointExtension>
        </extensions>
      </trkpt>
      <trkpt lat="46.26839" lon="4.82259">
        <ele>168.60059</ele>
        <time>2026-05-13T14:24:57+02:00</time>
        <extensions>
          <gpxtpx:TrackPointExtension xmlns:gpxtpx="http://www.garmin.com/xmlschemas/TrackPointExtension/v1">
            <gpxtpx:hr>167</gpxtpx:hr>
          </gpxtpx:TrackPointExtension>
        </extensions>
      </trkpt>
      <trkpt lat="46.26844" lon="4.82264">
        <ele>168.60059</ele>
        <time>2026-05-13T14:24:58+02:00</time>
        <extensions>
          <gpxtpx:TrackPointExtension xmlns:gpxtpx="http://www.garmin.com/xmlschemas/TrackPointExtension/v1">
            <gpxtpx:hr>166</gpxtpx:hr>
          </gpxtpx:TrackPointExtension>
        </extensions>
      </trkpt>
      <trkpt lat="46.26849" lon="4.82269">
        <ele>168.7002</ele>
        <time>2026-05-13T14:24:59+02:00</time>
        <extensions>
          <gpxtpx:TrackPointExtension xmlns:gpxtpx="http://www.garmin.com/xmlschemas/TrackPointExtension/v1">
            <gpxtpx:hr>166</gpxtpx:hr>
          </gpxtpx:TrackPointExtension>
        </extensions>
      </trkpt>
      <trkpt lat="46.26854" lon="4.82275">
        <ele>168.7998</ele>
        <time>2026-05-13T14:25:00+02:00</time>
        <extensions>
          <gpxtpx:TrackPointExtension xmlns:gpxtpx="http://www.garmin.com/xmlschemas/TrackPointExtension/v1">
            <gpxtpx:hr>166</gpxtpx:hr>
          </gpxtpx:TrackPointExtension>
        </extensions>
      </trkpt>
      <trkpt lat="46.2686" lon="4.8228">
        <ele>168.7002</ele>
        <time>2026-05-13T14:25:01+02:00</time>
        <extensions>
          <gpxtpx:TrackPointExtension xmlns:gpxtpx="http://www.garmin.com/xmlschemas/TrackPointExtension/v1">
            <gpxtpx:hr>166</gpxtpx:hr>
          </gpxtpx:TrackPointExtension>
        </extensions>
      </trkpt>
      <trkpt lat="46.26865" lon="4.82285">
        <ele>168.7002</ele>
        <time>2026-05-13T14:25:02+02:00</time>
        <extensions>
          <gpxtpx:TrackPointExtension xmlns:gpxtpx="http://www.garmin.com/xmlschemas/TrackPointExtension/v1">
            <gpxtpx:hr>166</gpxtpx:hr>
          </gpxtpx:TrackPointExtension>
        </extensions>
      </trkpt>
      <trkpt lat="46.2687" lon="4.8229">
        <ele>168.60059</ele>
        <time>2026-05-13T14:25:03+02:00</time>
        <extensions>
          <gpxtpx:TrackPointExtension xmlns:gpxtpx="http://www.garmin.com/xmlschemas/TrackPointExtension/v1">
            <gpxtpx:hr>167</gpxtpx:hr>
          </gpxtpx:TrackPointExtension>
        </extensions>
      </trkpt>
      <trkpt lat="46.26875" lon="4.82296">
        <ele>168.60059</ele>
        <time>2026-05-13T14:25:04+02:00</time>
        <extensions>
          <gpxtpx:TrackPointExtension xmlns:gpxtpx="http://www.garmin.com/xmlschemas/TrackPointExtension/v1">
            <gpxtpx:hr>166</gpxtpx:hr>
          </gpxtpx:TrackPointExtension>
        </extensions>
      </trkpt>
      <trkpt lat="46.26881" lon="4.82301">
        <ele>168.5</ele>
        <time>2026-05-13T14:25:05+02:00</time>
        <extensions>
          <gpxtpx:TrackPointExtension xmlns:gpxtpx="http://www.garmin.com/xmlschemas/TrackPointExtension/v1">
            <gpxtpx:hr>167</gpxtpx:hr>
          </gpxtpx:TrackPointExtension>
        </extensions>
      </trkpt>
      <trkpt lat="46.26886" lon="4.82306">
        <ele>168.5</ele>
        <time>2026-05-13T14:25:06+02:00</time>
        <extensions>
          <gpxtpx:TrackPointExtension xmlns:gpxtpx="http://www.garmin.com/xmlschemas/TrackPointExtension/v1">
            <gpxtpx:hr>167</gpxtpx:hr>
          </gpxtpx:TrackPointExtension>
        </extensions>
      </trkpt>
      <trkpt lat="46.26891" lon="4.82311">
        <ele>168.40039</ele>
        <time>2026-05-13T14:25:07+02:00</time>
        <extensions>
          <gpxtpx:TrackPointExtension xmlns:gpxtpx="http://www.garmin.com/xmlschemas/TrackPointExtension/v1">
            <gpxtpx:hr>166</gpxtpx:hr>
          </gpxtpx:TrackPointExtension>
        </extensions>
      </trkpt>
      <trkpt lat="46.26897" lon="4.82316">
        <ele>168.2998</ele>
        <time>2026-05-13T14:25:08+02:00</time>
        <extensions>
          <gpxtpx:TrackPointExtension xmlns:gpxtpx="http://www.garmin.com/xmlschemas/TrackPointExtension/v1">
            <gpxtpx:hr>167</gpxtpx:hr>
          </gpxtpx:TrackPointExtension>
        </extensions>
      </trkpt>
      <trkpt lat="46.26902" lon="4.82321">
        <ele>168.2998</ele>
        <time>2026-05-13T14:25:09+02:00</time>
        <extensions>
          <gpxtpx:TrackPointExtension xmlns:gpxtpx="http://www.garmin.com/xmlschemas/TrackPointExtension/v1">
            <gpxtpx:hr>167</gpxtpx:hr>
          </gpxtpx:TrackPointExtension>
        </extensions>
      </trkpt>
      <trkpt lat="46.26907" lon="4.82326">
        <ele>168.40039</ele>
        <time>2026-05-13T14:25:10+02:00</time>
        <extensions>
          <gpxtpx:TrackPointExtension xmlns:gpxtpx="http://www.garmin.com/xmlschemas/TrackPointExtension/v1">
            <gpxtpx:hr>168</gpxtpx:hr>
          </gpxtpx:TrackPointExtension>
        </extensions>
      </trkpt>
      <trkpt lat="46.26913" lon="4.82331">
        <ele>168.40039</ele>
        <time>2026-05-13T14:25:11+02:00</time>
        <extensions>
          <gpxtpx:TrackPointExtension xmlns:gpxtpx="http://www.garmin.com/xmlschemas/TrackPointExtension/v1">
            <gpxtpx:hr>167</gpxtpx:hr>
          </gpxtpx:TrackPointExtension>
        </extensions>
      </trkpt>
      <trkpt lat="46.26918" lon="4.82336">
        <ele>168.40039</ele>
        <time>2026-05-13T14:25:12+02:00</time>
        <extensions>
          <gpxtpx:TrackPointExtension xmlns:gpxtpx="http://www.garmin.com/xmlschemas/TrackPointExtension/v1">
            <gpxtpx:hr>167</gpxtpx:hr>
          </gpxtpx:TrackPointExtension>
        </extensions>
      </trkpt>
      <trkpt lat="46.26924" lon="4.82341">
        <ele>168.2998</ele>
        <time>2026-05-13T14:25:13+02:00</time>
        <extensions>
          <gpxtpx:TrackPointExtension xmlns:gpxtpx="http://www.garmin.com/xmlschemas/TrackPointExtension/v1">
            <gpxtpx:hr>168</gpxtpx:hr>
          </gpxtpx:TrackPointExtension>
        </extensions>
      </trkpt>
      <trkpt lat="46.26929" lon="4.82346">
        <ele>168.2998</ele>
        <time>2026-05-13T14:25:14+02:00</time>
        <extensions>
          <gpxtpx:TrackPointExtension xmlns:gpxtpx="http://www.garmin.com/xmlschemas/TrackPointExtension/v1">
            <gpxtpx:hr>169</gpxtpx:hr>
          </gpxtpx:TrackPointExtension>
        </extensions>
      </trkpt>
      <trkpt lat="46.26935" lon="4.82351">
        <ele>168.2998</ele>
        <time>2026-05-13T14:25:15+02:00</time>
        <extensions>
          <gpxtpx:TrackPointExtension xmlns:gpxtpx="http://www.garmin.com/xmlschemas/TrackPointExtension/v1">
            <gpxtpx:hr>169</gpxtpx:hr>
          </gpxtpx:TrackPointExtension>
        </extensions>
      </trkpt>
      <trkpt lat="46.2694" lon="4.82356">
        <ele>168.2998</ele>
        <time>2026-05-13T14:25:16+02:00</time>
        <extensions>
          <gpxtpx:TrackPointExtension xmlns:gpxtpx="http://www.garmin.com/xmlschemas/TrackPointExtension/v1">
            <gpxtpx:hr>168</gpxtpx:hr>
          </gpxtpx:TrackPointExtension>
        </extensions>
      </trkpt>
      <trkpt lat="46.26945" lon="4.8236">
        <ele>168.2998</ele>
        <time>2026-05-13T14:25:17+02:00</time>
        <extensions>
          <gpxtpx:TrackPointExtension xmlns:gpxtpx="http://www.garmin.com/xmlschemas/TrackPointExtension/v1">
            <gpxtpx:hr>168</gpxtpx:hr>
          </gpxtpx:TrackPointExtension>
        </extensions>
      </trkpt>
      <trkpt lat="46.26951" lon="4.82365">
        <ele>168.2998</ele>
        <time>2026-05-13T14:25:18+02:00</time>
        <extensions>
          <gpxtpx:TrackPointExtension xmlns:gpxtpx="http://www.garmin.com/xmlschemas/TrackPointExtension/v1">
            <gpxtpx:hr>168</gpxtpx:hr>
          </gpxtpx:TrackPointExtension>
        </extensions>
      </trkpt>
      <trkpt lat="46.26956" lon="4.82369">
        <ele>168.2998</ele>
        <time>2026-05-13T14:25:19+02:00</time>
        <extensions>
          <gpxtpx:TrackPointExtension xmlns:gpxtpx="http://www.garmin.com/xmlschemas/TrackPointExtension/v1">
            <gpxtpx:hr>169</gpxtpx:hr>
          </gpxtpx:TrackPointExtension>
        </extensions>
      </trkpt>
      <trkpt lat="46.26961" lon="4.82373">
        <ele>168.2998</ele>
        <time>2026-05-13T14:25:20+02:00</time>
        <extensions>
          <gpxtpx:TrackPointExtension xmlns:gpxtpx="http://www.garmin.com/xmlschemas/TrackPointExtension/v1">
            <gpxtpx:hr>169</gpxtpx:hr>
          </gpxtpx:TrackPointExtension>
        </extensions>
      </trkpt>
      <trkpt lat="46.26967" lon="4.82378">
        <ele>168.40039</ele>
        <time>2026-05-13T14:25:21+02:00</time>
        <extensions>
          <gpxtpx:TrackPointExtension xmlns:gpxtpx="http://www.garmin.com/xmlschemas/TrackPointExtension/v1">
            <gpxtpx:hr>168</gpxtpx:hr>
          </gpxtpx:TrackPointExtension>
        </extensions>
      </trkpt>
      <trkpt lat="46.26972" lon="4.82382">
        <ele>168.2998</ele>
        <time>2026-05-13T14:25:22+02:00</time>
        <extensions>
          <gpxtpx:TrackPointExtension xmlns:gpxtpx="http://www.garmin.com/xmlschemas/TrackPointExtension/v1">
            <gpxtpx:hr>168</gpxtpx:hr>
          </gpxtpx:TrackPointExtension>
        </extensions>
      </trkpt>
      <trkpt lat="46.26977" lon="4.82386">
        <ele>168.2998</ele>
        <time>2026-05-13T14:25:23+02:00</time>
        <extensions>
          <gpxtpx:TrackPointExtension xmlns:gpxtpx="http://www.garmin.com/xmlschemas/TrackPointExtension/v1">
            <gpxtpx:hr>169</gpxtpx:hr>
          </gpxtpx:TrackPointExtension>
        </extensions>
      </trkpt>
      <trkpt lat="46.26982" lon="4.8239">
        <ele>168.2998</ele>
        <time>2026-05-13T14:25:24+02:00</time>
        <extensions>
          <gpxtpx:TrackPointExtension xmlns:gpxtpx="http://www.garmin.com/xmlschemas/TrackPointExtension/v1">
            <gpxtpx:hr>169</gpxtpx:hr>
          </gpxtpx:TrackPointExtension>
        </extensions>
      </trkpt>
      <trkpt lat="46.26988" lon="4.82394">
        <ele>168.2998</ele>
        <time>2026-05-13T14:25:25+02:00</time>
        <extensions>
          <gpxtpx:TrackPointExtension xmlns:gpxtpx="http://www.garmin.com/xmlschemas/TrackPointExtension/v1">
            <gpxtpx:hr>168</gpxtpx:hr>
          </gpxtpx:TrackPointExtension>
        </extensions>
      </trkpt>
      <trkpt lat="46.26993" lon="4.82398">
        <ele>168.2998</ele>
        <time>2026-05-13T14:25:26+02:00</time>
        <extensions>
          <gpxtpx:TrackPointExtension xmlns:gpxtpx="http://www.garmin.com/xmlschemas/TrackPointExtension/v1">
            <gpxtpx:hr>168</gpxtpx:hr>
          </gpxtpx:TrackPointExtension>
        </extensions>
      </trkpt>
      <trkpt lat="46.26999" lon="4.82402">
        <ele>168.2998</ele>
        <time>2026-05-13T14:25:27+02:00</time>
        <extensions>
          <gpxtpx:TrackPointExtension xmlns:gpxtpx="http://www.garmin.com/xmlschemas/TrackPointExtension/v1">
            <gpxtpx:hr>168</gpxtpx:hr>
          </gpxtpx:TrackPointExtension>
        </extensions>
      </trkpt>
      <trkpt lat="46.27004" lon="4.82406">
        <ele>168.2998</ele>
        <time>2026-05-13T14:25:28+02:00</time>
        <extensions>
          <gpxtpx:TrackPointExtension xmlns:gpxtpx="http://www.garmin.com/xmlschemas/TrackPointExtension/v1">
            <gpxtpx:hr>168</gpxtpx:hr>
          </gpxtpx:TrackPointExtension>
        </extensions>
      </trkpt>
      <trkpt lat="46.2701" lon="4.8241">
        <ele>168.2998</ele>
        <time>2026-05-13T14:25:29+02:00</time>
        <extensions>
          <gpxtpx:TrackPointExtension xmlns:gpxtpx="http://www.garmin.com/xmlschemas/TrackPointExtension/v1">
            <gpxtpx:hr>167</gpxtpx:hr>
          </gpxtpx:TrackPointExtension>
        </extensions>
      </trkpt>
      <trkpt lat="46.27015" lon="4.82415">
        <ele>168.40039</ele>
        <time>2026-05-13T14:25:30+02:00</time>
        <extensions>
          <gpxtpx:TrackPointExtension xmlns:gpxtpx="http://www.garmin.com/xmlschemas/TrackPointExtension/v1">
            <gpxtpx:hr>167</gpxtpx:hr>
          </gpxtpx:TrackPointExtension>
        </extensions>
      </trkpt>
      <trkpt lat="46.27021" lon="4.82419">
        <ele>168.40039</ele>
        <time>2026-05-13T14:25:31+02:00</time>
        <extensions>
          <gpxtpx:TrackPointExtension xmlns:gpxtpx="http://www.garmin.com/xmlschemas/TrackPointExtension/v1">
            <gpxtpx:hr>167</gpxtpx:hr>
          </gpxtpx:TrackPointExtension>
        </extensions>
      </trkpt>
      <trkpt lat="46.27026" lon="4.82423">
        <ele>168.5</ele>
        <time>2026-05-13T14:25:32+02:00</time>
        <extensions>
          <gpxtpx:TrackPointExtension xmlns:gpxtpx="http://www.garmin.com/xmlschemas/TrackPointExtension/v1">
            <gpxtpx:hr>167</gpxtpx:hr>
          </gpxtpx:TrackPointExtension>
        </extensions>
      </trkpt>
      <trkpt lat="46.27032" lon="4.82427">
        <ele>168.5</ele>
        <time>2026-05-13T14:25:33+02:00</time>
        <extensions>
          <gpxtpx:TrackPointExtension xmlns:gpxtpx="http://www.garmin.com/xmlschemas/TrackPointExtension/v1">
            <gpxtpx:hr>167</gpxtpx:hr>
          </gpxtpx:TrackPointExtension>
        </extensions>
      </trkpt>
      <trkpt lat="46.27037" lon="4.82431">
        <ele>168.5</ele>
        <time>2026-05-13T14:25:34+02:00</time>
        <extensions>
          <gpxtpx:TrackPointExtension xmlns:gpxtpx="http://www.garmin.com/xmlschemas/TrackPointExtension/v1">
            <gpxtpx:hr>167</gpxtpx:hr>
          </gpxtpx:TrackPointExtension>
        </extensions>
      </trkpt>
      <trkpt lat="46.27043" lon="4.82436">
        <ele>168.5</ele>
        <time>2026-05-13T14:25:35+02:00</time>
        <extensions>
          <gpxtpx:TrackPointExtension xmlns:gpxtpx="http://www.garmin.com/xmlschemas/TrackPointExtension/v1">
            <gpxtpx:hr>167</gpxtpx:hr>
          </gpxtpx:TrackPointExtension>
        </extensions>
      </trkpt>
      <trkpt lat="46.27048" lon="4.8244">
        <ele>168.5</ele>
        <time>2026-05-13T14:25:36+02:00</time>
        <extensions>
          <gpxtpx:TrackPointExtension xmlns:gpxtpx="http://www.garmin.com/xmlschemas/TrackPointExtension/v1">
            <gpxtpx:hr>168</gpxtpx:hr>
          </gpxtpx:TrackPointExtension>
        </extensions>
      </trkpt>
      <trkpt lat="46.27054" lon="4.82444">
        <ele>168.5</ele>
        <time>2026-05-13T14:25:37+02:00</time>
        <extensions>
          <gpxtpx:TrackPointExtension xmlns:gpxtpx="http://www.garmin.com/xmlschemas/TrackPointExtension/v1">
            <gpxtpx:hr>168</gpxtpx:hr>
          </gpxtpx:TrackPointExtension>
        </extensions>
      </trkpt>
      <trkpt lat="46.2706" lon="4.82448">
        <ele>168.5</ele>
        <time>2026-05-13T14:25:38+02:00</time>
        <extensions>
          <gpxtpx:TrackPointExtension xmlns:gpxtpx="http://www.garmin.com/xmlschemas/TrackPointExtension/v1">
            <gpxtpx:hr>168</gpxtpx:hr>
          </gpxtpx:TrackPointExtension>
        </extensions>
      </trkpt>
      <trkpt lat="46.27065" lon="4.82452">
        <ele>168.5</ele>
        <time>2026-05-13T14:25:39+02:00</time>
        <extensions>
          <gpxtpx:TrackPointExtension xmlns:gpxtpx="http://www.garmin.com/xmlschemas/TrackPointExtension/v1">
            <gpxtpx:hr>169</gpxtpx:hr>
          </gpxtpx:TrackPointExtension>
        </extensions>
      </trkpt>
      <trkpt lat="46.27071" lon="4.82457">
        <ele>168.5</ele>
        <time>2026-05-13T14:25:40+02:00</time>
        <extensions>
          <gpxtpx:TrackPointExtension xmlns:gpxtpx="http://www.garmin.com/xmlschemas/TrackPointExtension/v1">
            <gpxtpx:hr>169</gpxtpx:hr>
          </gpxtpx:TrackPointExtension>
        </extensions>
      </trkpt>
      <trkpt lat="46.27077" lon="4.82461">
        <ele>168.40039</ele>
        <time>2026-05-13T14:25:41+02:00</time>
        <extensions>
          <gpxtpx:TrackPointExtension xmlns:gpxtpx="http://www.garmin.com/xmlschemas/TrackPointExtension/v1">
            <gpxtpx:hr>169</gpxtpx:hr>
          </gpxtpx:TrackPointExtension>
        </extensions>
      </trkpt>
      <trkpt lat="46.27083" lon="4.82465">
        <ele>168.40039</ele>
        <time>2026-05-13T14:25:42+02:00</time>
        <extensions>
          <gpxtpx:TrackPointExtension xmlns:gpxtpx="http://www.garmin.com/xmlschemas/TrackPointExtension/v1">
            <gpxtpx:hr>170</gpxtpx:hr>
          </gpxtpx:TrackPointExtension>
        </extensions>
      </trkpt>
      <trkpt lat="46.27088" lon="4.82469">
        <ele>168.40039</ele>
        <time>2026-05-13T14:25:43+02:00</time>
        <extensions>
          <gpxtpx:TrackPointExtension xmlns:gpxtpx="http://www.garmin.com/xmlschemas/TrackPointExtension/v1">
            <gpxtpx:hr>169</gpxtpx:hr>
          </gpxtpx:TrackPointExtension>
        </extensions>
      </trkpt>
      <trkpt lat="46.27094" lon="4.82474">
        <ele>168.40039</ele>
        <time>2026-05-13T14:25:44+02:00</time>
        <extensions>
          <gpxtpx:TrackPointExtension xmlns:gpxtpx="http://www.garmin.com/xmlschemas/TrackPointExtension/v1">
            <gpxtpx:hr>170</gpxtpx:hr>
          </gpxtpx:TrackPointExtension>
        </extensions>
      </trkpt>
      <trkpt lat="46.27099" lon="4.82478">
        <ele>168.40039</ele>
        <time>2026-05-13T14:25:45+02:00</time>
        <extensions>
          <gpxtpx:TrackPointExtension xmlns:gpxtpx="http://www.garmin.com/xmlschemas/TrackPointExtension/v1">
            <gpxtpx:hr>170</gpxtpx:hr>
          </gpxtpx:TrackPointExtension>
        </extensions>
      </trkpt>
      <trkpt lat="46.27105" lon="4.82482">
        <ele>168.40039</ele>
        <time>2026-05-13T14:25:46+02:00</time>
        <extensions>
          <gpxtpx:TrackPointExtension xmlns:gpxtpx="http://www.garmin.com/xmlschemas/TrackPointExtension/v1">
            <gpxtpx:hr>170</gpxtpx:hr>
          </gpxtpx:TrackPointExtension>
        </extensions>
      </trkpt>
      <trkpt lat="46.2711" lon="4.82487">
        <ele>168.5</ele>
        <time>2026-05-13T14:25:47+02:00</time>
        <extensions>
          <gpxtpx:TrackPointExtension xmlns:gpxtpx="http://www.garmin.com/xmlschemas/TrackPointExtension/v1">
            <gpxtpx:hr>171</gpxtpx:hr>
          </gpxtpx:TrackPointExtension>
        </extensions>
      </trkpt>
      <trkpt lat="46.27116" lon="4.82491">
        <ele>168.60059</ele>
        <time>2026-05-13T14:25:48+02:00</time>
        <extensions>
          <gpxtpx:TrackPointExtension xmlns:gpxtpx="http://www.garmin.com/xmlschemas/TrackPointExtension/v1">
            <gpxtpx:hr>171</gpxtpx:hr>
          </gpxtpx:TrackPointExtension>
        </extensions>
      </trkpt>
      <trkpt lat="46.27121" lon="4.82496">
        <ele>168.60059</ele>
        <time>2026-05-13T14:25:49+02:00</time>
        <extensions>
          <gpxtpx:TrackPointExtension xmlns:gpxtpx="http://www.garmin.com/xmlschemas/TrackPointExtension/v1">
            <gpxtpx:hr>172</gpxtpx:hr>
          </gpxtpx:TrackPointExtension>
        </extensions>
      </trkpt>
      <trkpt lat="46.27126" lon="4.82501">
        <ele>169</ele>
        <time>2026-05-13T14:25:50+02:00</time>
        <extensions>
          <gpxtpx:TrackPointExtension xmlns:gpxtpx="http://www.garmin.com/xmlschemas/TrackPointExtension/v1">
            <gpxtpx:hr>171</gpxtpx:hr>
          </gpxtpx:TrackPointExtension>
        </extensions>
      </trkpt>
      <trkpt lat="46.27131" lon="4.82506">
        <ele>169.60059</ele>
        <time>2026-05-13T14:25:51+02:00</time>
        <extensions>
          <gpxtpx:TrackPointExtension xmlns:gpxtpx="http://www.garmin.com/xmlschemas/TrackPointExtension/v1">
            <gpxtpx:hr>171</gpxtpx:hr>
          </gpxtpx:TrackPointExtension>
        </extensions>
      </trkpt>
      <trkpt lat="46.27136" lon="4.82511">
        <ele>169.5</ele>
        <time>2026-05-13T14:25:52+02:00</time>
        <extensions>
          <gpxtpx:TrackPointExtension xmlns:gpxtpx="http://www.garmin.com/xmlschemas/TrackPointExtension/v1">
            <gpxtpx:hr>172</gpxtpx:hr>
          </gpxtpx:TrackPointExtension>
        </extensions>
      </trkpt>
      <trkpt lat="46.27141" lon="4.82517">
        <ele>169.5</ele>
        <time>2026-05-13T14:25:53+02:00</time>
        <extensions>
          <gpxtpx:TrackPointExtension xmlns:gpxtpx="http://www.garmin.com/xmlschemas/TrackPointExtension/v1">
            <gpxtpx:hr>172</gpxtpx:hr>
          </gpxtpx:TrackPointExtension>
        </extensions>
      </trkpt>
      <trkpt lat="46.27146" lon="4.82522">
        <ele>169</ele>
        <time>2026-05-13T14:25:54+02:00</time>
        <extensions>
          <gpxtpx:TrackPointExtension xmlns:gpxtpx="http://www.garmin.com/xmlschemas/TrackPointExtension/v1">
            <gpxtpx:hr>172</gpxtpx:hr>
          </gpxtpx:TrackPointExtension>
        </extensions>
      </trkpt>
      <trkpt lat="46.27151" lon="4.82527">
        <ele>169.2002</ele>
        <time>2026-05-13T14:25:55+02:00</time>
        <extensions>
          <gpxtpx:TrackPointExtension xmlns:gpxtpx="http://www.garmin.com/xmlschemas/TrackPointExtension/v1">
            <gpxtpx:hr>172</gpxtpx:hr>
          </gpxtpx:TrackPointExtension>
        </extensions>
      </trkpt>
      <trkpt lat="46.27156" lon="4.82532">
        <ele>169.5</ele>
        <time>2026-05-13T14:25:56+02:00</time>
        <extensions>
          <gpxtpx:TrackPointExtension xmlns:gpxtpx="http://www.garmin.com/xmlschemas/TrackPointExtension/v1">
            <gpxtpx:hr>172</gpxtpx:hr>
          </gpxtpx:TrackPointExtension>
        </extensions>
      </trkpt>
      <trkpt lat="46.27161" lon="4.82536">
        <ele>169.40039</ele>
        <time>2026-05-13T14:25:57+02:00</time>
        <extensions>
          <gpxtpx:TrackPointExtension xmlns:gpxtpx="http://www.garmin.com/xmlschemas/TrackPointExtension/v1">
            <gpxtpx:hr>172</gpxtpx:hr>
          </gpxtpx:TrackPointExtension>
        </extensions>
      </trkpt>
      <trkpt lat="46.27166" lon="4.82541">
        <ele>169.90039</ele>
        <time>2026-05-13T14:25:58+02:00</time>
        <extensions>
          <gpxtpx:TrackPointExtension xmlns:gpxtpx="http://www.garmin.com/xmlschemas/TrackPointExtension/v1">
            <gpxtpx:hr>172</gpxtpx:hr>
          </gpxtpx:TrackPointExtension>
        </extensions>
      </trkpt>
      <trkpt lat="46.2717" lon="4.82546">
        <ele>169.5</ele>
        <time>2026-05-13T14:25:59+02:00</time>
        <extensions>
          <gpxtpx:TrackPointExtension xmlns:gpxtpx="http://www.garmin.com/xmlschemas/TrackPointExtension/v1">
            <gpxtpx:hr>172</gpxtpx:hr>
          </gpxtpx:TrackPointExtension>
        </extensions>
      </trkpt>
      <trkpt lat="46.27175" lon="4.82552">
        <ele>169.2998</ele>
        <time>2026-05-13T14:26:00+02:00</time>
        <extensions>
          <gpxtpx:TrackPointExtension xmlns:gpxtpx="http://www.garmin.com/xmlschemas/TrackPointExtension/v1">
            <gpxtpx:hr>172</gpxtpx:hr>
          </gpxtpx:TrackPointExtension>
        </extensions>
      </trkpt>
      <trkpt lat="46.2718" lon="4.82557">
        <ele>169.2998</ele>
        <time>2026-05-13T14:26:01+02:00</time>
        <extensions>
          <gpxtpx:TrackPointExtension xmlns:gpxtpx="http://www.garmin.com/xmlschemas/TrackPointExtension/v1">
            <gpxtpx:hr>172</gpxtpx:hr>
          </gpxtpx:TrackPointExtension>
        </extensions>
      </trkpt>
      <trkpt lat="46.27186" lon="4.82562">
        <ele>169.7002</ele>
        <time>2026-05-13T14:26:02+02:00</time>
        <extensions>
          <gpxtpx:TrackPointExtension xmlns:gpxtpx="http://www.garmin.com/xmlschemas/TrackPointExtension/v1">
            <gpxtpx:hr>172</gpxtpx:hr>
          </gpxtpx:TrackPointExtension>
        </extensions>
      </trkpt>
      <trkpt lat="46.27191" lon="4.82567">
        <ele>170.2998</ele>
        <time>2026-05-13T14:26:03+02:00</time>
        <extensions>
          <gpxtpx:TrackPointExtension xmlns:gpxtpx="http://www.garmin.com/xmlschemas/TrackPointExtension/v1">
            <gpxtpx:hr>173</gpxtpx:hr>
          </gpxtpx:TrackPointExtension>
        </extensions>
      </trkpt>
      <trkpt lat="46.27197" lon="4.82572">
        <ele>170</ele>
        <time>2026-05-13T14:26:04+02:00</time>
        <extensions>
          <gpxtpx:TrackPointExtension xmlns:gpxtpx="http://www.garmin.com/xmlschemas/TrackPointExtension/v1">
            <gpxtpx:hr>173</gpxtpx:hr>
          </gpxtpx:TrackPointExtension>
        </extensions>
      </trkpt>
      <trkpt lat="46.27202" lon="4.82577">
        <ele>170.10059</ele>
        <time>2026-05-13T14:26:05+02:00</time>
        <extensions>
          <gpxtpx:TrackPointExtension xmlns:gpxtpx="http://www.garmin.com/xmlschemas/TrackPointExtension/v1">
            <gpxtpx:hr>173</gpxtpx:hr>
          </gpxtpx:TrackPointExtension>
        </extensions>
      </trkpt>
      <trkpt lat="46.27208" lon="4.82582">
        <ele>169.7998</ele>
        <time>2026-05-13T14:26:06+02:00</time>
        <extensions>
          <gpxtpx:TrackPointExtension xmlns:gpxtpx="http://www.garmin.com/xmlschemas/TrackPointExtension/v1">
            <gpxtpx:hr>173</gpxtpx:hr>
          </gpxtpx:TrackPointExtension>
        </extensions>
      </trkpt>
      <trkpt lat="46.27213" lon="4.82587">
        <ele>169.60059</ele>
        <time>2026-05-13T14:26:07+02:00</time>
        <extensions>
          <gpxtpx:TrackPointExtension xmlns:gpxtpx="http://www.garmin.com/xmlschemas/TrackPointExtension/v1">
            <gpxtpx:hr>173</gpxtpx:hr>
          </gpxtpx:TrackPointExtension>
        </extensions>
      </trkpt>
      <trkpt lat="46.27219" lon="4.82592">
        <ele>169.2998</ele>
        <time>2026-05-13T14:26:08+02:00</time>
        <extensions>
          <gpxtpx:TrackPointExtension xmlns:gpxtpx="http://www.garmin.com/xmlschemas/TrackPointExtension/v1">
            <gpxtpx:hr>173</gpxtpx:hr>
          </gpxtpx:TrackPointExtension>
        </extensions>
      </trkpt>
      <trkpt lat="46.27224" lon="4.82596">
        <ele>169</ele>
        <time>2026-05-13T14:26:09+02:00</time>
        <extensions>
          <gpxtpx:TrackPointExtension xmlns:gpxtpx="http://www.garmin.com/xmlschemas/TrackPointExtension/v1">
            <gpxtpx:hr>173</gpxtpx:hr>
          </gpxtpx:TrackPointExtension>
        </extensions>
      </trkpt>
      <trkpt lat="46.2723" lon="4.826">
        <ele>168.7998</ele>
        <time>2026-05-13T14:26:10+02:00</time>
        <extensions>
          <gpxtpx:TrackPointExtension xmlns:gpxtpx="http://www.garmin.com/xmlschemas/TrackPointExtension/v1">
            <gpxtpx:hr>173</gpxtpx:hr>
          </gpxtpx:TrackPointExtension>
        </extensions>
      </trkpt>
      <trkpt lat="46.27236" lon="4.82605">
        <ele>168.7002</ele>
        <time>2026-05-13T14:26:11+02:00</time>
        <extensions>
          <gpxtpx:TrackPointExtension xmlns:gpxtpx="http://www.garmin.com/xmlschemas/TrackPointExtension/v1">
            <gpxtpx:hr>173</gpxtpx:hr>
          </gpxtpx:TrackPointExtension>
        </extensions>
      </trkpt>
      <trkpt lat="46.27241" lon="4.82609">
        <ele>168.60059</ele>
        <time>2026-05-13T14:26:12+02:00</time>
        <extensions>
          <gpxtpx:TrackPointExtension xmlns:gpxtpx="http://www.garmin.com/xmlschemas/TrackPointExtension/v1">
            <gpxtpx:hr>173</gpxtpx:hr>
          </gpxtpx:TrackPointExtension>
        </extensions>
      </trkpt>
      <trkpt lat="46.27247" lon="4.82614">
        <ele>168.40039</ele>
        <time>2026-05-13T14:26:13+02:00</time>
        <extensions>
          <gpxtpx:TrackPointExtension xmlns:gpxtpx="http://www.garmin.com/xmlschemas/TrackPointExtension/v1">
            <gpxtpx:hr>172</gpxtpx:hr>
          </gpxtpx:TrackPointExtension>
        </extensions>
      </trkpt>
      <trkpt lat="46.27253" lon="4.82618">
        <ele>168.40039</ele>
        <time>2026-05-13T14:26:14+02:00</time>
        <extensions>
          <gpxtpx:TrackPointExtension xmlns:gpxtpx="http://www.garmin.com/xmlschemas/TrackPointExtension/v1">
            <gpxtpx:hr>173</gpxtpx:hr>
          </gpxtpx:TrackPointExtension>
        </extensions>
      </trkpt>
      <trkpt lat="46.27258" lon="4.82622">
        <ele>168.40039</ele>
        <time>2026-05-13T14:26:15+02:00</time>
        <extensions>
          <gpxtpx:TrackPointExtension xmlns:gpxtpx="http://www.garmin.com/xmlschemas/TrackPointExtension/v1">
            <gpxtpx:hr>174</gpxtpx:hr>
          </gpxtpx:TrackPointExtension>
        </extensions>
      </trkpt>
      <trkpt lat="46.27264" lon="4.82626">
        <ele>168.2998</ele>
        <time>2026-05-13T14:26:16+02:00</time>
        <extensions>
          <gpxtpx:TrackPointExtension xmlns:gpxtpx="http://www.garmin.com/xmlschemas/TrackPointExtension/v1">
            <gpxtpx:hr>173</gpxtpx:hr>
          </gpxtpx:TrackPointExtension>
        </extensions>
      </trkpt>
      <trkpt lat="46.2727" lon="4.82631">
        <ele>168.2998</ele>
        <time>2026-05-13T14:26:17+02:00</time>
        <extensions>
          <gpxtpx:TrackPointExtension xmlns:gpxtpx="http://www.garmin.com/xmlschemas/TrackPointExtension/v1">
            <gpxtpx:hr>174</gpxtpx:hr>
          </gpxtpx:TrackPointExtension>
        </extensions>
      </trkpt>
      <trkpt lat="46.27276" lon="4.82635">
        <ele>168.2998</ele>
        <time>2026-05-13T14:26:18+02:00</time>
        <extensions>
          <gpxtpx:TrackPointExtension xmlns:gpxtpx="http://www.garmin.com/xmlschemas/TrackPointExtension/v1">
            <gpxtpx:hr>174</gpxtpx:hr>
          </gpxtpx:TrackPointExtension>
        </extensions>
      </trkpt>
      <trkpt lat="46.27281" lon="4.82639">
        <ele>168.2998</ele>
        <time>2026-05-13T14:26:19+02:00</time>
        <extensions>
          <gpxtpx:TrackPointExtension xmlns:gpxtpx="http://www.garmin.com/xmlschemas/TrackPointExtension/v1">
            <gpxtpx:hr>174</gpxtpx:hr>
          </gpxtpx:TrackPointExtension>
        </extensions>
      </trkpt>
      <trkpt lat="46.27287" lon="4.82644">
        <ele>168.2998</ele>
        <time>2026-05-13T14:26:20+02:00</time>
        <extensions>
          <gpxtpx:TrackPointExtension xmlns:gpxtpx="http://www.garmin.com/xmlschemas/TrackPointExtension/v1">
            <gpxtpx:hr>174</gpxtpx:hr>
          </gpxtpx:TrackPointExtension>
        </extensions>
      </trkpt>
      <trkpt lat="46.27293" lon="4.82648">
        <ele>168.2998</ele>
        <time>2026-05-13T14:26:21+02:00</time>
        <extensions>
          <gpxtpx:TrackPointExtension xmlns:gpxtpx="http://www.garmin.com/xmlschemas/TrackPointExtension/v1">
            <gpxtpx:hr>174</gpxtpx:hr>
          </gpxtpx:TrackPointExtension>
        </extensions>
      </trkpt>
      <trkpt lat="46.27298" lon="4.82652">
        <ele>168.2998</ele>
        <time>2026-05-13T14:26:22+02:00</time>
        <extensions>
          <gpxtpx:TrackPointExtension xmlns:gpxtpx="http://www.garmin.com/xmlschemas/TrackPointExtension/v1">
            <gpxtpx:hr>174</gpxtpx:hr>
          </gpxtpx:TrackPointExtension>
        </extensions>
      </trkpt>
      <trkpt lat="46.27304" lon="4.82656">
        <ele>168.2998</ele>
        <time>2026-05-13T14:26:23+02:00</time>
        <extensions>
          <gpxtpx:TrackPointExtension xmlns:gpxtpx="http://www.garmin.com/xmlschemas/TrackPointExtension/v1">
            <gpxtpx:hr>173</gpxtpx:hr>
          </gpxtpx:TrackPointExtension>
        </extensions>
      </trkpt>
      <trkpt lat="46.2731" lon="4.82661">
        <ele>168.2998</ele>
        <time>2026-05-13T14:26:24+02:00</time>
        <extensions>
          <gpxtpx:TrackPointExtension xmlns:gpxtpx="http://www.garmin.com/xmlschemas/TrackPointExtension/v1">
            <gpxtpx:hr>174</gpxtpx:hr>
          </gpxtpx:TrackPointExtension>
        </extensions>
      </trkpt>
      <trkpt lat="46.27316" lon="4.82664">
        <ele>168.2998</ele>
        <time>2026-05-13T14:26:25+02:00</time>
        <extensions>
          <gpxtpx:TrackPointExtension xmlns:gpxtpx="http://www.garmin.com/xmlschemas/TrackPointExtension/v1">
            <gpxtpx:hr>173</gpxtpx:hr>
          </gpxtpx:TrackPointExtension>
        </extensions>
      </trkpt>
      <trkpt lat="46.27322" lon="4.82667">
        <ele>168.2998</ele>
        <time>2026-05-13T14:26:26+02:00</time>
        <extensions>
          <gpxtpx:TrackPointExtension xmlns:gpxtpx="http://www.garmin.com/xmlschemas/TrackPointExtension/v1">
            <gpxtpx:hr>174</gpxtpx:hr>
          </gpxtpx:TrackPointExtension>
        </extensions>
      </trkpt>
      <trkpt lat="46.27328" lon="4.8267">
        <ele>168.40039</ele>
        <time>2026-05-13T14:26:27+02:00</time>
        <extensions>
          <gpxtpx:TrackPointExtension xmlns:gpxtpx="http://www.garmin.com/xmlschemas/TrackPointExtension/v1">
            <gpxtpx:hr>174</gpxtpx:hr>
          </gpxtpx:TrackPointExtension>
        </extensions>
      </trkpt>
      <trkpt lat="46.27334" lon="4.82672">
        <ele>168.40039</ele>
        <time>2026-05-13T14:26:28+02:00</time>
        <extensions>
          <gpxtpx:TrackPointExtension xmlns:gpxtpx="http://www.garmin.com/xmlschemas/TrackPointExtension/v1">
            <gpxtpx:hr>174</gpxtpx:hr>
          </gpxtpx:TrackPointExtension>
        </extensions>
      </trkpt>
      <trkpt lat="46.27341" lon="4.82674">
        <ele>168.40039</ele>
        <time>2026-05-13T14:26:29+02:00</time>
        <extensions>
          <gpxtpx:TrackPointExtension xmlns:gpxtpx="http://www.garmin.com/xmlschemas/TrackPointExtension/v1">
            <gpxtpx:hr>174</gpxtpx:hr>
          </gpxtpx:TrackPointExtension>
        </extensions>
      </trkpt>
      <trkpt lat="46.27347" lon="4.82676">
        <ele>168.40039</ele>
        <time>2026-05-13T14:26:30+02:00</time>
        <extensions>
          <gpxtpx:TrackPointExtension xmlns:gpxtpx="http://www.garmin.com/xmlschemas/TrackPointExtension/v1">
            <gpxtpx:hr>175</gpxtpx:hr>
          </gpxtpx:TrackPointExtension>
        </extensions>
      </trkpt>
      <trkpt lat="46.27354" lon="4.82677">
        <ele>168.40039</ele>
        <time>2026-05-13T14:26:31+02:00</time>
        <extensions>
          <gpxtpx:TrackPointExtension xmlns:gpxtpx="http://www.garmin.com/xmlschemas/TrackPointExtension/v1">
            <gpxtpx:hr>174</gpxtpx:hr>
          </gpxtpx:TrackPointExtension>
        </extensions>
      </trkpt>
      <trkpt lat="46.2736" lon="4.82679">
        <ele>168.5</ele>
        <time>2026-05-13T14:26:32+02:00</time>
        <extensions>
          <gpxtpx:TrackPointExtension xmlns:gpxtpx="http://www.garmin.com/xmlschemas/TrackPointExtension/v1">
            <gpxtpx:hr>174</gpxtpx:hr>
          </gpxtpx:TrackPointExtension>
        </extensions>
      </trkpt>
      <trkpt lat="46.27366" lon="4.8268">
        <ele>168.40039</ele>
        <time>2026-05-13T14:26:33+02:00</time>
        <extensions>
          <gpxtpx:TrackPointExtension xmlns:gpxtpx="http://www.garmin.com/xmlschemas/TrackPointExtension/v1">
            <gpxtpx:hr>175</gpxtpx:hr>
          </gpxtpx:TrackPointExtension>
        </extensions>
      </trkpt>
      <trkpt lat="46.27372" lon="4.82682">
        <ele>168.40039</ele>
        <time>2026-05-13T14:26:34+02:00</time>
        <extensions>
          <gpxtpx:TrackPointExtension xmlns:gpxtpx="http://www.garmin.com/xmlschemas/TrackPointExtension/v1">
            <gpxtpx:hr>174</gpxtpx:hr>
          </gpxtpx:TrackPointExtension>
        </extensions>
      </trkpt>
      <trkpt lat="46.27378" lon="4.82684">
        <ele>168.40039</ele>
        <time>2026-05-13T14:26:35+02:00</time>
        <extensions>
          <gpxtpx:TrackPointExtension xmlns:gpxtpx="http://www.garmin.com/xmlschemas/TrackPointExtension/v1">
            <gpxtpx:hr>175</gpxtpx:hr>
          </gpxtpx:TrackPointExtension>
        </extensions>
      </trkpt>
      <trkpt lat="46.27384" lon="4.82687">
        <ele>168.2998</ele>
        <time>2026-05-13T14:26:36+02:00</time>
        <extensions>
          <gpxtpx:TrackPointExtension xmlns:gpxtpx="http://www.garmin.com/xmlschemas/TrackPointExtension/v1">
            <gpxtpx:hr>175</gpxtpx:hr>
          </gpxtpx:TrackPointExtension>
        </extensions>
      </trkpt>
      <trkpt lat="46.2739" lon="4.82691">
        <ele>168.2998</ele>
        <time>2026-05-13T14:26:37+02:00</time>
        <extensions>
          <gpxtpx:TrackPointExtension xmlns:gpxtpx="http://www.garmin.com/xmlschemas/TrackPointExtension/v1">
            <gpxtpx:hr>175</gpxtpx:hr>
          </gpxtpx:TrackPointExtension>
        </extensions>
      </trkpt>
      <trkpt lat="46.27396" lon="4.82694">
        <ele>168.2998</ele>
        <time>2026-05-13T14:26:38+02:00</time>
        <extensions>
          <gpxtpx:TrackPointExtension xmlns:gpxtpx="http://www.garmin.com/xmlschemas/TrackPointExtension/v1">
            <gpxtpx:hr>175</gpxtpx:hr>
          </gpxtpx:TrackPointExtension>
        </extensions>
      </trkpt>
      <trkpt lat="46.27401" lon="4.82697">
        <ele>168.5</ele>
        <time>2026-05-13T14:26:39+02:00</time>
        <extensions>
          <gpxtpx:TrackPointExtension xmlns:gpxtpx="http://www.garmin.com/xmlschemas/TrackPointExtension/v1">
            <gpxtpx:hr>174</gpxtpx:hr>
          </gpxtpx:TrackPointExtension>
        </extensions>
      </trkpt>
      <trkpt lat="46.27408" lon="4.82701">
        <ele>168.5</ele>
        <time>2026-05-13T14:26:40+02:00</time>
        <extensions>
          <gpxtpx:TrackPointExtension xmlns:gpxtpx="http://www.garmin.com/xmlschemas/TrackPointExtension/v1">
            <gpxtpx:hr>175</gpxtpx:hr>
          </gpxtpx:TrackPointExtension>
        </extensions>
      </trkpt>
      <trkpt lat="46.27413" lon="4.82704">
        <ele>168.60059</ele>
        <time>2026-05-13T14:26:41+02:00</time>
        <extensions>
          <gpxtpx:TrackPointExtension xmlns:gpxtpx="http://www.garmin.com/xmlschemas/TrackPointExtension/v1">
            <gpxtpx:hr>175</gpxtpx:hr>
          </gpxtpx:TrackPointExtension>
        </extensions>
      </trkpt>
      <trkpt lat="46.27419" lon="4.82708">
        <ele>168.60059</ele>
        <time>2026-05-13T14:26:42+02:00</time>
        <extensions>
          <gpxtpx:TrackPointExtension xmlns:gpxtpx="http://www.garmin.com/xmlschemas/TrackPointExtension/v1">
            <gpxtpx:hr>175</gpxtpx:hr>
          </gpxtpx:TrackPointExtension>
        </extensions>
      </trkpt>
      <trkpt lat="46.27425" lon="4.82711">
        <ele>168.5</ele>
        <time>2026-05-13T14:26:43+02:00</time>
        <extensions>
          <gpxtpx:TrackPointExtension xmlns:gpxtpx="http://www.garmin.com/xmlschemas/TrackPointExtension/v1">
            <gpxtpx:hr>175</gpxtpx:hr>
          </gpxtpx:TrackPointExtension>
        </extensions>
      </trkpt>
      <trkpt lat="46.27431" lon="4.82715">
        <ele>168.40039</ele>
        <time>2026-05-13T14:26:44+02:00</time>
        <extensions>
          <gpxtpx:TrackPointExtension xmlns:gpxtpx="http://www.garmin.com/xmlschemas/TrackPointExtension/v1">
            <gpxtpx:hr>175</gpxtpx:hr>
          </gpxtpx:TrackPointExtension>
        </extensions>
      </trkpt>
      <trkpt lat="46.27437" lon="4.82718">
        <ele>168.40039</ele>
        <time>2026-05-13T14:26:45+02:00</time>
        <extensions>
          <gpxtpx:TrackPointExtension xmlns:gpxtpx="http://www.garmin.com/xmlschemas/TrackPointExtension/v1">
            <gpxtpx:hr>175</gpxtpx:hr>
          </gpxtpx:TrackPointExtension>
        </extensions>
      </trkpt>
      <trkpt lat="46.27443" lon="4.82723">
        <ele>168.40039</ele>
        <time>2026-05-13T14:26:46+02:00</time>
        <extensions>
          <gpxtpx:TrackPointExtension xmlns:gpxtpx="http://www.garmin.com/xmlschemas/TrackPointExtension/v1">
            <gpxtpx:hr>176</gpxtpx:hr>
          </gpxtpx:TrackPointExtension>
        </extensions>
      </trkpt>
      <trkpt lat="46.27448" lon="4.82728">
        <ele>168.5</ele>
        <time>2026-05-13T14:26:47+02:00</time>
        <extensions>
          <gpxtpx:TrackPointExtension xmlns:gpxtpx="http://www.garmin.com/xmlschemas/TrackPointExtension/v1">
            <gpxtpx:hr>176</gpxtpx:hr>
          </gpxtpx:TrackPointExtension>
        </extensions>
      </trkpt>
      <trkpt lat="46.27453" lon="4.82732">
        <ele>168.60059</ele>
        <time>2026-05-13T14:26:48+02:00</time>
        <extensions>
          <gpxtpx:TrackPointExtension xmlns:gpxtpx="http://www.garmin.com/xmlschemas/TrackPointExtension/v1">
            <gpxtpx:hr>176</gpxtpx:hr>
          </gpxtpx:TrackPointExtension>
        </extensions>
      </trkpt>
      <trkpt lat="46.27458" lon="4.82738">
        <ele>168.7998</ele>
        <time>2026-05-13T14:26:49+02:00</time>
        <extensions>
          <gpxtpx:TrackPointExtension xmlns:gpxtpx="http://www.garmin.com/xmlschemas/TrackPointExtension/v1">
            <gpxtpx:hr>176</gpxtpx:hr>
          </gpxtpx:TrackPointExtension>
        </extensions>
      </trkpt>
      <trkpt lat="46.27463" lon="4.82743">
        <ele>168.7002</ele>
        <time>2026-05-13T14:26:50+02:00</time>
        <extensions>
          <gpxtpx:TrackPointExtension xmlns:gpxtpx="http://www.garmin.com/xmlschemas/TrackPointExtension/v1">
            <gpxtpx:hr>176</gpxtpx:hr>
          </gpxtpx:TrackPointExtension>
        </extensions>
      </trkpt>
      <trkpt lat="46.27468" lon="4.82749">
        <ele>168.7002</ele>
        <time>2026-05-13T14:26:51+02:00</time>
        <extensions>
          <gpxtpx:TrackPointExtension xmlns:gpxtpx="http://www.garmin.com/xmlschemas/TrackPointExtension/v1">
            <gpxtpx:hr>176</gpxtpx:hr>
          </gpxtpx:TrackPointExtension>
        </extensions>
      </trkpt>
      <trkpt lat="46.27474" lon="4.82754">
        <ele>168.60059</ele>
        <time>2026-05-13T14:26:52+02:00</time>
        <extensions>
          <gpxtpx:TrackPointExtension xmlns:gpxtpx="http://www.garmin.com/xmlschemas/TrackPointExtension/v1">
            <gpxtpx:hr>176</gpxtpx:hr>
          </gpxtpx:TrackPointExtension>
        </extensions>
      </trkpt>
      <trkpt lat="46.27479" lon="4.82759">
        <ele>168.60059</ele>
        <time>2026-05-13T14:26:53+02:00</time>
        <extensions>
          <gpxtpx:TrackPointExtension xmlns:gpxtpx="http://www.garmin.com/xmlschemas/TrackPointExtension/v1">
            <gpxtpx:hr>177</gpxtpx:hr>
          </gpxtpx:TrackPointExtension>
        </extensions>
      </trkpt>
      <trkpt lat="46.27484" lon="4.82764">
        <ele>168.5</ele>
        <time>2026-05-13T14:26:54+02:00</time>
        <extensions>
          <gpxtpx:TrackPointExtension xmlns:gpxtpx="http://www.garmin.com/xmlschemas/TrackPointExtension/v1">
            <gpxtpx:hr>176</gpxtpx:hr>
          </gpxtpx:TrackPointExtension>
        </extensions>
      </trkpt>
      <trkpt lat="46.2749" lon="4.82769">
        <ele>168.5</ele>
        <time>2026-05-13T14:26:55+02:00</time>
        <extensions>
          <gpxtpx:TrackPointExtension xmlns:gpxtpx="http://www.garmin.com/xmlschemas/TrackPointExtension/v1">
            <gpxtpx:hr>177</gpxtpx:hr>
          </gpxtpx:TrackPointExtension>
        </extensions>
      </trkpt>
      <trkpt lat="46.27495" lon="4.82774">
        <ele>168.5</ele>
        <time>2026-05-13T14:26:56+02:00</time>
        <extensions>
          <gpxtpx:TrackPointExtension xmlns:gpxtpx="http://www.garmin.com/xmlschemas/TrackPointExtension/v1">
            <gpxtpx:hr>177</gpxtpx:hr>
          </gpxtpx:TrackPointExtension>
        </extensions>
      </trkpt>
      <trkpt lat="46.27501" lon="4.82778">
        <ele>168.40039</ele>
        <time>2026-05-13T14:26:57+02:00</time>
        <extensions>
          <gpxtpx:TrackPointExtension xmlns:gpxtpx="http://www.garmin.com/xmlschemas/TrackPointExtension/v1">
            <gpxtpx:hr>177</gpxtpx:hr>
          </gpxtpx:TrackPointExtension>
        </extensions>
      </trkpt>
      <trkpt lat="46.27506" lon="4.82782">
        <ele>168.40039</ele>
        <time>2026-05-13T14:26:58+02:00</time>
        <extensions>
          <gpxtpx:TrackPointExtension xmlns:gpxtpx="http://www.garmin.com/xmlschemas/TrackPointExtension/v1">
            <gpxtpx:hr>176</gpxtpx:hr>
          </gpxtpx:TrackPointExtension>
        </extensions>
      </trkpt>
      <trkpt lat="46.27512" lon="4.82786">
        <ele>168.2998</ele>
        <time>2026-05-13T14:26:59+02:00</time>
        <extensions>
          <gpxtpx:TrackPointExtension xmlns:gpxtpx="http://www.garmin.com/xmlschemas/TrackPointExtension/v1">
            <gpxtpx:hr>176</gpxtpx:hr>
          </gpxtpx:TrackPointExtension>
        </extensions>
      </trkpt>
      <trkpt lat="46.27517" lon="4.8279">
        <ele>168.5</ele>
        <time>2026-05-13T14:27:00+02:00</time>
        <extensions>
          <gpxtpx:TrackPointExtension xmlns:gpxtpx="http://www.garmin.com/xmlschemas/TrackPointExtension/v1">
            <gpxtpx:hr>176</gpxtpx:hr>
          </gpxtpx:TrackPointExtension>
        </extensions>
      </trkpt>
      <trkpt lat="46.27523" lon="4.82794">
        <ele>168.60059</ele>
        <time>2026-05-13T14:27:01+02:00</time>
        <extensions>
          <gpxtpx:TrackPointExtension xmlns:gpxtpx="http://www.garmin.com/xmlschemas/TrackPointExtension/v1">
            <gpxtpx:hr>177</gpxtpx:hr>
          </gpxtpx:TrackPointExtension>
        </extensions>
      </trkpt>
      <trkpt lat="46.27528" lon="4.82799">
        <ele>168.7002</ele>
        <time>2026-05-13T14:27:02+02:00</time>
        <extensions>
          <gpxtpx:TrackPointExtension xmlns:gpxtpx="http://www.garmin.com/xmlschemas/TrackPointExtension/v1">
            <gpxtpx:hr>177</gpxtpx:hr>
          </gpxtpx:TrackPointExtension>
        </extensions>
      </trkpt>
      <trkpt lat="46.27533" lon="4.82803">
        <ele>168.7002</ele>
        <time>2026-05-13T14:27:03+02:00</time>
        <extensions>
          <gpxtpx:TrackPointExtension xmlns:gpxtpx="http://www.garmin.com/xmlschemas/TrackPointExtension/v1">
            <gpxtpx:hr>177</gpxtpx:hr>
          </gpxtpx:TrackPointExtension>
        </extensions>
      </trkpt>
      <trkpt lat="46.27538" lon="4.82808">
        <ele>169</ele>
        <time>2026-05-13T14:27:04+02:00</time>
        <extensions>
          <gpxtpx:TrackPointExtension xmlns:gpxtpx="http://www.garmin.com/xmlschemas/TrackPointExtension/v1">
            <gpxtpx:hr>177</gpxtpx:hr>
          </gpxtpx:TrackPointExtension>
        </extensions>
      </trkpt>
      <trkpt lat="46.27544" lon="4.82812">
        <ele>169.2002</ele>
        <time>2026-05-13T14:27:05+02:00</time>
        <extensions>
          <gpxtpx:TrackPointExtension xmlns:gpxtpx="http://www.garmin.com/xmlschemas/TrackPointExtension/v1">
            <gpxtpx:hr>177</gpxtpx:hr>
          </gpxtpx:TrackPointExtension>
        </extensions>
      </trkpt>
      <trkpt lat="46.2755" lon="4.82815">
        <ele>169.7998</ele>
        <time>2026-05-13T14:27:06+02:00</time>
        <extensions>
          <gpxtpx:TrackPointExtension xmlns:gpxtpx="http://www.garmin.com/xmlschemas/TrackPointExtension/v1">
            <gpxtpx:hr>176</gpxtpx:hr>
          </gpxtpx:TrackPointExtension>
        </extensions>
      </trkpt>
      <trkpt lat="46.27556" lon="4.82819">
        <ele>169.90039</ele>
        <time>2026-05-13T14:27:07+02:00</time>
        <extensions>
          <gpxtpx:TrackPointExtension xmlns:gpxtpx="http://www.garmin.com/xmlschemas/TrackPointExtension/v1">
            <gpxtpx:hr>176</gpxtpx:hr>
          </gpxtpx:TrackPointExtension>
        </extensions>
      </trkpt>
      <trkpt lat="46.27561" lon="4.82823">
        <ele>170</ele>
        <time>2026-05-13T14:27:08+02:00</time>
        <extensions>
          <gpxtpx:TrackPointExtension xmlns:gpxtpx="http://www.garmin.com/xmlschemas/TrackPointExtension/v1">
            <gpxtpx:hr>176</gpxtpx:hr>
          </gpxtpx:TrackPointExtension>
        </extensions>
      </trkpt>
      <trkpt lat="46.27567" lon="4.82826">
        <ele>170.7998</ele>
        <time>2026-05-13T14:27:09+02:00</time>
        <extensions>
          <gpxtpx:TrackPointExtension xmlns:gpxtpx="http://www.garmin.com/xmlschemas/TrackPointExtension/v1">
            <gpxtpx:hr>176</gpxtpx:hr>
          </gpxtpx:TrackPointExtension>
        </extensions>
      </trkpt>
      <trkpt lat="46.27573" lon="4.82829">
        <ele>170.7998</ele>
        <time>2026-05-13T14:27:10+02:00</time>
        <extensions>
          <gpxtpx:TrackPointExtension xmlns:gpxtpx="http://www.garmin.com/xmlschemas/TrackPointExtension/v1">
            <gpxtpx:hr>176</gpxtpx:hr>
          </gpxtpx:TrackPointExtension>
        </extensions>
      </trkpt>
      <trkpt lat="46.27578" lon="4.82832">
        <ele>171.60059</ele>
        <time>2026-05-13T14:27:11+02:00</time>
        <extensions>
          <gpxtpx:TrackPointExtension xmlns:gpxtpx="http://www.garmin.com/xmlschemas/TrackPointExtension/v1">
            <gpxtpx:hr>176</gpxtpx:hr>
          </gpxtpx:TrackPointExtension>
        </extensions>
      </trkpt>
      <trkpt lat="46.27584" lon="4.82835">
        <ele>171.5</ele>
        <time>2026-05-13T14:27:12+02:00</time>
        <extensions>
          <gpxtpx:TrackPointExtension xmlns:gpxtpx="http://www.garmin.com/xmlschemas/TrackPointExtension/v1">
            <gpxtpx:hr>176</gpxtpx:hr>
          </gpxtpx:TrackPointExtension>
        </extensions>
      </trkpt>
      <trkpt lat="46.2759" lon="4.82839">
        <ele>171.10059</ele>
        <time>2026-05-13T14:27:13+02:00</time>
        <extensions>
          <gpxtpx:TrackPointExtension xmlns:gpxtpx="http://www.garmin.com/xmlschemas/TrackPointExtension/v1">
            <gpxtpx:hr>175</gpxtpx:hr>
          </gpxtpx:TrackPointExtension>
        </extensions>
      </trkpt>
      <trkpt lat="46.27595" lon="4.82842">
        <ele>171.2002</ele>
        <time>2026-05-13T14:27:14+02:00</time>
        <extensions>
          <gpxtpx:TrackPointExtension xmlns:gpxtpx="http://www.garmin.com/xmlschemas/TrackPointExtension/v1">
            <gpxtpx:hr>175</gpxtpx:hr>
          </gpxtpx:TrackPointExtension>
        </extensions>
      </trkpt>
      <trkpt lat="46.27601" lon="4.82845">
        <ele>170.90039</ele>
        <time>2026-05-13T14:27:15+02:00</time>
        <extensions>
          <gpxtpx:TrackPointExtension xmlns:gpxtpx="http://www.garmin.com/xmlschemas/TrackPointExtension/v1">
            <gpxtpx:hr>175</gpxtpx:hr>
          </gpxtpx:TrackPointExtension>
        </extensions>
      </trkpt>
      <trkpt lat="46.27607" lon="4.82847">
        <ele>170.7002</ele>
        <time>2026-05-13T14:27:16+02:00</time>
        <extensions>
          <gpxtpx:TrackPointExtension xmlns:gpxtpx="http://www.garmin.com/xmlschemas/TrackPointExtension/v1">
            <gpxtpx:hr>174</gpxtpx:hr>
          </gpxtpx:TrackPointExtension>
        </extensions>
      </trkpt>
      <trkpt lat="46.27612" lon="4.8285">
        <ele>171.2002</ele>
        <time>2026-05-13T14:27:17+02:00</time>
        <extensions>
          <gpxtpx:TrackPointExtension xmlns:gpxtpx="http://www.garmin.com/xmlschemas/TrackPointExtension/v1">
            <gpxtpx:hr>175</gpxtpx:hr>
          </gpxtpx:TrackPointExtension>
        </extensions>
      </trkpt>
      <trkpt lat="46.27618" lon="4.82853">
        <ele>170.7998</ele>
        <time>2026-05-13T14:27:18+02:00</time>
        <extensions>
          <gpxtpx:TrackPointExtension xmlns:gpxtpx="http://www.garmin.com/xmlschemas/TrackPointExtension/v1">
            <gpxtpx:hr>174</gpxtpx:hr>
          </gpxtpx:TrackPointExtension>
        </extensions>
      </trkpt>
      <trkpt lat="46.27624" lon="4.82855">
        <ele>170.5</ele>
        <time>2026-05-13T14:27:19+02:00</time>
        <extensions>
          <gpxtpx:TrackPointExtension xmlns:gpxtpx="http://www.garmin.com/xmlschemas/TrackPointExtension/v1">
            <gpxtpx:hr>174</gpxtpx:hr>
          </gpxtpx:TrackPointExtension>
        </extensions>
      </trkpt>
      <trkpt lat="46.27629" lon="4.82858">
        <ele>170.90039</ele>
        <time>2026-05-13T14:27:20+02:00</time>
        <extensions>
          <gpxtpx:TrackPointExtension xmlns:gpxtpx="http://www.garmin.com/xmlschemas/TrackPointExtension/v1">
            <gpxtpx:hr>175</gpxtpx:hr>
          </gpxtpx:TrackPointExtension>
        </extensions>
      </trkpt>
      <trkpt lat="46.27635" lon="4.8286">
        <ele>170.7002</ele>
        <time>2026-05-13T14:27:21+02:00</time>
        <extensions>
          <gpxtpx:TrackPointExtension xmlns:gpxtpx="http://www.garmin.com/xmlschemas/TrackPointExtension/v1">
            <gpxtpx:hr>175</gpxtpx:hr>
          </gpxtpx:TrackPointExtension>
        </extensions>
      </trkpt>
      <trkpt lat="46.2764" lon="4.82861">
        <ele>170.5</ele>
        <time>2026-05-13T14:27:22+02:00</time>
        <extensions>
          <gpxtpx:TrackPointExtension xmlns:gpxtpx="http://www.garmin.com/xmlschemas/TrackPointExtension/v1">
            <gpxtpx:hr>174</gpxtpx:hr>
          </gpxtpx:TrackPointExtension>
        </extensions>
      </trkpt>
      <trkpt lat="46.27645" lon="4.82863">
        <ele>170.2998</ele>
        <time>2026-05-13T14:27:23+02:00</time>
        <extensions>
          <gpxtpx:TrackPointExtension xmlns:gpxtpx="http://www.garmin.com/xmlschemas/TrackPointExtension/v1">
            <gpxtpx:hr>174</gpxtpx:hr>
          </gpxtpx:TrackPointExtension>
        </extensions>
      </trkpt>
      <trkpt lat="46.27651" lon="4.82866">
        <ele>170.10059</ele>
        <time>2026-05-13T14:27:24+02:00</time>
        <extensions>
          <gpxtpx:TrackPointExtension xmlns:gpxtpx="http://www.garmin.com/xmlschemas/TrackPointExtension/v1">
            <gpxtpx:hr>174</gpxtpx:hr>
          </gpxtpx:TrackPointExtension>
        </extensions>
      </trkpt>
      <trkpt lat="46.27655" lon="4.82868">
        <ele>170.7998</ele>
        <time>2026-05-13T14:27:25+02:00</time>
        <extensions>
          <gpxtpx:TrackPointExtension xmlns:gpxtpx="http://www.garmin.com/xmlschemas/TrackPointExtension/v1">
            <gpxtpx:hr>173</gpxtpx:hr>
          </gpxtpx:TrackPointExtension>
        </extensions>
      </trkpt>
      <trkpt lat="46.2766" lon="4.82871">
        <ele>170.7002</ele>
        <time>2026-05-13T14:27:26+02:00</time>
        <extensions>
          <gpxtpx:TrackPointExtension xmlns:gpxtpx="http://www.garmin.com/xmlschemas/TrackPointExtension/v1">
            <gpxtpx:hr>173</gpxtpx:hr>
          </gpxtpx:TrackPointExtension>
        </extensions>
      </trkpt>
      <trkpt lat="46.27665" lon="4.82874">
        <ele>170.5</ele>
        <time>2026-05-13T14:27:27+02:00</time>
        <extensions>
          <gpxtpx:TrackPointExtension xmlns:gpxtpx="http://www.garmin.com/xmlschemas/TrackPointExtension/v1">
            <gpxtpx:hr>173</gpxtpx:hr>
          </gpxtpx:TrackPointExtension>
        </extensions>
      </trkpt>
      <trkpt lat="46.2767" lon="4.82876">
        <ele>171.40039</ele>
        <time>2026-05-13T14:27:28+02:00</time>
        <extensions>
          <gpxtpx:TrackPointExtension xmlns:gpxtpx="http://www.garmin.com/xmlschemas/TrackPointExtension/v1">
            <gpxtpx:hr>171</gpxtpx:hr>
          </gpxtpx:TrackPointExtension>
        </extensions>
      </trkpt>
      <trkpt lat="46.27675" lon="4.82878">
        <ele>170.90039</ele>
        <time>2026-05-13T14:27:29+02:00</time>
        <extensions>
          <gpxtpx:TrackPointExtension xmlns:gpxtpx="http://www.garmin.com/xmlschemas/TrackPointExtension/v1">
            <gpxtpx:hr>171</gpxtpx:hr>
          </gpxtpx:TrackPointExtension>
        </extensions>
      </trkpt>
      <trkpt lat="46.27681" lon="4.8288">
        <ele>170.2998</ele>
        <time>2026-05-13T14:27:30+02:00</time>
        <extensions>
          <gpxtpx:TrackPointExtension xmlns:gpxtpx="http://www.garmin.com/xmlschemas/TrackPointExtension/v1">
            <gpxtpx:hr>171</gpxtpx:hr>
          </gpxtpx:TrackPointExtension>
        </extensions>
      </trkpt>
      <trkpt lat="46.27686" lon="4.82881">
        <ele>169.7002</ele>
        <time>2026-05-13T14:27:31+02:00</time>
        <extensions>
          <gpxtpx:TrackPointExtension xmlns:gpxtpx="http://www.garmin.com/xmlschemas/TrackPointExtension/v1">
            <gpxtpx:hr>172</gpxtpx:hr>
          </gpxtpx:TrackPointExtension>
        </extensions>
      </trkpt>
      <trkpt lat="46.27692" lon="4.82882">
        <ele>169.5</ele>
        <time>2026-05-13T14:27:32+02:00</time>
        <extensions>
          <gpxtpx:TrackPointExtension xmlns:gpxtpx="http://www.garmin.com/xmlschemas/TrackPointExtension/v1">
            <gpxtpx:hr>172</gpxtpx:hr>
          </gpxtpx:TrackPointExtension>
        </extensions>
      </trkpt>
      <trkpt lat="46.27697" lon="4.82883">
        <ele>169.5</ele>
        <time>2026-05-13T14:27:33+02:00</time>
        <extensions>
          <gpxtpx:TrackPointExtension xmlns:gpxtpx="http://www.garmin.com/xmlschemas/TrackPointExtension/v1">
            <gpxtpx:hr>172</gpxtpx:hr>
          </gpxtpx:TrackPointExtension>
        </extensions>
      </trkpt>
      <trkpt lat="46.27702" lon="4.82884">
        <ele>169.7998</ele>
        <time>2026-05-13T14:27:34+02:00</time>
        <extensions>
          <gpxtpx:TrackPointExtension xmlns:gpxtpx="http://www.garmin.com/xmlschemas/TrackPointExtension/v1">
            <gpxtpx:hr>173</gpxtpx:hr>
          </gpxtpx:TrackPointExtension>
        </extensions>
      </trkpt>
      <trkpt lat="46.27707" lon="4.82885">
        <ele>170.10059</ele>
        <time>2026-05-13T14:27:35+02:00</time>
        <extensions>
          <gpxtpx:TrackPointExtension xmlns:gpxtpx="http://www.garmin.com/xmlschemas/TrackPointExtension/v1">
            <gpxtpx:hr>173</gpxtpx:hr>
          </gpxtpx:TrackPointExtension>
        </extensions>
      </trkpt>
      <trkpt lat="46.27712" lon="4.82886">
        <ele>170.2998</ele>
        <time>2026-05-13T14:27:36+02:00</time>
        <extensions>
          <gpxtpx:TrackPointExtension xmlns:gpxtpx="http://www.garmin.com/xmlschemas/TrackPointExtension/v1">
            <gpxtpx:hr>172</gpxtpx:hr>
          </gpxtpx:TrackPointExtension>
        </extensions>
      </trkpt>
      <trkpt lat="46.27716" lon="4.82888">
        <ele>170.2998</ele>
        <time>2026-05-13T14:27:37+02:00</time>
        <extensions>
          <gpxtpx:TrackPointExtension xmlns:gpxtpx="http://www.garmin.com/xmlschemas/TrackPointExtension/v1">
            <gpxtpx:hr>172</gpxtpx:hr>
          </gpxtpx:TrackPointExtension>
        </extensions>
      </trkpt>
      <trkpt lat="46.2772" lon="4.82889">
        <ele>170.2998</ele>
        <time>2026-05-13T14:27:38+02:00</time>
        <extensions>
          <gpxtpx:TrackPointExtension xmlns:gpxtpx="http://www.garmin.com/xmlschemas/TrackPointExtension/v1">
            <gpxtpx:hr>173</gpxtpx:hr>
          </gpxtpx:TrackPointExtension>
        </extensions>
      </trkpt>
      <trkpt lat="46.27723" lon="4.82891">
        <ele>170.2002</ele>
        <time>2026-05-13T14:27:39+02:00</time>
        <extensions>
          <gpxtpx:TrackPointExtension xmlns:gpxtpx="http://www.garmin.com/xmlschemas/TrackPointExtension/v1">
            <gpxtpx:hr>172</gpxtpx:hr>
          </gpxtpx:TrackPointExtension>
        </extensions>
      </trkpt>
      <trkpt lat="46.27726" lon="4.82893">
        <ele>171</ele>
        <time>2026-05-13T14:27:40+02:00</time>
        <extensions>
          <gpxtpx:TrackPointExtension xmlns:gpxtpx="http://www.garmin.com/xmlschemas/TrackPointExtension/v1">
            <gpxtpx:hr>171</gpxtpx:hr>
          </gpxtpx:TrackPointExtension>
        </extensions>
      </trkpt>
      <trkpt lat="46.27729" lon="4.82896">
        <ele>171</ele>
        <time>2026-05-13T14:27:41+02:00</time>
        <extensions>
          <gpxtpx:TrackPointExtension xmlns:gpxtpx="http://www.garmin.com/xmlschemas/TrackPointExtension/v1">
            <gpxtpx:hr>171</gpxtpx:hr>
          </gpxtpx:TrackPointExtension>
        </extensions>
      </trkpt>
      <trkpt lat="46.27731" lon="4.82898">
        <ele>171</ele>
        <time>2026-05-13T14:27:42+02:00</time>
        <extensions>
          <gpxtpx:TrackPointExtension xmlns:gpxtpx="http://www.garmin.com/xmlschemas/TrackPointExtension/v1">
            <gpxtpx:hr>170</gpxtpx:hr>
          </gpxtpx:TrackPointExtension>
        </extensions>
      </trkpt>
      <trkpt lat="46.27734" lon="4.82899">
        <ele>171</ele>
        <time>2026-05-13T14:27:43+02:00</time>
        <extensions>
          <gpxtpx:TrackPointExtension xmlns:gpxtpx="http://www.garmin.com/xmlschemas/TrackPointExtension/v1">
            <gpxtpx:hr>170</gpxtpx:hr>
          </gpxtpx:TrackPointExtension>
        </extensions>
      </trkpt>
      <trkpt lat="46.27736" lon="4.82898">
        <ele>171</ele>
        <time>2026-05-13T14:27:44+02:00</time>
        <extensions>
          <gpxtpx:TrackPointExtension xmlns:gpxtpx="http://www.garmin.com/xmlschemas/TrackPointExtension/v1">
            <gpxtpx:hr>170</gpxtpx:hr>
          </gpxtpx:TrackPointExtension>
        </extensions>
      </trkpt>
      <trkpt lat="46.27739" lon="4.82896">
        <ele>171.10059</ele>
        <time>2026-05-13T14:27:45+02:00</time>
        <extensions>
          <gpxtpx:TrackPointExtension xmlns:gpxtpx="http://www.garmin.com/xmlschemas/TrackPointExtension/v1">
            <gpxtpx:hr>169</gpxtpx:hr>
          </gpxtpx:TrackPointExtension>
        </extensions>
      </trkpt>
      <trkpt lat="46.27742" lon="4.82894">
        <ele>171.10059</ele>
        <time>2026-05-13T14:27:46+02:00</time>
        <extensions>
          <gpxtpx:TrackPointExtension xmlns:gpxtpx="http://www.garmin.com/xmlschemas/TrackPointExtension/v1">
            <gpxtpx:hr>169</gpxtpx:hr>
          </gpxtpx:TrackPointExtension>
        </extensions>
      </trkpt>
      <trkpt lat="46.27745" lon="4.82891">
        <ele>170.2998</ele>
        <time>2026-05-13T14:27:47+02:00</time>
        <extensions>
          <gpxtpx:TrackPointExtension xmlns:gpxtpx="http://www.garmin.com/xmlschemas/TrackPointExtension/v1">
            <gpxtpx:hr>169</gpxtpx:hr>
          </gpxtpx:TrackPointExtension>
        </extensions>
      </trkpt>
      <trkpt lat="46.27749" lon="4.82889">
        <ele>170.2998</ele>
        <time>2026-05-13T14:27:48+02:00</time>
        <extensions>
          <gpxtpx:TrackPointExtension xmlns:gpxtpx="http://www.garmin.com/xmlschemas/TrackPointExtension/v1">
            <gpxtpx:hr>169</gpxtpx:hr>
          </gpxtpx:TrackPointExtension>
        </extensions>
      </trkpt>
      <trkpt lat="46.27752" lon="4.82886">
        <ele>170.2998</ele>
        <time>2026-05-13T14:27:49+02:00</time>
        <extensions>
          <gpxtpx:TrackPointExtension xmlns:gpxtpx="http://www.garmin.com/xmlschemas/TrackPointExtension/v1">
            <gpxtpx:hr>170</gpxtpx:hr>
          </gpxtpx:TrackPointExtension>
        </extensions>
      </trkpt>
      <trkpt lat="46.27756" lon="4.82883">
        <ele>169.60059</ele>
        <time>2026-05-13T14:27:50+02:00</time>
        <extensions>
          <gpxtpx:TrackPointExtension xmlns:gpxtpx="http://www.garmin.com/xmlschemas/TrackPointExtension/v1">
            <gpxtpx:hr>170</gpxtpx:hr>
          </gpxtpx:TrackPointExtension>
        </extensions>
      </trkpt>
      <trkpt lat="46.2776" lon="4.82882">
        <ele>169.7002</ele>
        <time>2026-05-13T14:27:51+02:00</time>
        <extensions>
          <gpxtpx:TrackPointExtension xmlns:gpxtpx="http://www.garmin.com/xmlschemas/TrackPointExtension/v1">
            <gpxtpx:hr>170</gpxtpx:hr>
          </gpxtpx:TrackPointExtension>
        </extensions>
      </trkpt>
      <trkpt lat="46.27764" lon="4.82882">
        <ele>169.90039</ele>
        <time>2026-05-13T14:27:52+02:00</time>
        <extensions>
          <gpxtpx:TrackPointExtension xmlns:gpxtpx="http://www.garmin.com/xmlschemas/TrackPointExtension/v1">
            <gpxtpx:hr>170</gpxtpx:hr>
          </gpxtpx:TrackPointExtension>
        </extensions>
      </trkpt>
      <trkpt lat="46.27769" lon="4.82882">
        <ele>170.10059</ele>
        <time>2026-05-13T14:27:53+02:00</time>
        <extensions>
          <gpxtpx:TrackPointExtension xmlns:gpxtpx="http://www.garmin.com/xmlschemas/TrackPointExtension/v1">
            <gpxtpx:hr>170</gpxtpx:hr>
          </gpxtpx:TrackPointExtension>
        </extensions>
      </trkpt>
      <trkpt lat="46.27773" lon="4.82884">
        <ele>170.7002</ele>
        <time>2026-05-13T14:27:54+02:00</time>
        <extensions>
          <gpxtpx:TrackPointExtension xmlns:gpxtpx="http://www.garmin.com/xmlschemas/TrackPointExtension/v1">
            <gpxtpx:hr>169</gpxtpx:hr>
          </gpxtpx:TrackPointExtension>
        </extensions>
      </trkpt>
      <trkpt lat="46.27776" lon="4.82885">
        <ele>170.90039</ele>
        <time>2026-05-13T14:27:55+02:00</time>
        <extensions>
          <gpxtpx:TrackPointExtension xmlns:gpxtpx="http://www.garmin.com/xmlschemas/TrackPointExtension/v1">
            <gpxtpx:hr>169</gpxtpx:hr>
          </gpxtpx:TrackPointExtension>
        </extensions>
      </trkpt>
      <trkpt lat="46.27778" lon="4.82885">
        <ele>170.90039</ele>
        <time>2026-05-13T14:27:56+02:00</time>
        <extensions>
          <gpxtpx:TrackPointExtension xmlns:gpxtpx="http://www.garmin.com/xmlschemas/TrackPointExtension/v1">
            <gpxtpx:hr>168</gpxtpx:hr>
          </gpxtpx:TrackPointExtension>
        </extensions>
      </trkpt>
      <trkpt lat="46.2778" lon="4.82886">
        <ele>171.10059</ele>
        <time>2026-05-13T14:27:57+02:00</time>
        <extensions>
          <gpxtpx:TrackPointExtension xmlns:gpxtpx="http://www.garmin.com/xmlschemas/TrackPointExtension/v1">
            <gpxtpx:hr>168</gpxtpx:hr>
          </gpxtpx:TrackPointExtension>
        </extensions>
      </trkpt>
      <trkpt lat="46.2778" lon="4.82886">
        <ele>171.10059</ele>
        <time>2026-05-13T14:27:58+02:00</time>
        <extensions>
          <gpxtpx:TrackPointExtension xmlns:gpxtpx="http://www.garmin.com/xmlschemas/TrackPointExtension/v1">
            <gpxtpx:hr>168</gpxtpx:hr>
          </gpxtpx:TrackPointExtension>
        </extensions>
      </trkpt>
      <trkpt lat="46.27781" lon="4.82886">
        <ele>171.10059</ele>
        <time>2026-05-13T14:27:59+02:00</time>
        <extensions>
          <gpxtpx:TrackPointExtension xmlns:gpxtpx="http://www.garmin.com/xmlschemas/TrackPointExtension/v1">
            <gpxtpx:hr>167</gpxtpx:hr>
          </gpxtpx:TrackPointExtension>
        </extensions>
      </trkpt>
      <trkpt lat="46.27781" lon="4.82886">
        <ele>171.10059</ele>
        <time>2026-05-13T14:28:00+02:00</time>
        <extensions>
          <gpxtpx:TrackPointExtension xmlns:gpxtpx="http://www.garmin.com/xmlschemas/TrackPointExtension/v1">
            <gpxtpx:hr>167</gpxtpx:hr>
          </gpxtpx:TrackPointExtension>
        </extensions>
      </trkpt>
      <trkpt lat="46.27782" lon="4.82886">
        <ele>171.10059</ele>
        <time>2026-05-13T14:28:01+02:00</time>
        <extensions>
          <gpxtpx:TrackPointExtension xmlns:gpxtpx="http://www.garmin.com/xmlschemas/TrackPointExtension/v1">
            <gpxtpx:hr>167</gpxtpx:hr>
          </gpxtpx:TrackPointExtension>
        </extensions>
      </trkpt>
      <trkpt lat="46.27783" lon="4.82903">
        <ele>172.7998</ele>
        <time>2026-05-13T14:28:08+02:00</time>
        <extensions>
          <gpxtpx:TrackPointExtension xmlns:gpxtpx="http://www.garmin.com/xmlschemas/TrackPointExtension/v1">
            <gpxtpx:hr>163</gpxtpx:hr>
          </gpxtpx:TrackPointExtension>
        </extensions>
      </trkpt>
      <trkpt lat="46.27783" lon="4.82907">
        <ele>172.7998</ele>
        <time>2026-05-13T14:28:09+02:00</time>
        <extensions>
          <gpxtpx:TrackPointExtension xmlns:gpxtpx="http://www.garmin.com/xmlschemas/TrackPointExtension/v1">
            <gpxtpx:hr>162</gpxtpx:hr>
          </gpxtpx:TrackPointExtension>
        </extensions>
      </trkpt>
      <trkpt lat="46.27784" lon="4.82911">
        <ele>173.5</ele>
        <time>2026-05-13T14:28:10+02:00</time>
        <extensions>
          <gpxtpx:TrackPointExtension xmlns:gpxtpx="http://www.garmin.com/xmlschemas/TrackPointExtension/v1">
            <gpxtpx:hr>161</gpxtpx:hr>
          </gpxtpx:TrackPointExtension>
        </extensions>
      </trkpt>
      <trkpt lat="46.27787" lon="4.82915">
        <ele>173.2998</ele>
        <time>2026-05-13T14:28:11+02:00</time>
        <extensions>
          <gpxtpx:TrackPointExtension xmlns:gpxtpx="http://www.garmin.com/xmlschemas/TrackPointExtension/v1">
            <gpxtpx:hr>161</gpxtpx:hr>
          </gpxtpx:TrackPointExtension>
        </extensions>
      </trkpt>
      <trkpt lat="46.27789" lon="4.82919">
        <ele>173.60059</ele>
        <time>2026-05-13T14:28:12+02:00</time>
        <extensions>
          <gpxtpx:TrackPointExtension xmlns:gpxtpx="http://www.garmin.com/xmlschemas/TrackPointExtension/v1">
            <gpxtpx:hr>161</gpxtpx:hr>
          </gpxtpx:TrackPointExtension>
        </extensions>
      </trkpt>
      <trkpt lat="46.27792" lon="4.82922">
        <ele>173.2998</ele>
        <time>2026-05-13T14:28:13+02:00</time>
        <extensions>
          <gpxtpx:TrackPointExtension xmlns:gpxtpx="http://www.garmin.com/xmlschemas/TrackPointExtension/v1">
            <gpxtpx:hr>162</gpxtpx:hr>
          </gpxtpx:TrackPointExtension>
        </extensions>
      </trkpt>
      <trkpt lat="46.27795" lon="4.82926">
        <ele>173.2998</ele>
        <time>2026-05-13T14:28:14+02:00</time>
        <extensions>
          <gpxtpx:TrackPointExtension xmlns:gpxtpx="http://www.garmin.com/xmlschemas/TrackPointExtension/v1">
            <gpxtpx:hr>162</gpxtpx:hr>
          </gpxtpx:TrackPointExtension>
        </extensions>
      </trkpt>
      <trkpt lat="46.27798" lon="4.8293">
        <ele>173.10059</ele>
        <time>2026-05-13T14:28:15+02:00</time>
        <extensions>
          <gpxtpx:TrackPointExtension xmlns:gpxtpx="http://www.garmin.com/xmlschemas/TrackPointExtension/v1">
            <gpxtpx:hr>162</gpxtpx:hr>
          </gpxtpx:TrackPointExtension>
        </extensions>
      </trkpt>
      <trkpt lat="46.27801" lon="4.82935">
        <ele>173.10059</ele>
        <time>2026-05-13T14:28:16+02:00</time>
        <extensions>
          <gpxtpx:TrackPointExtension xmlns:gpxtpx="http://www.garmin.com/xmlschemas/TrackPointExtension/v1">
            <gpxtpx:hr>162</gpxtpx:hr>
          </gpxtpx:TrackPointExtension>
        </extensions>
      </trkpt>
      <trkpt lat="46.27804" lon="4.8294">
        <ele>172.90039</ele>
        <time>2026-05-13T14:28:17+02:00</time>
        <extensions>
          <gpxtpx:TrackPointExtension xmlns:gpxtpx="http://www.garmin.com/xmlschemas/TrackPointExtension/v1">
            <gpxtpx:hr>162</gpxtpx:hr>
          </gpxtpx:TrackPointExtension>
        </extensions>
      </trkpt>
      <trkpt lat="46.27808" lon="4.82945">
        <ele>172.90039</ele>
        <time>2026-05-13T14:28:18+02:00</time>
        <extensions>
          <gpxtpx:TrackPointExtension xmlns:gpxtpx="http://www.garmin.com/xmlschemas/TrackPointExtension/v1">
            <gpxtpx:hr>162</gpxtpx:hr>
          </gpxtpx:TrackPointExtension>
        </extensions>
      </trkpt>
      <trkpt lat="46.27811" lon="4.8295">
        <ele>172.7998</ele>
        <time>2026-05-13T14:28:19+02:00</time>
        <extensions>
          <gpxtpx:TrackPointExtension xmlns:gpxtpx="http://www.garmin.com/xmlschemas/TrackPointExtension/v1">
            <gpxtpx:hr>163</gpxtpx:hr>
          </gpxtpx:TrackPointExtension>
        </extensions>
      </trkpt>
      <trkpt lat="46.27814" lon="4.82956">
        <ele>172.7002</ele>
        <time>2026-05-13T14:28:20+02:00</time>
        <extensions>
          <gpxtpx:TrackPointExtension xmlns:gpxtpx="http://www.garmin.com/xmlschemas/TrackPointExtension/v1">
            <gpxtpx:hr>163</gpxtpx:hr>
          </gpxtpx:TrackPointExtension>
        </extensions>
      </trkpt>
      <trkpt lat="46.27817" lon="4.82962">
        <ele>172.60059</ele>
        <time>2026-05-13T14:28:21+02:00</time>
        <extensions>
          <gpxtpx:TrackPointExtension xmlns:gpxtpx="http://www.garmin.com/xmlschemas/TrackPointExtension/v1">
            <gpxtpx:hr>163</gpxtpx:hr>
          </gpxtpx:TrackPointExtension>
        </extensions>
      </trkpt>
      <trkpt lat="46.2782" lon="4.82969">
        <ele>172.60059</ele>
        <time>2026-05-13T14:28:22+02:00</time>
        <extensions>
          <gpxtpx:TrackPointExtension xmlns:gpxtpx="http://www.garmin.com/xmlschemas/TrackPointExtension/v1">
            <gpxtpx:hr>164</gpxtpx:hr>
          </gpxtpx:TrackPointExtension>
        </extensions>
      </trkpt>
      <trkpt lat="46.27823" lon="4.82976">
        <ele>172.40039</ele>
        <time>2026-05-13T14:28:23+02:00</time>
        <extensions>
          <gpxtpx:TrackPointExtension xmlns:gpxtpx="http://www.garmin.com/xmlschemas/TrackPointExtension/v1">
            <gpxtpx:hr>164</gpxtpx:hr>
          </gpxtpx:TrackPointExtension>
        </extensions>
      </trkpt>
      <trkpt lat="46.27825" lon="4.82983">
        <ele>172.2998</ele>
        <time>2026-05-13T14:28:24+02:00</time>
        <extensions>
          <gpxtpx:TrackPointExtension xmlns:gpxtpx="http://www.garmin.com/xmlschemas/TrackPointExtension/v1">
            <gpxtpx:hr>164</gpxtpx:hr>
          </gpxtpx:TrackPointExtension>
        </extensions>
      </trkpt>
      <trkpt lat="46.27826" lon="4.8299">
        <ele>172.2002</ele>
        <time>2026-05-13T14:28:25+02:00</time>
        <extensions>
          <gpxtpx:TrackPointExtension xmlns:gpxtpx="http://www.garmin.com/xmlschemas/TrackPointExtension/v1">
            <gpxtpx:hr>164</gpxtpx:hr>
          </gpxtpx:TrackPointExtension>
        </extensions>
      </trkpt>
      <trkpt lat="46.27828" lon="4.82998">
        <ele>172.10059</ele>
        <time>2026-05-13T14:28:26+02:00</time>
        <extensions>
          <gpxtpx:TrackPointExtension xmlns:gpxtpx="http://www.garmin.com/xmlschemas/TrackPointExtension/v1">
            <gpxtpx:hr>165</gpxtpx:hr>
          </gpxtpx:TrackPointExtension>
        </extensions>
      </trkpt>
      <trkpt lat="46.2783" lon="4.83006">
        <ele>172</ele>
        <time>2026-05-13T14:28:27+02:00</time>
        <extensions>
          <gpxtpx:TrackPointExtension xmlns:gpxtpx="http://www.garmin.com/xmlschemas/TrackPointExtension/v1">
            <gpxtpx:hr>164</gpxtpx:hr>
          </gpxtpx:TrackPointExtension>
        </extensions>
      </trkpt>
      <trkpt lat="46.2783" lon="4.83014">
        <ele>171.90039</ele>
        <time>2026-05-13T14:28:28+02:00</time>
        <extensions>
          <gpxtpx:TrackPointExtension xmlns:gpxtpx="http://www.garmin.com/xmlschemas/TrackPointExtension/v1">
            <gpxtpx:hr>165</gpxtpx:hr>
          </gpxtpx:TrackPointExtension>
        </extensions>
      </trkpt>
      <trkpt lat="46.27831" lon="4.83022">
        <ele>171.7998</ele>
        <time>2026-05-13T14:28:29+02:00</time>
        <extensions>
          <gpxtpx:TrackPointExtension xmlns:gpxtpx="http://www.garmin.com/xmlschemas/TrackPointExtension/v1">
            <gpxtpx:hr>165</gpxtpx:hr>
          </gpxtpx:TrackPointExtension>
        </extensions>
      </trkpt>
      <trkpt lat="46.27831" lon="4.8303">
        <ele>171.7002</ele>
        <time>2026-05-13T14:28:30+02:00</time>
        <extensions>
          <gpxtpx:TrackPointExtension xmlns:gpxtpx="http://www.garmin.com/xmlschemas/TrackPointExtension/v1">
            <gpxtpx:hr>164</gpxtpx:hr>
          </gpxtpx:TrackPointExtension>
        </extensions>
      </trkpt>
      <trkpt lat="46.27831" lon="4.83039">
        <ele>171.60059</ele>
        <time>2026-05-13T14:28:31+02:00</time>
        <extensions>
          <gpxtpx:TrackPointExtension xmlns:gpxtpx="http://www.garmin.com/xmlschemas/TrackPointExtension/v1">
            <gpxtpx:hr>164</gpxtpx:hr>
          </gpxtpx:TrackPointExtension>
        </extensions>
      </trkpt>
      <trkpt lat="46.27831" lon="4.83047">
        <ele>171.5</ele>
        <time>2026-05-13T14:28:32+02:00</time>
        <extensions>
          <gpxtpx:TrackPointExtension xmlns:gpxtpx="http://www.garmin.com/xmlschemas/TrackPointExtension/v1">
            <gpxtpx:hr>164</gpxtpx:hr>
          </gpxtpx:TrackPointExtension>
        </extensions>
      </trkpt>
      <trkpt lat="46.27831" lon="4.83055">
        <ele>171.5</ele>
        <time>2026-05-13T14:28:33+02:00</time>
        <extensions>
          <gpxtpx:TrackPointExtension xmlns:gpxtpx="http://www.garmin.com/xmlschemas/TrackPointExtension/v1">
            <gpxtpx:hr>164</gpxtpx:hr>
          </gpxtpx:TrackPointExtension>
        </extensions>
      </trkpt>
      <trkpt lat="46.27831" lon="4.83063">
        <ele>171.40039</ele>
        <time>2026-05-13T14:28:34+02:00</time>
        <extensions>
          <gpxtpx:TrackPointExtension xmlns:gpxtpx="http://www.garmin.com/xmlschemas/TrackPointExtension/v1">
            <gpxtpx:hr>163</gpxtpx:hr>
          </gpxtpx:TrackPointExtension>
        </extensions>
      </trkpt>
      <trkpt lat="46.2783" lon="4.83071">
        <ele>171.2998</ele>
        <time>2026-05-13T14:28:35+02:00</time>
        <extensions>
          <gpxtpx:TrackPointExtension xmlns:gpxtpx="http://www.garmin.com/xmlschemas/TrackPointExtension/v1">
            <gpxtpx:hr>164</gpxtpx:hr>
          </gpxtpx:TrackPointExtension>
        </extensions>
      </trkpt>
      <trkpt lat="46.27829" lon="4.83079">
        <ele>171.2002</ele>
        <time>2026-05-13T14:28:36+02:00</time>
        <extensions>
          <gpxtpx:TrackPointExtension xmlns:gpxtpx="http://www.garmin.com/xmlschemas/TrackPointExtension/v1">
            <gpxtpx:hr>162</gpxtpx:hr>
          </gpxtpx:TrackPointExtension>
        </extensions>
      </trkpt>
      <trkpt lat="46.27828" lon="4.83086">
        <ele>171.10059</ele>
        <time>2026-05-13T14:28:37+02:00</time>
        <extensions>
          <gpxtpx:TrackPointExtension xmlns:gpxtpx="http://www.garmin.com/xmlschemas/TrackPointExtension/v1">
            <gpxtpx:hr>162</gpxtpx:hr>
          </gpxtpx:TrackPointExtension>
        </extensions>
      </trkpt>
      <trkpt lat="46.27827" lon="4.83094">
        <ele>171.10059</ele>
        <time>2026-05-13T14:28:38+02:00</time>
        <extensions>
          <gpxtpx:TrackPointExtension xmlns:gpxtpx="http://www.garmin.com/xmlschemas/TrackPointExtension/v1">
            <gpxtpx:hr>162</gpxtpx:hr>
          </gpxtpx:TrackPointExtension>
        </extensions>
      </trkpt>
      <trkpt lat="46.27826" lon="4.83102">
        <ele>171</ele>
        <time>2026-05-13T14:28:39+02:00</time>
        <extensions>
          <gpxtpx:TrackPointExtension xmlns:gpxtpx="http://www.garmin.com/xmlschemas/TrackPointExtension/v1">
            <gpxtpx:hr>163</gpxtpx:hr>
          </gpxtpx:TrackPointExtension>
        </extensions>
      </trkpt>
      <trkpt lat="46.27824" lon="4.83109">
        <ele>170.90039</ele>
        <time>2026-05-13T14:28:40+02:00</time>
        <extensions>
          <gpxtpx:TrackPointExtension xmlns:gpxtpx="http://www.garmin.com/xmlschemas/TrackPointExtension/v1">
            <gpxtpx:hr>163</gpxtpx:hr>
          </gpxtpx:TrackPointExtension>
        </extensions>
      </trkpt>
      <trkpt lat="46.27822" lon="4.83117">
        <ele>170.7002</ele>
        <time>2026-05-13T14:28:41+02:00</time>
        <extensions>
          <gpxtpx:TrackPointExtension xmlns:gpxtpx="http://www.garmin.com/xmlschemas/TrackPointExtension/v1">
            <gpxtpx:hr>164</gpxtpx:hr>
          </gpxtpx:TrackPointExtension>
        </extensions>
      </trkpt>
      <trkpt lat="46.27821" lon="4.83124">
        <ele>170.7002</ele>
        <time>2026-05-13T14:28:42+02:00</time>
        <extensions>
          <gpxtpx:TrackPointExtension xmlns:gpxtpx="http://www.garmin.com/xmlschemas/TrackPointExtension/v1">
            <gpxtpx:hr>163</gpxtpx:hr>
          </gpxtpx:TrackPointExtension>
        </extensions>
      </trkpt>
      <trkpt lat="46.27818" lon="4.83131">
        <ele>170.7002</ele>
        <time>2026-05-13T14:28:43+02:00</time>
        <extensions>
          <gpxtpx:TrackPointExtension xmlns:gpxtpx="http://www.garmin.com/xmlschemas/TrackPointExtension/v1">
            <gpxtpx:hr>164</gpxtpx:hr>
          </gpxtpx:TrackPointExtension>
        </extensions>
      </trkpt>
      <trkpt lat="46.27816" lon="4.83138">
        <ele>170.60059</ele>
        <time>2026-05-13T14:28:44+02:00</time>
        <extensions>
          <gpxtpx:TrackPointExtension xmlns:gpxtpx="http://www.garmin.com/xmlschemas/TrackPointExtension/v1">
            <gpxtpx:hr>165</gpxtpx:hr>
          </gpxtpx:TrackPointExtension>
        </extensions>
      </trkpt>
      <trkpt lat="46.27814" lon="4.83145">
        <ele>170.60059</ele>
        <time>2026-05-13T14:28:45+02:00</time>
        <extensions>
          <gpxtpx:TrackPointExtension xmlns:gpxtpx="http://www.garmin.com/xmlschemas/TrackPointExtension/v1">
            <gpxtpx:hr>165</gpxtpx:hr>
          </gpxtpx:TrackPointExtension>
        </extensions>
      </trkpt>
      <trkpt lat="46.27812" lon="4.83152">
        <ele>170.5</ele>
        <time>2026-05-13T14:28:46+02:00</time>
        <extensions>
          <gpxtpx:TrackPointExtension xmlns:gpxtpx="http://www.garmin.com/xmlschemas/TrackPointExtension/v1">
            <gpxtpx:hr>166</gpxtpx:hr>
          </gpxtpx:TrackPointExtension>
        </extensions>
      </trkpt>
      <trkpt lat="46.27809" lon="4.83158">
        <ele>170.60059</ele>
        <time>2026-05-13T14:28:47+02:00</time>
        <extensions>
          <gpxtpx:TrackPointExtension xmlns:gpxtpx="http://www.garmin.com/xmlschemas/TrackPointExtension/v1">
            <gpxtpx:hr>166</gpxtpx:hr>
          </gpxtpx:TrackPointExtension>
        </extensions>
      </trkpt>
      <trkpt lat="46.27807" lon="4.83165">
        <ele>170.40039</ele>
        <time>2026-05-13T14:28:48+02:00</time>
        <extensions>
          <gpxtpx:TrackPointExtension xmlns:gpxtpx="http://www.garmin.com/xmlschemas/TrackPointExtension/v1">
            <gpxtpx:hr>167</gpxtpx:hr>
          </gpxtpx:TrackPointExtension>
        </extensions>
      </trkpt>
      <trkpt lat="46.27804" lon="4.83172">
        <ele>170.2002</ele>
        <time>2026-05-13T14:28:49+02:00</time>
        <extensions>
          <gpxtpx:TrackPointExtension xmlns:gpxtpx="http://www.garmin.com/xmlschemas/TrackPointExtension/v1">
            <gpxtpx:hr>167</gpxtpx:hr>
          </gpxtpx:TrackPointExtension>
        </extensions>
      </trkpt>
      <trkpt lat="46.27801" lon="4.83178">
        <ele>170.10059</ele>
        <time>2026-05-13T14:28:50+02:00</time>
        <extensions>
          <gpxtpx:TrackPointExtension xmlns:gpxtpx="http://www.garmin.com/xmlschemas/TrackPointExtension/v1">
            <gpxtpx:hr>167</gpxtpx:hr>
          </gpxtpx:TrackPointExtension>
        </extensions>
      </trkpt>
      <trkpt lat="46.27798" lon="4.83185">
        <ele>169.90039</ele>
        <time>2026-05-13T14:28:51+02:00</time>
        <extensions>
          <gpxtpx:TrackPointExtension xmlns:gpxtpx="http://www.garmin.com/xmlschemas/TrackPointExtension/v1">
            <gpxtpx:hr>167</gpxtpx:hr>
          </gpxtpx:TrackPointExtension>
        </extensions>
      </trkpt>
      <trkpt lat="46.27795" lon="4.83192">
        <ele>170.10059</ele>
        <time>2026-05-13T14:28:52+02:00</time>
        <extensions>
          <gpxtpx:TrackPointExtension xmlns:gpxtpx="http://www.garmin.com/xmlschemas/TrackPointExtension/v1">
            <gpxtpx:hr>168</gpxtpx:hr>
          </gpxtpx:TrackPointExtension>
        </extensions>
      </trkpt>
      <trkpt lat="46.27792" lon="4.83199">
        <ele>169.90039</ele>
        <time>2026-05-13T14:28:53+02:00</time>
        <extensions>
          <gpxtpx:TrackPointExtension xmlns:gpxtpx="http://www.garmin.com/xmlschemas/TrackPointExtension/v1">
            <gpxtpx:hr>169</gpxtpx:hr>
          </gpxtpx:TrackPointExtension>
        </extensions>
      </trkpt>
      <trkpt lat="46.27789" lon="4.83205">
        <ele>169.90039</ele>
        <time>2026-05-13T14:28:54+02:00</time>
        <extensions>
          <gpxtpx:TrackPointExtension xmlns:gpxtpx="http://www.garmin.com/xmlschemas/TrackPointExtension/v1">
            <gpxtpx:hr>169</gpxtpx:hr>
          </gpxtpx:TrackPointExtension>
        </extensions>
      </trkpt>
      <trkpt lat="46.27786" lon="4.83212">
        <ele>169.7998</ele>
        <time>2026-05-13T14:28:55+02:00</time>
        <extensions>
          <gpxtpx:TrackPointExtension xmlns:gpxtpx="http://www.garmin.com/xmlschemas/TrackPointExtension/v1">
            <gpxtpx:hr>169</gpxtpx:hr>
          </gpxtpx:TrackPointExtension>
        </extensions>
      </trkpt>
      <trkpt lat="46.27783" lon="4.83219">
        <ele>169.7002</ele>
        <time>2026-05-13T14:28:56+02:00</time>
        <extensions>
          <gpxtpx:TrackPointExtension xmlns:gpxtpx="http://www.garmin.com/xmlschemas/TrackPointExtension/v1">
            <gpxtpx:hr>169</gpxtpx:hr>
          </gpxtpx:TrackPointExtension>
        </extensions>
      </trkpt>
      <trkpt lat="46.2778" lon="4.83226">
        <ele>169.7002</ele>
        <time>2026-05-13T14:28:57+02:00</time>
        <extensions>
          <gpxtpx:TrackPointExtension xmlns:gpxtpx="http://www.garmin.com/xmlschemas/TrackPointExtension/v1">
            <gpxtpx:hr>169</gpxtpx:hr>
          </gpxtpx:TrackPointExtension>
        </extensions>
      </trkpt>
      <trkpt lat="46.27776" lon="4.83232">
        <ele>169.7998</ele>
        <time>2026-05-13T14:28:58+02:00</time>
        <extensions>
          <gpxtpx:TrackPointExtension xmlns:gpxtpx="http://www.garmin.com/xmlschemas/TrackPointExtension/v1">
            <gpxtpx:hr>169</gpxtpx:hr>
          </gpxtpx:TrackPointExtension>
        </extensions>
      </trkpt>
      <trkpt lat="46.27773" lon="4.83239">
        <ele>169.90039</ele>
        <time>2026-05-13T14:28:59+02:00</time>
        <extensions>
          <gpxtpx:TrackPointExtension xmlns:gpxtpx="http://www.garmin.com/xmlschemas/TrackPointExtension/v1">
            <gpxtpx:hr>169</gpxtpx:hr>
          </gpxtpx:TrackPointExtension>
        </extensions>
      </trkpt>
      <trkpt lat="46.2777" lon="4.83246">
        <ele>169.7998</ele>
        <time>2026-05-13T14:29:00+02:00</time>
        <extensions>
          <gpxtpx:TrackPointExtension xmlns:gpxtpx="http://www.garmin.com/xmlschemas/TrackPointExtension/v1">
            <gpxtpx:hr>169</gpxtpx:hr>
          </gpxtpx:TrackPointExtension>
        </extensions>
      </trkpt>
      <trkpt lat="46.27767" lon="4.83253">
        <ele>169.7002</ele>
        <time>2026-05-13T14:29:01+02:00</time>
        <extensions>
          <gpxtpx:TrackPointExtension xmlns:gpxtpx="http://www.garmin.com/xmlschemas/TrackPointExtension/v1">
            <gpxtpx:hr>168</gpxtpx:hr>
          </gpxtpx:TrackPointExtension>
        </extensions>
      </trkpt>
      <trkpt lat="46.27764" lon="4.8326">
        <ele>169.7002</ele>
        <time>2026-05-13T14:29:02+02:00</time>
        <extensions>
          <gpxtpx:TrackPointExtension xmlns:gpxtpx="http://www.garmin.com/xmlschemas/TrackPointExtension/v1">
            <gpxtpx:hr>169</gpxtpx:hr>
          </gpxtpx:TrackPointExtension>
        </extensions>
      </trkpt>
      <trkpt lat="46.27761" lon="4.83267">
        <ele>169.60059</ele>
        <time>2026-05-13T14:29:03+02:00</time>
        <extensions>
          <gpxtpx:TrackPointExtension xmlns:gpxtpx="http://www.garmin.com/xmlschemas/TrackPointExtension/v1">
            <gpxtpx:hr>168</gpxtpx:hr>
          </gpxtpx:TrackPointExtension>
        </extensions>
      </trkpt>
      <trkpt lat="46.27758" lon="4.83275">
        <ele>169.5</ele>
        <time>2026-05-13T14:29:04+02:00</time>
        <extensions>
          <gpxtpx:TrackPointExtension xmlns:gpxtpx="http://www.garmin.com/xmlschemas/TrackPointExtension/v1">
            <gpxtpx:hr>168</gpxtpx:hr>
          </gpxtpx:TrackPointExtension>
        </extensions>
      </trkpt>
      <trkpt lat="46.27755" lon="4.83282">
        <ele>169.40039</ele>
        <time>2026-05-13T14:29:05+02:00</time>
        <extensions>
          <gpxtpx:TrackPointExtension xmlns:gpxtpx="http://www.garmin.com/xmlschemas/TrackPointExtension/v1">
            <gpxtpx:hr>167</gpxtpx:hr>
          </gpxtpx:TrackPointExtension>
        </extensions>
      </trkpt>
      <trkpt lat="46.27752" lon="4.83289">
        <ele>169.2002</ele>
        <time>2026-05-13T14:29:06+02:00</time>
        <extensions>
          <gpxtpx:TrackPointExtension xmlns:gpxtpx="http://www.garmin.com/xmlschemas/TrackPointExtension/v1">
            <gpxtpx:hr>168</gpxtpx:hr>
          </gpxtpx:TrackPointExtension>
        </extensions>
      </trkpt>
      <trkpt lat="46.27749" lon="4.83295">
        <ele>169.2002</ele>
        <time>2026-05-13T14:29:07+02:00</time>
        <extensions>
          <gpxtpx:TrackPointExtension xmlns:gpxtpx="http://www.garmin.com/xmlschemas/TrackPointExtension/v1">
            <gpxtpx:hr>167</gpxtpx:hr>
          </gpxtpx:TrackPointExtension>
        </extensions>
      </trkpt>
      <trkpt lat="46.27746" lon="4.83302">
        <ele>168.90039</ele>
        <time>2026-05-13T14:29:08+02:00</time>
        <extensions>
          <gpxtpx:TrackPointExtension xmlns:gpxtpx="http://www.garmin.com/xmlschemas/TrackPointExtension/v1">
            <gpxtpx:hr>166</gpxtpx:hr>
          </gpxtpx:TrackPointExtension>
        </extensions>
      </trkpt>
      <trkpt lat="46.27743" lon="4.83309">
        <ele>168.5</ele>
        <time>2026-05-13T14:29:09+02:00</time>
        <extensions>
          <gpxtpx:TrackPointExtension xmlns:gpxtpx="http://www.garmin.com/xmlschemas/TrackPointExtension/v1">
            <gpxtpx:hr>166</gpxtpx:hr>
          </gpxtpx:TrackPointExtension>
        </extensions>
      </trkpt>
      <trkpt lat="46.2774" lon="4.83316">
        <ele>168.40039</ele>
        <time>2026-05-13T14:29:10+02:00</time>
        <extensions>
          <gpxtpx:TrackPointExtension xmlns:gpxtpx="http://www.garmin.com/xmlschemas/TrackPointExtension/v1">
            <gpxtpx:hr>167</gpxtpx:hr>
          </gpxtpx:TrackPointExtension>
        </extensions>
      </trkpt>
      <trkpt lat="46.27737" lon="4.83323">
        <ele>168.40039</ele>
        <time>2026-05-13T14:29:11+02:00</time>
        <extensions>
          <gpxtpx:TrackPointExtension xmlns:gpxtpx="http://www.garmin.com/xmlschemas/TrackPointExtension/v1">
            <gpxtpx:hr>166</gpxtpx:hr>
          </gpxtpx:TrackPointExtension>
        </extensions>
      </trkpt>
      <trkpt lat="46.27735" lon="4.8333">
        <ele>168.60059</ele>
        <time>2026-05-13T14:29:12+02:00</time>
        <extensions>
          <gpxtpx:TrackPointExtension xmlns:gpxtpx="http://www.garmin.com/xmlschemas/TrackPointExtension/v1">
            <gpxtpx:hr>166</gpxtpx:hr>
          </gpxtpx:TrackPointExtension>
        </extensions>
      </trkpt>
      <trkpt lat="46.27731" lon="4.83337">
        <ele>168.60059</ele>
        <time>2026-05-13T14:29:13+02:00</time>
        <extensions>
          <gpxtpx:TrackPointExtension xmlns:gpxtpx="http://www.garmin.com/xmlschemas/TrackPointExtension/v1">
            <gpxtpx:hr>166</gpxtpx:hr>
          </gpxtpx:TrackPointExtension>
        </extensions>
      </trkpt>
      <trkpt lat="46.27728" lon="4.83344">
        <ele>168.7998</ele>
        <time>2026-05-13T14:29:14+02:00</time>
        <extensions>
          <gpxtpx:TrackPointExtension xmlns:gpxtpx="http://www.garmin.com/xmlschemas/TrackPointExtension/v1">
            <gpxtpx:hr>166</gpxtpx:hr>
          </gpxtpx:TrackPointExtension>
        </extensions>
      </trkpt>
      <trkpt lat="46.27726" lon="4.83351">
        <ele>168.7998</ele>
        <time>2026-05-13T14:29:15+02:00</time>
        <extensions>
          <gpxtpx:TrackPointExtension xmlns:gpxtpx="http://www.garmin.com/xmlschemas/TrackPointExtension/v1">
            <gpxtpx:hr>165</gpxtpx:hr>
          </gpxtpx:TrackPointExtension>
        </extensions>
      </trkpt>
      <trkpt lat="46.27723" lon="4.83358">
        <ele>169</ele>
        <time>2026-05-13T14:29:16+02:00</time>
        <extensions>
          <gpxtpx:TrackPointExtension xmlns:gpxtpx="http://www.garmin.com/xmlschemas/TrackPointExtension/v1">
            <gpxtpx:hr>165</gpxtpx:hr>
          </gpxtpx:TrackPointExtension>
        </extensions>
      </trkpt>
      <trkpt lat="46.2772" lon="4.83365">
        <ele>169.10059</ele>
        <time>2026-05-13T14:29:17+02:00</time>
        <extensions>
          <gpxtpx:TrackPointExtension xmlns:gpxtpx="http://www.garmin.com/xmlschemas/TrackPointExtension/v1">
            <gpxtpx:hr>165</gpxtpx:hr>
          </gpxtpx:TrackPointExtension>
        </extensions>
      </trkpt>
      <trkpt lat="46.27718" lon="4.83372">
        <ele>169.10059</ele>
        <time>2026-05-13T14:29:18+02:00</time>
        <extensions>
          <gpxtpx:TrackPointExtension xmlns:gpxtpx="http://www.garmin.com/xmlschemas/TrackPointExtension/v1">
            <gpxtpx:hr>165</gpxtpx:hr>
          </gpxtpx:TrackPointExtension>
        </extensions>
      </trkpt>
      <trkpt lat="46.27715" lon="4.83379">
        <ele>169.2998</ele>
        <time>2026-05-13T14:29:19+02:00</time>
        <extensions>
          <gpxtpx:TrackPointExtension xmlns:gpxtpx="http://www.garmin.com/xmlschemas/TrackPointExtension/v1">
            <gpxtpx:hr>165</gpxtpx:hr>
          </gpxtpx:TrackPointExtension>
        </extensions>
      </trkpt>
      <trkpt lat="46.27713" lon="4.83386">
        <ele>169.60059</ele>
        <time>2026-05-13T14:29:20+02:00</time>
        <extensions>
          <gpxtpx:TrackPointExtension xmlns:gpxtpx="http://www.garmin.com/xmlschemas/TrackPointExtension/v1">
            <gpxtpx:hr>165</gpxtpx:hr>
          </gpxtpx:TrackPointExtension>
        </extensions>
      </trkpt>
      <trkpt lat="46.27711" lon="4.83394">
        <ele>169.7002</ele>
        <time>2026-05-13T14:29:21+02:00</time>
        <extensions>
          <gpxtpx:TrackPointExtension xmlns:gpxtpx="http://www.garmin.com/xmlschemas/TrackPointExtension/v1">
            <gpxtpx:hr>165</gpxtpx:hr>
          </gpxtpx:TrackPointExtension>
        </extensions>
      </trkpt>
      <trkpt lat="46.27709" lon="4.83401">
        <ele>170</ele>
        <time>2026-05-13T14:29:22+02:00</time>
        <extensions>
          <gpxtpx:TrackPointExtension xmlns:gpxtpx="http://www.garmin.com/xmlschemas/TrackPointExtension/v1">
            <gpxtpx:hr>166</gpxtpx:hr>
          </gpxtpx:TrackPointExtension>
        </extensions>
      </trkpt>
      <trkpt lat="46.27707" lon="4.83409">
        <ele>170</ele>
        <time>2026-05-13T14:29:23+02:00</time>
        <extensions>
          <gpxtpx:TrackPointExtension xmlns:gpxtpx="http://www.garmin.com/xmlschemas/TrackPointExtension/v1">
            <gpxtpx:hr>166</gpxtpx:hr>
          </gpxtpx:TrackPointExtension>
        </extensions>
      </trkpt>
      <trkpt lat="46.27705" lon="4.83416">
        <ele>170.10059</ele>
        <time>2026-05-13T14:29:24+02:00</time>
        <extensions>
          <gpxtpx:TrackPointExtension xmlns:gpxtpx="http://www.garmin.com/xmlschemas/TrackPointExtension/v1">
            <gpxtpx:hr>166</gpxtpx:hr>
          </gpxtpx:TrackPointExtension>
        </extensions>
      </trkpt>
      <trkpt lat="46.27703" lon="4.83424">
        <ele>170.10059</ele>
        <time>2026-05-13T14:29:25+02:00</time>
        <extensions>
          <gpxtpx:TrackPointExtension xmlns:gpxtpx="http://www.garmin.com/xmlschemas/TrackPointExtension/v1">
            <gpxtpx:hr>166</gpxtpx:hr>
          </gpxtpx:TrackPointExtension>
        </extensions>
      </trkpt>
      <trkpt lat="46.27701" lon="4.83431">
        <ele>170.10059</ele>
        <time>2026-05-13T14:29:26+02:00</time>
        <extensions>
          <gpxtpx:TrackPointExtension xmlns:gpxtpx="http://www.garmin.com/xmlschemas/TrackPointExtension/v1">
            <gpxtpx:hr>166</gpxtpx:hr>
          </gpxtpx:TrackPointExtension>
        </extensions>
      </trkpt>
      <trkpt lat="46.27699" lon="4.83438">
        <ele>170.10059</ele>
        <time>2026-05-13T14:29:27+02:00</time>
        <extensions>
          <gpxtpx:TrackPointExtension xmlns:gpxtpx="http://www.garmin.com/xmlschemas/TrackPointExtension/v1">
            <gpxtpx:hr>165</gpxtpx:hr>
          </gpxtpx:TrackPointExtension>
        </extensions>
      </trkpt>
      <trkpt lat="46.27698" lon="4.83444">
        <ele>170.10059</ele>
        <time>2026-05-13T14:29:28+02:00</time>
        <extensions>
          <gpxtpx:TrackPointExtension xmlns:gpxtpx="http://www.garmin.com/xmlschemas/TrackPointExtension/v1">
            <gpxtpx:hr>165</gpxtpx:hr>
          </gpxtpx:TrackPointExtension>
        </extensions>
      </trkpt>
      <trkpt lat="46.27696" lon="4.83451">
        <ele>170.10059</ele>
        <time>2026-05-13T14:29:29+02:00</time>
        <extensions>
          <gpxtpx:TrackPointExtension xmlns:gpxtpx="http://www.garmin.com/xmlschemas/TrackPointExtension/v1">
            <gpxtpx:hr>164</gpxtpx:hr>
          </gpxtpx:TrackPointExtension>
        </extensions>
      </trkpt>
      <trkpt lat="46.27694" lon="4.83456">
        <ele>170.10059</ele>
        <time>2026-05-13T14:29:30+02:00</time>
        <extensions>
          <gpxtpx:TrackPointExtension xmlns:gpxtpx="http://www.garmin.com/xmlschemas/TrackPointExtension/v1">
            <gpxtpx:hr>164</gpxtpx:hr>
          </gpxtpx:TrackPointExtension>
        </extensions>
      </trkpt>
      <trkpt lat="46.27694" lon="4.83462">
        <ele>170.10059</ele>
        <time>2026-05-13T14:29:31+02:00</time>
        <extensions>
          <gpxtpx:TrackPointExtension xmlns:gpxtpx="http://www.garmin.com/xmlschemas/TrackPointExtension/v1">
            <gpxtpx:hr>164</gpxtpx:hr>
          </gpxtpx:TrackPointExtension>
        </extensions>
      </trkpt>
      <trkpt lat="46.27695" lon="4.83468">
        <ele>170.10059</ele>
        <time>2026-05-13T14:29:32+02:00</time>
        <extensions>
          <gpxtpx:TrackPointExtension xmlns:gpxtpx="http://www.garmin.com/xmlschemas/TrackPointExtension/v1">
            <gpxtpx:hr>164</gpxtpx:hr>
          </gpxtpx:TrackPointExtension>
        </extensions>
      </trkpt>
      <trkpt lat="46.27697" lon="4.83472">
        <ele>170.10059</ele>
        <time>2026-05-13T14:29:33+02:00</time>
        <extensions>
          <gpxtpx:TrackPointExtension xmlns:gpxtpx="http://www.garmin.com/xmlschemas/TrackPointExtension/v1">
            <gpxtpx:hr>164</gpxtpx:hr>
          </gpxtpx:TrackPointExtension>
        </extensions>
      </trkpt>
      <trkpt lat="46.27701" lon="4.83476">
        <ele>170.10059</ele>
        <time>2026-05-13T14:29:34+02:00</time>
        <extensions>
          <gpxtpx:TrackPointExtension xmlns:gpxtpx="http://www.garmin.com/xmlschemas/TrackPointExtension/v1">
            <gpxtpx:hr>164</gpxtpx:hr>
          </gpxtpx:TrackPointExtension>
        </extensions>
      </trkpt>
      <trkpt lat="46.27706" lon="4.8348">
        <ele>170</ele>
        <time>2026-05-13T14:29:35+02:00</time>
        <extensions>
          <gpxtpx:TrackPointExtension xmlns:gpxtpx="http://www.garmin.com/xmlschemas/TrackPointExtension/v1">
            <gpxtpx:hr>164</gpxtpx:hr>
          </gpxtpx:TrackPointExtension>
        </extensions>
      </trkpt>
      <trkpt lat="46.2771" lon="4.83482">
        <ele>170</ele>
        <time>2026-05-13T14:29:36+02:00</time>
        <extensions>
          <gpxtpx:TrackPointExtension xmlns:gpxtpx="http://www.garmin.com/xmlschemas/TrackPointExtension/v1">
            <gpxtpx:hr>164</gpxtpx:hr>
          </gpxtpx:TrackPointExtension>
        </extensions>
      </trkpt>
      <trkpt lat="46.27715" lon="4.83484">
        <ele>169.90039</ele>
        <time>2026-05-13T14:29:37+02:00</time>
        <extensions>
          <gpxtpx:TrackPointExtension xmlns:gpxtpx="http://www.garmin.com/xmlschemas/TrackPointExtension/v1">
            <gpxtpx:hr>164</gpxtpx:hr>
          </gpxtpx:TrackPointExtension>
        </extensions>
      </trkpt>
      <trkpt lat="46.2772" lon="4.83486">
        <ele>169.90039</ele>
        <time>2026-05-13T14:29:38+02:00</time>
        <extensions>
          <gpxtpx:TrackPointExtension xmlns:gpxtpx="http://www.garmin.com/xmlschemas/TrackPointExtension/v1">
            <gpxtpx:hr>164</gpxtpx:hr>
          </gpxtpx:TrackPointExtension>
        </extensions>
      </trkpt>
      <trkpt lat="46.27726" lon="4.83489">
        <ele>169.7998</ele>
        <time>2026-05-13T14:29:39+02:00</time>
        <extensions>
          <gpxtpx:TrackPointExtension xmlns:gpxtpx="http://www.garmin.com/xmlschemas/TrackPointExtension/v1">
            <gpxtpx:hr>164</gpxtpx:hr>
          </gpxtpx:TrackPointExtension>
        </extensions>
      </trkpt>
      <trkpt lat="46.27731" lon="4.83491">
        <ele>169.60059</ele>
        <time>2026-05-13T14:29:40+02:00</time>
        <extensions>
          <gpxtpx:TrackPointExtension xmlns:gpxtpx="http://www.garmin.com/xmlschemas/TrackPointExtension/v1">
            <gpxtpx:hr>164</gpxtpx:hr>
          </gpxtpx:TrackPointExtension>
        </extensions>
      </trkpt>
      <trkpt lat="46.27737" lon="4.83493">
        <ele>169.40039</ele>
        <time>2026-05-13T14:29:41+02:00</time>
        <extensions>
          <gpxtpx:TrackPointExtension xmlns:gpxtpx="http://www.garmin.com/xmlschemas/TrackPointExtension/v1">
            <gpxtpx:hr>164</gpxtpx:hr>
          </gpxtpx:TrackPointExtension>
        </extensions>
      </trkpt>
      <trkpt lat="46.27743" lon="4.83496">
        <ele>169.2002</ele>
        <time>2026-05-13T14:29:42+02:00</time>
        <extensions>
          <gpxtpx:TrackPointExtension xmlns:gpxtpx="http://www.garmin.com/xmlschemas/TrackPointExtension/v1">
            <gpxtpx:hr>165</gpxtpx:hr>
          </gpxtpx:TrackPointExtension>
        </extensions>
      </trkpt>
      <trkpt lat="46.27749" lon="4.83498">
        <ele>168.90039</ele>
        <time>2026-05-13T14:29:43+02:00</time>
        <extensions>
          <gpxtpx:TrackPointExtension xmlns:gpxtpx="http://www.garmin.com/xmlschemas/TrackPointExtension/v1">
            <gpxtpx:hr>166</gpxtpx:hr>
          </gpxtpx:TrackPointExtension>
        </extensions>
      </trkpt>
      <trkpt lat="46.27754" lon="4.83501">
        <ele>168.7002</ele>
        <time>2026-05-13T14:29:44+02:00</time>
        <extensions>
          <gpxtpx:TrackPointExtension xmlns:gpxtpx="http://www.garmin.com/xmlschemas/TrackPointExtension/v1">
            <gpxtpx:hr>165</gpxtpx:hr>
          </gpxtpx:TrackPointExtension>
        </extensions>
      </trkpt>
      <trkpt lat="46.2776" lon="4.83503">
        <ele>168.40039</ele>
        <time>2026-05-13T14:29:45+02:00</time>
        <extensions>
          <gpxtpx:TrackPointExtension xmlns:gpxtpx="http://www.garmin.com/xmlschemas/TrackPointExtension/v1">
            <gpxtpx:hr>166</gpxtpx:hr>
          </gpxtpx:TrackPointExtension>
        </extensions>
      </trkpt>
      <trkpt lat="46.27766" lon="4.83505">
        <ele>168.10059</ele>
        <time>2026-05-13T14:29:46+02:00</time>
        <extensions>
          <gpxtpx:TrackPointExtension xmlns:gpxtpx="http://www.garmin.com/xmlschemas/TrackPointExtension/v1">
            <gpxtpx:hr>166</gpxtpx:hr>
          </gpxtpx:TrackPointExtension>
        </extensions>
      </trkpt>
      <trkpt lat="46.27772" lon="4.83508">
        <ele>167.90039</ele>
        <time>2026-05-13T14:29:47+02:00</time>
        <extensions>
          <gpxtpx:TrackPointExtension xmlns:gpxtpx="http://www.garmin.com/xmlschemas/TrackPointExtension/v1">
            <gpxtpx:hr>166</gpxtpx:hr>
          </gpxtpx:TrackPointExtension>
        </extensions>
      </trkpt>
      <trkpt lat="46.27778" lon="4.8351">
        <ele>167.7002</ele>
        <time>2026-05-13T14:29:48+02:00</time>
        <extensions>
          <gpxtpx:TrackPointExtension xmlns:gpxtpx="http://www.garmin.com/xmlschemas/TrackPointExtension/v1">
            <gpxtpx:hr>166</gpxtpx:hr>
          </gpxtpx:TrackPointExtension>
        </extensions>
      </trkpt>
      <trkpt lat="46.27783" lon="4.83512">
        <ele>167.40039</ele>
        <time>2026-05-13T14:29:49+02:00</time>
        <extensions>
          <gpxtpx:TrackPointExtension xmlns:gpxtpx="http://www.garmin.com/xmlschemas/TrackPointExtension/v1">
            <gpxtpx:hr>167</gpxtpx:hr>
          </gpxtpx:TrackPointExtension>
        </extensions>
      </trkpt>
      <trkpt lat="46.27789" lon="4.83514">
        <ele>167.2002</ele>
        <time>2026-05-13T14:29:50+02:00</time>
        <extensions>
          <gpxtpx:TrackPointExtension xmlns:gpxtpx="http://www.garmin.com/xmlschemas/TrackPointExtension/v1">
            <gpxtpx:hr>167</gpxtpx:hr>
          </gpxtpx:TrackPointExtension>
        </extensions>
      </trkpt>
      <trkpt lat="46.27795" lon="4.83516">
        <ele>166.90039</ele>
        <time>2026-05-13T14:29:51+02:00</time>
        <extensions>
          <gpxtpx:TrackPointExtension xmlns:gpxtpx="http://www.garmin.com/xmlschemas/TrackPointExtension/v1">
            <gpxtpx:hr>167</gpxtpx:hr>
          </gpxtpx:TrackPointExtension>
        </extensions>
      </trkpt>
      <trkpt lat="46.27801" lon="4.83518">
        <ele>166.7998</ele>
        <time>2026-05-13T14:29:52+02:00</time>
        <extensions>
          <gpxtpx:TrackPointExtension xmlns:gpxtpx="http://www.garmin.com/xmlschemas/TrackPointExtension/v1">
            <gpxtpx:hr>167</gpxtpx:hr>
          </gpxtpx:TrackPointExtension>
        </extensions>
      </trkpt>
      <trkpt lat="46.27806" lon="4.83521">
        <ele>166.7998</ele>
        <time>2026-05-13T14:29:53+02:00</time>
        <extensions>
          <gpxtpx:TrackPointExtension xmlns:gpxtpx="http://www.garmin.com/xmlschemas/TrackPointExtension/v1">
            <gpxtpx:hr>167</gpxtpx:hr>
          </gpxtpx:TrackPointExtension>
        </extensions>
      </trkpt>
      <trkpt lat="46.27812" lon="4.83523">
        <ele>166.7002</ele>
        <time>2026-05-13T14:29:54+02:00</time>
        <extensions>
          <gpxtpx:TrackPointExtension xmlns:gpxtpx="http://www.garmin.com/xmlschemas/TrackPointExtension/v1">
            <gpxtpx:hr>168</gpxtpx:hr>
          </gpxtpx:TrackPointExtension>
        </extensions>
      </trkpt>
      <trkpt lat="46.27818" lon="4.83525">
        <ele>166.60059</ele>
        <time>2026-05-13T14:29:55+02:00</time>
        <extensions>
          <gpxtpx:TrackPointExtension xmlns:gpxtpx="http://www.garmin.com/xmlschemas/TrackPointExtension/v1">
            <gpxtpx:hr>168</gpxtpx:hr>
          </gpxtpx:TrackPointExtension>
        </extensions>
      </trkpt>
      <trkpt lat="46.27824" lon="4.83527">
        <ele>166.60059</ele>
        <time>2026-05-13T14:29:56+02:00</time>
        <extensions>
          <gpxtpx:TrackPointExtension xmlns:gpxtpx="http://www.garmin.com/xmlschemas/TrackPointExtension/v1">
            <gpxtpx:hr>167</gpxtpx:hr>
          </gpxtpx:TrackPointExtension>
        </extensions>
      </trkpt>
      <trkpt lat="46.2783" lon="4.8353">
        <ele>166.90039</ele>
        <time>2026-05-13T14:29:57+02:00</time>
        <extensions>
          <gpxtpx:TrackPointExtension xmlns:gpxtpx="http://www.garmin.com/xmlschemas/TrackPointExtension/v1">
            <gpxtpx:hr>168</gpxtpx:hr>
          </gpxtpx:TrackPointExtension>
        </extensions>
      </trkpt>
      <trkpt lat="46.27836" lon="4.83532">
        <ele>166.90039</ele>
        <time>2026-05-13T14:29:58+02:00</time>
        <extensions>
          <gpxtpx:TrackPointExtension xmlns:gpxtpx="http://www.garmin.com/xmlschemas/TrackPointExtension/v1">
            <gpxtpx:hr>168</gpxtpx:hr>
          </gpxtpx:TrackPointExtension>
        </extensions>
      </trkpt>
      <trkpt lat="46.27842" lon="4.83534">
        <ele>166.90039</ele>
        <time>2026-05-13T14:29:59+02:00</time>
        <extensions>
          <gpxtpx:TrackPointExtension xmlns:gpxtpx="http://www.garmin.com/xmlschemas/TrackPointExtension/v1">
            <gpxtpx:hr>168</gpxtpx:hr>
          </gpxtpx:TrackPointExtension>
        </extensions>
      </trkpt>
      <trkpt lat="46.27848" lon="4.83536">
        <ele>167.40039</ele>
        <time>2026-05-13T14:30:00+02:00</time>
        <extensions>
          <gpxtpx:TrackPointExtension xmlns:gpxtpx="http://www.garmin.com/xmlschemas/TrackPointExtension/v1">
            <gpxtpx:hr>168</gpxtpx:hr>
          </gpxtpx:TrackPointExtension>
        </extensions>
      </trkpt>
      <trkpt lat="46.27854" lon="4.83538">
        <ele>167.5</ele>
        <time>2026-05-13T14:30:01+02:00</time>
        <extensions>
          <gpxtpx:TrackPointExtension xmlns:gpxtpx="http://www.garmin.com/xmlschemas/TrackPointExtension/v1">
            <gpxtpx:hr>169</gpxtpx:hr>
          </gpxtpx:TrackPointExtension>
        </extensions>
      </trkpt>
      <trkpt lat="46.2786" lon="4.8354">
        <ele>167.5</ele>
        <time>2026-05-13T14:30:02+02:00</time>
        <extensions>
          <gpxtpx:TrackPointExtension xmlns:gpxtpx="http://www.garmin.com/xmlschemas/TrackPointExtension/v1">
            <gpxtpx:hr>169</gpxtpx:hr>
          </gpxtpx:TrackPointExtension>
        </extensions>
      </trkpt>
      <trkpt lat="46.27866" lon="4.83542">
        <ele>167.60059</ele>
        <time>2026-05-13T14:30:03+02:00</time>
        <extensions>
          <gpxtpx:TrackPointExtension xmlns:gpxtpx="http://www.garmin.com/xmlschemas/TrackPointExtension/v1">
            <gpxtpx:hr>168</gpxtpx:hr>
          </gpxtpx:TrackPointExtension>
        </extensions>
      </trkpt>
      <trkpt lat="46.27871" lon="4.83545">
        <ele>168.10059</ele>
        <time>2026-05-13T14:30:04+02:00</time>
        <extensions>
          <gpxtpx:TrackPointExtension xmlns:gpxtpx="http://www.garmin.com/xmlschemas/TrackPointExtension/v1">
            <gpxtpx:hr>169</gpxtpx:hr>
          </gpxtpx:TrackPointExtension>
        </extensions>
      </trkpt>
      <trkpt lat="46.27877" lon="4.83547">
        <ele>168.10059</ele>
        <time>2026-05-13T14:30:05+02:00</time>
        <extensions>
          <gpxtpx:TrackPointExtension xmlns:gpxtpx="http://www.garmin.com/xmlschemas/TrackPointExtension/v1">
            <gpxtpx:hr>168</gpxtpx:hr>
          </gpxtpx:TrackPointExtension>
        </extensions>
      </trkpt>
      <trkpt lat="46.27883" lon="4.83549">
        <ele>168.2002</ele>
        <time>2026-05-13T14:30:06+02:00</time>
        <extensions>
          <gpxtpx:TrackPointExtension xmlns:gpxtpx="http://www.garmin.com/xmlschemas/TrackPointExtension/v1">
            <gpxtpx:hr>168</gpxtpx:hr>
          </gpxtpx:TrackPointExtension>
        </extensions>
      </trkpt>
      <trkpt lat="46.27889" lon="4.83551">
        <ele>168.2002</ele>
        <time>2026-05-13T14:30:07+02:00</time>
        <extensions>
          <gpxtpx:TrackPointExtension xmlns:gpxtpx="http://www.garmin.com/xmlschemas/TrackPointExtension/v1">
            <gpxtpx:hr>169</gpxtpx:hr>
          </gpxtpx:TrackPointExtension>
        </extensions>
      </trkpt>
      <trkpt lat="46.27895" lon="4.83554">
        <ele>168.5</ele>
        <time>2026-05-13T14:30:08+02:00</time>
        <extensions>
          <gpxtpx:TrackPointExtension xmlns:gpxtpx="http://www.garmin.com/xmlschemas/TrackPointExtension/v1">
            <gpxtpx:hr>170</gpxtpx:hr>
          </gpxtpx:TrackPointExtension>
        </extensions>
      </trkpt>
      <trkpt lat="46.27901" lon="4.83556">
        <ele>168.40039</ele>
        <time>2026-05-13T14:30:09+02:00</time>
        <extensions>
          <gpxtpx:TrackPointExtension xmlns:gpxtpx="http://www.garmin.com/xmlschemas/TrackPointExtension/v1">
            <gpxtpx:hr>169</gpxtpx:hr>
          </gpxtpx:TrackPointExtension>
        </extensions>
      </trkpt>
      <trkpt lat="46.27907" lon="4.83558">
        <ele>168.40039</ele>
        <time>2026-05-13T14:30:10+02:00</time>
        <extensions>
          <gpxtpx:TrackPointExtension xmlns:gpxtpx="http://www.garmin.com/xmlschemas/TrackPointExtension/v1">
            <gpxtpx:hr>169</gpxtpx:hr>
          </gpxtpx:TrackPointExtension>
        </extensions>
      </trkpt>
      <trkpt lat="46.27913" lon="4.83561">
        <ele>168.40039</ele>
        <time>2026-05-13T14:30:11+02:00</time>
        <extensions>
          <gpxtpx:TrackPointExtension xmlns:gpxtpx="http://www.garmin.com/xmlschemas/TrackPointExtension/v1">
            <gpxtpx:hr>170</gpxtpx:hr>
          </gpxtpx:TrackPointExtension>
        </extensions>
      </trkpt>
      <trkpt lat="46.27919" lon="4.83563">
        <ele>168.7002</ele>
        <time>2026-05-13T14:30:12+02:00</time>
        <extensions>
          <gpxtpx:TrackPointExtension xmlns:gpxtpx="http://www.garmin.com/xmlschemas/TrackPointExtension/v1">
            <gpxtpx:hr>170</gpxtpx:hr>
          </gpxtpx:TrackPointExtension>
        </extensions>
      </trkpt>
      <trkpt lat="46.27925" lon="4.83565">
        <ele>168.7002</ele>
        <time>2026-05-13T14:30:13+02:00</time>
        <extensions>
          <gpxtpx:TrackPointExtension xmlns:gpxtpx="http://www.garmin.com/xmlschemas/TrackPointExtension/v1">
            <gpxtpx:hr>169</gpxtpx:hr>
          </gpxtpx:TrackPointExtension>
        </extensions>
      </trkpt>
      <trkpt lat="46.27931" lon="4.83567">
        <ele>168.60059</ele>
        <time>2026-05-13T14:30:14+02:00</time>
        <extensions>
          <gpxtpx:TrackPointExtension xmlns:gpxtpx="http://www.garmin.com/xmlschemas/TrackPointExtension/v1">
            <gpxtpx:hr>170</gpxtpx:hr>
          </gpxtpx:TrackPointExtension>
        </extensions>
      </trkpt>
      <trkpt lat="46.27937" lon="4.83569">
        <ele>168.60059</ele>
        <time>2026-05-13T14:30:15+02:00</time>
        <extensions>
          <gpxtpx:TrackPointExtension xmlns:gpxtpx="http://www.garmin.com/xmlschemas/TrackPointExtension/v1">
            <gpxtpx:hr>170</gpxtpx:hr>
          </gpxtpx:TrackPointExtension>
        </extensions>
      </trkpt>
      <trkpt lat="46.27943" lon="4.83571">
        <ele>168.7998</ele>
        <time>2026-05-13T14:30:16+02:00</time>
        <extensions>
          <gpxtpx:TrackPointExtension xmlns:gpxtpx="http://www.garmin.com/xmlschemas/TrackPointExtension/v1">
            <gpxtpx:hr>171</gpxtpx:hr>
          </gpxtpx:TrackPointExtension>
        </extensions>
      </trkpt>
      <trkpt lat="46.27949" lon="4.83573">
        <ele>168.7002</ele>
        <time>2026-05-13T14:30:17+02:00</time>
        <extensions>
          <gpxtpx:TrackPointExtension xmlns:gpxtpx="http://www.garmin.com/xmlschemas/TrackPointExtension/v1">
            <gpxtpx:hr>171</gpxtpx:hr>
          </gpxtpx:TrackPointExtension>
        </extensions>
      </trkpt>
      <trkpt lat="46.27955" lon="4.83576">
        <ele>168.7002</ele>
        <time>2026-05-13T14:30:18+02:00</time>
        <extensions>
          <gpxtpx:TrackPointExtension xmlns:gpxtpx="http://www.garmin.com/xmlschemas/TrackPointExtension/v1">
            <gpxtpx:hr>170</gpxtpx:hr>
          </gpxtpx:TrackPointExtension>
        </extensions>
      </trkpt>
      <trkpt lat="46.27961" lon="4.83578">
        <ele>168.7002</ele>
        <time>2026-05-13T14:30:19+02:00</time>
        <extensions>
          <gpxtpx:TrackPointExtension xmlns:gpxtpx="http://www.garmin.com/xmlschemas/TrackPointExtension/v1">
            <gpxtpx:hr>171</gpxtpx:hr>
          </gpxtpx:TrackPointExtension>
        </extensions>
      </trkpt>
      <trkpt lat="46.27967" lon="4.8358">
        <ele>169</ele>
        <time>2026-05-13T14:30:20+02:00</time>
        <extensions>
          <gpxtpx:TrackPointExtension xmlns:gpxtpx="http://www.garmin.com/xmlschemas/TrackPointExtension/v1">
            <gpxtpx:hr>171</gpxtpx:hr>
          </gpxtpx:TrackPointExtension>
        </extensions>
      </trkpt>
      <trkpt lat="46.27973" lon="4.83582">
        <ele>169</ele>
        <time>2026-05-13T14:30:21+02:00</time>
        <extensions>
          <gpxtpx:TrackPointExtension xmlns:gpxtpx="http://www.garmin.com/xmlschemas/TrackPointExtension/v1">
            <gpxtpx:hr>171</gpxtpx:hr>
          </gpxtpx:TrackPointExtension>
        </extensions>
      </trkpt>
      <trkpt lat="46.27979" lon="4.83584">
        <ele>169</ele>
        <time>2026-05-13T14:30:22+02:00</time>
        <extensions>
          <gpxtpx:TrackPointExtension xmlns:gpxtpx="http://www.garmin.com/xmlschemas/TrackPointExtension/v1">
            <gpxtpx:hr>171</gpxtpx:hr>
          </gpxtpx:TrackPointExtension>
        </extensions>
      </trkpt>
      <trkpt lat="46.27985" lon="4.83587">
        <ele>169</ele>
        <time>2026-05-13T14:30:23+02:00</time>
        <extensions>
          <gpxtpx:TrackPointExtension xmlns:gpxtpx="http://www.garmin.com/xmlschemas/TrackPointExtension/v1">
            <gpxtpx:hr>171</gpxtpx:hr>
          </gpxtpx:TrackPointExtension>
        </extensions>
      </trkpt>
      <trkpt lat="46.27991" lon="4.83589">
        <ele>169.2002</ele>
        <time>2026-05-13T14:30:24+02:00</time>
        <extensions>
          <gpxtpx:TrackPointExtension xmlns:gpxtpx="http://www.garmin.com/xmlschemas/TrackPointExtension/v1">
            <gpxtpx:hr>171</gpxtpx:hr>
          </gpxtpx:TrackPointExtension>
        </extensions>
      </trkpt>
      <trkpt lat="46.27997" lon="4.83591">
        <ele>169.2002</ele>
        <time>2026-05-13T14:30:25+02:00</time>
        <extensions>
          <gpxtpx:TrackPointExtension xmlns:gpxtpx="http://www.garmin.com/xmlschemas/TrackPointExtension/v1">
            <gpxtpx:hr>171</gpxtpx:hr>
          </gpxtpx:TrackPointExtension>
        </extensions>
      </trkpt>
      <trkpt lat="46.28003" lon="4.83593">
        <ele>169.2002</ele>
        <time>2026-05-13T14:30:26+02:00</time>
        <extensions>
          <gpxtpx:TrackPointExtension xmlns:gpxtpx="http://www.garmin.com/xmlschemas/TrackPointExtension/v1">
            <gpxtpx:hr>171</gpxtpx:hr>
          </gpxtpx:TrackPointExtension>
        </extensions>
      </trkpt>
      <trkpt lat="46.28009" lon="4.83596">
        <ele>169.2002</ele>
        <time>2026-05-13T14:30:27+02:00</time>
        <extensions>
          <gpxtpx:TrackPointExtension xmlns:gpxtpx="http://www.garmin.com/xmlschemas/TrackPointExtension/v1">
            <gpxtpx:hr>171</gpxtpx:hr>
          </gpxtpx:TrackPointExtension>
        </extensions>
      </trkpt>
      <trkpt lat="46.28015" lon="4.83598">
        <ele>169.2002</ele>
        <time>2026-05-13T14:30:28+02:00</time>
        <extensions>
          <gpxtpx:TrackPointExtension xmlns:gpxtpx="http://www.garmin.com/xmlschemas/TrackPointExtension/v1">
            <gpxtpx:hr>171</gpxtpx:hr>
          </gpxtpx:TrackPointExtension>
        </extensions>
      </trkpt>
      <trkpt lat="46.28021" lon="4.836">
        <ele>169.2002</ele>
        <time>2026-05-13T14:30:29+02:00</time>
        <extensions>
          <gpxtpx:TrackPointExtension xmlns:gpxtpx="http://www.garmin.com/xmlschemas/TrackPointExtension/v1">
            <gpxtpx:hr>171</gpxtpx:hr>
          </gpxtpx:TrackPointExtension>
        </extensions>
      </trkpt>
      <trkpt lat="46.28027" lon="4.83602">
        <ele>169.10059</ele>
        <time>2026-05-13T14:30:30+02:00</time>
        <extensions>
          <gpxtpx:TrackPointExtension xmlns:gpxtpx="http://www.garmin.com/xmlschemas/TrackPointExtension/v1">
            <gpxtpx:hr>171</gpxtpx:hr>
          </gpxtpx:TrackPointExtension>
        </extensions>
      </trkpt>
      <trkpt lat="46.28033" lon="4.83604">
        <ele>169</ele>
        <time>2026-05-13T14:30:31+02:00</time>
        <extensions>
          <gpxtpx:TrackPointExtension xmlns:gpxtpx="http://www.garmin.com/xmlschemas/TrackPointExtension/v1">
            <gpxtpx:hr>170</gpxtpx:hr>
          </gpxtpx:TrackPointExtension>
        </extensions>
      </trkpt>
      <trkpt lat="46.28039" lon="4.83607">
        <ele>168.7002</ele>
        <time>2026-05-13T14:30:32+02:00</time>
        <extensions>
          <gpxtpx:TrackPointExtension xmlns:gpxtpx="http://www.garmin.com/xmlschemas/TrackPointExtension/v1">
            <gpxtpx:hr>171</gpxtpx:hr>
          </gpxtpx:TrackPointExtension>
        </extensions>
      </trkpt>
      <trkpt lat="46.28045" lon="4.83609">
        <ele>168.60059</ele>
        <time>2026-05-13T14:30:33+02:00</time>
        <extensions>
          <gpxtpx:TrackPointExtension xmlns:gpxtpx="http://www.garmin.com/xmlschemas/TrackPointExtension/v1">
            <gpxtpx:hr>171</gpxtpx:hr>
          </gpxtpx:TrackPointExtension>
        </extensions>
      </trkpt>
      <trkpt lat="46.28051" lon="4.83611">
        <ele>168.60059</ele>
        <time>2026-05-13T14:30:34+02:00</time>
        <extensions>
          <gpxtpx:TrackPointExtension xmlns:gpxtpx="http://www.garmin.com/xmlschemas/TrackPointExtension/v1">
            <gpxtpx:hr>171</gpxtpx:hr>
          </gpxtpx:TrackPointExtension>
        </extensions>
      </trkpt>
      <trkpt lat="46.28057" lon="4.83614">
        <ele>168.2998</ele>
        <time>2026-05-13T14:30:35+02:00</time>
        <extensions>
          <gpxtpx:TrackPointExtension xmlns:gpxtpx="http://www.garmin.com/xmlschemas/TrackPointExtension/v1">
            <gpxtpx:hr>172</gpxtpx:hr>
          </gpxtpx:TrackPointExtension>
        </extensions>
      </trkpt>
      <trkpt lat="46.28063" lon="4.83616">
        <ele>168.2002</ele>
        <time>2026-05-13T14:30:36+02:00</time>
        <extensions>
          <gpxtpx:TrackPointExtension xmlns:gpxtpx="http://www.garmin.com/xmlschemas/TrackPointExtension/v1">
            <gpxtpx:hr>172</gpxtpx:hr>
          </gpxtpx:TrackPointExtension>
        </extensions>
      </trkpt>
      <trkpt lat="46.28069" lon="4.83619">
        <ele>168.2002</ele>
        <time>2026-05-13T14:30:37+02:00</time>
        <extensions>
          <gpxtpx:TrackPointExtension xmlns:gpxtpx="http://www.garmin.com/xmlschemas/TrackPointExtension/v1">
            <gpxtpx:hr>172</gpxtpx:hr>
          </gpxtpx:TrackPointExtension>
        </extensions>
      </trkpt>
      <trkpt lat="46.28075" lon="4.83622">
        <ele>167.7998</ele>
        <time>2026-05-13T14:30:38+02:00</time>
        <extensions>
          <gpxtpx:TrackPointExtension xmlns:gpxtpx="http://www.garmin.com/xmlschemas/TrackPointExtension/v1">
            <gpxtpx:hr>172</gpxtpx:hr>
          </gpxtpx:TrackPointExtension>
        </extensions>
      </trkpt>
      <trkpt lat="46.28081" lon="4.83625">
        <ele>167.7998</ele>
        <time>2026-05-13T14:30:39+02:00</time>
        <extensions>
          <gpxtpx:TrackPointExtension xmlns:gpxtpx="http://www.garmin.com/xmlschemas/TrackPointExtension/v1">
            <gpxtpx:hr>172</gpxtpx:hr>
          </gpxtpx:TrackPointExtension>
        </extensions>
      </trkpt>
      <trkpt lat="46.28087" lon="4.83629">
        <ele>167.7002</ele>
        <time>2026-05-13T14:30:40+02:00</time>
        <extensions>
          <gpxtpx:TrackPointExtension xmlns:gpxtpx="http://www.garmin.com/xmlschemas/TrackPointExtension/v1">
            <gpxtpx:hr>172</gpxtpx:hr>
          </gpxtpx:TrackPointExtension>
        </extensions>
      </trkpt>
      <trkpt lat="46.28093" lon="4.83632">
        <ele>167.2998</ele>
        <time>2026-05-13T14:30:41+02:00</time>
        <extensions>
          <gpxtpx:TrackPointExtension xmlns:gpxtpx="http://www.garmin.com/xmlschemas/TrackPointExtension/v1">
            <gpxtpx:hr>173</gpxtpx:hr>
          </gpxtpx:TrackPointExtension>
        </extensions>
      </trkpt>
      <trkpt lat="46.28098" lon="4.83635">
        <ele>167.2998</ele>
        <time>2026-05-13T14:30:42+02:00</time>
        <extensions>
          <gpxtpx:TrackPointExtension xmlns:gpxtpx="http://www.garmin.com/xmlschemas/TrackPointExtension/v1">
            <gpxtpx:hr>172</gpxtpx:hr>
          </gpxtpx:TrackPointExtension>
        </extensions>
      </trkpt>
      <trkpt lat="46.28105" lon="4.83639">
        <ele>167</ele>
        <time>2026-05-13T14:30:43+02:00</time>
        <extensions>
          <gpxtpx:TrackPointExtension xmlns:gpxtpx="http://www.garmin.com/xmlschemas/TrackPointExtension/v1">
            <gpxtpx:hr>173</gpxtpx:hr>
          </gpxtpx:TrackPointExtension>
        </extensions>
      </trkpt>
      <trkpt lat="46.28111" lon="4.83642">
        <ele>167</ele>
        <time>2026-05-13T14:30:44+02:00</time>
        <extensions>
          <gpxtpx:TrackPointExtension xmlns:gpxtpx="http://www.garmin.com/xmlschemas/TrackPointExtension/v1">
            <gpxtpx:hr>172</gpxtpx:hr>
          </gpxtpx:TrackPointExtension>
        </extensions>
      </trkpt>
      <trkpt lat="46.28116" lon="4.83645">
        <ele>167</ele>
        <time>2026-05-13T14:30:45+02:00</time>
        <extensions>
          <gpxtpx:TrackPointExtension xmlns:gpxtpx="http://www.garmin.com/xmlschemas/TrackPointExtension/v1">
            <gpxtpx:hr>173</gpxtpx:hr>
          </gpxtpx:TrackPointExtension>
        </extensions>
      </trkpt>
      <trkpt lat="46.28122" lon="4.83648">
        <ele>166.90039</ele>
        <time>2026-05-13T14:30:46+02:00</time>
        <extensions>
          <gpxtpx:TrackPointExtension xmlns:gpxtpx="http://www.garmin.com/xmlschemas/TrackPointExtension/v1">
            <gpxtpx:hr>173</gpxtpx:hr>
          </gpxtpx:TrackPointExtension>
        </extensions>
      </trkpt>
      <trkpt lat="46.28128" lon="4.83651">
        <ele>167</ele>
        <time>2026-05-13T14:30:47+02:00</time>
        <extensions>
          <gpxtpx:TrackPointExtension xmlns:gpxtpx="http://www.garmin.com/xmlschemas/TrackPointExtension/v1">
            <gpxtpx:hr>173</gpxtpx:hr>
          </gpxtpx:TrackPointExtension>
        </extensions>
      </trkpt>
      <trkpt lat="46.28134" lon="4.83654">
        <ele>167</ele>
        <time>2026-05-13T14:30:48+02:00</time>
        <extensions>
          <gpxtpx:TrackPointExtension xmlns:gpxtpx="http://www.garmin.com/xmlschemas/TrackPointExtension/v1">
            <gpxtpx:hr>173</gpxtpx:hr>
          </gpxtpx:TrackPointExtension>
        </extensions>
      </trkpt>
      <trkpt lat="46.2814" lon="4.83656">
        <ele>167.10059</ele>
        <time>2026-05-13T14:30:49+02:00</time>
        <extensions>
          <gpxtpx:TrackPointExtension xmlns:gpxtpx="http://www.garmin.com/xmlschemas/TrackPointExtension/v1">
            <gpxtpx:hr>173</gpxtpx:hr>
          </gpxtpx:TrackPointExtension>
        </extensions>
      </trkpt>
      <trkpt lat="46.28145" lon="4.8366">
        <ele>167.2002</ele>
        <time>2026-05-13T14:30:50+02:00</time>
        <extensions>
          <gpxtpx:TrackPointExtension xmlns:gpxtpx="http://www.garmin.com/xmlschemas/TrackPointExtension/v1">
            <gpxtpx:hr>174</gpxtpx:hr>
          </gpxtpx:TrackPointExtension>
        </extensions>
      </trkpt>
      <trkpt lat="46.28151" lon="4.83663">
        <ele>167.2998</ele>
        <time>2026-05-13T14:30:51+02:00</time>
        <extensions>
          <gpxtpx:TrackPointExtension xmlns:gpxtpx="http://www.garmin.com/xmlschemas/TrackPointExtension/v1">
            <gpxtpx:hr>174</gpxtpx:hr>
          </gpxtpx:TrackPointExtension>
        </extensions>
      </trkpt>
      <trkpt lat="46.28157" lon="4.83666">
        <ele>167.5</ele>
        <time>2026-05-13T14:30:52+02:00</time>
        <extensions>
          <gpxtpx:TrackPointExtension xmlns:gpxtpx="http://www.garmin.com/xmlschemas/TrackPointExtension/v1">
            <gpxtpx:hr>174</gpxtpx:hr>
          </gpxtpx:TrackPointExtension>
        </extensions>
      </trkpt>
      <trkpt lat="46.28163" lon="4.83669">
        <ele>167.60059</ele>
        <time>2026-05-13T14:30:53+02:00</time>
        <extensions>
          <gpxtpx:TrackPointExtension xmlns:gpxtpx="http://www.garmin.com/xmlschemas/TrackPointExtension/v1">
            <gpxtpx:hr>174</gpxtpx:hr>
          </gpxtpx:TrackPointExtension>
        </extensions>
      </trkpt>
      <trkpt lat="46.28168" lon="4.83672">
        <ele>167.60059</ele>
        <time>2026-05-13T14:30:54+02:00</time>
        <extensions>
          <gpxtpx:TrackPointExtension xmlns:gpxtpx="http://www.garmin.com/xmlschemas/TrackPointExtension/v1">
            <gpxtpx:hr>174</gpxtpx:hr>
          </gpxtpx:TrackPointExtension>
        </extensions>
      </trkpt>
      <trkpt lat="46.28174" lon="4.83675">
        <ele>167.90039</ele>
        <time>2026-05-13T14:30:55+02:00</time>
        <extensions>
          <gpxtpx:TrackPointExtension xmlns:gpxtpx="http://www.garmin.com/xmlschemas/TrackPointExtension/v1">
            <gpxtpx:hr>173</gpxtpx:hr>
          </gpxtpx:TrackPointExtension>
        </extensions>
      </trkpt>
      <trkpt lat="46.2818" lon="4.83678">
        <ele>167.90039</ele>
        <time>2026-05-13T14:30:56+02:00</time>
        <extensions>
          <gpxtpx:TrackPointExtension xmlns:gpxtpx="http://www.garmin.com/xmlschemas/TrackPointExtension/v1">
            <gpxtpx:hr>173</gpxtpx:hr>
          </gpxtpx:TrackPointExtension>
        </extensions>
      </trkpt>
      <trkpt lat="46.28185" lon="4.83681">
        <ele>167.7998</ele>
        <time>2026-05-13T14:30:57+02:00</time>
        <extensions>
          <gpxtpx:TrackPointExtension xmlns:gpxtpx="http://www.garmin.com/xmlschemas/TrackPointExtension/v1">
            <gpxtpx:hr>173</gpxtpx:hr>
          </gpxtpx:TrackPointExtension>
        </extensions>
      </trkpt>
      <trkpt lat="46.28191" lon="4.83685">
        <ele>168</ele>
        <time>2026-05-13T14:30:58+02:00</time>
        <extensions>
          <gpxtpx:TrackPointExtension xmlns:gpxtpx="http://www.garmin.com/xmlschemas/TrackPointExtension/v1">
            <gpxtpx:hr>174</gpxtpx:hr>
          </gpxtpx:TrackPointExtension>
        </extensions>
      </trkpt>
      <trkpt lat="46.28197" lon="4.83688">
        <ele>167.90039</ele>
        <time>2026-05-13T14:30:59+02:00</time>
        <extensions>
          <gpxtpx:TrackPointExtension xmlns:gpxtpx="http://www.garmin.com/xmlschemas/TrackPointExtension/v1">
            <gpxtpx:hr>174</gpxtpx:hr>
          </gpxtpx:TrackPointExtension>
        </extensions>
      </trkpt>
      <trkpt lat="46.28202" lon="4.8369">
        <ele>167.7998</ele>
        <time>2026-05-13T14:31:00+02:00</time>
        <extensions>
          <gpxtpx:TrackPointExtension xmlns:gpxtpx="http://www.garmin.com/xmlschemas/TrackPointExtension/v1">
            <gpxtpx:hr>173</gpxtpx:hr>
          </gpxtpx:TrackPointExtension>
        </extensions>
      </trkpt>
      <trkpt lat="46.28208" lon="4.83693">
        <ele>167.90039</ele>
        <time>2026-05-13T14:31:01+02:00</time>
        <extensions>
          <gpxtpx:TrackPointExtension xmlns:gpxtpx="http://www.garmin.com/xmlschemas/TrackPointExtension/v1">
            <gpxtpx:hr>173</gpxtpx:hr>
          </gpxtpx:TrackPointExtension>
        </extensions>
      </trkpt>
      <trkpt lat="46.28213" lon="4.83695">
        <ele>167.90039</ele>
        <time>2026-05-13T14:31:02+02:00</time>
        <extensions>
          <gpxtpx:TrackPointExtension xmlns:gpxtpx="http://www.garmin.com/xmlschemas/TrackPointExtension/v1">
            <gpxtpx:hr>173</gpxtpx:hr>
          </gpxtpx:TrackPointExtension>
        </extensions>
      </trkpt>
      <trkpt lat="46.28218" lon="4.83698">
        <ele>167.90039</ele>
        <time>2026-05-13T14:31:03+02:00</time>
        <extensions>
          <gpxtpx:TrackPointExtension xmlns:gpxtpx="http://www.garmin.com/xmlschemas/TrackPointExtension/v1">
            <gpxtpx:hr>172</gpxtpx:hr>
          </gpxtpx:TrackPointExtension>
        </extensions>
      </trkpt>
      <trkpt lat="46.28223" lon="4.83701">
        <ele>168.10059</ele>
        <time>2026-05-13T14:31:04+02:00</time>
        <extensions>
          <gpxtpx:TrackPointExtension xmlns:gpxtpx="http://www.garmin.com/xmlschemas/TrackPointExtension/v1">
            <gpxtpx:hr>172</gpxtpx:hr>
          </gpxtpx:TrackPointExtension>
        </extensions>
      </trkpt>
      <trkpt lat="46.28227" lon="4.83706">
        <ele>168.2002</ele>
        <time>2026-05-13T14:31:05+02:00</time>
        <extensions>
          <gpxtpx:TrackPointExtension xmlns:gpxtpx="http://www.garmin.com/xmlschemas/TrackPointExtension/v1">
            <gpxtpx:hr>172</gpxtpx:hr>
          </gpxtpx:TrackPointExtension>
        </extensions>
      </trkpt>
      <trkpt lat="46.2823" lon="4.8371">
        <ele>168.5</ele>
        <time>2026-05-13T14:31:06+02:00</time>
        <extensions>
          <gpxtpx:TrackPointExtension xmlns:gpxtpx="http://www.garmin.com/xmlschemas/TrackPointExtension/v1">
            <gpxtpx:hr>171</gpxtpx:hr>
          </gpxtpx:TrackPointExtension>
        </extensions>
      </trkpt>
      <trkpt lat="46.28234" lon="4.83714">
        <ele>168.60059</ele>
        <time>2026-05-13T14:31:07+02:00</time>
        <extensions>
          <gpxtpx:TrackPointExtension xmlns:gpxtpx="http://www.garmin.com/xmlschemas/TrackPointExtension/v1">
            <gpxtpx:hr>170</gpxtpx:hr>
          </gpxtpx:TrackPointExtension>
        </extensions>
      </trkpt>
      <trkpt lat="46.28239" lon="4.83717">
        <ele>169</ele>
        <time>2026-05-13T14:31:08+02:00</time>
        <extensions>
          <gpxtpx:TrackPointExtension xmlns:gpxtpx="http://www.garmin.com/xmlschemas/TrackPointExtension/v1">
            <gpxtpx:hr>169</gpxtpx:hr>
          </gpxtpx:TrackPointExtension>
        </extensions>
      </trkpt>
      <trkpt lat="46.28244" lon="4.83719">
        <ele>169.10059</ele>
        <time>2026-05-13T14:31:09+02:00</time>
        <extensions>
          <gpxtpx:TrackPointExtension xmlns:gpxtpx="http://www.garmin.com/xmlschemas/TrackPointExtension/v1">
            <gpxtpx:hr>170</gpxtpx:hr>
          </gpxtpx:TrackPointExtension>
        </extensions>
      </trkpt>
      <trkpt lat="46.2825" lon="4.83721">
        <ele>169.2002</ele>
        <time>2026-05-13T14:31:10+02:00</time>
        <extensions>
          <gpxtpx:TrackPointExtension xmlns:gpxtpx="http://www.garmin.com/xmlschemas/TrackPointExtension/v1">
            <gpxtpx:hr>170</gpxtpx:hr>
          </gpxtpx:TrackPointExtension>
        </extensions>
      </trkpt>
      <trkpt lat="46.28256" lon="4.83723">
        <ele>169.2002</ele>
        <time>2026-05-13T14:31:11+02:00</time>
        <extensions>
          <gpxtpx:TrackPointExtension xmlns:gpxtpx="http://www.garmin.com/xmlschemas/TrackPointExtension/v1">
            <gpxtpx:hr>170</gpxtpx:hr>
          </gpxtpx:TrackPointExtension>
        </extensions>
      </trkpt>
      <trkpt lat="46.28261" lon="4.83725">
        <ele>169.5</ele>
        <time>2026-05-13T14:31:12+02:00</time>
        <extensions>
          <gpxtpx:TrackPointExtension xmlns:gpxtpx="http://www.garmin.com/xmlschemas/TrackPointExtension/v1">
            <gpxtpx:hr>170</gpxtpx:hr>
          </gpxtpx:TrackPointExtension>
        </extensions>
      </trkpt>
      <trkpt lat="46.28267" lon="4.83728">
        <ele>169.40039</ele>
        <time>2026-05-13T14:31:13+02:00</time>
        <extensions>
          <gpxtpx:TrackPointExtension xmlns:gpxtpx="http://www.garmin.com/xmlschemas/TrackPointExtension/v1">
            <gpxtpx:hr>170</gpxtpx:hr>
          </gpxtpx:TrackPointExtension>
        </extensions>
      </trkpt>
      <trkpt lat="46.28273" lon="4.83731">
        <ele>169.5</ele>
        <time>2026-05-13T14:31:14+02:00</time>
        <extensions>
          <gpxtpx:TrackPointExtension xmlns:gpxtpx="http://www.garmin.com/xmlschemas/TrackPointExtension/v1">
            <gpxtpx:hr>171</gpxtpx:hr>
          </gpxtpx:TrackPointExtension>
        </extensions>
      </trkpt>
      <trkpt lat="46.28279" lon="4.83734">
        <ele>169.7998</ele>
        <time>2026-05-13T14:31:15+02:00</time>
        <extensions>
          <gpxtpx:TrackPointExtension xmlns:gpxtpx="http://www.garmin.com/xmlschemas/TrackPointExtension/v1">
            <gpxtpx:hr>171</gpxtpx:hr>
          </gpxtpx:TrackPointExtension>
        </extensions>
      </trkpt>
      <trkpt lat="46.28285" lon="4.83737">
        <ele>169.7998</ele>
        <time>2026-05-13T14:31:16+02:00</time>
        <extensions>
          <gpxtpx:TrackPointExtension xmlns:gpxtpx="http://www.garmin.com/xmlschemas/TrackPointExtension/v1">
            <gpxtpx:hr>171</gpxtpx:hr>
          </gpxtpx:TrackPointExtension>
        </extensions>
      </trkpt>
      <trkpt lat="46.28291" lon="4.8374">
        <ele>169.90039</ele>
        <time>2026-05-13T14:31:17+02:00</time>
        <extensions>
          <gpxtpx:TrackPointExtension xmlns:gpxtpx="http://www.garmin.com/xmlschemas/TrackPointExtension/v1">
            <gpxtpx:hr>171</gpxtpx:hr>
          </gpxtpx:TrackPointExtension>
        </extensions>
      </trkpt>
      <trkpt lat="46.28297" lon="4.83743">
        <ele>170.10059</ele>
        <time>2026-05-13T14:31:18+02:00</time>
        <extensions>
          <gpxtpx:TrackPointExtension xmlns:gpxtpx="http://www.garmin.com/xmlschemas/TrackPointExtension/v1">
            <gpxtpx:hr>171</gpxtpx:hr>
          </gpxtpx:TrackPointExtension>
        </extensions>
      </trkpt>
      <trkpt lat="46.28303" lon="4.83746">
        <ele>170.2002</ele>
        <time>2026-05-13T14:31:19+02:00</time>
        <extensions>
          <gpxtpx:TrackPointExtension xmlns:gpxtpx="http://www.garmin.com/xmlschemas/TrackPointExtension/v1">
            <gpxtpx:hr>172</gpxtpx:hr>
          </gpxtpx:TrackPointExtension>
        </extensions>
      </trkpt>
      <trkpt lat="46.28308" lon="4.83748">
        <ele>170.2002</ele>
        <time>2026-05-13T14:31:20+02:00</time>
        <extensions>
          <gpxtpx:TrackPointExtension xmlns:gpxtpx="http://www.garmin.com/xmlschemas/TrackPointExtension/v1">
            <gpxtpx:hr>172</gpxtpx:hr>
          </gpxtpx:TrackPointExtension>
        </extensions>
      </trkpt>
      <trkpt lat="46.28314" lon="4.8375">
        <ele>170.2002</ele>
        <time>2026-05-13T14:31:21+02:00</time>
        <extensions>
          <gpxtpx:TrackPointExtension xmlns:gpxtpx="http://www.garmin.com/xmlschemas/TrackPointExtension/v1">
            <gpxtpx:hr>172</gpxtpx:hr>
          </gpxtpx:TrackPointExtension>
        </extensions>
      </trkpt>
      <trkpt lat="46.2832" lon="4.83752">
        <ele>170.60059</ele>
        <time>2026-05-13T14:31:22+02:00</time>
        <extensions>
          <gpxtpx:TrackPointExtension xmlns:gpxtpx="http://www.garmin.com/xmlschemas/TrackPointExtension/v1">
            <gpxtpx:hr>171</gpxtpx:hr>
          </gpxtpx:TrackPointExtension>
        </extensions>
      </trkpt>
      <trkpt lat="46.28326" lon="4.83754">
        <ele>170.7002</ele>
        <time>2026-05-13T14:31:23+02:00</time>
        <extensions>
          <gpxtpx:TrackPointExtension xmlns:gpxtpx="http://www.garmin.com/xmlschemas/TrackPointExtension/v1">
            <gpxtpx:hr>172</gpxtpx:hr>
          </gpxtpx:TrackPointExtension>
        </extensions>
      </trkpt>
      <trkpt lat="46.28332" lon="4.83755">
        <ele>170.7002</ele>
        <time>2026-05-13T14:31:24+02:00</time>
        <extensions>
          <gpxtpx:TrackPointExtension xmlns:gpxtpx="http://www.garmin.com/xmlschemas/TrackPointExtension/v1">
            <gpxtpx:hr>172</gpxtpx:hr>
          </gpxtpx:TrackPointExtension>
        </extensions>
      </trkpt>
      <trkpt lat="46.28338" lon="4.83755">
        <ele>170.7998</ele>
        <time>2026-05-13T14:31:25+02:00</time>
        <extensions>
          <gpxtpx:TrackPointExtension xmlns:gpxtpx="http://www.garmin.com/xmlschemas/TrackPointExtension/v1">
            <gpxtpx:hr>172</gpxtpx:hr>
          </gpxtpx:TrackPointExtension>
        </extensions>
      </trkpt>
      <trkpt lat="46.28344" lon="4.83756">
        <ele>171</ele>
        <time>2026-05-13T14:31:26+02:00</time>
        <extensions>
          <gpxtpx:TrackPointExtension xmlns:gpxtpx="http://www.garmin.com/xmlschemas/TrackPointExtension/v1">
            <gpxtpx:hr>172</gpxtpx:hr>
          </gpxtpx:TrackPointExtension>
        </extensions>
      </trkpt>
      <trkpt lat="46.2835" lon="4.83756">
        <ele>171.10059</ele>
        <time>2026-05-13T14:31:27+02:00</time>
        <extensions>
          <gpxtpx:TrackPointExtension xmlns:gpxtpx="http://www.garmin.com/xmlschemas/TrackPointExtension/v1">
            <gpxtpx:hr>171</gpxtpx:hr>
          </gpxtpx:TrackPointExtension>
        </extensions>
      </trkpt>
      <trkpt lat="46.28356" lon="4.83758">
        <ele>171.2002</ele>
        <time>2026-05-13T14:31:28+02:00</time>
        <extensions>
          <gpxtpx:TrackPointExtension xmlns:gpxtpx="http://www.garmin.com/xmlschemas/TrackPointExtension/v1">
            <gpxtpx:hr>172</gpxtpx:hr>
          </gpxtpx:TrackPointExtension>
        </extensions>
      </trkpt>
      <trkpt lat="46.28362" lon="4.83759">
        <ele>171.40039</ele>
        <time>2026-05-13T14:31:29+02:00</time>
        <extensions>
          <gpxtpx:TrackPointExtension xmlns:gpxtpx="http://www.garmin.com/xmlschemas/TrackPointExtension/v1">
            <gpxtpx:hr>172</gpxtpx:hr>
          </gpxtpx:TrackPointExtension>
        </extensions>
      </trkpt>
      <trkpt lat="46.28369" lon="4.83761">
        <ele>171.5</ele>
        <time>2026-05-13T14:31:30+02:00</time>
        <extensions>
          <gpxtpx:TrackPointExtension xmlns:gpxtpx="http://www.garmin.com/xmlschemas/TrackPointExtension/v1">
            <gpxtpx:hr>172</gpxtpx:hr>
          </gpxtpx:TrackPointExtension>
        </extensions>
      </trkpt>
      <trkpt lat="46.28375" lon="4.83763">
        <ele>171.60059</ele>
        <time>2026-05-13T14:31:31+02:00</time>
        <extensions>
          <gpxtpx:TrackPointExtension xmlns:gpxtpx="http://www.garmin.com/xmlschemas/TrackPointExtension/v1">
            <gpxtpx:hr>171</gpxtpx:hr>
          </gpxtpx:TrackPointExtension>
        </extensions>
      </trkpt>
      <trkpt lat="46.28381" lon="4.83765">
        <ele>171.7002</ele>
        <time>2026-05-13T14:31:32+02:00</time>
        <extensions>
          <gpxtpx:TrackPointExtension xmlns:gpxtpx="http://www.garmin.com/xmlschemas/TrackPointExtension/v1">
            <gpxtpx:hr>171</gpxtpx:hr>
          </gpxtpx:TrackPointExtension>
        </extensions>
      </trkpt>
      <trkpt lat="46.28387" lon="4.83767">
        <ele>171.7998</ele>
        <time>2026-05-13T14:31:33+02:00</time>
        <extensions>
          <gpxtpx:TrackPointExtension xmlns:gpxtpx="http://www.garmin.com/xmlschemas/TrackPointExtension/v1">
            <gpxtpx:hr>171</gpxtpx:hr>
          </gpxtpx:TrackPointExtension>
        </extensions>
      </trkpt>
      <trkpt lat="46.28393" lon="4.8377">
        <ele>172</ele>
        <time>2026-05-13T14:31:34+02:00</time>
        <extensions>
          <gpxtpx:TrackPointExtension xmlns:gpxtpx="http://www.garmin.com/xmlschemas/TrackPointExtension/v1">
            <gpxtpx:hr>171</gpxtpx:hr>
          </gpxtpx:TrackPointExtension>
        </extensions>
      </trkpt>
      <trkpt lat="46.28399" lon="4.83773">
        <ele>172</ele>
        <time>2026-05-13T14:31:35+02:00</time>
        <extensions>
          <gpxtpx:TrackPointExtension xmlns:gpxtpx="http://www.garmin.com/xmlschemas/TrackPointExtension/v1">
            <gpxtpx:hr>171</gpxtpx:hr>
          </gpxtpx:TrackPointExtension>
        </extensions>
      </trkpt>
      <trkpt lat="46.28405" lon="4.83776">
        <ele>172.10059</ele>
        <time>2026-05-13T14:31:36+02:00</time>
        <extensions>
          <gpxtpx:TrackPointExtension xmlns:gpxtpx="http://www.garmin.com/xmlschemas/TrackPointExtension/v1">
            <gpxtpx:hr>171</gpxtpx:hr>
          </gpxtpx:TrackPointExtension>
        </extensions>
      </trkpt>
      <trkpt lat="46.2841" lon="4.83778">
        <ele>172.10059</ele>
        <time>2026-05-13T14:31:37+02:00</time>
        <extensions>
          <gpxtpx:TrackPointExtension xmlns:gpxtpx="http://www.garmin.com/xmlschemas/TrackPointExtension/v1">
            <gpxtpx:hr>171</gpxtpx:hr>
          </gpxtpx:TrackPointExtension>
        </extensions>
      </trkpt>
      <trkpt lat="46.28417" lon="4.83781">
        <ele>172.10059</ele>
        <time>2026-05-13T14:31:38+02:00</time>
        <extensions>
          <gpxtpx:TrackPointExtension xmlns:gpxtpx="http://www.garmin.com/xmlschemas/TrackPointExtension/v1">
            <gpxtpx:hr>170</gpxtpx:hr>
          </gpxtpx:TrackPointExtension>
        </extensions>
      </trkpt>
      <trkpt lat="46.28423" lon="4.83783">
        <ele>172.10059</ele>
        <time>2026-05-13T14:31:39+02:00</time>
        <extensions>
          <gpxtpx:TrackPointExtension xmlns:gpxtpx="http://www.garmin.com/xmlschemas/TrackPointExtension/v1">
            <gpxtpx:hr>170</gpxtpx:hr>
          </gpxtpx:TrackPointExtension>
        </extensions>
      </trkpt>
      <trkpt lat="46.28428" lon="4.83784">
        <ele>172.10059</ele>
        <time>2026-05-13T14:31:40+02:00</time>
        <extensions>
          <gpxtpx:TrackPointExtension xmlns:gpxtpx="http://www.garmin.com/xmlschemas/TrackPointExtension/v1">
            <gpxtpx:hr>169</gpxtpx:hr>
          </gpxtpx:TrackPointExtension>
        </extensions>
      </trkpt>
      <trkpt lat="46.28434" lon="4.83783">
        <ele>172.10059</ele>
        <time>2026-05-13T14:31:41+02:00</time>
        <extensions>
          <gpxtpx:TrackPointExtension xmlns:gpxtpx="http://www.garmin.com/xmlschemas/TrackPointExtension/v1">
            <gpxtpx:hr>170</gpxtpx:hr>
          </gpxtpx:TrackPointExtension>
        </extensions>
      </trkpt>
      <trkpt lat="46.2844" lon="4.83782">
        <ele>172</ele>
        <time>2026-05-13T14:31:42+02:00</time>
        <extensions>
          <gpxtpx:TrackPointExtension xmlns:gpxtpx="http://www.garmin.com/xmlschemas/TrackPointExtension/v1">
            <gpxtpx:hr>170</gpxtpx:hr>
          </gpxtpx:TrackPointExtension>
        </extensions>
      </trkpt>
      <trkpt lat="46.28446" lon="4.83779">
        <ele>172</ele>
        <time>2026-05-13T14:31:43+02:00</time>
        <extensions>
          <gpxtpx:TrackPointExtension xmlns:gpxtpx="http://www.garmin.com/xmlschemas/TrackPointExtension/v1">
            <gpxtpx:hr>170</gpxtpx:hr>
          </gpxtpx:TrackPointExtension>
        </extensions>
      </trkpt>
      <trkpt lat="46.28451" lon="4.83775">
        <ele>172</ele>
        <time>2026-05-13T14:31:44+02:00</time>
        <extensions>
          <gpxtpx:TrackPointExtension xmlns:gpxtpx="http://www.garmin.com/xmlschemas/TrackPointExtension/v1">
            <gpxtpx:hr>171</gpxtpx:hr>
          </gpxtpx:TrackPointExtension>
        </extensions>
      </trkpt>
      <trkpt lat="46.28456" lon="4.8377">
        <ele>172</ele>
        <time>2026-05-13T14:31:45+02:00</time>
        <extensions>
          <gpxtpx:TrackPointExtension xmlns:gpxtpx="http://www.garmin.com/xmlschemas/TrackPointExtension/v1">
            <gpxtpx:hr>169</gpxtpx:hr>
          </gpxtpx:TrackPointExtension>
        </extensions>
      </trkpt>
      <trkpt lat="46.28462" lon="4.83765">
        <ele>172</ele>
        <time>2026-05-13T14:31:46+02:00</time>
        <extensions>
          <gpxtpx:TrackPointExtension xmlns:gpxtpx="http://www.garmin.com/xmlschemas/TrackPointExtension/v1">
            <gpxtpx:hr>170</gpxtpx:hr>
          </gpxtpx:TrackPointExtension>
        </extensions>
      </trkpt>
      <trkpt lat="46.28466" lon="4.83759">
        <ele>172</ele>
        <time>2026-05-13T14:31:47+02:00</time>
        <extensions>
          <gpxtpx:TrackPointExtension xmlns:gpxtpx="http://www.garmin.com/xmlschemas/TrackPointExtension/v1">
            <gpxtpx:hr>170</gpxtpx:hr>
          </gpxtpx:TrackPointExtension>
        </extensions>
      </trkpt>
      <trkpt lat="46.28471" lon="4.83754">
        <ele>172.10059</ele>
        <time>2026-05-13T14:31:48+02:00</time>
        <extensions>
          <gpxtpx:TrackPointExtension xmlns:gpxtpx="http://www.garmin.com/xmlschemas/TrackPointExtension/v1">
            <gpxtpx:hr>170</gpxtpx:hr>
          </gpxtpx:TrackPointExtension>
        </extensions>
      </trkpt>
      <trkpt lat="46.28476" lon="4.83749">
        <ele>172.10059</ele>
        <time>2026-05-13T14:31:49+02:00</time>
        <extensions>
          <gpxtpx:TrackPointExtension xmlns:gpxtpx="http://www.garmin.com/xmlschemas/TrackPointExtension/v1">
            <gpxtpx:hr>170</gpxtpx:hr>
          </gpxtpx:TrackPointExtension>
        </extensions>
      </trkpt>
      <trkpt lat="46.28481" lon="4.83743">
        <ele>172</ele>
        <time>2026-05-13T14:31:50+02:00</time>
        <extensions>
          <gpxtpx:TrackPointExtension xmlns:gpxtpx="http://www.garmin.com/xmlschemas/TrackPointExtension/v1">
            <gpxtpx:hr>170</gpxtpx:hr>
          </gpxtpx:TrackPointExtension>
        </extensions>
      </trkpt>
      <trkpt lat="46.28486" lon="4.83738">
        <ele>172</ele>
        <time>2026-05-13T14:31:51+02:00</time>
        <extensions>
          <gpxtpx:TrackPointExtension xmlns:gpxtpx="http://www.garmin.com/xmlschemas/TrackPointExtension/v1">
            <gpxtpx:hr>170</gpxtpx:hr>
          </gpxtpx:TrackPointExtension>
        </extensions>
      </trkpt>
      <trkpt lat="46.2849" lon="4.83732">
        <ele>172</ele>
        <time>2026-05-13T14:31:52+02:00</time>
        <extensions>
          <gpxtpx:TrackPointExtension xmlns:gpxtpx="http://www.garmin.com/xmlschemas/TrackPointExtension/v1">
            <gpxtpx:hr>171</gpxtpx:hr>
          </gpxtpx:TrackPointExtension>
        </extensions>
      </trkpt>
      <trkpt lat="46.28495" lon="4.83726">
        <ele>172</ele>
        <time>2026-05-13T14:31:53+02:00</time>
        <extensions>
          <gpxtpx:TrackPointExtension xmlns:gpxtpx="http://www.garmin.com/xmlschemas/TrackPointExtension/v1">
            <gpxtpx:hr>170</gpxtpx:hr>
          </gpxtpx:TrackPointExtension>
        </extensions>
      </trkpt>
      <trkpt lat="46.285" lon="4.83721">
        <ele>171.90039</ele>
        <time>2026-05-13T14:31:54+02:00</time>
        <extensions>
          <gpxtpx:TrackPointExtension xmlns:gpxtpx="http://www.garmin.com/xmlschemas/TrackPointExtension/v1">
            <gpxtpx:hr>171</gpxtpx:hr>
          </gpxtpx:TrackPointExtension>
        </extensions>
      </trkpt>
      <trkpt lat="46.28504" lon="4.83715">
        <ele>171.7998</ele>
        <time>2026-05-13T14:31:55+02:00</time>
        <extensions>
          <gpxtpx:TrackPointExtension xmlns:gpxtpx="http://www.garmin.com/xmlschemas/TrackPointExtension/v1">
            <gpxtpx:hr>171</gpxtpx:hr>
          </gpxtpx:TrackPointExtension>
        </extensions>
      </trkpt>
      <trkpt lat="46.28509" lon="4.8371">
        <ele>171.7998</ele>
        <time>2026-05-13T14:31:56+02:00</time>
        <extensions>
          <gpxtpx:TrackPointExtension xmlns:gpxtpx="http://www.garmin.com/xmlschemas/TrackPointExtension/v1">
            <gpxtpx:hr>172</gpxtpx:hr>
          </gpxtpx:TrackPointExtension>
        </extensions>
      </trkpt>
      <trkpt lat="46.28513" lon="4.83705">
        <ele>171.7998</ele>
        <time>2026-05-13T14:31:57+02:00</time>
        <extensions>
          <gpxtpx:TrackPointExtension xmlns:gpxtpx="http://www.garmin.com/xmlschemas/TrackPointExtension/v1">
            <gpxtpx:hr>171</gpxtpx:hr>
          </gpxtpx:TrackPointExtension>
        </extensions>
      </trkpt>
      <trkpt lat="46.28518" lon="4.837">
        <ele>171.7998</ele>
        <time>2026-05-13T14:31:58+02:00</time>
        <extensions>
          <gpxtpx:TrackPointExtension xmlns:gpxtpx="http://www.garmin.com/xmlschemas/TrackPointExtension/v1">
            <gpxtpx:hr>171</gpxtpx:hr>
          </gpxtpx:TrackPointExtension>
        </extensions>
      </trkpt>
      <trkpt lat="46.28523" lon="4.83694">
        <ele>171.7998</ele>
        <time>2026-05-13T14:31:59+02:00</time>
        <extensions>
          <gpxtpx:TrackPointExtension xmlns:gpxtpx="http://www.garmin.com/xmlschemas/TrackPointExtension/v1">
            <gpxtpx:hr>171</gpxtpx:hr>
          </gpxtpx:TrackPointExtension>
        </extensions>
      </trkpt>
      <trkpt lat="46.28528" lon="4.83689">
        <ele>171.7998</ele>
        <time>2026-05-13T14:32:00+02:00</time>
        <extensions>
          <gpxtpx:TrackPointExtension xmlns:gpxtpx="http://www.garmin.com/xmlschemas/TrackPointExtension/v1">
            <gpxtpx:hr>171</gpxtpx:hr>
          </gpxtpx:TrackPointExtension>
        </extensions>
      </trkpt>
      <trkpt lat="46.28532" lon="4.83684">
        <ele>171.7998</ele>
        <time>2026-05-13T14:32:01+02:00</time>
        <extensions>
          <gpxtpx:TrackPointExtension xmlns:gpxtpx="http://www.garmin.com/xmlschemas/TrackPointExtension/v1">
            <gpxtpx:hr>172</gpxtpx:hr>
          </gpxtpx:TrackPointExtension>
        </extensions>
      </trkpt>
      <trkpt lat="46.28537" lon="4.83678">
        <ele>171.7998</ele>
        <time>2026-05-13T14:32:02+02:00</time>
        <extensions>
          <gpxtpx:TrackPointExtension xmlns:gpxtpx="http://www.garmin.com/xmlschemas/TrackPointExtension/v1">
            <gpxtpx:hr>172</gpxtpx:hr>
          </gpxtpx:TrackPointExtension>
        </extensions>
      </trkpt>
      <trkpt lat="46.28542" lon="4.83673">
        <ele>171.7998</ele>
        <time>2026-05-13T14:32:03+02:00</time>
        <extensions>
          <gpxtpx:TrackPointExtension xmlns:gpxtpx="http://www.garmin.com/xmlschemas/TrackPointExtension/v1">
            <gpxtpx:hr>171</gpxtpx:hr>
          </gpxtpx:TrackPointExtension>
        </extensions>
      </trkpt>
      <trkpt lat="46.28546" lon="4.83667">
        <ele>171.90039</ele>
        <time>2026-05-13T14:32:04+02:00</time>
        <extensions>
          <gpxtpx:TrackPointExtension xmlns:gpxtpx="http://www.garmin.com/xmlschemas/TrackPointExtension/v1">
            <gpxtpx:hr>171</gpxtpx:hr>
          </gpxtpx:TrackPointExtension>
        </extensions>
      </trkpt>
      <trkpt lat="46.28551" lon="4.83662">
        <ele>171.7998</ele>
        <time>2026-05-13T14:32:05+02:00</time>
        <extensions>
          <gpxtpx:TrackPointExtension xmlns:gpxtpx="http://www.garmin.com/xmlschemas/TrackPointExtension/v1">
            <gpxtpx:hr>171</gpxtpx:hr>
          </gpxtpx:TrackPointExtension>
        </extensions>
      </trkpt>
      <trkpt lat="46.28556" lon="4.83656">
        <ele>171.90039</ele>
        <time>2026-05-13T14:32:06+02:00</time>
        <extensions>
          <gpxtpx:TrackPointExtension xmlns:gpxtpx="http://www.garmin.com/xmlschemas/TrackPointExtension/v1">
            <gpxtpx:hr>171</gpxtpx:hr>
          </gpxtpx:TrackPointExtension>
        </extensions>
      </trkpt>
      <trkpt lat="46.28561" lon="4.83651">
        <ele>171.90039</ele>
        <time>2026-05-13T14:32:07+02:00</time>
        <extensions>
          <gpxtpx:TrackPointExtension xmlns:gpxtpx="http://www.garmin.com/xmlschemas/TrackPointExtension/v1">
            <gpxtpx:hr>171</gpxtpx:hr>
          </gpxtpx:TrackPointExtension>
        </extensions>
      </trkpt>
      <trkpt lat="46.28566" lon="4.83645">
        <ele>171.90039</ele>
        <time>2026-05-13T14:32:08+02:00</time>
        <extensions>
          <gpxtpx:TrackPointExtension xmlns:gpxtpx="http://www.garmin.com/xmlschemas/TrackPointExtension/v1">
            <gpxtpx:hr>171</gpxtpx:hr>
          </gpxtpx:TrackPointExtension>
        </extensions>
      </trkpt>
      <trkpt lat="46.28571" lon="4.83639">
        <ele>171.90039</ele>
        <time>2026-05-13T14:32:09+02:00</time>
        <extensions>
          <gpxtpx:TrackPointExtension xmlns:gpxtpx="http://www.garmin.com/xmlschemas/TrackPointExtension/v1">
            <gpxtpx:hr>171</gpxtpx:hr>
          </gpxtpx:TrackPointExtension>
        </extensions>
      </trkpt>
      <trkpt lat="46.28576" lon="4.83634">
        <ele>171.7998</ele>
        <time>2026-05-13T14:32:10+02:00</time>
        <extensions>
          <gpxtpx:TrackPointExtension xmlns:gpxtpx="http://www.garmin.com/xmlschemas/TrackPointExtension/v1">
            <gpxtpx:hr>171</gpxtpx:hr>
          </gpxtpx:TrackPointExtension>
        </extensions>
      </trkpt>
      <trkpt lat="46.28581" lon="4.83628">
        <ele>171.7998</ele>
        <time>2026-05-13T14:32:11+02:00</time>
        <extensions>
          <gpxtpx:TrackPointExtension xmlns:gpxtpx="http://www.garmin.com/xmlschemas/TrackPointExtension/v1">
            <gpxtpx:hr>171</gpxtpx:hr>
          </gpxtpx:TrackPointExtension>
        </extensions>
      </trkpt>
      <trkpt lat="46.28585" lon="4.83623">
        <ele>171.7998</ele>
        <time>2026-05-13T14:32:12+02:00</time>
        <extensions>
          <gpxtpx:TrackPointExtension xmlns:gpxtpx="http://www.garmin.com/xmlschemas/TrackPointExtension/v1">
            <gpxtpx:hr>171</gpxtpx:hr>
          </gpxtpx:TrackPointExtension>
        </extensions>
      </trkpt>
      <trkpt lat="46.2859" lon="4.83617">
        <ele>171.7002</ele>
        <time>2026-05-13T14:32:13+02:00</time>
        <extensions>
          <gpxtpx:TrackPointExtension xmlns:gpxtpx="http://www.garmin.com/xmlschemas/TrackPointExtension/v1">
            <gpxtpx:hr>172</gpxtpx:hr>
          </gpxtpx:TrackPointExtension>
        </extensions>
      </trkpt>
      <trkpt lat="46.28595" lon="4.83612">
        <ele>171.60059</ele>
        <time>2026-05-13T14:32:14+02:00</time>
        <extensions>
          <gpxtpx:TrackPointExtension xmlns:gpxtpx="http://www.garmin.com/xmlschemas/TrackPointExtension/v1">
            <gpxtpx:hr>172</gpxtpx:hr>
          </gpxtpx:TrackPointExtension>
        </extensions>
      </trkpt>
      <trkpt lat="46.28599" lon="4.83606">
        <ele>171.60059</ele>
        <time>2026-05-13T14:32:15+02:00</time>
        <extensions>
          <gpxtpx:TrackPointExtension xmlns:gpxtpx="http://www.garmin.com/xmlschemas/TrackPointExtension/v1">
            <gpxtpx:hr>171</gpxtpx:hr>
          </gpxtpx:TrackPointExtension>
        </extensions>
      </trkpt>
      <trkpt lat="46.28604" lon="4.83601">
        <ele>171.5</ele>
        <time>2026-05-13T14:32:16+02:00</time>
        <extensions>
          <gpxtpx:TrackPointExtension xmlns:gpxtpx="http://www.garmin.com/xmlschemas/TrackPointExtension/v1">
            <gpxtpx:hr>171</gpxtpx:hr>
          </gpxtpx:TrackPointExtension>
        </extensions>
      </trkpt>
      <trkpt lat="46.28608" lon="4.83596">
        <ele>171.40039</ele>
        <time>2026-05-13T14:32:17+02:00</time>
        <extensions>
          <gpxtpx:TrackPointExtension xmlns:gpxtpx="http://www.garmin.com/xmlschemas/TrackPointExtension/v1">
            <gpxtpx:hr>172</gpxtpx:hr>
          </gpxtpx:TrackPointExtension>
        </extensions>
      </trkpt>
      <trkpt lat="46.28613" lon="4.8359">
        <ele>171.2998</ele>
        <time>2026-05-13T14:32:18+02:00</time>
        <extensions>
          <gpxtpx:TrackPointExtension xmlns:gpxtpx="http://www.garmin.com/xmlschemas/TrackPointExtension/v1">
            <gpxtpx:hr>172</gpxtpx:hr>
          </gpxtpx:TrackPointExtension>
        </extensions>
      </trkpt>
      <trkpt lat="46.28618" lon="4.83585">
        <ele>171.2002</ele>
        <time>2026-05-13T14:32:19+02:00</time>
        <extensions>
          <gpxtpx:TrackPointExtension xmlns:gpxtpx="http://www.garmin.com/xmlschemas/TrackPointExtension/v1">
            <gpxtpx:hr>172</gpxtpx:hr>
          </gpxtpx:TrackPointExtension>
        </extensions>
      </trkpt>
      <trkpt lat="46.28622" lon="4.8358">
        <ele>171.2002</ele>
        <time>2026-05-13T14:32:20+02:00</time>
        <extensions>
          <gpxtpx:TrackPointExtension xmlns:gpxtpx="http://www.garmin.com/xmlschemas/TrackPointExtension/v1">
            <gpxtpx:hr>173</gpxtpx:hr>
          </gpxtpx:TrackPointExtension>
        </extensions>
      </trkpt>
      <trkpt lat="46.28627" lon="4.83574">
        <ele>171.10059</ele>
        <time>2026-05-13T14:32:21+02:00</time>
        <extensions>
          <gpxtpx:TrackPointExtension xmlns:gpxtpx="http://www.garmin.com/xmlschemas/TrackPointExtension/v1">
            <gpxtpx:hr>173</gpxtpx:hr>
          </gpxtpx:TrackPointExtension>
        </extensions>
      </trkpt>
      <trkpt lat="46.28631" lon="4.83569">
        <ele>170.90039</ele>
        <time>2026-05-13T14:32:22+02:00</time>
        <extensions>
          <gpxtpx:TrackPointExtension xmlns:gpxtpx="http://www.garmin.com/xmlschemas/TrackPointExtension/v1">
            <gpxtpx:hr>173</gpxtpx:hr>
          </gpxtpx:TrackPointExtension>
        </extensions>
      </trkpt>
      <trkpt lat="46.28636" lon="4.83564">
        <ele>170.90039</ele>
        <time>2026-05-13T14:32:23+02:00</time>
        <extensions>
          <gpxtpx:TrackPointExtension xmlns:gpxtpx="http://www.garmin.com/xmlschemas/TrackPointExtension/v1">
            <gpxtpx:hr>173</gpxtpx:hr>
          </gpxtpx:TrackPointExtension>
        </extensions>
      </trkpt>
      <trkpt lat="46.28641" lon="4.83559">
        <ele>170.7002</ele>
        <time>2026-05-13T14:32:24+02:00</time>
        <extensions>
          <gpxtpx:TrackPointExtension xmlns:gpxtpx="http://www.garmin.com/xmlschemas/TrackPointExtension/v1">
            <gpxtpx:hr>173</gpxtpx:hr>
          </gpxtpx:TrackPointExtension>
        </extensions>
      </trkpt>
      <trkpt lat="46.28645" lon="4.83553">
        <ele>170.7002</ele>
        <time>2026-05-13T14:32:25+02:00</time>
        <extensions>
          <gpxtpx:TrackPointExtension xmlns:gpxtpx="http://www.garmin.com/xmlschemas/TrackPointExtension/v1">
            <gpxtpx:hr>174</gpxtpx:hr>
          </gpxtpx:TrackPointExtension>
        </extensions>
      </trkpt>
      <trkpt lat="46.2865" lon="4.83548">
        <ele>170.5</ele>
        <time>2026-05-13T14:32:26+02:00</time>
        <extensions>
          <gpxtpx:TrackPointExtension xmlns:gpxtpx="http://www.garmin.com/xmlschemas/TrackPointExtension/v1">
            <gpxtpx:hr>173</gpxtpx:hr>
          </gpxtpx:TrackPointExtension>
        </extensions>
      </trkpt>
      <trkpt lat="46.28655" lon="4.83542">
        <ele>170.2998</ele>
        <time>2026-05-13T14:32:27+02:00</time>
        <extensions>
          <gpxtpx:TrackPointExtension xmlns:gpxtpx="http://www.garmin.com/xmlschemas/TrackPointExtension/v1">
            <gpxtpx:hr>173</gpxtpx:hr>
          </gpxtpx:TrackPointExtension>
        </extensions>
      </trkpt>
      <trkpt lat="46.2866" lon="4.83537">
        <ele>170.2998</ele>
        <time>2026-05-13T14:32:28+02:00</time>
        <extensions>
          <gpxtpx:TrackPointExtension xmlns:gpxtpx="http://www.garmin.com/xmlschemas/TrackPointExtension/v1">
            <gpxtpx:hr>173</gpxtpx:hr>
          </gpxtpx:TrackPointExtension>
        </extensions>
      </trkpt>
      <trkpt lat="46.28665" lon="4.83531">
        <ele>170</ele>
        <time>2026-05-13T14:32:29+02:00</time>
        <extensions>
          <gpxtpx:TrackPointExtension xmlns:gpxtpx="http://www.garmin.com/xmlschemas/TrackPointExtension/v1">
            <gpxtpx:hr>173</gpxtpx:hr>
          </gpxtpx:TrackPointExtension>
        </extensions>
      </trkpt>
      <trkpt lat="46.28669" lon="4.83526">
        <ele>169.90039</ele>
        <time>2026-05-13T14:32:30+02:00</time>
        <extensions>
          <gpxtpx:TrackPointExtension xmlns:gpxtpx="http://www.garmin.com/xmlschemas/TrackPointExtension/v1">
            <gpxtpx:hr>172</gpxtpx:hr>
          </gpxtpx:TrackPointExtension>
        </extensions>
      </trkpt>
      <trkpt lat="46.28674" lon="4.83521">
        <ele>169.7998</ele>
        <time>2026-05-13T14:32:31+02:00</time>
        <extensions>
          <gpxtpx:TrackPointExtension xmlns:gpxtpx="http://www.garmin.com/xmlschemas/TrackPointExtension/v1">
            <gpxtpx:hr>173</gpxtpx:hr>
          </gpxtpx:TrackPointExtension>
        </extensions>
      </trkpt>
      <trkpt lat="46.28679" lon="4.83516">
        <ele>169.7002</ele>
        <time>2026-05-13T14:32:32+02:00</time>
        <extensions>
          <gpxtpx:TrackPointExtension xmlns:gpxtpx="http://www.garmin.com/xmlschemas/TrackPointExtension/v1">
            <gpxtpx:hr>173</gpxtpx:hr>
          </gpxtpx:TrackPointExtension>
        </extensions>
      </trkpt>
      <trkpt lat="46.28684" lon="4.8351">
        <ele>169.60059</ele>
        <time>2026-05-13T14:32:33+02:00</time>
        <extensions>
          <gpxtpx:TrackPointExtension xmlns:gpxtpx="http://www.garmin.com/xmlschemas/TrackPointExtension/v1">
            <gpxtpx:hr>172</gpxtpx:hr>
          </gpxtpx:TrackPointExtension>
        </extensions>
      </trkpt>
      <trkpt lat="46.28688" lon="4.83505">
        <ele>169.5</ele>
        <time>2026-05-13T14:32:34+02:00</time>
        <extensions>
          <gpxtpx:TrackPointExtension xmlns:gpxtpx="http://www.garmin.com/xmlschemas/TrackPointExtension/v1">
            <gpxtpx:hr>172</gpxtpx:hr>
          </gpxtpx:TrackPointExtension>
        </extensions>
      </trkpt>
      <trkpt lat="46.28693" lon="4.83499">
        <ele>169.40039</ele>
        <time>2026-05-13T14:32:35+02:00</time>
        <extensions>
          <gpxtpx:TrackPointExtension xmlns:gpxtpx="http://www.garmin.com/xmlschemas/TrackPointExtension/v1">
            <gpxtpx:hr>172</gpxtpx:hr>
          </gpxtpx:TrackPointExtension>
        </extensions>
      </trkpt>
      <trkpt lat="46.28698" lon="4.83494">
        <ele>169.40039</ele>
        <time>2026-05-13T14:32:36+02:00</time>
        <extensions>
          <gpxtpx:TrackPointExtension xmlns:gpxtpx="http://www.garmin.com/xmlschemas/TrackPointExtension/v1">
            <gpxtpx:hr>172</gpxtpx:hr>
          </gpxtpx:TrackPointExtension>
        </extensions>
      </trkpt>
      <trkpt lat="46.28702" lon="4.83488">
        <ele>169.2998</ele>
        <time>2026-05-13T14:32:37+02:00</time>
        <extensions>
          <gpxtpx:TrackPointExtension xmlns:gpxtpx="http://www.garmin.com/xmlschemas/TrackPointExtension/v1">
            <gpxtpx:hr>172</gpxtpx:hr>
          </gpxtpx:TrackPointExtension>
        </extensions>
      </trkpt>
      <trkpt lat="46.28707" lon="4.83483">
        <ele>169.2002</ele>
        <time>2026-05-13T14:32:38+02:00</time>
        <extensions>
          <gpxtpx:TrackPointExtension xmlns:gpxtpx="http://www.garmin.com/xmlschemas/TrackPointExtension/v1">
            <gpxtpx:hr>172</gpxtpx:hr>
          </gpxtpx:TrackPointExtension>
        </extensions>
      </trkpt>
      <trkpt lat="46.28712" lon="4.83477">
        <ele>169.2002</ele>
        <time>2026-05-13T14:32:39+02:00</time>
        <extensions>
          <gpxtpx:TrackPointExtension xmlns:gpxtpx="http://www.garmin.com/xmlschemas/TrackPointExtension/v1">
            <gpxtpx:hr>172</gpxtpx:hr>
          </gpxtpx:TrackPointExtension>
        </extensions>
      </trkpt>
      <trkpt lat="46.28717" lon="4.83472">
        <ele>169.10059</ele>
        <time>2026-05-13T14:32:40+02:00</time>
        <extensions>
          <gpxtpx:TrackPointExtension xmlns:gpxtpx="http://www.garmin.com/xmlschemas/TrackPointExtension/v1">
            <gpxtpx:hr>171</gpxtpx:hr>
          </gpxtpx:TrackPointExtension>
        </extensions>
      </trkpt>
      <trkpt lat="46.28722" lon="4.83466">
        <ele>169</ele>
        <time>2026-05-13T14:32:41+02:00</time>
        <extensions>
          <gpxtpx:TrackPointExtension xmlns:gpxtpx="http://www.garmin.com/xmlschemas/TrackPointExtension/v1">
            <gpxtpx:hr>171</gpxtpx:hr>
          </gpxtpx:TrackPointExtension>
        </extensions>
      </trkpt>
      <trkpt lat="46.28727" lon="4.83461">
        <ele>169</ele>
        <time>2026-05-13T14:32:42+02:00</time>
        <extensions>
          <gpxtpx:TrackPointExtension xmlns:gpxtpx="http://www.garmin.com/xmlschemas/TrackPointExtension/v1">
            <gpxtpx:hr>171</gpxtpx:hr>
          </gpxtpx:TrackPointExtension>
        </extensions>
      </trkpt>
      <trkpt lat="46.28732" lon="4.83456">
        <ele>168.7998</ele>
        <time>2026-05-13T14:32:43+02:00</time>
        <extensions>
          <gpxtpx:TrackPointExtension xmlns:gpxtpx="http://www.garmin.com/xmlschemas/TrackPointExtension/v1">
            <gpxtpx:hr>171</gpxtpx:hr>
          </gpxtpx:TrackPointExtension>
        </extensions>
      </trkpt>
      <trkpt lat="46.28736" lon="4.83451">
        <ele>168.7998</ele>
        <time>2026-05-13T14:32:44+02:00</time>
        <extensions>
          <gpxtpx:TrackPointExtension xmlns:gpxtpx="http://www.garmin.com/xmlschemas/TrackPointExtension/v1">
            <gpxtpx:hr>171</gpxtpx:hr>
          </gpxtpx:TrackPointExtension>
        </extensions>
      </trkpt>
      <trkpt lat="46.28742" lon="4.83445">
        <ele>168.7002</ele>
        <time>2026-05-13T14:32:45+02:00</time>
        <extensions>
          <gpxtpx:TrackPointExtension xmlns:gpxtpx="http://www.garmin.com/xmlschemas/TrackPointExtension/v1">
            <gpxtpx:hr>171</gpxtpx:hr>
          </gpxtpx:TrackPointExtension>
        </extensions>
      </trkpt>
      <trkpt lat="46.28746" lon="4.8344">
        <ele>168.60059</ele>
        <time>2026-05-13T14:32:46+02:00</time>
        <extensions>
          <gpxtpx:TrackPointExtension xmlns:gpxtpx="http://www.garmin.com/xmlschemas/TrackPointExtension/v1">
            <gpxtpx:hr>171</gpxtpx:hr>
          </gpxtpx:TrackPointExtension>
        </extensions>
      </trkpt>
      <trkpt lat="46.28751" lon="4.83435">
        <ele>168.60059</ele>
        <time>2026-05-13T14:32:47+02:00</time>
        <extensions>
          <gpxtpx:TrackPointExtension xmlns:gpxtpx="http://www.garmin.com/xmlschemas/TrackPointExtension/v1">
            <gpxtpx:hr>171</gpxtpx:hr>
          </gpxtpx:TrackPointExtension>
        </extensions>
      </trkpt>
      <trkpt lat="46.28756" lon="4.83429">
        <ele>168.5</ele>
        <time>2026-05-13T14:32:48+02:00</time>
        <extensions>
          <gpxtpx:TrackPointExtension xmlns:gpxtpx="http://www.garmin.com/xmlschemas/TrackPointExtension/v1">
            <gpxtpx:hr>171</gpxtpx:hr>
          </gpxtpx:TrackPointExtension>
        </extensions>
      </trkpt>
      <trkpt lat="46.28761" lon="4.83423">
        <ele>168.5</ele>
        <time>2026-05-13T14:32:49+02:00</time>
        <extensions>
          <gpxtpx:TrackPointExtension xmlns:gpxtpx="http://www.garmin.com/xmlschemas/TrackPointExtension/v1">
            <gpxtpx:hr>172</gpxtpx:hr>
          </gpxtpx:TrackPointExtension>
        </extensions>
      </trkpt>
      <trkpt lat="46.28766" lon="4.83418">
        <ele>168.5</ele>
        <time>2026-05-13T14:32:50+02:00</time>
        <extensions>
          <gpxtpx:TrackPointExtension xmlns:gpxtpx="http://www.garmin.com/xmlschemas/TrackPointExtension/v1">
            <gpxtpx:hr>172</gpxtpx:hr>
          </gpxtpx:TrackPointExtension>
        </extensions>
      </trkpt>
      <trkpt lat="46.28771" lon="4.83412">
        <ele>168.5</ele>
        <time>2026-05-13T14:32:51+02:00</time>
        <extensions>
          <gpxtpx:TrackPointExtension xmlns:gpxtpx="http://www.garmin.com/xmlschemas/TrackPointExtension/v1">
            <gpxtpx:hr>172</gpxtpx:hr>
          </gpxtpx:TrackPointExtension>
        </extensions>
      </trkpt>
      <trkpt lat="46.28776" lon="4.83406">
        <ele>168.60059</ele>
        <time>2026-05-13T14:32:52+02:00</time>
        <extensions>
          <gpxtpx:TrackPointExtension xmlns:gpxtpx="http://www.garmin.com/xmlschemas/TrackPointExtension/v1">
            <gpxtpx:hr>172</gpxtpx:hr>
          </gpxtpx:TrackPointExtension>
        </extensions>
      </trkpt>
      <trkpt lat="46.2878" lon="4.834">
        <ele>168.60059</ele>
        <time>2026-05-13T14:32:53+02:00</time>
        <extensions>
          <gpxtpx:TrackPointExtension xmlns:gpxtpx="http://www.garmin.com/xmlschemas/TrackPointExtension/v1">
            <gpxtpx:hr>171</gpxtpx:hr>
          </gpxtpx:TrackPointExtension>
        </extensions>
      </trkpt>
      <trkpt lat="46.28784" lon="4.83394">
        <ele>168.60059</ele>
        <time>2026-05-13T14:32:54+02:00</time>
        <extensions>
          <gpxtpx:TrackPointExtension xmlns:gpxtpx="http://www.garmin.com/xmlschemas/TrackPointExtension/v1">
            <gpxtpx:hr>172</gpxtpx:hr>
          </gpxtpx:TrackPointExtension>
        </extensions>
      </trkpt>
      <trkpt lat="46.28789" lon="4.83388">
        <ele>168.60059</ele>
        <time>2026-05-13T14:32:55+02:00</time>
        <extensions>
          <gpxtpx:TrackPointExtension xmlns:gpxtpx="http://www.garmin.com/xmlschemas/TrackPointExtension/v1">
            <gpxtpx:hr>171</gpxtpx:hr>
          </gpxtpx:TrackPointExtension>
        </extensions>
      </trkpt>
      <trkpt lat="46.28792" lon="4.83381">
        <ele>168.7002</ele>
        <time>2026-05-13T14:32:56+02:00</time>
        <extensions>
          <gpxtpx:TrackPointExtension xmlns:gpxtpx="http://www.garmin.com/xmlschemas/TrackPointExtension/v1">
            <gpxtpx:hr>172</gpxtpx:hr>
          </gpxtpx:TrackPointExtension>
        </extensions>
      </trkpt>
      <trkpt lat="46.28795" lon="4.83374">
        <ele>168.5</ele>
        <time>2026-05-13T14:32:57+02:00</time>
        <extensions>
          <gpxtpx:TrackPointExtension xmlns:gpxtpx="http://www.garmin.com/xmlschemas/TrackPointExtension/v1">
            <gpxtpx:hr>172</gpxtpx:hr>
          </gpxtpx:TrackPointExtension>
        </extensions>
      </trkpt>
      <trkpt lat="46.28798" lon="4.83366">
        <ele>168.60059</ele>
        <time>2026-05-13T14:32:58+02:00</time>
        <extensions>
          <gpxtpx:TrackPointExtension xmlns:gpxtpx="http://www.garmin.com/xmlschemas/TrackPointExtension/v1">
            <gpxtpx:hr>171</gpxtpx:hr>
          </gpxtpx:TrackPointExtension>
        </extensions>
      </trkpt>
      <trkpt lat="46.288" lon="4.83358">
        <ele>168.7002</ele>
        <time>2026-05-13T14:32:59+02:00</time>
        <extensions>
          <gpxtpx:TrackPointExtension xmlns:gpxtpx="http://www.garmin.com/xmlschemas/TrackPointExtension/v1">
            <gpxtpx:hr>171</gpxtpx:hr>
          </gpxtpx:TrackPointExtension>
        </extensions>
      </trkpt>
      <trkpt lat="46.28802" lon="4.8335">
        <ele>168.60059</ele>
        <time>2026-05-13T14:33:00+02:00</time>
        <extensions>
          <gpxtpx:TrackPointExtension xmlns:gpxtpx="http://www.garmin.com/xmlschemas/TrackPointExtension/v1">
            <gpxtpx:hr>172</gpxtpx:hr>
          </gpxtpx:TrackPointExtension>
        </extensions>
      </trkpt>
      <trkpt lat="46.28804" lon="4.83341">
        <ele>168.7002</ele>
        <time>2026-05-13T14:33:01+02:00</time>
        <extensions>
          <gpxtpx:TrackPointExtension xmlns:gpxtpx="http://www.garmin.com/xmlschemas/TrackPointExtension/v1">
            <gpxtpx:hr>172</gpxtpx:hr>
          </gpxtpx:TrackPointExtension>
        </extensions>
      </trkpt>
      <trkpt lat="46.28805" lon="4.83333">
        <ele>168.7998</ele>
        <time>2026-05-13T14:33:02+02:00</time>
        <extensions>
          <gpxtpx:TrackPointExtension xmlns:gpxtpx="http://www.garmin.com/xmlschemas/TrackPointExtension/v1">
            <gpxtpx:hr>171</gpxtpx:hr>
          </gpxtpx:TrackPointExtension>
        </extensions>
      </trkpt>
      <trkpt lat="46.28806" lon="4.83325">
        <ele>168.90039</ele>
        <time>2026-05-13T14:33:03+02:00</time>
        <extensions>
          <gpxtpx:TrackPointExtension xmlns:gpxtpx="http://www.garmin.com/xmlschemas/TrackPointExtension/v1">
            <gpxtpx:hr>172</gpxtpx:hr>
          </gpxtpx:TrackPointExtension>
        </extensions>
      </trkpt>
      <trkpt lat="46.28808" lon="4.83317">
        <ele>168.7998</ele>
        <time>2026-05-13T14:33:04+02:00</time>
        <extensions>
          <gpxtpx:TrackPointExtension xmlns:gpxtpx="http://www.garmin.com/xmlschemas/TrackPointExtension/v1">
            <gpxtpx:hr>172</gpxtpx:hr>
          </gpxtpx:TrackPointExtension>
        </extensions>
      </trkpt>
      <trkpt lat="46.28809" lon="4.83309">
        <ele>169</ele>
        <time>2026-05-13T14:33:05+02:00</time>
        <extensions>
          <gpxtpx:TrackPointExtension xmlns:gpxtpx="http://www.garmin.com/xmlschemas/TrackPointExtension/v1">
            <gpxtpx:hr>171</gpxtpx:hr>
          </gpxtpx:TrackPointExtension>
        </extensions>
      </trkpt>
      <trkpt lat="46.28811" lon="4.83301">
        <ele>169.10059</ele>
        <time>2026-05-13T14:33:06+02:00</time>
        <extensions>
          <gpxtpx:TrackPointExtension xmlns:gpxtpx="http://www.garmin.com/xmlschemas/TrackPointExtension/v1">
            <gpxtpx:hr>171</gpxtpx:hr>
          </gpxtpx:TrackPointExtension>
        </extensions>
      </trkpt>
      <trkpt lat="46.28813" lon="4.83293">
        <ele>169.2002</ele>
        <time>2026-05-13T14:33:07+02:00</time>
        <extensions>
          <gpxtpx:TrackPointExtension xmlns:gpxtpx="http://www.garmin.com/xmlschemas/TrackPointExtension/v1">
            <gpxtpx:hr>170</gpxtpx:hr>
          </gpxtpx:TrackPointExtension>
        </extensions>
      </trkpt>
      <trkpt lat="46.28814" lon="4.83285">
        <ele>169.40039</ele>
        <time>2026-05-13T14:33:08+02:00</time>
        <extensions>
          <gpxtpx:TrackPointExtension xmlns:gpxtpx="http://www.garmin.com/xmlschemas/TrackPointExtension/v1">
            <gpxtpx:hr>171</gpxtpx:hr>
          </gpxtpx:TrackPointExtension>
        </extensions>
      </trkpt>
      <trkpt lat="46.28815" lon="4.83277">
        <ele>169.7002</ele>
        <time>2026-05-13T14:33:09+02:00</time>
        <extensions>
          <gpxtpx:TrackPointExtension xmlns:gpxtpx="http://www.garmin.com/xmlschemas/TrackPointExtension/v1">
            <gpxtpx:hr>170</gpxtpx:hr>
          </gpxtpx:TrackPointExtension>
        </extensions>
      </trkpt>
      <trkpt lat="46.28817" lon="4.83269">
        <ele>170</ele>
        <time>2026-05-13T14:33:10+02:00</time>
        <extensions>
          <gpxtpx:TrackPointExtension xmlns:gpxtpx="http://www.garmin.com/xmlschemas/TrackPointExtension/v1">
            <gpxtpx:hr>171</gpxtpx:hr>
          </gpxtpx:TrackPointExtension>
        </extensions>
      </trkpt>
      <trkpt lat="46.28818" lon="4.83261">
        <ele>170.2998</ele>
        <time>2026-05-13T14:33:11+02:00</time>
        <extensions>
          <gpxtpx:TrackPointExtension xmlns:gpxtpx="http://www.garmin.com/xmlschemas/TrackPointExtension/v1">
            <gpxtpx:hr>170</gpxtpx:hr>
          </gpxtpx:TrackPointExtension>
        </extensions>
      </trkpt>
      <trkpt lat="46.28819" lon="4.83254">
        <ele>170.2998</ele>
        <time>2026-05-13T14:33:12+02:00</time>
        <extensions>
          <gpxtpx:TrackPointExtension xmlns:gpxtpx="http://www.garmin.com/xmlschemas/TrackPointExtension/v1">
            <gpxtpx:hr>171</gpxtpx:hr>
          </gpxtpx:TrackPointExtension>
        </extensions>
      </trkpt>
      <trkpt lat="46.28821" lon="4.83246">
        <ele>170.7002</ele>
        <time>2026-05-13T14:33:13+02:00</time>
        <extensions>
          <gpxtpx:TrackPointExtension xmlns:gpxtpx="http://www.garmin.com/xmlschemas/TrackPointExtension/v1">
            <gpxtpx:hr>171</gpxtpx:hr>
          </gpxtpx:TrackPointExtension>
        </extensions>
      </trkpt>
      <trkpt lat="46.28822" lon="4.83239">
        <ele>170.90039</ele>
        <time>2026-05-13T14:33:14+02:00</time>
        <extensions>
          <gpxtpx:TrackPointExtension xmlns:gpxtpx="http://www.garmin.com/xmlschemas/TrackPointExtension/v1">
            <gpxtpx:hr>171</gpxtpx:hr>
          </gpxtpx:TrackPointExtension>
        </extensions>
      </trkpt>
      <trkpt lat="46.28823" lon="4.83232">
        <ele>171</ele>
        <time>2026-05-13T14:33:15+02:00</time>
        <extensions>
          <gpxtpx:TrackPointExtension xmlns:gpxtpx="http://www.garmin.com/xmlschemas/TrackPointExtension/v1">
            <gpxtpx:hr>170</gpxtpx:hr>
          </gpxtpx:TrackPointExtension>
        </extensions>
      </trkpt>
      <trkpt lat="46.28824" lon="4.83226">
        <ele>170.7002</ele>
        <time>2026-05-13T14:33:16+02:00</time>
        <extensions>
          <gpxtpx:TrackPointExtension xmlns:gpxtpx="http://www.garmin.com/xmlschemas/TrackPointExtension/v1">
            <gpxtpx:hr>170</gpxtpx:hr>
          </gpxtpx:TrackPointExtension>
        </extensions>
      </trkpt>
      <trkpt lat="46.28826" lon="4.83221">
        <ele>170.5</ele>
        <time>2026-05-13T14:33:17+02:00</time>
        <extensions>
          <gpxtpx:TrackPointExtension xmlns:gpxtpx="http://www.garmin.com/xmlschemas/TrackPointExtension/v1">
            <gpxtpx:hr>169</gpxtpx:hr>
          </gpxtpx:TrackPointExtension>
        </extensions>
      </trkpt>
      <trkpt lat="46.28829" lon="4.83218">
        <ele>170.10059</ele>
        <time>2026-05-13T14:33:18+02:00</time>
        <extensions>
          <gpxtpx:TrackPointExtension xmlns:gpxtpx="http://www.garmin.com/xmlschemas/TrackPointExtension/v1">
            <gpxtpx:hr>169</gpxtpx:hr>
          </gpxtpx:TrackPointExtension>
        </extensions>
      </trkpt>
      <trkpt lat="46.28832" lon="4.83217">
        <ele>169.7998</ele>
        <time>2026-05-13T14:33:19+02:00</time>
        <extensions>
          <gpxtpx:TrackPointExtension xmlns:gpxtpx="http://www.garmin.com/xmlschemas/TrackPointExtension/v1">
            <gpxtpx:hr>169</gpxtpx:hr>
          </gpxtpx:TrackPointExtension>
        </extensions>
      </trkpt>
      <trkpt lat="46.28836" lon="4.83219">
        <ele>170.10059</ele>
        <time>2026-05-13T14:33:20+02:00</time>
        <extensions>
          <gpxtpx:TrackPointExtension xmlns:gpxtpx="http://www.garmin.com/xmlschemas/TrackPointExtension/v1">
            <gpxtpx:hr>168</gpxtpx:hr>
          </gpxtpx:TrackPointExtension>
        </extensions>
      </trkpt>
      <trkpt lat="46.2884" lon="4.83222">
        <ele>170.10059</ele>
        <time>2026-05-13T14:33:21+02:00</time>
        <extensions>
          <gpxtpx:TrackPointExtension xmlns:gpxtpx="http://www.garmin.com/xmlschemas/TrackPointExtension/v1">
            <gpxtpx:hr>168</gpxtpx:hr>
          </gpxtpx:TrackPointExtension>
        </extensions>
      </trkpt>
      <trkpt lat="46.28843" lon="4.83224">
        <ele>169.7998</ele>
        <time>2026-05-13T14:33:22+02:00</time>
        <extensions>
          <gpxtpx:TrackPointExtension xmlns:gpxtpx="http://www.garmin.com/xmlschemas/TrackPointExtension/v1">
            <gpxtpx:hr>168</gpxtpx:hr>
          </gpxtpx:TrackPointExtension>
        </extensions>
      </trkpt>
      <trkpt lat="46.28847" lon="4.83226">
        <ele>169.7998</ele>
        <time>2026-05-13T14:33:23+02:00</time>
        <extensions>
          <gpxtpx:TrackPointExtension xmlns:gpxtpx="http://www.garmin.com/xmlschemas/TrackPointExtension/v1">
            <gpxtpx:hr>168</gpxtpx:hr>
          </gpxtpx:TrackPointExtension>
        </extensions>
      </trkpt>
      <trkpt lat="46.28851" lon="4.83228">
        <ele>169.90039</ele>
        <time>2026-05-13T14:33:24+02:00</time>
        <extensions>
          <gpxtpx:TrackPointExtension xmlns:gpxtpx="http://www.garmin.com/xmlschemas/TrackPointExtension/v1">
            <gpxtpx:hr>167</gpxtpx:hr>
          </gpxtpx:TrackPointExtension>
        </extensions>
      </trkpt>
      <trkpt lat="46.28854" lon="4.83231">
        <ele>169.60059</ele>
        <time>2026-05-13T14:33:25+02:00</time>
        <extensions>
          <gpxtpx:TrackPointExtension xmlns:gpxtpx="http://www.garmin.com/xmlschemas/TrackPointExtension/v1">
            <gpxtpx:hr>167</gpxtpx:hr>
          </gpxtpx:TrackPointExtension>
        </extensions>
      </trkpt>
      <trkpt lat="46.28858" lon="4.83234">
        <ele>169.60059</ele>
        <time>2026-05-13T14:33:26+02:00</time>
        <extensions>
          <gpxtpx:TrackPointExtension xmlns:gpxtpx="http://www.garmin.com/xmlschemas/TrackPointExtension/v1">
            <gpxtpx:hr>167</gpxtpx:hr>
          </gpxtpx:TrackPointExtension>
        </extensions>
      </trkpt>
      <trkpt lat="46.28861" lon="4.83235">
        <ele>169.5</ele>
        <time>2026-05-13T14:33:27+02:00</time>
        <extensions>
          <gpxtpx:TrackPointExtension xmlns:gpxtpx="http://www.garmin.com/xmlschemas/TrackPointExtension/v1">
            <gpxtpx:hr>166</gpxtpx:hr>
          </gpxtpx:TrackPointExtension>
        </extensions>
      </trkpt>
      <trkpt lat="46.28865" lon="4.83235">
        <ele>169.5</ele>
        <time>2026-05-13T14:33:28+02:00</time>
        <extensions>
          <gpxtpx:TrackPointExtension xmlns:gpxtpx="http://www.garmin.com/xmlschemas/TrackPointExtension/v1">
            <gpxtpx:hr>166</gpxtpx:hr>
          </gpxtpx:TrackPointExtension>
        </extensions>
      </trkpt>
      <trkpt lat="46.28869" lon="4.83236">
        <ele>169.60059</ele>
        <time>2026-05-13T14:33:29+02:00</time>
        <extensions>
          <gpxtpx:TrackPointExtension xmlns:gpxtpx="http://www.garmin.com/xmlschemas/TrackPointExtension/v1">
            <gpxtpx:hr>167</gpxtpx:hr>
          </gpxtpx:TrackPointExtension>
        </extensions>
      </trkpt>
      <trkpt lat="46.28874" lon="4.8324">
        <ele>169.60059</ele>
        <time>2026-05-13T14:33:30+02:00</time>
        <extensions>
          <gpxtpx:TrackPointExtension xmlns:gpxtpx="http://www.garmin.com/xmlschemas/TrackPointExtension/v1">
            <gpxtpx:hr>167</gpxtpx:hr>
          </gpxtpx:TrackPointExtension>
        </extensions>
      </trkpt>
      <trkpt lat="46.28878" lon="4.83244">
        <ele>169.7002</ele>
        <time>2026-05-13T14:33:31+02:00</time>
        <extensions>
          <gpxtpx:TrackPointExtension xmlns:gpxtpx="http://www.garmin.com/xmlschemas/TrackPointExtension/v1">
            <gpxtpx:hr>167</gpxtpx:hr>
          </gpxtpx:TrackPointExtension>
        </extensions>
      </trkpt>
      <trkpt lat="46.28882" lon="4.83249">
        <ele>169.7002</ele>
        <time>2026-05-13T14:33:32+02:00</time>
        <extensions>
          <gpxtpx:TrackPointExtension xmlns:gpxtpx="http://www.garmin.com/xmlschemas/TrackPointExtension/v1">
            <gpxtpx:hr>168</gpxtpx:hr>
          </gpxtpx:TrackPointExtension>
        </extensions>
      </trkpt>
      <trkpt lat="46.28887" lon="4.83254">
        <ele>169.7002</ele>
        <time>2026-05-13T14:33:33+02:00</time>
        <extensions>
          <gpxtpx:TrackPointExtension xmlns:gpxtpx="http://www.garmin.com/xmlschemas/TrackPointExtension/v1">
            <gpxtpx:hr>168</gpxtpx:hr>
          </gpxtpx:TrackPointExtension>
        </extensions>
      </trkpt>
      <trkpt lat="46.28891" lon="4.8326">
        <ele>169.60059</ele>
        <time>2026-05-13T14:33:34+02:00</time>
        <extensions>
          <gpxtpx:TrackPointExtension xmlns:gpxtpx="http://www.garmin.com/xmlschemas/TrackPointExtension/v1">
            <gpxtpx:hr>168</gpxtpx:hr>
          </gpxtpx:TrackPointExtension>
        </extensions>
      </trkpt>
      <trkpt lat="46.28896" lon="4.83265">
        <ele>169.7002</ele>
        <time>2026-05-13T14:33:35+02:00</time>
        <extensions>
          <gpxtpx:TrackPointExtension xmlns:gpxtpx="http://www.garmin.com/xmlschemas/TrackPointExtension/v1">
            <gpxtpx:hr>169</gpxtpx:hr>
          </gpxtpx:TrackPointExtension>
        </extensions>
      </trkpt>
      <trkpt lat="46.289" lon="4.83271">
        <ele>169.5</ele>
        <time>2026-05-13T14:33:36+02:00</time>
        <extensions>
          <gpxtpx:TrackPointExtension xmlns:gpxtpx="http://www.garmin.com/xmlschemas/TrackPointExtension/v1">
            <gpxtpx:hr>169</gpxtpx:hr>
          </gpxtpx:TrackPointExtension>
        </extensions>
      </trkpt>
      <trkpt lat="46.28905" lon="4.83277">
        <ele>169.5</ele>
        <time>2026-05-13T14:33:37+02:00</time>
        <extensions>
          <gpxtpx:TrackPointExtension xmlns:gpxtpx="http://www.garmin.com/xmlschemas/TrackPointExtension/v1">
            <gpxtpx:hr>169</gpxtpx:hr>
          </gpxtpx:TrackPointExtension>
        </extensions>
      </trkpt>
      <trkpt lat="46.28909" lon="4.83283">
        <ele>169.2002</ele>
        <time>2026-05-13T14:33:38+02:00</time>
        <extensions>
          <gpxtpx:TrackPointExtension xmlns:gpxtpx="http://www.garmin.com/xmlschemas/TrackPointExtension/v1">
            <gpxtpx:hr>170</gpxtpx:hr>
          </gpxtpx:TrackPointExtension>
        </extensions>
      </trkpt>
      <trkpt lat="46.28913" lon="4.8329">
        <ele>168.7998</ele>
        <time>2026-05-13T14:33:39+02:00</time>
        <extensions>
          <gpxtpx:TrackPointExtension xmlns:gpxtpx="http://www.garmin.com/xmlschemas/TrackPointExtension/v1">
            <gpxtpx:hr>169</gpxtpx:hr>
          </gpxtpx:TrackPointExtension>
        </extensions>
      </trkpt>
      <trkpt lat="46.28917" lon="4.83296">
        <ele>168.5</ele>
        <time>2026-05-13T14:33:40+02:00</time>
        <extensions>
          <gpxtpx:TrackPointExtension xmlns:gpxtpx="http://www.garmin.com/xmlschemas/TrackPointExtension/v1">
            <gpxtpx:hr>170</gpxtpx:hr>
          </gpxtpx:TrackPointExtension>
        </extensions>
      </trkpt>
      <trkpt lat="46.28921" lon="4.83303">
        <ele>168.60059</ele>
        <time>2026-05-13T14:33:41+02:00</time>
        <extensions>
          <gpxtpx:TrackPointExtension xmlns:gpxtpx="http://www.garmin.com/xmlschemas/TrackPointExtension/v1">
            <gpxtpx:hr>170</gpxtpx:hr>
          </gpxtpx:TrackPointExtension>
        </extensions>
      </trkpt>
      <trkpt lat="46.28925" lon="4.8331">
        <ele>168.5</ele>
        <time>2026-05-13T14:33:42+02:00</time>
        <extensions>
          <gpxtpx:TrackPointExtension xmlns:gpxtpx="http://www.garmin.com/xmlschemas/TrackPointExtension/v1">
            <gpxtpx:hr>170</gpxtpx:hr>
          </gpxtpx:TrackPointExtension>
        </extensions>
      </trkpt>
      <trkpt lat="46.28929" lon="4.83317">
        <ele>168.2998</ele>
        <time>2026-05-13T14:33:43+02:00</time>
        <extensions>
          <gpxtpx:TrackPointExtension xmlns:gpxtpx="http://www.garmin.com/xmlschemas/TrackPointExtension/v1">
            <gpxtpx:hr>170</gpxtpx:hr>
          </gpxtpx:TrackPointExtension>
        </extensions>
      </trkpt>
      <trkpt lat="46.28932" lon="4.83325">
        <ele>168.2002</ele>
        <time>2026-05-13T14:33:44+02:00</time>
        <extensions>
          <gpxtpx:TrackPointExtension xmlns:gpxtpx="http://www.garmin.com/xmlschemas/TrackPointExtension/v1">
            <gpxtpx:hr>169</gpxtpx:hr>
          </gpxtpx:TrackPointExtension>
        </extensions>
      </trkpt>
      <trkpt lat="46.28935" lon="4.83333">
        <ele>168.2002</ele>
        <time>2026-05-13T14:33:45+02:00</time>
        <extensions>
          <gpxtpx:TrackPointExtension xmlns:gpxtpx="http://www.garmin.com/xmlschemas/TrackPointExtension/v1">
            <gpxtpx:hr>169</gpxtpx:hr>
          </gpxtpx:TrackPointExtension>
        </extensions>
      </trkpt>
      <trkpt lat="46.28938" lon="4.8334">
        <ele>168.2998</ele>
        <time>2026-05-13T14:33:46+02:00</time>
        <extensions>
          <gpxtpx:TrackPointExtension xmlns:gpxtpx="http://www.garmin.com/xmlschemas/TrackPointExtension/v1">
            <gpxtpx:hr>170</gpxtpx:hr>
          </gpxtpx:TrackPointExtension>
        </extensions>
      </trkpt>
      <trkpt lat="46.28941" lon="4.83348">
        <ele>168.2998</ele>
        <time>2026-05-13T14:33:47+02:00</time>
        <extensions>
          <gpxtpx:TrackPointExtension xmlns:gpxtpx="http://www.garmin.com/xmlschemas/TrackPointExtension/v1">
            <gpxtpx:hr>170</gpxtpx:hr>
          </gpxtpx:TrackPointExtension>
        </extensions>
      </trkpt>
      <trkpt lat="46.28945" lon="4.83356">
        <ele>168.5</ele>
        <time>2026-05-13T14:33:48+02:00</time>
        <extensions>
          <gpxtpx:TrackPointExtension xmlns:gpxtpx="http://www.garmin.com/xmlschemas/TrackPointExtension/v1">
            <gpxtpx:hr>169</gpxtpx:hr>
          </gpxtpx:TrackPointExtension>
        </extensions>
      </trkpt>
      <trkpt lat="46.28947" lon="4.83365">
        <ele>168.60059</ele>
        <time>2026-05-13T14:33:49+02:00</time>
        <extensions>
          <gpxtpx:TrackPointExtension xmlns:gpxtpx="http://www.garmin.com/xmlschemas/TrackPointExtension/v1">
            <gpxtpx:hr>170</gpxtpx:hr>
          </gpxtpx:TrackPointExtension>
        </extensions>
      </trkpt>
      <trkpt lat="46.2895" lon="4.83373">
        <ele>168.7998</ele>
        <time>2026-05-13T14:33:50+02:00</time>
        <extensions>
          <gpxtpx:TrackPointExtension xmlns:gpxtpx="http://www.garmin.com/xmlschemas/TrackPointExtension/v1">
            <gpxtpx:hr>170</gpxtpx:hr>
          </gpxtpx:TrackPointExtension>
        </extensions>
      </trkpt>
      <trkpt lat="46.28952" lon="4.83381">
        <ele>168.7998</ele>
        <time>2026-05-13T14:33:51+02:00</time>
        <extensions>
          <gpxtpx:TrackPointExtension xmlns:gpxtpx="http://www.garmin.com/xmlschemas/TrackPointExtension/v1">
            <gpxtpx:hr>170</gpxtpx:hr>
          </gpxtpx:TrackPointExtension>
        </extensions>
      </trkpt>
      <trkpt lat="46.28955" lon="4.83389">
        <ele>169</ele>
        <time>2026-05-13T14:33:52+02:00</time>
        <extensions>
          <gpxtpx:TrackPointExtension xmlns:gpxtpx="http://www.garmin.com/xmlschemas/TrackPointExtension/v1">
            <gpxtpx:hr>169</gpxtpx:hr>
          </gpxtpx:TrackPointExtension>
        </extensions>
      </trkpt>
      <trkpt lat="46.28957" lon="4.83397">
        <ele>169.10059</ele>
        <time>2026-05-13T14:33:53+02:00</time>
        <extensions>
          <gpxtpx:TrackPointExtension xmlns:gpxtpx="http://www.garmin.com/xmlschemas/TrackPointExtension/v1">
            <gpxtpx:hr>169</gpxtpx:hr>
          </gpxtpx:TrackPointExtension>
        </extensions>
      </trkpt>
      <trkpt lat="46.2896" lon="4.83405">
        <ele>169.2002</ele>
        <time>2026-05-13T14:33:54+02:00</time>
        <extensions>
          <gpxtpx:TrackPointExtension xmlns:gpxtpx="http://www.garmin.com/xmlschemas/TrackPointExtension/v1">
            <gpxtpx:hr>168</gpxtpx:hr>
          </gpxtpx:TrackPointExtension>
        </extensions>
      </trkpt>
      <trkpt lat="46.28962" lon="4.83414">
        <ele>169.2998</ele>
        <time>2026-05-13T14:33:55+02:00</time>
        <extensions>
          <gpxtpx:TrackPointExtension xmlns:gpxtpx="http://www.garmin.com/xmlschemas/TrackPointExtension/v1">
            <gpxtpx:hr>168</gpxtpx:hr>
          </gpxtpx:TrackPointExtension>
        </extensions>
      </trkpt>
      <trkpt lat="46.28965" lon="4.83422">
        <ele>169.40039</ele>
        <time>2026-05-13T14:33:56+02:00</time>
        <extensions>
          <gpxtpx:TrackPointExtension xmlns:gpxtpx="http://www.garmin.com/xmlschemas/TrackPointExtension/v1">
            <gpxtpx:hr>168</gpxtpx:hr>
          </gpxtpx:TrackPointExtension>
        </extensions>
      </trkpt>
      <trkpt lat="46.28967" lon="4.83431">
        <ele>169.5</ele>
        <time>2026-05-13T14:33:57+02:00</time>
        <extensions>
          <gpxtpx:TrackPointExtension xmlns:gpxtpx="http://www.garmin.com/xmlschemas/TrackPointExtension/v1">
            <gpxtpx:hr>169</gpxtpx:hr>
          </gpxtpx:TrackPointExtension>
        </extensions>
      </trkpt>
      <trkpt lat="46.2897" lon="4.83439">
        <ele>169.60059</ele>
        <time>2026-05-13T14:33:58+02:00</time>
        <extensions>
          <gpxtpx:TrackPointExtension xmlns:gpxtpx="http://www.garmin.com/xmlschemas/TrackPointExtension/v1">
            <gpxtpx:hr>169</gpxtpx:hr>
          </gpxtpx:TrackPointExtension>
        </extensions>
      </trkpt>
      <trkpt lat="46.28972" lon="4.83447">
        <ele>169.7002</ele>
        <time>2026-05-13T14:33:59+02:00</time>
        <extensions>
          <gpxtpx:TrackPointExtension xmlns:gpxtpx="http://www.garmin.com/xmlschemas/TrackPointExtension/v1">
            <gpxtpx:hr>169</gpxtpx:hr>
          </gpxtpx:TrackPointExtension>
        </extensions>
      </trkpt>
      <trkpt lat="46.28975" lon="4.83456">
        <ele>169.90039</ele>
        <time>2026-05-13T14:34:00+02:00</time>
        <extensions>
          <gpxtpx:TrackPointExtension xmlns:gpxtpx="http://www.garmin.com/xmlschemas/TrackPointExtension/v1">
            <gpxtpx:hr>169</gpxtpx:hr>
          </gpxtpx:TrackPointExtension>
        </extensions>
      </trkpt>
      <trkpt lat="46.28977" lon="4.83464">
        <ele>170</ele>
        <time>2026-05-13T14:34:01+02:00</time>
        <extensions>
          <gpxtpx:TrackPointExtension xmlns:gpxtpx="http://www.garmin.com/xmlschemas/TrackPointExtension/v1">
            <gpxtpx:hr>170</gpxtpx:hr>
          </gpxtpx:TrackPointExtension>
        </extensions>
      </trkpt>
      <trkpt lat="46.2898" lon="4.83472">
        <ele>170.2998</ele>
        <time>2026-05-13T14:34:02+02:00</time>
        <extensions>
          <gpxtpx:TrackPointExtension xmlns:gpxtpx="http://www.garmin.com/xmlschemas/TrackPointExtension/v1">
            <gpxtpx:hr>170</gpxtpx:hr>
          </gpxtpx:TrackPointExtension>
        </extensions>
      </trkpt>
      <trkpt lat="46.28982" lon="4.83481">
        <ele>170.2998</ele>
        <time>2026-05-13T14:34:03+02:00</time>
        <extensions>
          <gpxtpx:TrackPointExtension xmlns:gpxtpx="http://www.garmin.com/xmlschemas/TrackPointExtension/v1">
            <gpxtpx:hr>170</gpxtpx:hr>
          </gpxtpx:TrackPointExtension>
        </extensions>
      </trkpt>
      <trkpt lat="46.28985" lon="4.83489">
        <ele>170.60059</ele>
        <time>2026-05-13T14:34:04+02:00</time>
        <extensions>
          <gpxtpx:TrackPointExtension xmlns:gpxtpx="http://www.garmin.com/xmlschemas/TrackPointExtension/v1">
            <gpxtpx:hr>171</gpxtpx:hr>
          </gpxtpx:TrackPointExtension>
        </extensions>
      </trkpt>
      <trkpt lat="46.28987" lon="4.83498">
        <ele>170.60059</ele>
        <time>2026-05-13T14:34:05+02:00</time>
        <extensions>
          <gpxtpx:TrackPointExtension xmlns:gpxtpx="http://www.garmin.com/xmlschemas/TrackPointExtension/v1">
            <gpxtpx:hr>171</gpxtpx:hr>
          </gpxtpx:TrackPointExtension>
        </extensions>
      </trkpt>
      <trkpt lat="46.2899" lon="4.83507">
        <ele>170.7002</ele>
        <time>2026-05-13T14:34:06+02:00</time>
        <extensions>
          <gpxtpx:TrackPointExtension xmlns:gpxtpx="http://www.garmin.com/xmlschemas/TrackPointExtension/v1">
            <gpxtpx:hr>171</gpxtpx:hr>
          </gpxtpx:TrackPointExtension>
        </extensions>
      </trkpt>
      <trkpt lat="46.28992" lon="4.83515">
        <ele>170.7002</ele>
        <time>2026-05-13T14:34:07+02:00</time>
        <extensions>
          <gpxtpx:TrackPointExtension xmlns:gpxtpx="http://www.garmin.com/xmlschemas/TrackPointExtension/v1">
            <gpxtpx:hr>172</gpxtpx:hr>
          </gpxtpx:TrackPointExtension>
        </extensions>
      </trkpt>
      <trkpt lat="46.28995" lon="4.83524">
        <ele>170.60059</ele>
        <time>2026-05-13T14:34:08+02:00</time>
        <extensions>
          <gpxtpx:TrackPointExtension xmlns:gpxtpx="http://www.garmin.com/xmlschemas/TrackPointExtension/v1">
            <gpxtpx:hr>171</gpxtpx:hr>
          </gpxtpx:TrackPointExtension>
        </extensions>
      </trkpt>
      <trkpt lat="46.28998" lon="4.83532">
        <ele>170.7002</ele>
        <time>2026-05-13T14:34:09+02:00</time>
        <extensions>
          <gpxtpx:TrackPointExtension xmlns:gpxtpx="http://www.garmin.com/xmlschemas/TrackPointExtension/v1">
            <gpxtpx:hr>172</gpxtpx:hr>
          </gpxtpx:TrackPointExtension>
        </extensions>
      </trkpt>
      <trkpt lat="46.29" lon="4.83541">
        <ele>170.60059</ele>
        <time>2026-05-13T14:34:10+02:00</time>
        <extensions>
          <gpxtpx:TrackPointExtension xmlns:gpxtpx="http://www.garmin.com/xmlschemas/TrackPointExtension/v1">
            <gpxtpx:hr>172</gpxtpx:hr>
          </gpxtpx:TrackPointExtension>
        </extensions>
      </trkpt>
      <trkpt lat="46.29003" lon="4.83549">
        <ele>170.7002</ele>
        <time>2026-05-13T14:34:11+02:00</time>
        <extensions>
          <gpxtpx:TrackPointExtension xmlns:gpxtpx="http://www.garmin.com/xmlschemas/TrackPointExtension/v1">
            <gpxtpx:hr>172</gpxtpx:hr>
          </gpxtpx:TrackPointExtension>
        </extensions>
      </trkpt>
      <trkpt lat="46.29005" lon="4.83557">
        <ele>170.7002</ele>
        <time>2026-05-13T14:34:12+02:00</time>
        <extensions>
          <gpxtpx:TrackPointExtension xmlns:gpxtpx="http://www.garmin.com/xmlschemas/TrackPointExtension/v1">
            <gpxtpx:hr>172</gpxtpx:hr>
          </gpxtpx:TrackPointExtension>
        </extensions>
      </trkpt>
      <trkpt lat="46.29007" lon="4.83566">
        <ele>170.60059</ele>
        <time>2026-05-13T14:34:13+02:00</time>
        <extensions>
          <gpxtpx:TrackPointExtension xmlns:gpxtpx="http://www.garmin.com/xmlschemas/TrackPointExtension/v1">
            <gpxtpx:hr>172</gpxtpx:hr>
          </gpxtpx:TrackPointExtension>
        </extensions>
      </trkpt>
      <trkpt lat="46.2901" lon="4.83574">
        <ele>170.7002</ele>
        <time>2026-05-13T14:34:14+02:00</time>
        <extensions>
          <gpxtpx:TrackPointExtension xmlns:gpxtpx="http://www.garmin.com/xmlschemas/TrackPointExtension/v1">
            <gpxtpx:hr>172</gpxtpx:hr>
          </gpxtpx:TrackPointExtension>
        </extensions>
      </trkpt>
      <trkpt lat="46.29013" lon="4.83582">
        <ele>170.60059</ele>
        <time>2026-05-13T14:34:15+02:00</time>
        <extensions>
          <gpxtpx:TrackPointExtension xmlns:gpxtpx="http://www.garmin.com/xmlschemas/TrackPointExtension/v1">
            <gpxtpx:hr>172</gpxtpx:hr>
          </gpxtpx:TrackPointExtension>
        </extensions>
      </trkpt>
      <trkpt lat="46.29015" lon="4.8359">
        <ele>170.7002</ele>
        <time>2026-05-13T14:34:16+02:00</time>
        <extensions>
          <gpxtpx:TrackPointExtension xmlns:gpxtpx="http://www.garmin.com/xmlschemas/TrackPointExtension/v1">
            <gpxtpx:hr>171</gpxtpx:hr>
          </gpxtpx:TrackPointExtension>
        </extensions>
      </trkpt>
      <trkpt lat="46.29018" lon="4.83599">
        <ele>170.60059</ele>
        <time>2026-05-13T14:34:17+02:00</time>
        <extensions>
          <gpxtpx:TrackPointExtension xmlns:gpxtpx="http://www.garmin.com/xmlschemas/TrackPointExtension/v1">
            <gpxtpx:hr>172</gpxtpx:hr>
          </gpxtpx:TrackPointExtension>
        </extensions>
      </trkpt>
      <trkpt lat="46.29021" lon="4.83607">
        <ele>170.60059</ele>
        <time>2026-05-13T14:34:18+02:00</time>
        <extensions>
          <gpxtpx:TrackPointExtension xmlns:gpxtpx="http://www.garmin.com/xmlschemas/TrackPointExtension/v1">
            <gpxtpx:hr>171</gpxtpx:hr>
          </gpxtpx:TrackPointExtension>
        </extensions>
      </trkpt>
      <trkpt lat="46.29025" lon="4.83614">
        <ele>170.5</ele>
        <time>2026-05-13T14:34:19+02:00</time>
        <extensions>
          <gpxtpx:TrackPointExtension xmlns:gpxtpx="http://www.garmin.com/xmlschemas/TrackPointExtension/v1">
            <gpxtpx:hr>171</gpxtpx:hr>
          </gpxtpx:TrackPointExtension>
        </extensions>
      </trkpt>
      <trkpt lat="46.29028" lon="4.83622">
        <ele>170.40039</ele>
        <time>2026-05-13T14:34:20+02:00</time>
        <extensions>
          <gpxtpx:TrackPointExtension xmlns:gpxtpx="http://www.garmin.com/xmlschemas/TrackPointExtension/v1">
            <gpxtpx:hr>171</gpxtpx:hr>
          </gpxtpx:TrackPointExtension>
        </extensions>
      </trkpt>
      <trkpt lat="46.29032" lon="4.83629">
        <ele>170.5</ele>
        <time>2026-05-13T14:34:21+02:00</time>
        <extensions>
          <gpxtpx:TrackPointExtension xmlns:gpxtpx="http://www.garmin.com/xmlschemas/TrackPointExtension/v1">
            <gpxtpx:hr>171</gpxtpx:hr>
          </gpxtpx:TrackPointExtension>
        </extensions>
      </trkpt>
      <trkpt lat="46.29035" lon="4.83636">
        <ele>170.2998</ele>
        <time>2026-05-13T14:34:22+02:00</time>
        <extensions>
          <gpxtpx:TrackPointExtension xmlns:gpxtpx="http://www.garmin.com/xmlschemas/TrackPointExtension/v1">
            <gpxtpx:hr>171</gpxtpx:hr>
          </gpxtpx:TrackPointExtension>
        </extensions>
      </trkpt>
      <trkpt lat="46.29039" lon="4.83643">
        <ele>170.2002</ele>
        <time>2026-05-13T14:34:23+02:00</time>
        <extensions>
          <gpxtpx:TrackPointExtension xmlns:gpxtpx="http://www.garmin.com/xmlschemas/TrackPointExtension/v1">
            <gpxtpx:hr>171</gpxtpx:hr>
          </gpxtpx:TrackPointExtension>
        </extensions>
      </trkpt>
      <trkpt lat="46.29043" lon="4.8365">
        <ele>170.10059</ele>
        <time>2026-05-13T14:34:24+02:00</time>
        <extensions>
          <gpxtpx:TrackPointExtension xmlns:gpxtpx="http://www.garmin.com/xmlschemas/TrackPointExtension/v1">
            <gpxtpx:hr>171</gpxtpx:hr>
          </gpxtpx:TrackPointExtension>
        </extensions>
      </trkpt>
      <trkpt lat="46.29048" lon="4.83657">
        <ele>170</ele>
        <time>2026-05-13T14:34:25+02:00</time>
        <extensions>
          <gpxtpx:TrackPointExtension xmlns:gpxtpx="http://www.garmin.com/xmlschemas/TrackPointExtension/v1">
            <gpxtpx:hr>170</gpxtpx:hr>
          </gpxtpx:TrackPointExtension>
        </extensions>
      </trkpt>
      <trkpt lat="46.29052" lon="4.83664">
        <ele>169.90039</ele>
        <time>2026-05-13T14:34:26+02:00</time>
        <extensions>
          <gpxtpx:TrackPointExtension xmlns:gpxtpx="http://www.garmin.com/xmlschemas/TrackPointExtension/v1">
            <gpxtpx:hr>171</gpxtpx:hr>
          </gpxtpx:TrackPointExtension>
        </extensions>
      </trkpt>
      <trkpt lat="46.29057" lon="4.8367">
        <ele>169.90039</ele>
        <time>2026-05-13T14:34:27+02:00</time>
        <extensions>
          <gpxtpx:TrackPointExtension xmlns:gpxtpx="http://www.garmin.com/xmlschemas/TrackPointExtension/v1">
            <gpxtpx:hr>171</gpxtpx:hr>
          </gpxtpx:TrackPointExtension>
        </extensions>
      </trkpt>
      <trkpt lat="46.29062" lon="4.83676">
        <ele>169.7998</ele>
        <time>2026-05-13T14:34:28+02:00</time>
        <extensions>
          <gpxtpx:TrackPointExtension xmlns:gpxtpx="http://www.garmin.com/xmlschemas/TrackPointExtension/v1">
            <gpxtpx:hr>170</gpxtpx:hr>
          </gpxtpx:TrackPointExtension>
        </extensions>
      </trkpt>
      <trkpt lat="46.29067" lon="4.83682">
        <ele>169.7998</ele>
        <time>2026-05-13T14:34:29+02:00</time>
        <extensions>
          <gpxtpx:TrackPointExtension xmlns:gpxtpx="http://www.garmin.com/xmlschemas/TrackPointExtension/v1">
            <gpxtpx:hr>170</gpxtpx:hr>
          </gpxtpx:TrackPointExtension>
        </extensions>
      </trkpt>
      <trkpt lat="46.29072" lon="4.83687">
        <ele>169.7998</ele>
        <time>2026-05-13T14:34:30+02:00</time>
        <extensions>
          <gpxtpx:TrackPointExtension xmlns:gpxtpx="http://www.garmin.com/xmlschemas/TrackPointExtension/v1">
            <gpxtpx:hr>170</gpxtpx:hr>
          </gpxtpx:TrackPointExtension>
        </extensions>
      </trkpt>
      <trkpt lat="46.29077" lon="4.83692">
        <ele>169.90039</ele>
        <time>2026-05-13T14:34:31+02:00</time>
        <extensions>
          <gpxtpx:TrackPointExtension xmlns:gpxtpx="http://www.garmin.com/xmlschemas/TrackPointExtension/v1">
            <gpxtpx:hr>170</gpxtpx:hr>
          </gpxtpx:TrackPointExtension>
        </extensions>
      </trkpt>
      <trkpt lat="46.29082" lon="4.83697">
        <ele>169.90039</ele>
        <time>2026-05-13T14:34:32+02:00</time>
        <extensions>
          <gpxtpx:TrackPointExtension xmlns:gpxtpx="http://www.garmin.com/xmlschemas/TrackPointExtension/v1">
            <gpxtpx:hr>170</gpxtpx:hr>
          </gpxtpx:TrackPointExtension>
        </extensions>
      </trkpt>
      <trkpt lat="46.29087" lon="4.83701">
        <ele>170</ele>
        <time>2026-05-13T14:34:33+02:00</time>
        <extensions>
          <gpxtpx:TrackPointExtension xmlns:gpxtpx="http://www.garmin.com/xmlschemas/TrackPointExtension/v1">
            <gpxtpx:hr>170</gpxtpx:hr>
          </gpxtpx:TrackPointExtension>
        </extensions>
      </trkpt>
      <trkpt lat="46.29091" lon="4.83705">
        <ele>170</ele>
        <time>2026-05-13T14:34:34+02:00</time>
        <extensions>
          <gpxtpx:TrackPointExtension xmlns:gpxtpx="http://www.garmin.com/xmlschemas/TrackPointExtension/v1">
            <gpxtpx:hr>170</gpxtpx:hr>
          </gpxtpx:TrackPointExtension>
        </extensions>
      </trkpt>
      <trkpt lat="46.29096" lon="4.83709">
        <ele>170.2002</ele>
        <time>2026-05-13T14:34:35+02:00</time>
        <extensions>
          <gpxtpx:TrackPointExtension xmlns:gpxtpx="http://www.garmin.com/xmlschemas/TrackPointExtension/v1">
            <gpxtpx:hr>170</gpxtpx:hr>
          </gpxtpx:TrackPointExtension>
        </extensions>
      </trkpt>
      <trkpt lat="46.29101" lon="4.83712">
        <ele>170.2998</ele>
        <time>2026-05-13T14:34:36+02:00</time>
        <extensions>
          <gpxtpx:TrackPointExtension xmlns:gpxtpx="http://www.garmin.com/xmlschemas/TrackPointExtension/v1">
            <gpxtpx:hr>169</gpxtpx:hr>
          </gpxtpx:TrackPointExtension>
        </extensions>
      </trkpt>
      <trkpt lat="46.29106" lon="4.83715">
        <ele>170.40039</ele>
        <time>2026-05-13T14:34:37+02:00</time>
        <extensions>
          <gpxtpx:TrackPointExtension xmlns:gpxtpx="http://www.garmin.com/xmlschemas/TrackPointExtension/v1">
            <gpxtpx:hr>170</gpxtpx:hr>
          </gpxtpx:TrackPointExtension>
        </extensions>
      </trkpt>
      <trkpt lat="46.29111" lon="4.83719">
        <ele>170.40039</ele>
        <time>2026-05-13T14:34:38+02:00</time>
        <extensions>
          <gpxtpx:TrackPointExtension xmlns:gpxtpx="http://www.garmin.com/xmlschemas/TrackPointExtension/v1">
            <gpxtpx:hr>169</gpxtpx:hr>
          </gpxtpx:TrackPointExtension>
        </extensions>
      </trkpt>
      <trkpt lat="46.29117" lon="4.83721">
        <ele>170.5</ele>
        <time>2026-05-13T14:34:39+02:00</time>
        <extensions>
          <gpxtpx:TrackPointExtension xmlns:gpxtpx="http://www.garmin.com/xmlschemas/TrackPointExtension/v1">
            <gpxtpx:hr>169</gpxtpx:hr>
          </gpxtpx:TrackPointExtension>
        </extensions>
      </trkpt>
      <trkpt lat="46.29122" lon="4.83724">
        <ele>170.5</ele>
        <time>2026-05-13T14:34:40+02:00</time>
        <extensions>
          <gpxtpx:TrackPointExtension xmlns:gpxtpx="http://www.garmin.com/xmlschemas/TrackPointExtension/v1">
            <gpxtpx:hr>169</gpxtpx:hr>
          </gpxtpx:TrackPointExtension>
        </extensions>
      </trkpt>
      <trkpt lat="46.29127" lon="4.83727">
        <ele>170.5</ele>
        <time>2026-05-13T14:34:41+02:00</time>
        <extensions>
          <gpxtpx:TrackPointExtension xmlns:gpxtpx="http://www.garmin.com/xmlschemas/TrackPointExtension/v1">
            <gpxtpx:hr>169</gpxtpx:hr>
          </gpxtpx:TrackPointExtension>
        </extensions>
      </trkpt>
      <trkpt lat="46.29133" lon="4.83729">
        <ele>170.5</ele>
        <time>2026-05-13T14:34:42+02:00</time>
        <extensions>
          <gpxtpx:TrackPointExtension xmlns:gpxtpx="http://www.garmin.com/xmlschemas/TrackPointExtension/v1">
            <gpxtpx:hr>170</gpxtpx:hr>
          </gpxtpx:TrackPointExtension>
        </extensions>
      </trkpt>
      <trkpt lat="46.29139" lon="4.83731">
        <ele>170.60059</ele>
        <time>2026-05-13T14:34:43+02:00</time>
        <extensions>
          <gpxtpx:TrackPointExtension xmlns:gpxtpx="http://www.garmin.com/xmlschemas/TrackPointExtension/v1">
            <gpxtpx:hr>170</gpxtpx:hr>
          </gpxtpx:TrackPointExtension>
        </extensions>
      </trkpt>
      <trkpt lat="46.29144" lon="4.83733">
        <ele>170.60059</ele>
        <time>2026-05-13T14:34:44+02:00</time>
        <extensions>
          <gpxtpx:TrackPointExtension xmlns:gpxtpx="http://www.garmin.com/xmlschemas/TrackPointExtension/v1">
            <gpxtpx:hr>170</gpxtpx:hr>
          </gpxtpx:TrackPointExtension>
        </extensions>
      </trkpt>
      <trkpt lat="46.2915" lon="4.83734">
        <ele>170.60059</ele>
        <time>2026-05-13T14:34:45+02:00</time>
        <extensions>
          <gpxtpx:TrackPointExtension xmlns:gpxtpx="http://www.garmin.com/xmlschemas/TrackPointExtension/v1">
            <gpxtpx:hr>171</gpxtpx:hr>
          </gpxtpx:TrackPointExtension>
        </extensions>
      </trkpt>
      <trkpt lat="46.29156" lon="4.83736">
        <ele>170.60059</ele>
        <time>2026-05-13T14:34:46+02:00</time>
        <extensions>
          <gpxtpx:TrackPointExtension xmlns:gpxtpx="http://www.garmin.com/xmlschemas/TrackPointExtension/v1">
            <gpxtpx:hr>172</gpxtpx:hr>
          </gpxtpx:TrackPointExtension>
        </extensions>
      </trkpt>
      <trkpt lat="46.29162" lon="4.83737">
        <ele>170.7002</ele>
        <time>2026-05-13T14:34:47+02:00</time>
        <extensions>
          <gpxtpx:TrackPointExtension xmlns:gpxtpx="http://www.garmin.com/xmlschemas/TrackPointExtension/v1">
            <gpxtpx:hr>172</gpxtpx:hr>
          </gpxtpx:TrackPointExtension>
        </extensions>
      </trkpt>
      <trkpt lat="46.29167" lon="4.83738">
        <ele>170.7002</ele>
        <time>2026-05-13T14:34:48+02:00</time>
        <extensions>
          <gpxtpx:TrackPointExtension xmlns:gpxtpx="http://www.garmin.com/xmlschemas/TrackPointExtension/v1">
            <gpxtpx:hr>173</gpxtpx:hr>
          </gpxtpx:TrackPointExtension>
        </extensions>
      </trkpt>
      <trkpt lat="46.29173" lon="4.83738">
        <ele>170.7998</ele>
        <time>2026-05-13T14:34:49+02:00</time>
        <extensions>
          <gpxtpx:TrackPointExtension xmlns:gpxtpx="http://www.garmin.com/xmlschemas/TrackPointExtension/v1">
            <gpxtpx:hr>174</gpxtpx:hr>
          </gpxtpx:TrackPointExtension>
        </extensions>
      </trkpt>
      <trkpt lat="46.29179" lon="4.83739">
        <ele>170.7998</ele>
        <time>2026-05-13T14:34:50+02:00</time>
        <extensions>
          <gpxtpx:TrackPointExtension xmlns:gpxtpx="http://www.garmin.com/xmlschemas/TrackPointExtension/v1">
            <gpxtpx:hr>175</gpxtpx:hr>
          </gpxtpx:TrackPointExtension>
        </extensions>
      </trkpt>
      <trkpt lat="46.29184" lon="4.83738">
        <ele>170.90039</ele>
        <time>2026-05-13T14:34:51+02:00</time>
        <extensions>
          <gpxtpx:TrackPointExtension xmlns:gpxtpx="http://www.garmin.com/xmlschemas/TrackPointExtension/v1">
            <gpxtpx:hr>176</gpxtpx:hr>
          </gpxtpx:TrackPointExtension>
        </extensions>
      </trkpt>
      <trkpt lat="46.2919" lon="4.83738">
        <ele>170.90039</ele>
        <time>2026-05-13T14:34:52+02:00</time>
        <extensions>
          <gpxtpx:TrackPointExtension xmlns:gpxtpx="http://www.garmin.com/xmlschemas/TrackPointExtension/v1">
            <gpxtpx:hr>176</gpxtpx:hr>
          </gpxtpx:TrackPointExtension>
        </extensions>
      </trkpt>
      <trkpt lat="46.29196" lon="4.83737">
        <ele>170.90039</ele>
        <time>2026-05-13T14:34:53+02:00</time>
        <extensions>
          <gpxtpx:TrackPointExtension xmlns:gpxtpx="http://www.garmin.com/xmlschemas/TrackPointExtension/v1">
            <gpxtpx:hr>177</gpxtpx:hr>
          </gpxtpx:TrackPointExtension>
        </extensions>
      </trkpt>
      <trkpt lat="46.29202" lon="4.83736">
        <ele>171</ele>
        <time>2026-05-13T14:34:54+02:00</time>
        <extensions>
          <gpxtpx:TrackPointExtension xmlns:gpxtpx="http://www.garmin.com/xmlschemas/TrackPointExtension/v1">
            <gpxtpx:hr>177</gpxtpx:hr>
          </gpxtpx:TrackPointExtension>
        </extensions>
      </trkpt>
      <trkpt lat="46.29207" lon="4.83734">
        <ele>171</ele>
        <time>2026-05-13T14:34:55+02:00</time>
        <extensions>
          <gpxtpx:TrackPointExtension xmlns:gpxtpx="http://www.garmin.com/xmlschemas/TrackPointExtension/v1">
            <gpxtpx:hr>178</gpxtpx:hr>
          </gpxtpx:TrackPointExtension>
        </extensions>
      </trkpt>
      <trkpt lat="46.29213" lon="4.83733">
        <ele>171.2002</ele>
        <time>2026-05-13T14:34:56+02:00</time>
        <extensions>
          <gpxtpx:TrackPointExtension xmlns:gpxtpx="http://www.garmin.com/xmlschemas/TrackPointExtension/v1">
            <gpxtpx:hr>179</gpxtpx:hr>
          </gpxtpx:TrackPointExtension>
        </extensions>
      </trkpt>
      <trkpt lat="46.29218" lon="4.83731">
        <ele>171.2002</ele>
        <time>2026-05-13T14:34:57+02:00</time>
        <extensions>
          <gpxtpx:TrackPointExtension xmlns:gpxtpx="http://www.garmin.com/xmlschemas/TrackPointExtension/v1">
            <gpxtpx:hr>179</gpxtpx:hr>
          </gpxtpx:TrackPointExtension>
        </extensions>
      </trkpt>
      <trkpt lat="46.29224" lon="4.83729">
        <ele>171.2998</ele>
        <time>2026-05-13T14:34:58+02:00</time>
        <extensions>
          <gpxtpx:TrackPointExtension xmlns:gpxtpx="http://www.garmin.com/xmlschemas/TrackPointExtension/v1">
            <gpxtpx:hr>180</gpxtpx:hr>
          </gpxtpx:TrackPointExtension>
        </extensions>
      </trkpt>
      <trkpt lat="46.29229" lon="4.83727">
        <ele>171.40039</ele>
        <time>2026-05-13T14:34:59+02:00</time>
        <extensions>
          <gpxtpx:TrackPointExtension xmlns:gpxtpx="http://www.garmin.com/xmlschemas/TrackPointExtension/v1">
            <gpxtpx:hr>180</gpxtpx:hr>
          </gpxtpx:TrackPointExtension>
        </extensions>
      </trkpt>
      <trkpt lat="46.29235" lon="4.83724">
        <ele>171.60059</ele>
        <time>2026-05-13T14:35:00+02:00</time>
        <extensions>
          <gpxtpx:TrackPointExtension xmlns:gpxtpx="http://www.garmin.com/xmlschemas/TrackPointExtension/v1">
            <gpxtpx:hr>181</gpxtpx:hr>
          </gpxtpx:TrackPointExtension>
        </extensions>
      </trkpt>
      <trkpt lat="46.2924" lon="4.83722">
        <ele>171.60059</ele>
        <time>2026-05-13T14:35:01+02:00</time>
        <extensions>
          <gpxtpx:TrackPointExtension xmlns:gpxtpx="http://www.garmin.com/xmlschemas/TrackPointExtension/v1">
            <gpxtpx:hr>181</gpxtpx:hr>
          </gpxtpx:TrackPointExtension>
        </extensions>
      </trkpt>
      <trkpt lat="46.29245" lon="4.8372">
        <ele>171.60059</ele>
        <time>2026-05-13T14:35:02+02:00</time>
        <extensions>
          <gpxtpx:TrackPointExtension xmlns:gpxtpx="http://www.garmin.com/xmlschemas/TrackPointExtension/v1">
            <gpxtpx:hr>182</gpxtpx:hr>
          </gpxtpx:TrackPointExtension>
        </extensions>
      </trkpt>
      <trkpt lat="46.2925" lon="4.83717">
        <ele>171.7002</ele>
        <time>2026-05-13T14:35:03+02:00</time>
        <extensions>
          <gpxtpx:TrackPointExtension xmlns:gpxtpx="http://www.garmin.com/xmlschemas/TrackPointExtension/v1">
            <gpxtpx:hr>183</gpxtpx:hr>
          </gpxtpx:TrackPointExtension>
        </extensions>
      </trkpt>
      <trkpt lat="46.29255" lon="4.83714">
        <ele>172</ele>
        <time>2026-05-13T14:35:04+02:00</time>
        <extensions>
          <gpxtpx:TrackPointExtension xmlns:gpxtpx="http://www.garmin.com/xmlschemas/TrackPointExtension/v1">
            <gpxtpx:hr>184</gpxtpx:hr>
          </gpxtpx:TrackPointExtension>
        </extensions>
      </trkpt>
      <trkpt lat="46.2926" lon="4.83711">
        <ele>172.10059</ele>
        <time>2026-05-13T14:35:05+02:00</time>
        <extensions>
          <gpxtpx:TrackPointExtension xmlns:gpxtpx="http://www.garmin.com/xmlschemas/TrackPointExtension/v1">
            <gpxtpx:hr>184</gpxtpx:hr>
          </gpxtpx:TrackPointExtension>
        </extensions>
      </trkpt>
      <trkpt lat="46.29265" lon="4.83707">
        <ele>172.2998</ele>
        <time>2026-05-13T14:35:06+02:00</time>
        <extensions>
          <gpxtpx:TrackPointExtension xmlns:gpxtpx="http://www.garmin.com/xmlschemas/TrackPointExtension/v1">
            <gpxtpx:hr>184</gpxtpx:hr>
          </gpxtpx:TrackPointExtension>
        </extensions>
      </trkpt>
      <trkpt lat="46.29269" lon="4.83704">
        <ele>172.40039</ele>
        <time>2026-05-13T14:35:07+02:00</time>
        <extensions>
          <gpxtpx:TrackPointExtension xmlns:gpxtpx="http://www.garmin.com/xmlschemas/TrackPointExtension/v1">
            <gpxtpx:hr>185</gpxtpx:hr>
          </gpxtpx:TrackPointExtension>
        </extensions>
      </trkpt>
      <trkpt lat="46.29274" lon="4.837">
        <ele>172.40039</ele>
        <time>2026-05-13T14:35:08+02:00</time>
        <extensions>
          <gpxtpx:TrackPointExtension xmlns:gpxtpx="http://www.garmin.com/xmlschemas/TrackPointExtension/v1">
            <gpxtpx:hr>185</gpxtpx:hr>
          </gpxtpx:TrackPointExtension>
        </extensions>
      </trkpt>
      <trkpt lat="46.29278" lon="4.83697">
        <ele>172.60059</ele>
        <time>2026-05-13T14:35:09+02:00</time>
        <extensions>
          <gpxtpx:TrackPointExtension xmlns:gpxtpx="http://www.garmin.com/xmlschemas/TrackPointExtension/v1">
            <gpxtpx:hr>185</gpxtpx:hr>
          </gpxtpx:TrackPointExtension>
        </extensions>
      </trkpt>
      <trkpt lat="46.29283" lon="4.83693">
        <ele>172.7998</ele>
        <time>2026-05-13T14:35:10+02:00</time>
        <extensions>
          <gpxtpx:TrackPointExtension xmlns:gpxtpx="http://www.garmin.com/xmlschemas/TrackPointExtension/v1">
            <gpxtpx:hr>186</gpxtpx:hr>
          </gpxtpx:TrackPointExtension>
        </extensions>
      </trkpt>
      <trkpt lat="46.29287" lon="4.8369">
        <ele>173</ele>
        <time>2026-05-13T14:35:11+02:00</time>
        <extensions>
          <gpxtpx:TrackPointExtension xmlns:gpxtpx="http://www.garmin.com/xmlschemas/TrackPointExtension/v1">
            <gpxtpx:hr>186</gpxtpx:hr>
          </gpxtpx:TrackPointExtension>
        </extensions>
      </trkpt>
      <trkpt lat="46.29292" lon="4.83687">
        <ele>173</ele>
        <time>2026-05-13T14:35:12+02:00</time>
        <extensions>
          <gpxtpx:TrackPointExtension xmlns:gpxtpx="http://www.garmin.com/xmlschemas/TrackPointExtension/v1">
            <gpxtpx:hr>186</gpxtpx:hr>
          </gpxtpx:TrackPointExtension>
        </extensions>
      </trkpt>
      <trkpt lat="46.29296" lon="4.83683">
        <ele>173.10059</ele>
        <time>2026-05-13T14:35:13+02:00</time>
        <extensions>
          <gpxtpx:TrackPointExtension xmlns:gpxtpx="http://www.garmin.com/xmlschemas/TrackPointExtension/v1">
            <gpxtpx:hr>185</gpxtpx:hr>
          </gpxtpx:TrackPointExtension>
        </extensions>
      </trkpt>
      <trkpt lat="46.293" lon="4.83679">
        <ele>173.40039</ele>
        <time>2026-05-13T14:35:14+02:00</time>
        <extensions>
          <gpxtpx:TrackPointExtension xmlns:gpxtpx="http://www.garmin.com/xmlschemas/TrackPointExtension/v1">
            <gpxtpx:hr>186</gpxtpx:hr>
          </gpxtpx:TrackPointExtension>
        </extensions>
      </trkpt>
      <trkpt lat="46.29305" lon="4.83676">
        <ele>173.40039</ele>
        <time>2026-05-13T14:35:15+02:00</time>
        <extensions>
          <gpxtpx:TrackPointExtension xmlns:gpxtpx="http://www.garmin.com/xmlschemas/TrackPointExtension/v1">
            <gpxtpx:hr>186</gpxtpx:hr>
          </gpxtpx:TrackPointExtension>
        </extensions>
      </trkpt>
      <trkpt lat="46.2931" lon="4.83672">
        <ele>173.40039</ele>
        <time>2026-05-13T14:35:16+02:00</time>
        <extensions>
          <gpxtpx:TrackPointExtension xmlns:gpxtpx="http://www.garmin.com/xmlschemas/TrackPointExtension/v1">
            <gpxtpx:hr>186</gpxtpx:hr>
          </gpxtpx:TrackPointExtension>
        </extensions>
      </trkpt>
      <trkpt lat="46.29315" lon="4.83668">
        <ele>173.5</ele>
        <time>2026-05-13T14:35:17+02:00</time>
        <extensions>
          <gpxtpx:TrackPointExtension xmlns:gpxtpx="http://www.garmin.com/xmlschemas/TrackPointExtension/v1">
            <gpxtpx:hr>187</gpxtpx:hr>
          </gpxtpx:TrackPointExtension>
        </extensions>
      </trkpt>
      <trkpt lat="46.29319" lon="4.83665">
        <ele>173.40039</ele>
        <time>2026-05-13T14:35:18+02:00</time>
        <extensions>
          <gpxtpx:TrackPointExtension xmlns:gpxtpx="http://www.garmin.com/xmlschemas/TrackPointExtension/v1">
            <gpxtpx:hr>187</gpxtpx:hr>
          </gpxtpx:TrackPointExtension>
        </extensions>
      </trkpt>
      <trkpt lat="46.29324" lon="4.83661">
        <ele>172.2998</ele>
        <time>2026-05-13T14:35:19+02:00</time>
        <extensions>
          <gpxtpx:TrackPointExtension xmlns:gpxtpx="http://www.garmin.com/xmlschemas/TrackPointExtension/v1">
            <gpxtpx:hr>187</gpxtpx:hr>
          </gpxtpx:TrackPointExtension>
        </extensions>
      </trkpt>
      <trkpt lat="46.29329" lon="4.83657">
        <ele>171.7998</ele>
        <time>2026-05-13T14:35:20+02:00</time>
        <extensions>
          <gpxtpx:TrackPointExtension xmlns:gpxtpx="http://www.garmin.com/xmlschemas/TrackPointExtension/v1">
            <gpxtpx:hr>187</gpxtpx:hr>
          </gpxtpx:TrackPointExtension>
        </extensions>
      </trkpt>
      <trkpt lat="46.29333" lon="4.83653">
        <ele>170.7002</ele>
        <time>2026-05-13T14:35:21+02:00</time>
        <extensions>
          <gpxtpx:TrackPointExtension xmlns:gpxtpx="http://www.garmin.com/xmlschemas/TrackPointExtension/v1">
            <gpxtpx:hr>187</gpxtpx:hr>
          </gpxtpx:TrackPointExtension>
        </extensions>
      </trkpt>
      <trkpt lat="46.29338" lon="4.8365">
        <ele>170.2998</ele>
        <time>2026-05-13T14:35:22+02:00</time>
        <extensions>
          <gpxtpx:TrackPointExtension xmlns:gpxtpx="http://www.garmin.com/xmlschemas/TrackPointExtension/v1">
            <gpxtpx:hr>187</gpxtpx:hr>
          </gpxtpx:TrackPointExtension>
        </extensions>
      </trkpt>
      <trkpt lat="46.29343" lon="4.83646">
        <ele>169.60059</ele>
        <time>2026-05-13T14:35:23+02:00</time>
        <extensions>
          <gpxtpx:TrackPointExtension xmlns:gpxtpx="http://www.garmin.com/xmlschemas/TrackPointExtension/v1">
            <gpxtpx:hr>187</gpxtpx:hr>
          </gpxtpx:TrackPointExtension>
        </extensions>
      </trkpt>
      <trkpt lat="46.29347" lon="4.83642">
        <ele>169.2998</ele>
        <time>2026-05-13T14:35:24+02:00</time>
        <extensions>
          <gpxtpx:TrackPointExtension xmlns:gpxtpx="http://www.garmin.com/xmlschemas/TrackPointExtension/v1">
            <gpxtpx:hr>187</gpxtpx:hr>
          </gpxtpx:TrackPointExtension>
        </extensions>
      </trkpt>
      <trkpt lat="46.29352" lon="4.83638">
        <ele>168.90039</ele>
        <time>2026-05-13T14:35:25+02:00</time>
        <extensions>
          <gpxtpx:TrackPointExtension xmlns:gpxtpx="http://www.garmin.com/xmlschemas/TrackPointExtension/v1">
            <gpxtpx:hr>186</gpxtpx:hr>
          </gpxtpx:TrackPointExtension>
        </extensions>
      </trkpt>
      <trkpt lat="46.29357" lon="4.83635">
        <ele>168.90039</ele>
        <time>2026-05-13T14:35:26+02:00</time>
        <extensions>
          <gpxtpx:TrackPointExtension xmlns:gpxtpx="http://www.garmin.com/xmlschemas/TrackPointExtension/v1">
            <gpxtpx:hr>187</gpxtpx:hr>
          </gpxtpx:TrackPointExtension>
        </extensions>
      </trkpt>
      <trkpt lat="46.29361" lon="4.83631">
        <ele>168.7002</ele>
        <time>2026-05-13T14:35:27+02:00</time>
        <extensions>
          <gpxtpx:TrackPointExtension xmlns:gpxtpx="http://www.garmin.com/xmlschemas/TrackPointExtension/v1">
            <gpxtpx:hr>188</gpxtpx:hr>
          </gpxtpx:TrackPointExtension>
        </extensions>
      </trkpt>
      <trkpt lat="46.29366" lon="4.83627">
        <ele>168.40039</ele>
        <time>2026-05-13T14:35:28+02:00</time>
        <extensions>
          <gpxtpx:TrackPointExtension xmlns:gpxtpx="http://www.garmin.com/xmlschemas/TrackPointExtension/v1">
            <gpxtpx:hr>188</gpxtpx:hr>
          </gpxtpx:TrackPointExtension>
        </extensions>
      </trkpt>
      <trkpt lat="46.29371" lon="4.83623">
        <ele>168.2998</ele>
        <time>2026-05-13T14:35:29+02:00</time>
        <extensions>
          <gpxtpx:TrackPointExtension xmlns:gpxtpx="http://www.garmin.com/xmlschemas/TrackPointExtension/v1">
            <gpxtpx:hr>187</gpxtpx:hr>
          </gpxtpx:TrackPointExtension>
        </extensions>
      </trkpt>
      <trkpt lat="46.29376" lon="4.83619">
        <ele>168.2998</ele>
        <time>2026-05-13T14:35:30+02:00</time>
        <extensions>
          <gpxtpx:TrackPointExtension xmlns:gpxtpx="http://www.garmin.com/xmlschemas/TrackPointExtension/v1">
            <gpxtpx:hr>188</gpxtpx:hr>
          </gpxtpx:TrackPointExtension>
        </extensions>
      </trkpt>
      <trkpt lat="46.2938" lon="4.83616">
        <ele>168.2998</ele>
        <time>2026-05-13T14:35:31+02:00</time>
        <extensions>
          <gpxtpx:TrackPointExtension xmlns:gpxtpx="http://www.garmin.com/xmlschemas/TrackPointExtension/v1">
            <gpxtpx:hr>188</gpxtpx:hr>
          </gpxtpx:TrackPointExtension>
        </extensions>
      </trkpt>
      <trkpt lat="46.29385" lon="4.83612">
        <ele>168.2998</ele>
        <time>2026-05-13T14:35:32+02:00</time>
        <extensions>
          <gpxtpx:TrackPointExtension xmlns:gpxtpx="http://www.garmin.com/xmlschemas/TrackPointExtension/v1">
            <gpxtpx:hr>187</gpxtpx:hr>
          </gpxtpx:TrackPointExtension>
        </extensions>
      </trkpt>
      <trkpt lat="46.2939" lon="4.83608">
        <ele>168.2998</ele>
        <time>2026-05-13T14:35:33+02:00</time>
        <extensions>
          <gpxtpx:TrackPointExtension xmlns:gpxtpx="http://www.garmin.com/xmlschemas/TrackPointExtension/v1">
            <gpxtpx:hr>188</gpxtpx:hr>
          </gpxtpx:TrackPointExtension>
        </extensions>
      </trkpt>
      <trkpt lat="46.29394" lon="4.83604">
        <ele>168.2998</ele>
        <time>2026-05-13T14:35:34+02:00</time>
        <extensions>
          <gpxtpx:TrackPointExtension xmlns:gpxtpx="http://www.garmin.com/xmlschemas/TrackPointExtension/v1">
            <gpxtpx:hr>187</gpxtpx:hr>
          </gpxtpx:TrackPointExtension>
        </extensions>
      </trkpt>
      <trkpt lat="46.29399" lon="4.836">
        <ele>168.2998</ele>
        <time>2026-05-13T14:35:35+02:00</time>
        <extensions>
          <gpxtpx:TrackPointExtension xmlns:gpxtpx="http://www.garmin.com/xmlschemas/TrackPointExtension/v1">
            <gpxtpx:hr>187</gpxtpx:hr>
          </gpxtpx:TrackPointExtension>
        </extensions>
      </trkpt>
      <trkpt lat="46.29404" lon="4.83596">
        <ele>168.2998</ele>
        <time>2026-05-13T14:35:36+02:00</time>
        <extensions>
          <gpxtpx:TrackPointExtension xmlns:gpxtpx="http://www.garmin.com/xmlschemas/TrackPointExtension/v1">
            <gpxtpx:hr>188</gpxtpx:hr>
          </gpxtpx:TrackPointExtension>
        </extensions>
      </trkpt>
      <trkpt lat="46.29409" lon="4.83592">
        <ele>168.2998</ele>
        <time>2026-05-13T14:35:37+02:00</time>
        <extensions>
          <gpxtpx:TrackPointExtension xmlns:gpxtpx="http://www.garmin.com/xmlschemas/TrackPointExtension/v1">
            <gpxtpx:hr>187</gpxtpx:hr>
          </gpxtpx:TrackPointExtension>
        </extensions>
      </trkpt>
      <trkpt lat="46.29414" lon="4.83588">
        <ele>168.2998</ele>
        <time>2026-05-13T14:35:38+02:00</time>
        <extensions>
          <gpxtpx:TrackPointExtension xmlns:gpxtpx="http://www.garmin.com/xmlschemas/TrackPointExtension/v1">
            <gpxtpx:hr>187</gpxtpx:hr>
          </gpxtpx:TrackPointExtension>
        </extensions>
      </trkpt>
      <trkpt lat="46.29419" lon="4.83584">
        <ele>168.2998</ele>
        <time>2026-05-13T14:35:39+02:00</time>
        <extensions>
          <gpxtpx:TrackPointExtension xmlns:gpxtpx="http://www.garmin.com/xmlschemas/TrackPointExtension/v1">
            <gpxtpx:hr>187</gpxtpx:hr>
          </gpxtpx:TrackPointExtension>
        </extensions>
      </trkpt>
      <trkpt lat="46.29424" lon="4.8358">
        <ele>168.2998</ele>
        <time>2026-05-13T14:35:40+02:00</time>
        <extensions>
          <gpxtpx:TrackPointExtension xmlns:gpxtpx="http://www.garmin.com/xmlschemas/TrackPointExtension/v1">
            <gpxtpx:hr>186</gpxtpx:hr>
          </gpxtpx:TrackPointExtension>
        </extensions>
      </trkpt>
      <trkpt lat="46.29429" lon="4.83576">
        <ele>168.2998</ele>
        <time>2026-05-13T14:35:41+02:00</time>
        <extensions>
          <gpxtpx:TrackPointExtension xmlns:gpxtpx="http://www.garmin.com/xmlschemas/TrackPointExtension/v1">
            <gpxtpx:hr>186</gpxtpx:hr>
          </gpxtpx:TrackPointExtension>
        </extensions>
      </trkpt>
      <trkpt lat="46.29434" lon="4.83572">
        <ele>168.2998</ele>
        <time>2026-05-13T14:35:42+02:00</time>
        <extensions>
          <gpxtpx:TrackPointExtension xmlns:gpxtpx="http://www.garmin.com/xmlschemas/TrackPointExtension/v1">
            <gpxtpx:hr>187</gpxtpx:hr>
          </gpxtpx:TrackPointExtension>
        </extensions>
      </trkpt>
      <trkpt lat="46.29439" lon="4.83567">
        <ele>168.2998</ele>
        <time>2026-05-13T14:35:43+02:00</time>
        <extensions>
          <gpxtpx:TrackPointExtension xmlns:gpxtpx="http://www.garmin.com/xmlschemas/TrackPointExtension/v1">
            <gpxtpx:hr>185</gpxtpx:hr>
          </gpxtpx:TrackPointExtension>
        </extensions>
      </trkpt>
      <trkpt lat="46.29444" lon="4.83563">
        <ele>168.2998</ele>
        <time>2026-05-13T14:35:44+02:00</time>
        <extensions>
          <gpxtpx:TrackPointExtension xmlns:gpxtpx="http://www.garmin.com/xmlschemas/TrackPointExtension/v1">
            <gpxtpx:hr>185</gpxtpx:hr>
          </gpxtpx:TrackPointExtension>
        </extensions>
      </trkpt>
      <trkpt lat="46.2945" lon="4.83559">
        <ele>168.60059</ele>
        <time>2026-05-13T14:35:45+02:00</time>
        <extensions>
          <gpxtpx:TrackPointExtension xmlns:gpxtpx="http://www.garmin.com/xmlschemas/TrackPointExtension/v1">
            <gpxtpx:hr>184</gpxtpx:hr>
          </gpxtpx:TrackPointExtension>
        </extensions>
      </trkpt>
      <trkpt lat="46.29466" lon="4.83546">
        <ele>169.2002</ele>
        <time>2026-05-13T14:35:46+02:00</time>
        <extensions>
          <gpxtpx:TrackPointExtension xmlns:gpxtpx="http://www.garmin.com/xmlschemas/TrackPointExtension/v1">
            <gpxtpx:hr>184</gpxtpx:hr>
          </gpxtpx:TrackPointExtension>
        </extensions>
      </trkpt>
      <trkpt lat="46.29471" lon="4.83542">
        <ele>170</ele>
        <time>2026-05-13T14:35:47+02:00</time>
        <extensions>
          <gpxtpx:TrackPointExtension xmlns:gpxtpx="http://www.garmin.com/xmlschemas/TrackPointExtension/v1">
            <gpxtpx:hr>184</gpxtpx:hr>
          </gpxtpx:TrackPointExtension>
        </extensions>
      </trkpt>
      <trkpt lat="46.29477" lon="4.83537">
        <ele>170.2002</ele>
        <time>2026-05-13T14:35:48+02:00</time>
        <extensions>
          <gpxtpx:TrackPointExtension xmlns:gpxtpx="http://www.garmin.com/xmlschemas/TrackPointExtension/v1">
            <gpxtpx:hr>183</gpxtpx:hr>
          </gpxtpx:TrackPointExtension>
        </extensions>
      </trkpt>
      <trkpt lat="46.29482" lon="4.83533">
        <ele>170.90039</ele>
        <time>2026-05-13T14:35:49+02:00</time>
        <extensions>
          <gpxtpx:TrackPointExtension xmlns:gpxtpx="http://www.garmin.com/xmlschemas/TrackPointExtension/v1">
            <gpxtpx:hr>183</gpxtpx:hr>
          </gpxtpx:TrackPointExtension>
        </extensions>
      </trkpt>
      <trkpt lat="46.29488" lon="4.83529">
        <ele>171</ele>
        <time>2026-05-13T14:35:50+02:00</time>
        <extensions>
          <gpxtpx:TrackPointExtension xmlns:gpxtpx="http://www.garmin.com/xmlschemas/TrackPointExtension/v1">
            <gpxtpx:hr>183</gpxtpx:hr>
          </gpxtpx:TrackPointExtension>
        </extensions>
      </trkpt>
      <trkpt lat="46.29493" lon="4.83524">
        <ele>171.7002</ele>
        <time>2026-05-13T14:35:51+02:00</time>
        <extensions>
          <gpxtpx:TrackPointExtension xmlns:gpxtpx="http://www.garmin.com/xmlschemas/TrackPointExtension/v1">
            <gpxtpx:hr>181</gpxtpx:hr>
          </gpxtpx:TrackPointExtension>
        </extensions>
      </trkpt>
      <trkpt lat="46.29499" lon="4.8352">
        <ele>171.7002</ele>
        <time>2026-05-13T14:35:52+02:00</time>
        <extensions>
          <gpxtpx:TrackPointExtension xmlns:gpxtpx="http://www.garmin.com/xmlschemas/TrackPointExtension/v1">
            <gpxtpx:hr>181</gpxtpx:hr>
          </gpxtpx:TrackPointExtension>
        </extensions>
      </trkpt>
      <trkpt lat="46.29505" lon="4.83516">
        <ele>172.2998</ele>
        <time>2026-05-13T14:35:53+02:00</time>
        <extensions>
          <gpxtpx:TrackPointExtension xmlns:gpxtpx="http://www.garmin.com/xmlschemas/TrackPointExtension/v1">
            <gpxtpx:hr>180</gpxtpx:hr>
          </gpxtpx:TrackPointExtension>
        </extensions>
      </trkpt>
      <trkpt lat="46.29511" lon="4.83512">
        <ele>172.2998</ele>
        <time>2026-05-13T14:35:54+02:00</time>
        <extensions>
          <gpxtpx:TrackPointExtension xmlns:gpxtpx="http://www.garmin.com/xmlschemas/TrackPointExtension/v1">
            <gpxtpx:hr>179</gpxtpx:hr>
          </gpxtpx:TrackPointExtension>
        </extensions>
      </trkpt>
      <trkpt lat="46.29517" lon="4.83508">
        <ele>172.7002</ele>
        <time>2026-05-13T14:35:55+02:00</time>
        <extensions>
          <gpxtpx:TrackPointExtension xmlns:gpxtpx="http://www.garmin.com/xmlschemas/TrackPointExtension/v1">
            <gpxtpx:hr>179</gpxtpx:hr>
          </gpxtpx:TrackPointExtension>
        </extensions>
      </trkpt>
      <trkpt lat="46.29524" lon="4.83505">
        <ele>172.7002</ele>
        <time>2026-05-13T14:35:56+02:00</time>
        <extensions>
          <gpxtpx:TrackPointExtension xmlns:gpxtpx="http://www.garmin.com/xmlschemas/TrackPointExtension/v1">
            <gpxtpx:hr>178</gpxtpx:hr>
          </gpxtpx:TrackPointExtension>
        </extensions>
      </trkpt>
      <trkpt lat="46.2953" lon="4.83502">
        <ele>172.60059</ele>
        <time>2026-05-13T14:35:57+02:00</time>
        <extensions>
          <gpxtpx:TrackPointExtension xmlns:gpxtpx="http://www.garmin.com/xmlschemas/TrackPointExtension/v1">
            <gpxtpx:hr>178</gpxtpx:hr>
          </gpxtpx:TrackPointExtension>
        </extensions>
      </trkpt>
      <trkpt lat="46.29538" lon="4.83499">
        <ele>172.60059</ele>
        <time>2026-05-13T14:35:58+02:00</time>
        <extensions>
          <gpxtpx:TrackPointExtension xmlns:gpxtpx="http://www.garmin.com/xmlschemas/TrackPointExtension/v1">
            <gpxtpx:hr>177</gpxtpx:hr>
          </gpxtpx:TrackPointExtension>
        </extensions>
      </trkpt>
      <trkpt lat="46.29545" lon="4.83497">
        <ele>172.5</ele>
        <time>2026-05-13T14:35:59+02:00</time>
        <extensions>
          <gpxtpx:TrackPointExtension xmlns:gpxtpx="http://www.garmin.com/xmlschemas/TrackPointExtension/v1">
            <gpxtpx:hr>177</gpxtpx:hr>
          </gpxtpx:TrackPointExtension>
        </extensions>
      </trkpt>
      <trkpt lat="46.29553" lon="4.83494">
        <ele>172.5</ele>
        <time>2026-05-13T14:36:00+02:00</time>
        <extensions>
          <gpxtpx:TrackPointExtension xmlns:gpxtpx="http://www.garmin.com/xmlschemas/TrackPointExtension/v1">
            <gpxtpx:hr>176</gpxtpx:hr>
          </gpxtpx:TrackPointExtension>
        </extensions>
      </trkpt>
      <trkpt lat="46.2956" lon="4.83491">
        <ele>172.2998</ele>
        <time>2026-05-13T14:36:01+02:00</time>
        <extensions>
          <gpxtpx:TrackPointExtension xmlns:gpxtpx="http://www.garmin.com/xmlschemas/TrackPointExtension/v1">
            <gpxtpx:hr>176</gpxtpx:hr>
          </gpxtpx:TrackPointExtension>
        </extensions>
      </trkpt>
      <trkpt lat="46.29567" lon="4.83488">
        <ele>172.2002</ele>
        <time>2026-05-13T14:36:02+02:00</time>
        <extensions>
          <gpxtpx:TrackPointExtension xmlns:gpxtpx="http://www.garmin.com/xmlschemas/TrackPointExtension/v1">
            <gpxtpx:hr>176</gpxtpx:hr>
          </gpxtpx:TrackPointExtension>
        </extensions>
      </trkpt>
      <trkpt lat="46.29575" lon="4.83486">
        <ele>172.2002</ele>
        <time>2026-05-13T14:36:03+02:00</time>
        <extensions>
          <gpxtpx:TrackPointExtension xmlns:gpxtpx="http://www.garmin.com/xmlschemas/TrackPointExtension/v1">
            <gpxtpx:hr>174</gpxtpx:hr>
          </gpxtpx:TrackPointExtension>
        </extensions>
      </trkpt>
      <trkpt lat="46.29582" lon="4.83483">
        <ele>172</ele>
        <time>2026-05-13T14:36:04+02:00</time>
        <extensions>
          <gpxtpx:TrackPointExtension xmlns:gpxtpx="http://www.garmin.com/xmlschemas/TrackPointExtension/v1">
            <gpxtpx:hr>174</gpxtpx:hr>
          </gpxtpx:TrackPointExtension>
        </extensions>
      </trkpt>
      <trkpt lat="46.2959" lon="4.8348">
        <ele>171.90039</ele>
        <time>2026-05-13T14:36:05+02:00</time>
        <extensions>
          <gpxtpx:TrackPointExtension xmlns:gpxtpx="http://www.garmin.com/xmlschemas/TrackPointExtension/v1">
            <gpxtpx:hr>173</gpxtpx:hr>
          </gpxtpx:TrackPointExtension>
        </extensions>
      </trkpt>
      <trkpt lat="46.29598" lon="4.83477">
        <ele>171.90039</ele>
        <time>2026-05-13T14:36:06+02:00</time>
        <extensions>
          <gpxtpx:TrackPointExtension xmlns:gpxtpx="http://www.garmin.com/xmlschemas/TrackPointExtension/v1">
            <gpxtpx:hr>172</gpxtpx:hr>
          </gpxtpx:TrackPointExtension>
        </extensions>
      </trkpt>
      <trkpt lat="46.29605" lon="4.83474">
        <ele>171.7002</ele>
        <time>2026-05-13T14:36:07+02:00</time>
        <extensions>
          <gpxtpx:TrackPointExtension xmlns:gpxtpx="http://www.garmin.com/xmlschemas/TrackPointExtension/v1">
            <gpxtpx:hr>171</gpxtpx:hr>
          </gpxtpx:TrackPointExtension>
        </extensions>
      </trkpt>
      <trkpt lat="46.29613" lon="4.83471">
        <ele>171.60059</ele>
        <time>2026-05-13T14:36:08+02:00</time>
        <extensions>
          <gpxtpx:TrackPointExtension xmlns:gpxtpx="http://www.garmin.com/xmlschemas/TrackPointExtension/v1">
            <gpxtpx:hr>170</gpxtpx:hr>
          </gpxtpx:TrackPointExtension>
        </extensions>
      </trkpt>
      <trkpt lat="46.29621" lon="4.83468">
        <ele>171.5</ele>
        <time>2026-05-13T14:36:09+02:00</time>
        <extensions>
          <gpxtpx:TrackPointExtension xmlns:gpxtpx="http://www.garmin.com/xmlschemas/TrackPointExtension/v1">
            <gpxtpx:hr>169</gpxtpx:hr>
          </gpxtpx:TrackPointExtension>
        </extensions>
      </trkpt>
      <trkpt lat="46.29629" lon="4.83465">
        <ele>171.2998</ele>
        <time>2026-05-13T14:36:10+02:00</time>
        <extensions>
          <gpxtpx:TrackPointExtension xmlns:gpxtpx="http://www.garmin.com/xmlschemas/TrackPointExtension/v1">
            <gpxtpx:hr>168</gpxtpx:hr>
          </gpxtpx:TrackPointExtension>
        </extensions>
      </trkpt>
      <trkpt lat="46.29637" lon="4.83463">
        <ele>171.2002</ele>
        <time>2026-05-13T14:36:11+02:00</time>
        <extensions>
          <gpxtpx:TrackPointExtension xmlns:gpxtpx="http://www.garmin.com/xmlschemas/TrackPointExtension/v1">
            <gpxtpx:hr>167</gpxtpx:hr>
          </gpxtpx:TrackPointExtension>
        </extensions>
      </trkpt>
      <trkpt lat="46.29643" lon="4.8346">
        <ele>171.10059</ele>
        <time>2026-05-13T14:36:12+02:00</time>
        <extensions>
          <gpxtpx:TrackPointExtension xmlns:gpxtpx="http://www.garmin.com/xmlschemas/TrackPointExtension/v1">
            <gpxtpx:hr>166</gpxtpx:hr>
          </gpxtpx:TrackPointExtension>
        </extensions>
      </trkpt>
      <trkpt lat="46.2965" lon="4.83458">
        <ele>171</ele>
        <time>2026-05-13T14:36:13+02:00</time>
        <extensions>
          <gpxtpx:TrackPointExtension xmlns:gpxtpx="http://www.garmin.com/xmlschemas/TrackPointExtension/v1">
            <gpxtpx:hr>165</gpxtpx:hr>
          </gpxtpx:TrackPointExtension>
        </extensions>
      </trkpt>
      <trkpt lat="46.29656" lon="4.83456">
        <ele>170.90039</ele>
        <time>2026-05-13T14:36:14+02:00</time>
        <extensions>
          <gpxtpx:TrackPointExtension xmlns:gpxtpx="http://www.garmin.com/xmlschemas/TrackPointExtension/v1">
            <gpxtpx:hr>164</gpxtpx:hr>
          </gpxtpx:TrackPointExtension>
        </extensions>
      </trkpt>
      <trkpt lat="46.29662" lon="4.83454">
        <ele>170.90039</ele>
        <time>2026-05-13T14:36:15+02:00</time>
        <extensions>
          <gpxtpx:TrackPointExtension xmlns:gpxtpx="http://www.garmin.com/xmlschemas/TrackPointExtension/v1">
            <gpxtpx:hr>164</gpxtpx:hr>
          </gpxtpx:TrackPointExtension>
        </extensions>
      </trkpt>
      <trkpt lat="46.29668" lon="4.83453">
        <ele>170.90039</ele>
        <time>2026-05-13T14:36:16+02:00</time>
        <extensions>
          <gpxtpx:TrackPointExtension xmlns:gpxtpx="http://www.garmin.com/xmlschemas/TrackPointExtension/v1">
            <gpxtpx:hr>164</gpxtpx:hr>
          </gpxtpx:TrackPointExtension>
        </extensions>
      </trkpt>
      <trkpt lat="46.29674" lon="4.83451">
        <ele>170.90039</ele>
        <time>2026-05-13T14:36:17+02:00</time>
        <extensions>
          <gpxtpx:TrackPointExtension xmlns:gpxtpx="http://www.garmin.com/xmlschemas/TrackPointExtension/v1">
            <gpxtpx:hr>165</gpxtpx:hr>
          </gpxtpx:TrackPointExtension>
        </extensions>
      </trkpt>
      <trkpt lat="46.29679" lon="4.83451">
        <ele>170.90039</ele>
        <time>2026-05-13T14:36:18+02:00</time>
        <extensions>
          <gpxtpx:TrackPointExtension xmlns:gpxtpx="http://www.garmin.com/xmlschemas/TrackPointExtension/v1">
            <gpxtpx:hr>165</gpxtpx:hr>
          </gpxtpx:TrackPointExtension>
        </extensions>
      </trkpt>
      <trkpt lat="46.29685" lon="4.8345">
        <ele>171</ele>
        <time>2026-05-13T14:36:19+02:00</time>
        <extensions>
          <gpxtpx:TrackPointExtension xmlns:gpxtpx="http://www.garmin.com/xmlschemas/TrackPointExtension/v1">
            <gpxtpx:hr>165</gpxtpx:hr>
          </gpxtpx:TrackPointExtension>
        </extensions>
      </trkpt>
      <trkpt lat="46.2969" lon="4.8345">
        <ele>171</ele>
        <time>2026-05-13T14:36:20+02:00</time>
        <extensions>
          <gpxtpx:TrackPointExtension xmlns:gpxtpx="http://www.garmin.com/xmlschemas/TrackPointExtension/v1">
            <gpxtpx:hr>166</gpxtpx:hr>
          </gpxtpx:TrackPointExtension>
        </extensions>
      </trkpt>
      <trkpt lat="46.29695" lon="4.8345">
        <ele>171</ele>
        <time>2026-05-13T14:36:21+02:00</time>
        <extensions>
          <gpxtpx:TrackPointExtension xmlns:gpxtpx="http://www.garmin.com/xmlschemas/TrackPointExtension/v1">
            <gpxtpx:hr>167</gpxtpx:hr>
          </gpxtpx:TrackPointExtension>
        </extensions>
      </trkpt>
      <trkpt lat="46.297" lon="4.83452">
        <ele>171</ele>
        <time>2026-05-13T14:36:22+02:00</time>
        <extensions>
          <gpxtpx:TrackPointExtension xmlns:gpxtpx="http://www.garmin.com/xmlschemas/TrackPointExtension/v1">
            <gpxtpx:hr>167</gpxtpx:hr>
          </gpxtpx:TrackPointExtension>
        </extensions>
      </trkpt>
      <trkpt lat="46.29704" lon="4.83456">
        <ele>171.10059</ele>
        <time>2026-05-13T14:36:23+02:00</time>
        <extensions>
          <gpxtpx:TrackPointExtension xmlns:gpxtpx="http://www.garmin.com/xmlschemas/TrackPointExtension/v1">
            <gpxtpx:hr>166</gpxtpx:hr>
          </gpxtpx:TrackPointExtension>
        </extensions>
      </trkpt>
      <trkpt lat="46.29709" lon="4.8346">
        <ele>171</ele>
        <time>2026-05-13T14:36:24+02:00</time>
        <extensions>
          <gpxtpx:TrackPointExtension xmlns:gpxtpx="http://www.garmin.com/xmlschemas/TrackPointExtension/v1">
            <gpxtpx:hr>166</gpxtpx:hr>
          </gpxtpx:TrackPointExtension>
        </extensions>
      </trkpt>
      <trkpt lat="46.29714" lon="4.83464">
        <ele>171.10059</ele>
        <time>2026-05-13T14:36:25+02:00</time>
        <extensions>
          <gpxtpx:TrackPointExtension xmlns:gpxtpx="http://www.garmin.com/xmlschemas/TrackPointExtension/v1">
            <gpxtpx:hr>167</gpxtpx:hr>
          </gpxtpx:TrackPointExtension>
        </extensions>
      </trkpt>
      <trkpt lat="46.2972" lon="4.83465">
        <ele>171.10059</ele>
        <time>2026-05-13T14:36:26+02:00</time>
        <extensions>
          <gpxtpx:TrackPointExtension xmlns:gpxtpx="http://www.garmin.com/xmlschemas/TrackPointExtension/v1">
            <gpxtpx:hr>167</gpxtpx:hr>
          </gpxtpx:TrackPointExtension>
        </extensions>
      </trkpt>
      <trkpt lat="46.29727" lon="4.83464">
        <ele>171.10059</ele>
        <time>2026-05-13T14:36:27+02:00</time>
        <extensions>
          <gpxtpx:TrackPointExtension xmlns:gpxtpx="http://www.garmin.com/xmlschemas/TrackPointExtension/v1">
            <gpxtpx:hr>167</gpxtpx:hr>
          </gpxtpx:TrackPointExtension>
        </extensions>
      </trkpt>
      <trkpt lat="46.29732" lon="4.83461">
        <ele>171.2002</ele>
        <time>2026-05-13T14:36:28+02:00</time>
        <extensions>
          <gpxtpx:TrackPointExtension xmlns:gpxtpx="http://www.garmin.com/xmlschemas/TrackPointExtension/v1">
            <gpxtpx:hr>168</gpxtpx:hr>
          </gpxtpx:TrackPointExtension>
        </extensions>
      </trkpt>
      <trkpt lat="46.29736" lon="4.83456">
        <ele>171.40039</ele>
        <time>2026-05-13T14:36:29+02:00</time>
        <extensions>
          <gpxtpx:TrackPointExtension xmlns:gpxtpx="http://www.garmin.com/xmlschemas/TrackPointExtension/v1">
            <gpxtpx:hr>167</gpxtpx:hr>
          </gpxtpx:TrackPointExtension>
        </extensions>
      </trkpt>
      <trkpt lat="46.2974" lon="4.8345">
        <ele>171.5</ele>
        <time>2026-05-13T14:36:30+02:00</time>
        <extensions>
          <gpxtpx:TrackPointExtension xmlns:gpxtpx="http://www.garmin.com/xmlschemas/TrackPointExtension/v1">
            <gpxtpx:hr>167</gpxtpx:hr>
          </gpxtpx:TrackPointExtension>
        </extensions>
      </trkpt>
      <trkpt lat="46.29743" lon="4.83443">
        <ele>171.7002</ele>
        <time>2026-05-13T14:36:31+02:00</time>
        <extensions>
          <gpxtpx:TrackPointExtension xmlns:gpxtpx="http://www.garmin.com/xmlschemas/TrackPointExtension/v1">
            <gpxtpx:hr>167</gpxtpx:hr>
          </gpxtpx:TrackPointExtension>
        </extensions>
      </trkpt>
      <trkpt lat="46.29744" lon="4.83435">
        <ele>171.90039</ele>
        <time>2026-05-13T14:36:32+02:00</time>
        <extensions>
          <gpxtpx:TrackPointExtension xmlns:gpxtpx="http://www.garmin.com/xmlschemas/TrackPointExtension/v1">
            <gpxtpx:hr>168</gpxtpx:hr>
          </gpxtpx:TrackPointExtension>
        </extensions>
      </trkpt>
      <trkpt lat="46.29744" lon="4.83427">
        <ele>172</ele>
        <time>2026-05-13T14:36:33+02:00</time>
        <extensions>
          <gpxtpx:TrackPointExtension xmlns:gpxtpx="http://www.garmin.com/xmlschemas/TrackPointExtension/v1">
            <gpxtpx:hr>169</gpxtpx:hr>
          </gpxtpx:TrackPointExtension>
        </extensions>
      </trkpt>
      <trkpt lat="46.29742" lon="4.8342">
        <ele>171.90039</ele>
        <time>2026-05-13T14:36:34+02:00</time>
        <extensions>
          <gpxtpx:TrackPointExtension xmlns:gpxtpx="http://www.garmin.com/xmlschemas/TrackPointExtension/v1">
            <gpxtpx:hr>169</gpxtpx:hr>
          </gpxtpx:TrackPointExtension>
        </extensions>
      </trkpt>
      <trkpt lat="46.2974" lon="4.83413">
        <ele>171.7998</ele>
        <time>2026-05-13T14:36:35+02:00</time>
        <extensions>
          <gpxtpx:TrackPointExtension xmlns:gpxtpx="http://www.garmin.com/xmlschemas/TrackPointExtension/v1">
            <gpxtpx:hr>169</gpxtpx:hr>
          </gpxtpx:TrackPointExtension>
        </extensions>
      </trkpt>
      <trkpt lat="46.29736" lon="4.83407">
        <ele>171.7002</ele>
        <time>2026-05-13T14:36:36+02:00</time>
        <extensions>
          <gpxtpx:TrackPointExtension xmlns:gpxtpx="http://www.garmin.com/xmlschemas/TrackPointExtension/v1">
            <gpxtpx:hr>169</gpxtpx:hr>
          </gpxtpx:TrackPointExtension>
        </extensions>
      </trkpt>
      <trkpt lat="46.29733" lon="4.83403">
        <ele>171.60059</ele>
        <time>2026-05-13T14:36:37+02:00</time>
        <extensions>
          <gpxtpx:TrackPointExtension xmlns:gpxtpx="http://www.garmin.com/xmlschemas/TrackPointExtension/v1">
            <gpxtpx:hr>170</gpxtpx:hr>
          </gpxtpx:TrackPointExtension>
        </extensions>
      </trkpt>
      <trkpt lat="46.29731" lon="4.83397">
        <ele>171.40039</ele>
        <time>2026-05-13T14:36:38+02:00</time>
        <extensions>
          <gpxtpx:TrackPointExtension xmlns:gpxtpx="http://www.garmin.com/xmlschemas/TrackPointExtension/v1">
            <gpxtpx:hr>171</gpxtpx:hr>
          </gpxtpx:TrackPointExtension>
        </extensions>
      </trkpt>
      <trkpt lat="46.2973" lon="4.8339">
        <ele>171.40039</ele>
        <time>2026-05-13T14:36:39+02:00</time>
        <extensions>
          <gpxtpx:TrackPointExtension xmlns:gpxtpx="http://www.garmin.com/xmlschemas/TrackPointExtension/v1">
            <gpxtpx:hr>172</gpxtpx:hr>
          </gpxtpx:TrackPointExtension>
        </extensions>
      </trkpt>
      <trkpt lat="46.2973" lon="4.83383">
        <ele>171.2002</ele>
        <time>2026-05-13T14:36:40+02:00</time>
        <extensions>
          <gpxtpx:TrackPointExtension xmlns:gpxtpx="http://www.garmin.com/xmlschemas/TrackPointExtension/v1">
            <gpxtpx:hr>172</gpxtpx:hr>
          </gpxtpx:TrackPointExtension>
        </extensions>
      </trkpt>
      <trkpt lat="46.2973" lon="4.83376">
        <ele>170.90039</ele>
        <time>2026-05-13T14:36:41+02:00</time>
        <extensions>
          <gpxtpx:TrackPointExtension xmlns:gpxtpx="http://www.garmin.com/xmlschemas/TrackPointExtension/v1">
            <gpxtpx:hr>171</gpxtpx:hr>
          </gpxtpx:TrackPointExtension>
        </extensions>
      </trkpt>
      <trkpt lat="46.29731" lon="4.8337">
        <ele>170.5</ele>
        <time>2026-05-13T14:36:42+02:00</time>
        <extensions>
          <gpxtpx:TrackPointExtension xmlns:gpxtpx="http://www.garmin.com/xmlschemas/TrackPointExtension/v1">
            <gpxtpx:hr>172</gpxtpx:hr>
          </gpxtpx:TrackPointExtension>
        </extensions>
      </trkpt>
      <trkpt lat="46.29731" lon="4.83363">
        <ele>170</ele>
        <time>2026-05-13T14:36:43+02:00</time>
        <extensions>
          <gpxtpx:TrackPointExtension xmlns:gpxtpx="http://www.garmin.com/xmlschemas/TrackPointExtension/v1">
            <gpxtpx:hr>172</gpxtpx:hr>
          </gpxtpx:TrackPointExtension>
        </extensions>
      </trkpt>
      <trkpt lat="46.29731" lon="4.83357">
        <ele>170</ele>
        <time>2026-05-13T14:36:44+02:00</time>
        <extensions>
          <gpxtpx:TrackPointExtension xmlns:gpxtpx="http://www.garmin.com/xmlschemas/TrackPointExtension/v1">
            <gpxtpx:hr>172</gpxtpx:hr>
          </gpxtpx:TrackPointExtension>
        </extensions>
      </trkpt>
      <trkpt lat="46.29732" lon="4.8335">
        <ele>169.60059</ele>
        <time>2026-05-13T14:36:45+02:00</time>
        <extensions>
          <gpxtpx:TrackPointExtension xmlns:gpxtpx="http://www.garmin.com/xmlschemas/TrackPointExtension/v1">
            <gpxtpx:hr>172</gpxtpx:hr>
          </gpxtpx:TrackPointExtension>
        </extensions>
      </trkpt>
      <trkpt lat="46.29732" lon="4.83343">
        <ele>169.2998</ele>
        <time>2026-05-13T14:36:46+02:00</time>
        <extensions>
          <gpxtpx:TrackPointExtension xmlns:gpxtpx="http://www.garmin.com/xmlschemas/TrackPointExtension/v1">
            <gpxtpx:hr>172</gpxtpx:hr>
          </gpxtpx:TrackPointExtension>
        </extensions>
      </trkpt>
      <trkpt lat="46.29733" lon="4.83337">
        <ele>169.10059</ele>
        <time>2026-05-13T14:36:47+02:00</time>
        <extensions>
          <gpxtpx:TrackPointExtension xmlns:gpxtpx="http://www.garmin.com/xmlschemas/TrackPointExtension/v1">
            <gpxtpx:hr>173</gpxtpx:hr>
          </gpxtpx:TrackPointExtension>
        </extensions>
      </trkpt>
      <trkpt lat="46.29733" lon="4.8333">
        <ele>169.10059</ele>
        <time>2026-05-13T14:36:48+02:00</time>
        <extensions>
          <gpxtpx:TrackPointExtension xmlns:gpxtpx="http://www.garmin.com/xmlschemas/TrackPointExtension/v1">
            <gpxtpx:hr>173</gpxtpx:hr>
          </gpxtpx:TrackPointExtension>
        </extensions>
      </trkpt>
      <trkpt lat="46.29734" lon="4.83323">
        <ele>168.90039</ele>
        <time>2026-05-13T14:36:49+02:00</time>
        <extensions>
          <gpxtpx:TrackPointExtension xmlns:gpxtpx="http://www.garmin.com/xmlschemas/TrackPointExtension/v1">
            <gpxtpx:hr>174</gpxtpx:hr>
          </gpxtpx:TrackPointExtension>
        </extensions>
      </trkpt>
      <trkpt lat="46.29735" lon="4.83317">
        <ele>168.7998</ele>
        <time>2026-05-13T14:36:50+02:00</time>
        <extensions>
          <gpxtpx:TrackPointExtension xmlns:gpxtpx="http://www.garmin.com/xmlschemas/TrackPointExtension/v1">
            <gpxtpx:hr>175</gpxtpx:hr>
          </gpxtpx:TrackPointExtension>
        </extensions>
      </trkpt>
      <trkpt lat="46.29735" lon="4.83311">
        <ele>168.60059</ele>
        <time>2026-05-13T14:36:51+02:00</time>
        <extensions>
          <gpxtpx:TrackPointExtension xmlns:gpxtpx="http://www.garmin.com/xmlschemas/TrackPointExtension/v1">
            <gpxtpx:hr>175</gpxtpx:hr>
          </gpxtpx:TrackPointExtension>
        </extensions>
      </trkpt>
      <trkpt lat="46.29736" lon="4.83306">
        <ele>168.60059</ele>
        <time>2026-05-13T14:36:52+02:00</time>
        <extensions>
          <gpxtpx:TrackPointExtension xmlns:gpxtpx="http://www.garmin.com/xmlschemas/TrackPointExtension/v1">
            <gpxtpx:hr>175</gpxtpx:hr>
          </gpxtpx:TrackPointExtension>
        </extensions>
      </trkpt>
      <trkpt lat="46.29736" lon="4.83301">
        <ele>168.5</ele>
        <time>2026-05-13T14:36:53+02:00</time>
        <extensions>
          <gpxtpx:TrackPointExtension xmlns:gpxtpx="http://www.garmin.com/xmlschemas/TrackPointExtension/v1">
            <gpxtpx:hr>176</gpxtpx:hr>
          </gpxtpx:TrackPointExtension>
        </extensions>
      </trkpt>
      <trkpt lat="46.29736" lon="4.83297">
        <ele>168.5</ele>
        <time>2026-05-13T14:36:54+02:00</time>
        <extensions>
          <gpxtpx:TrackPointExtension xmlns:gpxtpx="http://www.garmin.com/xmlschemas/TrackPointExtension/v1">
            <gpxtpx:hr>177</gpxtpx:hr>
          </gpxtpx:TrackPointExtension>
        </extensions>
      </trkpt>
      <trkpt lat="46.29737" lon="4.83295">
        <ele>168.40039</ele>
        <time>2026-05-13T14:36:55+02:00</time>
        <extensions>
          <gpxtpx:TrackPointExtension xmlns:gpxtpx="http://www.garmin.com/xmlschemas/TrackPointExtension/v1">
            <gpxtpx:hr>177</gpxtpx:hr>
          </gpxtpx:TrackPointExtension>
        </extensions>
      </trkpt>
      <trkpt lat="46.29736" lon="4.83293">
        <ele>168.40039</ele>
        <time>2026-05-13T14:36:56+02:00</time>
        <extensions>
          <gpxtpx:TrackPointExtension xmlns:gpxtpx="http://www.garmin.com/xmlschemas/TrackPointExtension/v1">
            <gpxtpx:hr>177</gpxtpx:hr>
          </gpxtpx:TrackPointExtension>
        </extensions>
      </trkpt>
      <trkpt lat="46.29737" lon="4.83292">
        <ele>168.40039</ele>
        <time>2026-05-13T14:36:57+02:00</time>
        <extensions>
          <gpxtpx:TrackPointExtension xmlns:gpxtpx="http://www.garmin.com/xmlschemas/TrackPointExtension/v1">
            <gpxtpx:hr>177</gpxtpx:hr>
          </gpxtpx:TrackPointExtension>
        </extensions>
      </trkpt>
      <trkpt lat="46.29737" lon="4.83292">
        <ele>168.40039</ele>
        <time>2026-05-13T14:36:58+02:00</time>
        <extensions>
          <gpxtpx:TrackPointExtension xmlns:gpxtpx="http://www.garmin.com/xmlschemas/TrackPointExtension/v1">
            <gpxtpx:hr>177</gpxtpx:hr>
          </gpxtpx:TrackPointExtension>
        </extensions>
      </trkpt>
      <trkpt lat="46.29737" lon="4.83292">
        <ele>168.40039</ele>
        <time>2026-05-13T14:36:59+02:00</time>
        <extensions>
          <gpxtpx:TrackPointExtension xmlns:gpxtpx="http://www.garmin.com/xmlschemas/TrackPointExtension/v1">
            <gpxtpx:hr>177</gpxtpx:hr>
          </gpxtpx:TrackPointExtension>
        </extensions>
      </trkpt>
      <trkpt lat="46.29737" lon="4.83292">
        <ele>168.40039</ele>
        <time>2026-05-13T14:37:00+02:00</time>
        <extensions>
          <gpxtpx:TrackPointExtension xmlns:gpxtpx="http://www.garmin.com/xmlschemas/TrackPointExtension/v1">
            <gpxtpx:hr>177</gpxtpx:hr>
          </gpxtpx:TrackPointExtension>
        </extensions>
      </trkpt>
      <trkpt lat="46.29739" lon="4.83264">
        <ele>168.2998</ele>
        <time>2026-05-13T14:38:11+02:00</time>
        <extensions>
          <gpxtpx:TrackPointExtension xmlns:gpxtpx="http://www.garmin.com/xmlschemas/TrackPointExtension/v1">
            <gpxtpx:hr>156</gpxtpx:hr>
          </gpxtpx:TrackPointExtension>
        </extensions>
      </trkpt>
      <trkpt lat="46.2974" lon="4.8326">
        <ele>168.2998</ele>
        <time>2026-05-13T14:38:12+02:00</time>
        <extensions>
          <gpxtpx:TrackPointExtension xmlns:gpxtpx="http://www.garmin.com/xmlschemas/TrackPointExtension/v1">
            <gpxtpx:hr>155</gpxtpx:hr>
          </gpxtpx:TrackPointExtension>
        </extensions>
      </trkpt>
      <trkpt lat="46.2974" lon="4.83255">
        <ele>168.2998</ele>
        <time>2026-05-13T14:38:13+02:00</time>
        <extensions>
          <gpxtpx:TrackPointExtension xmlns:gpxtpx="http://www.garmin.com/xmlschemas/TrackPointExtension/v1">
            <gpxtpx:hr>154</gpxtpx:hr>
          </gpxtpx:TrackPointExtension>
        </extensions>
      </trkpt>
      <trkpt lat="46.29741" lon="4.8325">
        <ele>168.2998</ele>
        <time>2026-05-13T14:38:14+02:00</time>
        <extensions>
          <gpxtpx:TrackPointExtension xmlns:gpxtpx="http://www.garmin.com/xmlschemas/TrackPointExtension/v1">
            <gpxtpx:hr>155</gpxtpx:hr>
          </gpxtpx:TrackPointExtension>
        </extensions>
      </trkpt>
      <trkpt lat="46.29741" lon="4.83245">
        <ele>168.2998</ele>
        <time>2026-05-13T14:38:15+02:00</time>
        <extensions>
          <gpxtpx:TrackPointExtension xmlns:gpxtpx="http://www.garmin.com/xmlschemas/TrackPointExtension/v1">
            <gpxtpx:hr>156</gpxtpx:hr>
          </gpxtpx:TrackPointExtension>
        </extensions>
      </trkpt>
      <trkpt lat="46.29741" lon="4.83239">
        <ele>168.2998</ele>
        <time>2026-05-13T14:38:16+02:00</time>
        <extensions>
          <gpxtpx:TrackPointExtension xmlns:gpxtpx="http://www.garmin.com/xmlschemas/TrackPointExtension/v1">
            <gpxtpx:hr>156</gpxtpx:hr>
          </gpxtpx:TrackPointExtension>
        </extensions>
      </trkpt>
      <trkpt lat="46.29742" lon="4.83233">
        <ele>168.2998</ele>
        <time>2026-05-13T14:38:17+02:00</time>
        <extensions>
          <gpxtpx:TrackPointExtension xmlns:gpxtpx="http://www.garmin.com/xmlschemas/TrackPointExtension/v1">
            <gpxtpx:hr>157</gpxtpx:hr>
          </gpxtpx:TrackPointExtension>
        </extensions>
      </trkpt>
      <trkpt lat="46.29743" lon="4.83228">
        <ele>168.2998</ele>
        <time>2026-05-13T14:38:18+02:00</time>
        <extensions>
          <gpxtpx:TrackPointExtension xmlns:gpxtpx="http://www.garmin.com/xmlschemas/TrackPointExtension/v1">
            <gpxtpx:hr>157</gpxtpx:hr>
          </gpxtpx:TrackPointExtension>
        </extensions>
      </trkpt>
      <trkpt lat="46.29743" lon="4.83221">
        <ele>168.2998</ele>
        <time>2026-05-13T14:38:19+02:00</time>
        <extensions>
          <gpxtpx:TrackPointExtension xmlns:gpxtpx="http://www.garmin.com/xmlschemas/TrackPointExtension/v1">
            <gpxtpx:hr>158</gpxtpx:hr>
          </gpxtpx:TrackPointExtension>
        </extensions>
      </trkpt>
      <trkpt lat="46.29744" lon="4.83215">
        <ele>168.2998</ele>
        <time>2026-05-13T14:38:20+02:00</time>
        <extensions>
          <gpxtpx:TrackPointExtension xmlns:gpxtpx="http://www.garmin.com/xmlschemas/TrackPointExtension/v1">
            <gpxtpx:hr>158</gpxtpx:hr>
          </gpxtpx:TrackPointExtension>
        </extensions>
      </trkpt>
      <trkpt lat="46.29744" lon="4.83209">
        <ele>168.2998</ele>
        <time>2026-05-13T14:38:21+02:00</time>
        <extensions>
          <gpxtpx:TrackPointExtension xmlns:gpxtpx="http://www.garmin.com/xmlschemas/TrackPointExtension/v1">
            <gpxtpx:hr>158</gpxtpx:hr>
          </gpxtpx:TrackPointExtension>
        </extensions>
      </trkpt>
      <trkpt lat="46.29744" lon="4.83203">
        <ele>168.2998</ele>
        <time>2026-05-13T14:38:22+02:00</time>
        <extensions>
          <gpxtpx:TrackPointExtension xmlns:gpxtpx="http://www.garmin.com/xmlschemas/TrackPointExtension/v1">
            <gpxtpx:hr>159</gpxtpx:hr>
          </gpxtpx:TrackPointExtension>
        </extensions>
      </trkpt>
      <trkpt lat="46.29745" lon="4.83197">
        <ele>168.2998</ele>
        <time>2026-05-13T14:38:23+02:00</time>
        <extensions>
          <gpxtpx:TrackPointExtension xmlns:gpxtpx="http://www.garmin.com/xmlschemas/TrackPointExtension/v1">
            <gpxtpx:hr>158</gpxtpx:hr>
          </gpxtpx:TrackPointExtension>
        </extensions>
      </trkpt>
      <trkpt lat="46.29746" lon="4.83191">
        <ele>168.2998</ele>
        <time>2026-05-13T14:38:24+02:00</time>
        <extensions>
          <gpxtpx:TrackPointExtension xmlns:gpxtpx="http://www.garmin.com/xmlschemas/TrackPointExtension/v1">
            <gpxtpx:hr>158</gpxtpx:hr>
          </gpxtpx:TrackPointExtension>
        </extensions>
      </trkpt>
      <trkpt lat="46.29746" lon="4.83184">
        <ele>168.2998</ele>
        <time>2026-05-13T14:38:25+02:00</time>
        <extensions>
          <gpxtpx:TrackPointExtension xmlns:gpxtpx="http://www.garmin.com/xmlschemas/TrackPointExtension/v1">
            <gpxtpx:hr>158</gpxtpx:hr>
          </gpxtpx:TrackPointExtension>
        </extensions>
      </trkpt>
      <trkpt lat="46.29747" lon="4.83177">
        <ele>168.2998</ele>
        <time>2026-05-13T14:38:26+02:00</time>
        <extensions>
          <gpxtpx:TrackPointExtension xmlns:gpxtpx="http://www.garmin.com/xmlschemas/TrackPointExtension/v1">
            <gpxtpx:hr>159</gpxtpx:hr>
          </gpxtpx:TrackPointExtension>
        </extensions>
      </trkpt>
      <trkpt lat="46.29748" lon="4.8317">
        <ele>168.2998</ele>
        <time>2026-05-13T14:38:27+02:00</time>
        <extensions>
          <gpxtpx:TrackPointExtension xmlns:gpxtpx="http://www.garmin.com/xmlschemas/TrackPointExtension/v1">
            <gpxtpx:hr>159</gpxtpx:hr>
          </gpxtpx:TrackPointExtension>
        </extensions>
      </trkpt>
      <trkpt lat="46.29748" lon="4.83163">
        <ele>168.2998</ele>
        <time>2026-05-13T14:38:28+02:00</time>
        <extensions>
          <gpxtpx:TrackPointExtension xmlns:gpxtpx="http://www.garmin.com/xmlschemas/TrackPointExtension/v1">
            <gpxtpx:hr>159</gpxtpx:hr>
          </gpxtpx:TrackPointExtension>
        </extensions>
      </trkpt>
      <trkpt lat="46.29749" lon="4.83156">
        <ele>168.2998</ele>
        <time>2026-05-13T14:38:29+02:00</time>
        <extensions>
          <gpxtpx:TrackPointExtension xmlns:gpxtpx="http://www.garmin.com/xmlschemas/TrackPointExtension/v1">
            <gpxtpx:hr>160</gpxtpx:hr>
          </gpxtpx:TrackPointExtension>
        </extensions>
      </trkpt>
      <trkpt lat="46.29749" lon="4.83149">
        <ele>168.2998</ele>
        <time>2026-05-13T14:38:30+02:00</time>
        <extensions>
          <gpxtpx:TrackPointExtension xmlns:gpxtpx="http://www.garmin.com/xmlschemas/TrackPointExtension/v1">
            <gpxtpx:hr>160</gpxtpx:hr>
          </gpxtpx:TrackPointExtension>
        </extensions>
      </trkpt>
      <trkpt lat="46.2975" lon="4.83141">
        <ele>168.2998</ele>
        <time>2026-05-13T14:38:31+02:00</time>
        <extensions>
          <gpxtpx:TrackPointExtension xmlns:gpxtpx="http://www.garmin.com/xmlschemas/TrackPointExtension/v1">
            <gpxtpx:hr>160</gpxtpx:hr>
          </gpxtpx:TrackPointExtension>
        </extensions>
      </trkpt>
      <trkpt lat="46.29751" lon="4.83133">
        <ele>168.2998</ele>
        <time>2026-05-13T14:38:32+02:00</time>
        <extensions>
          <gpxtpx:TrackPointExtension xmlns:gpxtpx="http://www.garmin.com/xmlschemas/TrackPointExtension/v1">
            <gpxtpx:hr>161</gpxtpx:hr>
          </gpxtpx:TrackPointExtension>
        </extensions>
      </trkpt>
      <trkpt lat="46.29751" lon="4.83125">
        <ele>168.2998</ele>
        <time>2026-05-13T14:38:33+02:00</time>
        <extensions>
          <gpxtpx:TrackPointExtension xmlns:gpxtpx="http://www.garmin.com/xmlschemas/TrackPointExtension/v1">
            <gpxtpx:hr>161</gpxtpx:hr>
          </gpxtpx:TrackPointExtension>
        </extensions>
      </trkpt>
      <trkpt lat="46.29752" lon="4.83116">
        <ele>168.2998</ele>
        <time>2026-05-13T14:38:34+02:00</time>
        <extensions>
          <gpxtpx:TrackPointExtension xmlns:gpxtpx="http://www.garmin.com/xmlschemas/TrackPointExtension/v1">
            <gpxtpx:hr>160</gpxtpx:hr>
          </gpxtpx:TrackPointExtension>
        </extensions>
      </trkpt>
      <trkpt lat="46.29753" lon="4.83107">
        <ele>168.2998</ele>
        <time>2026-05-13T14:38:35+02:00</time>
        <extensions>
          <gpxtpx:TrackPointExtension xmlns:gpxtpx="http://www.garmin.com/xmlschemas/TrackPointExtension/v1">
            <gpxtpx:hr>159</gpxtpx:hr>
          </gpxtpx:TrackPointExtension>
        </extensions>
      </trkpt>
      <trkpt lat="46.29754" lon="4.83098">
        <ele>168.2998</ele>
        <time>2026-05-13T14:38:36+02:00</time>
        <extensions>
          <gpxtpx:TrackPointExtension xmlns:gpxtpx="http://www.garmin.com/xmlschemas/TrackPointExtension/v1">
            <gpxtpx:hr>159</gpxtpx:hr>
          </gpxtpx:TrackPointExtension>
        </extensions>
      </trkpt>
      <trkpt lat="46.29754" lon="4.8309">
        <ele>168.2998</ele>
        <time>2026-05-13T14:38:37+02:00</time>
        <extensions>
          <gpxtpx:TrackPointExtension xmlns:gpxtpx="http://www.garmin.com/xmlschemas/TrackPointExtension/v1">
            <gpxtpx:hr>158</gpxtpx:hr>
          </gpxtpx:TrackPointExtension>
        </extensions>
      </trkpt>
      <trkpt lat="46.29755" lon="4.83081">
        <ele>168.2998</ele>
        <time>2026-05-13T14:38:38+02:00</time>
        <extensions>
          <gpxtpx:TrackPointExtension xmlns:gpxtpx="http://www.garmin.com/xmlschemas/TrackPointExtension/v1">
            <gpxtpx:hr>157</gpxtpx:hr>
          </gpxtpx:TrackPointExtension>
        </extensions>
      </trkpt>
      <trkpt lat="46.29756" lon="4.83074">
        <ele>168.10059</ele>
        <time>2026-05-13T14:38:39+02:00</time>
        <extensions>
          <gpxtpx:TrackPointExtension xmlns:gpxtpx="http://www.garmin.com/xmlschemas/TrackPointExtension/v1">
            <gpxtpx:hr>156</gpxtpx:hr>
          </gpxtpx:TrackPointExtension>
        </extensions>
      </trkpt>
      <trkpt lat="46.29756" lon="4.83066">
        <ele>167.7002</ele>
        <time>2026-05-13T14:38:40+02:00</time>
        <extensions>
          <gpxtpx:TrackPointExtension xmlns:gpxtpx="http://www.garmin.com/xmlschemas/TrackPointExtension/v1">
            <gpxtpx:hr>154</gpxtpx:hr>
          </gpxtpx:TrackPointExtension>
        </extensions>
      </trkpt>
      <trkpt lat="46.29757" lon="4.83059">
        <ele>167.7002</ele>
        <time>2026-05-13T14:38:41+02:00</time>
        <extensions>
          <gpxtpx:TrackPointExtension xmlns:gpxtpx="http://www.garmin.com/xmlschemas/TrackPointExtension/v1">
            <gpxtpx:hr>153</gpxtpx:hr>
          </gpxtpx:TrackPointExtension>
        </extensions>
      </trkpt>
      <trkpt lat="46.29759" lon="4.83053">
        <ele>168.2002</ele>
        <time>2026-05-13T14:38:42+02:00</time>
        <extensions>
          <gpxtpx:TrackPointExtension xmlns:gpxtpx="http://www.garmin.com/xmlschemas/TrackPointExtension/v1">
            <gpxtpx:hr>152</gpxtpx:hr>
          </gpxtpx:TrackPointExtension>
        </extensions>
      </trkpt>
      <trkpt lat="46.2976" lon="4.83048">
        <ele>168.2002</ele>
        <time>2026-05-13T14:38:43+02:00</time>
        <extensions>
          <gpxtpx:TrackPointExtension xmlns:gpxtpx="http://www.garmin.com/xmlschemas/TrackPointExtension/v1">
            <gpxtpx:hr>152</gpxtpx:hr>
          </gpxtpx:TrackPointExtension>
        </extensions>
      </trkpt>
      <trkpt lat="46.29764" lon="4.83044">
        <ele>169.2002</ele>
        <time>2026-05-13T14:38:44+02:00</time>
        <extensions>
          <gpxtpx:TrackPointExtension xmlns:gpxtpx="http://www.garmin.com/xmlschemas/TrackPointExtension/v1">
            <gpxtpx:hr>150</gpxtpx:hr>
          </gpxtpx:TrackPointExtension>
        </extensions>
      </trkpt>
      <trkpt lat="46.29767" lon="4.83042">
        <ele>169.2002</ele>
        <time>2026-05-13T14:38:45+02:00</time>
        <extensions>
          <gpxtpx:TrackPointExtension xmlns:gpxtpx="http://www.garmin.com/xmlschemas/TrackPointExtension/v1">
            <gpxtpx:hr>150</gpxtpx:hr>
          </gpxtpx:TrackPointExtension>
        </extensions>
      </trkpt>
      <trkpt lat="46.2977" lon="4.83042">
        <ele>168.90039</ele>
        <time>2026-05-13T14:38:46+02:00</time>
        <extensions>
          <gpxtpx:TrackPointExtension xmlns:gpxtpx="http://www.garmin.com/xmlschemas/TrackPointExtension/v1">
            <gpxtpx:hr>149</gpxtpx:hr>
          </gpxtpx:TrackPointExtension>
        </extensions>
      </trkpt>
      <trkpt lat="46.29773" lon="4.83043">
        <ele>168.90039</ele>
        <time>2026-05-13T14:38:47+02:00</time>
        <extensions>
          <gpxtpx:TrackPointExtension xmlns:gpxtpx="http://www.garmin.com/xmlschemas/TrackPointExtension/v1">
            <gpxtpx:hr>149</gpxtpx:hr>
          </gpxtpx:TrackPointExtension>
        </extensions>
      </trkpt>
      <trkpt lat="46.29775" lon="4.83044">
        <ele>169.2998</ele>
        <time>2026-05-13T14:38:48+02:00</time>
        <extensions>
          <gpxtpx:TrackPointExtension xmlns:gpxtpx="http://www.garmin.com/xmlschemas/TrackPointExtension/v1">
            <gpxtpx:hr>148</gpxtpx:hr>
          </gpxtpx:TrackPointExtension>
        </extensions>
      </trkpt>
      <trkpt lat="46.29778" lon="4.83045">
        <ele>169.2998</ele>
        <time>2026-05-13T14:38:49+02:00</time>
        <extensions>
          <gpxtpx:TrackPointExtension xmlns:gpxtpx="http://www.garmin.com/xmlschemas/TrackPointExtension/v1">
            <gpxtpx:hr>147</gpxtpx:hr>
          </gpxtpx:TrackPointExtension>
        </extensions>
      </trkpt>
      <trkpt lat="46.29781" lon="4.83047">
        <ele>169.90039</ele>
        <time>2026-05-13T14:38:50+02:00</time>
        <extensions>
          <gpxtpx:TrackPointExtension xmlns:gpxtpx="http://www.garmin.com/xmlschemas/TrackPointExtension/v1">
            <gpxtpx:hr>148</gpxtpx:hr>
          </gpxtpx:TrackPointExtension>
        </extensions>
      </trkpt>
      <trkpt lat="46.29784" lon="4.83049">
        <ele>169.90039</ele>
        <time>2026-05-13T14:38:51+02:00</time>
        <extensions>
          <gpxtpx:TrackPointExtension xmlns:gpxtpx="http://www.garmin.com/xmlschemas/TrackPointExtension/v1">
            <gpxtpx:hr>149</gpxtpx:hr>
          </gpxtpx:TrackPointExtension>
        </extensions>
      </trkpt>
      <trkpt lat="46.29788" lon="4.83051">
        <ele>172.2998</ele>
        <time>2026-05-13T14:38:52+02:00</time>
        <extensions>
          <gpxtpx:TrackPointExtension xmlns:gpxtpx="http://www.garmin.com/xmlschemas/TrackPointExtension/v1">
            <gpxtpx:hr>149</gpxtpx:hr>
          </gpxtpx:TrackPointExtension>
        </extensions>
      </trkpt>
      <trkpt lat="46.29792" lon="4.83053">
        <ele>174.2998</ele>
        <time>2026-05-13T14:38:53+02:00</time>
        <extensions>
          <gpxtpx:TrackPointExtension xmlns:gpxtpx="http://www.garmin.com/xmlschemas/TrackPointExtension/v1">
            <gpxtpx:hr>150</gpxtpx:hr>
          </gpxtpx:TrackPointExtension>
        </extensions>
      </trkpt>
      <trkpt lat="46.29796" lon="4.83056">
        <ele>172.7002</ele>
        <time>2026-05-13T14:38:54+02:00</time>
        <extensions>
          <gpxtpx:TrackPointExtension xmlns:gpxtpx="http://www.garmin.com/xmlschemas/TrackPointExtension/v1">
            <gpxtpx:hr>151</gpxtpx:hr>
          </gpxtpx:TrackPointExtension>
        </extensions>
      </trkpt>
      <trkpt lat="46.29801" lon="4.83057">
        <ele>173</ele>
        <time>2026-05-13T14:38:55+02:00</time>
        <extensions>
          <gpxtpx:TrackPointExtension xmlns:gpxtpx="http://www.garmin.com/xmlschemas/TrackPointExtension/v1">
            <gpxtpx:hr>151</gpxtpx:hr>
          </gpxtpx:TrackPointExtension>
        </extensions>
      </trkpt>
      <trkpt lat="46.29806" lon="4.83059">
        <ele>172.2998</ele>
        <time>2026-05-13T14:38:56+02:00</time>
        <extensions>
          <gpxtpx:TrackPointExtension xmlns:gpxtpx="http://www.garmin.com/xmlschemas/TrackPointExtension/v1">
            <gpxtpx:hr>152</gpxtpx:hr>
          </gpxtpx:TrackPointExtension>
        </extensions>
      </trkpt>
      <trkpt lat="46.2981" lon="4.83061">
        <ele>171.2998</ele>
        <time>2026-05-13T14:38:57+02:00</time>
        <extensions>
          <gpxtpx:TrackPointExtension xmlns:gpxtpx="http://www.garmin.com/xmlschemas/TrackPointExtension/v1">
            <gpxtpx:hr>153</gpxtpx:hr>
          </gpxtpx:TrackPointExtension>
        </extensions>
      </trkpt>
      <trkpt lat="46.29816" lon="4.83063">
        <ele>170.5</ele>
        <time>2026-05-13T14:38:58+02:00</time>
        <extensions>
          <gpxtpx:TrackPointExtension xmlns:gpxtpx="http://www.garmin.com/xmlschemas/TrackPointExtension/v1">
            <gpxtpx:hr>154</gpxtpx:hr>
          </gpxtpx:TrackPointExtension>
        </extensions>
      </trkpt>
      <trkpt lat="46.29822" lon="4.83065">
        <ele>169</ele>
        <time>2026-05-13T14:38:59+02:00</time>
        <extensions>
          <gpxtpx:TrackPointExtension xmlns:gpxtpx="http://www.garmin.com/xmlschemas/TrackPointExtension/v1">
            <gpxtpx:hr>154</gpxtpx:hr>
          </gpxtpx:TrackPointExtension>
        </extensions>
      </trkpt>
      <trkpt lat="46.29826" lon="4.83067">
        <ele>169</ele>
        <time>2026-05-13T14:39:00+02:00</time>
        <extensions>
          <gpxtpx:TrackPointExtension xmlns:gpxtpx="http://www.garmin.com/xmlschemas/TrackPointExtension/v1">
            <gpxtpx:hr>153</gpxtpx:hr>
          </gpxtpx:TrackPointExtension>
        </extensions>
      </trkpt>
      <trkpt lat="46.29832" lon="4.8307">
        <ele>168.7002</ele>
        <time>2026-05-13T14:39:01+02:00</time>
        <extensions>
          <gpxtpx:TrackPointExtension xmlns:gpxtpx="http://www.garmin.com/xmlschemas/TrackPointExtension/v1">
            <gpxtpx:hr>154</gpxtpx:hr>
          </gpxtpx:TrackPointExtension>
        </extensions>
      </trkpt>
      <trkpt lat="46.29837" lon="4.83073">
        <ele>167.7002</ele>
        <time>2026-05-13T14:39:02+02:00</time>
        <extensions>
          <gpxtpx:TrackPointExtension xmlns:gpxtpx="http://www.garmin.com/xmlschemas/TrackPointExtension/v1">
            <gpxtpx:hr>154</gpxtpx:hr>
          </gpxtpx:TrackPointExtension>
        </extensions>
      </trkpt>
      <trkpt lat="46.29842" lon="4.83075">
        <ele>168</ele>
        <time>2026-05-13T14:39:03+02:00</time>
        <extensions>
          <gpxtpx:TrackPointExtension xmlns:gpxtpx="http://www.garmin.com/xmlschemas/TrackPointExtension/v1">
            <gpxtpx:hr>153</gpxtpx:hr>
          </gpxtpx:TrackPointExtension>
        </extensions>
      </trkpt>
      <trkpt lat="46.29847" lon="4.83078">
        <ele>168.90039</ele>
        <time>2026-05-13T14:39:04+02:00</time>
        <extensions>
          <gpxtpx:TrackPointExtension xmlns:gpxtpx="http://www.garmin.com/xmlschemas/TrackPointExtension/v1">
            <gpxtpx:hr>153</gpxtpx:hr>
          </gpxtpx:TrackPointExtension>
        </extensions>
      </trkpt>
      <trkpt lat="46.29852" lon="4.83081">
        <ele>170.2002</ele>
        <time>2026-05-13T14:39:05+02:00</time>
        <extensions>
          <gpxtpx:TrackPointExtension xmlns:gpxtpx="http://www.garmin.com/xmlschemas/TrackPointExtension/v1">
            <gpxtpx:hr>154</gpxtpx:hr>
          </gpxtpx:TrackPointExtension>
        </extensions>
      </trkpt>
      <trkpt lat="46.29858" lon="4.83083">
        <ele>172.60059</ele>
        <time>2026-05-13T14:39:06+02:00</time>
        <extensions>
          <gpxtpx:TrackPointExtension xmlns:gpxtpx="http://www.garmin.com/xmlschemas/TrackPointExtension/v1">
            <gpxtpx:hr>154</gpxtpx:hr>
          </gpxtpx:TrackPointExtension>
        </extensions>
      </trkpt>
      <trkpt lat="46.29863" lon="4.83086">
        <ele>174.10059</ele>
        <time>2026-05-13T14:39:07+02:00</time>
        <extensions>
          <gpxtpx:TrackPointExtension xmlns:gpxtpx="http://www.garmin.com/xmlschemas/TrackPointExtension/v1">
            <gpxtpx:hr>154</gpxtpx:hr>
          </gpxtpx:TrackPointExtension>
        </extensions>
      </trkpt>
      <trkpt lat="46.29868" lon="4.83089">
        <ele>174.10059</ele>
        <time>2026-05-13T14:39:08+02:00</time>
        <extensions>
          <gpxtpx:TrackPointExtension xmlns:gpxtpx="http://www.garmin.com/xmlschemas/TrackPointExtension/v1">
            <gpxtpx:hr>155</gpxtpx:hr>
          </gpxtpx:TrackPointExtension>
        </extensions>
      </trkpt>
      <trkpt lat="46.29873" lon="4.83092">
        <ele>171.2002</ele>
        <time>2026-05-13T14:39:09+02:00</time>
        <extensions>
          <gpxtpx:TrackPointExtension xmlns:gpxtpx="http://www.garmin.com/xmlschemas/TrackPointExtension/v1">
            <gpxtpx:hr>155</gpxtpx:hr>
          </gpxtpx:TrackPointExtension>
        </extensions>
      </trkpt>
      <trkpt lat="46.29878" lon="4.83095">
        <ele>170.5</ele>
        <time>2026-05-13T14:39:10+02:00</time>
        <extensions>
          <gpxtpx:TrackPointExtension xmlns:gpxtpx="http://www.garmin.com/xmlschemas/TrackPointExtension/v1">
            <gpxtpx:hr>156</gpxtpx:hr>
          </gpxtpx:TrackPointExtension>
        </extensions>
      </trkpt>
      <trkpt lat="46.29882" lon="4.83097">
        <ele>169.7002</ele>
        <time>2026-05-13T14:39:11+02:00</time>
        <extensions>
          <gpxtpx:TrackPointExtension xmlns:gpxtpx="http://www.garmin.com/xmlschemas/TrackPointExtension/v1">
            <gpxtpx:hr>156</gpxtpx:hr>
          </gpxtpx:TrackPointExtension>
        </extensions>
      </trkpt>
      <trkpt lat="46.29887" lon="4.831">
        <ele>168.2998</ele>
        <time>2026-05-13T14:39:12+02:00</time>
        <extensions>
          <gpxtpx:TrackPointExtension xmlns:gpxtpx="http://www.garmin.com/xmlschemas/TrackPointExtension/v1">
            <gpxtpx:hr>155</gpxtpx:hr>
          </gpxtpx:TrackPointExtension>
        </extensions>
      </trkpt>
      <trkpt lat="46.29891" lon="4.83103">
        <ele>168.2998</ele>
        <time>2026-05-13T14:39:13+02:00</time>
        <extensions>
          <gpxtpx:TrackPointExtension xmlns:gpxtpx="http://www.garmin.com/xmlschemas/TrackPointExtension/v1">
            <gpxtpx:hr>155</gpxtpx:hr>
          </gpxtpx:TrackPointExtension>
        </extensions>
      </trkpt>
      <trkpt lat="46.29895" lon="4.83106">
        <ele>169.2998</ele>
        <time>2026-05-13T14:39:14+02:00</time>
        <extensions>
          <gpxtpx:TrackPointExtension xmlns:gpxtpx="http://www.garmin.com/xmlschemas/TrackPointExtension/v1">
            <gpxtpx:hr>155</gpxtpx:hr>
          </gpxtpx:TrackPointExtension>
        </extensions>
      </trkpt>
      <trkpt lat="46.29898" lon="4.8311">
        <ele>171.2002</ele>
        <time>2026-05-13T14:39:15+02:00</time>
        <extensions>
          <gpxtpx:TrackPointExtension xmlns:gpxtpx="http://www.garmin.com/xmlschemas/TrackPointExtension/v1">
            <gpxtpx:hr>155</gpxtpx:hr>
          </gpxtpx:TrackPointExtension>
        </extensions>
      </trkpt>
      <trkpt lat="46.29902" lon="4.83113">
        <ele>171.2002</ele>
        <time>2026-05-13T14:39:16+02:00</time>
        <extensions>
          <gpxtpx:TrackPointExtension xmlns:gpxtpx="http://www.garmin.com/xmlschemas/TrackPointExtension/v1">
            <gpxtpx:hr>154</gpxtpx:hr>
          </gpxtpx:TrackPointExtension>
        </extensions>
      </trkpt>
      <trkpt lat="46.29907" lon="4.83116">
        <ele>171.40039</ele>
        <time>2026-05-13T14:39:17+02:00</time>
        <extensions>
          <gpxtpx:TrackPointExtension xmlns:gpxtpx="http://www.garmin.com/xmlschemas/TrackPointExtension/v1">
            <gpxtpx:hr>153</gpxtpx:hr>
          </gpxtpx:TrackPointExtension>
        </extensions>
      </trkpt>
      <trkpt lat="46.29911" lon="4.83119">
        <ele>172.2998</ele>
        <time>2026-05-13T14:39:18+02:00</time>
        <extensions>
          <gpxtpx:TrackPointExtension xmlns:gpxtpx="http://www.garmin.com/xmlschemas/TrackPointExtension/v1">
            <gpxtpx:hr>154</gpxtpx:hr>
          </gpxtpx:TrackPointExtension>
        </extensions>
      </trkpt>
      <trkpt lat="46.29916" lon="4.83123">
        <ele>172.10059</ele>
        <time>2026-05-13T14:39:19+02:00</time>
        <extensions>
          <gpxtpx:TrackPointExtension xmlns:gpxtpx="http://www.garmin.com/xmlschemas/TrackPointExtension/v1">
            <gpxtpx:hr>155</gpxtpx:hr>
          </gpxtpx:TrackPointExtension>
        </extensions>
      </trkpt>
      <trkpt lat="46.29921" lon="4.83126">
        <ele>169.2998</ele>
        <time>2026-05-13T14:39:20+02:00</time>
        <extensions>
          <gpxtpx:TrackPointExtension xmlns:gpxtpx="http://www.garmin.com/xmlschemas/TrackPointExtension/v1">
            <gpxtpx:hr>154</gpxtpx:hr>
          </gpxtpx:TrackPointExtension>
        </extensions>
      </trkpt>
      <trkpt lat="46.29925" lon="4.83127">
        <ele>168.7002</ele>
        <time>2026-05-13T14:39:21+02:00</time>
        <extensions>
          <gpxtpx:TrackPointExtension xmlns:gpxtpx="http://www.garmin.com/xmlschemas/TrackPointExtension/v1">
            <gpxtpx:hr>153</gpxtpx:hr>
          </gpxtpx:TrackPointExtension>
        </extensions>
      </trkpt>
      <trkpt lat="46.29928" lon="4.8313">
        <ele>168.2998</ele>
        <time>2026-05-13T14:39:22+02:00</time>
        <extensions>
          <gpxtpx:TrackPointExtension xmlns:gpxtpx="http://www.garmin.com/xmlschemas/TrackPointExtension/v1">
            <gpxtpx:hr>153</gpxtpx:hr>
          </gpxtpx:TrackPointExtension>
        </extensions>
      </trkpt>
      <trkpt lat="46.29931" lon="4.83133">
        <ele>167.5</ele>
        <time>2026-05-13T14:39:23+02:00</time>
        <extensions>
          <gpxtpx:TrackPointExtension xmlns:gpxtpx="http://www.garmin.com/xmlschemas/TrackPointExtension/v1">
            <gpxtpx:hr>152</gpxtpx:hr>
          </gpxtpx:TrackPointExtension>
        </extensions>
      </trkpt>
      <trkpt lat="46.29933" lon="4.83137">
        <ele>168</ele>
        <time>2026-05-13T14:39:24+02:00</time>
        <extensions>
          <gpxtpx:TrackPointExtension xmlns:gpxtpx="http://www.garmin.com/xmlschemas/TrackPointExtension/v1">
            <gpxtpx:hr>151</gpxtpx:hr>
          </gpxtpx:TrackPointExtension>
        </extensions>
      </trkpt>
      <trkpt lat="46.29936" lon="4.83141">
        <ele>167.7998</ele>
        <time>2026-05-13T14:39:25+02:00</time>
        <extensions>
          <gpxtpx:TrackPointExtension xmlns:gpxtpx="http://www.garmin.com/xmlschemas/TrackPointExtension/v1">
            <gpxtpx:hr>150</gpxtpx:hr>
          </gpxtpx:TrackPointExtension>
        </extensions>
      </trkpt>
      <trkpt lat="46.2994" lon="4.83143">
        <ele>168.60059</ele>
        <time>2026-05-13T14:39:26+02:00</time>
        <extensions>
          <gpxtpx:TrackPointExtension xmlns:gpxtpx="http://www.garmin.com/xmlschemas/TrackPointExtension/v1">
            <gpxtpx:hr>149</gpxtpx:hr>
          </gpxtpx:TrackPointExtension>
        </extensions>
      </trkpt>
      <trkpt lat="46.29944" lon="4.83146">
        <ele>168.60059</ele>
        <time>2026-05-13T14:39:27+02:00</time>
        <extensions>
          <gpxtpx:TrackPointExtension xmlns:gpxtpx="http://www.garmin.com/xmlschemas/TrackPointExtension/v1">
            <gpxtpx:hr>149</gpxtpx:hr>
          </gpxtpx:TrackPointExtension>
        </extensions>
      </trkpt>
      <trkpt lat="46.29949" lon="4.83148">
        <ele>170.2998</ele>
        <time>2026-05-13T14:39:28+02:00</time>
        <extensions>
          <gpxtpx:TrackPointExtension xmlns:gpxtpx="http://www.garmin.com/xmlschemas/TrackPointExtension/v1">
            <gpxtpx:hr>150</gpxtpx:hr>
          </gpxtpx:TrackPointExtension>
        </extensions>
      </trkpt>
      <trkpt lat="46.29953" lon="4.8315">
        <ele>169.7002</ele>
        <time>2026-05-13T14:39:29+02:00</time>
        <extensions>
          <gpxtpx:TrackPointExtension xmlns:gpxtpx="http://www.garmin.com/xmlschemas/TrackPointExtension/v1">
            <gpxtpx:hr>151</gpxtpx:hr>
          </gpxtpx:TrackPointExtension>
        </extensions>
      </trkpt>
      <trkpt lat="46.29958" lon="4.83152">
        <ele>169.90039</ele>
        <time>2026-05-13T14:39:30+02:00</time>
        <extensions>
          <gpxtpx:TrackPointExtension xmlns:gpxtpx="http://www.garmin.com/xmlschemas/TrackPointExtension/v1">
            <gpxtpx:hr>151</gpxtpx:hr>
          </gpxtpx:TrackPointExtension>
        </extensions>
      </trkpt>
      <trkpt lat="46.29963" lon="4.83155">
        <ele>169.7002</ele>
        <time>2026-05-13T14:39:31+02:00</time>
        <extensions>
          <gpxtpx:TrackPointExtension xmlns:gpxtpx="http://www.garmin.com/xmlschemas/TrackPointExtension/v1">
            <gpxtpx:hr>151</gpxtpx:hr>
          </gpxtpx:TrackPointExtension>
        </extensions>
      </trkpt>
      <trkpt lat="46.29967" lon="4.83157">
        <ele>169.7002</ele>
        <time>2026-05-13T14:39:32+02:00</time>
        <extensions>
          <gpxtpx:TrackPointExtension xmlns:gpxtpx="http://www.garmin.com/xmlschemas/TrackPointExtension/v1">
            <gpxtpx:hr>152</gpxtpx:hr>
          </gpxtpx:TrackPointExtension>
        </extensions>
      </trkpt>
      <trkpt lat="46.29972" lon="4.8316">
        <ele>168.2998</ele>
        <time>2026-05-13T14:39:33+02:00</time>
        <extensions>
          <gpxtpx:TrackPointExtension xmlns:gpxtpx="http://www.garmin.com/xmlschemas/TrackPointExtension/v1">
            <gpxtpx:hr>152</gpxtpx:hr>
          </gpxtpx:TrackPointExtension>
        </extensions>
      </trkpt>
      <trkpt lat="46.29977" lon="4.83163">
        <ele>168.2998</ele>
        <time>2026-05-13T14:39:34+02:00</time>
        <extensions>
          <gpxtpx:TrackPointExtension xmlns:gpxtpx="http://www.garmin.com/xmlschemas/TrackPointExtension/v1">
            <gpxtpx:hr>153</gpxtpx:hr>
          </gpxtpx:TrackPointExtension>
        </extensions>
      </trkpt>
      <trkpt lat="46.29982" lon="4.83165">
        <ele>168.2998</ele>
        <time>2026-05-13T14:39:35+02:00</time>
        <extensions>
          <gpxtpx:TrackPointExtension xmlns:gpxtpx="http://www.garmin.com/xmlschemas/TrackPointExtension/v1">
            <gpxtpx:hr>154</gpxtpx:hr>
          </gpxtpx:TrackPointExtension>
        </extensions>
      </trkpt>
      <trkpt lat="46.29987" lon="4.83167">
        <ele>167.7998</ele>
        <time>2026-05-13T14:39:36+02:00</time>
        <extensions>
          <gpxtpx:TrackPointExtension xmlns:gpxtpx="http://www.garmin.com/xmlschemas/TrackPointExtension/v1">
            <gpxtpx:hr>154</gpxtpx:hr>
          </gpxtpx:TrackPointExtension>
        </extensions>
      </trkpt>
      <trkpt lat="46.29993" lon="4.8317">
        <ele>167.5</ele>
        <time>2026-05-13T14:39:37+02:00</time>
        <extensions>
          <gpxtpx:TrackPointExtension xmlns:gpxtpx="http://www.garmin.com/xmlschemas/TrackPointExtension/v1">
            <gpxtpx:hr>155</gpxtpx:hr>
          </gpxtpx:TrackPointExtension>
        </extensions>
      </trkpt>
      <trkpt lat="46.29998" lon="4.83172">
        <ele>167.5</ele>
        <time>2026-05-13T14:39:38+02:00</time>
        <extensions>
          <gpxtpx:TrackPointExtension xmlns:gpxtpx="http://www.garmin.com/xmlschemas/TrackPointExtension/v1">
            <gpxtpx:hr>155</gpxtpx:hr>
          </gpxtpx:TrackPointExtension>
        </extensions>
      </trkpt>
      <trkpt lat="46.30003" lon="4.83176">
        <ele>167.7998</ele>
        <time>2026-05-13T14:39:39+02:00</time>
        <extensions>
          <gpxtpx:TrackPointExtension xmlns:gpxtpx="http://www.garmin.com/xmlschemas/TrackPointExtension/v1">
            <gpxtpx:hr>155</gpxtpx:hr>
          </gpxtpx:TrackPointExtension>
        </extensions>
      </trkpt>
      <trkpt lat="46.30008" lon="4.83179">
        <ele>168.10059</ele>
        <time>2026-05-13T14:39:40+02:00</time>
        <extensions>
          <gpxtpx:TrackPointExtension xmlns:gpxtpx="http://www.garmin.com/xmlschemas/TrackPointExtension/v1">
            <gpxtpx:hr>155</gpxtpx:hr>
          </gpxtpx:TrackPointExtension>
        </extensions>
      </trkpt>
      <trkpt lat="46.30013" lon="4.83182">
        <ele>168.60059</ele>
        <time>2026-05-13T14:39:41+02:00</time>
        <extensions>
          <gpxtpx:TrackPointExtension xmlns:gpxtpx="http://www.garmin.com/xmlschemas/TrackPointExtension/v1">
            <gpxtpx:hr>156</gpxtpx:hr>
          </gpxtpx:TrackPointExtension>
        </extensions>
      </trkpt>
      <trkpt lat="46.30018" lon="4.83185">
        <ele>168.40039</ele>
        <time>2026-05-13T14:39:42+02:00</time>
        <extensions>
          <gpxtpx:TrackPointExtension xmlns:gpxtpx="http://www.garmin.com/xmlschemas/TrackPointExtension/v1">
            <gpxtpx:hr>156</gpxtpx:hr>
          </gpxtpx:TrackPointExtension>
        </extensions>
      </trkpt>
      <trkpt lat="46.30023" lon="4.83187">
        <ele>168.40039</ele>
        <time>2026-05-13T14:39:43+02:00</time>
        <extensions>
          <gpxtpx:TrackPointExtension xmlns:gpxtpx="http://www.garmin.com/xmlschemas/TrackPointExtension/v1">
            <gpxtpx:hr>156</gpxtpx:hr>
          </gpxtpx:TrackPointExtension>
        </extensions>
      </trkpt>
      <trkpt lat="46.30028" lon="4.8319">
        <ele>168.2998</ele>
        <time>2026-05-13T14:39:44+02:00</time>
        <extensions>
          <gpxtpx:TrackPointExtension xmlns:gpxtpx="http://www.garmin.com/xmlschemas/TrackPointExtension/v1">
            <gpxtpx:hr>157</gpxtpx:hr>
          </gpxtpx:TrackPointExtension>
        </extensions>
      </trkpt>
      <trkpt lat="46.30033" lon="4.83193">
        <ele>167.7002</ele>
        <time>2026-05-13T14:39:45+02:00</time>
        <extensions>
          <gpxtpx:TrackPointExtension xmlns:gpxtpx="http://www.garmin.com/xmlschemas/TrackPointExtension/v1">
            <gpxtpx:hr>157</gpxtpx:hr>
          </gpxtpx:TrackPointExtension>
        </extensions>
      </trkpt>
      <trkpt lat="46.30039" lon="4.83196">
        <ele>167.7002</ele>
        <time>2026-05-13T14:39:46+02:00</time>
        <extensions>
          <gpxtpx:TrackPointExtension xmlns:gpxtpx="http://www.garmin.com/xmlschemas/TrackPointExtension/v1">
            <gpxtpx:hr>158</gpxtpx:hr>
          </gpxtpx:TrackPointExtension>
        </extensions>
      </trkpt>
      <trkpt lat="46.30044" lon="4.83199">
        <ele>167.7998</ele>
        <time>2026-05-13T14:39:47+02:00</time>
        <extensions>
          <gpxtpx:TrackPointExtension xmlns:gpxtpx="http://www.garmin.com/xmlschemas/TrackPointExtension/v1">
            <gpxtpx:hr>158</gpxtpx:hr>
          </gpxtpx:TrackPointExtension>
        </extensions>
      </trkpt>
      <trkpt lat="46.30049" lon="4.83202">
        <ele>168</ele>
        <time>2026-05-13T14:39:48+02:00</time>
        <extensions>
          <gpxtpx:TrackPointExtension xmlns:gpxtpx="http://www.garmin.com/xmlschemas/TrackPointExtension/v1">
            <gpxtpx:hr>158</gpxtpx:hr>
          </gpxtpx:TrackPointExtension>
        </extensions>
      </trkpt>
      <trkpt lat="46.30054" lon="4.83205">
        <ele>168.10059</ele>
        <time>2026-05-13T14:39:49+02:00</time>
        <extensions>
          <gpxtpx:TrackPointExtension xmlns:gpxtpx="http://www.garmin.com/xmlschemas/TrackPointExtension/v1">
            <gpxtpx:hr>158</gpxtpx:hr>
          </gpxtpx:TrackPointExtension>
        </extensions>
      </trkpt>
      <trkpt lat="46.3006" lon="4.83208">
        <ele>168</ele>
        <time>2026-05-13T14:39:50+02:00</time>
        <extensions>
          <gpxtpx:TrackPointExtension xmlns:gpxtpx="http://www.garmin.com/xmlschemas/TrackPointExtension/v1">
            <gpxtpx:hr>159</gpxtpx:hr>
          </gpxtpx:TrackPointExtension>
        </extensions>
      </trkpt>
      <trkpt lat="46.30065" lon="4.8321">
        <ele>168.2002</ele>
        <time>2026-05-13T14:39:51+02:00</time>
        <extensions>
          <gpxtpx:TrackPointExtension xmlns:gpxtpx="http://www.garmin.com/xmlschemas/TrackPointExtension/v1">
            <gpxtpx:hr>160</gpxtpx:hr>
          </gpxtpx:TrackPointExtension>
        </extensions>
      </trkpt>
      <trkpt lat="46.30069" lon="4.83214">
        <ele>168.2002</ele>
        <time>2026-05-13T14:39:52+02:00</time>
        <extensions>
          <gpxtpx:TrackPointExtension xmlns:gpxtpx="http://www.garmin.com/xmlschemas/TrackPointExtension/v1">
            <gpxtpx:hr>161</gpxtpx:hr>
          </gpxtpx:TrackPointExtension>
        </extensions>
      </trkpt>
      <trkpt lat="46.30074" lon="4.83218">
        <ele>168.2998</ele>
        <time>2026-05-13T14:39:53+02:00</time>
        <extensions>
          <gpxtpx:TrackPointExtension xmlns:gpxtpx="http://www.garmin.com/xmlschemas/TrackPointExtension/v1">
            <gpxtpx:hr>161</gpxtpx:hr>
          </gpxtpx:TrackPointExtension>
        </extensions>
      </trkpt>
      <trkpt lat="46.30079" lon="4.83222">
        <ele>168.2998</ele>
        <time>2026-05-13T14:39:54+02:00</time>
        <extensions>
          <gpxtpx:TrackPointExtension xmlns:gpxtpx="http://www.garmin.com/xmlschemas/TrackPointExtension/v1">
            <gpxtpx:hr>160</gpxtpx:hr>
          </gpxtpx:TrackPointExtension>
        </extensions>
      </trkpt>
      <trkpt lat="46.30084" lon="4.83226">
        <ele>168</ele>
        <time>2026-05-13T14:39:55+02:00</time>
        <extensions>
          <gpxtpx:TrackPointExtension xmlns:gpxtpx="http://www.garmin.com/xmlschemas/TrackPointExtension/v1">
            <gpxtpx:hr>161</gpxtpx:hr>
          </gpxtpx:TrackPointExtension>
        </extensions>
      </trkpt>
      <trkpt lat="46.30089" lon="4.8323">
        <ele>167.90039</ele>
        <time>2026-05-13T14:39:56+02:00</time>
        <extensions>
          <gpxtpx:TrackPointExtension xmlns:gpxtpx="http://www.garmin.com/xmlschemas/TrackPointExtension/v1">
            <gpxtpx:hr>161</gpxtpx:hr>
          </gpxtpx:TrackPointExtension>
        </extensions>
      </trkpt>
      <trkpt lat="46.30094" lon="4.83234">
        <ele>168</ele>
        <time>2026-05-13T14:39:57+02:00</time>
        <extensions>
          <gpxtpx:TrackPointExtension xmlns:gpxtpx="http://www.garmin.com/xmlschemas/TrackPointExtension/v1">
            <gpxtpx:hr>162</gpxtpx:hr>
          </gpxtpx:TrackPointExtension>
        </extensions>
      </trkpt>
      <trkpt lat="46.30098" lon="4.83238">
        <ele>168.2002</ele>
        <time>2026-05-13T14:39:58+02:00</time>
        <extensions>
          <gpxtpx:TrackPointExtension xmlns:gpxtpx="http://www.garmin.com/xmlschemas/TrackPointExtension/v1">
            <gpxtpx:hr>162</gpxtpx:hr>
          </gpxtpx:TrackPointExtension>
        </extensions>
      </trkpt>
      <trkpt lat="46.30103" lon="4.83242">
        <ele>168.2002</ele>
        <time>2026-05-13T14:39:59+02:00</time>
        <extensions>
          <gpxtpx:TrackPointExtension xmlns:gpxtpx="http://www.garmin.com/xmlschemas/TrackPointExtension/v1">
            <gpxtpx:hr>162</gpxtpx:hr>
          </gpxtpx:TrackPointExtension>
        </extensions>
      </trkpt>
      <trkpt lat="46.30107" lon="4.83246">
        <ele>168.2998</ele>
        <time>2026-05-13T14:40:00+02:00</time>
        <extensions>
          <gpxtpx:TrackPointExtension xmlns:gpxtpx="http://www.garmin.com/xmlschemas/TrackPointExtension/v1">
            <gpxtpx:hr>162</gpxtpx:hr>
          </gpxtpx:TrackPointExtension>
        </extensions>
      </trkpt>
      <trkpt lat="46.30112" lon="4.8325">
        <ele>168.2002</ele>
        <time>2026-05-13T14:40:01+02:00</time>
        <extensions>
          <gpxtpx:TrackPointExtension xmlns:gpxtpx="http://www.garmin.com/xmlschemas/TrackPointExtension/v1">
            <gpxtpx:hr>163</gpxtpx:hr>
          </gpxtpx:TrackPointExtension>
        </extensions>
      </trkpt>
      <trkpt lat="46.30117" lon="4.83254">
        <ele>167.90039</ele>
        <time>2026-05-13T14:40:02+02:00</time>
        <extensions>
          <gpxtpx:TrackPointExtension xmlns:gpxtpx="http://www.garmin.com/xmlschemas/TrackPointExtension/v1">
            <gpxtpx:hr>162</gpxtpx:hr>
          </gpxtpx:TrackPointExtension>
        </extensions>
      </trkpt>
      <trkpt lat="46.30121" lon="4.83258">
        <ele>167.90039</ele>
        <time>2026-05-13T14:40:03+02:00</time>
        <extensions>
          <gpxtpx:TrackPointExtension xmlns:gpxtpx="http://www.garmin.com/xmlschemas/TrackPointExtension/v1">
            <gpxtpx:hr>162</gpxtpx:hr>
          </gpxtpx:TrackPointExtension>
        </extensions>
      </trkpt>
      <trkpt lat="46.30126" lon="4.83262">
        <ele>168</ele>
        <time>2026-05-13T14:40:04+02:00</time>
        <extensions>
          <gpxtpx:TrackPointExtension xmlns:gpxtpx="http://www.garmin.com/xmlschemas/TrackPointExtension/v1">
            <gpxtpx:hr>161</gpxtpx:hr>
          </gpxtpx:TrackPointExtension>
        </extensions>
      </trkpt>
      <trkpt lat="46.30131" lon="4.83265">
        <ele>168</ele>
        <time>2026-05-13T14:40:05+02:00</time>
        <extensions>
          <gpxtpx:TrackPointExtension xmlns:gpxtpx="http://www.garmin.com/xmlschemas/TrackPointExtension/v1">
            <gpxtpx:hr>162</gpxtpx:hr>
          </gpxtpx:TrackPointExtension>
        </extensions>
      </trkpt>
      <trkpt lat="46.30135" lon="4.83266">
        <ele>168</ele>
        <time>2026-05-13T14:40:06+02:00</time>
        <extensions>
          <gpxtpx:TrackPointExtension xmlns:gpxtpx="http://www.garmin.com/xmlschemas/TrackPointExtension/v1">
            <gpxtpx:hr>161</gpxtpx:hr>
          </gpxtpx:TrackPointExtension>
        </extensions>
      </trkpt>
      <trkpt lat="46.30139" lon="4.83268">
        <ele>168</ele>
        <time>2026-05-13T14:40:07+02:00</time>
        <extensions>
          <gpxtpx:TrackPointExtension xmlns:gpxtpx="http://www.garmin.com/xmlschemas/TrackPointExtension/v1">
            <gpxtpx:hr>161</gpxtpx:hr>
          </gpxtpx:TrackPointExtension>
        </extensions>
      </trkpt>
      <trkpt lat="46.30144" lon="4.83268">
        <ele>168.10059</ele>
        <time>2026-05-13T14:40:08+02:00</time>
        <extensions>
          <gpxtpx:TrackPointExtension xmlns:gpxtpx="http://www.garmin.com/xmlschemas/TrackPointExtension/v1">
            <gpxtpx:hr>160</gpxtpx:hr>
          </gpxtpx:TrackPointExtension>
        </extensions>
      </trkpt>
      <trkpt lat="46.30148" lon="4.83269">
        <ele>168.2002</ele>
        <time>2026-05-13T14:40:09+02:00</time>
        <extensions>
          <gpxtpx:TrackPointExtension xmlns:gpxtpx="http://www.garmin.com/xmlschemas/TrackPointExtension/v1">
            <gpxtpx:hr>161</gpxtpx:hr>
          </gpxtpx:TrackPointExtension>
        </extensions>
      </trkpt>
      <trkpt lat="46.30152" lon="4.83269">
        <ele>168.2002</ele>
        <time>2026-05-13T14:40:10+02:00</time>
        <extensions>
          <gpxtpx:TrackPointExtension xmlns:gpxtpx="http://www.garmin.com/xmlschemas/TrackPointExtension/v1">
            <gpxtpx:hr>162</gpxtpx:hr>
          </gpxtpx:TrackPointExtension>
        </extensions>
      </trkpt>
      <trkpt lat="46.30156" lon="4.83271">
        <ele>168.2002</ele>
        <time>2026-05-13T14:40:11+02:00</time>
        <extensions>
          <gpxtpx:TrackPointExtension xmlns:gpxtpx="http://www.garmin.com/xmlschemas/TrackPointExtension/v1">
            <gpxtpx:hr>161</gpxtpx:hr>
          </gpxtpx:TrackPointExtension>
        </extensions>
      </trkpt>
      <trkpt lat="46.3016" lon="4.83273">
        <ele>168.10059</ele>
        <time>2026-05-13T14:40:12+02:00</time>
        <extensions>
          <gpxtpx:TrackPointExtension xmlns:gpxtpx="http://www.garmin.com/xmlschemas/TrackPointExtension/v1">
            <gpxtpx:hr>161</gpxtpx:hr>
          </gpxtpx:TrackPointExtension>
        </extensions>
      </trkpt>
      <trkpt lat="46.30164" lon="4.83277">
        <ele>168.10059</ele>
        <time>2026-05-13T14:40:13+02:00</time>
        <extensions>
          <gpxtpx:TrackPointExtension xmlns:gpxtpx="http://www.garmin.com/xmlschemas/TrackPointExtension/v1">
            <gpxtpx:hr>160</gpxtpx:hr>
          </gpxtpx:TrackPointExtension>
        </extensions>
      </trkpt>
      <trkpt lat="46.30168" lon="4.83281">
        <ele>168</ele>
        <time>2026-05-13T14:40:14+02:00</time>
        <extensions>
          <gpxtpx:TrackPointExtension xmlns:gpxtpx="http://www.garmin.com/xmlschemas/TrackPointExtension/v1">
            <gpxtpx:hr>160</gpxtpx:hr>
          </gpxtpx:TrackPointExtension>
        </extensions>
      </trkpt>
      <trkpt lat="46.30172" lon="4.83284">
        <ele>168.2002</ele>
        <time>2026-05-13T14:40:15+02:00</time>
        <extensions>
          <gpxtpx:TrackPointExtension xmlns:gpxtpx="http://www.garmin.com/xmlschemas/TrackPointExtension/v1">
            <gpxtpx:hr>160</gpxtpx:hr>
          </gpxtpx:TrackPointExtension>
        </extensions>
      </trkpt>
      <trkpt lat="46.30177" lon="4.83286">
        <ele>168.7002</ele>
        <time>2026-05-13T14:40:16+02:00</time>
        <extensions>
          <gpxtpx:TrackPointExtension xmlns:gpxtpx="http://www.garmin.com/xmlschemas/TrackPointExtension/v1">
            <gpxtpx:hr>159</gpxtpx:hr>
          </gpxtpx:TrackPointExtension>
        </extensions>
      </trkpt>
      <trkpt lat="46.30181" lon="4.83289">
        <ele>168.40039</ele>
        <time>2026-05-13T14:40:17+02:00</time>
        <extensions>
          <gpxtpx:TrackPointExtension xmlns:gpxtpx="http://www.garmin.com/xmlschemas/TrackPointExtension/v1">
            <gpxtpx:hr>159</gpxtpx:hr>
          </gpxtpx:TrackPointExtension>
        </extensions>
      </trkpt>
      <trkpt lat="46.30185" lon="4.83292">
        <ele>168.60059</ele>
        <time>2026-05-13T14:40:18+02:00</time>
        <extensions>
          <gpxtpx:TrackPointExtension xmlns:gpxtpx="http://www.garmin.com/xmlschemas/TrackPointExtension/v1">
            <gpxtpx:hr>158</gpxtpx:hr>
          </gpxtpx:TrackPointExtension>
        </extensions>
      </trkpt>
      <trkpt lat="46.30189" lon="4.83294">
        <ele>168.7998</ele>
        <time>2026-05-13T14:40:19+02:00</time>
        <extensions>
          <gpxtpx:TrackPointExtension xmlns:gpxtpx="http://www.garmin.com/xmlschemas/TrackPointExtension/v1">
            <gpxtpx:hr>158</gpxtpx:hr>
          </gpxtpx:TrackPointExtension>
        </extensions>
      </trkpt>
      <trkpt lat="46.30193" lon="4.83297">
        <ele>168.40039</ele>
        <time>2026-05-13T14:40:20+02:00</time>
        <extensions>
          <gpxtpx:TrackPointExtension xmlns:gpxtpx="http://www.garmin.com/xmlschemas/TrackPointExtension/v1">
            <gpxtpx:hr>158</gpxtpx:hr>
          </gpxtpx:TrackPointExtension>
        </extensions>
      </trkpt>
      <trkpt lat="46.30197" lon="4.83299">
        <ele>168.2998</ele>
        <time>2026-05-13T14:40:21+02:00</time>
        <extensions>
          <gpxtpx:TrackPointExtension xmlns:gpxtpx="http://www.garmin.com/xmlschemas/TrackPointExtension/v1">
            <gpxtpx:hr>158</gpxtpx:hr>
          </gpxtpx:TrackPointExtension>
        </extensions>
      </trkpt>
      <trkpt lat="46.30201" lon="4.83301">
        <ele>168.2002</ele>
        <time>2026-05-13T14:40:22+02:00</time>
        <extensions>
          <gpxtpx:TrackPointExtension xmlns:gpxtpx="http://www.garmin.com/xmlschemas/TrackPointExtension/v1">
            <gpxtpx:hr>158</gpxtpx:hr>
          </gpxtpx:TrackPointExtension>
        </extensions>
      </trkpt>
      <trkpt lat="46.30205" lon="4.83303">
        <ele>168.2002</ele>
        <time>2026-05-13T14:40:23+02:00</time>
        <extensions>
          <gpxtpx:TrackPointExtension xmlns:gpxtpx="http://www.garmin.com/xmlschemas/TrackPointExtension/v1">
            <gpxtpx:hr>158</gpxtpx:hr>
          </gpxtpx:TrackPointExtension>
        </extensions>
      </trkpt>
      <trkpt lat="46.30208" lon="4.83306">
        <ele>167.90039</ele>
        <time>2026-05-13T14:40:24+02:00</time>
        <extensions>
          <gpxtpx:TrackPointExtension xmlns:gpxtpx="http://www.garmin.com/xmlschemas/TrackPointExtension/v1">
            <gpxtpx:hr>157</gpxtpx:hr>
          </gpxtpx:TrackPointExtension>
        </extensions>
      </trkpt>
      <trkpt lat="46.30212" lon="4.83308">
        <ele>168</ele>
        <time>2026-05-13T14:40:25+02:00</time>
        <extensions>
          <gpxtpx:TrackPointExtension xmlns:gpxtpx="http://www.garmin.com/xmlschemas/TrackPointExtension/v1">
            <gpxtpx:hr>158</gpxtpx:hr>
          </gpxtpx:TrackPointExtension>
        </extensions>
      </trkpt>
      <trkpt lat="46.30216" lon="4.8331">
        <ele>168</ele>
        <time>2026-05-13T14:40:26+02:00</time>
        <extensions>
          <gpxtpx:TrackPointExtension xmlns:gpxtpx="http://www.garmin.com/xmlschemas/TrackPointExtension/v1">
            <gpxtpx:hr>159</gpxtpx:hr>
          </gpxtpx:TrackPointExtension>
        </extensions>
      </trkpt>
      <trkpt lat="46.30219" lon="4.83313">
        <ele>168.10059</ele>
        <time>2026-05-13T14:40:27+02:00</time>
        <extensions>
          <gpxtpx:TrackPointExtension xmlns:gpxtpx="http://www.garmin.com/xmlschemas/TrackPointExtension/v1">
            <gpxtpx:hr>159</gpxtpx:hr>
          </gpxtpx:TrackPointExtension>
        </extensions>
      </trkpt>
      <trkpt lat="46.30223" lon="4.83315">
        <ele>168.10059</ele>
        <time>2026-05-13T14:40:28+02:00</time>
        <extensions>
          <gpxtpx:TrackPointExtension xmlns:gpxtpx="http://www.garmin.com/xmlschemas/TrackPointExtension/v1">
            <gpxtpx:hr>157</gpxtpx:hr>
          </gpxtpx:TrackPointExtension>
        </extensions>
      </trkpt>
      <trkpt lat="46.30227" lon="4.83317">
        <ele>168.40039</ele>
        <time>2026-05-13T14:40:29+02:00</time>
        <extensions>
          <gpxtpx:TrackPointExtension xmlns:gpxtpx="http://www.garmin.com/xmlschemas/TrackPointExtension/v1">
            <gpxtpx:hr>155</gpxtpx:hr>
          </gpxtpx:TrackPointExtension>
        </extensions>
      </trkpt>
      <trkpt lat="46.3023" lon="4.8332">
        <ele>168.90039</ele>
        <time>2026-05-13T14:40:30+02:00</time>
        <extensions>
          <gpxtpx:TrackPointExtension xmlns:gpxtpx="http://www.garmin.com/xmlschemas/TrackPointExtension/v1">
            <gpxtpx:hr>155</gpxtpx:hr>
          </gpxtpx:TrackPointExtension>
        </extensions>
      </trkpt>
      <trkpt lat="46.30234" lon="4.83324">
        <ele>168.2998</ele>
        <time>2026-05-13T14:40:31+02:00</time>
        <extensions>
          <gpxtpx:TrackPointExtension xmlns:gpxtpx="http://www.garmin.com/xmlschemas/TrackPointExtension/v1">
            <gpxtpx:hr>155</gpxtpx:hr>
          </gpxtpx:TrackPointExtension>
        </extensions>
      </trkpt>
      <trkpt lat="46.30238" lon="4.83327">
        <ele>168.5</ele>
        <time>2026-05-13T14:40:32+02:00</time>
        <extensions>
          <gpxtpx:TrackPointExtension xmlns:gpxtpx="http://www.garmin.com/xmlschemas/TrackPointExtension/v1">
            <gpxtpx:hr>155</gpxtpx:hr>
          </gpxtpx:TrackPointExtension>
        </extensions>
      </trkpt>
      <trkpt lat="46.30242" lon="4.83331">
        <ele>168.40039</ele>
        <time>2026-05-13T14:40:33+02:00</time>
        <extensions>
          <gpxtpx:TrackPointExtension xmlns:gpxtpx="http://www.garmin.com/xmlschemas/TrackPointExtension/v1">
            <gpxtpx:hr>154</gpxtpx:hr>
          </gpxtpx:TrackPointExtension>
        </extensions>
      </trkpt>
      <trkpt lat="46.30246" lon="4.83335">
        <ele>168.40039</ele>
        <time>2026-05-13T14:40:34+02:00</time>
        <extensions>
          <gpxtpx:TrackPointExtension xmlns:gpxtpx="http://www.garmin.com/xmlschemas/TrackPointExtension/v1">
            <gpxtpx:hr>155</gpxtpx:hr>
          </gpxtpx:TrackPointExtension>
        </extensions>
      </trkpt>
      <trkpt lat="46.3025" lon="4.83339">
        <ele>168.60059</ele>
        <time>2026-05-13T14:40:35+02:00</time>
        <extensions>
          <gpxtpx:TrackPointExtension xmlns:gpxtpx="http://www.garmin.com/xmlschemas/TrackPointExtension/v1">
            <gpxtpx:hr>155</gpxtpx:hr>
          </gpxtpx:TrackPointExtension>
        </extensions>
      </trkpt>
      <trkpt lat="46.30253" lon="4.83342">
        <ele>168.60059</ele>
        <time>2026-05-13T14:40:36+02:00</time>
        <extensions>
          <gpxtpx:TrackPointExtension xmlns:gpxtpx="http://www.garmin.com/xmlschemas/TrackPointExtension/v1">
            <gpxtpx:hr>154</gpxtpx:hr>
          </gpxtpx:TrackPointExtension>
        </extensions>
      </trkpt>
      <trkpt lat="46.30257" lon="4.83346">
        <ele>169</ele>
        <time>2026-05-13T14:40:37+02:00</time>
        <extensions>
          <gpxtpx:TrackPointExtension xmlns:gpxtpx="http://www.garmin.com/xmlschemas/TrackPointExtension/v1">
            <gpxtpx:hr>154</gpxtpx:hr>
          </gpxtpx:TrackPointExtension>
        </extensions>
      </trkpt>
      <trkpt lat="46.3026" lon="4.83349">
        <ele>168.7002</ele>
        <time>2026-05-13T14:40:38+02:00</time>
        <extensions>
          <gpxtpx:TrackPointExtension xmlns:gpxtpx="http://www.garmin.com/xmlschemas/TrackPointExtension/v1">
            <gpxtpx:hr>153</gpxtpx:hr>
          </gpxtpx:TrackPointExtension>
        </extensions>
      </trkpt>
      <trkpt lat="46.30264" lon="4.83352">
        <ele>168.7002</ele>
        <time>2026-05-13T14:40:39+02:00</time>
        <extensions>
          <gpxtpx:TrackPointExtension xmlns:gpxtpx="http://www.garmin.com/xmlschemas/TrackPointExtension/v1">
            <gpxtpx:hr>153</gpxtpx:hr>
          </gpxtpx:TrackPointExtension>
        </extensions>
      </trkpt>
      <trkpt lat="46.30267" lon="4.83354">
        <ele>168.7002</ele>
        <time>2026-05-13T14:40:40+02:00</time>
        <extensions>
          <gpxtpx:TrackPointExtension xmlns:gpxtpx="http://www.garmin.com/xmlschemas/TrackPointExtension/v1">
            <gpxtpx:hr>152</gpxtpx:hr>
          </gpxtpx:TrackPointExtension>
        </extensions>
      </trkpt>
      <trkpt lat="46.30271" lon="4.83357">
        <ele>168.10059</ele>
        <time>2026-05-13T14:40:41+02:00</time>
        <extensions>
          <gpxtpx:TrackPointExtension xmlns:gpxtpx="http://www.garmin.com/xmlschemas/TrackPointExtension/v1">
            <gpxtpx:hr>151</gpxtpx:hr>
          </gpxtpx:TrackPointExtension>
        </extensions>
      </trkpt>
      <trkpt lat="46.30274" lon="4.83361">
        <ele>168.10059</ele>
        <time>2026-05-13T14:40:42+02:00</time>
        <extensions>
          <gpxtpx:TrackPointExtension xmlns:gpxtpx="http://www.garmin.com/xmlschemas/TrackPointExtension/v1">
            <gpxtpx:hr>151</gpxtpx:hr>
          </gpxtpx:TrackPointExtension>
        </extensions>
      </trkpt>
      <trkpt lat="46.30277" lon="4.83364">
        <ele>168.10059</ele>
        <time>2026-05-13T14:40:43+02:00</time>
        <extensions>
          <gpxtpx:TrackPointExtension xmlns:gpxtpx="http://www.garmin.com/xmlschemas/TrackPointExtension/v1">
            <gpxtpx:hr>152</gpxtpx:hr>
          </gpxtpx:TrackPointExtension>
        </extensions>
      </trkpt>
      <trkpt lat="46.30281" lon="4.83367">
        <ele>167.90039</ele>
        <time>2026-05-13T14:40:44+02:00</time>
        <extensions>
          <gpxtpx:TrackPointExtension xmlns:gpxtpx="http://www.garmin.com/xmlschemas/TrackPointExtension/v1">
            <gpxtpx:hr>152</gpxtpx:hr>
          </gpxtpx:TrackPointExtension>
        </extensions>
      </trkpt>
      <trkpt lat="46.30285" lon="4.83369">
        <ele>168</ele>
        <time>2026-05-13T14:40:45+02:00</time>
        <extensions>
          <gpxtpx:TrackPointExtension xmlns:gpxtpx="http://www.garmin.com/xmlschemas/TrackPointExtension/v1">
            <gpxtpx:hr>152</gpxtpx:hr>
          </gpxtpx:TrackPointExtension>
        </extensions>
      </trkpt>
      <trkpt lat="46.30289" lon="4.83372">
        <ele>168.2998</ele>
        <time>2026-05-13T14:40:46+02:00</time>
        <extensions>
          <gpxtpx:TrackPointExtension xmlns:gpxtpx="http://www.garmin.com/xmlschemas/TrackPointExtension/v1">
            <gpxtpx:hr>152</gpxtpx:hr>
          </gpxtpx:TrackPointExtension>
        </extensions>
      </trkpt>
      <trkpt lat="46.30292" lon="4.83374">
        <ele>168.10059</ele>
        <time>2026-05-13T14:40:47+02:00</time>
        <extensions>
          <gpxtpx:TrackPointExtension xmlns:gpxtpx="http://www.garmin.com/xmlschemas/TrackPointExtension/v1">
            <gpxtpx:hr>150</gpxtpx:hr>
          </gpxtpx:TrackPointExtension>
        </extensions>
      </trkpt>
      <trkpt lat="46.30296" lon="4.83376">
        <ele>168.40039</ele>
        <time>2026-05-13T14:40:48+02:00</time>
        <extensions>
          <gpxtpx:TrackPointExtension xmlns:gpxtpx="http://www.garmin.com/xmlschemas/TrackPointExtension/v1">
            <gpxtpx:hr>149</gpxtpx:hr>
          </gpxtpx:TrackPointExtension>
        </extensions>
      </trkpt>
      <trkpt lat="46.30299" lon="4.83378">
        <ele>168.40039</ele>
        <time>2026-05-13T14:40:49+02:00</time>
        <extensions>
          <gpxtpx:TrackPointExtension xmlns:gpxtpx="http://www.garmin.com/xmlschemas/TrackPointExtension/v1">
            <gpxtpx:hr>148</gpxtpx:hr>
          </gpxtpx:TrackPointExtension>
        </extensions>
      </trkpt>
      <trkpt lat="46.30303" lon="4.83379">
        <ele>168.7002</ele>
        <time>2026-05-13T14:40:50+02:00</time>
        <extensions>
          <gpxtpx:TrackPointExtension xmlns:gpxtpx="http://www.garmin.com/xmlschemas/TrackPointExtension/v1">
            <gpxtpx:hr>148</gpxtpx:hr>
          </gpxtpx:TrackPointExtension>
        </extensions>
      </trkpt>
      <trkpt lat="46.30306" lon="4.83381">
        <ele>168.7002</ele>
        <time>2026-05-13T14:40:51+02:00</time>
        <extensions>
          <gpxtpx:TrackPointExtension xmlns:gpxtpx="http://www.garmin.com/xmlschemas/TrackPointExtension/v1">
            <gpxtpx:hr>148</gpxtpx:hr>
          </gpxtpx:TrackPointExtension>
        </extensions>
      </trkpt>
      <trkpt lat="46.30309" lon="4.83383">
        <ele>168.40039</ele>
        <time>2026-05-13T14:40:52+02:00</time>
        <extensions>
          <gpxtpx:TrackPointExtension xmlns:gpxtpx="http://www.garmin.com/xmlschemas/TrackPointExtension/v1">
            <gpxtpx:hr>148</gpxtpx:hr>
          </gpxtpx:TrackPointExtension>
        </extensions>
      </trkpt>
      <trkpt lat="46.30312" lon="4.83385">
        <ele>168.40039</ele>
        <time>2026-05-13T14:40:53+02:00</time>
        <extensions>
          <gpxtpx:TrackPointExtension xmlns:gpxtpx="http://www.garmin.com/xmlschemas/TrackPointExtension/v1">
            <gpxtpx:hr>148</gpxtpx:hr>
          </gpxtpx:TrackPointExtension>
        </extensions>
      </trkpt>
      <trkpt lat="46.30315" lon="4.83388">
        <ele>168.7998</ele>
        <time>2026-05-13T14:40:54+02:00</time>
        <extensions>
          <gpxtpx:TrackPointExtension xmlns:gpxtpx="http://www.garmin.com/xmlschemas/TrackPointExtension/v1">
            <gpxtpx:hr>148</gpxtpx:hr>
          </gpxtpx:TrackPointExtension>
        </extensions>
      </trkpt>
      <trkpt lat="46.30317" lon="4.8339">
        <ele>168.40039</ele>
        <time>2026-05-13T14:40:55+02:00</time>
        <extensions>
          <gpxtpx:TrackPointExtension xmlns:gpxtpx="http://www.garmin.com/xmlschemas/TrackPointExtension/v1">
            <gpxtpx:hr>146</gpxtpx:hr>
          </gpxtpx:TrackPointExtension>
        </extensions>
      </trkpt>
      <trkpt lat="46.30319" lon="4.83392">
        <ele>168.90039</ele>
        <time>2026-05-13T14:40:56+02:00</time>
        <extensions>
          <gpxtpx:TrackPointExtension xmlns:gpxtpx="http://www.garmin.com/xmlschemas/TrackPointExtension/v1">
            <gpxtpx:hr>145</gpxtpx:hr>
          </gpxtpx:TrackPointExtension>
        </extensions>
      </trkpt>
      <trkpt lat="46.30322" lon="4.83395">
        <ele>168.90039</ele>
        <time>2026-05-13T14:40:57+02:00</time>
        <extensions>
          <gpxtpx:TrackPointExtension xmlns:gpxtpx="http://www.garmin.com/xmlschemas/TrackPointExtension/v1">
            <gpxtpx:hr>146</gpxtpx:hr>
          </gpxtpx:TrackPointExtension>
        </extensions>
      </trkpt>
      <trkpt lat="46.30324" lon="4.83397">
        <ele>168.90039</ele>
        <time>2026-05-13T14:40:58+02:00</time>
        <extensions>
          <gpxtpx:TrackPointExtension xmlns:gpxtpx="http://www.garmin.com/xmlschemas/TrackPointExtension/v1">
            <gpxtpx:hr>147</gpxtpx:hr>
          </gpxtpx:TrackPointExtension>
        </extensions>
      </trkpt>
      <trkpt lat="46.30326" lon="4.83402">
        <ele>168.90039</ele>
        <time>2026-05-13T14:40:59+02:00</time>
        <extensions>
          <gpxtpx:TrackPointExtension xmlns:gpxtpx="http://www.garmin.com/xmlschemas/TrackPointExtension/v1">
            <gpxtpx:hr>148</gpxtpx:hr>
          </gpxtpx:TrackPointExtension>
        </extensions>
      </trkpt>
      <trkpt lat="46.30328" lon="4.83407">
        <ele>168.5</ele>
        <time>2026-05-13T14:41:00+02:00</time>
        <extensions>
          <gpxtpx:TrackPointExtension xmlns:gpxtpx="http://www.garmin.com/xmlschemas/TrackPointExtension/v1">
            <gpxtpx:hr>148</gpxtpx:hr>
          </gpxtpx:TrackPointExtension>
        </extensions>
      </trkpt>
      <trkpt lat="46.30329" lon="4.83412">
        <ele>168.5</ele>
        <time>2026-05-13T14:41:01+02:00</time>
        <extensions>
          <gpxtpx:TrackPointExtension xmlns:gpxtpx="http://www.garmin.com/xmlschemas/TrackPointExtension/v1">
            <gpxtpx:hr>148</gpxtpx:hr>
          </gpxtpx:TrackPointExtension>
        </extensions>
      </trkpt>
      <trkpt lat="46.30331" lon="4.83417">
        <ele>168.2998</ele>
        <time>2026-05-13T14:41:02+02:00</time>
        <extensions>
          <gpxtpx:TrackPointExtension xmlns:gpxtpx="http://www.garmin.com/xmlschemas/TrackPointExtension/v1">
            <gpxtpx:hr>149</gpxtpx:hr>
          </gpxtpx:TrackPointExtension>
        </extensions>
      </trkpt>
      <trkpt lat="46.30333" lon="4.83422">
        <ele>168.2998</ele>
        <time>2026-05-13T14:41:03+02:00</time>
        <extensions>
          <gpxtpx:TrackPointExtension xmlns:gpxtpx="http://www.garmin.com/xmlschemas/TrackPointExtension/v1">
            <gpxtpx:hr>149</gpxtpx:hr>
          </gpxtpx:TrackPointExtension>
        </extensions>
      </trkpt>
      <trkpt lat="46.30337" lon="4.83427">
        <ele>168.10059</ele>
        <time>2026-05-13T14:41:04+02:00</time>
        <extensions>
          <gpxtpx:TrackPointExtension xmlns:gpxtpx="http://www.garmin.com/xmlschemas/TrackPointExtension/v1">
            <gpxtpx:hr>149</gpxtpx:hr>
          </gpxtpx:TrackPointExtension>
        </extensions>
      </trkpt>
      <trkpt lat="46.3034" lon="4.83431">
        <ele>168.10059</ele>
        <time>2026-05-13T14:41:05+02:00</time>
        <extensions>
          <gpxtpx:TrackPointExtension xmlns:gpxtpx="http://www.garmin.com/xmlschemas/TrackPointExtension/v1">
            <gpxtpx:hr>149</gpxtpx:hr>
          </gpxtpx:TrackPointExtension>
        </extensions>
      </trkpt>
      <trkpt lat="46.30343" lon="4.83435">
        <ele>168.10059</ele>
        <time>2026-05-13T14:41:06+02:00</time>
        <extensions>
          <gpxtpx:TrackPointExtension xmlns:gpxtpx="http://www.garmin.com/xmlschemas/TrackPointExtension/v1">
            <gpxtpx:hr>148</gpxtpx:hr>
          </gpxtpx:TrackPointExtension>
        </extensions>
      </trkpt>
      <trkpt lat="46.30347" lon="4.83439">
        <ele>168.10059</ele>
        <time>2026-05-13T14:41:07+02:00</time>
        <extensions>
          <gpxtpx:TrackPointExtension xmlns:gpxtpx="http://www.garmin.com/xmlschemas/TrackPointExtension/v1">
            <gpxtpx:hr>148</gpxtpx:hr>
          </gpxtpx:TrackPointExtension>
        </extensions>
      </trkpt>
      <trkpt lat="46.30351" lon="4.83442">
        <ele>168.2002</ele>
        <time>2026-05-13T14:41:08+02:00</time>
        <extensions>
          <gpxtpx:TrackPointExtension xmlns:gpxtpx="http://www.garmin.com/xmlschemas/TrackPointExtension/v1">
            <gpxtpx:hr>149</gpxtpx:hr>
          </gpxtpx:TrackPointExtension>
        </extensions>
      </trkpt>
      <trkpt lat="46.30355" lon="4.83446">
        <ele>168.2002</ele>
        <time>2026-05-13T14:41:09+02:00</time>
        <extensions>
          <gpxtpx:TrackPointExtension xmlns:gpxtpx="http://www.garmin.com/xmlschemas/TrackPointExtension/v1">
            <gpxtpx:hr>148</gpxtpx:hr>
          </gpxtpx:TrackPointExtension>
        </extensions>
      </trkpt>
      <trkpt lat="46.30359" lon="4.83448">
        <ele>168.2002</ele>
        <time>2026-05-13T14:41:10+02:00</time>
        <extensions>
          <gpxtpx:TrackPointExtension xmlns:gpxtpx="http://www.garmin.com/xmlschemas/TrackPointExtension/v1">
            <gpxtpx:hr>148</gpxtpx:hr>
          </gpxtpx:TrackPointExtension>
        </extensions>
      </trkpt>
      <trkpt lat="46.30364" lon="4.8345">
        <ele>168.2002</ele>
        <time>2026-05-13T14:41:11+02:00</time>
        <extensions>
          <gpxtpx:TrackPointExtension xmlns:gpxtpx="http://www.garmin.com/xmlschemas/TrackPointExtension/v1">
            <gpxtpx:hr>149</gpxtpx:hr>
          </gpxtpx:TrackPointExtension>
        </extensions>
      </trkpt>
      <trkpt lat="46.30369" lon="4.83452">
        <ele>168.10059</ele>
        <time>2026-05-13T14:41:12+02:00</time>
        <extensions>
          <gpxtpx:TrackPointExtension xmlns:gpxtpx="http://www.garmin.com/xmlschemas/TrackPointExtension/v1">
            <gpxtpx:hr>149</gpxtpx:hr>
          </gpxtpx:TrackPointExtension>
        </extensions>
      </trkpt>
      <trkpt lat="46.30373" lon="4.83454">
        <ele>168.10059</ele>
        <time>2026-05-13T14:41:13+02:00</time>
        <extensions>
          <gpxtpx:TrackPointExtension xmlns:gpxtpx="http://www.garmin.com/xmlschemas/TrackPointExtension/v1">
            <gpxtpx:hr>150</gpxtpx:hr>
          </gpxtpx:TrackPointExtension>
        </extensions>
      </trkpt>
      <trkpt lat="46.30377" lon="4.83456">
        <ele>168.10059</ele>
        <time>2026-05-13T14:41:14+02:00</time>
        <extensions>
          <gpxtpx:TrackPointExtension xmlns:gpxtpx="http://www.garmin.com/xmlschemas/TrackPointExtension/v1">
            <gpxtpx:hr>150</gpxtpx:hr>
          </gpxtpx:TrackPointExtension>
        </extensions>
      </trkpt>
      <trkpt lat="46.30381" lon="4.83459">
        <ele>168.10059</ele>
        <time>2026-05-13T14:41:15+02:00</time>
        <extensions>
          <gpxtpx:TrackPointExtension xmlns:gpxtpx="http://www.garmin.com/xmlschemas/TrackPointExtension/v1">
            <gpxtpx:hr>151</gpxtpx:hr>
          </gpxtpx:TrackPointExtension>
        </extensions>
      </trkpt>
      <trkpt lat="46.30385" lon="4.83463">
        <ele>168.2998</ele>
        <time>2026-05-13T14:41:16+02:00</time>
        <extensions>
          <gpxtpx:TrackPointExtension xmlns:gpxtpx="http://www.garmin.com/xmlschemas/TrackPointExtension/v1">
            <gpxtpx:hr>151</gpxtpx:hr>
          </gpxtpx:TrackPointExtension>
        </extensions>
      </trkpt>
      <trkpt lat="46.30386" lon="4.83467">
        <ele>168.2998</ele>
        <time>2026-05-13T14:41:17+02:00</time>
        <extensions>
          <gpxtpx:TrackPointExtension xmlns:gpxtpx="http://www.garmin.com/xmlschemas/TrackPointExtension/v1">
            <gpxtpx:hr>151</gpxtpx:hr>
          </gpxtpx:TrackPointExtension>
        </extensions>
      </trkpt>
      <trkpt lat="46.30387" lon="4.83471">
        <ele>168.2998</ele>
        <time>2026-05-13T14:41:18+02:00</time>
        <extensions>
          <gpxtpx:TrackPointExtension xmlns:gpxtpx="http://www.garmin.com/xmlschemas/TrackPointExtension/v1">
            <gpxtpx:hr>150</gpxtpx:hr>
          </gpxtpx:TrackPointExtension>
        </extensions>
      </trkpt>
      <trkpt lat="46.30387" lon="4.83473">
        <ele>168.2998</ele>
        <time>2026-05-13T14:41:19+02:00</time>
        <extensions>
          <gpxtpx:TrackPointExtension xmlns:gpxtpx="http://www.garmin.com/xmlschemas/TrackPointExtension/v1">
            <gpxtpx:hr>150</gpxtpx:hr>
          </gpxtpx:TrackPointExtension>
        </extensions>
      </trkpt>
      <trkpt lat="46.30388" lon="4.83474">
        <ele>168.2998</ele>
        <time>2026-05-13T14:41:20+02:00</time>
        <extensions>
          <gpxtpx:TrackPointExtension xmlns:gpxtpx="http://www.garmin.com/xmlschemas/TrackPointExtension/v1">
            <gpxtpx:hr>148</gpxtpx:hr>
          </gpxtpx:TrackPointExtension>
        </extensions>
      </trkpt>
      <trkpt lat="46.30388" lon="4.83473">
        <ele>168.2998</ele>
        <time>2026-05-13T14:41:21+02:00</time>
        <extensions>
          <gpxtpx:TrackPointExtension xmlns:gpxtpx="http://www.garmin.com/xmlschemas/TrackPointExtension/v1">
            <gpxtpx:hr>147</gpxtpx:hr>
          </gpxtpx:TrackPointExtension>
        </extensions>
      </trkpt>
      <trkpt lat="46.30388" lon="4.83473">
        <ele>168.2998</ele>
        <time>2026-05-13T14:41:22+02:00</time>
        <extensions>
          <gpxtpx:TrackPointExtension xmlns:gpxtpx="http://www.garmin.com/xmlschemas/TrackPointExtension/v1">
            <gpxtpx:hr>147</gpxtpx:hr>
          </gpxtpx:TrackPointExtension>
        </extensions>
      </trkpt>
      <trkpt lat="46.30388" lon="4.83473">
        <ele>168.2998</ele>
        <time>2026-05-13T14:41:23+02:00</time>
        <extensions>
          <gpxtpx:TrackPointExtension xmlns:gpxtpx="http://www.garmin.com/xmlschemas/TrackPointExtension/v1">
            <gpxtpx:hr>148</gpxtpx:hr>
          </gpxtpx:TrackPointExtension>
        </extensions>
      </trkpt>
      <trkpt lat="46.30388" lon="4.83473">
        <ele>168.2998</ele>
        <time>2026-05-13T14:41:24+02:00</time>
        <extensions>
          <gpxtpx:TrackPointExtension xmlns:gpxtpx="http://www.garmin.com/xmlschemas/TrackPointExtension/v1">
            <gpxtpx:hr>147</gpxtpx:hr>
          </gpxtpx:TrackPointExtension>
        </extensions>
      </trkpt>
      <trkpt lat="46.30398" lon="4.83471">
        <ele>168.40039</ele>
        <time>2026-05-13T14:41:33+02:00</time>
        <extensions>
          <gpxtpx:TrackPointExtension xmlns:gpxtpx="http://www.garmin.com/xmlschemas/TrackPointExtension/v1">
            <gpxtpx:hr>151</gpxtpx:hr>
          </gpxtpx:TrackPointExtension>
        </extensions>
      </trkpt>
      <trkpt lat="46.30399" lon="4.83472">
        <ele>168.40039</ele>
        <time>2026-05-13T14:41:34+02:00</time>
        <extensions>
          <gpxtpx:TrackPointExtension xmlns:gpxtpx="http://www.garmin.com/xmlschemas/TrackPointExtension/v1">
            <gpxtpx:hr>151</gpxtpx:hr>
          </gpxtpx:TrackPointExtension>
        </extensions>
      </trkpt>
      <trkpt lat="46.30399" lon="4.83472">
        <ele>168.40039</ele>
        <time>2026-05-13T14:41:35+02:00</time>
        <extensions>
          <gpxtpx:TrackPointExtension xmlns:gpxtpx="http://www.garmin.com/xmlschemas/TrackPointExtension/v1">
            <gpxtpx:hr>150</gpxtpx:hr>
          </gpxtpx:TrackPointExtension>
        </extensions>
      </trkpt>
      <trkpt lat="46.30399" lon="4.83473">
        <ele>168.40039</ele>
        <time>2026-05-13T14:41:36+02:00</time>
        <extensions>
          <gpxtpx:TrackPointExtension xmlns:gpxtpx="http://www.garmin.com/xmlschemas/TrackPointExtension/v1">
            <gpxtpx:hr>149</gpxtpx:hr>
          </gpxtpx:TrackPointExtension>
        </extensions>
      </trkpt>
      <trkpt lat="46.30399" lon="4.83473">
        <ele>168.40039</ele>
        <time>2026-05-13T14:41:37+02:00</time>
        <extensions>
          <gpxtpx:TrackPointExtension xmlns:gpxtpx="http://www.garmin.com/xmlschemas/TrackPointExtension/v1">
            <gpxtpx:hr>149</gpxtpx:hr>
          </gpxtpx:TrackPointExtension>
        </extensions>
      </trkpt>
      <trkpt lat="46.30399" lon="4.83473">
        <ele>168.40039</ele>
        <time>2026-05-13T14:41:38+02:00</time>
        <extensions>
          <gpxtpx:TrackPointExtension xmlns:gpxtpx="http://www.garmin.com/xmlschemas/TrackPointExtension/v1">
            <gpxtpx:hr>148</gpxtpx:hr>
          </gpxtpx:TrackPointExtension>
        </extensions>
      </trkpt>
      <trkpt lat="46.30399" lon="4.83473">
        <ele>168.40039</ele>
        <time>2026-05-13T14:41:39+02:00</time>
        <extensions>
          <gpxtpx:TrackPointExtension xmlns:gpxtpx="http://www.garmin.com/xmlschemas/TrackPointExtension/v1">
            <gpxtpx:hr>147</gpxtpx:hr>
          </gpxtpx:TrackPointExtension>
        </extensions>
      </trkpt>
      <trkpt lat="46.30386" lon="4.83458">
        <ele>168.40039</ele>
        <time>2026-05-13T14:42:05+02:00</time>
        <extensions>
          <gpxtpx:TrackPointExtension xmlns:gpxtpx="http://www.garmin.com/xmlschemas/TrackPointExtension/v1">
            <gpxtpx:hr>147</gpxtpx:hr>
          </gpxtpx:TrackPointExtension>
        </extensions>
      </trkpt>
      <trkpt lat="46.30383" lon="4.83457">
        <ele>168.10059</ele>
        <time>2026-05-13T14:42:06+02:00</time>
        <extensions>
          <gpxtpx:TrackPointExtension xmlns:gpxtpx="http://www.garmin.com/xmlschemas/TrackPointExtension/v1">
            <gpxtpx:hr>149</gpxtpx:hr>
          </gpxtpx:TrackPointExtension>
        </extensions>
      </trkpt>
      <trkpt lat="46.30381" lon="4.83456">
        <ele>168.10059</ele>
        <time>2026-05-13T14:42:07+02:00</time>
        <extensions>
          <gpxtpx:TrackPointExtension xmlns:gpxtpx="http://www.garmin.com/xmlschemas/TrackPointExtension/v1">
            <gpxtpx:hr>149</gpxtpx:hr>
          </gpxtpx:TrackPointExtension>
        </extensions>
      </trkpt>
      <trkpt lat="46.30379" lon="4.83455">
        <ele>168.10059</ele>
        <time>2026-05-13T14:42:08+02:00</time>
        <extensions>
          <gpxtpx:TrackPointExtension xmlns:gpxtpx="http://www.garmin.com/xmlschemas/TrackPointExtension/v1">
            <gpxtpx:hr>148</gpxtpx:hr>
          </gpxtpx:TrackPointExtension>
        </extensions>
      </trkpt>
      <trkpt lat="46.30376" lon="4.83454">
        <ele>168.10059</ele>
        <time>2026-05-13T14:42:09+02:00</time>
        <extensions>
          <gpxtpx:TrackPointExtension xmlns:gpxtpx="http://www.garmin.com/xmlschemas/TrackPointExtension/v1">
            <gpxtpx:hr>148</gpxtpx:hr>
          </gpxtpx:TrackPointExtension>
        </extensions>
      </trkpt>
      <trkpt lat="46.30374" lon="4.83453">
        <ele>168.10059</ele>
        <time>2026-05-13T14:42:10+02:00</time>
        <extensions>
          <gpxtpx:TrackPointExtension xmlns:gpxtpx="http://www.garmin.com/xmlschemas/TrackPointExtension/v1">
            <gpxtpx:hr>147</gpxtpx:hr>
          </gpxtpx:TrackPointExtension>
        </extensions>
      </trkpt>
      <trkpt lat="46.30372" lon="4.83453">
        <ele>168.10059</ele>
        <time>2026-05-13T14:42:11+02:00</time>
        <extensions>
          <gpxtpx:TrackPointExtension xmlns:gpxtpx="http://www.garmin.com/xmlschemas/TrackPointExtension/v1">
            <gpxtpx:hr>148</gpxtpx:hr>
          </gpxtpx:TrackPointExtension>
        </extensions>
      </trkpt>
      <trkpt lat="46.3037" lon="4.83453">
        <ele>168.10059</ele>
        <time>2026-05-13T14:42:12+02:00</time>
        <extensions>
          <gpxtpx:TrackPointExtension xmlns:gpxtpx="http://www.garmin.com/xmlschemas/TrackPointExtension/v1">
            <gpxtpx:hr>147</gpxtpx:hr>
          </gpxtpx:TrackPointExtension>
        </extensions>
      </trkpt>
      <trkpt lat="46.30368" lon="4.83453">
        <ele>168.10059</ele>
        <time>2026-05-13T14:42:13+02:00</time>
        <extensions>
          <gpxtpx:TrackPointExtension xmlns:gpxtpx="http://www.garmin.com/xmlschemas/TrackPointExtension/v1">
            <gpxtpx:hr>146</gpxtpx:hr>
          </gpxtpx:TrackPointExtension>
        </extensions>
      </trkpt>
      <trkpt lat="46.30366" lon="4.83452">
        <ele>168.10059</ele>
        <time>2026-05-13T14:42:14+02:00</time>
        <extensions>
          <gpxtpx:TrackPointExtension xmlns:gpxtpx="http://www.garmin.com/xmlschemas/TrackPointExtension/v1">
            <gpxtpx:hr>144</gpxtpx:hr>
          </gpxtpx:TrackPointExtension>
        </extensions>
      </trkpt>
      <trkpt lat="46.30362" lon="4.83451">
        <ele>168.2002</ele>
        <time>2026-05-13T14:42:15+02:00</time>
        <extensions>
          <gpxtpx:TrackPointExtension xmlns:gpxtpx="http://www.garmin.com/xmlschemas/TrackPointExtension/v1">
            <gpxtpx:hr>145</gpxtpx:hr>
          </gpxtpx:TrackPointExtension>
        </extensions>
      </trkpt>
      <trkpt lat="46.3036" lon="4.83449">
        <ele>168.2002</ele>
        <time>2026-05-13T14:42:16+02:00</time>
        <extensions>
          <gpxtpx:TrackPointExtension xmlns:gpxtpx="http://www.garmin.com/xmlschemas/TrackPointExtension/v1">
            <gpxtpx:hr>145</gpxtpx:hr>
          </gpxtpx:TrackPointExtension>
        </extensions>
      </trkpt>
      <trkpt lat="46.30357" lon="4.83447">
        <ele>168.2002</ele>
        <time>2026-05-13T14:42:17+02:00</time>
        <extensions>
          <gpxtpx:TrackPointExtension xmlns:gpxtpx="http://www.garmin.com/xmlschemas/TrackPointExtension/v1">
            <gpxtpx:hr>146</gpxtpx:hr>
          </gpxtpx:TrackPointExtension>
        </extensions>
      </trkpt>
      <trkpt lat="46.30354" lon="4.83445">
        <ele>168.2002</ele>
        <time>2026-05-13T14:42:18+02:00</time>
        <extensions>
          <gpxtpx:TrackPointExtension xmlns:gpxtpx="http://www.garmin.com/xmlschemas/TrackPointExtension/v1">
            <gpxtpx:hr>146</gpxtpx:hr>
          </gpxtpx:TrackPointExtension>
        </extensions>
      </trkpt>
      <trkpt lat="46.30351" lon="4.83442">
        <ele>168.2002</ele>
        <time>2026-05-13T14:42:19+02:00</time>
        <extensions>
          <gpxtpx:TrackPointExtension xmlns:gpxtpx="http://www.garmin.com/xmlschemas/TrackPointExtension/v1">
            <gpxtpx:hr>146</gpxtpx:hr>
          </gpxtpx:TrackPointExtension>
        </extensions>
      </trkpt>
      <trkpt lat="46.30348" lon="4.8344">
        <ele>168.10059</ele>
        <time>2026-05-13T14:42:20+02:00</time>
        <extensions>
          <gpxtpx:TrackPointExtension xmlns:gpxtpx="http://www.garmin.com/xmlschemas/TrackPointExtension/v1">
            <gpxtpx:hr>145</gpxtpx:hr>
          </gpxtpx:TrackPointExtension>
        </extensions>
      </trkpt>
      <trkpt lat="46.30346" lon="4.83437">
        <ele>168.10059</ele>
        <time>2026-05-13T14:42:21+02:00</time>
        <extensions>
          <gpxtpx:TrackPointExtension xmlns:gpxtpx="http://www.garmin.com/xmlschemas/TrackPointExtension/v1">
            <gpxtpx:hr>146</gpxtpx:hr>
          </gpxtpx:TrackPointExtension>
        </extensions>
      </trkpt>
      <trkpt lat="46.30344" lon="4.83434">
        <ele>168.10059</ele>
        <time>2026-05-13T14:42:22+02:00</time>
        <extensions>
          <gpxtpx:TrackPointExtension xmlns:gpxtpx="http://www.garmin.com/xmlschemas/TrackPointExtension/v1">
            <gpxtpx:hr>146</gpxtpx:hr>
          </gpxtpx:TrackPointExtension>
        </extensions>
      </trkpt>
      <trkpt lat="46.30342" lon="4.83431">
        <ele>168.10059</ele>
        <time>2026-05-13T14:42:23+02:00</time>
        <extensions>
          <gpxtpx:TrackPointExtension xmlns:gpxtpx="http://www.garmin.com/xmlschemas/TrackPointExtension/v1">
            <gpxtpx:hr>146</gpxtpx:hr>
          </gpxtpx:TrackPointExtension>
        </extensions>
      </trkpt>
      <trkpt lat="46.3034" lon="4.83429">
        <ele>168.10059</ele>
        <time>2026-05-13T14:42:24+02:00</time>
        <extensions>
          <gpxtpx:TrackPointExtension xmlns:gpxtpx="http://www.garmin.com/xmlschemas/TrackPointExtension/v1">
            <gpxtpx:hr>145</gpxtpx:hr>
          </gpxtpx:TrackPointExtension>
        </extensions>
      </trkpt>
      <trkpt lat="46.30337" lon="4.83427">
        <ele>168.10059</ele>
        <time>2026-05-13T14:42:25+02:00</time>
        <extensions>
          <gpxtpx:TrackPointExtension xmlns:gpxtpx="http://www.garmin.com/xmlschemas/TrackPointExtension/v1">
            <gpxtpx:hr>145</gpxtpx:hr>
          </gpxtpx:TrackPointExtension>
        </extensions>
      </trkpt>
      <trkpt lat="46.30335" lon="4.83424">
        <ele>168.2998</ele>
        <time>2026-05-13T14:42:26+02:00</time>
        <extensions>
          <gpxtpx:TrackPointExtension xmlns:gpxtpx="http://www.garmin.com/xmlschemas/TrackPointExtension/v1">
            <gpxtpx:hr>146</gpxtpx:hr>
          </gpxtpx:TrackPointExtension>
        </extensions>
      </trkpt>
      <trkpt lat="46.30333" lon="4.83421">
        <ele>168.2998</ele>
        <time>2026-05-13T14:42:27+02:00</time>
        <extensions>
          <gpxtpx:TrackPointExtension xmlns:gpxtpx="http://www.garmin.com/xmlschemas/TrackPointExtension/v1">
            <gpxtpx:hr>146</gpxtpx:hr>
          </gpxtpx:TrackPointExtension>
        </extensions>
      </trkpt>
      <trkpt lat="46.30331" lon="4.83418">
        <ele>168.2998</ele>
        <time>2026-05-13T14:42:28+02:00</time>
        <extensions>
          <gpxtpx:TrackPointExtension xmlns:gpxtpx="http://www.garmin.com/xmlschemas/TrackPointExtension/v1">
            <gpxtpx:hr>145</gpxtpx:hr>
          </gpxtpx:TrackPointExtension>
        </extensions>
      </trkpt>
      <trkpt lat="46.30329" lon="4.83414">
        <ele>168.5</ele>
        <time>2026-05-13T14:42:29+02:00</time>
        <extensions>
          <gpxtpx:TrackPointExtension xmlns:gpxtpx="http://www.garmin.com/xmlschemas/TrackPointExtension/v1">
            <gpxtpx:hr>144</gpxtpx:hr>
          </gpxtpx:TrackPointExtension>
        </extensions>
      </trkpt>
      <trkpt lat="46.30328" lon="4.83411">
        <ele>168.5</ele>
        <time>2026-05-13T14:42:30+02:00</time>
        <extensions>
          <gpxtpx:TrackPointExtension xmlns:gpxtpx="http://www.garmin.com/xmlschemas/TrackPointExtension/v1">
            <gpxtpx:hr>144</gpxtpx:hr>
          </gpxtpx:TrackPointExtension>
        </extensions>
      </trkpt>
      <trkpt lat="46.30329" lon="4.83407">
        <ele>168.5</ele>
        <time>2026-05-13T14:42:31+02:00</time>
        <extensions>
          <gpxtpx:TrackPointExtension xmlns:gpxtpx="http://www.garmin.com/xmlschemas/TrackPointExtension/v1">
            <gpxtpx:hr>143</gpxtpx:hr>
          </gpxtpx:TrackPointExtension>
        </extensions>
      </trkpt>
      <trkpt lat="46.3033" lon="4.83404">
        <ele>168.90039</ele>
        <time>2026-05-13T14:42:32+02:00</time>
        <extensions>
          <gpxtpx:TrackPointExtension xmlns:gpxtpx="http://www.garmin.com/xmlschemas/TrackPointExtension/v1">
            <gpxtpx:hr>143</gpxtpx:hr>
          </gpxtpx:TrackPointExtension>
        </extensions>
      </trkpt>
      <trkpt lat="46.30331" lon="4.83401">
        <ele>169.10059</ele>
        <time>2026-05-13T14:42:33+02:00</time>
        <extensions>
          <gpxtpx:TrackPointExtension xmlns:gpxtpx="http://www.garmin.com/xmlschemas/TrackPointExtension/v1">
            <gpxtpx:hr>142</gpxtpx:hr>
          </gpxtpx:TrackPointExtension>
        </extensions>
      </trkpt>
      <trkpt lat="46.30332" lon="4.83399">
        <ele>169.10059</ele>
        <time>2026-05-13T14:42:34+02:00</time>
        <extensions>
          <gpxtpx:TrackPointExtension xmlns:gpxtpx="http://www.garmin.com/xmlschemas/TrackPointExtension/v1">
            <gpxtpx:hr>141</gpxtpx:hr>
          </gpxtpx:TrackPointExtension>
        </extensions>
      </trkpt>
      <trkpt lat="46.30334" lon="4.83397">
        <ele>169.7998</ele>
        <time>2026-05-13T14:42:35+02:00</time>
        <extensions>
          <gpxtpx:TrackPointExtension xmlns:gpxtpx="http://www.garmin.com/xmlschemas/TrackPointExtension/v1">
            <gpxtpx:hr>141</gpxtpx:hr>
          </gpxtpx:TrackPointExtension>
        </extensions>
      </trkpt>
      <trkpt lat="46.30335" lon="4.83395">
        <ele>169.7998</ele>
        <time>2026-05-13T14:42:36+02:00</time>
        <extensions>
          <gpxtpx:TrackPointExtension xmlns:gpxtpx="http://www.garmin.com/xmlschemas/TrackPointExtension/v1">
            <gpxtpx:hr>141</gpxtpx:hr>
          </gpxtpx:TrackPointExtension>
        </extensions>
      </trkpt>
      <trkpt lat="46.30336" lon="4.83393">
        <ele>169.7998</ele>
        <time>2026-05-13T14:42:37+02:00</time>
        <extensions>
          <gpxtpx:TrackPointExtension xmlns:gpxtpx="http://www.garmin.com/xmlschemas/TrackPointExtension/v1">
            <gpxtpx:hr>141</gpxtpx:hr>
          </gpxtpx:TrackPointExtension>
        </extensions>
      </trkpt>
      <trkpt lat="46.30337" lon="4.83391">
        <ele>170.10059</ele>
        <time>2026-05-13T14:42:38+02:00</time>
        <extensions>
          <gpxtpx:TrackPointExtension xmlns:gpxtpx="http://www.garmin.com/xmlschemas/TrackPointExtension/v1">
            <gpxtpx:hr>141</gpxtpx:hr>
          </gpxtpx:TrackPointExtension>
        </extensions>
      </trkpt>
      <trkpt lat="46.30338" lon="4.83389">
        <ele>171.10059</ele>
        <time>2026-05-13T14:42:39+02:00</time>
        <extensions>
          <gpxtpx:TrackPointExtension xmlns:gpxtpx="http://www.garmin.com/xmlschemas/TrackPointExtension/v1">
            <gpxtpx:hr>141</gpxtpx:hr>
          </gpxtpx:TrackPointExtension>
        </extensions>
      </trkpt>
      <trkpt lat="46.30338" lon="4.83386">
        <ele>171.10059</ele>
        <time>2026-05-13T14:42:40+02:00</time>
        <extensions>
          <gpxtpx:TrackPointExtension xmlns:gpxtpx="http://www.garmin.com/xmlschemas/TrackPointExtension/v1">
            <gpxtpx:hr>141</gpxtpx:hr>
          </gpxtpx:TrackPointExtension>
        </extensions>
      </trkpt>
      <trkpt lat="46.30339" lon="4.83383">
        <ele>171.10059</ele>
        <time>2026-05-13T14:42:41+02:00</time>
        <extensions>
          <gpxtpx:TrackPointExtension xmlns:gpxtpx="http://www.garmin.com/xmlschemas/TrackPointExtension/v1">
            <gpxtpx:hr>142</gpxtpx:hr>
          </gpxtpx:TrackPointExtension>
        </extensions>
      </trkpt>
      <trkpt lat="46.3034" lon="4.83381">
        <ele>172.10059</ele>
        <time>2026-05-13T14:42:42+02:00</time>
        <extensions>
          <gpxtpx:TrackPointExtension xmlns:gpxtpx="http://www.garmin.com/xmlschemas/TrackPointExtension/v1">
            <gpxtpx:hr>142</gpxtpx:hr>
          </gpxtpx:TrackPointExtension>
        </extensions>
      </trkpt>
      <trkpt lat="46.3034" lon="4.83378">
        <ele>172.10059</ele>
        <time>2026-05-13T14:42:43+02:00</time>
        <extensions>
          <gpxtpx:TrackPointExtension xmlns:gpxtpx="http://www.garmin.com/xmlschemas/TrackPointExtension/v1">
            <gpxtpx:hr>142</gpxtpx:hr>
          </gpxtpx:TrackPointExtension>
        </extensions>
      </trkpt>
      <trkpt lat="46.3034" lon="4.83377">
        <ele>172.10059</ele>
        <time>2026-05-13T14:42:44+02:00</time>
        <extensions>
          <gpxtpx:TrackPointExtension xmlns:gpxtpx="http://www.garmin.com/xmlschemas/TrackPointExtension/v1">
            <gpxtpx:hr>143</gpxtpx:hr>
          </gpxtpx:TrackPointExtension>
        </extensions>
      </trkpt>
      <trkpt lat="46.30341" lon="4.83377">
        <ele>172.10059</ele>
        <time>2026-05-13T14:42:45+02:00</time>
        <extensions>
          <gpxtpx:TrackPointExtension xmlns:gpxtpx="http://www.garmin.com/xmlschemas/TrackPointExtension/v1">
            <gpxtpx:hr>143</gpxtpx:hr>
          </gpxtpx:TrackPointExtension>
        </extensions>
      </trkpt>
      <trkpt lat="46.30341" lon="4.83377">
        <ele>172.10059</ele>
        <time>2026-05-13T14:42:46+02:00</time>
        <extensions>
          <gpxtpx:TrackPointExtension xmlns:gpxtpx="http://www.garmin.com/xmlschemas/TrackPointExtension/v1">
            <gpxtpx:hr>142</gpxtpx:hr>
          </gpxtpx:TrackPointExtension>
        </extensions>
      </trkpt>
      <trkpt lat="46.30341" lon="4.83377">
        <ele>172.10059</ele>
        <time>2026-05-13T14:42:47+02:00</time>
        <extensions>
          <gpxtpx:TrackPointExtension xmlns:gpxtpx="http://www.garmin.com/xmlschemas/TrackPointExtension/v1">
            <gpxtpx:hr>142</gpxtpx:hr>
          </gpxtpx:TrackPointExtension>
        </extensions>
      </trkpt>
      <trkpt lat="46.30341" lon="4.83377">
        <ele>172.10059</ele>
        <time>2026-05-13T14:42:48+02:00</time>
        <extensions>
          <gpxtpx:TrackPointExtension xmlns:gpxtpx="http://www.garmin.com/xmlschemas/TrackPointExtension/v1">
            <gpxtpx:hr>142</gpxtpx:hr>
          </gpxtpx:TrackPointExtension>
        </extensions>
      </trkpt>
      <trkpt lat="46.30351" lon="4.83372">
        <ele>174.7002</ele>
        <time>2026-05-13T14:43:20+02:00</time>
        <extensions>
          <gpxtpx:TrackPointExtension xmlns:gpxtpx="http://www.garmin.com/xmlschemas/TrackPointExtension/v1">
            <gpxtpx:hr>144</gpxtpx:hr>
          </gpxtpx:TrackPointExtension>
        </extensions>
      </trkpt>
      <trkpt lat="46.30353" lon="4.83372">
        <ele>174.7002</ele>
        <time>2026-05-13T14:43:21+02:00</time>
        <extensions>
          <gpxtpx:TrackPointExtension xmlns:gpxtpx="http://www.garmin.com/xmlschemas/TrackPointExtension/v1">
            <gpxtpx:hr>144</gpxtpx:hr>
          </gpxtpx:TrackPointExtension>
        </extensions>
      </trkpt>
      <trkpt lat="46.30354" lon="4.83371">
        <ele>174.7002</ele>
        <time>2026-05-13T14:43:22+02:00</time>
        <extensions>
          <gpxtpx:TrackPointExtension xmlns:gpxtpx="http://www.garmin.com/xmlschemas/TrackPointExtension/v1">
            <gpxtpx:hr>143</gpxtpx:hr>
          </gpxtpx:TrackPointExtension>
        </extensions>
      </trkpt>
      <trkpt lat="46.30356" lon="4.83369">
        <ele>175.2002</ele>
        <time>2026-05-13T14:43:23+02:00</time>
        <extensions>
          <gpxtpx:TrackPointExtension xmlns:gpxtpx="http://www.garmin.com/xmlschemas/TrackPointExtension/v1">
            <gpxtpx:hr>142</gpxtpx:hr>
          </gpxtpx:TrackPointExtension>
        </extensions>
      </trkpt>
      <trkpt lat="46.30356" lon="4.83368">
        <ele>175.2002</ele>
        <time>2026-05-13T14:43:24+02:00</time>
        <extensions>
          <gpxtpx:TrackPointExtension xmlns:gpxtpx="http://www.garmin.com/xmlschemas/TrackPointExtension/v1">
            <gpxtpx:hr>141</gpxtpx:hr>
          </gpxtpx:TrackPointExtension>
        </extensions>
      </trkpt>
      <trkpt lat="46.30357" lon="4.83367">
        <ele>175.2002</ele>
        <time>2026-05-13T14:43:25+02:00</time>
        <extensions>
          <gpxtpx:TrackPointExtension xmlns:gpxtpx="http://www.garmin.com/xmlschemas/TrackPointExtension/v1">
            <gpxtpx:hr>139</gpxtpx:hr>
          </gpxtpx:TrackPointExtension>
        </extensions>
      </trkpt>
      <trkpt lat="46.30358" lon="4.83366">
        <ele>175.2002</ele>
        <time>2026-05-13T14:43:26+02:00</time>
        <extensions>
          <gpxtpx:TrackPointExtension xmlns:gpxtpx="http://www.garmin.com/xmlschemas/TrackPointExtension/v1">
            <gpxtpx:hr>140</gpxtpx:hr>
          </gpxtpx:TrackPointExtension>
        </extensions>
      </trkpt>
      <trkpt lat="46.30359" lon="4.83364">
        <ele>176.5</ele>
        <time>2026-05-13T14:43:27+02:00</time>
        <extensions>
          <gpxtpx:TrackPointExtension xmlns:gpxtpx="http://www.garmin.com/xmlschemas/TrackPointExtension/v1">
            <gpxtpx:hr>140</gpxtpx:hr>
          </gpxtpx:TrackPointExtension>
        </extensions>
      </trkpt>
      <trkpt lat="46.3036" lon="4.83363">
        <ele>176.7998</ele>
        <time>2026-05-13T14:43:29+02:00</time>
        <extensions>
          <gpxtpx:TrackPointExtension xmlns:gpxtpx="http://www.garmin.com/xmlschemas/TrackPointExtension/v1">
            <gpxtpx:hr>142</gpxtpx:hr>
          </gpxtpx:TrackPointExtension>
        </extensions>
      </trkpt>
      <trkpt lat="46.3036" lon="4.83363">
        <ele>176.7998</ele>
        <time>2026-05-13T14:43:30+02:00</time>
        <extensions>
          <gpxtpx:TrackPointExtension xmlns:gpxtpx="http://www.garmin.com/xmlschemas/TrackPointExtension/v1">
            <gpxtpx:hr>142</gpxtpx:hr>
          </gpxtpx:TrackPointExtension>
        </extensions>
      </trkpt>
      <trkpt lat="46.30368" lon="4.83344">
        <ele>178.5</ele>
        <time>2026-05-13T14:43:41+02:00</time>
        <extensions>
          <gpxtpx:TrackPointExtension xmlns:gpxtpx="http://www.garmin.com/xmlschemas/TrackPointExtension/v1">
            <gpxtpx:hr>147</gpxtpx:hr>
          </gpxtpx:TrackPointExtension>
        </extensions>
      </trkpt>
      <trkpt lat="46.3037" lon="4.8334">
        <ele>178.5</ele>
        <time>2026-05-13T14:43:42+02:00</time>
        <extensions>
          <gpxtpx:TrackPointExtension xmlns:gpxtpx="http://www.garmin.com/xmlschemas/TrackPointExtension/v1">
            <gpxtpx:hr>147</gpxtpx:hr>
          </gpxtpx:TrackPointExtension>
        </extensions>
      </trkpt>
      <trkpt lat="46.30373" lon="4.83336">
        <ele>179.10059</ele>
        <time>2026-05-13T14:43:43+02:00</time>
        <extensions>
          <gpxtpx:TrackPointExtension xmlns:gpxtpx="http://www.garmin.com/xmlschemas/TrackPointExtension/v1">
            <gpxtpx:hr>147</gpxtpx:hr>
          </gpxtpx:TrackPointExtension>
        </extensions>
      </trkpt>
      <trkpt lat="46.30375" lon="4.83332">
        <ele>179.10059</ele>
        <time>2026-05-13T14:43:44+02:00</time>
        <extensions>
          <gpxtpx:TrackPointExtension xmlns:gpxtpx="http://www.garmin.com/xmlschemas/TrackPointExtension/v1">
            <gpxtpx:hr>146</gpxtpx:hr>
          </gpxtpx:TrackPointExtension>
        </extensions>
      </trkpt>
      <trkpt lat="46.30377" lon="4.83327">
        <ele>179.2002</ele>
        <time>2026-05-13T14:43:45+02:00</time>
        <extensions>
          <gpxtpx:TrackPointExtension xmlns:gpxtpx="http://www.garmin.com/xmlschemas/TrackPointExtension/v1">
            <gpxtpx:hr>146</gpxtpx:hr>
          </gpxtpx:TrackPointExtension>
        </extensions>
      </trkpt>
      <trkpt lat="46.30379" lon="4.83322">
        <ele>179.5</ele>
        <time>2026-05-13T14:43:46+02:00</time>
        <extensions>
          <gpxtpx:TrackPointExtension xmlns:gpxtpx="http://www.garmin.com/xmlschemas/TrackPointExtension/v1">
            <gpxtpx:hr>146</gpxtpx:hr>
          </gpxtpx:TrackPointExtension>
        </extensions>
      </trkpt>
      <trkpt lat="46.30382" lon="4.83317">
        <ele>179.7002</ele>
        <time>2026-05-13T14:43:47+02:00</time>
        <extensions>
          <gpxtpx:TrackPointExtension xmlns:gpxtpx="http://www.garmin.com/xmlschemas/TrackPointExtension/v1">
            <gpxtpx:hr>147</gpxtpx:hr>
          </gpxtpx:TrackPointExtension>
        </extensions>
      </trkpt>
      <trkpt lat="46.30384" lon="4.83312">
        <ele>180.2002</ele>
        <time>2026-05-13T14:43:48+02:00</time>
        <extensions>
          <gpxtpx:TrackPointExtension xmlns:gpxtpx="http://www.garmin.com/xmlschemas/TrackPointExtension/v1">
            <gpxtpx:hr>147</gpxtpx:hr>
          </gpxtpx:TrackPointExtension>
        </extensions>
      </trkpt>
      <trkpt lat="46.30386" lon="4.83307">
        <ele>180.2002</ele>
        <time>2026-05-13T14:43:49+02:00</time>
        <extensions>
          <gpxtpx:TrackPointExtension xmlns:gpxtpx="http://www.garmin.com/xmlschemas/TrackPointExtension/v1">
            <gpxtpx:hr>146</gpxtpx:hr>
          </gpxtpx:TrackPointExtension>
        </extensions>
      </trkpt>
      <trkpt lat="46.30388" lon="4.83303">
        <ele>180.2998</ele>
        <time>2026-05-13T14:43:50+02:00</time>
        <extensions>
          <gpxtpx:TrackPointExtension xmlns:gpxtpx="http://www.garmin.com/xmlschemas/TrackPointExtension/v1">
            <gpxtpx:hr>145</gpxtpx:hr>
          </gpxtpx:TrackPointExtension>
        </extensions>
      </trkpt>
      <trkpt lat="46.30389" lon="4.833">
        <ele>180.2998</ele>
        <time>2026-05-13T14:43:51+02:00</time>
        <extensions>
          <gpxtpx:TrackPointExtension xmlns:gpxtpx="http://www.garmin.com/xmlschemas/TrackPointExtension/v1">
            <gpxtpx:hr>142</gpxtpx:hr>
          </gpxtpx:TrackPointExtension>
        </extensions>
      </trkpt>
      <trkpt lat="46.3039" lon="4.83298">
        <ele>180.60059</ele>
        <time>2026-05-13T14:43:52+02:00</time>
        <extensions>
          <gpxtpx:TrackPointExtension xmlns:gpxtpx="http://www.garmin.com/xmlschemas/TrackPointExtension/v1">
            <gpxtpx:hr>141</gpxtpx:hr>
          </gpxtpx:TrackPointExtension>
        </extensions>
      </trkpt>
      <trkpt lat="46.30391" lon="4.83296">
        <ele>180.60059</ele>
        <time>2026-05-13T14:43:53+02:00</time>
        <extensions>
          <gpxtpx:TrackPointExtension xmlns:gpxtpx="http://www.garmin.com/xmlschemas/TrackPointExtension/v1">
            <gpxtpx:hr>140</gpxtpx:hr>
          </gpxtpx:TrackPointExtension>
        </extensions>
      </trkpt>
      <trkpt lat="46.30391" lon="4.83295">
        <ele>180.7002</ele>
        <time>2026-05-13T14:43:54+02:00</time>
        <extensions>
          <gpxtpx:TrackPointExtension xmlns:gpxtpx="http://www.garmin.com/xmlschemas/TrackPointExtension/v1">
            <gpxtpx:hr>140</gpxtpx:hr>
          </gpxtpx:TrackPointExtension>
        </extensions>
      </trkpt>
      <trkpt lat="46.30391" lon="4.83294">
        <ele>180.7002</ele>
        <time>2026-05-13T14:43:55+02:00</time>
        <extensions>
          <gpxtpx:TrackPointExtension xmlns:gpxtpx="http://www.garmin.com/xmlschemas/TrackPointExtension/v1">
            <gpxtpx:hr>140</gpxtpx:hr>
          </gpxtpx:TrackPointExtension>
        </extensions>
      </trkpt>
      <trkpt lat="46.30392" lon="4.83293">
        <ele>180.7002</ele>
        <time>2026-05-13T14:43:56+02:00</time>
        <extensions>
          <gpxtpx:TrackPointExtension xmlns:gpxtpx="http://www.garmin.com/xmlschemas/TrackPointExtension/v1">
            <gpxtpx:hr>140</gpxtpx:hr>
          </gpxtpx:TrackPointExtension>
        </extensions>
      </trkpt>
      <trkpt lat="46.30392" lon="4.83293">
        <ele>180.7002</ele>
        <time>2026-05-13T14:43:57+02:00</time>
        <extensions>
          <gpxtpx:TrackPointExtension xmlns:gpxtpx="http://www.garmin.com/xmlschemas/TrackPointExtension/v1">
            <gpxtpx:hr>140</gpxtpx:hr>
          </gpxtpx:TrackPointExtension>
        </extensions>
      </trkpt>
      <trkpt lat="46.30391" lon="4.83291">
        <ele>180.7002</ele>
        <time>2026-05-13T14:43:58+02:00</time>
        <extensions>
          <gpxtpx:TrackPointExtension xmlns:gpxtpx="http://www.garmin.com/xmlschemas/TrackPointExtension/v1">
            <gpxtpx:hr>140</gpxtpx:hr>
          </gpxtpx:TrackPointExtension>
        </extensions>
      </trkpt>
      <trkpt lat="46.30399" lon="4.83279">
        <ele>181</ele>
        <time>2026-05-13T14:44:04+02:00</time>
        <extensions>
          <gpxtpx:TrackPointExtension xmlns:gpxtpx="http://www.garmin.com/xmlschemas/TrackPointExtension/v1">
            <gpxtpx:hr>143</gpxtpx:hr>
          </gpxtpx:TrackPointExtension>
        </extensions>
      </trkpt>
      <trkpt lat="46.30401" lon="4.83275">
        <ele>181</ele>
        <time>2026-05-13T14:44:05+02:00</time>
        <extensions>
          <gpxtpx:TrackPointExtension xmlns:gpxtpx="http://www.garmin.com/xmlschemas/TrackPointExtension/v1">
            <gpxtpx:hr>144</gpxtpx:hr>
          </gpxtpx:TrackPointExtension>
        </extensions>
      </trkpt>
      <trkpt lat="46.30402" lon="4.83272">
        <ele>181.2002</ele>
        <time>2026-05-13T14:44:06+02:00</time>
        <extensions>
          <gpxtpx:TrackPointExtension xmlns:gpxtpx="http://www.garmin.com/xmlschemas/TrackPointExtension/v1">
            <gpxtpx:hr>145</gpxtpx:hr>
          </gpxtpx:TrackPointExtension>
        </extensions>
      </trkpt>
      <trkpt lat="46.30404" lon="4.83269">
        <ele>181.2002</ele>
        <time>2026-05-13T14:44:07+02:00</time>
        <extensions>
          <gpxtpx:TrackPointExtension xmlns:gpxtpx="http://www.garmin.com/xmlschemas/TrackPointExtension/v1">
            <gpxtpx:hr>145</gpxtpx:hr>
          </gpxtpx:TrackPointExtension>
        </extensions>
      </trkpt>
      <trkpt lat="46.30406" lon="4.83265">
        <ele>181.2002</ele>
        <time>2026-05-13T14:44:08+02:00</time>
        <extensions>
          <gpxtpx:TrackPointExtension xmlns:gpxtpx="http://www.garmin.com/xmlschemas/TrackPointExtension/v1">
            <gpxtpx:hr>145</gpxtpx:hr>
          </gpxtpx:TrackPointExtension>
        </extensions>
      </trkpt>
      <trkpt lat="46.30408" lon="4.83262">
        <ele>181.40039</ele>
        <time>2026-05-13T14:44:09+02:00</time>
        <extensions>
          <gpxtpx:TrackPointExtension xmlns:gpxtpx="http://www.garmin.com/xmlschemas/TrackPointExtension/v1">
            <gpxtpx:hr>146</gpxtpx:hr>
          </gpxtpx:TrackPointExtension>
        </extensions>
      </trkpt>
      <trkpt lat="46.3041" lon="4.83258">
        <ele>181.40039</ele>
        <time>2026-05-13T14:44:10+02:00</time>
        <extensions>
          <gpxtpx:TrackPointExtension xmlns:gpxtpx="http://www.garmin.com/xmlschemas/TrackPointExtension/v1">
            <gpxtpx:hr>146</gpxtpx:hr>
          </gpxtpx:TrackPointExtension>
        </extensions>
      </trkpt>
      <trkpt lat="46.30412" lon="4.83254">
        <ele>181.40039</ele>
        <time>2026-05-13T14:44:11+02:00</time>
        <extensions>
          <gpxtpx:TrackPointExtension xmlns:gpxtpx="http://www.garmin.com/xmlschemas/TrackPointExtension/v1">
            <gpxtpx:hr>146</gpxtpx:hr>
          </gpxtpx:TrackPointExtension>
        </extensions>
      </trkpt>
      <trkpt lat="46.30414" lon="4.8325">
        <ele>181.7002</ele>
        <time>2026-05-13T14:44:12+02:00</time>
        <extensions>
          <gpxtpx:TrackPointExtension xmlns:gpxtpx="http://www.garmin.com/xmlschemas/TrackPointExtension/v1">
            <gpxtpx:hr>146</gpxtpx:hr>
          </gpxtpx:TrackPointExtension>
        </extensions>
      </trkpt>
      <trkpt lat="46.30416" lon="4.83247">
        <ele>181.7002</ele>
        <time>2026-05-13T14:44:13+02:00</time>
        <extensions>
          <gpxtpx:TrackPointExtension xmlns:gpxtpx="http://www.garmin.com/xmlschemas/TrackPointExtension/v1">
            <gpxtpx:hr>146</gpxtpx:hr>
          </gpxtpx:TrackPointExtension>
        </extensions>
      </trkpt>
      <trkpt lat="46.30418" lon="4.83243">
        <ele>181.7002</ele>
        <time>2026-05-13T14:44:14+02:00</time>
        <extensions>
          <gpxtpx:TrackPointExtension xmlns:gpxtpx="http://www.garmin.com/xmlschemas/TrackPointExtension/v1">
            <gpxtpx:hr>146</gpxtpx:hr>
          </gpxtpx:TrackPointExtension>
        </extensions>
      </trkpt>
      <trkpt lat="46.30419" lon="4.83239">
        <ele>181.7002</ele>
        <time>2026-05-13T14:44:15+02:00</time>
        <extensions>
          <gpxtpx:TrackPointExtension xmlns:gpxtpx="http://www.garmin.com/xmlschemas/TrackPointExtension/v1">
            <gpxtpx:hr>147</gpxtpx:hr>
          </gpxtpx:TrackPointExtension>
        </extensions>
      </trkpt>
      <trkpt lat="46.30421" lon="4.83236">
        <ele>182</ele>
        <time>2026-05-13T14:44:16+02:00</time>
        <extensions>
          <gpxtpx:TrackPointExtension xmlns:gpxtpx="http://www.garmin.com/xmlschemas/TrackPointExtension/v1">
            <gpxtpx:hr>147</gpxtpx:hr>
          </gpxtpx:TrackPointExtension>
        </extensions>
      </trkpt>
      <trkpt lat="46.30424" lon="4.83232">
        <ele>182</ele>
        <time>2026-05-13T14:44:17+02:00</time>
        <extensions>
          <gpxtpx:TrackPointExtension xmlns:gpxtpx="http://www.garmin.com/xmlschemas/TrackPointExtension/v1">
            <gpxtpx:hr>148</gpxtpx:hr>
          </gpxtpx:TrackPointExtension>
        </extensions>
      </trkpt>
      <trkpt lat="46.30426" lon="4.83229">
        <ele>182.2998</ele>
        <time>2026-05-13T14:44:18+02:00</time>
        <extensions>
          <gpxtpx:TrackPointExtension xmlns:gpxtpx="http://www.garmin.com/xmlschemas/TrackPointExtension/v1">
            <gpxtpx:hr>149</gpxtpx:hr>
          </gpxtpx:TrackPointExtension>
        </extensions>
      </trkpt>
      <trkpt lat="46.30427" lon="4.83226">
        <ele>182.2998</ele>
        <time>2026-05-13T14:44:19+02:00</time>
        <extensions>
          <gpxtpx:TrackPointExtension xmlns:gpxtpx="http://www.garmin.com/xmlschemas/TrackPointExtension/v1">
            <gpxtpx:hr>149</gpxtpx:hr>
          </gpxtpx:TrackPointExtension>
        </extensions>
      </trkpt>
      <trkpt lat="46.30428" lon="4.83223">
        <ele>182.2998</ele>
        <time>2026-05-13T14:44:20+02:00</time>
        <extensions>
          <gpxtpx:TrackPointExtension xmlns:gpxtpx="http://www.garmin.com/xmlschemas/TrackPointExtension/v1">
            <gpxtpx:hr>149</gpxtpx:hr>
          </gpxtpx:TrackPointExtension>
        </extensions>
      </trkpt>
      <trkpt lat="46.3043" lon="4.8322">
        <ele>182.2998</ele>
        <time>2026-05-13T14:44:21+02:00</time>
        <extensions>
          <gpxtpx:TrackPointExtension xmlns:gpxtpx="http://www.garmin.com/xmlschemas/TrackPointExtension/v1">
            <gpxtpx:hr>149</gpxtpx:hr>
          </gpxtpx:TrackPointExtension>
        </extensions>
      </trkpt>
      <trkpt lat="46.30431" lon="4.83219">
        <ele>182.2998</ele>
        <time>2026-05-13T14:44:22+02:00</time>
        <extensions>
          <gpxtpx:TrackPointExtension xmlns:gpxtpx="http://www.garmin.com/xmlschemas/TrackPointExtension/v1">
            <gpxtpx:hr>149</gpxtpx:hr>
          </gpxtpx:TrackPointExtension>
        </extensions>
      </trkpt>
      <trkpt lat="46.30433" lon="4.83218">
        <ele>182.60059</ele>
        <time>2026-05-13T14:44:23+02:00</time>
        <extensions>
          <gpxtpx:TrackPointExtension xmlns:gpxtpx="http://www.garmin.com/xmlschemas/TrackPointExtension/v1">
            <gpxtpx:hr>149</gpxtpx:hr>
          </gpxtpx:TrackPointExtension>
        </extensions>
      </trkpt>
      <trkpt lat="46.30433" lon="4.83217">
        <ele>182.60059</ele>
        <time>2026-05-13T14:44:24+02:00</time>
        <extensions>
          <gpxtpx:TrackPointExtension xmlns:gpxtpx="http://www.garmin.com/xmlschemas/TrackPointExtension/v1">
            <gpxtpx:hr>149</gpxtpx:hr>
          </gpxtpx:TrackPointExtension>
        </extensions>
      </trkpt>
      <trkpt lat="46.30433" lon="4.83216">
        <ele>182.60059</ele>
        <time>2026-05-13T14:44:25+02:00</time>
        <extensions>
          <gpxtpx:TrackPointExtension xmlns:gpxtpx="http://www.garmin.com/xmlschemas/TrackPointExtension/v1">
            <gpxtpx:hr>148</gpxtpx:hr>
          </gpxtpx:TrackPointExtension>
        </extensions>
      </trkpt>
      <trkpt lat="46.30433" lon="4.83216">
        <ele>182.60059</ele>
        <time>2026-05-13T14:44:26+02:00</time>
        <extensions>
          <gpxtpx:TrackPointExtension xmlns:gpxtpx="http://www.garmin.com/xmlschemas/TrackPointExtension/v1">
            <gpxtpx:hr>149</gpxtpx:hr>
          </gpxtpx:TrackPointExtension>
        </extensions>
      </trkpt>
      <trkpt lat="46.30433" lon="4.83216">
        <ele>182.60059</ele>
        <time>2026-05-13T14:44:27+02:00</time>
        <extensions>
          <gpxtpx:TrackPointExtension xmlns:gpxtpx="http://www.garmin.com/xmlschemas/TrackPointExtension/v1">
            <gpxtpx:hr>149</gpxtpx:hr>
          </gpxtpx:TrackPointExtension>
        </extensions>
      </trkpt>
      <trkpt lat="46.30433" lon="4.83216">
        <ele>182.60059</ele>
        <time>2026-05-13T14:44:28+02:00</time>
        <extensions>
          <gpxtpx:TrackPointExtension xmlns:gpxtpx="http://www.garmin.com/xmlschemas/TrackPointExtension/v1">
            <gpxtpx:hr>148</gpxtpx:hr>
          </gpxtpx:TrackPointExtension>
        </extensions>
      </trkpt>
      <trkpt lat="46.30412" lon="4.83208">
        <ele>181</ele>
        <time>2026-05-13T14:45:09+02:00</time>
        <extensions>
          <gpxtpx:TrackPointExtension xmlns:gpxtpx="http://www.garmin.com/xmlschemas/TrackPointExtension/v1">
            <gpxtpx:hr>142</gpxtpx:hr>
          </gpxtpx:TrackPointExtension>
        </extensions>
      </trkpt>
      <trkpt lat="46.30411" lon="4.8321">
        <ele>181.10059</ele>
        <time>2026-05-13T14:45:10+02:00</time>
        <extensions>
          <gpxtpx:TrackPointExtension xmlns:gpxtpx="http://www.garmin.com/xmlschemas/TrackPointExtension/v1">
            <gpxtpx:hr>141</gpxtpx:hr>
          </gpxtpx:TrackPointExtension>
        </extensions>
      </trkpt>
      <trkpt lat="46.30409" lon="4.83211">
        <ele>181.10059</ele>
        <time>2026-05-13T14:45:11+02:00</time>
        <extensions>
          <gpxtpx:TrackPointExtension xmlns:gpxtpx="http://www.garmin.com/xmlschemas/TrackPointExtension/v1">
            <gpxtpx:hr>140</gpxtpx:hr>
          </gpxtpx:TrackPointExtension>
        </extensions>
      </trkpt>
      <trkpt lat="46.30408" lon="4.83211">
        <ele>181.10059</ele>
        <time>2026-05-13T14:45:12+02:00</time>
        <extensions>
          <gpxtpx:TrackPointExtension xmlns:gpxtpx="http://www.garmin.com/xmlschemas/TrackPointExtension/v1">
            <gpxtpx:hr>141</gpxtpx:hr>
          </gpxtpx:TrackPointExtension>
        </extensions>
      </trkpt>
      <trkpt lat="46.30407" lon="4.83211">
        <ele>180.7998</ele>
        <time>2026-05-13T14:45:13+02:00</time>
        <extensions>
          <gpxtpx:TrackPointExtension xmlns:gpxtpx="http://www.garmin.com/xmlschemas/TrackPointExtension/v1">
            <gpxtpx:hr>141</gpxtpx:hr>
          </gpxtpx:TrackPointExtension>
        </extensions>
      </trkpt>
      <trkpt lat="46.30407" lon="4.83211">
        <ele>180.7998</ele>
        <time>2026-05-13T14:45:14+02:00</time>
        <extensions>
          <gpxtpx:TrackPointExtension xmlns:gpxtpx="http://www.garmin.com/xmlschemas/TrackPointExtension/v1">
            <gpxtpx:hr>142</gpxtpx:hr>
          </gpxtpx:TrackPointExtension>
        </extensions>
      </trkpt>
      <trkpt lat="46.30407" lon="4.83211">
        <ele>180.7998</ele>
        <time>2026-05-13T14:45:15+02:00</time>
        <extensions>
          <gpxtpx:TrackPointExtension xmlns:gpxtpx="http://www.garmin.com/xmlschemas/TrackPointExtension/v1">
            <gpxtpx:hr>143</gpxtpx:hr>
          </gpxtpx:TrackPointExtension>
        </extensions>
      </trkpt>
      <trkpt lat="46.30407" lon="4.83211">
        <ele>180.7998</ele>
        <time>2026-05-13T15:14:31+02:00</time>
      </trkpt>
      <trkpt lat="46.30407" lon="4.83211">
        <ele>180.7998</ele>
        <time>2026-05-13T15:14:32+02:00</time>
      </trkpt>
      <trkpt lat="46.30407" lon="4.83211">
        <ele>180.7998</ele>
        <time>2026-05-13T15:14:33+02:00</time>
      </trkpt>
      <trkpt lat="46.30407" lon="4.83211">
        <ele>180.7998</ele>
        <time>2026-05-13T15:14:34+02:00</time>
      </trkpt>
      <trkpt lat="46.30407" lon="4.83211">
        <ele>180.7998</ele>
        <time>2026-05-13T15:14:35+02:00</time>
      </trkpt>
      <trkpt lat="46.30407" lon="4.83211">
        <ele>180.7998</ele>
        <time>2026-05-13T15:14:36+02:00</time>
      </trkpt>
      <trkpt lat="46.30407" lon="4.83211">
        <ele>180.7998</ele>
        <time>2026-05-13T15:14:37+02:00</time>
      </trkpt>
      <trkpt lat="46.30407" lon="4.83211">
        <ele>180.7998</ele>
        <time>2026-05-13T15:14:38+02:00</time>
      </trkpt>
      <trkpt lat="46.30407" lon="4.83211">
        <ele>180.7998</ele>
        <time>2026-05-13T15:14:39+02:00</time>
      </trkpt>
      <trkpt lat="46.30407" lon="4.83211">
        <ele>180.7998</ele>
        <time>2026-05-13T15:14:40+02:00</time>
      </trkpt>
      <trkpt lat="46.3039" lon="4.83217">
        <ele>180.10059</ele>
        <time>2026-05-13T15:14:41+02:00</time>
      </trkpt>
      <trkpt lat="46.30388" lon="4.83219">
        <ele>179.90039</ele>
        <time>2026-05-13T15:14:42+02:00</time>
      </trkpt>
      <trkpt lat="46.30386" lon="4.8322">
        <ele>179.90039</ele>
        <time>2026-05-13T15:14:43+02:00</time>
      </trkpt>
      <trkpt lat="46.30384" lon="4.83221">
        <ele>179.90039</ele>
        <time>2026-05-13T15:14:44+02:00</time>
      </trkpt>
      <trkpt lat="46.30382" lon="4.83222">
        <ele>179.7002</ele>
        <time>2026-05-13T15:14:45+02:00</time>
      </trkpt>
      <trkpt lat="46.3038" lon="4.83223">
        <ele>179.7002</ele>
        <time>2026-05-13T15:14:46+02:00</time>
      </trkpt>
      <trkpt lat="46.30377" lon="4.83223">
        <ele>179.5</ele>
        <time>2026-05-13T15:14:47+02:00</time>
      </trkpt>
      <trkpt lat="46.30375" lon="4.83225">
        <ele>179.5</ele>
        <time>2026-05-13T15:14:48+02:00</time>
      </trkpt>
      <trkpt lat="46.30373" lon="4.83227">
        <ele>179.60059</ele>
        <time>2026-05-13T15:14:49+02:00</time>
      </trkpt>
      <trkpt lat="46.3037" lon="4.83229">
        <ele>179.40039</ele>
        <time>2026-05-13T15:14:50+02:00</time>
      </trkpt>
      <trkpt lat="46.30368" lon="4.83231">
        <ele>179.40039</ele>
        <time>2026-05-13T15:14:51+02:00</time>
      </trkpt>
      <trkpt lat="46.30366" lon="4.83234">
        <ele>179.40039</ele>
        <time>2026-05-13T15:14:52+02:00</time>
      </trkpt>
      <trkpt lat="46.30365" lon="4.83237">
        <ele>179.2998</ele>
        <time>2026-05-13T15:14:53+02:00</time>
      </trkpt>
      <trkpt lat="46.30364" lon="4.8324">
        <ele>179.2998</ele>
        <time>2026-05-13T15:14:54+02:00</time>
      </trkpt>
      <trkpt lat="46.30364" lon="4.83243">
        <ele>179.2998</ele>
        <time>2026-05-13T15:14:55+02:00</time>
      </trkpt>
      <trkpt lat="46.30365" lon="4.83245">
        <ele>179.2998</ele>
        <time>2026-05-13T15:14:56+02:00</time>
      </trkpt>
      <trkpt lat="46.30366" lon="4.83248">
        <ele>179.5</ele>
        <time>2026-05-13T15:14:57+02:00</time>
      </trkpt>
      <trkpt lat="46.30367" lon="4.8325">
        <ele>179.5</ele>
        <time>2026-05-13T15:14:58+02:00</time>
      </trkpt>
      <trkpt lat="46.30367" lon="4.83253">
        <ele>179.60059</ele>
        <time>2026-05-13T15:14:59+02:00</time>
      </trkpt>
      <trkpt lat="46.30369" lon="4.83256">
        <ele>179.60059</ele>
        <time>2026-05-13T15:15:00+02:00</time>
      </trkpt>
      <trkpt lat="46.30371" lon="4.83258">
        <ele>179.60059</ele>
        <time>2026-05-13T15:15:01+02:00</time>
      </trkpt>
      <trkpt lat="46.30373" lon="4.8326">
        <ele>179.90039</ele>
        <time>2026-05-13T15:15:02+02:00</time>
      </trkpt>
      <trkpt lat="46.30375" lon="4.83263">
        <ele>179.90039</ele>
        <time>2026-05-13T15:15:03+02:00</time>
      </trkpt>
      <trkpt lat="46.30378" lon="4.83266">
        <ele>180.2002</ele>
        <time>2026-05-13T15:15:04+02:00</time>
      </trkpt>
      <trkpt lat="46.3038" lon="4.83269">
        <ele>180.2002</ele>
        <time>2026-05-13T15:15:05+02:00</time>
      </trkpt>
      <trkpt lat="46.30382" lon="4.83272">
        <ele>180.2002</ele>
        <time>2026-05-13T15:15:06+02:00</time>
      </trkpt>
      <trkpt lat="46.30384" lon="4.83275">
        <ele>180.40039</ele>
        <time>2026-05-13T15:15:07+02:00</time>
      </trkpt>
      <trkpt lat="46.30386" lon="4.83278">
        <ele>180.40039</ele>
        <time>2026-05-13T15:15:08+02:00</time>
      </trkpt>
      <trkpt lat="46.30388" lon="4.8328">
        <ele>180.40039</ele>
        <time>2026-05-13T15:15:09+02:00</time>
      </trkpt>
      <trkpt lat="46.30389" lon="4.83282">
        <ele>180.40039</ele>
        <time>2026-05-13T15:15:10+02:00</time>
      </trkpt>
      <trkpt lat="46.3039" lon="4.83284">
        <ele>180.7002</ele>
        <time>2026-05-13T15:15:11+02:00</time>
      </trkpt>
      <trkpt lat="46.3039" lon="4.83286">
        <ele>180.7002</ele>
        <time>2026-05-13T15:15:12+02:00</time>
      </trkpt>
      <trkpt lat="46.30388" lon="4.83288">
        <ele>180.40039</ele>
        <time>2026-05-13T15:15:13+02:00</time>
      </trkpt>
      <trkpt lat="46.30386" lon="4.83292">
        <ele>180.40039</ele>
        <time>2026-05-13T15:15:14+02:00</time>
      </trkpt>
      <trkpt lat="46.30384" lon="4.83296">
        <ele>180.2998</ele>
        <time>2026-05-13T15:15:15+02:00</time>
      </trkpt>
      <trkpt lat="46.30382" lon="4.83299">
        <ele>180</ele>
        <time>2026-05-13T15:15:16+02:00</time>
      </trkpt>
      <trkpt lat="46.3038" lon="4.83303">
        <ele>180</ele>
        <time>2026-05-13T15:15:17+02:00</time>
      </trkpt>
      <trkpt lat="46.30377" lon="4.83307">
        <ele>179.60059</ele>
        <time>2026-05-13T15:15:18+02:00</time>
      </trkpt>
      <trkpt lat="46.30375" lon="4.83311">
        <ele>179.60059</ele>
        <time>2026-05-13T15:15:19+02:00</time>
      </trkpt>
      <trkpt lat="46.30373" lon="4.83315">
        <ele>179.40039</ele>
        <time>2026-05-13T15:15:20+02:00</time>
      </trkpt>
      <trkpt lat="46.3037" lon="4.8332">
        <ele>179.10059</ele>
        <time>2026-05-13T15:15:21+02:00</time>
      </trkpt>
      <trkpt lat="46.30368" lon="4.83324">
        <ele>179</ele>
        <time>2026-05-13T15:15:22+02:00</time>
      </trkpt>
      <trkpt lat="46.30366" lon="4.83328">
        <ele>179</ele>
        <time>2026-05-13T15:15:23+02:00</time>
      </trkpt>
      <trkpt lat="46.30364" lon="4.83332">
        <ele>178.5</ele>
        <time>2026-05-13T15:15:24+02:00</time>
      </trkpt>
      <trkpt lat="46.30362" lon="4.83335">
        <ele>178.5</ele>
        <time>2026-05-13T15:15:25+02:00</time>
      </trkpt>
      <trkpt lat="46.30361" lon="4.83339">
        <ele>178.2998</ele>
        <time>2026-05-13T15:15:26+02:00</time>
      </trkpt>
      <trkpt lat="46.30359" lon="4.83343">
        <ele>178</ele>
        <time>2026-05-13T15:15:27+02:00</time>
      </trkpt>
      <trkpt lat="46.30359" lon="4.83347">
        <ele>177.40039</ele>
        <time>2026-05-13T15:15:28+02:00</time>
      </trkpt>
      <trkpt lat="46.30357" lon="4.83349">
        <ele>177.40039</ele>
        <time>2026-05-13T15:15:29+02:00</time>
      </trkpt>
      <trkpt lat="46.30357" lon="4.83353">
        <ele>177.40039</ele>
        <time>2026-05-13T15:15:30+02:00</time>
      </trkpt>
      <trkpt lat="46.30357" lon="4.83356">
        <ele>176.5</ele>
        <time>2026-05-13T15:15:31+02:00</time>
      </trkpt>
      <trkpt lat="46.30357" lon="4.83358">
        <ele>176.5</ele>
        <time>2026-05-13T15:15:32+02:00</time>
      </trkpt>
      <trkpt lat="46.30357" lon="4.83359">
        <ele>176.5</ele>
        <time>2026-05-13T15:15:33+02:00</time>
      </trkpt>
      <trkpt lat="46.30357" lon="4.8336">
        <ele>176.5</ele>
        <time>2026-05-13T15:15:34+02:00</time>
      </trkpt>
      <trkpt lat="46.30357" lon="4.8336">
        <ele>176.5</ele>
        <time>2026-05-13T15:15:35+02:00</time>
      </trkpt>
      <trkpt lat="46.30357" lon="4.8336">
        <ele>176.5</ele>
        <time>2026-05-13T15:15:36+02:00</time>
      </trkpt>
      <trkpt lat="46.30348" lon="4.83373">
        <ele>172.7002</ele>
        <time>2026-05-13T15:15:53+02:00</time>
      </trkpt>
      <trkpt lat="46.30346" lon="4.83373">
        <ele>172.7002</ele>
        <time>2026-05-13T15:15:54+02:00</time>
      </trkpt>
      <trkpt lat="46.30343" lon="4.83374">
        <ele>172.7002</ele>
        <time>2026-05-13T15:15:55+02:00</time>
      </trkpt>
      <trkpt lat="46.30341" lon="4.83375">
        <ele>172.10059</ele>
        <time>2026-05-13T15:15:56+02:00</time>
      </trkpt>
      <trkpt lat="46.30339" lon="4.83378">
        <ele>172.10059</ele>
        <time>2026-05-13T15:15:57+02:00</time>
      </trkpt>
      <trkpt lat="46.30337" lon="4.83381">
        <ele>172.10059</ele>
        <time>2026-05-13T15:15:58+02:00</time>
      </trkpt>
      <trkpt lat="46.30336" lon="4.83385">
        <ele>170.60059</ele>
        <time>2026-05-13T15:15:59+02:00</time>
      </trkpt>
      <trkpt lat="46.30335" lon="4.83389">
        <ele>170.60059</ele>
        <time>2026-05-13T15:16:00+02:00</time>
      </trkpt>
      <trkpt lat="46.30334" lon="4.83392">
        <ele>169.7998</ele>
        <time>2026-05-13T15:16:01+02:00</time>
      </trkpt>
      <trkpt lat="46.30333" lon="4.83395">
        <ele>169.7998</ele>
        <time>2026-05-13T15:16:02+02:00</time>
      </trkpt>
      <trkpt lat="46.30332" lon="4.83397">
        <ele>169.7998</ele>
        <time>2026-05-13T15:16:03+02:00</time>
      </trkpt>
      <trkpt lat="46.3033" lon="4.834">
        <ele>168.90039</ele>
        <time>2026-05-13T15:16:04+02:00</time>
      </trkpt>
      <trkpt lat="46.30329" lon="4.83404">
        <ele>168.90039</ele>
        <time>2026-05-13T15:16:05+02:00</time>
      </trkpt>
      <trkpt lat="46.30328" lon="4.83408">
        <ele>168.5</ele>
        <time>2026-05-13T15:16:06+02:00</time>
      </trkpt>
      <trkpt lat="46.30328" lon="4.83412">
        <ele>168.5</ele>
        <time>2026-05-13T15:16:07+02:00</time>
      </trkpt>
      <trkpt lat="46.30329" lon="4.83416">
        <ele>168.2998</ele>
        <time>2026-05-13T15:16:08+02:00</time>
      </trkpt>
      <trkpt lat="46.30331" lon="4.83419">
        <ele>168.2998</ele>
        <time>2026-05-13T15:16:09+02:00</time>
      </trkpt>
      <trkpt lat="46.30334" lon="4.83423">
        <ele>168.2998</ele>
        <time>2026-05-13T15:16:10+02:00</time>
      </trkpt>
      <trkpt lat="46.30337" lon="4.83426">
        <ele>168.10059</ele>
        <time>2026-05-13T15:16:11+02:00</time>
      </trkpt>
      <trkpt lat="46.30339" lon="4.83429">
        <ele>168.10059</ele>
        <time>2026-05-13T15:16:12+02:00</time>
      </trkpt>
      <trkpt lat="46.30342" lon="4.83433">
        <ele>168.10059</ele>
        <time>2026-05-13T15:16:13+02:00</time>
      </trkpt>
      <trkpt lat="46.30345" lon="4.83436">
        <ele>168.10059</ele>
        <time>2026-05-13T15:16:14+02:00</time>
      </trkpt>
      <trkpt lat="46.30348" lon="4.83439">
        <ele>168.10059</ele>
        <time>2026-05-13T15:16:15+02:00</time>
      </trkpt>
      <trkpt lat="46.30352" lon="4.83442">
        <ele>168.2002</ele>
        <time>2026-05-13T15:16:16+02:00</time>
      </trkpt>
      <trkpt lat="46.30355" lon="4.83445">
        <ele>168.2002</ele>
        <time>2026-05-13T15:16:17+02:00</time>
      </trkpt>
      <trkpt lat="46.30359" lon="4.83448">
        <ele>168.2002</ele>
        <time>2026-05-13T15:16:18+02:00</time>
      </trkpt>
      <trkpt lat="46.30362" lon="4.83451">
        <ele>168.2002</ele>
        <time>2026-05-13T15:16:19+02:00</time>
      </trkpt>
      <trkpt lat="46.30366" lon="4.83454">
        <ele>168.10059</ele>
        <time>2026-05-13T15:16:20+02:00</time>
      </trkpt>
      <trkpt lat="46.3037" lon="4.83458">
        <ele>168.10059</ele>
        <time>2026-05-13T15:16:21+02:00</time>
      </trkpt>
      <trkpt lat="46.30374" lon="4.83462">
        <ele>168.10059</ele>
        <time>2026-05-13T15:16:22+02:00</time>
      </trkpt>
      <trkpt lat="46.30377" lon="4.83465">
        <ele>168.10059</ele>
        <time>2026-05-13T15:16:23+02:00</time>
      </trkpt>
      <trkpt lat="46.30381" lon="4.83468">
        <ele>168.2002</ele>
        <time>2026-05-13T15:16:24+02:00</time>
      </trkpt>
      <trkpt lat="46.30384" lon="4.83471">
        <ele>168.2998</ele>
        <time>2026-05-13T15:16:25+02:00</time>
      </trkpt>
      <trkpt lat="46.30388" lon="4.83473">
        <ele>168.2998</ele>
        <time>2026-05-13T15:16:26+02:00</time>
      </trkpt>
      <trkpt lat="46.30391" lon="4.83475">
        <ele>168.2998</ele>
        <time>2026-05-13T15:16:27+02:00</time>
      </trkpt>
      <trkpt lat="46.30394" lon="4.83477">
        <ele>168.2998</ele>
        <time>2026-05-13T15:16:28+02:00</time>
      </trkpt>
      <trkpt lat="46.30399" lon="4.83481">
        <ele>168.2998</ele>
        <time>2026-05-13T15:16:29+02:00</time>
      </trkpt>
      <trkpt lat="46.30404" lon="4.83485">
        <ele>168.10059</ele>
        <time>2026-05-13T15:16:30+02:00</time>
      </trkpt>
      <trkpt lat="46.30409" lon="4.8349">
        <ele>168.10059</ele>
        <time>2026-05-13T15:16:31+02:00</time>
      </trkpt>
      <trkpt lat="46.30415" lon="4.83495">
        <ele>168.10059</ele>
        <time>2026-05-13T15:16:32+02:00</time>
      </trkpt>
      <trkpt lat="46.30421" lon="4.835">
        <ele>168.10059</ele>
        <time>2026-05-13T15:16:33+02:00</time>
      </trkpt>
      <trkpt lat="46.30427" lon="4.83505">
        <ele>168.2998</ele>
        <time>2026-05-13T15:16:34+02:00</time>
      </trkpt>
      <trkpt lat="46.30433" lon="4.8351">
        <ele>168.2998</ele>
        <time>2026-05-13T15:16:35+02:00</time>
      </trkpt>
      <trkpt lat="46.30438" lon="4.83514">
        <ele>168.2002</ele>
        <time>2026-05-13T15:16:36+02:00</time>
      </trkpt>
      <trkpt lat="46.30444" lon="4.83519">
        <ele>168.2002</ele>
        <time>2026-05-13T15:16:37+02:00</time>
      </trkpt>
      <trkpt lat="46.30449" lon="4.83524">
        <ele>168.2002</ele>
        <time>2026-05-13T15:16:38+02:00</time>
      </trkpt>
      <trkpt lat="46.30454" lon="4.83528">
        <ele>168.2002</ele>
        <time>2026-05-13T15:16:39+02:00</time>
      </trkpt>
      <trkpt lat="46.30459" lon="4.83532">
        <ele>168.2002</ele>
        <time>2026-05-13T15:16:40+02:00</time>
      </trkpt>
      <trkpt lat="46.30464" lon="4.83536">
        <ele>168.2998</ele>
        <time>2026-05-13T15:16:41+02:00</time>
      </trkpt>
      <trkpt lat="46.30469" lon="4.8354">
        <ele>168.2998</ele>
        <time>2026-05-13T15:16:42+02:00</time>
      </trkpt>
      <trkpt lat="46.30474" lon="4.83544">
        <ele>168.2998</ele>
        <time>2026-05-13T15:16:43+02:00</time>
      </trkpt>
      <trkpt lat="46.30479" lon="4.83549">
        <ele>168.2002</ele>
        <time>2026-05-13T15:16:44+02:00</time>
      </trkpt>
      <trkpt lat="46.30484" lon="4.83553">
        <ele>168.2002</ele>
        <time>2026-05-13T15:16:45+02:00</time>
      </trkpt>
      <trkpt lat="46.30489" lon="4.83558">
        <ele>168.10059</ele>
        <time>2026-05-13T15:16:46+02:00</time>
      </trkpt>
      <trkpt lat="46.30494" lon="4.83562">
        <ele>168.2998</ele>
        <time>2026-05-13T15:16:47+02:00</time>
      </trkpt>
      <trkpt lat="46.30499" lon="4.83566">
        <ele>168.2998</ele>
        <time>2026-05-13T15:16:48+02:00</time>
      </trkpt>
      <trkpt lat="46.30504" lon="4.8357">
        <ele>168.2998</ele>
        <time>2026-05-13T15:16:49+02:00</time>
      </trkpt>
      <trkpt lat="46.30509" lon="4.83575">
        <ele>168.10059</ele>
        <time>2026-05-13T15:16:50+02:00</time>
      </trkpt>
      <trkpt lat="46.30514" lon="4.83579">
        <ele>168.2002</ele>
        <time>2026-05-13T15:16:51+02:00</time>
      </trkpt>
      <trkpt lat="46.30519" lon="4.83584">
        <ele>168.10059</ele>
        <time>2026-05-13T15:16:52+02:00</time>
      </trkpt>
      <trkpt lat="46.30523" lon="4.83588">
        <ele>168.2002</ele>
        <time>2026-05-13T15:16:53+02:00</time>
      </trkpt>
      <trkpt lat="46.30528" lon="4.83592">
        <ele>168.2002</ele>
        <time>2026-05-13T15:16:54+02:00</time>
      </trkpt>
      <trkpt lat="46.30533" lon="4.83596">
        <ele>168.2998</ele>
        <time>2026-05-13T15:16:55+02:00</time>
      </trkpt>
      <trkpt lat="46.30538" lon="4.836">
        <ele>168.2998</ele>
        <time>2026-05-13T15:16:56+02:00</time>
      </trkpt>
      <trkpt lat="46.30543" lon="4.83603">
        <ele>168.2998</ele>
        <time>2026-05-13T15:16:57+02:00</time>
      </trkpt>
      <trkpt lat="46.30548" lon="4.83607">
        <ele>168.2998</ele>
        <time>2026-05-13T15:16:58+02:00</time>
      </trkpt>
      <trkpt lat="46.30553" lon="4.83611">
        <ele>168.2998</ele>
        <time>2026-05-13T15:16:59+02:00</time>
      </trkpt>
      <trkpt lat="46.30558" lon="4.83615">
        <ele>168.2998</ele>
        <time>2026-05-13T15:17:00+02:00</time>
      </trkpt>
      <trkpt lat="46.30562" lon="4.83619">
        <ele>168.2998</ele>
        <time>2026-05-13T15:17:01+02:00</time>
      </trkpt>
      <trkpt lat="46.30567" lon="4.83622">
        <ele>168.2998</ele>
        <time>2026-05-13T15:17:02+02:00</time>
      </trkpt>
      <trkpt lat="46.30571" lon="4.83627">
        <ele>168.2998</ele>
        <time>2026-05-13T15:17:03+02:00</time>
      </trkpt>
      <trkpt lat="46.30575" lon="4.8363">
        <ele>168.2998</ele>
        <time>2026-05-13T15:17:04+02:00</time>
      </trkpt>
      <trkpt lat="46.3058" lon="4.83634">
        <ele>168.2998</ele>
        <time>2026-05-13T15:17:05+02:00</time>
      </trkpt>
      <trkpt lat="46.30584" lon="4.83639">
        <ele>168.2998</ele>
        <time>2026-05-13T15:17:06+02:00</time>
      </trkpt>
      <trkpt lat="46.30589" lon="4.83643">
        <ele>168.2998</ele>
        <time>2026-05-13T15:17:07+02:00</time>
      </trkpt>
      <trkpt lat="46.30594" lon="4.83647">
        <ele>168.2998</ele>
        <time>2026-05-13T15:17:08+02:00</time>
      </trkpt>
      <trkpt lat="46.30599" lon="4.83652">
        <ele>168.2998</ele>
        <time>2026-05-13T15:17:09+02:00</time>
      </trkpt>
      <trkpt lat="46.30604" lon="4.83656">
        <ele>168.2998</ele>
        <time>2026-05-13T15:17:10+02:00</time>
      </trkpt>
      <trkpt lat="46.30608" lon="4.8366">
        <ele>168.2998</ele>
        <time>2026-05-13T15:17:11+02:00</time>
      </trkpt>
      <trkpt lat="46.30613" lon="4.83664">
        <ele>168.2998</ele>
        <time>2026-05-13T15:17:12+02:00</time>
      </trkpt>
      <trkpt lat="46.30618" lon="4.83666">
        <ele>168.2998</ele>
        <time>2026-05-13T15:17:13+02:00</time>
      </trkpt>
      <trkpt lat="46.30623" lon="4.83668">
        <ele>168.2998</ele>
        <time>2026-05-13T15:17:14+02:00</time>
      </trkpt>
      <trkpt lat="46.30629" lon="4.8367">
        <ele>168.2998</ele>
        <time>2026-05-13T15:17:15+02:00</time>
      </trkpt>
      <trkpt lat="46.30634" lon="4.83672">
        <ele>168.2998</ele>
        <time>2026-05-13T15:17:16+02:00</time>
      </trkpt>
      <trkpt lat="46.30639" lon="4.83674">
        <ele>168.2998</ele>
        <time>2026-05-13T15:17:17+02:00</time>
      </trkpt>
      <trkpt lat="46.30645" lon="4.83676">
        <ele>168.2998</ele>
        <time>2026-05-13T15:17:18+02:00</time>
      </trkpt>
      <trkpt lat="46.3065" lon="4.83678">
        <ele>168.2998</ele>
        <time>2026-05-13T15:17:19+02:00</time>
      </trkpt>
      <trkpt lat="46.30656" lon="4.8368">
        <ele>168.2998</ele>
        <time>2026-05-13T15:17:20+02:00</time>
      </trkpt>
      <trkpt lat="46.30661" lon="4.83682">
        <ele>168.2998</ele>
        <time>2026-05-13T15:17:21+02:00</time>
      </trkpt>
      <trkpt lat="46.30666" lon="4.83684">
        <ele>168.2998</ele>
        <time>2026-05-13T15:17:22+02:00</time>
      </trkpt>
      <trkpt lat="46.30671" lon="4.83686">
        <ele>168.2998</ele>
        <time>2026-05-13T15:17:23+02:00</time>
      </trkpt>
      <trkpt lat="46.30676" lon="4.83687">
        <ele>168.2998</ele>
        <time>2026-05-13T15:17:24+02:00</time>
      </trkpt>
      <trkpt lat="46.30681" lon="4.83689">
        <ele>168.2998</ele>
        <time>2026-05-13T15:17:25+02:00</time>
      </trkpt>
      <trkpt lat="46.30685" lon="4.83691">
        <ele>168.2998</ele>
        <time>2026-05-13T15:17:26+02:00</time>
      </trkpt>
      <trkpt lat="46.30689" lon="4.83693">
        <ele>168.2998</ele>
        <time>2026-05-13T15:17:27+02:00</time>
      </trkpt>
      <trkpt lat="46.30693" lon="4.83694">
        <ele>168.2998</ele>
        <time>2026-05-13T15:17:28+02:00</time>
      </trkpt>
      <trkpt lat="46.30697" lon="4.83696">
        <ele>168.2998</ele>
        <time>2026-05-13T15:17:29+02:00</time>
      </trkpt>
      <trkpt lat="46.30701" lon="4.83697">
        <ele>168.2998</ele>
        <time>2026-05-13T15:17:30+02:00</time>
      </trkpt>
      <trkpt lat="46.30705" lon="4.83699">
        <ele>168.2998</ele>
        <time>2026-05-13T15:17:31+02:00</time>
      </trkpt>
      <trkpt lat="46.30709" lon="4.83701">
        <ele>168.2998</ele>
        <time>2026-05-13T15:17:32+02:00</time>
      </trkpt>
      <trkpt lat="46.30712" lon="4.83702">
        <ele>168.2998</ele>
        <time>2026-05-13T15:17:33+02:00</time>
      </trkpt>
      <trkpt lat="46.30716" lon="4.83704">
        <ele>168.2998</ele>
        <time>2026-05-13T15:17:34+02:00</time>
      </trkpt>
      <trkpt lat="46.3072" lon="4.83706">
        <ele>168.2998</ele>
        <time>2026-05-13T15:17:35+02:00</time>
      </trkpt>
      <trkpt lat="46.30723" lon="4.83706">
        <ele>168.2002</ele>
        <time>2026-05-13T15:17:36+02:00</time>
      </trkpt>
      <trkpt lat="46.30726" lon="4.83706">
        <ele>168.2002</ele>
        <time>2026-05-13T15:17:37+02:00</time>
      </trkpt>
      <trkpt lat="46.30729" lon="4.83706">
        <ele>168.2002</ele>
        <time>2026-05-13T15:17:38+02:00</time>
      </trkpt>
      <trkpt lat="46.30733" lon="4.83706">
        <ele>168.2002</ele>
        <time>2026-05-13T15:17:39+02:00</time>
      </trkpt>
      <trkpt lat="46.30737" lon="4.83707">
        <ele>168.2002</ele>
        <time>2026-05-13T15:17:40+02:00</time>
      </trkpt>
      <trkpt lat="46.30741" lon="4.83708">
        <ele>168.2998</ele>
        <time>2026-05-13T15:17:41+02:00</time>
      </trkpt>
      <trkpt lat="46.30745" lon="4.8371">
        <ele>168.2998</ele>
        <time>2026-05-13T15:17:42+02:00</time>
      </trkpt>
      <trkpt lat="46.30749" lon="4.83711">
        <ele>168.2998</ele>
        <time>2026-05-13T15:17:43+02:00</time>
      </trkpt>
      <trkpt lat="46.30753" lon="4.83713">
        <ele>168.2998</ele>
        <time>2026-05-13T15:17:44+02:00</time>
      </trkpt>
      <trkpt lat="46.30757" lon="4.83715">
        <ele>168.2998</ele>
        <time>2026-05-13T15:17:45+02:00</time>
      </trkpt>
      <trkpt lat="46.30761" lon="4.83717">
        <ele>168.2998</ele>
        <time>2026-05-13T15:17:46+02:00</time>
      </trkpt>
      <trkpt lat="46.30766" lon="4.83719">
        <ele>168.2998</ele>
        <time>2026-05-13T15:17:47+02:00</time>
      </trkpt>
      <trkpt lat="46.30771" lon="4.8372">
        <ele>168.2998</ele>
        <time>2026-05-13T15:17:48+02:00</time>
      </trkpt>
      <trkpt lat="46.30775" lon="4.83722">
        <ele>168.2998</ele>
        <time>2026-05-13T15:17:49+02:00</time>
      </trkpt>
      <trkpt lat="46.3078" lon="4.83723">
        <ele>168.2998</ele>
        <time>2026-05-13T15:17:50+02:00</time>
      </trkpt>
      <trkpt lat="46.30784" lon="4.83725">
        <ele>168.2998</ele>
        <time>2026-05-13T15:17:51+02:00</time>
      </trkpt>
      <trkpt lat="46.30788" lon="4.83726">
        <ele>168.2998</ele>
        <time>2026-05-13T15:17:52+02:00</time>
      </trkpt>
      <trkpt lat="46.30792" lon="4.83728">
        <ele>168.2998</ele>
        <time>2026-05-13T15:17:53+02:00</time>
      </trkpt>
      <trkpt lat="46.30796" lon="4.8373">
        <ele>168.2998</ele>
        <time>2026-05-13T15:17:54+02:00</time>
      </trkpt>
      <trkpt lat="46.308" lon="4.83731">
        <ele>168.2998</ele>
        <time>2026-05-13T15:17:55+02:00</time>
      </trkpt>
      <trkpt lat="46.30804" lon="4.83732">
        <ele>168.2998</ele>
        <time>2026-05-13T15:17:56+02:00</time>
      </trkpt>
      <trkpt lat="46.30808" lon="4.83734">
        <ele>168.2998</ele>
        <time>2026-05-13T15:17:57+02:00</time>
      </trkpt>
      <trkpt lat="46.30812" lon="4.83736">
        <ele>168.40039</ele>
        <time>2026-05-13T15:17:58+02:00</time>
      </trkpt>
      <trkpt lat="46.30816" lon="4.83738">
        <ele>168.40039</ele>
        <time>2026-05-13T15:17:59+02:00</time>
      </trkpt>
      <trkpt lat="46.30821" lon="4.83739">
        <ele>168.40039</ele>
        <time>2026-05-13T15:18:00+02:00</time>
      </trkpt>
      <trkpt lat="46.30824" lon="4.83741">
        <ele>168.2998</ele>
        <time>2026-05-13T15:18:01+02:00</time>
      </trkpt>
      <trkpt lat="46.30829" lon="4.83743">
        <ele>168.10059</ele>
        <time>2026-05-13T15:18:02+02:00</time>
      </trkpt>
      <trkpt lat="46.30833" lon="4.83745">
        <ele>168.10059</ele>
        <time>2026-05-13T15:18:03+02:00</time>
      </trkpt>
      <trkpt lat="46.30837" lon="4.83746">
        <ele>167.90039</ele>
        <time>2026-05-13T15:18:04+02:00</time>
      </trkpt>
      <trkpt lat="46.30841" lon="4.83748">
        <ele>167.7998</ele>
        <time>2026-05-13T15:18:05+02:00</time>
      </trkpt>
      <trkpt lat="46.30845" lon="4.8375">
        <ele>167.7998</ele>
        <time>2026-05-13T15:18:06+02:00</time>
      </trkpt>
      <trkpt lat="46.3085" lon="4.83751">
        <ele>168.2002</ele>
        <time>2026-05-13T15:18:07+02:00</time>
      </trkpt>
      <trkpt lat="46.30854" lon="4.83753">
        <ele>168.2002</ele>
        <time>2026-05-13T15:18:08+02:00</time>
      </trkpt>
      <trkpt lat="46.30858" lon="4.83755">
        <ele>168.2002</ele>
        <time>2026-05-13T15:18:09+02:00</time>
      </trkpt>
      <trkpt lat="46.30862" lon="4.83757">
        <ele>168.2002</ele>
        <time>2026-05-13T15:18:10+02:00</time>
      </trkpt>
      <trkpt lat="46.30866" lon="4.83758">
        <ele>168.2998</ele>
        <time>2026-05-13T15:18:11+02:00</time>
      </trkpt>
      <trkpt lat="46.3087" lon="4.83758">
        <ele>168.2998</ele>
        <time>2026-05-13T15:18:12+02:00</time>
      </trkpt>
      <trkpt lat="46.30874" lon="4.8376">
        <ele>168.2998</ele>
        <time>2026-05-13T15:18:13+02:00</time>
      </trkpt>
      <trkpt lat="46.30878" lon="4.83762">
        <ele>168.2002</ele>
        <time>2026-05-13T15:18:14+02:00</time>
      </trkpt>
      <trkpt lat="46.30882" lon="4.83763">
        <ele>168</ele>
        <time>2026-05-13T15:18:15+02:00</time>
      </trkpt>
      <trkpt lat="46.30886" lon="4.83764">
        <ele>168</ele>
        <time>2026-05-13T15:18:16+02:00</time>
      </trkpt>
      <trkpt lat="46.3089" lon="4.83766">
        <ele>167.7998</ele>
        <time>2026-05-13T15:18:17+02:00</time>
      </trkpt>
      <trkpt lat="46.30894" lon="4.83768">
        <ele>167.7002</ele>
        <time>2026-05-13T15:18:18+02:00</time>
      </trkpt>
      <trkpt lat="46.30898" lon="4.83769">
        <ele>167.7002</ele>
        <time>2026-05-13T15:18:19+02:00</time>
      </trkpt>
      <trkpt lat="46.30902" lon="4.83772">
        <ele>167.60059</ele>
        <time>2026-05-13T15:18:20+02:00</time>
      </trkpt>
      <trkpt lat="46.30905" lon="4.83775">
        <ele>167.60059</ele>
        <time>2026-05-13T15:18:21+02:00</time>
      </trkpt>
      <trkpt lat="46.30909" lon="4.83779">
        <ele>168.10059</ele>
        <time>2026-05-13T15:18:22+02:00</time>
      </trkpt>
      <trkpt lat="46.30912" lon="4.83782">
        <ele>168.2002</ele>
        <time>2026-05-13T15:18:23+02:00</time>
      </trkpt>
      <trkpt lat="46.30916" lon="4.83786">
        <ele>168.2998</ele>
        <time>2026-05-13T15:18:24+02:00</time>
      </trkpt>
      <trkpt lat="46.30919" lon="4.83789">
        <ele>168.2998</ele>
        <time>2026-05-13T15:18:25+02:00</time>
      </trkpt>
      <trkpt lat="46.30924" lon="4.83792">
        <ele>168.2002</ele>
        <time>2026-05-13T15:18:26+02:00</time>
      </trkpt>
      <trkpt lat="46.30927" lon="4.83794">
        <ele>168.10059</ele>
        <time>2026-05-13T15:18:27+02:00</time>
      </trkpt>
      <trkpt lat="46.30932" lon="4.83795">
        <ele>168</ele>
        <time>2026-05-13T15:18:28+02:00</time>
      </trkpt>
      <trkpt lat="46.30937" lon="4.83797">
        <ele>167.7998</ele>
        <time>2026-05-13T15:18:29+02:00</time>
      </trkpt>
      <trkpt lat="46.30941" lon="4.83798">
        <ele>167.7998</ele>
        <time>2026-05-13T15:18:30+02:00</time>
      </trkpt>
      <trkpt lat="46.30945" lon="4.838">
        <ele>167.7002</ele>
        <time>2026-05-13T15:18:31+02:00</time>
      </trkpt>
      <trkpt lat="46.3095" lon="4.83802">
        <ele>168</ele>
        <time>2026-05-13T15:18:32+02:00</time>
      </trkpt>
      <trkpt lat="46.30954" lon="4.83804">
        <ele>168</ele>
        <time>2026-05-13T15:18:33+02:00</time>
      </trkpt>
      <trkpt lat="46.30958" lon="4.83805">
        <ele>168</ele>
        <time>2026-05-13T15:18:34+02:00</time>
      </trkpt>
      <trkpt lat="46.30963" lon="4.83806">
        <ele>168.10059</ele>
        <time>2026-05-13T15:18:35+02:00</time>
      </trkpt>
      <trkpt lat="46.30967" lon="4.83806">
        <ele>168.2998</ele>
        <time>2026-05-13T15:18:36+02:00</time>
      </trkpt>
      <trkpt lat="46.30971" lon="4.83805">
        <ele>168.40039</ele>
        <time>2026-05-13T15:18:37+02:00</time>
      </trkpt>
      <trkpt lat="46.30975" lon="4.83804">
        <ele>168.40039</ele>
        <time>2026-05-13T15:18:38+02:00</time>
      </trkpt>
      <trkpt lat="46.30979" lon="4.83803">
        <ele>168.60059</ele>
        <time>2026-05-13T15:18:39+02:00</time>
      </trkpt>
      <trkpt lat="46.30984" lon="4.83804">
        <ele>168.7002</ele>
        <time>2026-05-13T15:18:40+02:00</time>
      </trkpt>
      <trkpt lat="46.30988" lon="4.83806">
        <ele>168.7002</ele>
        <time>2026-05-13T15:18:41+02:00</time>
      </trkpt>
      <trkpt lat="46.30993" lon="4.83808">
        <ele>168.7002</ele>
        <time>2026-05-13T15:18:42+02:00</time>
      </trkpt>
      <trkpt lat="46.30998" lon="4.8381">
        <ele>168.7002</ele>
        <time>2026-05-13T15:18:43+02:00</time>
      </trkpt>
      <trkpt lat="46.31003" lon="4.83811">
        <ele>168</ele>
        <time>2026-05-13T15:18:44+02:00</time>
      </trkpt>
      <trkpt lat="46.31008" lon="4.83813">
        <ele>167.90039</ele>
        <time>2026-05-13T15:18:45+02:00</time>
      </trkpt>
      <trkpt lat="46.31012" lon="4.83815">
        <ele>167.90039</ele>
        <time>2026-05-13T15:18:46+02:00</time>
      </trkpt>
      <trkpt lat="46.31017" lon="4.83816">
        <ele>167.90039</ele>
        <time>2026-05-13T15:18:47+02:00</time>
      </trkpt>
      <trkpt lat="46.31021" lon="4.83818">
        <ele>167.90039</ele>
        <time>2026-05-13T15:18:48+02:00</time>
      </trkpt>
      <trkpt lat="46.31025" lon="4.8382">
        <ele>167.7998</ele>
        <time>2026-05-13T15:18:49+02:00</time>
      </trkpt>
      <trkpt lat="46.31029" lon="4.83822">
        <ele>167.7998</ele>
        <time>2026-05-13T15:18:50+02:00</time>
      </trkpt>
      <trkpt lat="46.31033" lon="4.83824">
        <ele>167.90039</ele>
        <time>2026-05-13T15:18:51+02:00</time>
      </trkpt>
      <trkpt lat="46.31038" lon="4.83825">
        <ele>167.90039</ele>
        <time>2026-05-13T15:18:52+02:00</time>
      </trkpt>
      <trkpt lat="46.31043" lon="4.83827">
        <ele>167.90039</ele>
        <time>2026-05-13T15:18:53+02:00</time>
      </trkpt>
      <trkpt lat="46.31048" lon="4.83829">
        <ele>168.2002</ele>
        <time>2026-05-13T15:18:54+02:00</time>
      </trkpt>
      <trkpt lat="46.31052" lon="4.83831">
        <ele>168.2002</ele>
        <time>2026-05-13T15:18:55+02:00</time>
      </trkpt>
      <trkpt lat="46.31057" lon="4.83832">
        <ele>168.2998</ele>
        <time>2026-05-13T15:18:56+02:00</time>
      </trkpt>
      <trkpt lat="46.31062" lon="4.83834">
        <ele>168.40039</ele>
        <time>2026-05-13T15:18:57+02:00</time>
      </trkpt>
      <trkpt lat="46.31067" lon="4.83836">
        <ele>168.5</ele>
        <time>2026-05-13T15:18:58+02:00</time>
      </trkpt>
      <trkpt lat="46.31071" lon="4.83838">
        <ele>168.2998</ele>
        <time>2026-05-13T15:18:59+02:00</time>
      </trkpt>
      <trkpt lat="46.31076" lon="4.8384">
        <ele>168.2002</ele>
        <time>2026-05-13T15:19:00+02:00</time>
      </trkpt>
      <trkpt lat="46.31081" lon="4.83842">
        <ele>168.2002</ele>
        <time>2026-05-13T15:19:01+02:00</time>
      </trkpt>
      <trkpt lat="46.31086" lon="4.83844">
        <ele>168.2002</ele>
        <time>2026-05-13T15:19:02+02:00</time>
      </trkpt>
      <trkpt lat="46.31091" lon="4.83846">
        <ele>168.10059</ele>
        <time>2026-05-13T15:19:03+02:00</time>
      </trkpt>
      <trkpt lat="46.31096" lon="4.83848">
        <ele>168.10059</ele>
        <time>2026-05-13T15:19:04+02:00</time>
      </trkpt>
      <trkpt lat="46.31101" lon="4.8385">
        <ele>168.10059</ele>
        <time>2026-05-13T15:19:05+02:00</time>
      </trkpt>
      <trkpt lat="46.31106" lon="4.83852">
        <ele>168.10059</ele>
        <time>2026-05-13T15:19:06+02:00</time>
      </trkpt>
      <trkpt lat="46.31111" lon="4.83854">
        <ele>168.2998</ele>
        <time>2026-05-13T15:19:07+02:00</time>
      </trkpt>
      <trkpt lat="46.31115" lon="4.83856">
        <ele>168.2998</ele>
        <time>2026-05-13T15:19:08+02:00</time>
      </trkpt>
      <trkpt lat="46.3112" lon="4.83857">
        <ele>168.2998</ele>
        <time>2026-05-13T15:19:09+02:00</time>
      </trkpt>
      <trkpt lat="46.31125" lon="4.83859">
        <ele>168.40039</ele>
        <time>2026-05-13T15:19:10+02:00</time>
      </trkpt>
      <trkpt lat="46.3113" lon="4.83862">
        <ele>168.40039</ele>
        <time>2026-05-13T15:19:11+02:00</time>
      </trkpt>
      <trkpt lat="46.31134" lon="4.83864">
        <ele>168.40039</ele>
        <time>2026-05-13T15:19:12+02:00</time>
      </trkpt>
      <trkpt lat="46.31139" lon="4.83867">
        <ele>168.5</ele>
        <time>2026-05-13T15:19:13+02:00</time>
      </trkpt>
      <trkpt lat="46.31143" lon="4.8387">
        <ele>168.5</ele>
        <time>2026-05-13T15:19:14+02:00</time>
      </trkpt>
      <trkpt lat="46.31147" lon="4.83874">
        <ele>168.40039</ele>
        <time>2026-05-13T15:19:15+02:00</time>
      </trkpt>
      <trkpt lat="46.31151" lon="4.83878">
        <ele>168.5</ele>
        <time>2026-05-13T15:19:16+02:00</time>
      </trkpt>
      <trkpt lat="46.31155" lon="4.83882">
        <ele>168.40039</ele>
        <time>2026-05-13T15:19:17+02:00</time>
      </trkpt>
      <trkpt lat="46.31159" lon="4.83886">
        <ele>168.40039</ele>
        <time>2026-05-13T15:19:18+02:00</time>
      </trkpt>
      <trkpt lat="46.31164" lon="4.8389">
        <ele>168.40039</ele>
        <time>2026-05-13T15:19:19+02:00</time>
      </trkpt>
      <trkpt lat="46.31168" lon="4.83894">
        <ele>168.40039</ele>
        <time>2026-05-13T15:19:20+02:00</time>
      </trkpt>
      <trkpt lat="46.31173" lon="4.83897">
        <ele>168.2998</ele>
        <time>2026-05-13T15:19:21+02:00</time>
      </trkpt>
      <trkpt lat="46.31177" lon="4.83901">
        <ele>168.2998</ele>
        <time>2026-05-13T15:19:22+02:00</time>
      </trkpt>
      <trkpt lat="46.31182" lon="4.83904">
        <ele>168.2998</ele>
        <time>2026-05-13T15:19:23+02:00</time>
      </trkpt>
      <trkpt lat="46.31186" lon="4.83907">
        <ele>168.2002</ele>
        <time>2026-05-13T15:19:24+02:00</time>
      </trkpt>
      <trkpt lat="46.31191" lon="4.8391">
        <ele>168.2002</ele>
        <time>2026-05-13T15:19:25+02:00</time>
      </trkpt>
      <trkpt lat="46.31196" lon="4.83914">
        <ele>168.2998</ele>
        <time>2026-05-13T15:19:26+02:00</time>
      </trkpt>
      <trkpt lat="46.31201" lon="4.83917">
        <ele>168.2998</ele>
        <time>2026-05-13T15:19:27+02:00</time>
      </trkpt>
      <trkpt lat="46.31206" lon="4.83921">
        <ele>168.2998</ele>
        <time>2026-05-13T15:19:28+02:00</time>
      </trkpt>
      <trkpt lat="46.3121" lon="4.83924">
        <ele>168.2998</ele>
        <time>2026-05-13T15:19:29+02:00</time>
      </trkpt>
      <trkpt lat="46.31215" lon="4.83927">
        <ele>168.2998</ele>
        <time>2026-05-13T15:19:30+02:00</time>
      </trkpt>
      <trkpt lat="46.3122" lon="4.83931">
        <ele>168.2998</ele>
        <time>2026-05-13T15:19:31+02:00</time>
      </trkpt>
      <trkpt lat="46.31225" lon="4.83934">
        <ele>168.2998</ele>
        <time>2026-05-13T15:19:32+02:00</time>
      </trkpt>
      <trkpt lat="46.31229" lon="4.83938">
        <ele>168.2002</ele>
        <time>2026-05-13T15:19:33+02:00</time>
      </trkpt>
      <trkpt lat="46.31234" lon="4.83941">
        <ele>168.2998</ele>
        <time>2026-05-13T15:19:34+02:00</time>
      </trkpt>
      <trkpt lat="46.31239" lon="4.83944">
        <ele>168.2998</ele>
        <time>2026-05-13T15:19:35+02:00</time>
      </trkpt>
      <trkpt lat="46.31243" lon="4.83947">
        <ele>168.2998</ele>
        <time>2026-05-13T15:19:36+02:00</time>
      </trkpt>
      <trkpt lat="46.31248" lon="4.83951">
        <ele>168.2998</ele>
        <time>2026-05-13T15:19:37+02:00</time>
      </trkpt>
      <trkpt lat="46.31253" lon="4.83954">
        <ele>168.2998</ele>
        <time>2026-05-13T15:19:38+02:00</time>
      </trkpt>
      <trkpt lat="46.31258" lon="4.83957">
        <ele>168.2002</ele>
        <time>2026-05-13T15:19:39+02:00</time>
      </trkpt>
      <trkpt lat="46.31262" lon="4.83961">
        <ele>168.2998</ele>
        <time>2026-05-13T15:19:40+02:00</time>
      </trkpt>
      <trkpt lat="46.31267" lon="4.83964">
        <ele>168.5</ele>
        <time>2026-05-13T15:19:41+02:00</time>
      </trkpt>
      <trkpt lat="46.31272" lon="4.83967">
        <ele>168.2998</ele>
        <time>2026-05-13T15:19:42+02:00</time>
      </trkpt>
      <trkpt lat="46.31277" lon="4.83971">
        <ele>168.40039</ele>
        <time>2026-05-13T15:19:43+02:00</time>
      </trkpt>
      <trkpt lat="46.31281" lon="4.83974">
        <ele>168.2998</ele>
        <time>2026-05-13T15:19:44+02:00</time>
      </trkpt>
      <trkpt lat="46.31286" lon="4.83977">
        <ele>168.2998</ele>
        <time>2026-05-13T15:19:45+02:00</time>
      </trkpt>
      <trkpt lat="46.31291" lon="4.83979">
        <ele>168.2998</ele>
        <time>2026-05-13T15:19:46+02:00</time>
      </trkpt>
      <trkpt lat="46.31296" lon="4.83981">
        <ele>168.2998</ele>
        <time>2026-05-13T15:19:47+02:00</time>
      </trkpt>
      <trkpt lat="46.31301" lon="4.83983">
        <ele>168</ele>
        <time>2026-05-13T15:19:48+02:00</time>
      </trkpt>
      <trkpt lat="46.31305" lon="4.83985">
        <ele>168</ele>
        <time>2026-05-13T15:19:49+02:00</time>
      </trkpt>
      <trkpt lat="46.3131" lon="4.83987">
        <ele>167.90039</ele>
        <time>2026-05-13T15:19:50+02:00</time>
      </trkpt>
      <trkpt lat="46.31314" lon="4.83989">
        <ele>167.90039</ele>
        <time>2026-05-13T15:19:51+02:00</time>
      </trkpt>
      <trkpt lat="46.31318" lon="4.83992">
        <ele>168</ele>
        <time>2026-05-13T15:19:52+02:00</time>
      </trkpt>
      <trkpt lat="46.31323" lon="4.83994">
        <ele>167.90039</ele>
        <time>2026-05-13T15:19:53+02:00</time>
      </trkpt>
      <trkpt lat="46.31328" lon="4.83996">
        <ele>168</ele>
        <time>2026-05-13T15:19:54+02:00</time>
      </trkpt>
      <trkpt lat="46.31333" lon="4.83997">
        <ele>168.2998</ele>
        <time>2026-05-13T15:19:55+02:00</time>
      </trkpt>
      <trkpt lat="46.31338" lon="4.83998">
        <ele>168.2998</ele>
        <time>2026-05-13T15:19:56+02:00</time>
      </trkpt>
      <trkpt lat="46.31342" lon="4.83997">
        <ele>168.7998</ele>
        <time>2026-05-13T15:19:57+02:00</time>
      </trkpt>
      <trkpt lat="46.31347" lon="4.83996">
        <ele>169.2998</ele>
        <time>2026-05-13T15:19:58+02:00</time>
      </trkpt>
      <trkpt lat="46.3135" lon="4.83995">
        <ele>169.2998</ele>
        <time>2026-05-13T15:19:59+02:00</time>
      </trkpt>
      <trkpt lat="46.31354" lon="4.83995">
        <ele>169.60059</ele>
        <time>2026-05-13T15:20:00+02:00</time>
      </trkpt>
      <trkpt lat="46.31358" lon="4.83996">
        <ele>169.7002</ele>
        <time>2026-05-13T15:20:01+02:00</time>
      </trkpt>
      <trkpt lat="46.31362" lon="4.83997">
        <ele>169.5</ele>
        <time>2026-05-13T15:20:02+02:00</time>
      </trkpt>
      <trkpt lat="46.31366" lon="4.83999">
        <ele>169.5</ele>
        <time>2026-05-13T15:20:03+02:00</time>
      </trkpt>
      <trkpt lat="46.3137" lon="4.84">
        <ele>167.90039</ele>
        <time>2026-05-13T15:20:04+02:00</time>
      </trkpt>
      <trkpt lat="46.31374" lon="4.84003">
        <ele>168.2002</ele>
        <time>2026-05-13T15:20:05+02:00</time>
      </trkpt>
      <trkpt lat="46.31379" lon="4.84005">
        <ele>168.2002</ele>
        <time>2026-05-13T15:20:06+02:00</time>
      </trkpt>
      <trkpt lat="46.31384" lon="4.84007">
        <ele>168.7998</ele>
        <time>2026-05-13T15:20:07+02:00</time>
      </trkpt>
      <trkpt lat="46.31388" lon="4.84009">
        <ele>169.2998</ele>
        <time>2026-05-13T15:20:08+02:00</time>
      </trkpt>
      <trkpt lat="46.31392" lon="4.8401">
        <ele>170.5</ele>
        <time>2026-05-13T15:20:09+02:00</time>
      </trkpt>
      <trkpt lat="46.31397" lon="4.84012">
        <ele>170.5</ele>
        <time>2026-05-13T15:20:10+02:00</time>
      </trkpt>
      <trkpt lat="46.314" lon="4.84014">
        <ele>171.5</ele>
        <time>2026-05-13T15:20:11+02:00</time>
      </trkpt>
      <trkpt lat="46.31402" lon="4.84015">
        <ele>171.5</ele>
        <time>2026-05-13T15:20:12+02:00</time>
      </trkpt>
      <trkpt lat="46.31403" lon="4.84015">
        <ele>171.5</ele>
        <time>2026-05-13T15:20:13+02:00</time>
      </trkpt>
      <trkpt lat="46.31404" lon="4.84015">
        <ele>172.2998</ele>
        <time>2026-05-13T15:20:14+02:00</time>
      </trkpt>
      <trkpt lat="46.31404" lon="4.84016">
        <ele>172.2998</ele>
        <time>2026-05-13T15:20:15+02:00</time>
      </trkpt>
      <trkpt lat="46.31404" lon="4.84016">
        <ele>172.2998</ele>
        <time>2026-05-13T15:20:16+02:00</time>
      </trkpt>
      <trkpt lat="46.31404" lon="4.84016">
        <ele>172.2998</ele>
        <time>2026-05-13T15:20:17+02:00</time>
      </trkpt>
      <trkpt lat="46.31414" lon="4.84026">
        <ele>168.40039</ele>
        <time>2026-05-13T15:20:27+02:00</time>
      </trkpt>
      <trkpt lat="46.31415" lon="4.84026">
        <ele>168.40039</ele>
        <time>2026-05-13T15:20:28+02:00</time>
      </trkpt>
      <trkpt lat="46.31415" lon="4.84026">
        <ele>168.40039</ele>
        <time>2026-05-13T15:20:29+02:00</time>
      </trkpt>
      <trkpt lat="46.31415" lon="4.84026">
        <ele>168.40039</ele>
        <time>2026-05-13T15:20:30+02:00</time>
      </trkpt>
      <trkpt lat="46.31415" lon="4.84026">
        <ele>168.40039</ele>
        <time>2026-05-13T15:20:31+02:00</time>
      </trkpt>
      <trkpt lat="46.31428" lon="4.8404">
        <ele>167.5</ele>
        <time>2026-05-13T15:20:38+02:00</time>
      </trkpt>
      <trkpt lat="46.31431" lon="4.84042">
        <ele>167.5</ele>
        <time>2026-05-13T15:20:39+02:00</time>
      </trkpt>
      <trkpt lat="46.31435" lon="4.84044">
        <ele>167.7002</ele>
        <time>2026-05-13T15:20:40+02:00</time>
      </trkpt>
      <trkpt lat="46.31439" lon="4.84046">
        <ele>167.7002</ele>
        <time>2026-05-13T15:20:41+02:00</time>
      </trkpt>
      <trkpt lat="46.31443" lon="4.84048">
        <ele>167.90039</ele>
        <time>2026-05-13T15:20:42+02:00</time>
      </trkpt>
      <trkpt lat="46.31447" lon="4.84051">
        <ele>168.2998</ele>
        <time>2026-05-13T15:20:43+02:00</time>
      </trkpt>
      <trkpt lat="46.31451" lon="4.84053">
        <ele>168.2002</ele>
        <time>2026-05-13T15:20:44+02:00</time>
      </trkpt>
      <trkpt lat="46.31455" lon="4.84056">
        <ele>168.2002</ele>
        <time>2026-05-13T15:20:45+02:00</time>
      </trkpt>
      <trkpt lat="46.31459" lon="4.8406">
        <ele>167.60059</ele>
        <time>2026-05-13T15:20:46+02:00</time>
      </trkpt>
      <trkpt lat="46.31463" lon="4.84063">
        <ele>167.5</ele>
        <time>2026-05-13T15:20:47+02:00</time>
      </trkpt>
      <trkpt lat="46.31467" lon="4.84066">
        <ele>167.5</ele>
        <time>2026-05-13T15:20:48+02:00</time>
      </trkpt>
      <trkpt lat="46.31471" lon="4.84069">
        <ele>167.7998</ele>
        <time>2026-05-13T15:20:49+02:00</time>
      </trkpt>
      <trkpt lat="46.31476" lon="4.84073">
        <ele>168.90039</ele>
        <time>2026-05-13T15:20:50+02:00</time>
      </trkpt>
      <trkpt lat="46.3148" lon="4.84076">
        <ele>168.90039</ele>
        <time>2026-05-13T15:20:51+02:00</time>
      </trkpt>
      <trkpt lat="46.31484" lon="4.84079">
        <ele>168.60059</ele>
        <time>2026-05-13T15:20:52+02:00</time>
      </trkpt>
      <trkpt lat="46.31489" lon="4.84082">
        <ele>169.2002</ele>
        <time>2026-05-13T15:20:53+02:00</time>
      </trkpt>
      <trkpt lat="46.31493" lon="4.84085">
        <ele>169.7998</ele>
        <time>2026-05-13T15:20:54+02:00</time>
      </trkpt>
      <trkpt lat="46.31497" lon="4.84088">
        <ele>168.2998</ele>
        <time>2026-05-13T15:20:55+02:00</time>
      </trkpt>
      <trkpt lat="46.31502" lon="4.84092">
        <ele>169.60059</ele>
        <time>2026-05-13T15:20:56+02:00</time>
      </trkpt>
      <trkpt lat="46.31506" lon="4.84095">
        <ele>170.40039</ele>
        <time>2026-05-13T15:20:57+02:00</time>
      </trkpt>
      <trkpt lat="46.31511" lon="4.84098">
        <ele>172</ele>
        <time>2026-05-13T15:20:58+02:00</time>
      </trkpt>
      <trkpt lat="46.31515" lon="4.84101">
        <ele>172</ele>
        <time>2026-05-13T15:20:59+02:00</time>
      </trkpt>
      <trkpt lat="46.31519" lon="4.84103">
        <ele>170.2998</ele>
        <time>2026-05-13T15:21:00+02:00</time>
      </trkpt>
      <trkpt lat="46.31524" lon="4.84106">
        <ele>170.2002</ele>
        <time>2026-05-13T15:21:01+02:00</time>
      </trkpt>
      <trkpt lat="46.31528" lon="4.84108">
        <ele>170.10059</ele>
        <time>2026-05-13T15:21:02+02:00</time>
      </trkpt>
      <trkpt lat="46.31532" lon="4.84111">
        <ele>168.2998</ele>
        <time>2026-05-13T15:21:03+02:00</time>
      </trkpt>
      <trkpt lat="46.31536" lon="4.84113">
        <ele>168.2998</ele>
        <time>2026-05-13T15:21:04+02:00</time>
      </trkpt>
      <trkpt lat="46.3154" lon="4.84116">
        <ele>168.5</ele>
        <time>2026-05-13T15:21:05+02:00</time>
      </trkpt>
      <trkpt lat="46.31544" lon="4.84119">
        <ele>168.5</ele>
        <time>2026-05-13T15:21:06+02:00</time>
      </trkpt>
      <trkpt lat="46.31548" lon="4.84122">
        <ele>168.2998</ele>
        <time>2026-05-13T15:21:07+02:00</time>
      </trkpt>
      <trkpt lat="46.31553" lon="4.84124">
        <ele>168.90039</ele>
        <time>2026-05-13T15:21:08+02:00</time>
      </trkpt>
      <trkpt lat="46.31557" lon="4.84126">
        <ele>168.90039</ele>
        <time>2026-05-13T15:21:09+02:00</time>
      </trkpt>
      <trkpt lat="46.31561" lon="4.84128">
        <ele>168.90039</ele>
        <time>2026-05-13T15:21:10+02:00</time>
      </trkpt>
      <trkpt lat="46.31566" lon="4.84129">
        <ele>169.2998</ele>
        <time>2026-05-13T15:21:11+02:00</time>
      </trkpt>
      <trkpt lat="46.3157" lon="4.84131">
        <ele>169.7998</ele>
        <time>2026-05-13T15:21:12+02:00</time>
      </trkpt>
      <trkpt lat="46.31574" lon="4.84134">
        <ele>169.7998</ele>
        <time>2026-05-13T15:21:13+02:00</time>
      </trkpt>
      <trkpt lat="46.31578" lon="4.84136">
        <ele>170.2998</ele>
        <time>2026-05-13T15:21:14+02:00</time>
      </trkpt>
      <trkpt lat="46.31582" lon="4.84139">
        <ele>168.7002</ele>
        <time>2026-05-13T15:21:15+02:00</time>
      </trkpt>
      <trkpt lat="46.31587" lon="4.84142">
        <ele>168.7002</ele>
        <time>2026-05-13T15:21:16+02:00</time>
      </trkpt>
      <trkpt lat="46.31592" lon="4.84144">
        <ele>168.60059</ele>
        <time>2026-05-13T15:21:17+02:00</time>
      </trkpt>
      <trkpt lat="46.31596" lon="4.84147">
        <ele>167.7002</ele>
        <time>2026-05-13T15:21:18+02:00</time>
      </trkpt>
      <trkpt lat="46.31601" lon="4.8415">
        <ele>167.5</ele>
        <time>2026-05-13T15:21:19+02:00</time>
      </trkpt>
      <trkpt lat="46.31606" lon="4.84152">
        <ele>167.7998</ele>
        <time>2026-05-13T15:21:20+02:00</time>
      </trkpt>
      <trkpt lat="46.31611" lon="4.84155">
        <ele>167.7998</ele>
        <time>2026-05-13T15:21:21+02:00</time>
      </trkpt>
      <trkpt lat="46.31616" lon="4.84157">
        <ele>168.2002</ele>
        <time>2026-05-13T15:21:22+02:00</time>
      </trkpt>
      <trkpt lat="46.31621" lon="4.8416">
        <ele>169.10059</ele>
        <time>2026-05-13T15:21:23+02:00</time>
      </trkpt>
      <trkpt lat="46.31626" lon="4.84163">
        <ele>168.7998</ele>
        <time>2026-05-13T15:21:24+02:00</time>
      </trkpt>
      <trkpt lat="46.31631" lon="4.84166">
        <ele>168.90039</ele>
        <time>2026-05-13T15:21:25+02:00</time>
      </trkpt>
      <trkpt lat="46.31635" lon="4.84169">
        <ele>168.90039</ele>
        <time>2026-05-13T15:21:26+02:00</time>
      </trkpt>
      <trkpt lat="46.31641" lon="4.84172">
        <ele>167.90039</ele>
        <time>2026-05-13T15:21:27+02:00</time>
      </trkpt>
      <trkpt lat="46.31645" lon="4.84175">
        <ele>167.90039</ele>
        <time>2026-05-13T15:21:28+02:00</time>
      </trkpt>
      <trkpt lat="46.3165" lon="4.84178">
        <ele>167.90039</ele>
        <time>2026-05-13T15:21:29+02:00</time>
      </trkpt>
      <trkpt lat="46.31655" lon="4.84181">
        <ele>167.90039</ele>
        <time>2026-05-13T15:21:30+02:00</time>
      </trkpt>
      <trkpt lat="46.3166" lon="4.84184">
        <ele>168.2002</ele>
        <time>2026-05-13T15:21:31+02:00</time>
      </trkpt>
      <trkpt lat="46.31664" lon="4.84187">
        <ele>168.2002</ele>
        <time>2026-05-13T15:21:32+02:00</time>
      </trkpt>
      <trkpt lat="46.31669" lon="4.84191">
        <ele>168.2998</ele>
        <time>2026-05-13T15:21:33+02:00</time>
      </trkpt>
      <trkpt lat="46.31673" lon="4.84194">
        <ele>168.5</ele>
        <time>2026-05-13T15:21:34+02:00</time>
      </trkpt>
      <trkpt lat="46.31677" lon="4.84197">
        <ele>168.2998</ele>
        <time>2026-05-13T15:21:35+02:00</time>
      </trkpt>
      <trkpt lat="46.31681" lon="4.842">
        <ele>168.2998</ele>
        <time>2026-05-13T15:21:36+02:00</time>
      </trkpt>
      <trkpt lat="46.31685" lon="4.84203">
        <ele>168.40039</ele>
        <time>2026-05-13T15:21:37+02:00</time>
      </trkpt>
      <trkpt lat="46.31688" lon="4.84206">
        <ele>168.10059</ele>
        <time>2026-05-13T15:21:38+02:00</time>
      </trkpt>
      <trkpt lat="46.31692" lon="4.84209">
        <ele>168.2002</ele>
        <time>2026-05-13T15:21:39+02:00</time>
      </trkpt>
      <trkpt lat="46.31696" lon="4.84213">
        <ele>168.5</ele>
        <time>2026-05-13T15:21:40+02:00</time>
      </trkpt>
      <trkpt lat="46.31698" lon="4.84217">
        <ele>168.2998</ele>
        <time>2026-05-13T15:21:41+02:00</time>
      </trkpt>
      <trkpt lat="46.31702" lon="4.84221">
        <ele>168.5</ele>
        <time>2026-05-13T15:21:42+02:00</time>
      </trkpt>
      <trkpt lat="46.31706" lon="4.84224">
        <ele>168.40039</ele>
        <time>2026-05-13T15:21:43+02:00</time>
      </trkpt>
      <trkpt lat="46.3171" lon="4.84225">
        <ele>168.40039</ele>
        <time>2026-05-13T15:21:44+02:00</time>
      </trkpt>
      <trkpt lat="46.31714" lon="4.84227">
        <ele>168.5</ele>
        <time>2026-05-13T15:21:45+02:00</time>
      </trkpt>
      <trkpt lat="46.31718" lon="4.8423">
        <ele>168.7002</ele>
        <time>2026-05-13T15:21:46+02:00</time>
      </trkpt>
      <trkpt lat="46.31722" lon="4.84234">
        <ele>168.2998</ele>
        <time>2026-05-13T15:21:47+02:00</time>
      </trkpt>
      <trkpt lat="46.31724" lon="4.84239">
        <ele>168.60059</ele>
        <time>2026-05-13T15:21:48+02:00</time>
      </trkpt>
      <trkpt lat="46.31728" lon="4.84244">
        <ele>168.2998</ele>
        <time>2026-05-13T15:21:49+02:00</time>
      </trkpt>
      <trkpt lat="46.31731" lon="4.84248">
        <ele>168.7002</ele>
        <time>2026-05-13T15:21:50+02:00</time>
      </trkpt>
      <trkpt lat="46.31735" lon="4.84252">
        <ele>168.40039</ele>
        <time>2026-05-13T15:21:51+02:00</time>
      </trkpt>
      <trkpt lat="46.3174" lon="4.84256">
        <ele>168.5</ele>
        <time>2026-05-13T15:21:52+02:00</time>
      </trkpt>
      <trkpt lat="46.31744" lon="4.84261">
        <ele>168.2002</ele>
        <time>2026-05-13T15:21:53+02:00</time>
      </trkpt>
      <trkpt lat="46.31748" lon="4.84265">
        <ele>168.40039</ele>
        <time>2026-05-13T15:21:54+02:00</time>
      </trkpt>
      <trkpt lat="46.31753" lon="4.8427">
        <ele>168.10059</ele>
        <time>2026-05-13T15:21:55+02:00</time>
      </trkpt>
      <trkpt lat="46.31757" lon="4.84274">
        <ele>168.2998</ele>
        <time>2026-05-13T15:21:56+02:00</time>
      </trkpt>
      <trkpt lat="46.31761" lon="4.84278">
        <ele>168.5</ele>
        <time>2026-05-13T15:21:57+02:00</time>
      </trkpt>
      <trkpt lat="46.31765" lon="4.84283">
        <ele>168.2002</ele>
        <time>2026-05-13T15:21:58+02:00</time>
      </trkpt>
      <trkpt lat="46.3177" lon="4.84287">
        <ele>168.2002</ele>
        <time>2026-05-13T15:21:59+02:00</time>
      </trkpt>
      <trkpt lat="46.31775" lon="4.84292">
        <ele>168.10059</ele>
        <time>2026-05-13T15:22:00+02:00</time>
      </trkpt>
      <trkpt lat="46.31779" lon="4.84296">
        <ele>168.2998</ele>
        <time>2026-05-13T15:22:01+02:00</time>
      </trkpt>
      <trkpt lat="46.31784" lon="4.84301">
        <ele>168.40039</ele>
        <time>2026-05-13T15:22:02+02:00</time>
      </trkpt>
      <trkpt lat="46.31788" lon="4.84306">
        <ele>168.40039</ele>
        <time>2026-05-13T15:22:03+02:00</time>
      </trkpt>
      <trkpt lat="46.31793" lon="4.8431">
        <ele>168.2998</ele>
        <time>2026-05-13T15:22:04+02:00</time>
      </trkpt>
      <trkpt lat="46.31798" lon="4.84315">
        <ele>168.5</ele>
        <time>2026-05-13T15:22:05+02:00</time>
      </trkpt>
      <trkpt lat="46.31802" lon="4.84319">
        <ele>168.2998</ele>
        <time>2026-05-13T15:22:06+02:00</time>
      </trkpt>
      <trkpt lat="46.31807" lon="4.84324">
        <ele>168.5</ele>
        <time>2026-05-13T15:22:07+02:00</time>
      </trkpt>
      <trkpt lat="46.31811" lon="4.84329">
        <ele>168.2998</ele>
        <time>2026-05-13T15:22:08+02:00</time>
      </trkpt>
      <trkpt lat="46.31816" lon="4.84334">
        <ele>168.5</ele>
        <time>2026-05-13T15:22:09+02:00</time>
      </trkpt>
      <trkpt lat="46.3182" lon="4.84338">
        <ele>168.5</ele>
        <time>2026-05-13T15:22:10+02:00</time>
      </trkpt>
      <trkpt lat="46.31825" lon="4.84343">
        <ele>168.2998</ele>
        <time>2026-05-13T15:22:11+02:00</time>
      </trkpt>
      <trkpt lat="46.3183" lon="4.84348">
        <ele>168.2998</ele>
        <time>2026-05-13T15:22:12+02:00</time>
      </trkpt>
      <trkpt lat="46.31834" lon="4.84352">
        <ele>168</ele>
        <time>2026-05-13T15:22:13+02:00</time>
      </trkpt>
      <trkpt lat="46.31839" lon="4.84357">
        <ele>167.90039</ele>
        <time>2026-05-13T15:22:14+02:00</time>
      </trkpt>
      <trkpt lat="46.31843" lon="4.84361">
        <ele>168.10059</ele>
        <time>2026-05-13T15:22:15+02:00</time>
      </trkpt>
      <trkpt lat="46.31847" lon="4.84366">
        <ele>168.10059</ele>
        <time>2026-05-13T15:22:16+02:00</time>
      </trkpt>
      <trkpt lat="46.31852" lon="4.8437">
        <ele>168.2998</ele>
        <time>2026-05-13T15:22:17+02:00</time>
      </trkpt>
      <trkpt lat="46.31856" lon="4.84375">
        <ele>168.2998</ele>
        <time>2026-05-13T15:22:18+02:00</time>
      </trkpt>
      <trkpt lat="46.3186" lon="4.84379">
        <ele>168.10059</ele>
        <time>2026-05-13T15:22:19+02:00</time>
      </trkpt>
      <trkpt lat="46.31865" lon="4.84383">
        <ele>168.10059</ele>
        <time>2026-05-13T15:22:20+02:00</time>
      </trkpt>
      <trkpt lat="46.31869" lon="4.84388">
        <ele>168.10059</ele>
        <time>2026-05-13T15:22:21+02:00</time>
      </trkpt>
      <trkpt lat="46.31873" lon="4.84392">
        <ele>168.2998</ele>
        <time>2026-05-13T15:22:22+02:00</time>
      </trkpt>
      <trkpt lat="46.31877" lon="4.84396">
        <ele>168.2002</ele>
        <time>2026-05-13T15:22:23+02:00</time>
      </trkpt>
      <trkpt lat="46.31881" lon="4.84401">
        <ele>168.2998</ele>
        <time>2026-05-13T15:22:24+02:00</time>
      </trkpt>
      <trkpt lat="46.31885" lon="4.84404">
        <ele>168.2998</ele>
        <time>2026-05-13T15:22:25+02:00</time>
      </trkpt>
      <trkpt lat="46.31888" lon="4.84408">
        <ele>168.2998</ele>
        <time>2026-05-13T15:22:26+02:00</time>
      </trkpt>
      <trkpt lat="46.31892" lon="4.84412">
        <ele>168.2002</ele>
        <time>2026-05-13T15:22:27+02:00</time>
      </trkpt>
      <trkpt lat="46.31896" lon="4.84416">
        <ele>168.2002</ele>
        <time>2026-05-13T15:22:28+02:00</time>
      </trkpt>
      <trkpt lat="46.319" lon="4.8442">
        <ele>168.2002</ele>
        <time>2026-05-13T15:22:29+02:00</time>
      </trkpt>
      <trkpt lat="46.31904" lon="4.84424">
        <ele>168.2002</ele>
        <time>2026-05-13T15:22:30+02:00</time>
      </trkpt>
      <trkpt lat="46.31909" lon="4.84429">
        <ele>168.2998</ele>
        <time>2026-05-13T15:22:31+02:00</time>
      </trkpt>
      <trkpt lat="46.31913" lon="4.84433">
        <ele>168.2998</ele>
        <time>2026-05-13T15:22:32+02:00</time>
      </trkpt>
      <trkpt lat="46.31917" lon="4.84437">
        <ele>168.2998</ele>
        <time>2026-05-13T15:22:33+02:00</time>
      </trkpt>
      <trkpt lat="46.3192" lon="4.84442">
        <ele>168.2002</ele>
        <time>2026-05-13T15:22:34+02:00</time>
      </trkpt>
      <trkpt lat="46.31925" lon="4.84446">
        <ele>168.2002</ele>
        <time>2026-05-13T15:22:35+02:00</time>
      </trkpt>
      <trkpt lat="46.31928" lon="4.84449">
        <ele>168</ele>
        <time>2026-05-13T15:22:36+02:00</time>
      </trkpt>
      <trkpt lat="46.31933" lon="4.84453">
        <ele>167.90039</ele>
        <time>2026-05-13T15:22:37+02:00</time>
      </trkpt>
      <trkpt lat="46.31937" lon="4.84456">
        <ele>168.10059</ele>
        <time>2026-05-13T15:22:38+02:00</time>
      </trkpt>
      <trkpt lat="46.31941" lon="4.8446">
        <ele>168.10059</ele>
        <time>2026-05-13T15:22:39+02:00</time>
      </trkpt>
      <trkpt lat="46.31946" lon="4.84463">
        <ele>168.2998</ele>
        <time>2026-05-13T15:22:40+02:00</time>
      </trkpt>
      <trkpt lat="46.31951" lon="4.84466">
        <ele>168.2998</ele>
        <time>2026-05-13T15:22:41+02:00</time>
      </trkpt>
      <trkpt lat="46.31955" lon="4.84469">
        <ele>168.2998</ele>
        <time>2026-05-13T15:22:42+02:00</time>
      </trkpt>
      <trkpt lat="46.3196" lon="4.84472">
        <ele>168.2998</ele>
        <time>2026-05-13T15:22:43+02:00</time>
      </trkpt>
      <trkpt lat="46.31964" lon="4.84475">
        <ele>168.2998</ele>
        <time>2026-05-13T15:22:44+02:00</time>
      </trkpt>
      <trkpt lat="46.31969" lon="4.84478">
        <ele>168.2002</ele>
        <time>2026-05-13T15:22:45+02:00</time>
      </trkpt>
      <trkpt lat="46.31974" lon="4.84482">
        <ele>168.2002</ele>
        <time>2026-05-13T15:22:46+02:00</time>
      </trkpt>
      <trkpt lat="46.31978" lon="4.84485">
        <ele>168.2002</ele>
        <time>2026-05-13T15:22:47+02:00</time>
      </trkpt>
      <trkpt lat="46.31983" lon="4.84489">
        <ele>168.40039</ele>
        <time>2026-05-13T15:22:48+02:00</time>
      </trkpt>
      <trkpt lat="46.31988" lon="4.84492">
        <ele>168.2998</ele>
        <time>2026-05-13T15:22:49+02:00</time>
      </trkpt>
      <trkpt lat="46.31992" lon="4.84496">
        <ele>168</ele>
        <time>2026-05-13T15:22:50+02:00</time>
      </trkpt>
      <trkpt lat="46.31996" lon="4.84499">
        <ele>168</ele>
        <time>2026-05-13T15:22:51+02:00</time>
      </trkpt>
      <trkpt lat="46.32001" lon="4.84502">
        <ele>167.40039</ele>
        <time>2026-05-13T15:22:52+02:00</time>
      </trkpt>
      <trkpt lat="46.32005" lon="4.84506">
        <ele>167.10059</ele>
        <time>2026-05-13T15:22:53+02:00</time>
      </trkpt>
      <trkpt lat="46.3201" lon="4.84509">
        <ele>167</ele>
        <time>2026-05-13T15:22:54+02:00</time>
      </trkpt>
      <trkpt lat="46.32015" lon="4.84512">
        <ele>167.5</ele>
        <time>2026-05-13T15:22:55+02:00</time>
      </trkpt>
      <trkpt lat="46.32019" lon="4.84516">
        <ele>167</ele>
        <time>2026-05-13T15:22:56+02:00</time>
      </trkpt>
      <trkpt lat="46.32024" lon="4.84519">
        <ele>167</ele>
        <time>2026-05-13T15:22:57+02:00</time>
      </trkpt>
      <trkpt lat="46.32029" lon="4.84522">
        <ele>167.2002</ele>
        <time>2026-05-13T15:22:58+02:00</time>
      </trkpt>
      <trkpt lat="46.32034" lon="4.84526">
        <ele>167.10059</ele>
        <time>2026-05-13T15:22:59+02:00</time>
      </trkpt>
      <trkpt lat="46.32039" lon="4.84529">
        <ele>168</ele>
        <time>2026-05-13T15:23:00+02:00</time>
      </trkpt>
      <trkpt lat="46.32044" lon="4.84533">
        <ele>168.5</ele>
        <time>2026-05-13T15:23:01+02:00</time>
      </trkpt>
      <trkpt lat="46.32049" lon="4.84536">
        <ele>168.5</ele>
        <time>2026-05-13T15:23:02+02:00</time>
      </trkpt>
      <trkpt lat="46.32053" lon="4.8454">
        <ele>168.10059</ele>
        <time>2026-05-13T15:23:03+02:00</time>
      </trkpt>
      <trkpt lat="46.32058" lon="4.84543">
        <ele>168.2002</ele>
        <time>2026-05-13T15:23:04+02:00</time>
      </trkpt>
      <trkpt lat="46.32062" lon="4.84546">
        <ele>168</ele>
        <time>2026-05-13T15:23:05+02:00</time>
      </trkpt>
      <trkpt lat="46.32066" lon="4.8455">
        <ele>167</ele>
        <time>2026-05-13T15:23:06+02:00</time>
      </trkpt>
      <trkpt lat="46.32071" lon="4.84554">
        <ele>166.7002</ele>
        <time>2026-05-13T15:23:07+02:00</time>
      </trkpt>
      <trkpt lat="46.32075" lon="4.84558">
        <ele>166.2998</ele>
        <time>2026-05-13T15:23:08+02:00</time>
      </trkpt>
      <trkpt lat="46.32079" lon="4.84562">
        <ele>166.2998</ele>
        <time>2026-05-13T15:23:09+02:00</time>
      </trkpt>
      <trkpt lat="46.32093" lon="4.84572">
        <ele>168</ele>
        <time>2026-05-13T15:23:10+02:00</time>
      </trkpt>
      <trkpt lat="46.32098" lon="4.84576">
        <ele>167.2002</ele>
        <time>2026-05-13T15:23:11+02:00</time>
      </trkpt>
      <trkpt lat="46.32102" lon="4.84579">
        <ele>167.2002</ele>
        <time>2026-05-13T15:23:12+02:00</time>
      </trkpt>
      <trkpt lat="46.32106" lon="4.84582">
        <ele>167.10059</ele>
        <time>2026-05-13T15:23:13+02:00</time>
      </trkpt>
      <trkpt lat="46.3211" lon="4.84584">
        <ele>166.40039</ele>
        <time>2026-05-13T15:23:14+02:00</time>
      </trkpt>
      <trkpt lat="46.32115" lon="4.84583">
        <ele>166.2002</ele>
        <time>2026-05-13T15:23:15+02:00</time>
      </trkpt>
      <trkpt lat="46.32119" lon="4.84582">
        <ele>166.60059</ele>
        <time>2026-05-13T15:23:16+02:00</time>
      </trkpt>
      <trkpt lat="46.32121" lon="4.84579">
        <ele>166.7002</ele>
        <time>2026-05-13T15:23:17+02:00</time>
      </trkpt>
      <trkpt lat="46.32123" lon="4.84575">
        <ele>166.7002</ele>
        <time>2026-05-13T15:23:18+02:00</time>
      </trkpt>
      <trkpt lat="46.32125" lon="4.84571">
        <ele>167.60059</ele>
        <time>2026-05-13T15:23:19+02:00</time>
      </trkpt>
      <trkpt lat="46.32127" lon="4.84566">
        <ele>168.10059</ele>
        <time>2026-05-13T15:23:20+02:00</time>
      </trkpt>
      <trkpt lat="46.32128" lon="4.84562">
        <ele>169.5</ele>
        <time>2026-05-13T15:23:21+02:00</time>
      </trkpt>
      <trkpt lat="46.32129" lon="4.84557">
        <ele>170.7002</ele>
        <time>2026-05-13T15:23:22+02:00</time>
      </trkpt>
      <trkpt lat="46.3213" lon="4.84553">
        <ele>170.7002</ele>
        <time>2026-05-13T15:23:23+02:00</time>
      </trkpt>
      <trkpt lat="46.32132" lon="4.84548">
        <ele>171.40039</ele>
        <time>2026-05-13T15:23:24+02:00</time>
      </trkpt>
      <trkpt lat="46.32133" lon="4.84545">
        <ele>171.5</ele>
        <time>2026-05-13T15:23:25+02:00</time>
      </trkpt>
      <trkpt lat="46.32135" lon="4.84541">
        <ele>171.5</ele>
        <time>2026-05-13T15:23:26+02:00</time>
      </trkpt>
      <trkpt lat="46.32137" lon="4.84538">
        <ele>172</ele>
        <time>2026-05-13T15:23:27+02:00</time>
      </trkpt>
      <trkpt lat="46.3214" lon="4.84533">
        <ele>172.2002</ele>
        <time>2026-05-13T15:23:28+02:00</time>
      </trkpt>
      <trkpt lat="46.32142" lon="4.84528">
        <ele>172.7002</ele>
        <time>2026-05-13T15:23:29+02:00</time>
      </trkpt>
      <trkpt lat="46.32145" lon="4.84524">
        <ele>172.7998</ele>
        <time>2026-05-13T15:23:30+02:00</time>
      </trkpt>
      <trkpt lat="46.32148" lon="4.8452">
        <ele>173.2002</ele>
        <time>2026-05-13T15:23:31+02:00</time>
      </trkpt>
      <trkpt lat="46.32151" lon="4.84516">
        <ele>173.2002</ele>
        <time>2026-05-13T15:23:32+02:00</time>
      </trkpt>
      <trkpt lat="46.32153" lon="4.84512">
        <ele>173.2998</ele>
        <time>2026-05-13T15:23:33+02:00</time>
      </trkpt>
      <trkpt lat="46.32155" lon="4.84509">
        <ele>173.2998</ele>
        <time>2026-05-13T15:23:34+02:00</time>
      </trkpt>
      <trkpt lat="46.32156" lon="4.84506">
        <ele>173.2998</ele>
        <time>2026-05-13T15:23:35+02:00</time>
      </trkpt>
      <trkpt lat="46.32157" lon="4.84502">
        <ele>173</ele>
        <time>2026-05-13T15:23:36+02:00</time>
      </trkpt>
      <trkpt lat="46.32158" lon="4.84499">
        <ele>173</ele>
        <time>2026-05-13T15:23:37+02:00</time>
      </trkpt>
      <trkpt lat="46.3216" lon="4.84496">
        <ele>172.90039</ele>
        <time>2026-05-13T15:23:38+02:00</time>
      </trkpt>
      <trkpt lat="46.32162" lon="4.84492">
        <ele>172.90039</ele>
        <time>2026-05-13T15:23:39+02:00</time>
      </trkpt>
      <trkpt lat="46.32165" lon="4.84489">
        <ele>172.7002</ele>
        <time>2026-05-13T15:23:40+02:00</time>
      </trkpt>
      <trkpt lat="46.32168" lon="4.84487">
        <ele>172.60059</ele>
        <time>2026-05-13T15:23:41+02:00</time>
      </trkpt>
      <trkpt lat="46.32173" lon="4.84486">
        <ele>172.5</ele>
        <time>2026-05-13T15:23:42+02:00</time>
      </trkpt>
      <trkpt lat="46.32177" lon="4.84485">
        <ele>172.40039</ele>
        <time>2026-05-13T15:23:43+02:00</time>
      </trkpt>
      <trkpt lat="46.32181" lon="4.84485">
        <ele>172.40039</ele>
        <time>2026-05-13T15:23:44+02:00</time>
      </trkpt>
      <trkpt lat="46.32185" lon="4.84484">
        <ele>172.40039</ele>
        <time>2026-05-13T15:23:45+02:00</time>
      </trkpt>
      <trkpt lat="46.3219" lon="4.84483">
        <ele>172.2998</ele>
        <time>2026-05-13T15:23:46+02:00</time>
      </trkpt>
      <trkpt lat="46.32195" lon="4.84482">
        <ele>172.2002</ele>
        <time>2026-05-13T15:23:47+02:00</time>
      </trkpt>
      <trkpt lat="46.322" lon="4.84481">
        <ele>172.10059</ele>
        <time>2026-05-13T15:23:48+02:00</time>
      </trkpt>
      <trkpt lat="46.32205" lon="4.84481">
        <ele>171.90039</ele>
        <time>2026-05-13T15:23:49+02:00</time>
      </trkpt>
      <trkpt lat="46.3221" lon="4.8448">
        <ele>171.7998</ele>
        <time>2026-05-13T15:23:50+02:00</time>
      </trkpt>
      <trkpt lat="46.32216" lon="4.8448">
        <ele>171.7002</ele>
        <time>2026-05-13T15:23:51+02:00</time>
      </trkpt>
      <trkpt lat="46.32221" lon="4.84479">
        <ele>171.7002</ele>
        <time>2026-05-13T15:23:52+02:00</time>
      </trkpt>
      <trkpt lat="46.32226" lon="4.84479">
        <ele>171.60059</ele>
        <time>2026-05-13T15:23:53+02:00</time>
      </trkpt>
      <trkpt lat="46.32231" lon="4.84479">
        <ele>171.40039</ele>
        <time>2026-05-13T15:23:54+02:00</time>
      </trkpt>
      <trkpt lat="46.32237" lon="4.84479">
        <ele>171.2998</ele>
        <time>2026-05-13T15:23:55+02:00</time>
      </trkpt>
      <trkpt lat="46.32242" lon="4.8448">
        <ele>171.10059</ele>
        <time>2026-05-13T15:23:56+02:00</time>
      </trkpt>
      <trkpt lat="46.32247" lon="4.8448">
        <ele>171</ele>
        <time>2026-05-13T15:23:57+02:00</time>
      </trkpt>
      <trkpt lat="46.32252" lon="4.8448">
        <ele>170.90039</ele>
        <time>2026-05-13T15:23:58+02:00</time>
      </trkpt>
      <trkpt lat="46.32258" lon="4.8448">
        <ele>170.7998</ele>
        <time>2026-05-13T15:23:59+02:00</time>
      </trkpt>
      <trkpt lat="46.32263" lon="4.8448">
        <ele>170.7002</ele>
        <time>2026-05-13T15:24:00+02:00</time>
      </trkpt>
      <trkpt lat="46.32268" lon="4.84481">
        <ele>170.7002</ele>
        <time>2026-05-13T15:24:01+02:00</time>
      </trkpt>
      <trkpt lat="46.32273" lon="4.84481">
        <ele>170.7002</ele>
        <time>2026-05-13T15:24:02+02:00</time>
      </trkpt>
      <trkpt lat="46.32279" lon="4.84481">
        <ele>170.60059</ele>
        <time>2026-05-13T15:24:03+02:00</time>
      </trkpt>
      <trkpt lat="46.32284" lon="4.84482">
        <ele>170.60059</ele>
        <time>2026-05-13T15:24:04+02:00</time>
      </trkpt>
      <trkpt lat="46.3229" lon="4.84482">
        <ele>170.60059</ele>
        <time>2026-05-13T15:24:05+02:00</time>
      </trkpt>
      <trkpt lat="46.32295" lon="4.84483">
        <ele>170.60059</ele>
        <time>2026-05-13T15:24:06+02:00</time>
      </trkpt>
      <trkpt lat="46.323" lon="4.84483">
        <ele>170.7002</ele>
        <time>2026-05-13T15:24:07+02:00</time>
      </trkpt>
      <trkpt lat="46.32306" lon="4.84484">
        <ele>170.7998</ele>
        <time>2026-05-13T15:24:08+02:00</time>
      </trkpt>
      <trkpt lat="46.32311" lon="4.84485">
        <ele>170.90039</ele>
        <time>2026-05-13T15:24:09+02:00</time>
      </trkpt>
      <trkpt lat="46.32316" lon="4.84486">
        <ele>170.90039</ele>
        <time>2026-05-13T15:24:10+02:00</time>
      </trkpt>
      <trkpt lat="46.32322" lon="4.84486">
        <ele>171</ele>
        <time>2026-05-13T15:24:11+02:00</time>
      </trkpt>
      <trkpt lat="46.32327" lon="4.84486">
        <ele>171.10059</ele>
        <time>2026-05-13T15:24:12+02:00</time>
      </trkpt>
      <trkpt lat="46.32332" lon="4.84486">
        <ele>171.2002</ele>
        <time>2026-05-13T15:24:13+02:00</time>
      </trkpt>
      <trkpt lat="46.32338" lon="4.84486">
        <ele>171.40039</ele>
        <time>2026-05-13T15:24:14+02:00</time>
      </trkpt>
      <trkpt lat="46.32343" lon="4.84486">
        <ele>171.5</ele>
        <time>2026-05-13T15:24:15+02:00</time>
      </trkpt>
      <trkpt lat="46.32349" lon="4.84486">
        <ele>171.60059</ele>
        <time>2026-05-13T15:24:16+02:00</time>
      </trkpt>
      <trkpt lat="46.32355" lon="4.84486">
        <ele>171.7998</ele>
        <time>2026-05-13T15:24:17+02:00</time>
      </trkpt>
      <trkpt lat="46.32361" lon="4.84487">
        <ele>171.90039</ele>
        <time>2026-05-13T15:24:18+02:00</time>
      </trkpt>
      <trkpt lat="46.32366" lon="4.84487">
        <ele>172</ele>
        <time>2026-05-13T15:24:19+02:00</time>
      </trkpt>
      <trkpt lat="46.32372" lon="4.84487">
        <ele>172.2002</ele>
        <time>2026-05-13T15:24:20+02:00</time>
      </trkpt>
      <trkpt lat="46.32377" lon="4.84488">
        <ele>172.2998</ele>
        <time>2026-05-13T15:24:21+02:00</time>
      </trkpt>
      <trkpt lat="46.32383" lon="4.84489">
        <ele>172.2998</ele>
        <time>2026-05-13T15:24:22+02:00</time>
      </trkpt>
      <trkpt lat="46.32388" lon="4.84489">
        <ele>172.40039</ele>
        <time>2026-05-13T15:24:23+02:00</time>
      </trkpt>
      <trkpt lat="46.32394" lon="4.8449">
        <ele>172.40039</ele>
        <time>2026-05-13T15:24:24+02:00</time>
      </trkpt>
      <trkpt lat="46.32399" lon="4.8449">
        <ele>172.40039</ele>
        <time>2026-05-13T15:24:25+02:00</time>
      </trkpt>
      <trkpt lat="46.32405" lon="4.84491">
        <ele>172.40039</ele>
        <time>2026-05-13T15:24:26+02:00</time>
      </trkpt>
      <trkpt lat="46.3241" lon="4.84491">
        <ele>172.40039</ele>
        <time>2026-05-13T15:24:27+02:00</time>
      </trkpt>
      <trkpt lat="46.32416" lon="4.84492">
        <ele>172.40039</ele>
        <time>2026-05-13T15:24:28+02:00</time>
      </trkpt>
      <trkpt lat="46.32421" lon="4.84492">
        <ele>172.40039</ele>
        <time>2026-05-13T15:24:29+02:00</time>
      </trkpt>
      <trkpt lat="46.32427" lon="4.84492">
        <ele>172.40039</ele>
        <time>2026-05-13T15:24:30+02:00</time>
      </trkpt>
      <trkpt lat="46.32432" lon="4.84492">
        <ele>172.2998</ele>
        <time>2026-05-13T15:24:31+02:00</time>
      </trkpt>
      <trkpt lat="46.32437" lon="4.84492">
        <ele>172.2998</ele>
        <time>2026-05-13T15:24:32+02:00</time>
      </trkpt>
      <trkpt lat="46.32442" lon="4.84493">
        <ele>172.2002</ele>
        <time>2026-05-13T15:24:33+02:00</time>
      </trkpt>
      <trkpt lat="46.32448" lon="4.84493">
        <ele>172.2002</ele>
        <time>2026-05-13T15:24:34+02:00</time>
      </trkpt>
      <trkpt lat="46.32453" lon="4.84493">
        <ele>172.10059</ele>
        <time>2026-05-13T15:24:35+02:00</time>
      </trkpt>
      <trkpt lat="46.32458" lon="4.84493">
        <ele>172.10059</ele>
        <time>2026-05-13T15:24:36+02:00</time>
      </trkpt>
      <trkpt lat="46.32464" lon="4.84494">
        <ele>172</ele>
        <time>2026-05-13T15:24:37+02:00</time>
      </trkpt>
      <trkpt lat="46.32469" lon="4.84494">
        <ele>172</ele>
        <time>2026-05-13T15:24:38+02:00</time>
      </trkpt>
      <trkpt lat="46.32474" lon="4.84494">
        <ele>171.90039</ele>
        <time>2026-05-13T15:24:39+02:00</time>
      </trkpt>
      <trkpt lat="46.32479" lon="4.84494">
        <ele>171.7998</ele>
        <time>2026-05-13T15:24:40+02:00</time>
      </trkpt>
      <trkpt lat="46.32485" lon="4.84494">
        <ele>171.7002</ele>
        <time>2026-05-13T15:24:41+02:00</time>
      </trkpt>
      <trkpt lat="46.3249" lon="4.84495">
        <ele>171.7002</ele>
        <time>2026-05-13T15:24:42+02:00</time>
      </trkpt>
      <trkpt lat="46.32495" lon="4.84495">
        <ele>171.7002</ele>
        <time>2026-05-13T15:24:43+02:00</time>
      </trkpt>
      <trkpt lat="46.32501" lon="4.84495">
        <ele>171.7002</ele>
        <time>2026-05-13T15:24:44+02:00</time>
      </trkpt>
      <trkpt lat="46.32506" lon="4.84495">
        <ele>171.7002</ele>
        <time>2026-05-13T15:24:45+02:00</time>
      </trkpt>
      <trkpt lat="46.3251" lon="4.84496">
        <ele>171.7002</ele>
        <time>2026-05-13T15:24:46+02:00</time>
      </trkpt>
      <trkpt lat="46.32515" lon="4.84496">
        <ele>171.7002</ele>
        <time>2026-05-13T15:24:47+02:00</time>
      </trkpt>
      <trkpt lat="46.32519" lon="4.84498">
        <ele>171.7998</ele>
        <time>2026-05-13T15:24:48+02:00</time>
      </trkpt>
      <trkpt lat="46.32523" lon="4.84501">
        <ele>171.7998</ele>
        <time>2026-05-13T15:24:49+02:00</time>
      </trkpt>
      <trkpt lat="46.32527" lon="4.84504">
        <ele>171.7998</ele>
        <time>2026-05-13T15:24:50+02:00</time>
      </trkpt>
      <trkpt lat="46.3253" lon="4.84506">
        <ele>171.7998</ele>
        <time>2026-05-13T15:24:51+02:00</time>
      </trkpt>
      <trkpt lat="46.32534" lon="4.84506">
        <ele>171.7998</ele>
        <time>2026-05-13T15:24:52+02:00</time>
      </trkpt>
      <trkpt lat="46.32538" lon="4.84506">
        <ele>171.7998</ele>
        <time>2026-05-13T15:24:53+02:00</time>
      </trkpt>
      <trkpt lat="46.32542" lon="4.84506">
        <ele>171.7998</ele>
        <time>2026-05-13T15:24:54+02:00</time>
      </trkpt>
      <trkpt lat="46.32546" lon="4.84507">
        <ele>171.7998</ele>
        <time>2026-05-13T15:24:55+02:00</time>
      </trkpt>
      <trkpt lat="46.3255" lon="4.84507">
        <ele>171.7998</ele>
        <time>2026-05-13T15:24:56+02:00</time>
      </trkpt>
      <trkpt lat="46.32554" lon="4.84506">
        <ele>171.7998</ele>
        <time>2026-05-13T15:24:57+02:00</time>
      </trkpt>
      <trkpt lat="46.32558" lon="4.84506">
        <ele>171.7998</ele>
        <time>2026-05-13T15:24:58+02:00</time>
      </trkpt>
      <trkpt lat="46.32562" lon="4.84505">
        <ele>171.7998</ele>
        <time>2026-05-13T15:24:59+02:00</time>
      </trkpt>
      <trkpt lat="46.32566" lon="4.84504">
        <ele>171.7998</ele>
        <time>2026-05-13T15:25:00+02:00</time>
      </trkpt>
      <trkpt lat="46.3257" lon="4.84505">
        <ele>171.7998</ele>
        <time>2026-05-13T15:25:01+02:00</time>
      </trkpt>
      <trkpt lat="46.32573" lon="4.84508">
        <ele>171.7998</ele>
        <time>2026-05-13T15:25:02+02:00</time>
      </trkpt>
      <trkpt lat="46.32575" lon="4.84511">
        <ele>171.7998</ele>
        <time>2026-05-13T15:25:03+02:00</time>
      </trkpt>
      <trkpt lat="46.32577" lon="4.84516">
        <ele>171.7998</ele>
        <time>2026-05-13T15:25:04+02:00</time>
      </trkpt>
      <trkpt lat="46.32578" lon="4.84522">
        <ele>171.7998</ele>
        <time>2026-05-13T15:25:05+02:00</time>
      </trkpt>
      <trkpt lat="46.32581" lon="4.84528">
        <ele>171.7998</ele>
        <time>2026-05-13T15:25:06+02:00</time>
      </trkpt>
      <trkpt lat="46.32583" lon="4.84535">
        <ele>171.7998</ele>
        <time>2026-05-13T15:25:07+02:00</time>
      </trkpt>
      <trkpt lat="46.32586" lon="4.84542">
        <ele>171.7998</ele>
        <time>2026-05-13T15:25:08+02:00</time>
      </trkpt>
      <trkpt lat="46.32588" lon="4.84549">
        <ele>171.7998</ele>
        <time>2026-05-13T15:25:09+02:00</time>
      </trkpt>
      <trkpt lat="46.3259" lon="4.84556">
        <ele>171.7002</ele>
        <time>2026-05-13T15:25:10+02:00</time>
      </trkpt>
      <trkpt lat="46.32592" lon="4.84564">
        <ele>171.7002</ele>
        <time>2026-05-13T15:25:11+02:00</time>
      </trkpt>
      <trkpt lat="46.32594" lon="4.84572">
        <ele>171.7002</ele>
        <time>2026-05-13T15:25:12+02:00</time>
      </trkpt>
      <trkpt lat="46.32595" lon="4.8458">
        <ele>171.7002</ele>
        <time>2026-05-13T15:25:13+02:00</time>
      </trkpt>
      <trkpt lat="46.32597" lon="4.84588">
        <ele>171.7002</ele>
        <time>2026-05-13T15:25:14+02:00</time>
      </trkpt>
      <trkpt lat="46.32599" lon="4.84596">
        <ele>171.7002</ele>
        <time>2026-05-13T15:25:15+02:00</time>
      </trkpt>
      <trkpt lat="46.32602" lon="4.84605">
        <ele>171.60059</ele>
        <time>2026-05-13T15:25:16+02:00</time>
      </trkpt>
      <trkpt lat="46.32604" lon="4.84613">
        <ele>171.60059</ele>
        <time>2026-05-13T15:25:17+02:00</time>
      </trkpt>
      <trkpt lat="46.32606" lon="4.84621">
        <ele>171.7002</ele>
        <time>2026-05-13T15:25:18+02:00</time>
      </trkpt>
      <trkpt lat="46.32608" lon="4.84629">
        <ele>171.60059</ele>
        <time>2026-05-13T15:25:19+02:00</time>
      </trkpt>
      <trkpt lat="46.3261" lon="4.84638">
        <ele>171.7002</ele>
        <time>2026-05-13T15:25:20+02:00</time>
      </trkpt>
      <trkpt lat="46.32612" lon="4.84646">
        <ele>171.7002</ele>
        <time>2026-05-13T15:25:21+02:00</time>
      </trkpt>
      <trkpt lat="46.32614" lon="4.84655">
        <ele>171.7002</ele>
        <time>2026-05-13T15:25:22+02:00</time>
      </trkpt>
      <trkpt lat="46.32617" lon="4.84663">
        <ele>171.7002</ele>
        <time>2026-05-13T15:25:23+02:00</time>
      </trkpt>
      <trkpt lat="46.3262" lon="4.84671">
        <ele>171.7002</ele>
        <time>2026-05-13T15:25:24+02:00</time>
      </trkpt>
      <trkpt lat="46.32623" lon="4.84678">
        <ele>171.7002</ele>
        <time>2026-05-13T15:25:25+02:00</time>
      </trkpt>
      <trkpt lat="46.32628" lon="4.84686">
        <ele>171.60059</ele>
        <time>2026-05-13T15:25:26+02:00</time>
      </trkpt>
      <trkpt lat="46.32632" lon="4.84693">
        <ele>171.5</ele>
        <time>2026-05-13T15:25:27+02:00</time>
      </trkpt>
      <trkpt lat="46.32637" lon="4.847">
        <ele>171.2998</ele>
        <time>2026-05-13T15:25:28+02:00</time>
      </trkpt>
      <trkpt lat="46.32642" lon="4.84707">
        <ele>171.2002</ele>
        <time>2026-05-13T15:25:29+02:00</time>
      </trkpt>
      <trkpt lat="46.32646" lon="4.84714">
        <ele>171</ele>
        <time>2026-05-13T15:25:30+02:00</time>
      </trkpt>
      <trkpt lat="46.32651" lon="4.84722">
        <ele>170.90039</ele>
        <time>2026-05-13T15:25:31+02:00</time>
      </trkpt>
      <trkpt lat="46.32654" lon="4.84728">
        <ele>170.90039</ele>
        <time>2026-05-13T15:25:32+02:00</time>
      </trkpt>
      <trkpt lat="46.32659" lon="4.84736">
        <ele>170.60059</ele>
        <time>2026-05-13T15:25:33+02:00</time>
      </trkpt>
      <trkpt lat="46.32663" lon="4.84743">
        <ele>170.2002</ele>
        <time>2026-05-13T15:25:34+02:00</time>
      </trkpt>
      <trkpt lat="46.32667" lon="4.8475">
        <ele>169.7998</ele>
        <time>2026-05-13T15:25:35+02:00</time>
      </trkpt>
      <trkpt lat="46.32671" lon="4.84757">
        <ele>169.7998</ele>
        <time>2026-05-13T15:25:36+02:00</time>
      </trkpt>
      <trkpt lat="46.32675" lon="4.84764">
        <ele>169.5</ele>
        <time>2026-05-13T15:25:37+02:00</time>
      </trkpt>
      <trkpt lat="46.32678" lon="4.84771">
        <ele>169.5</ele>
        <time>2026-05-13T15:25:38+02:00</time>
      </trkpt>
      <trkpt lat="46.32682" lon="4.84778">
        <ele>169.40039</ele>
        <time>2026-05-13T15:25:39+02:00</time>
      </trkpt>
      <trkpt lat="46.32686" lon="4.84785">
        <ele>169.40039</ele>
        <time>2026-05-13T15:25:40+02:00</time>
      </trkpt>
      <trkpt lat="46.3269" lon="4.84791">
        <ele>169.40039</ele>
        <time>2026-05-13T15:25:41+02:00</time>
      </trkpt>
      <trkpt lat="46.32694" lon="4.84797">
        <ele>169.40039</ele>
        <time>2026-05-13T15:25:42+02:00</time>
      </trkpt>
      <trkpt lat="46.32699" lon="4.84803">
        <ele>169.40039</ele>
        <time>2026-05-13T15:25:43+02:00</time>
      </trkpt>
      <trkpt lat="46.32704" lon="4.84808">
        <ele>169.5</ele>
        <time>2026-05-13T15:25:44+02:00</time>
      </trkpt>
      <trkpt lat="46.32708" lon="4.84813">
        <ele>169.5</ele>
        <time>2026-05-13T15:25:45+02:00</time>
      </trkpt>
      <trkpt lat="46.32713" lon="4.84817">
        <ele>169.60059</ele>
        <time>2026-05-13T15:25:46+02:00</time>
      </trkpt>
      <trkpt lat="46.32717" lon="4.84822">
        <ele>169.7002</ele>
        <time>2026-05-13T15:25:47+02:00</time>
      </trkpt>
      <trkpt lat="46.32721" lon="4.84827">
        <ele>169.90039</ele>
        <time>2026-05-13T15:25:48+02:00</time>
      </trkpt>
      <trkpt lat="46.32726" lon="4.84831">
        <ele>169.90039</ele>
        <time>2026-05-13T15:25:49+02:00</time>
      </trkpt>
      <trkpt lat="46.3273" lon="4.84835">
        <ele>170</ele>
        <time>2026-05-13T15:25:50+02:00</time>
      </trkpt>
      <trkpt lat="46.32735" lon="4.8484">
        <ele>170.10059</ele>
        <time>2026-05-13T15:25:51+02:00</time>
      </trkpt>
      <trkpt lat="46.3274" lon="4.84845">
        <ele>170.40039</ele>
        <time>2026-05-13T15:25:52+02:00</time>
      </trkpt>
      <trkpt lat="46.32744" lon="4.84849">
        <ele>170.60059</ele>
        <time>2026-05-13T15:25:53+02:00</time>
      </trkpt>
      <trkpt lat="46.32749" lon="4.84854">
        <ele>170.60059</ele>
        <time>2026-05-13T15:25:54+02:00</time>
      </trkpt>
      <trkpt lat="46.32754" lon="4.8486">
        <ele>170.7998</ele>
        <time>2026-05-13T15:25:55+02:00</time>
      </trkpt>
      <trkpt lat="46.32758" lon="4.84865">
        <ele>170.7998</ele>
        <time>2026-05-13T15:25:56+02:00</time>
      </trkpt>
      <trkpt lat="46.32763" lon="4.84871">
        <ele>171</ele>
        <time>2026-05-13T15:25:57+02:00</time>
      </trkpt>
      <trkpt lat="46.32767" lon="4.84876">
        <ele>171.10059</ele>
        <time>2026-05-13T15:25:58+02:00</time>
      </trkpt>
      <trkpt lat="46.32771" lon="4.84882">
        <ele>171.10059</ele>
        <time>2026-05-13T15:25:59+02:00</time>
      </trkpt>
      <trkpt lat="46.32775" lon="4.84888">
        <ele>171.2002</ele>
        <time>2026-05-13T15:26:00+02:00</time>
      </trkpt>
      <trkpt lat="46.32778" lon="4.84894">
        <ele>171.40039</ele>
        <time>2026-05-13T15:26:01+02:00</time>
      </trkpt>
      <trkpt lat="46.32782" lon="4.849">
        <ele>171.2998</ele>
        <time>2026-05-13T15:26:02+02:00</time>
      </trkpt>
      <trkpt lat="46.32785" lon="4.84906">
        <ele>171.2998</ele>
        <time>2026-05-13T15:26:03+02:00</time>
      </trkpt>
      <trkpt lat="46.32789" lon="4.84912">
        <ele>171.40039</ele>
        <time>2026-05-13T15:26:04+02:00</time>
      </trkpt>
      <trkpt lat="46.32792" lon="4.84918">
        <ele>171.40039</ele>
        <time>2026-05-13T15:26:05+02:00</time>
      </trkpt>
      <trkpt lat="46.32795" lon="4.84924">
        <ele>171.40039</ele>
        <time>2026-05-13T15:26:06+02:00</time>
      </trkpt>
      <trkpt lat="46.32799" lon="4.84931">
        <ele>171.40039</ele>
        <time>2026-05-13T15:26:07+02:00</time>
      </trkpt>
      <trkpt lat="46.32802" lon="4.84937">
        <ele>171.5</ele>
        <time>2026-05-13T15:26:08+02:00</time>
      </trkpt>
      <trkpt lat="46.32806" lon="4.84944">
        <ele>171.5</ele>
        <time>2026-05-13T15:26:09+02:00</time>
      </trkpt>
      <trkpt lat="46.32809" lon="4.8495">
        <ele>171.40039</ele>
        <time>2026-05-13T15:26:10+02:00</time>
      </trkpt>
      <trkpt lat="46.32813" lon="4.84956">
        <ele>171.5</ele>
        <time>2026-05-13T15:26:11+02:00</time>
      </trkpt>
      <trkpt lat="46.32816" lon="4.84963">
        <ele>171.40039</ele>
        <time>2026-05-13T15:26:12+02:00</time>
      </trkpt>
      <trkpt lat="46.32819" lon="4.84969">
        <ele>171.40039</ele>
        <time>2026-05-13T15:26:13+02:00</time>
      </trkpt>
      <trkpt lat="46.32821" lon="4.84976">
        <ele>171.40039</ele>
        <time>2026-05-13T15:26:14+02:00</time>
      </trkpt>
      <trkpt lat="46.32825" lon="4.84982">
        <ele>171.40039</ele>
        <time>2026-05-13T15:26:15+02:00</time>
      </trkpt>
      <trkpt lat="46.32828" lon="4.84988">
        <ele>171.5</ele>
        <time>2026-05-13T15:26:16+02:00</time>
      </trkpt>
      <trkpt lat="46.32831" lon="4.84995">
        <ele>171.5</ele>
        <time>2026-05-13T15:26:17+02:00</time>
      </trkpt>
      <trkpt lat="46.32835" lon="4.85001">
        <ele>171.60059</ele>
        <time>2026-05-13T15:26:18+02:00</time>
      </trkpt>
      <trkpt lat="46.32838" lon="4.85007">
        <ele>171.5</ele>
        <time>2026-05-13T15:26:19+02:00</time>
      </trkpt>
      <trkpt lat="46.32842" lon="4.85012">
        <ele>171.5</ele>
        <time>2026-05-13T15:26:20+02:00</time>
      </trkpt>
      <trkpt lat="46.32847" lon="4.85016">
        <ele>171.2002</ele>
        <time>2026-05-13T15:26:21+02:00</time>
      </trkpt>
      <trkpt lat="46.32852" lon="4.85019">
        <ele>171.2002</ele>
        <time>2026-05-13T15:26:22+02:00</time>
      </trkpt>
      <trkpt lat="46.32857" lon="4.85022">
        <ele>170.90039</ele>
        <time>2026-05-13T15:26:23+02:00</time>
      </trkpt>
      <trkpt lat="46.32863" lon="4.85025">
        <ele>170.90039</ele>
        <time>2026-05-13T15:26:24+02:00</time>
      </trkpt>
      <trkpt lat="46.32868" lon="4.85028">
        <ele>171</ele>
        <time>2026-05-13T15:26:25+02:00</time>
      </trkpt>
      <trkpt lat="46.32873" lon="4.85031">
        <ele>170.7002</ele>
        <time>2026-05-13T15:26:26+02:00</time>
      </trkpt>
      <trkpt lat="46.32879" lon="4.85033">
        <ele>170.7998</ele>
        <time>2026-05-13T15:26:27+02:00</time>
      </trkpt>
      <trkpt lat="46.32885" lon="4.85035">
        <ele>170.90039</ele>
        <time>2026-05-13T15:26:28+02:00</time>
      </trkpt>
      <trkpt lat="46.3289" lon="4.85038">
        <ele>170.7998</ele>
        <time>2026-05-13T15:26:29+02:00</time>
      </trkpt>
      <trkpt lat="46.32895" lon="4.8504">
        <ele>170.90039</ele>
        <time>2026-05-13T15:26:30+02:00</time>
      </trkpt>
      <trkpt lat="46.32901" lon="4.85042">
        <ele>171</ele>
        <time>2026-05-13T15:26:31+02:00</time>
      </trkpt>
      <trkpt lat="46.32906" lon="4.85044">
        <ele>171</ele>
        <time>2026-05-13T15:26:32+02:00</time>
      </trkpt>
      <trkpt lat="46.32912" lon="4.85046">
        <ele>171</ele>
        <time>2026-05-13T15:26:33+02:00</time>
      </trkpt>
      <trkpt lat="46.32918" lon="4.85048">
        <ele>170.7998</ele>
        <time>2026-05-13T15:26:34+02:00</time>
      </trkpt>
      <trkpt lat="46.32923" lon="4.8505">
        <ele>170.7998</ele>
        <time>2026-05-13T15:26:35+02:00</time>
      </trkpt>
      <trkpt lat="46.32929" lon="4.85052">
        <ele>170.7002</ele>
        <time>2026-05-13T15:26:36+02:00</time>
      </trkpt>
      <trkpt lat="46.32935" lon="4.85054">
        <ele>170.7002</ele>
        <time>2026-05-13T15:26:37+02:00</time>
      </trkpt>
      <trkpt lat="46.3294" lon="4.85056">
        <ele>170.40039</ele>
        <time>2026-05-13T15:26:38+02:00</time>
      </trkpt>
      <trkpt lat="46.32946" lon="4.85058">
        <ele>170.2998</ele>
        <time>2026-05-13T15:26:39+02:00</time>
      </trkpt>
      <trkpt lat="46.32951" lon="4.8506">
        <ele>170.2998</ele>
        <time>2026-05-13T15:26:40+02:00</time>
      </trkpt>
      <trkpt lat="46.32957" lon="4.85061">
        <ele>170.2002</ele>
        <time>2026-05-13T15:26:41+02:00</time>
      </trkpt>
      <trkpt lat="46.32963" lon="4.85062">
        <ele>170.2002</ele>
        <time>2026-05-13T15:26:42+02:00</time>
      </trkpt>
      <trkpt lat="46.32968" lon="4.85064">
        <ele>170</ele>
        <time>2026-05-13T15:26:43+02:00</time>
      </trkpt>
      <trkpt lat="46.32973" lon="4.85065">
        <ele>169.90039</ele>
        <time>2026-05-13T15:26:44+02:00</time>
      </trkpt>
      <trkpt lat="46.32979" lon="4.85067">
        <ele>169.7002</ele>
        <time>2026-05-13T15:26:45+02:00</time>
      </trkpt>
      <trkpt lat="46.32984" lon="4.85068">
        <ele>169.60059</ele>
        <time>2026-05-13T15:26:46+02:00</time>
      </trkpt>
      <trkpt lat="46.32989" lon="4.85069">
        <ele>169.60059</ele>
        <time>2026-05-13T15:26:47+02:00</time>
      </trkpt>
      <trkpt lat="46.32995" lon="4.8507">
        <ele>169.7002</ele>
        <time>2026-05-13T15:26:48+02:00</time>
      </trkpt>
      <trkpt lat="46.33" lon="4.85072">
        <ele>169.90039</ele>
        <time>2026-05-13T15:26:49+02:00</time>
      </trkpt>
      <trkpt lat="46.33005" lon="4.85072">
        <ele>169.90039</ele>
        <time>2026-05-13T15:26:50+02:00</time>
      </trkpt>
      <trkpt lat="46.3301" lon="4.85073">
        <ele>168.60059</ele>
        <time>2026-05-13T15:26:51+02:00</time>
      </trkpt>
      <trkpt lat="46.33016" lon="4.85074">
        <ele>168.5</ele>
        <time>2026-05-13T15:26:52+02:00</time>
      </trkpt>
      <trkpt lat="46.33021" lon="4.85075">
        <ele>168.5</ele>
        <time>2026-05-13T15:26:53+02:00</time>
      </trkpt>
      <trkpt lat="46.33026" lon="4.85076">
        <ele>168.5</ele>
        <time>2026-05-13T15:26:54+02:00</time>
      </trkpt>
      <trkpt lat="46.33032" lon="4.85077">
        <ele>168.40039</ele>
        <time>2026-05-13T15:26:55+02:00</time>
      </trkpt>
      <trkpt lat="46.33037" lon="4.85078">
        <ele>168.40039</ele>
        <time>2026-05-13T15:26:56+02:00</time>
      </trkpt>
      <trkpt lat="46.33042" lon="4.85079">
        <ele>168.40039</ele>
        <time>2026-05-13T15:26:57+02:00</time>
      </trkpt>
      <trkpt lat="46.33047" lon="4.85081">
        <ele>168.2002</ele>
        <time>2026-05-13T15:26:58+02:00</time>
      </trkpt>
      <trkpt lat="46.33053" lon="4.85082">
        <ele>168.2002</ele>
        <time>2026-05-13T15:26:59+02:00</time>
      </trkpt>
      <trkpt lat="46.33058" lon="4.85083">
        <ele>168.2998</ele>
        <time>2026-05-13T15:27:00+02:00</time>
      </trkpt>
      <trkpt lat="46.33063" lon="4.85083">
        <ele>168.2998</ele>
        <time>2026-05-13T15:27:01+02:00</time>
      </trkpt>
      <trkpt lat="46.33069" lon="4.85084">
        <ele>168.2998</ele>
        <time>2026-05-13T15:27:02+02:00</time>
      </trkpt>
      <trkpt lat="46.33074" lon="4.85085">
        <ele>168.40039</ele>
        <time>2026-05-13T15:27:03+02:00</time>
      </trkpt>
      <trkpt lat="46.33079" lon="4.85086">
        <ele>168.40039</ele>
        <time>2026-05-13T15:27:04+02:00</time>
      </trkpt>
      <trkpt lat="46.33085" lon="4.85087">
        <ele>168.5</ele>
        <time>2026-05-13T15:27:05+02:00</time>
      </trkpt>
      <trkpt lat="46.3309" lon="4.85087">
        <ele>168.5</ele>
        <time>2026-05-13T15:27:06+02:00</time>
      </trkpt>
      <trkpt lat="46.33096" lon="4.85088">
        <ele>168.60059</ele>
        <time>2026-05-13T15:27:07+02:00</time>
      </trkpt>
      <trkpt lat="46.33101" lon="4.85088">
        <ele>168.60059</ele>
        <time>2026-05-13T15:27:08+02:00</time>
      </trkpt>
      <trkpt lat="46.33107" lon="4.85089">
        <ele>168.60059</ele>
        <time>2026-05-13T15:27:09+02:00</time>
      </trkpt>
      <trkpt lat="46.33112" lon="4.85089">
        <ele>168.60059</ele>
        <time>2026-05-13T15:27:10+02:00</time>
      </trkpt>
      <trkpt lat="46.33118" lon="4.8509">
        <ele>168.5</ele>
        <time>2026-05-13T15:27:11+02:00</time>
      </trkpt>
      <trkpt lat="46.33124" lon="4.8509">
        <ele>168.5</ele>
        <time>2026-05-13T15:27:12+02:00</time>
      </trkpt>
      <trkpt lat="46.33129" lon="4.85091">
        <ele>168.5</ele>
        <time>2026-05-13T15:27:13+02:00</time>
      </trkpt>
      <trkpt lat="46.33134" lon="4.85091">
        <ele>168.5</ele>
        <time>2026-05-13T15:27:14+02:00</time>
      </trkpt>
      <trkpt lat="46.3314" lon="4.85091">
        <ele>168.5</ele>
        <time>2026-05-13T15:27:15+02:00</time>
      </trkpt>
      <trkpt lat="46.33145" lon="4.85092">
        <ele>168.5</ele>
        <time>2026-05-13T15:27:16+02:00</time>
      </trkpt>
      <trkpt lat="46.3315" lon="4.85092">
        <ele>168.5</ele>
        <time>2026-05-13T15:27:17+02:00</time>
      </trkpt>
      <trkpt lat="46.33156" lon="4.85093">
        <ele>168.5</ele>
        <time>2026-05-13T15:27:18+02:00</time>
      </trkpt>
      <trkpt lat="46.33161" lon="4.85093">
        <ele>168.5</ele>
        <time>2026-05-13T15:27:19+02:00</time>
      </trkpt>
      <trkpt lat="46.33166" lon="4.85093">
        <ele>168.5</ele>
        <time>2026-05-13T15:27:20+02:00</time>
      </trkpt>
      <trkpt lat="46.33172" lon="4.85093">
        <ele>168.5</ele>
        <time>2026-05-13T15:27:21+02:00</time>
      </trkpt>
      <trkpt lat="46.33177" lon="4.85093">
        <ele>168.40039</ele>
        <time>2026-05-13T15:27:22+02:00</time>
      </trkpt>
      <trkpt lat="46.33182" lon="4.85093">
        <ele>168.40039</ele>
        <time>2026-05-13T15:27:23+02:00</time>
      </trkpt>
      <trkpt lat="46.33187" lon="4.85093">
        <ele>168.40039</ele>
        <time>2026-05-13T15:27:24+02:00</time>
      </trkpt>
      <trkpt lat="46.33192" lon="4.85093">
        <ele>168.40039</ele>
        <time>2026-05-13T15:27:25+02:00</time>
      </trkpt>
      <trkpt lat="46.33196" lon="4.85093">
        <ele>168.40039</ele>
        <time>2026-05-13T15:27:26+02:00</time>
      </trkpt>
      <trkpt lat="46.33201" lon="4.85093">
        <ele>168.40039</ele>
        <time>2026-05-13T15:27:27+02:00</time>
      </trkpt>
      <trkpt lat="46.33206" lon="4.85093">
        <ele>168.40039</ele>
        <time>2026-05-13T15:27:28+02:00</time>
      </trkpt>
      <trkpt lat="46.33212" lon="4.85093">
        <ele>168.40039</ele>
        <time>2026-05-13T15:27:29+02:00</time>
      </trkpt>
      <trkpt lat="46.33217" lon="4.85093">
        <ele>168.40039</ele>
        <time>2026-05-13T15:27:30+02:00</time>
      </trkpt>
      <trkpt lat="46.33222" lon="4.85093">
        <ele>168.40039</ele>
        <time>2026-05-13T15:27:31+02:00</time>
      </trkpt>
      <trkpt lat="46.33227" lon="4.85093">
        <ele>168.40039</ele>
        <time>2026-05-13T15:27:32+02:00</time>
      </trkpt>
      <trkpt lat="46.33232" lon="4.85093">
        <ele>168.2998</ele>
        <time>2026-05-13T15:27:33+02:00</time>
      </trkpt>
      <trkpt lat="46.33237" lon="4.85093">
        <ele>168.2998</ele>
        <time>2026-05-13T15:27:34+02:00</time>
      </trkpt>
      <trkpt lat="46.33242" lon="4.85093">
        <ele>168.2998</ele>
        <time>2026-05-13T15:27:35+02:00</time>
      </trkpt>
      <trkpt lat="46.33247" lon="4.85093">
        <ele>168.2998</ele>
        <time>2026-05-13T15:27:36+02:00</time>
      </trkpt>
      <trkpt lat="46.33252" lon="4.85092">
        <ele>168.2998</ele>
        <time>2026-05-13T15:27:37+02:00</time>
      </trkpt>
      <trkpt lat="46.33257" lon="4.85091">
        <ele>168.2002</ele>
        <time>2026-05-13T15:27:38+02:00</time>
      </trkpt>
      <trkpt lat="46.33262" lon="4.85091">
        <ele>168.2002</ele>
        <time>2026-05-13T15:27:39+02:00</time>
      </trkpt>
      <trkpt lat="46.33267" lon="4.8509">
        <ele>168.2002</ele>
        <time>2026-05-13T15:27:40+02:00</time>
      </trkpt>
      <trkpt lat="46.33272" lon="4.85089">
        <ele>168.5</ele>
        <time>2026-05-13T15:27:41+02:00</time>
      </trkpt>
      <trkpt lat="46.33277" lon="4.85089">
        <ele>168.5</ele>
        <time>2026-05-13T15:27:42+02:00</time>
      </trkpt>
      <trkpt lat="46.33281" lon="4.85089">
        <ele>168.5</ele>
        <time>2026-05-13T15:27:43+02:00</time>
      </trkpt>
      <trkpt lat="46.33286" lon="4.85088">
        <ele>168.40039</ele>
        <time>2026-05-13T15:27:44+02:00</time>
      </trkpt>
      <trkpt lat="46.33292" lon="4.85087">
        <ele>168.40039</ele>
        <time>2026-05-13T15:27:45+02:00</time>
      </trkpt>
      <trkpt lat="46.33297" lon="4.85086">
        <ele>168.40039</ele>
        <time>2026-05-13T15:27:46+02:00</time>
      </trkpt>
      <trkpt lat="46.33302" lon="4.85086">
        <ele>168.40039</ele>
        <time>2026-05-13T15:27:47+02:00</time>
      </trkpt>
      <trkpt lat="46.33307" lon="4.85085">
        <ele>168.40039</ele>
        <time>2026-05-13T15:27:48+02:00</time>
      </trkpt>
      <trkpt lat="46.33312" lon="4.85084">
        <ele>168.40039</ele>
        <time>2026-05-13T15:27:49+02:00</time>
      </trkpt>
      <trkpt lat="46.33317" lon="4.85084">
        <ele>168.40039</ele>
        <time>2026-05-13T15:27:50+02:00</time>
      </trkpt>
      <trkpt lat="46.33322" lon="4.85083">
        <ele>168.2998</ele>
        <time>2026-05-13T15:27:51+02:00</time>
      </trkpt>
      <trkpt lat="46.33327" lon="4.85082">
        <ele>168.2998</ele>
        <time>2026-05-13T15:27:52+02:00</time>
      </trkpt>
      <trkpt lat="46.33332" lon="4.85082">
        <ele>168.2002</ele>
        <time>2026-05-13T15:27:53+02:00</time>
      </trkpt>
      <trkpt lat="46.33337" lon="4.85081">
        <ele>168.2002</ele>
        <time>2026-05-13T15:27:54+02:00</time>
      </trkpt>
      <trkpt lat="46.33342" lon="4.85081">
        <ele>168.2002</ele>
        <time>2026-05-13T15:27:55+02:00</time>
      </trkpt>
      <trkpt lat="46.33347" lon="4.8508">
        <ele>168.60059</ele>
        <time>2026-05-13T15:27:56+02:00</time>
      </trkpt>
      <trkpt lat="46.33352" lon="4.85079">
        <ele>168.60059</ele>
        <time>2026-05-13T15:27:57+02:00</time>
      </trkpt>
      <trkpt lat="46.33357" lon="4.85079">
        <ele>168.5</ele>
        <time>2026-05-13T15:27:58+02:00</time>
      </trkpt>
      <trkpt lat="46.33362" lon="4.85078">
        <ele>168.5</ele>
        <time>2026-05-13T15:27:59+02:00</time>
      </trkpt>
      <trkpt lat="46.33368" lon="4.85077">
        <ele>168.5</ele>
        <time>2026-05-13T15:28:00+02:00</time>
      </trkpt>
      <trkpt lat="46.33373" lon="4.85076">
        <ele>168.5</ele>
        <time>2026-05-13T15:28:01+02:00</time>
      </trkpt>
      <trkpt lat="46.33379" lon="4.85075">
        <ele>168.5</ele>
        <time>2026-05-13T15:28:02+02:00</time>
      </trkpt>
      <trkpt lat="46.33384" lon="4.85074">
        <ele>168.5</ele>
        <time>2026-05-13T15:28:03+02:00</time>
      </trkpt>
      <trkpt lat="46.33389" lon="4.85074">
        <ele>168.5</ele>
        <time>2026-05-13T15:28:04+02:00</time>
      </trkpt>
      <trkpt lat="46.33395" lon="4.85073">
        <ele>168.5</ele>
        <time>2026-05-13T15:28:05+02:00</time>
      </trkpt>
      <trkpt lat="46.334" lon="4.85073">
        <ele>168.5</ele>
        <time>2026-05-13T15:28:06+02:00</time>
      </trkpt>
      <trkpt lat="46.33405" lon="4.85072">
        <ele>168.7998</ele>
        <time>2026-05-13T15:28:07+02:00</time>
      </trkpt>
      <trkpt lat="46.33411" lon="4.85071">
        <ele>168.5</ele>
        <time>2026-05-13T15:28:08+02:00</time>
      </trkpt>
      <trkpt lat="46.33416" lon="4.8507">
        <ele>168.5</ele>
        <time>2026-05-13T15:28:09+02:00</time>
      </trkpt>
      <trkpt lat="46.33422" lon="4.8507">
        <ele>168.5</ele>
        <time>2026-05-13T15:28:10+02:00</time>
      </trkpt>
      <trkpt lat="46.33427" lon="4.85069">
        <ele>168.5</ele>
        <time>2026-05-13T15:28:11+02:00</time>
      </trkpt>
      <trkpt lat="46.33433" lon="4.85068">
        <ele>168.5</ele>
        <time>2026-05-13T15:28:12+02:00</time>
      </trkpt>
      <trkpt lat="46.33438" lon="4.85067">
        <ele>168.40039</ele>
        <time>2026-05-13T15:28:13+02:00</time>
      </trkpt>
      <trkpt lat="46.33443" lon="4.85066">
        <ele>168.40039</ele>
        <time>2026-05-13T15:28:14+02:00</time>
      </trkpt>
      <trkpt lat="46.33449" lon="4.85065">
        <ele>168.40039</ele>
        <time>2026-05-13T15:28:15+02:00</time>
      </trkpt>
      <trkpt lat="46.33454" lon="4.85064">
        <ele>168.40039</ele>
        <time>2026-05-13T15:28:16+02:00</time>
      </trkpt>
      <trkpt lat="46.33459" lon="4.85063">
        <ele>169</ele>
        <time>2026-05-13T15:28:17+02:00</time>
      </trkpt>
      <trkpt lat="46.33465" lon="4.85063">
        <ele>168.90039</ele>
        <time>2026-05-13T15:28:18+02:00</time>
      </trkpt>
      <trkpt lat="46.3347" lon="4.85062">
        <ele>168.90039</ele>
        <time>2026-05-13T15:28:19+02:00</time>
      </trkpt>
      <trkpt lat="46.33475" lon="4.85061">
        <ele>168.90039</ele>
        <time>2026-05-13T15:28:20+02:00</time>
      </trkpt>
      <trkpt lat="46.33481" lon="4.8506">
        <ele>168.90039</ele>
        <time>2026-05-13T15:28:21+02:00</time>
      </trkpt>
      <trkpt lat="46.33486" lon="4.8506">
        <ele>168.7998</ele>
        <time>2026-05-13T15:28:22+02:00</time>
      </trkpt>
      <trkpt lat="46.33491" lon="4.85059">
        <ele>168.7998</ele>
        <time>2026-05-13T15:28:23+02:00</time>
      </trkpt>
      <trkpt lat="46.33497" lon="4.85058">
        <ele>168.7998</ele>
        <time>2026-05-13T15:28:24+02:00</time>
      </trkpt>
      <trkpt lat="46.33502" lon="4.85057">
        <ele>168.7002</ele>
        <time>2026-05-13T15:28:25+02:00</time>
      </trkpt>
      <trkpt lat="46.33507" lon="4.85057">
        <ele>168.7002</ele>
        <time>2026-05-13T15:28:26+02:00</time>
      </trkpt>
      <trkpt lat="46.33512" lon="4.85056">
        <ele>168.7002</ele>
        <time>2026-05-13T15:28:27+02:00</time>
      </trkpt>
      <trkpt lat="46.33518" lon="4.85055">
        <ele>168.60059</ele>
        <time>2026-05-13T15:28:28+02:00</time>
      </trkpt>
      <trkpt lat="46.33523" lon="4.85054">
        <ele>169.60059</ele>
        <time>2026-05-13T15:28:29+02:00</time>
      </trkpt>
      <trkpt lat="46.33528" lon="4.85053">
        <ele>169.5</ele>
        <time>2026-05-13T15:28:30+02:00</time>
      </trkpt>
      <trkpt lat="46.33533" lon="4.85053">
        <ele>169.40039</ele>
        <time>2026-05-13T15:28:31+02:00</time>
      </trkpt>
      <trkpt lat="46.33539" lon="4.85053">
        <ele>169.2002</ele>
        <time>2026-05-13T15:28:32+02:00</time>
      </trkpt>
      <trkpt lat="46.33544" lon="4.85053">
        <ele>169.10059</ele>
        <time>2026-05-13T15:28:33+02:00</time>
      </trkpt>
      <trkpt lat="46.3355" lon="4.85053">
        <ele>169</ele>
        <time>2026-05-13T15:28:34+02:00</time>
      </trkpt>
      <trkpt lat="46.33555" lon="4.85053">
        <ele>169</ele>
        <time>2026-05-13T15:28:35+02:00</time>
      </trkpt>
      <trkpt lat="46.3356" lon="4.85053">
        <ele>168.90039</ele>
        <time>2026-05-13T15:28:36+02:00</time>
      </trkpt>
      <trkpt lat="46.33566" lon="4.85053">
        <ele>168.90039</ele>
        <time>2026-05-13T15:28:37+02:00</time>
      </trkpt>
      <trkpt lat="46.33571" lon="4.85053">
        <ele>168.7998</ele>
        <time>2026-05-13T15:28:38+02:00</time>
      </trkpt>
      <trkpt lat="46.33576" lon="4.85054">
        <ele>168.7998</ele>
        <time>2026-05-13T15:28:39+02:00</time>
      </trkpt>
      <trkpt lat="46.33582" lon="4.85054">
        <ele>168.7002</ele>
        <time>2026-05-13T15:28:40+02:00</time>
      </trkpt>
      <trkpt lat="46.33587" lon="4.85054">
        <ele>168.7002</ele>
        <time>2026-05-13T15:28:41+02:00</time>
      </trkpt>
      <trkpt lat="46.33593" lon="4.85054">
        <ele>168.60059</ele>
        <time>2026-05-13T15:28:42+02:00</time>
      </trkpt>
      <trkpt lat="46.33598" lon="4.85054">
        <ele>168.60059</ele>
        <time>2026-05-13T15:28:43+02:00</time>
      </trkpt>
      <trkpt lat="46.33603" lon="4.85055">
        <ele>168.2998</ele>
        <time>2026-05-13T15:28:44+02:00</time>
      </trkpt>
      <trkpt lat="46.33609" lon="4.85056">
        <ele>168.2998</ele>
        <time>2026-05-13T15:28:45+02:00</time>
      </trkpt>
      <trkpt lat="46.33614" lon="4.85056">
        <ele>168.2998</ele>
        <time>2026-05-13T15:28:46+02:00</time>
      </trkpt>
      <trkpt lat="46.3362" lon="4.85057">
        <ele>168.2998</ele>
        <time>2026-05-13T15:28:47+02:00</time>
      </trkpt>
      <trkpt lat="46.33626" lon="4.85058">
        <ele>168.2998</ele>
        <time>2026-05-13T15:28:48+02:00</time>
      </trkpt>
      <trkpt lat="46.33631" lon="4.85059">
        <ele>168.2998</ele>
        <time>2026-05-13T15:28:49+02:00</time>
      </trkpt>
      <trkpt lat="46.33637" lon="4.8506">
        <ele>168.2998</ele>
        <time>2026-05-13T15:28:50+02:00</time>
      </trkpt>
      <trkpt lat="46.33642" lon="4.85062">
        <ele>168.2998</ele>
        <time>2026-05-13T15:28:51+02:00</time>
      </trkpt>
      <trkpt lat="46.33648" lon="4.85064">
        <ele>168.2998</ele>
        <time>2026-05-13T15:28:52+02:00</time>
      </trkpt>
      <trkpt lat="46.33654" lon="4.85065">
        <ele>168.2998</ele>
        <time>2026-05-13T15:28:53+02:00</time>
      </trkpt>
      <trkpt lat="46.3366" lon="4.85066">
        <ele>168.2998</ele>
        <time>2026-05-13T15:28:54+02:00</time>
      </trkpt>
      <trkpt lat="46.33666" lon="4.85066">
        <ele>168.2998</ele>
        <time>2026-05-13T15:28:55+02:00</time>
      </trkpt>
      <trkpt lat="46.33671" lon="4.85065">
        <ele>168.2998</ele>
        <time>2026-05-13T15:28:56+02:00</time>
      </trkpt>
      <trkpt lat="46.33676" lon="4.85063">
        <ele>168.2998</ele>
        <time>2026-05-13T15:28:57+02:00</time>
      </trkpt>
      <trkpt lat="46.33681" lon="4.85063">
        <ele>168.40039</ele>
        <time>2026-05-13T15:28:58+02:00</time>
      </trkpt>
      <trkpt lat="46.33687" lon="4.85062">
        <ele>168.40039</ele>
        <time>2026-05-13T15:28:59+02:00</time>
      </trkpt>
      <trkpt lat="46.33692" lon="4.85062">
        <ele>168.40039</ele>
        <time>2026-05-13T15:29:00+02:00</time>
      </trkpt>
      <trkpt lat="46.33698" lon="4.85062">
        <ele>168.5</ele>
        <time>2026-05-13T15:29:01+02:00</time>
      </trkpt>
      <trkpt lat="46.33703" lon="4.85063">
        <ele>168.5</ele>
        <time>2026-05-13T15:29:02+02:00</time>
      </trkpt>
      <trkpt lat="46.33709" lon="4.85064">
        <ele>168.40039</ele>
        <time>2026-05-13T15:29:03+02:00</time>
      </trkpt>
      <trkpt lat="46.33714" lon="4.85064">
        <ele>168.40039</ele>
        <time>2026-05-13T15:29:04+02:00</time>
      </trkpt>
      <trkpt lat="46.33719" lon="4.85065">
        <ele>168.40039</ele>
        <time>2026-05-13T15:29:05+02:00</time>
      </trkpt>
      <trkpt lat="46.33724" lon="4.85066">
        <ele>168.40039</ele>
        <time>2026-05-13T15:29:06+02:00</time>
      </trkpt>
      <trkpt lat="46.33729" lon="4.85067">
        <ele>168.5</ele>
        <time>2026-05-13T15:29:07+02:00</time>
      </trkpt>
      <trkpt lat="46.33735" lon="4.85068">
        <ele>168.5</ele>
        <time>2026-05-13T15:29:08+02:00</time>
      </trkpt>
      <trkpt lat="46.3374" lon="4.85068">
        <ele>168.5</ele>
        <time>2026-05-13T15:29:09+02:00</time>
      </trkpt>
      <trkpt lat="46.33746" lon="4.85069">
        <ele>168.5</ele>
        <time>2026-05-13T15:29:10+02:00</time>
      </trkpt>
      <trkpt lat="46.33751" lon="4.8507">
        <ele>168.5</ele>
        <time>2026-05-13T15:29:11+02:00</time>
      </trkpt>
      <trkpt lat="46.33757" lon="4.85071">
        <ele>168.5</ele>
        <time>2026-05-13T15:29:12+02:00</time>
      </trkpt>
      <trkpt lat="46.33762" lon="4.85072">
        <ele>168.5</ele>
        <time>2026-05-13T15:29:13+02:00</time>
      </trkpt>
      <trkpt lat="46.33767" lon="4.85073">
        <ele>168.2998</ele>
        <time>2026-05-13T15:29:14+02:00</time>
      </trkpt>
      <trkpt lat="46.33773" lon="4.85073">
        <ele>168.2998</ele>
        <time>2026-05-13T15:29:15+02:00</time>
      </trkpt>
      <trkpt lat="46.33778" lon="4.85074">
        <ele>168.2998</ele>
        <time>2026-05-13T15:29:16+02:00</time>
      </trkpt>
      <trkpt lat="46.33783" lon="4.85075">
        <ele>168.2998</ele>
        <time>2026-05-13T15:29:17+02:00</time>
      </trkpt>
      <trkpt lat="46.33789" lon="4.85076">
        <ele>168.2998</ele>
        <time>2026-05-13T15:29:18+02:00</time>
      </trkpt>
      <trkpt lat="46.33794" lon="4.85076">
        <ele>168.2002</ele>
        <time>2026-05-13T15:29:19+02:00</time>
      </trkpt>
      <trkpt lat="46.33799" lon="4.85076">
        <ele>168.2002</ele>
        <time>2026-05-13T15:29:20+02:00</time>
      </trkpt>
      <trkpt lat="46.33804" lon="4.85077">
        <ele>168.2002</ele>
        <time>2026-05-13T15:29:21+02:00</time>
      </trkpt>
      <trkpt lat="46.33809" lon="4.85077">
        <ele>168.2002</ele>
        <time>2026-05-13T15:29:22+02:00</time>
      </trkpt>
      <trkpt lat="46.33815" lon="4.85078">
        <ele>168.2002</ele>
        <time>2026-05-13T15:29:23+02:00</time>
      </trkpt>
      <trkpt lat="46.3382" lon="4.85078">
        <ele>168.2998</ele>
        <time>2026-05-13T15:29:24+02:00</time>
      </trkpt>
      <trkpt lat="46.33826" lon="4.85079">
        <ele>168.2998</ele>
        <time>2026-05-13T15:29:25+02:00</time>
      </trkpt>
      <trkpt lat="46.33831" lon="4.8508">
        <ele>168.40039</ele>
        <time>2026-05-13T15:29:26+02:00</time>
      </trkpt>
      <trkpt lat="46.33837" lon="4.85081">
        <ele>168.40039</ele>
        <time>2026-05-13T15:29:27+02:00</time>
      </trkpt>
      <trkpt lat="46.33843" lon="4.85081">
        <ele>168.5</ele>
        <time>2026-05-13T15:29:28+02:00</time>
      </trkpt>
      <trkpt lat="46.33848" lon="4.85082">
        <ele>168.60059</ele>
        <time>2026-05-13T15:29:29+02:00</time>
      </trkpt>
      <trkpt lat="46.33853" lon="4.85083">
        <ele>168.7002</ele>
        <time>2026-05-13T15:29:30+02:00</time>
      </trkpt>
      <trkpt lat="46.33858" lon="4.85083">
        <ele>168.7998</ele>
        <time>2026-05-13T15:29:31+02:00</time>
      </trkpt>
      <trkpt lat="46.33863" lon="4.85084">
        <ele>168.7998</ele>
        <time>2026-05-13T15:29:32+02:00</time>
      </trkpt>
      <trkpt lat="46.33868" lon="4.85085">
        <ele>168.90039</ele>
        <time>2026-05-13T15:29:33+02:00</time>
      </trkpt>
      <trkpt lat="46.33873" lon="4.85085">
        <ele>169</ele>
        <time>2026-05-13T15:29:34+02:00</time>
      </trkpt>
      <trkpt lat="46.33878" lon="4.85085">
        <ele>169</ele>
        <time>2026-05-13T15:29:35+02:00</time>
      </trkpt>
      <trkpt lat="46.33883" lon="4.85085">
        <ele>168.90039</ele>
        <time>2026-05-13T15:29:36+02:00</time>
      </trkpt>
      <trkpt lat="46.33888" lon="4.85085">
        <ele>168.7998</ele>
        <time>2026-05-13T15:29:37+02:00</time>
      </trkpt>
      <trkpt lat="46.33892" lon="4.85085">
        <ele>168.7998</ele>
        <time>2026-05-13T15:29:38+02:00</time>
      </trkpt>
      <trkpt lat="46.33896" lon="4.85085">
        <ele>168.60059</ele>
        <time>2026-05-13T15:29:39+02:00</time>
      </trkpt>
      <trkpt lat="46.339" lon="4.85084">
        <ele>168.40039</ele>
        <time>2026-05-13T15:29:40+02:00</time>
      </trkpt>
      <trkpt lat="46.33904" lon="4.85083">
        <ele>168.40039</ele>
        <time>2026-05-13T15:29:41+02:00</time>
      </trkpt>
      <trkpt lat="46.33909" lon="4.85083">
        <ele>168.2998</ele>
        <time>2026-05-13T15:29:42+02:00</time>
      </trkpt>
      <trkpt lat="46.33914" lon="4.85083">
        <ele>168.40039</ele>
        <time>2026-05-13T15:29:43+02:00</time>
      </trkpt>
      <trkpt lat="46.33919" lon="4.85083">
        <ele>168.5</ele>
        <time>2026-05-13T15:29:44+02:00</time>
      </trkpt>
      <trkpt lat="46.33925" lon="4.85082">
        <ele>168.5</ele>
        <time>2026-05-13T15:29:45+02:00</time>
      </trkpt>
      <trkpt lat="46.3393" lon="4.85082">
        <ele>168.60059</ele>
        <time>2026-05-13T15:29:46+02:00</time>
      </trkpt>
      <trkpt lat="46.33936" lon="4.85081">
        <ele>168.60059</ele>
        <time>2026-05-13T15:29:47+02:00</time>
      </trkpt>
      <trkpt lat="46.33941" lon="4.85079">
        <ele>170.10059</ele>
        <time>2026-05-13T15:29:48+02:00</time>
      </trkpt>
      <trkpt lat="46.33947" lon="4.85076">
        <ele>170.2002</ele>
        <time>2026-05-13T15:29:49+02:00</time>
      </trkpt>
      <trkpt lat="46.33952" lon="4.85074">
        <ele>170.2002</ele>
        <time>2026-05-13T15:29:50+02:00</time>
      </trkpt>
      <trkpt lat="46.33957" lon="4.85071">
        <ele>172.90039</ele>
        <time>2026-05-13T15:29:51+02:00</time>
      </trkpt>
      <trkpt lat="46.33963" lon="4.8507">
        <ele>172.90039</ele>
        <time>2026-05-13T15:29:52+02:00</time>
      </trkpt>
      <trkpt lat="46.33968" lon="4.85069">
        <ele>172.7998</ele>
        <time>2026-05-13T15:29:53+02:00</time>
      </trkpt>
      <trkpt lat="46.33975" lon="4.85069">
        <ele>172.7002</ele>
        <time>2026-05-13T15:29:54+02:00</time>
      </trkpt>
      <trkpt lat="46.33981" lon="4.85071">
        <ele>172.60059</ele>
        <time>2026-05-13T15:29:55+02:00</time>
      </trkpt>
      <trkpt lat="46.33986" lon="4.85072">
        <ele>172.60059</ele>
        <time>2026-05-13T15:29:56+02:00</time>
      </trkpt>
      <trkpt lat="46.33992" lon="4.85073">
        <ele>169.5</ele>
        <time>2026-05-13T15:29:57+02:00</time>
      </trkpt>
      <trkpt lat="46.33997" lon="4.85074">
        <ele>169.40039</ele>
        <time>2026-05-13T15:29:58+02:00</time>
      </trkpt>
      <trkpt lat="46.34003" lon="4.85075">
        <ele>169.2002</ele>
        <time>2026-05-13T15:29:59+02:00</time>
      </trkpt>
      <trkpt lat="46.34009" lon="4.85076">
        <ele>169.10059</ele>
        <time>2026-05-13T15:30:00+02:00</time>
      </trkpt>
      <trkpt lat="46.34015" lon="4.85076">
        <ele>169</ele>
        <time>2026-05-13T15:30:01+02:00</time>
      </trkpt>
      <trkpt lat="46.3402" lon="4.85077">
        <ele>168.7998</ele>
        <time>2026-05-13T15:30:02+02:00</time>
      </trkpt>
      <trkpt lat="46.34025" lon="4.85078">
        <ele>168.7002</ele>
        <time>2026-05-13T15:30:03+02:00</time>
      </trkpt>
      <trkpt lat="46.3403" lon="4.85079">
        <ele>168.60059</ele>
        <time>2026-05-13T15:30:04+02:00</time>
      </trkpt>
      <trkpt lat="46.34036" lon="4.8508">
        <ele>168.5</ele>
        <time>2026-05-13T15:30:05+02:00</time>
      </trkpt>
      <trkpt lat="46.34041" lon="4.85081">
        <ele>168.10059</ele>
        <time>2026-05-13T15:30:06+02:00</time>
      </trkpt>
      <trkpt lat="46.34044" lon="4.85082">
        <ele>168.2002</ele>
        <time>2026-05-13T15:30:07+02:00</time>
      </trkpt>
      <trkpt lat="46.34047" lon="4.85082">
        <ele>168.2998</ele>
        <time>2026-05-13T15:30:08+02:00</time>
      </trkpt>
      <trkpt lat="46.34049" lon="4.85082">
        <ele>168.2998</ele>
        <time>2026-05-13T15:30:09+02:00</time>
      </trkpt>
      <trkpt lat="46.34049" lon="4.85082">
        <ele>168.2998</ele>
        <time>2026-05-13T15:30:10+02:00</time>
      </trkpt>
      <trkpt lat="46.34049" lon="4.85082">
        <ele>168.2998</ele>
        <time>2026-05-13T15:30:11+02:00</time>
      </trkpt>
      <trkpt lat="46.34049" lon="4.85082">
        <ele>168.2998</ele>
        <time>2026-05-13T15:30:12+02:00</time>
      </trkpt>
      <trkpt lat="46.34049" lon="4.85082">
        <ele>168.2998</ele>
        <time>2026-05-13T15:30:13+02:00</time>
      </trkpt>
      <trkpt lat="46.34065" lon="4.85089">
        <ele>168.40039</ele>
        <time>2026-05-13T15:30:43+02:00</time>
      </trkpt>
      <trkpt lat="46.34067" lon="4.8509">
        <ele>168.2998</ele>
        <time>2026-05-13T15:30:44+02:00</time>
      </trkpt>
      <trkpt lat="46.3407" lon="4.8509">
        <ele>168.2998</ele>
        <time>2026-05-13T15:30:45+02:00</time>
      </trkpt>
      <trkpt lat="46.34073" lon="4.8509">
        <ele>168.40039</ele>
        <time>2026-05-13T15:30:46+02:00</time>
      </trkpt>
      <trkpt lat="46.34076" lon="4.85091">
        <ele>168.40039</ele>
        <time>2026-05-13T15:30:47+02:00</time>
      </trkpt>
      <trkpt lat="46.34079" lon="4.85092">
        <ele>168.40039</ele>
        <time>2026-05-13T15:30:48+02:00</time>
      </trkpt>
      <trkpt lat="46.34083" lon="4.85092">
        <ele>168.40039</ele>
        <time>2026-05-13T15:30:49+02:00</time>
      </trkpt>
      <trkpt lat="46.34086" lon="4.85093">
        <ele>168.40039</ele>
        <time>2026-05-13T15:30:50+02:00</time>
      </trkpt>
      <trkpt lat="46.34089" lon="4.85093">
        <ele>168.40039</ele>
        <time>2026-05-13T15:30:51+02:00</time>
      </trkpt>
      <trkpt lat="46.34093" lon="4.85095">
        <ele>168.40039</ele>
        <time>2026-05-13T15:30:52+02:00</time>
      </trkpt>
      <trkpt lat="46.34097" lon="4.85095">
        <ele>168.40039</ele>
        <time>2026-05-13T15:30:53+02:00</time>
      </trkpt>
      <trkpt lat="46.34101" lon="4.85095">
        <ele>168.40039</ele>
        <time>2026-05-13T15:30:54+02:00</time>
      </trkpt>
      <trkpt lat="46.34105" lon="4.85096">
        <ele>168.40039</ele>
        <time>2026-05-13T15:30:55+02:00</time>
      </trkpt>
      <trkpt lat="46.3411" lon="4.85097">
        <ele>168.5</ele>
        <time>2026-05-13T15:30:56+02:00</time>
      </trkpt>
      <trkpt lat="46.34114" lon="4.85098">
        <ele>168.40039</ele>
        <time>2026-05-13T15:30:57+02:00</time>
      </trkpt>
      <trkpt lat="46.34118" lon="4.85099">
        <ele>168.40039</ele>
        <time>2026-05-13T15:30:58+02:00</time>
      </trkpt>
      <trkpt lat="46.34123" lon="4.85101">
        <ele>168.40039</ele>
        <time>2026-05-13T15:30:59+02:00</time>
      </trkpt>
      <trkpt lat="46.34128" lon="4.85102">
        <ele>168.40039</ele>
        <time>2026-05-13T15:31:00+02:00</time>
      </trkpt>
      <trkpt lat="46.34134" lon="4.85102">
        <ele>168.40039</ele>
        <time>2026-05-13T15:31:01+02:00</time>
      </trkpt>
      <trkpt lat="46.34139" lon="4.85103">
        <ele>168.40039</ele>
        <time>2026-05-13T15:31:02+02:00</time>
      </trkpt>
      <trkpt lat="46.34144" lon="4.85104">
        <ele>168.40039</ele>
        <time>2026-05-13T15:31:03+02:00</time>
      </trkpt>
      <trkpt lat="46.3415" lon="4.85105">
        <ele>168.40039</ele>
        <time>2026-05-13T15:31:04+02:00</time>
      </trkpt>
      <trkpt lat="46.34155" lon="4.85106">
        <ele>168.40039</ele>
        <time>2026-05-13T15:31:05+02:00</time>
      </trkpt>
      <trkpt lat="46.34161" lon="4.85107">
        <ele>168.2998</ele>
        <time>2026-05-13T15:31:06+02:00</time>
      </trkpt>
      <trkpt lat="46.34167" lon="4.85108">
        <ele>168.2998</ele>
        <time>2026-05-13T15:31:07+02:00</time>
      </trkpt>
      <trkpt lat="46.34173" lon="4.85109">
        <ele>168.2998</ele>
        <time>2026-05-13T15:31:08+02:00</time>
      </trkpt>
      <trkpt lat="46.34179" lon="4.85109">
        <ele>168.2998</ele>
        <time>2026-05-13T15:31:09+02:00</time>
      </trkpt>
      <trkpt lat="46.34184" lon="4.8511">
        <ele>168.2998</ele>
        <time>2026-05-13T15:31:10+02:00</time>
      </trkpt>
      <trkpt lat="46.3419" lon="4.85111">
        <ele>168.2998</ele>
        <time>2026-05-13T15:31:11+02:00</time>
      </trkpt>
      <trkpt lat="46.34196" lon="4.85112">
        <ele>168.2998</ele>
        <time>2026-05-13T15:31:12+02:00</time>
      </trkpt>
      <trkpt lat="46.34202" lon="4.85112">
        <ele>168.2998</ele>
        <time>2026-05-13T15:31:13+02:00</time>
      </trkpt>
      <trkpt lat="46.34208" lon="4.85113">
        <ele>168.2998</ele>
        <time>2026-05-13T15:31:14+02:00</time>
      </trkpt>
      <trkpt lat="46.34214" lon="4.85114">
        <ele>168.2998</ele>
        <time>2026-05-13T15:31:15+02:00</time>
      </trkpt>
      <trkpt lat="46.34219" lon="4.85114">
        <ele>168.40039</ele>
        <time>2026-05-13T15:31:16+02:00</time>
      </trkpt>
      <trkpt lat="46.34226" lon="4.85115">
        <ele>168.5</ele>
        <time>2026-05-13T15:31:17+02:00</time>
      </trkpt>
      <trkpt lat="46.34231" lon="4.85115">
        <ele>168.60059</ele>
        <time>2026-05-13T15:31:18+02:00</time>
      </trkpt>
      <trkpt lat="46.34237" lon="4.85115">
        <ele>168.7998</ele>
        <time>2026-05-13T15:31:19+02:00</time>
      </trkpt>
      <trkpt lat="46.34244" lon="4.85115">
        <ele>168.90039</ele>
        <time>2026-05-13T15:31:20+02:00</time>
      </trkpt>
      <trkpt lat="46.3425" lon="4.85116">
        <ele>168.5</ele>
        <time>2026-05-13T15:31:21+02:00</time>
      </trkpt>
      <trkpt lat="46.34256" lon="4.85116">
        <ele>168.5</ele>
        <time>2026-05-13T15:31:22+02:00</time>
      </trkpt>
      <trkpt lat="46.34262" lon="4.85117">
        <ele>168.5</ele>
        <time>2026-05-13T15:31:23+02:00</time>
      </trkpt>
      <trkpt lat="46.34268" lon="4.85117">
        <ele>168.40039</ele>
        <time>2026-05-13T15:31:24+02:00</time>
      </trkpt>
      <trkpt lat="46.34274" lon="4.85118">
        <ele>168.40039</ele>
        <time>2026-05-13T15:31:25+02:00</time>
      </trkpt>
      <trkpt lat="46.3428" lon="4.85118">
        <ele>168.40039</ele>
        <time>2026-05-13T15:31:26+02:00</time>
      </trkpt>
      <trkpt lat="46.34287" lon="4.85118">
        <ele>168.40039</ele>
        <time>2026-05-13T15:31:27+02:00</time>
      </trkpt>
      <trkpt lat="46.34293" lon="4.85118">
        <ele>168.40039</ele>
        <time>2026-05-13T15:31:28+02:00</time>
      </trkpt>
      <trkpt lat="46.34299" lon="4.85118">
        <ele>168.40039</ele>
        <time>2026-05-13T15:31:29+02:00</time>
      </trkpt>
      <trkpt lat="46.34306" lon="4.85118">
        <ele>168.40039</ele>
        <time>2026-05-13T15:31:30+02:00</time>
      </trkpt>
      <trkpt lat="46.34312" lon="4.85118">
        <ele>168.40039</ele>
        <time>2026-05-13T15:31:31+02:00</time>
      </trkpt>
      <trkpt lat="46.34319" lon="4.85118">
        <ele>168.2998</ele>
        <time>2026-05-13T15:31:32+02:00</time>
      </trkpt>
      <trkpt lat="46.34325" lon="4.85118">
        <ele>168.2998</ele>
        <time>2026-05-13T15:31:33+02:00</time>
      </trkpt>
      <trkpt lat="46.34331" lon="4.85117">
        <ele>168.2998</ele>
        <time>2026-05-13T15:31:34+02:00</time>
      </trkpt>
      <trkpt lat="46.34338" lon="4.85117">
        <ele>168.2998</ele>
        <time>2026-05-13T15:31:35+02:00</time>
      </trkpt>
      <trkpt lat="46.34345" lon="4.85117">
        <ele>168.2002</ele>
        <time>2026-05-13T15:31:36+02:00</time>
      </trkpt>
      <trkpt lat="46.34352" lon="4.85116">
        <ele>168.2002</ele>
        <time>2026-05-13T15:31:37+02:00</time>
      </trkpt>
      <trkpt lat="46.34358" lon="4.85115">
        <ele>168.5</ele>
        <time>2026-05-13T15:31:38+02:00</time>
      </trkpt>
      <trkpt lat="46.34365" lon="4.85115">
        <ele>168.40039</ele>
        <time>2026-05-13T15:31:39+02:00</time>
      </trkpt>
      <trkpt lat="46.34372" lon="4.85113">
        <ele>168.40039</ele>
        <time>2026-05-13T15:31:40+02:00</time>
      </trkpt>
      <trkpt lat="46.34378" lon="4.85112">
        <ele>168.40039</ele>
        <time>2026-05-13T15:31:41+02:00</time>
      </trkpt>
      <trkpt lat="46.34384" lon="4.85112">
        <ele>168.40039</ele>
        <time>2026-05-13T15:31:42+02:00</time>
      </trkpt>
      <trkpt lat="46.34391" lon="4.8511">
        <ele>168.40039</ele>
        <time>2026-05-13T15:31:43+02:00</time>
      </trkpt>
      <trkpt lat="46.34397" lon="4.85109">
        <ele>168.40039</ele>
        <time>2026-05-13T15:31:44+02:00</time>
      </trkpt>
      <trkpt lat="46.34403" lon="4.85109">
        <ele>168.2998</ele>
        <time>2026-05-13T15:31:45+02:00</time>
      </trkpt>
      <trkpt lat="46.34409" lon="4.85108">
        <ele>168.2998</ele>
        <time>2026-05-13T15:31:46+02:00</time>
      </trkpt>
      <trkpt lat="46.34416" lon="4.85108">
        <ele>168.2998</ele>
        <time>2026-05-13T15:31:47+02:00</time>
      </trkpt>
      <trkpt lat="46.34422" lon="4.85107">
        <ele>168.2998</ele>
        <time>2026-05-13T15:31:48+02:00</time>
      </trkpt>
      <trkpt lat="46.34429" lon="4.85107">
        <ele>168.2998</ele>
        <time>2026-05-13T15:31:49+02:00</time>
      </trkpt>
      <trkpt lat="46.34435" lon="4.85106">
        <ele>168.5</ele>
        <time>2026-05-13T15:31:50+02:00</time>
      </trkpt>
      <trkpt lat="46.34441" lon="4.85105">
        <ele>168.5</ele>
        <time>2026-05-13T15:31:51+02:00</time>
      </trkpt>
      <trkpt lat="46.34448" lon="4.85104">
        <ele>168.5</ele>
        <time>2026-05-13T15:31:52+02:00</time>
      </trkpt>
      <trkpt lat="46.34454" lon="4.85104">
        <ele>168.5</ele>
        <time>2026-05-13T15:31:53+02:00</time>
      </trkpt>
      <trkpt lat="46.34461" lon="4.85103">
        <ele>168.40039</ele>
        <time>2026-05-13T15:31:54+02:00</time>
      </trkpt>
      <trkpt lat="46.34468" lon="4.85103">
        <ele>168.40039</ele>
        <time>2026-05-13T15:31:55+02:00</time>
      </trkpt>
      <trkpt lat="46.34474" lon="4.85102">
        <ele>168.40039</ele>
        <time>2026-05-13T15:31:56+02:00</time>
      </trkpt>
      <trkpt lat="46.34481" lon="4.85102">
        <ele>168.40039</ele>
        <time>2026-05-13T15:31:57+02:00</time>
      </trkpt>
      <trkpt lat="46.34488" lon="4.85102">
        <ele>168.40039</ele>
        <time>2026-05-13T15:31:58+02:00</time>
      </trkpt>
      <trkpt lat="46.34495" lon="4.85102">
        <ele>168.40039</ele>
        <time>2026-05-13T15:31:59+02:00</time>
      </trkpt>
      <trkpt lat="46.34503" lon="4.85102">
        <ele>168.40039</ele>
        <time>2026-05-13T15:32:00+02:00</time>
      </trkpt>
      <trkpt lat="46.34509" lon="4.85102">
        <ele>168.40039</ele>
        <time>2026-05-13T15:32:01+02:00</time>
      </trkpt>
      <trkpt lat="46.34516" lon="4.85102">
        <ele>168.2998</ele>
        <time>2026-05-13T15:32:02+02:00</time>
      </trkpt>
      <trkpt lat="46.34523" lon="4.85101">
        <ele>168.2998</ele>
        <time>2026-05-13T15:32:03+02:00</time>
      </trkpt>
      <trkpt lat="46.3453" lon="4.85101">
        <ele>168.2998</ele>
        <time>2026-05-13T15:32:04+02:00</time>
      </trkpt>
      <trkpt lat="46.34537" lon="4.85101">
        <ele>168.2998</ele>
        <time>2026-05-13T15:32:05+02:00</time>
      </trkpt>
      <trkpt lat="46.34544" lon="4.85101">
        <ele>168.2998</ele>
        <time>2026-05-13T15:32:06+02:00</time>
      </trkpt>
      <trkpt lat="46.3455" lon="4.85101">
        <ele>168.2998</ele>
        <time>2026-05-13T15:32:07+02:00</time>
      </trkpt>
      <trkpt lat="46.34557" lon="4.85101">
        <ele>168.2002</ele>
        <time>2026-05-13T15:32:08+02:00</time>
      </trkpt>
      <trkpt lat="46.34563" lon="4.85101">
        <ele>168.2002</ele>
        <time>2026-05-13T15:32:09+02:00</time>
      </trkpt>
      <trkpt lat="46.34569" lon="4.85101">
        <ele>168.2002</ele>
        <time>2026-05-13T15:32:10+02:00</time>
      </trkpt>
      <trkpt lat="46.34575" lon="4.851">
        <ele>168.2002</ele>
        <time>2026-05-13T15:32:11+02:00</time>
      </trkpt>
      <trkpt lat="46.34581" lon="4.85099">
        <ele>168.10059</ele>
        <time>2026-05-13T15:32:12+02:00</time>
      </trkpt>
      <trkpt lat="46.34586" lon="4.85099">
        <ele>168.10059</ele>
        <time>2026-05-13T15:32:13+02:00</time>
      </trkpt>
      <trkpt lat="46.34591" lon="4.85098">
        <ele>168.10059</ele>
        <time>2026-05-13T15:32:14+02:00</time>
      </trkpt>
      <trkpt lat="46.34596" lon="4.85098">
        <ele>168.10059</ele>
        <time>2026-05-13T15:32:15+02:00</time>
      </trkpt>
      <trkpt lat="46.34601" lon="4.85098">
        <ele>168.10059</ele>
        <time>2026-05-13T15:32:16+02:00</time>
      </trkpt>
      <trkpt lat="46.34606" lon="4.85097">
        <ele>168.2002</ele>
        <time>2026-05-13T15:32:17+02:00</time>
      </trkpt>
      <trkpt lat="46.3461" lon="4.85097">
        <ele>168.2002</ele>
        <time>2026-05-13T15:32:18+02:00</time>
      </trkpt>
      <trkpt lat="46.34615" lon="4.85097">
        <ele>168.2002</ele>
        <time>2026-05-13T15:32:19+02:00</time>
      </trkpt>
      <trkpt lat="46.34619" lon="4.85098">
        <ele>168</ele>
        <time>2026-05-13T15:32:20+02:00</time>
      </trkpt>
      <trkpt lat="46.34622" lon="4.85098">
        <ele>168</ele>
        <time>2026-05-13T15:32:21+02:00</time>
      </trkpt>
      <trkpt lat="46.34626" lon="4.85097">
        <ele>168.10059</ele>
        <time>2026-05-13T15:32:22+02:00</time>
      </trkpt>
      <trkpt lat="46.3463" lon="4.85097">
        <ele>168.10059</ele>
        <time>2026-05-13T15:32:23+02:00</time>
      </trkpt>
      <trkpt lat="46.34634" lon="4.85097">
        <ele>168</ele>
        <time>2026-05-13T15:32:24+02:00</time>
      </trkpt>
      <trkpt lat="46.34638" lon="4.85097">
        <ele>168</ele>
        <time>2026-05-13T15:32:25+02:00</time>
      </trkpt>
      <trkpt lat="46.34642" lon="4.85098">
        <ele>168</ele>
        <time>2026-05-13T15:32:26+02:00</time>
      </trkpt>
      <trkpt lat="46.34647" lon="4.85098">
        <ele>168</ele>
        <time>2026-05-13T15:32:27+02:00</time>
      </trkpt>
      <trkpt lat="46.34652" lon="4.85099">
        <ele>168</ele>
        <time>2026-05-13T15:32:28+02:00</time>
      </trkpt>
      <trkpt lat="46.34656" lon="4.85099">
        <ele>168</ele>
        <time>2026-05-13T15:32:29+02:00</time>
      </trkpt>
      <trkpt lat="46.34661" lon="4.85099">
        <ele>168</ele>
        <time>2026-05-13T15:32:30+02:00</time>
      </trkpt>
      <trkpt lat="46.34665" lon="4.851">
        <ele>168</ele>
        <time>2026-05-13T15:32:31+02:00</time>
      </trkpt>
      <trkpt lat="46.3467" lon="4.85099">
        <ele>168</ele>
        <time>2026-05-13T15:32:32+02:00</time>
      </trkpt>
      <trkpt lat="46.34675" lon="4.85099">
        <ele>168</ele>
        <time>2026-05-13T15:32:33+02:00</time>
      </trkpt>
      <trkpt lat="46.34679" lon="4.85099">
        <ele>168</ele>
        <time>2026-05-13T15:32:34+02:00</time>
      </trkpt>
      <trkpt lat="46.34684" lon="4.85099">
        <ele>168.10059</ele>
        <time>2026-05-13T15:32:35+02:00</time>
      </trkpt>
      <trkpt lat="46.34688" lon="4.85098">
        <ele>168.10059</ele>
        <time>2026-05-13T15:32:36+02:00</time>
      </trkpt>
      <trkpt lat="46.34693" lon="4.85097">
        <ele>167.90039</ele>
        <time>2026-05-13T15:32:37+02:00</time>
      </trkpt>
      <trkpt lat="46.34697" lon="4.85096">
        <ele>167.90039</ele>
        <time>2026-05-13T15:32:38+02:00</time>
      </trkpt>
      <trkpt lat="46.34701" lon="4.85095">
        <ele>167.90039</ele>
        <time>2026-05-13T15:32:39+02:00</time>
      </trkpt>
      <trkpt lat="46.34706" lon="4.85094">
        <ele>167.90039</ele>
        <time>2026-05-13T15:32:40+02:00</time>
      </trkpt>
      <trkpt lat="46.34711" lon="4.85092">
        <ele>167.90039</ele>
        <time>2026-05-13T15:32:41+02:00</time>
      </trkpt>
      <trkpt lat="46.34716" lon="4.85091">
        <ele>167.90039</ele>
        <time>2026-05-13T15:32:42+02:00</time>
      </trkpt>
      <trkpt lat="46.34721" lon="4.8509">
        <ele>167.90039</ele>
        <time>2026-05-13T15:32:43+02:00</time>
      </trkpt>
      <trkpt lat="46.34726" lon="4.85088">
        <ele>168</ele>
        <time>2026-05-13T15:32:44+02:00</time>
      </trkpt>
      <trkpt lat="46.3473" lon="4.85087">
        <ele>168.10059</ele>
        <time>2026-05-13T15:32:45+02:00</time>
      </trkpt>
      <trkpt lat="46.34735" lon="4.85085">
        <ele>168.2002</ele>
        <time>2026-05-13T15:32:46+02:00</time>
      </trkpt>
      <trkpt lat="46.34741" lon="4.85084">
        <ele>168.2998</ele>
        <time>2026-05-13T15:32:47+02:00</time>
      </trkpt>
      <trkpt lat="46.34746" lon="4.85082">
        <ele>168.2998</ele>
        <time>2026-05-13T15:32:48+02:00</time>
      </trkpt>
      <trkpt lat="46.3475" lon="4.85081">
        <ele>168.2998</ele>
        <time>2026-05-13T15:32:49+02:00</time>
      </trkpt>
      <trkpt lat="46.34756" lon="4.8508">
        <ele>168.40039</ele>
        <time>2026-05-13T15:32:50+02:00</time>
      </trkpt>
      <trkpt lat="46.34761" lon="4.85078">
        <ele>168.40039</ele>
        <time>2026-05-13T15:32:51+02:00</time>
      </trkpt>
      <trkpt lat="46.34766" lon="4.85077">
        <ele>168.40039</ele>
        <time>2026-05-13T15:32:52+02:00</time>
      </trkpt>
      <trkpt lat="46.34771" lon="4.85076">
        <ele>168.2998</ele>
        <time>2026-05-13T15:32:53+02:00</time>
      </trkpt>
      <trkpt lat="46.34775" lon="4.85075">
        <ele>168.2998</ele>
        <time>2026-05-13T15:32:54+02:00</time>
      </trkpt>
      <trkpt lat="46.3478" lon="4.85073">
        <ele>168.2998</ele>
        <time>2026-05-13T15:32:55+02:00</time>
      </trkpt>
      <trkpt lat="46.34785" lon="4.85071">
        <ele>168.5</ele>
        <time>2026-05-13T15:32:56+02:00</time>
      </trkpt>
      <trkpt lat="46.3479" lon="4.85069">
        <ele>168.5</ele>
        <time>2026-05-13T15:32:57+02:00</time>
      </trkpt>
      <trkpt lat="46.34795" lon="4.85068">
        <ele>168.5</ele>
        <time>2026-05-13T15:32:58+02:00</time>
      </trkpt>
      <trkpt lat="46.34799" lon="4.85067">
        <ele>168.5</ele>
        <time>2026-05-13T15:32:59+02:00</time>
      </trkpt>
      <trkpt lat="46.34804" lon="4.85066">
        <ele>168.5</ele>
        <time>2026-05-13T15:33:00+02:00</time>
      </trkpt>
      <trkpt lat="46.34808" lon="4.85063">
        <ele>169.2998</ele>
        <time>2026-05-13T15:33:01+02:00</time>
      </trkpt>
      <trkpt lat="46.34813" lon="4.85062">
        <ele>169.2998</ele>
        <time>2026-05-13T15:33:02+02:00</time>
      </trkpt>
      <trkpt lat="46.34817" lon="4.8506">
        <ele>169.2998</ele>
        <time>2026-05-13T15:33:03+02:00</time>
      </trkpt>
      <trkpt lat="46.34821" lon="4.8506">
        <ele>169.2998</ele>
        <time>2026-05-13T15:33:04+02:00</time>
      </trkpt>
      <trkpt lat="46.34826" lon="4.85059">
        <ele>169.2998</ele>
        <time>2026-05-13T15:33:05+02:00</time>
      </trkpt>
      <trkpt lat="46.34829" lon="4.85058">
        <ele>169.2998</ele>
        <time>2026-05-13T15:33:06+02:00</time>
      </trkpt>
      <trkpt lat="46.34832" lon="4.85057">
        <ele>169.2002</ele>
        <time>2026-05-13T15:33:07+02:00</time>
      </trkpt>
      <trkpt lat="46.34833" lon="4.85057">
        <ele>169.2002</ele>
        <time>2026-05-13T15:33:08+02:00</time>
      </trkpt>
      <trkpt lat="46.34833" lon="4.85057">
        <ele>169.2002</ele>
        <time>2026-05-13T15:33:09+02:00</time>
      </trkpt>
      <trkpt lat="46.34833" lon="4.85057">
        <ele>169.2002</ele>
        <time>2026-05-13T15:33:10+02:00</time>
      </trkpt>
      <trkpt lat="46.34833" lon="4.85057">
        <ele>169.2002</ele>
        <time>2026-05-13T15:33:11+02:00</time>
      </trkpt>
      <trkpt lat="46.34833" lon="4.85057">
        <ele>169.2002</ele>
        <time>2026-05-13T15:33:12+02:00</time>
      </trkpt>
      <trkpt lat="46.34846" lon="4.85057">
        <ele>168.7998</ele>
        <time>2026-05-13T15:33:32+02:00</time>
      </trkpt>
      <trkpt lat="46.34849" lon="4.85057">
        <ele>168.5</ele>
        <time>2026-05-13T15:33:33+02:00</time>
      </trkpt>
      <trkpt lat="46.34851" lon="4.85057">
        <ele>168.5</ele>
        <time>2026-05-13T15:33:34+02:00</time>
      </trkpt>
      <trkpt lat="46.34854" lon="4.85057">
        <ele>168.2998</ele>
        <time>2026-05-13T15:33:35+02:00</time>
      </trkpt>
      <trkpt lat="46.34858" lon="4.85057">
        <ele>168.2998</ele>
        <time>2026-05-13T15:33:36+02:00</time>
      </trkpt>
      <trkpt lat="46.34861" lon="4.85056">
        <ele>168.2998</ele>
        <time>2026-05-13T15:33:37+02:00</time>
      </trkpt>
      <trkpt lat="46.34864" lon="4.85056">
        <ele>168.2998</ele>
        <time>2026-05-13T15:33:38+02:00</time>
      </trkpt>
      <trkpt lat="46.34868" lon="4.85056">
        <ele>168.2998</ele>
        <time>2026-05-13T15:33:39+02:00</time>
      </trkpt>
      <trkpt lat="46.34871" lon="4.85055">
        <ele>168.40039</ele>
        <time>2026-05-13T15:33:40+02:00</time>
      </trkpt>
      <trkpt lat="46.34875" lon="4.85055">
        <ele>168.40039</ele>
        <time>2026-05-13T15:33:41+02:00</time>
      </trkpt>
      <trkpt lat="46.34879" lon="4.85054">
        <ele>168.2002</ele>
        <time>2026-05-13T15:33:42+02:00</time>
      </trkpt>
      <trkpt lat="46.34883" lon="4.85054">
        <ele>168.2002</ele>
        <time>2026-05-13T15:33:43+02:00</time>
      </trkpt>
      <trkpt lat="46.34887" lon="4.85053">
        <ele>168.2002</ele>
        <time>2026-05-13T15:33:44+02:00</time>
      </trkpt>
      <trkpt lat="46.34892" lon="4.85052">
        <ele>168.10059</ele>
        <time>2026-05-13T15:33:45+02:00</time>
      </trkpt>
      <trkpt lat="46.34896" lon="4.85052">
        <ele>168.10059</ele>
        <time>2026-05-13T15:33:46+02:00</time>
      </trkpt>
      <trkpt lat="46.34901" lon="4.85051">
        <ele>168.2002</ele>
        <time>2026-05-13T15:33:47+02:00</time>
      </trkpt>
      <trkpt lat="46.34906" lon="4.85051">
        <ele>168.2002</ele>
        <time>2026-05-13T15:33:48+02:00</time>
      </trkpt>
      <trkpt lat="46.34911" lon="4.8505">
        <ele>168.2998</ele>
        <time>2026-05-13T15:33:49+02:00</time>
      </trkpt>
      <trkpt lat="46.34915" lon="4.85049">
        <ele>168.5</ele>
        <time>2026-05-13T15:33:50+02:00</time>
      </trkpt>
      <trkpt lat="46.3492" lon="4.85049">
        <ele>168.7002</ele>
        <time>2026-05-13T15:33:51+02:00</time>
      </trkpt>
      <trkpt lat="46.34925" lon="4.85048">
        <ele>168.90039</ele>
        <time>2026-05-13T15:33:52+02:00</time>
      </trkpt>
      <trkpt lat="46.3493" lon="4.85048">
        <ele>169.2002</ele>
        <time>2026-05-13T15:33:53+02:00</time>
      </trkpt>
      <trkpt lat="46.34935" lon="4.85047">
        <ele>169.2002</ele>
        <time>2026-05-13T15:33:54+02:00</time>
      </trkpt>
      <trkpt lat="46.3494" lon="4.85046">
        <ele>172.2002</ele>
        <time>2026-05-13T15:33:55+02:00</time>
      </trkpt>
      <trkpt lat="46.34945" lon="4.85045">
        <ele>172.5</ele>
        <time>2026-05-13T15:33:56+02:00</time>
      </trkpt>
      <trkpt lat="46.34951" lon="4.85044">
        <ele>172</ele>
        <time>2026-05-13T15:33:57+02:00</time>
      </trkpt>
      <trkpt lat="46.34956" lon="4.85043">
        <ele>170.60059</ele>
        <time>2026-05-13T15:33:58+02:00</time>
      </trkpt>
      <trkpt lat="46.34961" lon="4.85042">
        <ele>169.10059</ele>
        <time>2026-05-13T15:33:59+02:00</time>
      </trkpt>
      <trkpt lat="46.34966" lon="4.85041">
        <ele>168.10059</ele>
        <time>2026-05-13T15:34:00+02:00</time>
      </trkpt>
      <trkpt lat="46.34972" lon="4.8504">
        <ele>168.2002</ele>
        <time>2026-05-13T15:34:01+02:00</time>
      </trkpt>
      <trkpt lat="46.34978" lon="4.85039">
        <ele>168.2998</ele>
        <time>2026-05-13T15:34:02+02:00</time>
      </trkpt>
      <trkpt lat="46.34984" lon="4.85038">
        <ele>168.2998</ele>
        <time>2026-05-13T15:34:03+02:00</time>
      </trkpt>
      <trkpt lat="46.34989" lon="4.85037">
        <ele>168.40039</ele>
        <time>2026-05-13T15:34:04+02:00</time>
      </trkpt>
      <trkpt lat="46.34995" lon="4.85036">
        <ele>168.40039</ele>
        <time>2026-05-13T15:34:05+02:00</time>
      </trkpt>
      <trkpt lat="46.35" lon="4.85035">
        <ele>168.40039</ele>
        <time>2026-05-13T15:34:06+02:00</time>
      </trkpt>
      <trkpt lat="46.35005" lon="4.85034">
        <ele>168.40039</ele>
        <time>2026-05-13T15:34:07+02:00</time>
      </trkpt>
      <trkpt lat="46.35011" lon="4.85034">
        <ele>168.2998</ele>
        <time>2026-05-13T15:34:08+02:00</time>
      </trkpt>
      <trkpt lat="46.35016" lon="4.85033">
        <ele>168.2998</ele>
        <time>2026-05-13T15:34:09+02:00</time>
      </trkpt>
      <trkpt lat="46.35021" lon="4.85032">
        <ele>168.2002</ele>
        <time>2026-05-13T15:34:10+02:00</time>
      </trkpt>
      <trkpt lat="46.35027" lon="4.85031">
        <ele>168.2002</ele>
        <time>2026-05-13T15:34:11+02:00</time>
      </trkpt>
      <trkpt lat="46.35032" lon="4.8503">
        <ele>168.10059</ele>
        <time>2026-05-13T15:34:12+02:00</time>
      </trkpt>
      <trkpt lat="46.35038" lon="4.85028">
        <ele>168.10059</ele>
        <time>2026-05-13T15:34:13+02:00</time>
      </trkpt>
      <trkpt lat="46.35043" lon="4.85026">
        <ele>168.10059</ele>
        <time>2026-05-13T15:34:14+02:00</time>
      </trkpt>
      <trkpt lat="46.35049" lon="4.85025">
        <ele>168.10059</ele>
        <time>2026-05-13T15:34:15+02:00</time>
      </trkpt>
      <trkpt lat="46.35055" lon="4.85024">
        <ele>168.10059</ele>
        <time>2026-05-13T15:34:16+02:00</time>
      </trkpt>
      <trkpt lat="46.3506" lon="4.85022">
        <ele>168.10059</ele>
        <time>2026-05-13T15:34:17+02:00</time>
      </trkpt>
      <trkpt lat="46.35066" lon="4.85021">
        <ele>168.10059</ele>
        <time>2026-05-13T15:34:18+02:00</time>
      </trkpt>
      <trkpt lat="46.35071" lon="4.8502">
        <ele>168.2002</ele>
        <time>2026-05-13T15:34:19+02:00</time>
      </trkpt>
      <trkpt lat="46.35076" lon="4.85019">
        <ele>168.2002</ele>
        <time>2026-05-13T15:34:20+02:00</time>
      </trkpt>
      <trkpt lat="46.35082" lon="4.85018">
        <ele>168.2002</ele>
        <time>2026-05-13T15:34:21+02:00</time>
      </trkpt>
      <trkpt lat="46.35088" lon="4.85016">
        <ele>168.10059</ele>
        <time>2026-05-13T15:34:22+02:00</time>
      </trkpt>
      <trkpt lat="46.35093" lon="4.85014">
        <ele>168</ele>
        <time>2026-05-13T15:34:23+02:00</time>
      </trkpt>
      <trkpt lat="46.35099" lon="4.85012">
        <ele>168.40039</ele>
        <time>2026-05-13T15:34:24+02:00</time>
      </trkpt>
      <trkpt lat="46.35105" lon="4.85011">
        <ele>168.40039</ele>
        <time>2026-05-13T15:34:25+02:00</time>
      </trkpt>
      <trkpt lat="46.35111" lon="4.8501">
        <ele>168.40039</ele>
        <time>2026-05-13T15:34:26+02:00</time>
      </trkpt>
      <trkpt lat="46.35117" lon="4.85009">
        <ele>168.40039</ele>
        <time>2026-05-13T15:34:27+02:00</time>
      </trkpt>
      <trkpt lat="46.35124" lon="4.85008">
        <ele>168.40039</ele>
        <time>2026-05-13T15:34:28+02:00</time>
      </trkpt>
      <trkpt lat="46.3513" lon="4.85007">
        <ele>168.2998</ele>
        <time>2026-05-13T15:34:29+02:00</time>
      </trkpt>
      <trkpt lat="46.35136" lon="4.85005">
        <ele>168.2998</ele>
        <time>2026-05-13T15:34:30+02:00</time>
      </trkpt>
      <trkpt lat="46.35143" lon="4.85004">
        <ele>168.2002</ele>
        <time>2026-05-13T15:34:31+02:00</time>
      </trkpt>
      <trkpt lat="46.35149" lon="4.85003">
        <ele>168.60059</ele>
        <time>2026-05-13T15:34:32+02:00</time>
      </trkpt>
      <trkpt lat="46.35155" lon="4.85002">
        <ele>168.5</ele>
        <time>2026-05-13T15:34:33+02:00</time>
      </trkpt>
      <trkpt lat="46.35162" lon="4.85001">
        <ele>168.40039</ele>
        <time>2026-05-13T15:34:34+02:00</time>
      </trkpt>
      <trkpt lat="46.35168" lon="4.84999">
        <ele>168.2998</ele>
        <time>2026-05-13T15:34:35+02:00</time>
      </trkpt>
      <trkpt lat="46.35174" lon="4.84998">
        <ele>168.2998</ele>
        <time>2026-05-13T15:34:36+02:00</time>
      </trkpt>
      <trkpt lat="46.3518" lon="4.84997">
        <ele>168.40039</ele>
        <time>2026-05-13T15:34:37+02:00</time>
      </trkpt>
      <trkpt lat="46.35187" lon="4.84995">
        <ele>168.40039</ele>
        <time>2026-05-13T15:34:38+02:00</time>
      </trkpt>
      <trkpt lat="46.35193" lon="4.84993">
        <ele>168.2002</ele>
        <time>2026-05-13T15:34:39+02:00</time>
      </trkpt>
      <trkpt lat="46.35199" lon="4.84992">
        <ele>168.2998</ele>
        <time>2026-05-13T15:34:40+02:00</time>
      </trkpt>
      <trkpt lat="46.35206" lon="4.8499">
        <ele>168.2998</ele>
        <time>2026-05-13T15:34:41+02:00</time>
      </trkpt>
      <trkpt lat="46.35211" lon="4.84989">
        <ele>168.2998</ele>
        <time>2026-05-13T15:34:42+02:00</time>
      </trkpt>
      <trkpt lat="46.35217" lon="4.84987">
        <ele>168.2998</ele>
        <time>2026-05-13T15:34:43+02:00</time>
      </trkpt>
      <trkpt lat="46.35222" lon="4.84985">
        <ele>168.2998</ele>
        <time>2026-05-13T15:34:44+02:00</time>
      </trkpt>
      <trkpt lat="46.35228" lon="4.84984">
        <ele>168.2998</ele>
        <time>2026-05-13T15:34:45+02:00</time>
      </trkpt>
      <trkpt lat="46.35233" lon="4.84982">
        <ele>168.40039</ele>
        <time>2026-05-13T15:34:46+02:00</time>
      </trkpt>
      <trkpt lat="46.35237" lon="4.8498">
        <ele>168.40039</ele>
        <time>2026-05-13T15:34:47+02:00</time>
      </trkpt>
      <trkpt lat="46.35243" lon="4.84978">
        <ele>168.40039</ele>
        <time>2026-05-13T15:34:48+02:00</time>
      </trkpt>
      <trkpt lat="46.35248" lon="4.84977">
        <ele>168.60059</ele>
        <time>2026-05-13T15:34:49+02:00</time>
      </trkpt>
      <trkpt lat="46.35253" lon="4.84976">
        <ele>168.60059</ele>
        <time>2026-05-13T15:34:50+02:00</time>
      </trkpt>
      <trkpt lat="46.35258" lon="4.84975">
        <ele>168.7002</ele>
        <time>2026-05-13T15:34:51+02:00</time>
      </trkpt>
      <trkpt lat="46.35264" lon="4.84975">
        <ele>168.7998</ele>
        <time>2026-05-13T15:34:52+02:00</time>
      </trkpt>
      <trkpt lat="46.35269" lon="4.84976">
        <ele>168.7998</ele>
        <time>2026-05-13T15:34:53+02:00</time>
      </trkpt>
      <trkpt lat="46.35275" lon="4.84976">
        <ele>168.7998</ele>
        <time>2026-05-13T15:34:54+02:00</time>
      </trkpt>
      <trkpt lat="46.35281" lon="4.84977">
        <ele>168.90039</ele>
        <time>2026-05-13T15:34:55+02:00</time>
      </trkpt>
      <trkpt lat="46.35286" lon="4.84978">
        <ele>168.60059</ele>
        <time>2026-05-13T15:34:56+02:00</time>
      </trkpt>
      <trkpt lat="46.35293" lon="4.84979">
        <ele>168.60059</ele>
        <time>2026-05-13T15:34:57+02:00</time>
      </trkpt>
      <trkpt lat="46.35298" lon="4.84979">
        <ele>168.60059</ele>
        <time>2026-05-13T15:34:58+02:00</time>
      </trkpt>
      <trkpt lat="46.35305" lon="4.84979">
        <ele>168.60059</ele>
        <time>2026-05-13T15:34:59+02:00</time>
      </trkpt>
      <trkpt lat="46.35311" lon="4.84979">
        <ele>168.60059</ele>
        <time>2026-05-13T15:35:00+02:00</time>
      </trkpt>
      <trkpt lat="46.35317" lon="4.84978">
        <ele>168.60059</ele>
        <time>2026-05-13T15:35:01+02:00</time>
      </trkpt>
      <trkpt lat="46.35324" lon="4.84977">
        <ele>169.2998</ele>
        <time>2026-05-13T15:35:02+02:00</time>
      </trkpt>
      <trkpt lat="46.3533" lon="4.84977">
        <ele>169.2002</ele>
        <time>2026-05-13T15:35:03+02:00</time>
      </trkpt>
      <trkpt lat="46.35336" lon="4.84976">
        <ele>168.90039</ele>
        <time>2026-05-13T15:35:04+02:00</time>
      </trkpt>
      <trkpt lat="46.35343" lon="4.84976">
        <ele>168.60059</ele>
        <time>2026-05-13T15:35:05+02:00</time>
      </trkpt>
      <trkpt lat="46.35349" lon="4.84976">
        <ele>168.40039</ele>
        <time>2026-05-13T15:35:06+02:00</time>
      </trkpt>
      <trkpt lat="46.35355" lon="4.84976">
        <ele>168.40039</ele>
        <time>2026-05-13T15:35:07+02:00</time>
      </trkpt>
      <trkpt lat="46.35361" lon="4.84976">
        <ele>168.5</ele>
        <time>2026-05-13T15:35:08+02:00</time>
      </trkpt>
      <trkpt lat="46.35367" lon="4.84976">
        <ele>168.60059</ele>
        <time>2026-05-13T15:35:09+02:00</time>
      </trkpt>
      <trkpt lat="46.35372" lon="4.84977">
        <ele>168.7998</ele>
        <time>2026-05-13T15:35:10+02:00</time>
      </trkpt>
      <trkpt lat="46.35378" lon="4.84977">
        <ele>169</ele>
        <time>2026-05-13T15:35:11+02:00</time>
      </trkpt>
      <trkpt lat="46.35384" lon="4.84978">
        <ele>168.40039</ele>
        <time>2026-05-13T15:35:12+02:00</time>
      </trkpt>
      <trkpt lat="46.3539" lon="4.84978">
        <ele>168.40039</ele>
        <time>2026-05-13T15:35:13+02:00</time>
      </trkpt>
      <trkpt lat="46.35396" lon="4.84979">
        <ele>168.2998</ele>
        <time>2026-05-13T15:35:14+02:00</time>
      </trkpt>
      <trkpt lat="46.35402" lon="4.84979">
        <ele>168.2002</ele>
        <time>2026-05-13T15:35:15+02:00</time>
      </trkpt>
      <trkpt lat="46.35408" lon="4.8498">
        <ele>168.2002</ele>
        <time>2026-05-13T15:35:16+02:00</time>
      </trkpt>
      <trkpt lat="46.35415" lon="4.84981">
        <ele>168.10059</ele>
        <time>2026-05-13T15:35:17+02:00</time>
      </trkpt>
      <trkpt lat="46.35421" lon="4.84982">
        <ele>168</ele>
        <time>2026-05-13T15:35:18+02:00</time>
      </trkpt>
      <trkpt lat="46.35427" lon="4.84983">
        <ele>168</ele>
        <time>2026-05-13T15:35:19+02:00</time>
      </trkpt>
      <trkpt lat="46.35433" lon="4.84984">
        <ele>167.90039</ele>
        <time>2026-05-13T15:35:20+02:00</time>
      </trkpt>
      <trkpt lat="46.3544" lon="4.84985">
        <ele>167.7998</ele>
        <time>2026-05-13T15:35:21+02:00</time>
      </trkpt>
      <trkpt lat="46.35446" lon="4.84986">
        <ele>167.7002</ele>
        <time>2026-05-13T15:35:22+02:00</time>
      </trkpt>
      <trkpt lat="46.35452" lon="4.84987">
        <ele>167.60059</ele>
        <time>2026-05-13T15:35:23+02:00</time>
      </trkpt>
      <trkpt lat="46.35458" lon="4.84988">
        <ele>167.60059</ele>
        <time>2026-05-13T15:35:24+02:00</time>
      </trkpt>
      <trkpt lat="46.35465" lon="4.84989">
        <ele>167.7002</ele>
        <time>2026-05-13T15:35:25+02:00</time>
      </trkpt>
      <trkpt lat="46.35471" lon="4.8499">
        <ele>167.7002</ele>
        <time>2026-05-13T15:35:26+02:00</time>
      </trkpt>
      <trkpt lat="46.35476" lon="4.8499">
        <ele>167.7998</ele>
        <time>2026-05-13T15:35:27+02:00</time>
      </trkpt>
      <trkpt lat="46.35483" lon="4.84991">
        <ele>168</ele>
        <time>2026-05-13T15:35:28+02:00</time>
      </trkpt>
      <trkpt lat="46.35488" lon="4.84991">
        <ele>168.2002</ele>
        <time>2026-05-13T15:35:29+02:00</time>
      </trkpt>
      <trkpt lat="46.35494" lon="4.84992">
        <ele>168.40039</ele>
        <time>2026-05-13T15:35:30+02:00</time>
      </trkpt>
      <trkpt lat="46.355" lon="4.84993">
        <ele>168.7002</ele>
        <time>2026-05-13T15:35:31+02:00</time>
      </trkpt>
      <trkpt lat="46.35506" lon="4.84993">
        <ele>169.10059</ele>
        <time>2026-05-13T15:35:32+02:00</time>
      </trkpt>
      <trkpt lat="46.35512" lon="4.84994">
        <ele>169.60059</ele>
        <time>2026-05-13T15:35:33+02:00</time>
      </trkpt>
      <trkpt lat="46.35518" lon="4.84996">
        <ele>168.5</ele>
        <time>2026-05-13T15:35:34+02:00</time>
      </trkpt>
      <trkpt lat="46.35524" lon="4.84997">
        <ele>168.5</ele>
        <time>2026-05-13T15:35:35+02:00</time>
      </trkpt>
      <trkpt lat="46.35531" lon="4.84998">
        <ele>168.5</ele>
        <time>2026-05-13T15:35:36+02:00</time>
      </trkpt>
      <trkpt lat="46.35537" lon="4.84999">
        <ele>168.40039</ele>
        <time>2026-05-13T15:35:37+02:00</time>
      </trkpt>
      <trkpt lat="46.35543" lon="4.85001">
        <ele>168.40039</ele>
        <time>2026-05-13T15:35:38+02:00</time>
      </trkpt>
      <trkpt lat="46.35549" lon="4.85003">
        <ele>168.40039</ele>
        <time>2026-05-13T15:35:39+02:00</time>
      </trkpt>
      <trkpt lat="46.35556" lon="4.85005">
        <ele>167.7998</ele>
        <time>2026-05-13T15:35:40+02:00</time>
      </trkpt>
      <trkpt lat="46.35562" lon="4.85007">
        <ele>167.7998</ele>
        <time>2026-05-13T15:35:41+02:00</time>
      </trkpt>
      <trkpt lat="46.35569" lon="4.85009">
        <ele>167.90039</ele>
        <time>2026-05-13T15:35:42+02:00</time>
      </trkpt>
      <trkpt lat="46.35575" lon="4.85011">
        <ele>168</ele>
        <time>2026-05-13T15:35:43+02:00</time>
      </trkpt>
      <trkpt lat="46.35581" lon="4.85013">
        <ele>168.2002</ele>
        <time>2026-05-13T15:35:44+02:00</time>
      </trkpt>
      <trkpt lat="46.35587" lon="4.85015">
        <ele>168.2002</ele>
        <time>2026-05-13T15:35:45+02:00</time>
      </trkpt>
      <trkpt lat="46.35594" lon="4.85018">
        <ele>168.2998</ele>
        <time>2026-05-13T15:35:46+02:00</time>
      </trkpt>
      <trkpt lat="46.356" lon="4.8502">
        <ele>168.2998</ele>
        <time>2026-05-13T15:35:47+02:00</time>
      </trkpt>
      <trkpt lat="46.35607" lon="4.85022">
        <ele>168.40039</ele>
        <time>2026-05-13T15:35:48+02:00</time>
      </trkpt>
      <trkpt lat="46.35613" lon="4.85025">
        <ele>168.40039</ele>
        <time>2026-05-13T15:35:49+02:00</time>
      </trkpt>
      <trkpt lat="46.35619" lon="4.85028">
        <ele>168.40039</ele>
        <time>2026-05-13T15:35:50+02:00</time>
      </trkpt>
      <trkpt lat="46.35626" lon="4.8503">
        <ele>168.2002</ele>
        <time>2026-05-13T15:35:51+02:00</time>
      </trkpt>
      <trkpt lat="46.35632" lon="4.85033">
        <ele>168.2002</ele>
        <time>2026-05-13T15:35:52+02:00</time>
      </trkpt>
      <trkpt lat="46.35638" lon="4.85036">
        <ele>168.2002</ele>
        <time>2026-05-13T15:35:53+02:00</time>
      </trkpt>
      <trkpt lat="46.35644" lon="4.85039">
        <ele>168.2002</ele>
        <time>2026-05-13T15:35:54+02:00</time>
      </trkpt>
      <trkpt lat="46.3565" lon="4.85042">
        <ele>168.2002</ele>
        <time>2026-05-13T15:35:55+02:00</time>
      </trkpt>
      <trkpt lat="46.35656" lon="4.85045">
        <ele>168.2998</ele>
        <time>2026-05-13T15:35:56+02:00</time>
      </trkpt>
      <trkpt lat="46.35663" lon="4.85048">
        <ele>168.40039</ele>
        <time>2026-05-13T15:35:57+02:00</time>
      </trkpt>
      <trkpt lat="46.35669" lon="4.85052">
        <ele>168.40039</ele>
        <time>2026-05-13T15:35:58+02:00</time>
      </trkpt>
      <trkpt lat="46.35674" lon="4.85055">
        <ele>168.40039</ele>
        <time>2026-05-13T15:35:59+02:00</time>
      </trkpt>
      <trkpt lat="46.35681" lon="4.85058">
        <ele>168.40039</ele>
        <time>2026-05-13T15:36:00+02:00</time>
      </trkpt>
      <trkpt lat="46.35687" lon="4.85062">
        <ele>168.40039</ele>
        <time>2026-05-13T15:36:01+02:00</time>
      </trkpt>
      <trkpt lat="46.35693" lon="4.85065">
        <ele>168.40039</ele>
        <time>2026-05-13T15:36:02+02:00</time>
      </trkpt>
      <trkpt lat="46.35698" lon="4.85069">
        <ele>168.2998</ele>
        <time>2026-05-13T15:36:03+02:00</time>
      </trkpt>
      <trkpt lat="46.35705" lon="4.85072">
        <ele>168.2998</ele>
        <time>2026-05-13T15:36:04+02:00</time>
      </trkpt>
      <trkpt lat="46.3571" lon="4.85076">
        <ele>168.40039</ele>
        <time>2026-05-13T15:36:05+02:00</time>
      </trkpt>
      <trkpt lat="46.35716" lon="4.8508">
        <ele>168.40039</ele>
        <time>2026-05-13T15:36:06+02:00</time>
      </trkpt>
      <trkpt lat="46.35722" lon="4.85083">
        <ele>168.40039</ele>
        <time>2026-05-13T15:36:07+02:00</time>
      </trkpt>
      <trkpt lat="46.35728" lon="4.85086">
        <ele>168.40039</ele>
        <time>2026-05-13T15:36:08+02:00</time>
      </trkpt>
      <trkpt lat="46.35734" lon="4.85089">
        <ele>168.40039</ele>
        <time>2026-05-13T15:36:09+02:00</time>
      </trkpt>
      <trkpt lat="46.3574" lon="4.85093">
        <ele>168.40039</ele>
        <time>2026-05-13T15:36:10+02:00</time>
      </trkpt>
      <trkpt lat="46.35746" lon="4.85096">
        <ele>168.2998</ele>
        <time>2026-05-13T15:36:11+02:00</time>
      </trkpt>
      <trkpt lat="46.35751" lon="4.85099">
        <ele>168.40039</ele>
        <time>2026-05-13T15:36:12+02:00</time>
      </trkpt>
      <trkpt lat="46.35758" lon="4.85102">
        <ele>168.40039</ele>
        <time>2026-05-13T15:36:13+02:00</time>
      </trkpt>
      <trkpt lat="46.35763" lon="4.85105">
        <ele>168.40039</ele>
        <time>2026-05-13T15:36:14+02:00</time>
      </trkpt>
      <trkpt lat="46.35769" lon="4.85108">
        <ele>168.2998</ele>
        <time>2026-05-13T15:36:15+02:00</time>
      </trkpt>
      <trkpt lat="46.35776" lon="4.85111">
        <ele>168.2998</ele>
        <time>2026-05-13T15:36:16+02:00</time>
      </trkpt>
      <trkpt lat="46.35781" lon="4.85115">
        <ele>168.2998</ele>
        <time>2026-05-13T15:36:17+02:00</time>
      </trkpt>
      <trkpt lat="46.35787" lon="4.85118">
        <ele>168.2998</ele>
        <time>2026-05-13T15:36:18+02:00</time>
      </trkpt>
      <trkpt lat="46.35793" lon="4.85122">
        <ele>168.2002</ele>
        <time>2026-05-13T15:36:19+02:00</time>
      </trkpt>
      <trkpt lat="46.35799" lon="4.85126">
        <ele>168.2998</ele>
        <time>2026-05-13T15:36:20+02:00</time>
      </trkpt>
      <trkpt lat="46.35805" lon="4.85129">
        <ele>168.2998</ele>
        <time>2026-05-13T15:36:21+02:00</time>
      </trkpt>
      <trkpt lat="46.35811" lon="4.85133">
        <ele>168.40039</ele>
        <time>2026-05-13T15:36:22+02:00</time>
      </trkpt>
      <trkpt lat="46.35817" lon="4.85137">
        <ele>168.40039</ele>
        <time>2026-05-13T15:36:23+02:00</time>
      </trkpt>
      <trkpt lat="46.35822" lon="4.85141">
        <ele>168.10059</ele>
        <time>2026-05-13T15:36:24+02:00</time>
      </trkpt>
      <trkpt lat="46.35828" lon="4.85145">
        <ele>168</ele>
        <time>2026-05-13T15:36:25+02:00</time>
      </trkpt>
      <trkpt lat="46.35833" lon="4.85149">
        <ele>168</ele>
        <time>2026-05-13T15:36:26+02:00</time>
      </trkpt>
      <trkpt lat="46.35839" lon="4.85153">
        <ele>168.10059</ele>
        <time>2026-05-13T15:36:27+02:00</time>
      </trkpt>
      <trkpt lat="46.35845" lon="4.85157">
        <ele>168.10059</ele>
        <time>2026-05-13T15:36:28+02:00</time>
      </trkpt>
      <trkpt lat="46.35851" lon="4.85161">
        <ele>168.40039</ele>
        <time>2026-05-13T15:36:29+02:00</time>
      </trkpt>
      <trkpt lat="46.35857" lon="4.85165">
        <ele>168.2998</ele>
        <time>2026-05-13T15:36:30+02:00</time>
      </trkpt>
      <trkpt lat="46.35863" lon="4.85168">
        <ele>168.10059</ele>
        <time>2026-05-13T15:36:31+02:00</time>
      </trkpt>
      <trkpt lat="46.35869" lon="4.85173">
        <ele>167.90039</ele>
        <time>2026-05-13T15:36:32+02:00</time>
      </trkpt>
      <trkpt lat="46.35875" lon="4.85177">
        <ele>168.10059</ele>
        <time>2026-05-13T15:36:33+02:00</time>
      </trkpt>
      <trkpt lat="46.3588" lon="4.85181">
        <ele>168.2998</ele>
        <time>2026-05-13T15:36:34+02:00</time>
      </trkpt>
      <trkpt lat="46.35887" lon="4.85185">
        <ele>168.5</ele>
        <time>2026-05-13T15:36:35+02:00</time>
      </trkpt>
      <trkpt lat="46.35892" lon="4.85189">
        <ele>168.7002</ele>
        <time>2026-05-13T15:36:36+02:00</time>
      </trkpt>
      <trkpt lat="46.35898" lon="4.85192">
        <ele>168.7002</ele>
        <time>2026-05-13T15:36:37+02:00</time>
      </trkpt>
      <trkpt lat="46.35904" lon="4.85196">
        <ele>168.10059</ele>
        <time>2026-05-13T15:36:38+02:00</time>
      </trkpt>
      <trkpt lat="46.3591" lon="4.852">
        <ele>168</ele>
        <time>2026-05-13T15:36:39+02:00</time>
      </trkpt>
      <trkpt lat="46.35916" lon="4.85204">
        <ele>168</ele>
        <time>2026-05-13T15:36:40+02:00</time>
      </trkpt>
      <trkpt lat="46.35922" lon="4.85208">
        <ele>168.10059</ele>
        <time>2026-05-13T15:36:41+02:00</time>
      </trkpt>
      <trkpt lat="46.35928" lon="4.85212">
        <ele>168.2998</ele>
        <time>2026-05-13T15:36:42+02:00</time>
      </trkpt>
      <trkpt lat="46.35933" lon="4.85216">
        <ele>168.40039</ele>
        <time>2026-05-13T15:36:43+02:00</time>
      </trkpt>
      <trkpt lat="46.35938" lon="4.85221">
        <ele>168.40039</ele>
        <time>2026-05-13T15:36:44+02:00</time>
      </trkpt>
      <trkpt lat="46.35942" lon="4.85226">
        <ele>168.40039</ele>
        <time>2026-05-13T15:36:45+02:00</time>
      </trkpt>
      <trkpt lat="46.35947" lon="4.85231">
        <ele>168.2998</ele>
        <time>2026-05-13T15:36:46+02:00</time>
      </trkpt>
      <trkpt lat="46.35952" lon="4.85235">
        <ele>168.2002</ele>
        <time>2026-05-13T15:36:47+02:00</time>
      </trkpt>
      <trkpt lat="46.35957" lon="4.85239">
        <ele>168.2998</ele>
        <time>2026-05-13T15:36:48+02:00</time>
      </trkpt>
      <trkpt lat="46.35962" lon="4.85243">
        <ele>168.2002</ele>
        <time>2026-05-13T15:36:49+02:00</time>
      </trkpt>
      <trkpt lat="46.35967" lon="4.85246">
        <ele>168.40039</ele>
        <time>2026-05-13T15:36:50+02:00</time>
      </trkpt>
      <trkpt lat="46.35972" lon="4.85249">
        <ele>168.40039</ele>
        <time>2026-05-13T15:36:51+02:00</time>
      </trkpt>
      <trkpt lat="46.35977" lon="4.85251">
        <ele>168.40039</ele>
        <time>2026-05-13T15:36:52+02:00</time>
      </trkpt>
      <trkpt lat="46.35982" lon="4.85254">
        <ele>168.40039</ele>
        <time>2026-05-13T15:36:53+02:00</time>
      </trkpt>
      <trkpt lat="46.35986" lon="4.85257">
        <ele>168.2998</ele>
        <time>2026-05-13T15:36:54+02:00</time>
      </trkpt>
      <trkpt lat="46.35991" lon="4.85259">
        <ele>168.2998</ele>
        <time>2026-05-13T15:36:55+02:00</time>
      </trkpt>
      <trkpt lat="46.35996" lon="4.85262">
        <ele>168.2998</ele>
        <time>2026-05-13T15:36:56+02:00</time>
      </trkpt>
      <trkpt lat="46.36001" lon="4.85265">
        <ele>168.2998</ele>
        <time>2026-05-13T15:36:57+02:00</time>
      </trkpt>
      <trkpt lat="46.36006" lon="4.85267">
        <ele>168.2002</ele>
        <time>2026-05-13T15:36:58+02:00</time>
      </trkpt>
      <trkpt lat="46.3601" lon="4.8527">
        <ele>168.2998</ele>
        <time>2026-05-13T15:36:59+02:00</time>
      </trkpt>
      <trkpt lat="46.36015" lon="4.85272">
        <ele>168.2998</ele>
        <time>2026-05-13T15:37:00+02:00</time>
      </trkpt>
      <trkpt lat="46.36019" lon="4.85274">
        <ele>168.2998</ele>
        <time>2026-05-13T15:37:01+02:00</time>
      </trkpt>
      <trkpt lat="46.36024" lon="4.85276">
        <ele>168.40039</ele>
        <time>2026-05-13T15:37:02+02:00</time>
      </trkpt>
      <trkpt lat="46.36028" lon="4.85278">
        <ele>168.40039</ele>
        <time>2026-05-13T15:37:03+02:00</time>
      </trkpt>
      <trkpt lat="46.36033" lon="4.8528">
        <ele>168.2998</ele>
        <time>2026-05-13T15:37:04+02:00</time>
      </trkpt>
      <trkpt lat="46.36037" lon="4.85281">
        <ele>168.2998</ele>
        <time>2026-05-13T15:37:05+02:00</time>
      </trkpt>
      <trkpt lat="46.36041" lon="4.85282">
        <ele>168.2998</ele>
        <time>2026-05-13T15:37:06+02:00</time>
      </trkpt>
      <trkpt lat="46.36045" lon="4.85283">
        <ele>168.2002</ele>
        <time>2026-05-13T15:37:07+02:00</time>
      </trkpt>
      <trkpt lat="46.36049" lon="4.85284">
        <ele>168.2002</ele>
        <time>2026-05-13T15:37:08+02:00</time>
      </trkpt>
      <trkpt lat="46.36053" lon="4.85284">
        <ele>168.2002</ele>
        <time>2026-05-13T15:37:09+02:00</time>
      </trkpt>
      <trkpt lat="46.36057" lon="4.85284">
        <ele>168.2002</ele>
        <time>2026-05-13T15:37:10+02:00</time>
      </trkpt>
      <trkpt lat="46.3606" lon="4.85284">
        <ele>168.2002</ele>
        <time>2026-05-13T15:37:11+02:00</time>
      </trkpt>
      <trkpt lat="46.36064" lon="4.85284">
        <ele>168.2002</ele>
        <time>2026-05-13T15:37:12+02:00</time>
      </trkpt>
      <trkpt lat="46.36068" lon="4.85284">
        <ele>168</ele>
        <time>2026-05-13T15:37:13+02:00</time>
      </trkpt>
      <trkpt lat="46.36072" lon="4.85284">
        <ele>168</ele>
        <time>2026-05-13T15:37:14+02:00</time>
      </trkpt>
      <trkpt lat="46.36076" lon="4.85286">
        <ele>167.90039</ele>
        <time>2026-05-13T15:37:15+02:00</time>
      </trkpt>
      <trkpt lat="46.3608" lon="4.85287">
        <ele>168</ele>
        <time>2026-05-13T15:37:16+02:00</time>
      </trkpt>
      <trkpt lat="46.36084" lon="4.85289">
        <ele>168</ele>
        <time>2026-05-13T15:37:17+02:00</time>
      </trkpt>
      <trkpt lat="46.36088" lon="4.85291">
        <ele>168.10059</ele>
        <time>2026-05-13T15:37:18+02:00</time>
      </trkpt>
      <trkpt lat="46.36093" lon="4.85292">
        <ele>168.2998</ele>
        <time>2026-05-13T15:37:19+02:00</time>
      </trkpt>
      <trkpt lat="46.36097" lon="4.85294">
        <ele>168.60059</ele>
        <time>2026-05-13T15:37:20+02:00</time>
      </trkpt>
      <trkpt lat="46.36101" lon="4.85295">
        <ele>168.60059</ele>
        <time>2026-05-13T15:37:21+02:00</time>
      </trkpt>
      <trkpt lat="46.36105" lon="4.85297">
        <ele>168.40039</ele>
        <time>2026-05-13T15:37:22+02:00</time>
      </trkpt>
      <trkpt lat="46.3611" lon="4.85298">
        <ele>168.40039</ele>
        <time>2026-05-13T15:37:23+02:00</time>
      </trkpt>
      <trkpt lat="46.36114" lon="4.853">
        <ele>168.40039</ele>
        <time>2026-05-13T15:37:24+02:00</time>
      </trkpt>
      <trkpt lat="46.36118" lon="4.85301">
        <ele>167.90039</ele>
        <time>2026-05-13T15:37:25+02:00</time>
      </trkpt>
      <trkpt lat="46.36122" lon="4.85302">
        <ele>167.5</ele>
        <time>2026-05-13T15:37:26+02:00</time>
      </trkpt>
      <trkpt lat="46.36126" lon="4.85303">
        <ele>167.5</ele>
        <time>2026-05-13T15:37:27+02:00</time>
      </trkpt>
      <trkpt lat="46.3613" lon="4.85305">
        <ele>167.5</ele>
        <time>2026-05-13T15:37:28+02:00</time>
      </trkpt>
      <trkpt lat="46.36134" lon="4.85307">
        <ele>168.5</ele>
        <time>2026-05-13T15:37:29+02:00</time>
      </trkpt>
      <trkpt lat="46.36138" lon="4.85308">
        <ele>168.5</ele>
        <time>2026-05-13T15:37:30+02:00</time>
      </trkpt>
      <trkpt lat="46.36142" lon="4.8531">
        <ele>171.5</ele>
        <time>2026-05-13T15:37:31+02:00</time>
      </trkpt>
      <trkpt lat="46.36147" lon="4.85312">
        <ele>175.2002</ele>
        <time>2026-05-13T15:37:32+02:00</time>
      </trkpt>
      <trkpt lat="46.36151" lon="4.85313">
        <ele>173.10059</ele>
        <time>2026-05-13T15:37:33+02:00</time>
      </trkpt>
      <trkpt lat="46.36155" lon="4.85315">
        <ele>173.10059</ele>
        <time>2026-05-13T15:37:34+02:00</time>
      </trkpt>
      <trkpt lat="46.36159" lon="4.85317">
        <ele>173.10059</ele>
        <time>2026-05-13T15:37:35+02:00</time>
      </trkpt>
      <trkpt lat="46.36163" lon="4.85318">
        <ele>171.90039</ele>
        <time>2026-05-13T15:37:36+02:00</time>
      </trkpt>
      <trkpt lat="46.36167" lon="4.8532">
        <ele>171.90039</ele>
        <time>2026-05-13T15:37:37+02:00</time>
      </trkpt>
      <trkpt lat="46.36171" lon="4.85322">
        <ele>168.2998</ele>
        <time>2026-05-13T15:37:38+02:00</time>
      </trkpt>
      <trkpt lat="46.36175" lon="4.85323">
        <ele>168.5</ele>
        <time>2026-05-13T15:37:39+02:00</time>
      </trkpt>
      <trkpt lat="46.36179" lon="4.85324">
        <ele>168.5</ele>
        <time>2026-05-13T15:37:40+02:00</time>
      </trkpt>
      <trkpt lat="46.36182" lon="4.85325">
        <ele>169.10059</ele>
        <time>2026-05-13T15:37:41+02:00</time>
      </trkpt>
      <trkpt lat="46.36184" lon="4.85326">
        <ele>169.10059</ele>
        <time>2026-05-13T15:37:42+02:00</time>
      </trkpt>
      <trkpt lat="46.36186" lon="4.85326">
        <ele>170.5</ele>
        <time>2026-05-13T15:37:43+02:00</time>
      </trkpt>
      <trkpt lat="46.36189" lon="4.85327">
        <ele>170.5</ele>
        <time>2026-05-13T15:37:44+02:00</time>
      </trkpt>
      <trkpt lat="46.36192" lon="4.85327">
        <ele>172.60059</ele>
        <time>2026-05-13T15:37:45+02:00</time>
      </trkpt>
      <trkpt lat="46.36194" lon="4.85328">
        <ele>172.60059</ele>
        <time>2026-05-13T15:37:46+02:00</time>
      </trkpt>
      <trkpt lat="46.36197" lon="4.85329">
        <ele>172.60059</ele>
        <time>2026-05-13T15:37:47+02:00</time>
      </trkpt>
      <trkpt lat="46.36201" lon="4.8533">
        <ele>173</ele>
        <time>2026-05-13T15:37:48+02:00</time>
      </trkpt>
      <trkpt lat="46.36205" lon="4.85331">
        <ele>175.2002</ele>
        <time>2026-05-13T15:37:49+02:00</time>
      </trkpt>
      <trkpt lat="46.36209" lon="4.85333">
        <ele>175.2002</ele>
        <time>2026-05-13T15:37:50+02:00</time>
      </trkpt>
      <trkpt lat="46.36213" lon="4.85334">
        <ele>178.10059</ele>
        <time>2026-05-13T15:37:51+02:00</time>
      </trkpt>
      <trkpt lat="46.36216" lon="4.85335">
        <ele>180.60059</ele>
        <time>2026-05-13T15:37:52+02:00</time>
      </trkpt>
      <trkpt lat="46.3622" lon="4.85337">
        <ele>180.60059</ele>
        <time>2026-05-13T15:37:53+02:00</time>
      </trkpt>
      <trkpt lat="46.36223" lon="4.85338">
        <ele>182</ele>
        <time>2026-05-13T15:37:54+02:00</time>
      </trkpt>
      <trkpt lat="46.36226" lon="4.8534">
        <ele>175.40039</ele>
        <time>2026-05-13T15:37:55+02:00</time>
      </trkpt>
      <trkpt lat="46.36229" lon="4.85341">
        <ele>175.2002</ele>
        <time>2026-05-13T15:37:56+02:00</time>
      </trkpt>
      <trkpt lat="46.36233" lon="4.85342">
        <ele>174.7002</ele>
        <time>2026-05-13T15:37:57+02:00</time>
      </trkpt>
      <trkpt lat="46.36237" lon="4.85343">
        <ele>174.7002</ele>
        <time>2026-05-13T15:37:58+02:00</time>
      </trkpt>
      <trkpt lat="46.36242" lon="4.85345">
        <ele>174.2002</ele>
        <time>2026-05-13T15:37:59+02:00</time>
      </trkpt>
      <trkpt lat="46.36246" lon="4.85346">
        <ele>173.60059</ele>
        <time>2026-05-13T15:38:00+02:00</time>
      </trkpt>
      <trkpt lat="46.3625" lon="4.85348">
        <ele>169.5</ele>
        <time>2026-05-13T15:38:01+02:00</time>
      </trkpt>
      <trkpt lat="46.36255" lon="4.8535">
        <ele>169.60059</ele>
        <time>2026-05-13T15:38:02+02:00</time>
      </trkpt>
      <trkpt lat="46.3626" lon="4.85352">
        <ele>169.7998</ele>
        <time>2026-05-13T15:38:03+02:00</time>
      </trkpt>
      <trkpt lat="46.36265" lon="4.85353">
        <ele>169.90039</ele>
        <time>2026-05-13T15:38:04+02:00</time>
      </trkpt>
      <trkpt lat="46.3627" lon="4.85355">
        <ele>170</ele>
        <time>2026-05-13T15:38:05+02:00</time>
      </trkpt>
      <trkpt lat="46.36274" lon="4.85356">
        <ele>169</ele>
        <time>2026-05-13T15:38:06+02:00</time>
      </trkpt>
      <trkpt lat="46.36279" lon="4.85358">
        <ele>169</ele>
        <time>2026-05-13T15:38:07+02:00</time>
      </trkpt>
      <trkpt lat="46.36284" lon="4.8536">
        <ele>169</ele>
        <time>2026-05-13T15:38:08+02:00</time>
      </trkpt>
      <trkpt lat="46.36289" lon="4.85363">
        <ele>169.2002</ele>
        <time>2026-05-13T15:38:09+02:00</time>
      </trkpt>
      <trkpt lat="46.36294" lon="4.85365">
        <ele>168.90039</ele>
        <time>2026-05-13T15:38:10+02:00</time>
      </trkpt>
      <trkpt lat="46.36299" lon="4.85367">
        <ele>169.40039</ele>
        <time>2026-05-13T15:38:11+02:00</time>
      </trkpt>
      <trkpt lat="46.36303" lon="4.85369">
        <ele>169.40039</ele>
        <time>2026-05-13T15:38:12+02:00</time>
      </trkpt>
      <trkpt lat="46.36308" lon="4.85371">
        <ele>170</ele>
        <time>2026-05-13T15:38:13+02:00</time>
      </trkpt>
      <trkpt lat="46.36313" lon="4.85372">
        <ele>170.40039</ele>
        <time>2026-05-13T15:38:14+02:00</time>
      </trkpt>
      <trkpt lat="46.36318" lon="4.85374">
        <ele>169.10059</ele>
        <time>2026-05-13T15:38:15+02:00</time>
      </trkpt>
      <trkpt lat="46.36323" lon="4.85376">
        <ele>169.2998</ele>
        <time>2026-05-13T15:38:16+02:00</time>
      </trkpt>
      <trkpt lat="46.36327" lon="4.85378">
        <ele>169.2998</ele>
        <time>2026-05-13T15:38:17+02:00</time>
      </trkpt>
      <trkpt lat="46.36332" lon="4.8538">
        <ele>169.5</ele>
        <time>2026-05-13T15:38:18+02:00</time>
      </trkpt>
      <trkpt lat="46.36336" lon="4.85382">
        <ele>169</ele>
        <time>2026-05-13T15:38:19+02:00</time>
      </trkpt>
      <trkpt lat="46.36341" lon="4.85384">
        <ele>169.2002</ele>
        <time>2026-05-13T15:38:20+02:00</time>
      </trkpt>
      <trkpt lat="46.36345" lon="4.85386">
        <ele>169.2002</ele>
        <time>2026-05-13T15:38:21+02:00</time>
      </trkpt>
      <trkpt lat="46.3635" lon="4.85387">
        <ele>169.2998</ele>
        <time>2026-05-13T15:38:22+02:00</time>
      </trkpt>
      <trkpt lat="46.36354" lon="4.85389">
        <ele>169.5</ele>
        <time>2026-05-13T15:38:23+02:00</time>
      </trkpt>
      <trkpt lat="46.36358" lon="4.85391">
        <ele>168.90039</ele>
        <time>2026-05-13T15:38:24+02:00</time>
      </trkpt>
      <trkpt lat="46.36362" lon="4.85394">
        <ele>168.90039</ele>
        <time>2026-05-13T15:38:25+02:00</time>
      </trkpt>
      <trkpt lat="46.36374" lon="4.85401">
        <ele>168.7998</ele>
        <time>2026-05-13T15:38:26+02:00</time>
      </trkpt>
      <trkpt lat="46.36378" lon="4.85403">
        <ele>169.10059</ele>
        <time>2026-05-13T15:38:27+02:00</time>
      </trkpt>
      <trkpt lat="46.36382" lon="4.85405">
        <ele>169.2998</ele>
        <time>2026-05-13T15:38:28+02:00</time>
      </trkpt>
      <trkpt lat="46.36386" lon="4.85408">
        <ele>168.90039</ele>
        <time>2026-05-13T15:38:29+02:00</time>
      </trkpt>
      <trkpt lat="46.3639" lon="4.8541">
        <ele>168.90039</ele>
        <time>2026-05-13T15:38:30+02:00</time>
      </trkpt>
      <trkpt lat="46.36394" lon="4.85413">
        <ele>168.7998</ele>
        <time>2026-05-13T15:38:31+02:00</time>
      </trkpt>
      <trkpt lat="46.36398" lon="4.85416">
        <ele>168.5</ele>
        <time>2026-05-13T15:38:32+02:00</time>
      </trkpt>
      <trkpt lat="46.36402" lon="4.85418">
        <ele>168.40039</ele>
        <time>2026-05-13T15:38:33+02:00</time>
      </trkpt>
      <trkpt lat="46.36406" lon="4.85421">
        <ele>168.60059</ele>
        <time>2026-05-13T15:38:34+02:00</time>
      </trkpt>
      <trkpt lat="46.36411" lon="4.85424">
        <ele>168.7998</ele>
        <time>2026-05-13T15:38:35+02:00</time>
      </trkpt>
      <trkpt lat="46.36415" lon="4.85427">
        <ele>168.40039</ele>
        <time>2026-05-13T15:38:36+02:00</time>
      </trkpt>
      <trkpt lat="46.36419" lon="4.8543">
        <ele>168.2998</ele>
        <time>2026-05-13T15:38:37+02:00</time>
      </trkpt>
      <trkpt lat="46.36424" lon="4.85433">
        <ele>168</ele>
        <time>2026-05-13T15:38:38+02:00</time>
      </trkpt>
      <trkpt lat="46.36429" lon="4.85436">
        <ele>168.2998</ele>
        <time>2026-05-13T15:38:39+02:00</time>
      </trkpt>
      <trkpt lat="46.36434" lon="4.85439">
        <ele>168.2998</ele>
        <time>2026-05-13T15:38:40+02:00</time>
      </trkpt>
      <trkpt lat="46.36438" lon="4.85443">
        <ele>168.40039</ele>
        <time>2026-05-13T15:38:41+02:00</time>
      </trkpt>
      <trkpt lat="46.36443" lon="4.85446">
        <ele>169.10059</ele>
        <time>2026-05-13T15:38:42+02:00</time>
      </trkpt>
      <trkpt lat="46.36448" lon="4.85449">
        <ele>170</ele>
        <time>2026-05-13T15:38:43+02:00</time>
      </trkpt>
      <trkpt lat="46.36453" lon="4.85452">
        <ele>169.2998</ele>
        <time>2026-05-13T15:38:44+02:00</time>
      </trkpt>
      <trkpt lat="46.36458" lon="4.85455">
        <ele>169.2998</ele>
        <time>2026-05-13T15:38:45+02:00</time>
      </trkpt>
      <trkpt lat="46.36462" lon="4.85459">
        <ele>168.7002</ele>
        <time>2026-05-13T15:38:46+02:00</time>
      </trkpt>
      <trkpt lat="46.36467" lon="4.85462">
        <ele>169.5</ele>
        <time>2026-05-13T15:38:47+02:00</time>
      </trkpt>
      <trkpt lat="46.36471" lon="4.85466">
        <ele>170.7998</ele>
        <time>2026-05-13T15:38:48+02:00</time>
      </trkpt>
      <trkpt lat="46.36475" lon="4.85469">
        <ele>169.7002</ele>
        <time>2026-05-13T15:38:49+02:00</time>
      </trkpt>
      <trkpt lat="46.36479" lon="4.85473">
        <ele>171</ele>
        <time>2026-05-13T15:38:50+02:00</time>
      </trkpt>
      <trkpt lat="46.36484" lon="4.85477">
        <ele>170.2998</ele>
        <time>2026-05-13T15:38:51+02:00</time>
      </trkpt>
      <trkpt lat="46.36489" lon="4.8548">
        <ele>171.10059</ele>
        <time>2026-05-13T15:38:52+02:00</time>
      </trkpt>
      <trkpt lat="46.36493" lon="4.85484">
        <ele>171.10059</ele>
        <time>2026-05-13T15:38:53+02:00</time>
      </trkpt>
      <trkpt lat="46.36499" lon="4.85488">
        <ele>168.2002</ele>
        <time>2026-05-13T15:38:54+02:00</time>
      </trkpt>
      <trkpt lat="46.36504" lon="4.85492">
        <ele>169.2002</ele>
        <time>2026-05-13T15:38:55+02:00</time>
      </trkpt>
      <trkpt lat="46.36509" lon="4.85497">
        <ele>170.10059</ele>
        <time>2026-05-13T15:38:56+02:00</time>
      </trkpt>
      <trkpt lat="46.36514" lon="4.85501">
        <ele>174.60059</ele>
        <time>2026-05-13T15:38:57+02:00</time>
      </trkpt>
      <trkpt lat="46.36519" lon="4.85505">
        <ele>174.60059</ele>
        <time>2026-05-13T15:38:58+02:00</time>
      </trkpt>
      <trkpt lat="46.36524" lon="4.8551">
        <ele>170.7998</ele>
        <time>2026-05-13T15:38:59+02:00</time>
      </trkpt>
      <trkpt lat="46.36529" lon="4.85514">
        <ele>170.40039</ele>
        <time>2026-05-13T15:39:00+02:00</time>
      </trkpt>
      <trkpt lat="46.36534" lon="4.85518">
        <ele>170.40039</ele>
        <time>2026-05-13T15:39:01+02:00</time>
      </trkpt>
      <trkpt lat="46.3654" lon="4.85523">
        <ele>167.7998</ele>
        <time>2026-05-13T15:39:02+02:00</time>
      </trkpt>
      <trkpt lat="46.36545" lon="4.85528">
        <ele>167.2998</ele>
        <time>2026-05-13T15:39:03+02:00</time>
      </trkpt>
      <trkpt lat="46.3655" lon="4.85532">
        <ele>167.7998</ele>
        <time>2026-05-13T15:39:04+02:00</time>
      </trkpt>
      <trkpt lat="46.36555" lon="4.85537">
        <ele>168.10059</ele>
        <time>2026-05-13T15:39:05+02:00</time>
      </trkpt>
      <trkpt lat="46.3656" lon="4.85541">
        <ele>168.40039</ele>
        <time>2026-05-13T15:39:06+02:00</time>
      </trkpt>
      <trkpt lat="46.36565" lon="4.85545">
        <ele>167.7998</ele>
        <time>2026-05-13T15:39:07+02:00</time>
      </trkpt>
      <trkpt lat="46.3657" lon="4.8555">
        <ele>167.7998</ele>
        <time>2026-05-13T15:39:08+02:00</time>
      </trkpt>
      <trkpt lat="46.36575" lon="4.85554">
        <ele>168.10059</ele>
        <time>2026-05-13T15:39:09+02:00</time>
      </trkpt>
      <trkpt lat="46.3658" lon="4.85559">
        <ele>170.2002</ele>
        <time>2026-05-13T15:39:10+02:00</time>
      </trkpt>
      <trkpt lat="46.36586" lon="4.85563">
        <ele>171.2998</ele>
        <time>2026-05-13T15:39:11+02:00</time>
      </trkpt>
      <trkpt lat="46.36591" lon="4.85568">
        <ele>173.2002</ele>
        <time>2026-05-13T15:39:12+02:00</time>
      </trkpt>
      <trkpt lat="46.36596" lon="4.85572">
        <ele>169.7998</ele>
        <time>2026-05-13T15:39:13+02:00</time>
      </trkpt>
      <trkpt lat="46.36602" lon="4.85576">
        <ele>169.40039</ele>
        <time>2026-05-13T15:39:14+02:00</time>
      </trkpt>
      <trkpt lat="46.36607" lon="4.8558">
        <ele>167.7998</ele>
        <time>2026-05-13T15:39:15+02:00</time>
      </trkpt>
      <trkpt lat="46.36612" lon="4.85584">
        <ele>167.7998</ele>
        <time>2026-05-13T15:39:16+02:00</time>
      </trkpt>
      <trkpt lat="46.36618" lon="4.85588">
        <ele>168</ele>
        <time>2026-05-13T15:39:17+02:00</time>
      </trkpt>
      <trkpt lat="46.36623" lon="4.85592">
        <ele>168</ele>
        <time>2026-05-13T15:39:18+02:00</time>
      </trkpt>
      <trkpt lat="46.36628" lon="4.85597">
        <ele>168.40039</ele>
        <time>2026-05-13T15:39:19+02:00</time>
      </trkpt>
      <trkpt lat="46.36633" lon="4.85601">
        <ele>168.60059</ele>
        <time>2026-05-13T15:39:20+02:00</time>
      </trkpt>
      <trkpt lat="46.36639" lon="4.85605">
        <ele>168.40039</ele>
        <time>2026-05-13T15:39:21+02:00</time>
      </trkpt>
      <trkpt lat="46.36644" lon="4.85609">
        <ele>168.40039</ele>
        <time>2026-05-13T15:39:22+02:00</time>
      </trkpt>
      <trkpt lat="46.36649" lon="4.85613">
        <ele>167.7002</ele>
        <time>2026-05-13T15:39:23+02:00</time>
      </trkpt>
      <trkpt lat="46.36655" lon="4.85617">
        <ele>167.2998</ele>
        <time>2026-05-13T15:39:24+02:00</time>
      </trkpt>
      <trkpt lat="46.36661" lon="4.8562">
        <ele>167.5</ele>
        <time>2026-05-13T15:39:25+02:00</time>
      </trkpt>
      <trkpt lat="46.36666" lon="4.85624">
        <ele>168.10059</ele>
        <time>2026-05-13T15:39:26+02:00</time>
      </trkpt>
      <trkpt lat="46.36671" lon="4.85628">
        <ele>168.10059</ele>
        <time>2026-05-13T15:39:27+02:00</time>
      </trkpt>
      <trkpt lat="46.36677" lon="4.85631">
        <ele>168.5</ele>
        <time>2026-05-13T15:39:28+02:00</time>
      </trkpt>
      <trkpt lat="46.36682" lon="4.85635">
        <ele>168.7002</ele>
        <time>2026-05-13T15:39:29+02:00</time>
      </trkpt>
      <trkpt lat="46.36688" lon="4.85639">
        <ele>167.90039</ele>
        <time>2026-05-13T15:39:30+02:00</time>
      </trkpt>
      <trkpt lat="46.36693" lon="4.85644">
        <ele>167.7002</ele>
        <time>2026-05-13T15:39:31+02:00</time>
      </trkpt>
      <trkpt lat="46.36698" lon="4.85648">
        <ele>167.60059</ele>
        <time>2026-05-13T15:39:32+02:00</time>
      </trkpt>
      <trkpt lat="46.36703" lon="4.85652">
        <ele>167.7002</ele>
        <time>2026-05-13T15:39:33+02:00</time>
      </trkpt>
      <trkpt lat="46.36708" lon="4.85655">
        <ele>167.90039</ele>
        <time>2026-05-13T15:39:34+02:00</time>
      </trkpt>
      <trkpt lat="46.36712" lon="4.85659">
        <ele>168.2002</ele>
        <time>2026-05-13T15:39:35+02:00</time>
      </trkpt>
      <trkpt lat="46.36717" lon="4.85662">
        <ele>168.2998</ele>
        <time>2026-05-13T15:39:36+02:00</time>
      </trkpt>
      <trkpt lat="46.36721" lon="4.85665">
        <ele>168.2998</ele>
        <time>2026-05-13T15:39:37+02:00</time>
      </trkpt>
      <trkpt lat="46.36726" lon="4.85668">
        <ele>168.2002</ele>
        <time>2026-05-13T15:39:38+02:00</time>
      </trkpt>
      <trkpt lat="46.3673" lon="4.85671">
        <ele>168.2002</ele>
        <time>2026-05-13T15:39:39+02:00</time>
      </trkpt>
      <trkpt lat="46.36735" lon="4.85674">
        <ele>168.10059</ele>
        <time>2026-05-13T15:39:40+02:00</time>
      </trkpt>
      <trkpt lat="46.36739" lon="4.85678">
        <ele>168.2002</ele>
        <time>2026-05-13T15:39:41+02:00</time>
      </trkpt>
      <trkpt lat="46.36743" lon="4.85681">
        <ele>168.60059</ele>
        <time>2026-05-13T15:39:42+02:00</time>
      </trkpt>
      <trkpt lat="46.36748" lon="4.85685">
        <ele>168.40039</ele>
        <time>2026-05-13T15:39:43+02:00</time>
      </trkpt>
      <trkpt lat="46.36752" lon="4.85688">
        <ele>168.60059</ele>
        <time>2026-05-13T15:39:44+02:00</time>
      </trkpt>
      <trkpt lat="46.36757" lon="4.85691">
        <ele>168.40039</ele>
        <time>2026-05-13T15:39:45+02:00</time>
      </trkpt>
      <trkpt lat="46.36762" lon="4.85694">
        <ele>168.40039</ele>
        <time>2026-05-13T15:39:46+02:00</time>
      </trkpt>
      <trkpt lat="46.36767" lon="4.85698">
        <ele>168.2998</ele>
        <time>2026-05-13T15:39:47+02:00</time>
      </trkpt>
      <trkpt lat="46.36772" lon="4.85701">
        <ele>168.10059</ele>
        <time>2026-05-13T15:39:48+02:00</time>
      </trkpt>
      <trkpt lat="46.36777" lon="4.85704">
        <ele>168.10059</ele>
        <time>2026-05-13T15:39:49+02:00</time>
      </trkpt>
      <trkpt lat="46.36782" lon="4.85707">
        <ele>168.10059</ele>
        <time>2026-05-13T15:39:50+02:00</time>
      </trkpt>
      <trkpt lat="46.36786" lon="4.85711">
        <ele>168.2998</ele>
        <time>2026-05-13T15:39:51+02:00</time>
      </trkpt>
      <trkpt lat="46.36791" lon="4.85715">
        <ele>168.40039</ele>
        <time>2026-05-13T15:39:52+02:00</time>
      </trkpt>
      <trkpt lat="46.36796" lon="4.85718">
        <ele>168.40039</ele>
        <time>2026-05-13T15:39:53+02:00</time>
      </trkpt>
      <trkpt lat="46.36801" lon="4.85721">
        <ele>168.40039</ele>
        <time>2026-05-13T15:39:54+02:00</time>
      </trkpt>
      <trkpt lat="46.36805" lon="4.85724">
        <ele>168.5</ele>
        <time>2026-05-13T15:39:55+02:00</time>
      </trkpt>
      <trkpt lat="46.3681" lon="4.85727">
        <ele>168.2002</ele>
        <time>2026-05-13T15:39:56+02:00</time>
      </trkpt>
      <trkpt lat="46.36814" lon="4.85731">
        <ele>168.10059</ele>
        <time>2026-05-13T15:39:57+02:00</time>
      </trkpt>
      <trkpt lat="46.3682" lon="4.85734">
        <ele>168.10059</ele>
        <time>2026-05-13T15:39:58+02:00</time>
      </trkpt>
      <trkpt lat="46.36824" lon="4.85737">
        <ele>168.10059</ele>
        <time>2026-05-13T15:39:59+02:00</time>
      </trkpt>
      <trkpt lat="46.3683" lon="4.8574">
        <ele>168.10059</ele>
        <time>2026-05-13T15:40:00+02:00</time>
      </trkpt>
      <trkpt lat="46.36834" lon="4.85743">
        <ele>168.2998</ele>
        <time>2026-05-13T15:40:01+02:00</time>
      </trkpt>
      <trkpt lat="46.36839" lon="4.85746">
        <ele>168.2998</ele>
        <time>2026-05-13T15:40:02+02:00</time>
      </trkpt>
      <trkpt lat="46.36844" lon="4.85749">
        <ele>168.2998</ele>
        <time>2026-05-13T15:40:03+02:00</time>
      </trkpt>
      <trkpt lat="46.36849" lon="4.85753">
        <ele>168.2002</ele>
        <time>2026-05-13T15:40:04+02:00</time>
      </trkpt>
      <trkpt lat="46.36854" lon="4.85757">
        <ele>168.2998</ele>
        <time>2026-05-13T15:40:05+02:00</time>
      </trkpt>
      <trkpt lat="46.36858" lon="4.8576">
        <ele>168.40039</ele>
        <time>2026-05-13T15:40:06+02:00</time>
      </trkpt>
      <trkpt lat="46.36863" lon="4.85764">
        <ele>168.90039</ele>
        <time>2026-05-13T15:40:07+02:00</time>
      </trkpt>
      <trkpt lat="46.36867" lon="4.85767">
        <ele>169.2998</ele>
        <time>2026-05-13T15:40:08+02:00</time>
      </trkpt>
      <trkpt lat="46.36872" lon="4.85771">
        <ele>168.7998</ele>
        <time>2026-05-13T15:40:09+02:00</time>
      </trkpt>
      <trkpt lat="46.36876" lon="4.85774">
        <ele>168.90039</ele>
        <time>2026-05-13T15:40:10+02:00</time>
      </trkpt>
      <trkpt lat="46.36881" lon="4.85777">
        <ele>168.40039</ele>
        <time>2026-05-13T15:40:11+02:00</time>
      </trkpt>
      <trkpt lat="46.36886" lon="4.8578">
        <ele>168.2002</ele>
        <time>2026-05-13T15:40:12+02:00</time>
      </trkpt>
      <trkpt lat="46.36891" lon="4.85783">
        <ele>168</ele>
        <time>2026-05-13T15:40:13+02:00</time>
      </trkpt>
      <trkpt lat="46.36895" lon="4.85786">
        <ele>167.60059</ele>
        <time>2026-05-13T15:40:14+02:00</time>
      </trkpt>
      <trkpt lat="46.369" lon="4.85789">
        <ele>167.40039</ele>
        <time>2026-05-13T15:40:15+02:00</time>
      </trkpt>
      <trkpt lat="46.36905" lon="4.85792">
        <ele>167.2002</ele>
        <time>2026-05-13T15:40:16+02:00</time>
      </trkpt>
      <trkpt lat="46.3691" lon="4.85795">
        <ele>167.2002</ele>
        <time>2026-05-13T15:40:17+02:00</time>
      </trkpt>
      <trkpt lat="46.36915" lon="4.85798">
        <ele>167.2998</ele>
        <time>2026-05-13T15:40:18+02:00</time>
      </trkpt>
      <trkpt lat="46.3692" lon="4.85801">
        <ele>167.40039</ele>
        <time>2026-05-13T15:40:19+02:00</time>
      </trkpt>
      <trkpt lat="46.36924" lon="4.85805">
        <ele>167.60059</ele>
        <time>2026-05-13T15:40:20+02:00</time>
      </trkpt>
      <trkpt lat="46.36929" lon="4.85809">
        <ele>167.5</ele>
        <time>2026-05-13T15:40:21+02:00</time>
      </trkpt>
      <trkpt lat="46.36934" lon="4.85813">
        <ele>167</ele>
        <time>2026-05-13T15:40:22+02:00</time>
      </trkpt>
      <trkpt lat="46.36938" lon="4.85817">
        <ele>166.7998</ele>
        <time>2026-05-13T15:40:23+02:00</time>
      </trkpt>
      <trkpt lat="46.36943" lon="4.85821">
        <ele>166.7998</ele>
        <time>2026-05-13T15:40:24+02:00</time>
      </trkpt>
      <trkpt lat="46.36948" lon="4.85825">
        <ele>166.90039</ele>
        <time>2026-05-13T15:40:25+02:00</time>
      </trkpt>
      <trkpt lat="46.36953" lon="4.85829">
        <ele>167.2998</ele>
        <time>2026-05-13T15:40:26+02:00</time>
      </trkpt>
      <trkpt lat="46.36958" lon="4.85833">
        <ele>167.60059</ele>
        <time>2026-05-13T15:40:27+02:00</time>
      </trkpt>
      <trkpt lat="46.36963" lon="4.85838">
        <ele>167.10059</ele>
        <time>2026-05-13T15:40:28+02:00</time>
      </trkpt>
      <trkpt lat="46.36969" lon="4.85842">
        <ele>167</ele>
        <time>2026-05-13T15:40:29+02:00</time>
      </trkpt>
      <trkpt lat="46.36974" lon="4.85846">
        <ele>166.5</ele>
        <time>2026-05-13T15:40:30+02:00</time>
      </trkpt>
      <trkpt lat="46.3698" lon="4.8585">
        <ele>166.5</ele>
        <time>2026-05-13T15:40:31+02:00</time>
      </trkpt>
      <trkpt lat="46.36986" lon="4.85854">
        <ele>166.7002</ele>
        <time>2026-05-13T15:40:32+02:00</time>
      </trkpt>
      <trkpt lat="46.36991" lon="4.85858">
        <ele>166.7998</ele>
        <time>2026-05-13T15:40:33+02:00</time>
      </trkpt>
      <trkpt lat="46.36997" lon="4.85862">
        <ele>166.90039</ele>
        <time>2026-05-13T15:40:34+02:00</time>
      </trkpt>
      <trkpt lat="46.37002" lon="4.85866">
        <ele>166.90039</ele>
        <time>2026-05-13T15:40:35+02:00</time>
      </trkpt>
      <trkpt lat="46.37008" lon="4.8587">
        <ele>167</ele>
        <time>2026-05-13T15:40:36+02:00</time>
      </trkpt>
      <trkpt lat="46.37013" lon="4.85874">
        <ele>166.7998</ele>
        <time>2026-05-13T15:40:37+02:00</time>
      </trkpt>
      <trkpt lat="46.37019" lon="4.85878">
        <ele>166.7998</ele>
        <time>2026-05-13T15:40:38+02:00</time>
      </trkpt>
      <trkpt lat="46.37023" lon="4.85882">
        <ele>166.7002</ele>
        <time>2026-05-13T15:40:39+02:00</time>
      </trkpt>
      <trkpt lat="46.37028" lon="4.85886">
        <ele>166.60059</ele>
        <time>2026-05-13T15:40:40+02:00</time>
      </trkpt>
      <trkpt lat="46.37032" lon="4.8589">
        <ele>166.90039</ele>
        <time>2026-05-13T15:40:41+02:00</time>
      </trkpt>
      <trkpt lat="46.37037" lon="4.85893">
        <ele>166.90039</ele>
        <time>2026-05-13T15:40:42+02:00</time>
      </trkpt>
      <trkpt lat="46.37041" lon="4.85897">
        <ele>166.90039</ele>
        <time>2026-05-13T15:40:43+02:00</time>
      </trkpt>
      <trkpt lat="46.37046" lon="4.85901">
        <ele>166.7998</ele>
        <time>2026-05-13T15:40:44+02:00</time>
      </trkpt>
      <trkpt lat="46.37051" lon="4.85905">
        <ele>166.60059</ele>
        <time>2026-05-13T15:40:45+02:00</time>
      </trkpt>
      <trkpt lat="46.37056" lon="4.85909">
        <ele>166.60059</ele>
        <time>2026-05-13T15:40:46+02:00</time>
      </trkpt>
      <trkpt lat="46.37061" lon="4.85913">
        <ele>166.5</ele>
        <time>2026-05-13T15:40:47+02:00</time>
      </trkpt>
      <trkpt lat="46.37066" lon="4.85917">
        <ele>166.7998</ele>
        <time>2026-05-13T15:40:48+02:00</time>
      </trkpt>
      <trkpt lat="46.37072" lon="4.85921">
        <ele>167</ele>
        <time>2026-05-13T15:40:49+02:00</time>
      </trkpt>
      <trkpt lat="46.37077" lon="4.85925">
        <ele>166.90039</ele>
        <time>2026-05-13T15:40:50+02:00</time>
      </trkpt>
      <trkpt lat="46.37082" lon="4.85929">
        <ele>166.90039</ele>
        <time>2026-05-13T15:40:51+02:00</time>
      </trkpt>
      <trkpt lat="46.37087" lon="4.85933">
        <ele>166.60059</ele>
        <time>2026-05-13T15:40:52+02:00</time>
      </trkpt>
      <trkpt lat="46.37092" lon="4.85937">
        <ele>166.5</ele>
        <time>2026-05-13T15:40:53+02:00</time>
      </trkpt>
      <trkpt lat="46.37096" lon="4.85941">
        <ele>166.7002</ele>
        <time>2026-05-13T15:40:54+02:00</time>
      </trkpt>
      <trkpt lat="46.37101" lon="4.85946">
        <ele>166.7002</ele>
        <time>2026-05-13T15:40:55+02:00</time>
      </trkpt>
      <trkpt lat="46.37105" lon="4.8595">
        <ele>166.90039</ele>
        <time>2026-05-13T15:40:56+02:00</time>
      </trkpt>
      <trkpt lat="46.3711" lon="4.85954">
        <ele>166.90039</ele>
        <time>2026-05-13T15:40:57+02:00</time>
      </trkpt>
      <trkpt lat="46.37114" lon="4.85957">
        <ele>166.90039</ele>
        <time>2026-05-13T15:40:58+02:00</time>
      </trkpt>
      <trkpt lat="46.37119" lon="4.85961">
        <ele>166.7002</ele>
        <time>2026-05-13T15:40:59+02:00</time>
      </trkpt>
      <trkpt lat="46.37124" lon="4.85965">
        <ele>166.60059</ele>
        <time>2026-05-13T15:41:00+02:00</time>
      </trkpt>
      <trkpt lat="46.37129" lon="4.8597">
        <ele>166.5</ele>
        <time>2026-05-13T15:41:01+02:00</time>
      </trkpt>
      <trkpt lat="46.37133" lon="4.85974">
        <ele>166.7998</ele>
        <time>2026-05-13T15:41:02+02:00</time>
      </trkpt>
      <trkpt lat="46.37138" lon="4.85978">
        <ele>166.7998</ele>
        <time>2026-05-13T15:41:03+02:00</time>
      </trkpt>
      <trkpt lat="46.37142" lon="4.85983">
        <ele>166.7002</ele>
        <time>2026-05-13T15:41:04+02:00</time>
      </trkpt>
      <trkpt lat="46.37147" lon="4.85987">
        <ele>166.5</ele>
        <time>2026-05-13T15:41:05+02:00</time>
      </trkpt>
      <trkpt lat="46.37151" lon="4.8599">
        <ele>166.5</ele>
        <time>2026-05-13T15:41:06+02:00</time>
      </trkpt>
      <trkpt lat="46.37156" lon="4.85995">
        <ele>166.40039</ele>
        <time>2026-05-13T15:41:07+02:00</time>
      </trkpt>
      <trkpt lat="46.3716" lon="4.85999">
        <ele>166.7002</ele>
        <time>2026-05-13T15:41:08+02:00</time>
      </trkpt>
      <trkpt lat="46.37165" lon="4.86003">
        <ele>167.10059</ele>
        <time>2026-05-13T15:41:09+02:00</time>
      </trkpt>
      <trkpt lat="46.37169" lon="4.86007">
        <ele>167.60059</ele>
        <time>2026-05-13T15:41:10+02:00</time>
      </trkpt>
      <trkpt lat="46.37174" lon="4.86012">
        <ele>167</ele>
        <time>2026-05-13T15:41:11+02:00</time>
      </trkpt>
      <trkpt lat="46.37178" lon="4.86017">
        <ele>166.7002</ele>
        <time>2026-05-13T15:41:12+02:00</time>
      </trkpt>
      <trkpt lat="46.37183" lon="4.86021">
        <ele>166.60059</ele>
        <time>2026-05-13T15:41:13+02:00</time>
      </trkpt>
      <trkpt lat="46.37187" lon="4.86025">
        <ele>166.60059</ele>
        <time>2026-05-13T15:41:14+02:00</time>
      </trkpt>
      <trkpt lat="46.37191" lon="4.8603">
        <ele>166.60059</ele>
        <time>2026-05-13T15:41:15+02:00</time>
      </trkpt>
      <trkpt lat="46.37195" lon="4.86034">
        <ele>166.90039</ele>
        <time>2026-05-13T15:41:16+02:00</time>
      </trkpt>
      <trkpt lat="46.37199" lon="4.86039">
        <ele>166.90039</ele>
        <time>2026-05-13T15:41:17+02:00</time>
      </trkpt>
      <trkpt lat="46.37203" lon="4.86043">
        <ele>167</ele>
        <time>2026-05-13T15:41:18+02:00</time>
      </trkpt>
      <trkpt lat="46.37207" lon="4.86048">
        <ele>166.90039</ele>
        <time>2026-05-13T15:41:19+02:00</time>
      </trkpt>
      <trkpt lat="46.37212" lon="4.86052">
        <ele>166.90039</ele>
        <time>2026-05-13T15:41:20+02:00</time>
      </trkpt>
      <trkpt lat="46.37216" lon="4.86056">
        <ele>166.7998</ele>
        <time>2026-05-13T15:41:21+02:00</time>
      </trkpt>
      <trkpt lat="46.37221" lon="4.8606">
        <ele>166.90039</ele>
        <time>2026-05-13T15:41:22+02:00</time>
      </trkpt>
      <trkpt lat="46.37225" lon="4.86065">
        <ele>166.90039</ele>
        <time>2026-05-13T15:41:23+02:00</time>
      </trkpt>
      <trkpt lat="46.3723" lon="4.86069">
        <ele>166.90039</ele>
        <time>2026-05-13T15:41:24+02:00</time>
      </trkpt>
      <trkpt lat="46.37235" lon="4.86073">
        <ele>167</ele>
        <time>2026-05-13T15:41:25+02:00</time>
      </trkpt>
      <trkpt lat="46.37241" lon="4.86077">
        <ele>166.90039</ele>
        <time>2026-05-13T15:41:26+02:00</time>
      </trkpt>
      <trkpt lat="46.37246" lon="4.86081">
        <ele>166.90039</ele>
        <time>2026-05-13T15:41:27+02:00</time>
      </trkpt>
      <trkpt lat="46.37251" lon="4.86085">
        <ele>166.90039</ele>
        <time>2026-05-13T15:41:28+02:00</time>
      </trkpt>
      <trkpt lat="46.37256" lon="4.86089">
        <ele>166.7998</ele>
        <time>2026-05-13T15:41:29+02:00</time>
      </trkpt>
      <trkpt lat="46.37262" lon="4.86093">
        <ele>166.7998</ele>
        <time>2026-05-13T15:41:30+02:00</time>
      </trkpt>
      <trkpt lat="46.37267" lon="4.86098">
        <ele>166.90039</ele>
        <time>2026-05-13T15:41:31+02:00</time>
      </trkpt>
      <trkpt lat="46.37272" lon="4.86102">
        <ele>166.90039</ele>
        <time>2026-05-13T15:41:32+02:00</time>
      </trkpt>
      <trkpt lat="46.37277" lon="4.86107">
        <ele>166.90039</ele>
        <time>2026-05-13T15:41:33+02:00</time>
      </trkpt>
      <trkpt lat="46.37282" lon="4.86112">
        <ele>166.7002</ele>
        <time>2026-05-13T15:41:34+02:00</time>
      </trkpt>
      <trkpt lat="46.37288" lon="4.86116">
        <ele>166.5</ele>
        <time>2026-05-13T15:41:35+02:00</time>
      </trkpt>
      <trkpt lat="46.37293" lon="4.86121">
        <ele>166.7998</ele>
        <time>2026-05-13T15:41:36+02:00</time>
      </trkpt>
      <trkpt lat="46.37298" lon="4.86126">
        <ele>166.7998</ele>
        <time>2026-05-13T15:41:37+02:00</time>
      </trkpt>
      <trkpt lat="46.37303" lon="4.86131">
        <ele>166.90039</ele>
        <time>2026-05-13T15:41:38+02:00</time>
      </trkpt>
      <trkpt lat="46.37307" lon="4.86136">
        <ele>166.60059</ele>
        <time>2026-05-13T15:41:39+02:00</time>
      </trkpt>
      <trkpt lat="46.37311" lon="4.86141">
        <ele>166.2002</ele>
        <time>2026-05-13T15:41:40+02:00</time>
      </trkpt>
      <trkpt lat="46.37316" lon="4.86145">
        <ele>166.5</ele>
        <time>2026-05-13T15:41:41+02:00</time>
      </trkpt>
      <trkpt lat="46.3732" lon="4.8615">
        <ele>166.5</ele>
        <time>2026-05-13T15:41:42+02:00</time>
      </trkpt>
      <trkpt lat="46.37325" lon="4.86155">
        <ele>166.90039</ele>
        <time>2026-05-13T15:41:43+02:00</time>
      </trkpt>
      <trkpt lat="46.3733" lon="4.8616">
        <ele>166.60059</ele>
        <time>2026-05-13T15:41:44+02:00</time>
      </trkpt>
      <trkpt lat="46.37334" lon="4.86165">
        <ele>166.5</ele>
        <time>2026-05-13T15:41:45+02:00</time>
      </trkpt>
      <trkpt lat="46.37338" lon="4.8617">
        <ele>166.2002</ele>
        <time>2026-05-13T15:41:46+02:00</time>
      </trkpt>
      <trkpt lat="46.37343" lon="4.86175">
        <ele>166.2002</ele>
        <time>2026-05-13T15:41:47+02:00</time>
      </trkpt>
      <trkpt lat="46.37347" lon="4.86179">
        <ele>166.60059</ele>
        <time>2026-05-13T15:41:48+02:00</time>
      </trkpt>
      <trkpt lat="46.37351" lon="4.86184">
        <ele>166.7998</ele>
        <time>2026-05-13T15:41:49+02:00</time>
      </trkpt>
      <trkpt lat="46.37356" lon="4.86189">
        <ele>167</ele>
        <time>2026-05-13T15:41:50+02:00</time>
      </trkpt>
      <trkpt lat="46.3736" lon="4.86194">
        <ele>166.90039</ele>
        <time>2026-05-13T15:41:51+02:00</time>
      </trkpt>
      <trkpt lat="46.37365" lon="4.86198">
        <ele>166.5</ele>
        <time>2026-05-13T15:41:52+02:00</time>
      </trkpt>
      <trkpt lat="46.37369" lon="4.86203">
        <ele>166.5</ele>
        <time>2026-05-13T15:41:53+02:00</time>
      </trkpt>
      <trkpt lat="46.37374" lon="4.86207">
        <ele>166.60059</ele>
        <time>2026-05-13T15:41:54+02:00</time>
      </trkpt>
      <trkpt lat="46.37378" lon="4.86212">
        <ele>166.5</ele>
        <time>2026-05-13T15:41:55+02:00</time>
      </trkpt>
      <trkpt lat="46.37383" lon="4.86217">
        <ele>166.90039</ele>
        <time>2026-05-13T15:41:56+02:00</time>
      </trkpt>
      <trkpt lat="46.37388" lon="4.86221">
        <ele>166.90039</ele>
        <time>2026-05-13T15:41:57+02:00</time>
      </trkpt>
      <trkpt lat="46.37393" lon="4.86226">
        <ele>167</ele>
        <time>2026-05-13T15:41:58+02:00</time>
      </trkpt>
      <trkpt lat="46.37398" lon="4.8623">
        <ele>166.90039</ele>
        <time>2026-05-13T15:41:59+02:00</time>
      </trkpt>
      <trkpt lat="46.37402" lon="4.86234">
        <ele>166.7002</ele>
        <time>2026-05-13T15:42:00+02:00</time>
      </trkpt>
      <trkpt lat="46.37407" lon="4.86238">
        <ele>166.40039</ele>
        <time>2026-05-13T15:42:01+02:00</time>
      </trkpt>
      <trkpt lat="46.37412" lon="4.86242">
        <ele>166.7998</ele>
        <time>2026-05-13T15:42:02+02:00</time>
      </trkpt>
      <trkpt lat="46.37417" lon="4.86247">
        <ele>166.7998</ele>
        <time>2026-05-13T15:42:03+02:00</time>
      </trkpt>
      <trkpt lat="46.37421" lon="4.86251">
        <ele>167</ele>
        <time>2026-05-13T15:42:04+02:00</time>
      </trkpt>
      <trkpt lat="46.37426" lon="4.86255">
        <ele>166.7002</ele>
        <time>2026-05-13T15:42:05+02:00</time>
      </trkpt>
      <trkpt lat="46.37431" lon="4.86259">
        <ele>166.2998</ele>
        <time>2026-05-13T15:42:06+02:00</time>
      </trkpt>
      <trkpt lat="46.37436" lon="4.86263">
        <ele>166.2998</ele>
        <time>2026-05-13T15:42:07+02:00</time>
      </trkpt>
      <trkpt lat="46.37441" lon="4.86267">
        <ele>166.7002</ele>
        <time>2026-05-13T15:42:08+02:00</time>
      </trkpt>
      <trkpt lat="46.37446" lon="4.86271">
        <ele>166.90039</ele>
        <time>2026-05-13T15:42:09+02:00</time>
      </trkpt>
      <trkpt lat="46.37451" lon="4.86274">
        <ele>167.10059</ele>
        <time>2026-05-13T15:42:10+02:00</time>
      </trkpt>
      <trkpt lat="46.37455" lon="4.86278">
        <ele>167.10059</ele>
        <time>2026-05-13T15:42:11+02:00</time>
      </trkpt>
      <trkpt lat="46.3746" lon="4.86282">
        <ele>167.2998</ele>
        <time>2026-05-13T15:42:12+02:00</time>
      </trkpt>
      <trkpt lat="46.37464" lon="4.86286">
        <ele>166.90039</ele>
        <time>2026-05-13T15:42:13+02:00</time>
      </trkpt>
      <trkpt lat="46.37469" lon="4.8629">
        <ele>167.2998</ele>
        <time>2026-05-13T15:42:14+02:00</time>
      </trkpt>
      <trkpt lat="46.37474" lon="4.86295">
        <ele>167.90039</ele>
        <time>2026-05-13T15:42:15+02:00</time>
      </trkpt>
      <trkpt lat="46.37479" lon="4.86299">
        <ele>168.7998</ele>
        <time>2026-05-13T15:42:16+02:00</time>
      </trkpt>
      <trkpt lat="46.37484" lon="4.86304">
        <ele>168.10059</ele>
        <time>2026-05-13T15:42:17+02:00</time>
      </trkpt>
      <trkpt lat="46.37488" lon="4.86309">
        <ele>167.7002</ele>
        <time>2026-05-13T15:42:18+02:00</time>
      </trkpt>
      <trkpt lat="46.37493" lon="4.86314">
        <ele>167.60059</ele>
        <time>2026-05-13T15:42:19+02:00</time>
      </trkpt>
      <trkpt lat="46.37498" lon="4.86319">
        <ele>167.40039</ele>
        <time>2026-05-13T15:42:20+02:00</time>
      </trkpt>
      <trkpt lat="46.37503" lon="4.86324">
        <ele>167.2998</ele>
        <time>2026-05-13T15:42:21+02:00</time>
      </trkpt>
      <trkpt lat="46.37508" lon="4.86328">
        <ele>167.7002</ele>
        <time>2026-05-13T15:42:22+02:00</time>
      </trkpt>
      <trkpt lat="46.37513" lon="4.86333">
        <ele>167.7002</ele>
        <time>2026-05-13T15:42:23+02:00</time>
      </trkpt>
      <trkpt lat="46.37519" lon="4.86337">
        <ele>167.7002</ele>
        <time>2026-05-13T15:42:24+02:00</time>
      </trkpt>
      <trkpt lat="46.37525" lon="4.8634">
        <ele>167.7002</ele>
        <time>2026-05-13T15:42:25+02:00</time>
      </trkpt>
      <trkpt lat="46.3753" lon="4.86343">
        <ele>167.7998</ele>
        <time>2026-05-13T15:42:26+02:00</time>
      </trkpt>
      <trkpt lat="46.37535" lon="4.86347">
        <ele>167.7998</ele>
        <time>2026-05-13T15:42:27+02:00</time>
      </trkpt>
      <trkpt lat="46.37541" lon="4.8635">
        <ele>168.2998</ele>
        <time>2026-05-13T15:42:28+02:00</time>
      </trkpt>
      <trkpt lat="46.37546" lon="4.86354">
        <ele>168.7002</ele>
        <time>2026-05-13T15:42:29+02:00</time>
      </trkpt>
      <trkpt lat="46.3755" lon="4.86359">
        <ele>169.40039</ele>
        <time>2026-05-13T15:42:30+02:00</time>
      </trkpt>
      <trkpt lat="46.37555" lon="4.86363">
        <ele>168.5</ele>
        <time>2026-05-13T15:42:31+02:00</time>
      </trkpt>
      <trkpt lat="46.3756" lon="4.86369">
        <ele>168.40039</ele>
        <time>2026-05-13T15:42:32+02:00</time>
      </trkpt>
      <trkpt lat="46.37564" lon="4.86374">
        <ele>168.40039</ele>
        <time>2026-05-13T15:42:33+02:00</time>
      </trkpt>
      <trkpt lat="46.37568" lon="4.86379">
        <ele>169</ele>
        <time>2026-05-13T15:42:34+02:00</time>
      </trkpt>
      <trkpt lat="46.37573" lon="4.86385">
        <ele>170</ele>
        <time>2026-05-13T15:42:35+02:00</time>
      </trkpt>
      <trkpt lat="46.37578" lon="4.8639">
        <ele>169.10059</ele>
        <time>2026-05-13T15:42:36+02:00</time>
      </trkpt>
      <trkpt lat="46.37583" lon="4.86394">
        <ele>168.40039</ele>
        <time>2026-05-13T15:42:37+02:00</time>
      </trkpt>
      <trkpt lat="46.37588" lon="4.86399">
        <ele>168.40039</ele>
        <time>2026-05-13T15:42:38+02:00</time>
      </trkpt>
      <trkpt lat="46.37593" lon="4.86403">
        <ele>168</ele>
        <time>2026-05-13T15:42:39+02:00</time>
      </trkpt>
      <trkpt lat="46.37599" lon="4.86407">
        <ele>168</ele>
        <time>2026-05-13T15:42:40+02:00</time>
      </trkpt>
      <trkpt lat="46.37604" lon="4.86412">
        <ele>168.2002</ele>
        <time>2026-05-13T15:42:41+02:00</time>
      </trkpt>
      <trkpt lat="46.37609" lon="4.86416">
        <ele>168.2998</ele>
        <time>2026-05-13T15:42:42+02:00</time>
      </trkpt>
      <trkpt lat="46.37614" lon="4.86421">
        <ele>168.2998</ele>
        <time>2026-05-13T15:42:43+02:00</time>
      </trkpt>
      <trkpt lat="46.37619" lon="4.86426">
        <ele>168.2998</ele>
        <time>2026-05-13T15:42:44+02:00</time>
      </trkpt>
      <trkpt lat="46.37623" lon="4.86431">
        <ele>168.2002</ele>
        <time>2026-05-13T15:42:45+02:00</time>
      </trkpt>
      <trkpt lat="46.37628" lon="4.86436">
        <ele>168.2002</ele>
        <time>2026-05-13T15:42:46+02:00</time>
      </trkpt>
      <trkpt lat="46.37632" lon="4.86442">
        <ele>168.2998</ele>
        <time>2026-05-13T15:42:47+02:00</time>
      </trkpt>
      <trkpt lat="46.37637" lon="4.86448">
        <ele>168.2998</ele>
        <time>2026-05-13T15:42:48+02:00</time>
      </trkpt>
      <trkpt lat="46.37641" lon="4.86453">
        <ele>168.2998</ele>
        <time>2026-05-13T15:42:49+02:00</time>
      </trkpt>
      <trkpt lat="46.37646" lon="4.86458">
        <ele>168.2002</ele>
        <time>2026-05-13T15:42:50+02:00</time>
      </trkpt>
      <trkpt lat="46.37651" lon="4.86462">
        <ele>168.2998</ele>
        <time>2026-05-13T15:42:51+02:00</time>
      </trkpt>
      <trkpt lat="46.37656" lon="4.86466">
        <ele>168.40039</ele>
        <time>2026-05-13T15:42:52+02:00</time>
      </trkpt>
      <trkpt lat="46.37661" lon="4.8647">
        <ele>168.90039</ele>
        <time>2026-05-13T15:42:53+02:00</time>
      </trkpt>
      <trkpt lat="46.37666" lon="4.86474">
        <ele>168.60059</ele>
        <time>2026-05-13T15:42:54+02:00</time>
      </trkpt>
      <trkpt lat="46.37672" lon="4.86478">
        <ele>168.90039</ele>
        <time>2026-05-13T15:42:55+02:00</time>
      </trkpt>
      <trkpt lat="46.37677" lon="4.86482">
        <ele>168.5</ele>
        <time>2026-05-13T15:42:56+02:00</time>
      </trkpt>
      <trkpt lat="46.37682" lon="4.86486">
        <ele>168.40039</ele>
        <time>2026-05-13T15:42:57+02:00</time>
      </trkpt>
      <trkpt lat="46.37687" lon="4.86489">
        <ele>168.10059</ele>
        <time>2026-05-13T15:42:58+02:00</time>
      </trkpt>
      <trkpt lat="46.37692" lon="4.86493">
        <ele>168.10059</ele>
        <time>2026-05-13T15:42:59+02:00</time>
      </trkpt>
      <trkpt lat="46.37697" lon="4.86496">
        <ele>168.2002</ele>
        <time>2026-05-13T15:43:00+02:00</time>
      </trkpt>
      <trkpt lat="46.37701" lon="4.865">
        <ele>168.2002</ele>
        <time>2026-05-13T15:43:01+02:00</time>
      </trkpt>
      <trkpt lat="46.37706" lon="4.86504">
        <ele>168.2998</ele>
        <time>2026-05-13T15:43:02+02:00</time>
      </trkpt>
      <trkpt lat="46.37711" lon="4.86508">
        <ele>168.40039</ele>
        <time>2026-05-13T15:43:03+02:00</time>
      </trkpt>
      <trkpt lat="46.37716" lon="4.86512">
        <ele>168.40039</ele>
        <time>2026-05-13T15:43:04+02:00</time>
      </trkpt>
      <trkpt lat="46.37721" lon="4.86515">
        <ele>168.2998</ele>
        <time>2026-05-13T15:43:05+02:00</time>
      </trkpt>
      <trkpt lat="46.37726" lon="4.86519">
        <ele>168.40039</ele>
        <time>2026-05-13T15:43:06+02:00</time>
      </trkpt>
      <trkpt lat="46.37731" lon="4.86523">
        <ele>168.2998</ele>
        <time>2026-05-13T15:43:07+02:00</time>
      </trkpt>
      <trkpt lat="46.37735" lon="4.86527">
        <ele>168.40039</ele>
        <time>2026-05-13T15:43:08+02:00</time>
      </trkpt>
      <trkpt lat="46.3774" lon="4.8653">
        <ele>168.60059</ele>
        <time>2026-05-13T15:43:09+02:00</time>
      </trkpt>
      <trkpt lat="46.37745" lon="4.86534">
        <ele>168.5</ele>
        <time>2026-05-13T15:43:10+02:00</time>
      </trkpt>
      <trkpt lat="46.37751" lon="4.86537">
        <ele>168.60059</ele>
        <time>2026-05-13T15:43:11+02:00</time>
      </trkpt>
      <trkpt lat="46.37756" lon="4.86541">
        <ele>168.5</ele>
        <time>2026-05-13T15:43:12+02:00</time>
      </trkpt>
      <trkpt lat="46.37761" lon="4.86545">
        <ele>168.5</ele>
        <time>2026-05-13T15:43:13+02:00</time>
      </trkpt>
      <trkpt lat="46.37766" lon="4.86549">
        <ele>168.40039</ele>
        <time>2026-05-13T15:43:14+02:00</time>
      </trkpt>
      <trkpt lat="46.37771" lon="4.86552">
        <ele>168.5</ele>
        <time>2026-05-13T15:43:15+02:00</time>
      </trkpt>
      <trkpt lat="46.37776" lon="4.86556">
        <ele>168.5</ele>
        <time>2026-05-13T15:43:16+02:00</time>
      </trkpt>
      <trkpt lat="46.37781" lon="4.86559">
        <ele>168.40039</ele>
        <time>2026-05-13T15:43:17+02:00</time>
      </trkpt>
      <trkpt lat="46.37786" lon="4.86563">
        <ele>168.5</ele>
        <time>2026-05-13T15:43:18+02:00</time>
      </trkpt>
      <trkpt lat="46.37791" lon="4.86567">
        <ele>168.40039</ele>
        <time>2026-05-13T15:43:19+02:00</time>
      </trkpt>
      <trkpt lat="46.37796" lon="4.86572">
        <ele>168.40039</ele>
        <time>2026-05-13T15:43:20+02:00</time>
      </trkpt>
      <trkpt lat="46.378" lon="4.86577">
        <ele>168.40039</ele>
        <time>2026-05-13T15:43:21+02:00</time>
      </trkpt>
      <trkpt lat="46.37805" lon="4.86581">
        <ele>168.2998</ele>
        <time>2026-05-13T15:43:22+02:00</time>
      </trkpt>
      <trkpt lat="46.37809" lon="4.86585">
        <ele>168.2998</ele>
        <time>2026-05-13T15:43:23+02:00</time>
      </trkpt>
      <trkpt lat="46.37814" lon="4.86589">
        <ele>168.2998</ele>
        <time>2026-05-13T15:43:24+02:00</time>
      </trkpt>
      <trkpt lat="46.37819" lon="4.86594">
        <ele>168.40039</ele>
        <time>2026-05-13T15:43:25+02:00</time>
      </trkpt>
      <trkpt lat="46.37823" lon="4.86598">
        <ele>168.40039</ele>
        <time>2026-05-13T15:43:26+02:00</time>
      </trkpt>
      <trkpt lat="46.37828" lon="4.86602">
        <ele>168.40039</ele>
        <time>2026-05-13T15:43:27+02:00</time>
      </trkpt>
      <trkpt lat="46.37833" lon="4.86606">
        <ele>168.40039</ele>
        <time>2026-05-13T15:43:28+02:00</time>
      </trkpt>
      <trkpt lat="46.37838" lon="4.86611">
        <ele>168.2998</ele>
        <time>2026-05-13T15:43:29+02:00</time>
      </trkpt>
      <trkpt lat="46.37843" lon="4.86615">
        <ele>168.2998</ele>
        <time>2026-05-13T15:43:30+02:00</time>
      </trkpt>
      <trkpt lat="46.37848" lon="4.86618">
        <ele>168.40039</ele>
        <time>2026-05-13T15:43:31+02:00</time>
      </trkpt>
      <trkpt lat="46.37853" lon="4.86622">
        <ele>168.5</ele>
        <time>2026-05-13T15:43:32+02:00</time>
      </trkpt>
      <trkpt lat="46.37858" lon="4.86626">
        <ele>168.5</ele>
        <time>2026-05-13T15:43:33+02:00</time>
      </trkpt>
      <trkpt lat="46.37863" lon="4.86629">
        <ele>168.7998</ele>
        <time>2026-05-13T15:43:34+02:00</time>
      </trkpt>
      <trkpt lat="46.37868" lon="4.86633">
        <ele>169.2998</ele>
        <time>2026-05-13T15:43:35+02:00</time>
      </trkpt>
      <trkpt lat="46.37874" lon="4.86636">
        <ele>169.7002</ele>
        <time>2026-05-13T15:43:36+02:00</time>
      </trkpt>
      <trkpt lat="46.37879" lon="4.8664">
        <ele>169.7002</ele>
        <time>2026-05-13T15:43:37+02:00</time>
      </trkpt>
      <trkpt lat="46.37884" lon="4.86644">
        <ele>169.40039</ele>
        <time>2026-05-13T15:43:38+02:00</time>
      </trkpt>
      <trkpt lat="46.37889" lon="4.86649">
        <ele>169.7002</ele>
        <time>2026-05-13T15:43:39+02:00</time>
      </trkpt>
      <trkpt lat="46.37893" lon="4.86654">
        <ele>169.2998</ele>
        <time>2026-05-13T15:43:40+02:00</time>
      </trkpt>
      <trkpt lat="46.37898" lon="4.86658">
        <ele>170.2998</ele>
        <time>2026-05-13T15:43:41+02:00</time>
      </trkpt>
      <trkpt lat="46.37903" lon="4.86663">
        <ele>169.7998</ele>
        <time>2026-05-13T15:43:42+02:00</time>
      </trkpt>
      <trkpt lat="46.37908" lon="4.86668">
        <ele>170.90039</ele>
        <time>2026-05-13T15:43:43+02:00</time>
      </trkpt>
      <trkpt lat="46.37912" lon="4.86673">
        <ele>170.2998</ele>
        <time>2026-05-13T15:43:44+02:00</time>
      </trkpt>
      <trkpt lat="46.37916" lon="4.86678">
        <ele>169.10059</ele>
        <time>2026-05-13T15:43:45+02:00</time>
      </trkpt>
      <trkpt lat="46.37921" lon="4.86683">
        <ele>168.7998</ele>
        <time>2026-05-13T15:43:46+02:00</time>
      </trkpt>
      <trkpt lat="46.37925" lon="4.86688">
        <ele>168.2002</ele>
        <time>2026-05-13T15:43:47+02:00</time>
      </trkpt>
      <trkpt lat="46.3793" lon="4.86692">
        <ele>168.2002</ele>
        <time>2026-05-13T15:43:48+02:00</time>
      </trkpt>
      <trkpt lat="46.37934" lon="4.86697">
        <ele>168.2998</ele>
        <time>2026-05-13T15:43:49+02:00</time>
      </trkpt>
      <trkpt lat="46.37939" lon="4.86702">
        <ele>168.7998</ele>
        <time>2026-05-13T15:43:50+02:00</time>
      </trkpt>
      <trkpt lat="46.37943" lon="4.86706">
        <ele>168.40039</ele>
        <time>2026-05-13T15:43:51+02:00</time>
      </trkpt>
      <trkpt lat="46.37948" lon="4.86711">
        <ele>168.7002</ele>
        <time>2026-05-13T15:43:52+02:00</time>
      </trkpt>
      <trkpt lat="46.37953" lon="4.86716">
        <ele>168.2998</ele>
        <time>2026-05-13T15:43:53+02:00</time>
      </trkpt>
      <trkpt lat="46.37958" lon="4.86721">
        <ele>168.2998</ele>
        <time>2026-05-13T15:43:54+02:00</time>
      </trkpt>
      <trkpt lat="46.37963" lon="4.86726">
        <ele>168.60059</ele>
        <time>2026-05-13T15:43:55+02:00</time>
      </trkpt>
      <trkpt lat="46.37967" lon="4.8673">
        <ele>168.2998</ele>
        <time>2026-05-13T15:43:56+02:00</time>
      </trkpt>
      <trkpt lat="46.37972" lon="4.86735">
        <ele>168.7002</ele>
        <time>2026-05-13T15:43:57+02:00</time>
      </trkpt>
      <trkpt lat="46.37977" lon="4.86739">
        <ele>168.60059</ele>
        <time>2026-05-13T15:43:58+02:00</time>
      </trkpt>
      <trkpt lat="46.37982" lon="4.86743">
        <ele>168.7998</ele>
        <time>2026-05-13T15:43:59+02:00</time>
      </trkpt>
      <trkpt lat="46.37986" lon="4.86747">
        <ele>168.5</ele>
        <time>2026-05-13T15:44:00+02:00</time>
      </trkpt>
      <trkpt lat="46.37991" lon="4.86752">
        <ele>168.5</ele>
        <time>2026-05-13T15:44:01+02:00</time>
      </trkpt>
      <trkpt lat="46.37995" lon="4.86756">
        <ele>168.5</ele>
        <time>2026-05-13T15:44:02+02:00</time>
      </trkpt>
      <trkpt lat="46.38" lon="4.86761">
        <ele>168.7998</ele>
        <time>2026-05-13T15:44:03+02:00</time>
      </trkpt>
      <trkpt lat="46.38005" lon="4.86765">
        <ele>168.7002</ele>
        <time>2026-05-13T15:44:04+02:00</time>
      </trkpt>
      <trkpt lat="46.38009" lon="4.86769">
        <ele>168.7002</ele>
        <time>2026-05-13T15:44:05+02:00</time>
      </trkpt>
      <trkpt lat="46.38014" lon="4.86772">
        <ele>168.5</ele>
        <time>2026-05-13T15:44:06+02:00</time>
      </trkpt>
      <trkpt lat="46.38019" lon="4.86776">
        <ele>168.5</ele>
        <time>2026-05-13T15:44:07+02:00</time>
      </trkpt>
      <trkpt lat="46.38023" lon="4.86779">
        <ele>168.7002</ele>
        <time>2026-05-13T15:44:08+02:00</time>
      </trkpt>
      <trkpt lat="46.38028" lon="4.86782">
        <ele>168.60059</ele>
        <time>2026-05-13T15:44:09+02:00</time>
      </trkpt>
      <trkpt lat="46.38033" lon="4.86786">
        <ele>168.60059</ele>
        <time>2026-05-13T15:44:10+02:00</time>
      </trkpt>
      <trkpt lat="46.38037" lon="4.8679">
        <ele>168.7002</ele>
        <time>2026-05-13T15:44:11+02:00</time>
      </trkpt>
      <trkpt lat="46.38042" lon="4.86794">
        <ele>169.2998</ele>
        <time>2026-05-13T15:44:12+02:00</time>
      </trkpt>
      <trkpt lat="46.38046" lon="4.86798">
        <ele>168.7002</ele>
        <time>2026-05-13T15:44:13+02:00</time>
      </trkpt>
      <trkpt lat="46.38051" lon="4.86802">
        <ele>168.7002</ele>
        <time>2026-05-13T15:44:14+02:00</time>
      </trkpt>
      <trkpt lat="46.38056" lon="4.86807">
        <ele>168.40039</ele>
        <time>2026-05-13T15:44:15+02:00</time>
      </trkpt>
      <trkpt lat="46.3806" lon="4.86811">
        <ele>169</ele>
        <time>2026-05-13T15:44:16+02:00</time>
      </trkpt>
      <trkpt lat="46.38064" lon="4.86815">
        <ele>169.5</ele>
        <time>2026-05-13T15:44:17+02:00</time>
      </trkpt>
      <trkpt lat="46.38069" lon="4.86819">
        <ele>170.40039</ele>
        <time>2026-05-13T15:44:18+02:00</time>
      </trkpt>
      <trkpt lat="46.38073" lon="4.86823">
        <ele>170.40039</ele>
        <time>2026-05-13T15:44:19+02:00</time>
      </trkpt>
      <trkpt lat="46.38077" lon="4.86827">
        <ele>169.5</ele>
        <time>2026-05-13T15:44:20+02:00</time>
      </trkpt>
      <trkpt lat="46.38081" lon="4.86832">
        <ele>169</ele>
        <time>2026-05-13T15:44:21+02:00</time>
      </trkpt>
      <trkpt lat="46.38085" lon="4.86836">
        <ele>169</ele>
        <time>2026-05-13T15:44:22+02:00</time>
      </trkpt>
      <trkpt lat="46.38089" lon="4.8684">
        <ele>170</ele>
        <time>2026-05-13T15:44:23+02:00</time>
      </trkpt>
      <trkpt lat="46.38093" lon="4.86844">
        <ele>170.2998</ele>
        <time>2026-05-13T15:44:24+02:00</time>
      </trkpt>
      <trkpt lat="46.38097" lon="4.86848">
        <ele>170.2998</ele>
        <time>2026-05-13T15:44:25+02:00</time>
      </trkpt>
      <trkpt lat="46.38101" lon="4.86853">
        <ele>169.7998</ele>
        <time>2026-05-13T15:44:26+02:00</time>
      </trkpt>
      <trkpt lat="46.38106" lon="4.86857">
        <ele>170.2002</ele>
        <time>2026-05-13T15:44:27+02:00</time>
      </trkpt>
      <trkpt lat="46.3811" lon="4.86862">
        <ele>169.2002</ele>
        <time>2026-05-13T15:44:28+02:00</time>
      </trkpt>
      <trkpt lat="46.38115" lon="4.86867">
        <ele>169.10059</ele>
        <time>2026-05-13T15:44:29+02:00</time>
      </trkpt>
      <trkpt lat="46.38119" lon="4.86872">
        <ele>169.7002</ele>
        <time>2026-05-13T15:44:30+02:00</time>
      </trkpt>
      <trkpt lat="46.38124" lon="4.86877">
        <ele>169.5</ele>
        <time>2026-05-13T15:44:31+02:00</time>
      </trkpt>
      <trkpt lat="46.38128" lon="4.86882">
        <ele>169.5</ele>
        <time>2026-05-13T15:44:32+02:00</time>
      </trkpt>
      <trkpt lat="46.38133" lon="4.86887">
        <ele>169.2998</ele>
        <time>2026-05-13T15:44:33+02:00</time>
      </trkpt>
      <trkpt lat="46.38137" lon="4.86892">
        <ele>169</ele>
        <time>2026-05-13T15:44:34+02:00</time>
      </trkpt>
      <trkpt lat="46.38142" lon="4.86896">
        <ele>169.5</ele>
        <time>2026-05-13T15:44:35+02:00</time>
      </trkpt>
      <trkpt lat="46.38146" lon="4.86901">
        <ele>169</ele>
        <time>2026-05-13T15:44:36+02:00</time>
      </trkpt>
      <trkpt lat="46.38151" lon="4.86906">
        <ele>169.40039</ele>
        <time>2026-05-13T15:44:37+02:00</time>
      </trkpt>
      <trkpt lat="46.38155" lon="4.86911">
        <ele>169.2002</ele>
        <time>2026-05-13T15:44:38+02:00</time>
      </trkpt>
      <trkpt lat="46.38159" lon="4.86916">
        <ele>169.7002</ele>
        <time>2026-05-13T15:44:39+02:00</time>
      </trkpt>
      <trkpt lat="46.38164" lon="4.86921">
        <ele>169.2002</ele>
        <time>2026-05-13T15:44:40+02:00</time>
      </trkpt>
      <trkpt lat="46.38168" lon="4.86926">
        <ele>169.2002</ele>
        <time>2026-05-13T15:44:41+02:00</time>
      </trkpt>
      <trkpt lat="46.38173" lon="4.86931">
        <ele>168.90039</ele>
        <time>2026-05-13T15:44:42+02:00</time>
      </trkpt>
      <trkpt lat="46.38178" lon="4.86936">
        <ele>168.90039</ele>
        <time>2026-05-13T15:44:43+02:00</time>
      </trkpt>
      <trkpt lat="46.38182" lon="4.8694">
        <ele>169.2998</ele>
        <time>2026-05-13T15:44:44+02:00</time>
      </trkpt>
      <trkpt lat="46.38186" lon="4.86945">
        <ele>168.7998</ele>
        <time>2026-05-13T15:44:45+02:00</time>
      </trkpt>
      <trkpt lat="46.38191" lon="4.8695">
        <ele>169</ele>
        <time>2026-05-13T15:44:46+02:00</time>
      </trkpt>
      <trkpt lat="46.38194" lon="4.86954">
        <ele>168.60059</ele>
        <time>2026-05-13T15:44:47+02:00</time>
      </trkpt>
      <trkpt lat="46.38199" lon="4.8696">
        <ele>168.60059</ele>
        <time>2026-05-13T15:44:48+02:00</time>
      </trkpt>
      <trkpt lat="46.38202" lon="4.86966">
        <ele>168.60059</ele>
        <time>2026-05-13T15:44:49+02:00</time>
      </trkpt>
      <trkpt lat="46.38207" lon="4.86972">
        <ele>168.5</ele>
        <time>2026-05-13T15:44:50+02:00</time>
      </trkpt>
      <trkpt lat="46.38212" lon="4.86978">
        <ele>168.40039</ele>
        <time>2026-05-13T15:44:51+02:00</time>
      </trkpt>
      <trkpt lat="46.38217" lon="4.86983">
        <ele>168.60059</ele>
        <time>2026-05-13T15:44:52+02:00</time>
      </trkpt>
      <trkpt lat="46.38221" lon="4.86989">
        <ele>168.40039</ele>
        <time>2026-05-13T15:44:53+02:00</time>
      </trkpt>
      <trkpt lat="46.38226" lon="4.86994">
        <ele>168.7998</ele>
        <time>2026-05-13T15:44:54+02:00</time>
      </trkpt>
      <trkpt lat="46.38231" lon="4.86999">
        <ele>169.10059</ele>
        <time>2026-05-13T15:44:55+02:00</time>
      </trkpt>
      <trkpt lat="46.38236" lon="4.87004">
        <ele>169</ele>
        <time>2026-05-13T15:44:56+02:00</time>
      </trkpt>
      <trkpt lat="46.38241" lon="4.87009">
        <ele>169.2998</ele>
        <time>2026-05-13T15:44:57+02:00</time>
      </trkpt>
      <trkpt lat="46.38246" lon="4.87014">
        <ele>168.7002</ele>
        <time>2026-05-13T15:44:58+02:00</time>
      </trkpt>
      <trkpt lat="46.38252" lon="4.87018">
        <ele>169.10059</ele>
        <time>2026-05-13T15:44:59+02:00</time>
      </trkpt>
      <trkpt lat="46.38257" lon="4.87023">
        <ele>169.40039</ele>
        <time>2026-05-13T15:45:00+02:00</time>
      </trkpt>
      <trkpt lat="46.38262" lon="4.87028">
        <ele>170.10059</ele>
        <time>2026-05-13T15:45:01+02:00</time>
      </trkpt>
      <trkpt lat="46.38267" lon="4.87032">
        <ele>169.7002</ele>
        <time>2026-05-13T15:45:02+02:00</time>
      </trkpt>
      <trkpt lat="46.38271" lon="4.87036">
        <ele>170.2002</ele>
        <time>2026-05-13T15:45:03+02:00</time>
      </trkpt>
      <trkpt lat="46.38276" lon="4.87041">
        <ele>169.40039</ele>
        <time>2026-05-13T15:45:04+02:00</time>
      </trkpt>
      <trkpt lat="46.38282" lon="4.87045">
        <ele>170.2002</ele>
        <time>2026-05-13T15:45:05+02:00</time>
      </trkpt>
      <trkpt lat="46.38287" lon="4.87049">
        <ele>170.7002</ele>
        <time>2026-05-13T15:45:06+02:00</time>
      </trkpt>
      <trkpt lat="46.38292" lon="4.87053">
        <ele>171.40039</ele>
        <time>2026-05-13T15:45:07+02:00</time>
      </trkpt>
      <trkpt lat="46.38297" lon="4.87057">
        <ele>170.90039</ele>
        <time>2026-05-13T15:45:08+02:00</time>
      </trkpt>
      <trkpt lat="46.38302" lon="4.87061">
        <ele>171.2002</ele>
        <time>2026-05-13T15:45:09+02:00</time>
      </trkpt>
      <trkpt lat="46.38308" lon="4.87065">
        <ele>171.10059</ele>
        <time>2026-05-13T15:45:10+02:00</time>
      </trkpt>
      <trkpt lat="46.38313" lon="4.87069">
        <ele>171.7002</ele>
        <time>2026-05-13T15:45:11+02:00</time>
      </trkpt>
      <trkpt lat="46.38318" lon="4.87073">
        <ele>172.2998</ele>
        <time>2026-05-13T15:45:12+02:00</time>
      </trkpt>
      <trkpt lat="46.38323" lon="4.87078">
        <ele>172.2998</ele>
        <time>2026-05-13T15:45:13+02:00</time>
      </trkpt>
      <trkpt lat="46.38328" lon="4.87084">
        <ele>172</ele>
        <time>2026-05-13T15:45:14+02:00</time>
      </trkpt>
      <trkpt lat="46.38332" lon="4.87089">
        <ele>172.60059</ele>
        <time>2026-05-13T15:45:15+02:00</time>
      </trkpt>
      <trkpt lat="46.38337" lon="4.87094">
        <ele>170.90039</ele>
        <time>2026-05-13T15:45:16+02:00</time>
      </trkpt>
      <trkpt lat="46.38342" lon="4.87098">
        <ele>169.40039</ele>
        <time>2026-05-13T15:45:17+02:00</time>
      </trkpt>
      <trkpt lat="46.38348" lon="4.87102">
        <ele>169.40039</ele>
        <time>2026-05-13T15:45:18+02:00</time>
      </trkpt>
      <trkpt lat="46.38354" lon="4.87107">
        <ele>168.90039</ele>
        <time>2026-05-13T15:45:19+02:00</time>
      </trkpt>
      <trkpt lat="46.3836" lon="4.87111">
        <ele>169.10059</ele>
        <time>2026-05-13T15:45:20+02:00</time>
      </trkpt>
      <trkpt lat="46.38366" lon="4.87115">
        <ele>168.90039</ele>
        <time>2026-05-13T15:45:21+02:00</time>
      </trkpt>
      <trkpt lat="46.38372" lon="4.87119">
        <ele>169.10059</ele>
        <time>2026-05-13T15:45:22+02:00</time>
      </trkpt>
      <trkpt lat="46.38378" lon="4.87123">
        <ele>169.40039</ele>
        <time>2026-05-13T15:45:23+02:00</time>
      </trkpt>
      <trkpt lat="46.38383" lon="4.87128">
        <ele>169.2998</ele>
        <time>2026-05-13T15:45:24+02:00</time>
      </trkpt>
      <trkpt lat="46.38389" lon="4.87131">
        <ele>169.90039</ele>
        <time>2026-05-13T15:45:25+02:00</time>
      </trkpt>
      <trkpt lat="46.38395" lon="4.87135">
        <ele>170.2998</ele>
        <time>2026-05-13T15:45:26+02:00</time>
      </trkpt>
      <trkpt lat="46.384" lon="4.87139">
        <ele>170.2998</ele>
        <time>2026-05-13T15:45:27+02:00</time>
      </trkpt>
      <trkpt lat="46.38406" lon="4.87142">
        <ele>170.10059</ele>
        <time>2026-05-13T15:45:28+02:00</time>
      </trkpt>
      <trkpt lat="46.38412" lon="4.87146">
        <ele>170.5</ele>
        <time>2026-05-13T15:45:29+02:00</time>
      </trkpt>
      <trkpt lat="46.38417" lon="4.87151">
        <ele>169.40039</ele>
        <time>2026-05-13T15:45:30+02:00</time>
      </trkpt>
      <trkpt lat="46.38423" lon="4.87155">
        <ele>169.5</ele>
        <time>2026-05-13T15:45:31+02:00</time>
      </trkpt>
      <trkpt lat="46.38428" lon="4.87159">
        <ele>168.7998</ele>
        <time>2026-05-13T15:45:32+02:00</time>
      </trkpt>
      <trkpt lat="46.38434" lon="4.87163">
        <ele>169</ele>
        <time>2026-05-13T15:45:33+02:00</time>
      </trkpt>
      <trkpt lat="46.3844" lon="4.87166">
        <ele>169.40039</ele>
        <time>2026-05-13T15:45:34+02:00</time>
      </trkpt>
      <trkpt lat="46.38447" lon="4.8717">
        <ele>169.2998</ele>
        <time>2026-05-13T15:45:35+02:00</time>
      </trkpt>
      <trkpt lat="46.38453" lon="4.87173">
        <ele>169.60059</ele>
        <time>2026-05-13T15:45:36+02:00</time>
      </trkpt>
      <trkpt lat="46.38459" lon="4.87177">
        <ele>169.10059</ele>
        <time>2026-05-13T15:45:37+02:00</time>
      </trkpt>
      <trkpt lat="46.38465" lon="4.8718">
        <ele>169.2998</ele>
        <time>2026-05-13T15:45:38+02:00</time>
      </trkpt>
      <trkpt lat="46.38471" lon="4.87184">
        <ele>168.90039</ele>
        <time>2026-05-13T15:45:39+02:00</time>
      </trkpt>
      <trkpt lat="46.38477" lon="4.87187">
        <ele>169.2002</ele>
        <time>2026-05-13T15:45:40+02:00</time>
      </trkpt>
      <trkpt lat="46.38482" lon="4.87191">
        <ele>169.5</ele>
        <time>2026-05-13T15:45:41+02:00</time>
      </trkpt>
      <trkpt lat="46.38488" lon="4.87195">
        <ele>169.40039</ele>
        <time>2026-05-13T15:45:42+02:00</time>
      </trkpt>
      <trkpt lat="46.38493" lon="4.87198">
        <ele>169.7002</ele>
        <time>2026-05-13T15:45:43+02:00</time>
      </trkpt>
      <trkpt lat="46.38499" lon="4.87201">
        <ele>169.5</ele>
        <time>2026-05-13T15:45:44+02:00</time>
      </trkpt>
      <trkpt lat="46.38504" lon="4.87205">
        <ele>169.60059</ele>
        <time>2026-05-13T15:45:45+02:00</time>
      </trkpt>
      <trkpt lat="46.3851" lon="4.87208">
        <ele>169.7998</ele>
        <time>2026-05-13T15:45:46+02:00</time>
      </trkpt>
      <trkpt lat="46.38516" lon="4.8721">
        <ele>169.40039</ele>
        <time>2026-05-13T15:45:47+02:00</time>
      </trkpt>
      <trkpt lat="46.38521" lon="4.87213">
        <ele>169.60059</ele>
        <time>2026-05-13T15:45:48+02:00</time>
      </trkpt>
      <trkpt lat="46.38527" lon="4.87215">
        <ele>170.10059</ele>
        <time>2026-05-13T15:45:49+02:00</time>
      </trkpt>
      <trkpt lat="46.38532" lon="4.87217">
        <ele>170.7002</ele>
        <time>2026-05-13T15:45:50+02:00</time>
      </trkpt>
      <trkpt lat="46.38538" lon="4.8722">
        <ele>170.60059</ele>
        <time>2026-05-13T15:45:51+02:00</time>
      </trkpt>
      <trkpt lat="46.38543" lon="4.87224">
        <ele>171.10059</ele>
        <time>2026-05-13T15:45:52+02:00</time>
      </trkpt>
      <trkpt lat="46.38548" lon="4.87228">
        <ele>170.10059</ele>
        <time>2026-05-13T15:45:53+02:00</time>
      </trkpt>
      <trkpt lat="46.38553" lon="4.87232">
        <ele>170.7002</ele>
        <time>2026-05-13T15:45:54+02:00</time>
      </trkpt>
      <trkpt lat="46.38559" lon="4.87237">
        <ele>170.5</ele>
        <time>2026-05-13T15:45:55+02:00</time>
      </trkpt>
      <trkpt lat="46.38564" lon="4.87241">
        <ele>171.60059</ele>
        <time>2026-05-13T15:45:56+02:00</time>
      </trkpt>
      <trkpt lat="46.3857" lon="4.87245">
        <ele>172.10059</ele>
        <time>2026-05-13T15:45:57+02:00</time>
      </trkpt>
      <trkpt lat="46.38575" lon="4.8725">
        <ele>173.10059</ele>
        <time>2026-05-13T15:45:58+02:00</time>
      </trkpt>
      <trkpt lat="46.3858" lon="4.87254">
        <ele>172.5</ele>
        <time>2026-05-13T15:45:59+02:00</time>
      </trkpt>
      <trkpt lat="46.38585" lon="4.87259">
        <ele>173.2002</ele>
        <time>2026-05-13T15:46:00+02:00</time>
      </trkpt>
      <trkpt lat="46.38591" lon="4.87263">
        <ele>171.2998</ele>
        <time>2026-05-13T15:46:01+02:00</time>
      </trkpt>
      <trkpt lat="46.38596" lon="4.87267">
        <ele>171.5</ele>
        <time>2026-05-13T15:46:02+02:00</time>
      </trkpt>
      <trkpt lat="46.38602" lon="4.87271">
        <ele>170.5</ele>
        <time>2026-05-13T15:46:03+02:00</time>
      </trkpt>
      <trkpt lat="46.38608" lon="4.87274">
        <ele>171.10059</ele>
        <time>2026-05-13T15:46:04+02:00</time>
      </trkpt>
      <trkpt lat="46.38614" lon="4.87277">
        <ele>171.60059</ele>
        <time>2026-05-13T15:46:05+02:00</time>
      </trkpt>
      <trkpt lat="46.38621" lon="4.87279">
        <ele>170.90039</ele>
        <time>2026-05-13T15:46:06+02:00</time>
      </trkpt>
      <trkpt lat="46.38626" lon="4.87282">
        <ele>171</ele>
        <time>2026-05-13T15:46:07+02:00</time>
      </trkpt>
      <trkpt lat="46.38632" lon="4.87284">
        <ele>170.90039</ele>
        <time>2026-05-13T15:46:08+02:00</time>
      </trkpt>
      <trkpt lat="46.38638" lon="4.87287">
        <ele>170.2002</ele>
        <time>2026-05-13T15:46:09+02:00</time>
      </trkpt>
      <trkpt lat="46.38645" lon="4.87289">
        <ele>170.40039</ele>
        <time>2026-05-13T15:46:10+02:00</time>
      </trkpt>
      <trkpt lat="46.3865" lon="4.87292">
        <ele>170.60059</ele>
        <time>2026-05-13T15:46:11+02:00</time>
      </trkpt>
      <trkpt lat="46.38656" lon="4.87294">
        <ele>170.90039</ele>
        <time>2026-05-13T15:46:12+02:00</time>
      </trkpt>
      <trkpt lat="46.38662" lon="4.87297">
        <ele>170.60059</ele>
        <time>2026-05-13T15:46:13+02:00</time>
      </trkpt>
      <trkpt lat="46.38667" lon="4.873">
        <ele>170.90039</ele>
        <time>2026-05-13T15:46:14+02:00</time>
      </trkpt>
      <trkpt lat="46.38673" lon="4.87303">
        <ele>171.10059</ele>
        <time>2026-05-13T15:46:15+02:00</time>
      </trkpt>
      <trkpt lat="46.38678" lon="4.87305">
        <ele>170.2998</ele>
        <time>2026-05-13T15:46:16+02:00</time>
      </trkpt>
      <trkpt lat="46.38683" lon="4.87308">
        <ele>170.5</ele>
        <time>2026-05-13T15:46:17+02:00</time>
      </trkpt>
      <trkpt lat="46.38688" lon="4.87311">
        <ele>170.60059</ele>
        <time>2026-05-13T15:46:18+02:00</time>
      </trkpt>
      <trkpt lat="46.38694" lon="4.87313">
        <ele>170.10059</ele>
        <time>2026-05-13T15:46:19+02:00</time>
      </trkpt>
      <trkpt lat="46.38699" lon="4.87315">
        <ele>170.40039</ele>
        <time>2026-05-13T15:46:20+02:00</time>
      </trkpt>
      <trkpt lat="46.38705" lon="4.87318">
        <ele>170.7998</ele>
        <time>2026-05-13T15:46:21+02:00</time>
      </trkpt>
      <trkpt lat="46.38711" lon="4.87321">
        <ele>170.60059</ele>
        <time>2026-05-13T15:46:22+02:00</time>
      </trkpt>
      <trkpt lat="46.38716" lon="4.87323">
        <ele>170.90039</ele>
        <time>2026-05-13T15:46:23+02:00</time>
      </trkpt>
      <trkpt lat="46.38722" lon="4.87326">
        <ele>171.2002</ele>
        <time>2026-05-13T15:46:24+02:00</time>
      </trkpt>
      <trkpt lat="46.38727" lon="4.87328">
        <ele>171.5</ele>
        <time>2026-05-13T15:46:25+02:00</time>
      </trkpt>
      <trkpt lat="46.38733" lon="4.87331">
        <ele>171.10059</ele>
        <time>2026-05-13T15:46:26+02:00</time>
      </trkpt>
      <trkpt lat="46.38739" lon="4.87333">
        <ele>171.40039</ele>
        <time>2026-05-13T15:46:27+02:00</time>
      </trkpt>
      <trkpt lat="46.38744" lon="4.87334">
        <ele>171.7998</ele>
        <time>2026-05-13T15:46:28+02:00</time>
      </trkpt>
      <trkpt lat="46.3875" lon="4.87336">
        <ele>172.10059</ele>
        <time>2026-05-13T15:46:29+02:00</time>
      </trkpt>
      <trkpt lat="46.38756" lon="4.87338">
        <ele>172.40039</ele>
        <time>2026-05-13T15:46:30+02:00</time>
      </trkpt>
      <trkpt lat="46.38761" lon="4.87341">
        <ele>172.2002</ele>
        <time>2026-05-13T15:46:31+02:00</time>
      </trkpt>
      <trkpt lat="46.38766" lon="4.87345">
        <ele>172.40039</ele>
        <time>2026-05-13T15:46:32+02:00</time>
      </trkpt>
      <trkpt lat="46.3877" lon="4.8735">
        <ele>172.2002</ele>
        <time>2026-05-13T15:46:33+02:00</time>
      </trkpt>
      <trkpt lat="46.38775" lon="4.87354">
        <ele>172.2998</ele>
        <time>2026-05-13T15:46:34+02:00</time>
      </trkpt>
      <trkpt lat="46.3878" lon="4.87358">
        <ele>172</ele>
        <time>2026-05-13T15:46:35+02:00</time>
      </trkpt>
      <trkpt lat="46.38784" lon="4.87362">
        <ele>172</ele>
        <time>2026-05-13T15:46:36+02:00</time>
      </trkpt>
      <trkpt lat="46.38789" lon="4.87367">
        <ele>171.90039</ele>
        <time>2026-05-13T15:46:37+02:00</time>
      </trkpt>
      <trkpt lat="46.38794" lon="4.87371">
        <ele>172.60059</ele>
        <time>2026-05-13T15:46:38+02:00</time>
      </trkpt>
      <trkpt lat="46.38799" lon="4.87374">
        <ele>173.2002</ele>
        <time>2026-05-13T15:46:39+02:00</time>
      </trkpt>
      <trkpt lat="46.38803" lon="4.87378">
        <ele>173.90039</ele>
        <time>2026-05-13T15:46:40+02:00</time>
      </trkpt>
      <trkpt lat="46.38808" lon="4.87381">
        <ele>173.90039</ele>
        <time>2026-05-13T15:46:41+02:00</time>
      </trkpt>
      <trkpt lat="46.38813" lon="4.87385">
        <ele>174.2002</ele>
        <time>2026-05-13T15:46:42+02:00</time>
      </trkpt>
      <trkpt lat="46.38818" lon="4.87388">
        <ele>174.60059</ele>
        <time>2026-05-13T15:46:43+02:00</time>
      </trkpt>
      <trkpt lat="46.38823" lon="4.87391">
        <ele>173.40039</ele>
        <time>2026-05-13T15:46:44+02:00</time>
      </trkpt>
      <trkpt lat="46.38828" lon="4.87393">
        <ele>173.40039</ele>
        <time>2026-05-13T15:46:45+02:00</time>
      </trkpt>
      <trkpt lat="46.38834" lon="4.87396">
        <ele>173.40039</ele>
        <time>2026-05-13T15:46:46+02:00</time>
      </trkpt>
      <trkpt lat="46.38839" lon="4.87399">
        <ele>172.7002</ele>
        <time>2026-05-13T15:46:47+02:00</time>
      </trkpt>
      <trkpt lat="46.38844" lon="4.87402">
        <ele>172.7002</ele>
        <time>2026-05-13T15:46:48+02:00</time>
      </trkpt>
      <trkpt lat="46.3885" lon="4.87405">
        <ele>173.40039</ele>
        <time>2026-05-13T15:46:49+02:00</time>
      </trkpt>
      <trkpt lat="46.38855" lon="4.87409">
        <ele>173.7998</ele>
        <time>2026-05-13T15:46:50+02:00</time>
      </trkpt>
      <trkpt lat="46.3886" lon="4.87413">
        <ele>174.5</ele>
        <time>2026-05-13T15:46:51+02:00</time>
      </trkpt>
      <trkpt lat="46.38866" lon="4.87417">
        <ele>174.2998</ele>
        <time>2026-05-13T15:46:52+02:00</time>
      </trkpt>
      <trkpt lat="46.38872" lon="4.87422">
        <ele>174.60059</ele>
        <time>2026-05-13T15:46:53+02:00</time>
      </trkpt>
      <trkpt lat="46.38877" lon="4.87427">
        <ele>173.60059</ele>
        <time>2026-05-13T15:46:54+02:00</time>
      </trkpt>
      <trkpt lat="46.38883" lon="4.87431">
        <ele>173.60059</ele>
        <time>2026-05-13T15:46:55+02:00</time>
      </trkpt>
      <trkpt lat="46.38888" lon="4.87437">
        <ele>172.90039</ele>
        <time>2026-05-13T15:46:56+02:00</time>
      </trkpt>
      <trkpt lat="46.38893" lon="4.87442">
        <ele>172.7002</ele>
        <time>2026-05-13T15:46:57+02:00</time>
      </trkpt>
      <trkpt lat="46.38899" lon="4.87447">
        <ele>173</ele>
        <time>2026-05-13T15:46:58+02:00</time>
      </trkpt>
      <trkpt lat="46.38904" lon="4.87453">
        <ele>171.7002</ele>
        <time>2026-05-13T15:46:59+02:00</time>
      </trkpt>
      <trkpt lat="46.38909" lon="4.87458">
        <ele>171.7002</ele>
        <time>2026-05-13T15:47:00+02:00</time>
      </trkpt>
      <trkpt lat="46.38915" lon="4.87464">
        <ele>170.2002</ele>
        <time>2026-05-13T15:47:01+02:00</time>
      </trkpt>
      <trkpt lat="46.38921" lon="4.87469">
        <ele>169.2002</ele>
        <time>2026-05-13T15:47:02+02:00</time>
      </trkpt>
      <trkpt lat="46.38927" lon="4.87474">
        <ele>169.5</ele>
        <time>2026-05-13T15:47:03+02:00</time>
      </trkpt>
      <trkpt lat="46.38933" lon="4.8748">
        <ele>169.5</ele>
        <time>2026-05-13T15:47:04+02:00</time>
      </trkpt>
      <trkpt lat="46.38939" lon="4.87485">
        <ele>169.60059</ele>
        <time>2026-05-13T15:47:05+02:00</time>
      </trkpt>
      <trkpt lat="46.38945" lon="4.8749">
        <ele>169.90039</ele>
        <time>2026-05-13T15:47:06+02:00</time>
      </trkpt>
      <trkpt lat="46.38951" lon="4.87495">
        <ele>169.2002</ele>
        <time>2026-05-13T15:47:07+02:00</time>
      </trkpt>
      <trkpt lat="46.38957" lon="4.875">
        <ele>169.2002</ele>
        <time>2026-05-13T15:47:08+02:00</time>
      </trkpt>
      <trkpt lat="46.38964" lon="4.87505">
        <ele>168.90039</ele>
        <time>2026-05-13T15:47:09+02:00</time>
      </trkpt>
      <trkpt lat="46.3897" lon="4.8751">
        <ele>168.90039</ele>
        <time>2026-05-13T15:47:10+02:00</time>
      </trkpt>
      <trkpt lat="46.38976" lon="4.87514">
        <ele>169.10059</ele>
        <time>2026-05-13T15:47:11+02:00</time>
      </trkpt>
      <trkpt lat="46.38983" lon="4.87519">
        <ele>169.10059</ele>
        <time>2026-05-13T15:47:12+02:00</time>
      </trkpt>
      <trkpt lat="46.38989" lon="4.87523">
        <ele>169.2002</ele>
        <time>2026-05-13T15:47:13+02:00</time>
      </trkpt>
      <trkpt lat="46.38995" lon="4.87528">
        <ele>169</ele>
        <time>2026-05-13T15:47:14+02:00</time>
      </trkpt>
      <trkpt lat="46.39001" lon="4.87533">
        <ele>169.2002</ele>
        <time>2026-05-13T15:47:15+02:00</time>
      </trkpt>
      <trkpt lat="46.39007" lon="4.87538">
        <ele>169.10059</ele>
        <time>2026-05-13T15:47:16+02:00</time>
      </trkpt>
      <trkpt lat="46.39013" lon="4.87543">
        <ele>169.2998</ele>
        <time>2026-05-13T15:47:17+02:00</time>
      </trkpt>
      <trkpt lat="46.39019" lon="4.87548">
        <ele>169.2002</ele>
        <time>2026-05-13T15:47:18+02:00</time>
      </trkpt>
      <trkpt lat="46.39025" lon="4.87554">
        <ele>169.10059</ele>
        <time>2026-05-13T15:47:19+02:00</time>
      </trkpt>
      <trkpt lat="46.39031" lon="4.87559">
        <ele>169.2998</ele>
        <time>2026-05-13T15:47:20+02:00</time>
      </trkpt>
      <trkpt lat="46.39037" lon="4.87565">
        <ele>169.2998</ele>
        <time>2026-05-13T15:47:21+02:00</time>
      </trkpt>
      <trkpt lat="46.39044" lon="4.8757">
        <ele>169.2002</ele>
        <time>2026-05-13T15:47:22+02:00</time>
      </trkpt>
      <trkpt lat="46.3905" lon="4.87576">
        <ele>169.5</ele>
        <time>2026-05-13T15:47:23+02:00</time>
      </trkpt>
      <trkpt lat="46.39055" lon="4.87582">
        <ele>169.2998</ele>
        <time>2026-05-13T15:47:24+02:00</time>
      </trkpt>
      <trkpt lat="46.39061" lon="4.87588">
        <ele>169.2002</ele>
        <time>2026-05-13T15:47:25+02:00</time>
      </trkpt>
      <trkpt lat="46.39067" lon="4.87594">
        <ele>169.60059</ele>
        <time>2026-05-13T15:47:26+02:00</time>
      </trkpt>
      <trkpt lat="46.39073" lon="4.876">
        <ele>169.7002</ele>
        <time>2026-05-13T15:47:27+02:00</time>
      </trkpt>
      <trkpt lat="46.39079" lon="4.87606">
        <ele>169.40039</ele>
        <time>2026-05-13T15:47:28+02:00</time>
      </trkpt>
      <trkpt lat="46.39085" lon="4.87612">
        <ele>169.7002</ele>
        <time>2026-05-13T15:47:29+02:00</time>
      </trkpt>
      <trkpt lat="46.3909" lon="4.87618">
        <ele>169.2998</ele>
        <time>2026-05-13T15:47:30+02:00</time>
      </trkpt>
      <trkpt lat="46.39096" lon="4.87624">
        <ele>169.2998</ele>
        <time>2026-05-13T15:47:31+02:00</time>
      </trkpt>
      <trkpt lat="46.39101" lon="4.8763">
        <ele>169.2998</ele>
        <time>2026-05-13T15:47:32+02:00</time>
      </trkpt>
      <trkpt lat="46.39107" lon="4.87636">
        <ele>169.60059</ele>
        <time>2026-05-13T15:47:33+02:00</time>
      </trkpt>
      <trkpt lat="46.39112" lon="4.87642">
        <ele>169.40039</ele>
        <time>2026-05-13T15:47:34+02:00</time>
      </trkpt>
      <trkpt lat="46.39117" lon="4.87648">
        <ele>169.2002</ele>
        <time>2026-05-13T15:47:35+02:00</time>
      </trkpt>
      <trkpt lat="46.39123" lon="4.87654">
        <ele>169.60059</ele>
        <time>2026-05-13T15:47:36+02:00</time>
      </trkpt>
      <trkpt lat="46.39128" lon="4.87658">
        <ele>169.2002</ele>
        <time>2026-05-13T15:47:37+02:00</time>
      </trkpt>
      <trkpt lat="46.39133" lon="4.87663">
        <ele>169.5</ele>
        <time>2026-05-13T15:47:38+02:00</time>
      </trkpt>
      <trkpt lat="46.39138" lon="4.87668">
        <ele>169.5</ele>
        <time>2026-05-13T15:47:39+02:00</time>
      </trkpt>
      <trkpt lat="46.39143" lon="4.87673">
        <ele>169.2998</ele>
        <time>2026-05-13T15:47:40+02:00</time>
      </trkpt>
      <trkpt lat="46.39148" lon="4.87677">
        <ele>169.60059</ele>
        <time>2026-05-13T15:47:41+02:00</time>
      </trkpt>
      <trkpt lat="46.39154" lon="4.87682">
        <ele>169.5</ele>
        <time>2026-05-13T15:47:42+02:00</time>
      </trkpt>
      <trkpt lat="46.39159" lon="4.87687">
        <ele>169.90039</ele>
        <time>2026-05-13T15:47:43+02:00</time>
      </trkpt>
      <trkpt lat="46.39164" lon="4.87693">
        <ele>169.40039</ele>
        <time>2026-05-13T15:47:44+02:00</time>
      </trkpt>
      <trkpt lat="46.39168" lon="4.877">
        <ele>169.2998</ele>
        <time>2026-05-13T15:47:45+02:00</time>
      </trkpt>
      <trkpt lat="46.39172" lon="4.87707">
        <ele>169.5</ele>
        <time>2026-05-13T15:47:46+02:00</time>
      </trkpt>
      <trkpt lat="46.39177" lon="4.87714">
        <ele>169.2998</ele>
        <time>2026-05-13T15:47:47+02:00</time>
      </trkpt>
      <trkpt lat="46.39182" lon="4.87721">
        <ele>169</ele>
        <time>2026-05-13T15:47:48+02:00</time>
      </trkpt>
      <trkpt lat="46.39186" lon="4.87728">
        <ele>169.10059</ele>
        <time>2026-05-13T15:47:49+02:00</time>
      </trkpt>
      <trkpt lat="46.39191" lon="4.87735">
        <ele>169</ele>
        <time>2026-05-13T15:47:50+02:00</time>
      </trkpt>
      <trkpt lat="46.39196" lon="4.87742">
        <ele>168.90039</ele>
        <time>2026-05-13T15:47:51+02:00</time>
      </trkpt>
      <trkpt lat="46.39201" lon="4.87748">
        <ele>168.90039</ele>
        <time>2026-05-13T15:47:52+02:00</time>
      </trkpt>
      <trkpt lat="46.39205" lon="4.87754">
        <ele>168.90039</ele>
        <time>2026-05-13T15:47:53+02:00</time>
      </trkpt>
      <trkpt lat="46.3921" lon="4.8776">
        <ele>168.90039</ele>
        <time>2026-05-13T15:47:54+02:00</time>
      </trkpt>
      <trkpt lat="46.39215" lon="4.87764">
        <ele>169</ele>
        <time>2026-05-13T15:47:55+02:00</time>
      </trkpt>
      <trkpt lat="46.39221" lon="4.87767">
        <ele>169.10059</ele>
        <time>2026-05-13T15:47:56+02:00</time>
      </trkpt>
      <trkpt lat="46.39227" lon="4.8777">
        <ele>169.2002</ele>
        <time>2026-05-13T15:47:57+02:00</time>
      </trkpt>
      <trkpt lat="46.39233" lon="4.87774">
        <ele>169.2998</ele>
        <time>2026-05-13T15:47:58+02:00</time>
      </trkpt>
      <trkpt lat="46.39238" lon="4.87777">
        <ele>169.40039</ele>
        <time>2026-05-13T15:47:59+02:00</time>
      </trkpt>
      <trkpt lat="46.39244" lon="4.87782">
        <ele>169.60059</ele>
        <time>2026-05-13T15:48:00+02:00</time>
      </trkpt>
      <trkpt lat="46.3925" lon="4.87786">
        <ele>169.2998</ele>
        <time>2026-05-13T15:48:01+02:00</time>
      </trkpt>
      <trkpt lat="46.39255" lon="4.8779">
        <ele>169.2998</ele>
        <time>2026-05-13T15:48:02+02:00</time>
      </trkpt>
      <trkpt lat="46.3926" lon="4.87795">
        <ele>169</ele>
        <time>2026-05-13T15:48:03+02:00</time>
      </trkpt>
      <trkpt lat="46.39265" lon="4.87799">
        <ele>169.10059</ele>
        <time>2026-05-13T15:48:04+02:00</time>
      </trkpt>
      <trkpt lat="46.3927" lon="4.87804">
        <ele>168.90039</ele>
        <time>2026-05-13T15:48:05+02:00</time>
      </trkpt>
      <trkpt lat="46.39275" lon="4.87809">
        <ele>169</ele>
        <time>2026-05-13T15:48:06+02:00</time>
      </trkpt>
      <trkpt lat="46.3928" lon="4.87814">
        <ele>169</ele>
        <time>2026-05-13T15:48:07+02:00</time>
      </trkpt>
      <trkpt lat="46.39285" lon="4.87819">
        <ele>169</ele>
        <time>2026-05-13T15:48:08+02:00</time>
      </trkpt>
      <trkpt lat="46.3929" lon="4.87825">
        <ele>169</ele>
        <time>2026-05-13T15:48:09+02:00</time>
      </trkpt>
      <trkpt lat="46.39295" lon="4.8783">
        <ele>169</ele>
        <time>2026-05-13T15:48:10+02:00</time>
      </trkpt>
      <trkpt lat="46.393" lon="4.87835">
        <ele>169</ele>
        <time>2026-05-13T15:48:11+02:00</time>
      </trkpt>
      <trkpt lat="46.39306" lon="4.8784">
        <ele>169</ele>
        <time>2026-05-13T15:48:12+02:00</time>
      </trkpt>
      <trkpt lat="46.39311" lon="4.87846">
        <ele>169</ele>
        <time>2026-05-13T15:48:13+02:00</time>
      </trkpt>
      <trkpt lat="46.39316" lon="4.87851">
        <ele>169</ele>
        <time>2026-05-13T15:48:14+02:00</time>
      </trkpt>
      <trkpt lat="46.39321" lon="4.87855">
        <ele>169</ele>
        <time>2026-05-13T15:48:15+02:00</time>
      </trkpt>
      <trkpt lat="46.39326" lon="4.8786">
        <ele>169.10059</ele>
        <time>2026-05-13T15:48:16+02:00</time>
      </trkpt>
      <trkpt lat="46.39332" lon="4.87864">
        <ele>169</ele>
        <time>2026-05-13T15:48:17+02:00</time>
      </trkpt>
      <trkpt lat="46.39337" lon="4.87869">
        <ele>169.10059</ele>
        <time>2026-05-13T15:48:18+02:00</time>
      </trkpt>
      <trkpt lat="46.39342" lon="4.87874">
        <ele>169.10059</ele>
        <time>2026-05-13T15:48:19+02:00</time>
      </trkpt>
      <trkpt lat="46.39347" lon="4.87878">
        <ele>169.10059</ele>
        <time>2026-05-13T15:48:20+02:00</time>
      </trkpt>
      <trkpt lat="46.39352" lon="4.87883">
        <ele>169</ele>
        <time>2026-05-13T15:48:21+02:00</time>
      </trkpt>
      <trkpt lat="46.39358" lon="4.87888">
        <ele>169</ele>
        <time>2026-05-13T15:48:22+02:00</time>
      </trkpt>
      <trkpt lat="46.39363" lon="4.87893">
        <ele>169.10059</ele>
        <time>2026-05-13T15:48:23+02:00</time>
      </trkpt>
      <trkpt lat="46.39368" lon="4.87897">
        <ele>169.10059</ele>
        <time>2026-05-13T15:48:24+02:00</time>
      </trkpt>
      <trkpt lat="46.39374" lon="4.87901">
        <ele>169.10059</ele>
        <time>2026-05-13T15:48:25+02:00</time>
      </trkpt>
      <trkpt lat="46.39379" lon="4.87906">
        <ele>169</ele>
        <time>2026-05-13T15:48:26+02:00</time>
      </trkpt>
      <trkpt lat="46.39385" lon="4.87911">
        <ele>169</ele>
        <time>2026-05-13T15:48:27+02:00</time>
      </trkpt>
      <trkpt lat="46.3939" lon="4.87916">
        <ele>168.90039</ele>
        <time>2026-05-13T15:48:28+02:00</time>
      </trkpt>
      <trkpt lat="46.39396" lon="4.8792">
        <ele>169</ele>
        <time>2026-05-13T15:48:29+02:00</time>
      </trkpt>
      <trkpt lat="46.39401" lon="4.87925">
        <ele>168.90039</ele>
        <time>2026-05-13T15:48:30+02:00</time>
      </trkpt>
      <trkpt lat="46.39407" lon="4.87929">
        <ele>169.10059</ele>
        <time>2026-05-13T15:48:31+02:00</time>
      </trkpt>
      <trkpt lat="46.39412" lon="4.87933">
        <ele>169</ele>
        <time>2026-05-13T15:48:32+02:00</time>
      </trkpt>
      <trkpt lat="46.39418" lon="4.87937">
        <ele>169</ele>
        <time>2026-05-13T15:48:33+02:00</time>
      </trkpt>
      <trkpt lat="46.39424" lon="4.87941">
        <ele>168.90039</ele>
        <time>2026-05-13T15:48:34+02:00</time>
      </trkpt>
      <trkpt lat="46.3943" lon="4.87945">
        <ele>168.90039</ele>
        <time>2026-05-13T15:48:35+02:00</time>
      </trkpt>
      <trkpt lat="46.39436" lon="4.87949">
        <ele>168.90039</ele>
        <time>2026-05-13T15:48:36+02:00</time>
      </trkpt>
      <trkpt lat="46.39441" lon="4.87953">
        <ele>168.90039</ele>
        <time>2026-05-13T15:48:37+02:00</time>
      </trkpt>
      <trkpt lat="46.39448" lon="4.87957">
        <ele>168.90039</ele>
        <time>2026-05-13T15:48:38+02:00</time>
      </trkpt>
      <trkpt lat="46.39454" lon="4.8796">
        <ele>168.90039</ele>
        <time>2026-05-13T15:48:39+02:00</time>
      </trkpt>
      <trkpt lat="46.3946" lon="4.87964">
        <ele>168.90039</ele>
        <time>2026-05-13T15:48:40+02:00</time>
      </trkpt>
      <trkpt lat="46.39465" lon="4.87967">
        <ele>168.90039</ele>
        <time>2026-05-13T15:48:41+02:00</time>
      </trkpt>
      <trkpt lat="46.39471" lon="4.87971">
        <ele>168.90039</ele>
        <time>2026-05-13T15:48:42+02:00</time>
      </trkpt>
      <trkpt lat="46.39477" lon="4.87974">
        <ele>168.90039</ele>
        <time>2026-05-13T15:48:43+02:00</time>
      </trkpt>
      <trkpt lat="46.39483" lon="4.87977">
        <ele>168.90039</ele>
        <time>2026-05-13T15:48:44+02:00</time>
      </trkpt>
      <trkpt lat="46.39488" lon="4.87981">
        <ele>168.90039</ele>
        <time>2026-05-13T15:48:45+02:00</time>
      </trkpt>
      <trkpt lat="46.39494" lon="4.87984">
        <ele>168.90039</ele>
        <time>2026-05-13T15:48:46+02:00</time>
      </trkpt>
      <trkpt lat="46.395" lon="4.87987">
        <ele>169</ele>
        <time>2026-05-13T15:48:47+02:00</time>
      </trkpt>
      <trkpt lat="46.39506" lon="4.8799">
        <ele>169</ele>
        <time>2026-05-13T15:48:48+02:00</time>
      </trkpt>
      <trkpt lat="46.39512" lon="4.87994">
        <ele>169</ele>
        <time>2026-05-13T15:48:49+02:00</time>
      </trkpt>
      <trkpt lat="46.39518" lon="4.87997">
        <ele>168.90039</ele>
        <time>2026-05-13T15:48:50+02:00</time>
      </trkpt>
      <trkpt lat="46.39524" lon="4.88">
        <ele>168.7998</ele>
        <time>2026-05-13T15:48:51+02:00</time>
      </trkpt>
      <trkpt lat="46.3953" lon="4.88003">
        <ele>168.7998</ele>
        <time>2026-05-13T15:48:52+02:00</time>
      </trkpt>
      <trkpt lat="46.39536" lon="4.88006">
        <ele>169</ele>
        <time>2026-05-13T15:48:53+02:00</time>
      </trkpt>
      <trkpt lat="46.39542" lon="4.88008">
        <ele>169.10059</ele>
        <time>2026-05-13T15:48:54+02:00</time>
      </trkpt>
      <trkpt lat="46.39548" lon="4.88011">
        <ele>169.5</ele>
        <time>2026-05-13T15:48:55+02:00</time>
      </trkpt>
      <trkpt lat="46.39554" lon="4.88014">
        <ele>169.90039</ele>
        <time>2026-05-13T15:48:56+02:00</time>
      </trkpt>
      <trkpt lat="46.3956" lon="4.88017">
        <ele>169.40039</ele>
        <time>2026-05-13T15:48:57+02:00</time>
      </trkpt>
      <trkpt lat="46.39566" lon="4.8802">
        <ele>169.40039</ele>
        <time>2026-05-13T15:48:58+02:00</time>
      </trkpt>
      <trkpt lat="46.39572" lon="4.88022">
        <ele>169.5</ele>
        <time>2026-05-13T15:48:59+02:00</time>
      </trkpt>
      <trkpt lat="46.39578" lon="4.88025">
        <ele>168.90039</ele>
        <time>2026-05-13T15:49:00+02:00</time>
      </trkpt>
      <trkpt lat="46.39584" lon="4.88028">
        <ele>168.90039</ele>
        <time>2026-05-13T15:49:01+02:00</time>
      </trkpt>
      <trkpt lat="46.39591" lon="4.88031">
        <ele>168.7002</ele>
        <time>2026-05-13T15:49:02+02:00</time>
      </trkpt>
      <trkpt lat="46.39597" lon="4.88034">
        <ele>168.7002</ele>
        <time>2026-05-13T15:49:03+02:00</time>
      </trkpt>
      <trkpt lat="46.39603" lon="4.88037">
        <ele>168.90039</ele>
        <time>2026-05-13T15:49:04+02:00</time>
      </trkpt>
      <trkpt lat="46.39609" lon="4.8804">
        <ele>169.40039</ele>
        <time>2026-05-13T15:49:05+02:00</time>
      </trkpt>
      <trkpt lat="46.39614" lon="4.88043">
        <ele>169.2998</ele>
        <time>2026-05-13T15:49:06+02:00</time>
      </trkpt>
      <trkpt lat="46.3962" lon="4.88046">
        <ele>169.2998</ele>
        <time>2026-05-13T15:49:07+02:00</time>
      </trkpt>
      <trkpt lat="46.39625" lon="4.88049">
        <ele>169.5</ele>
        <time>2026-05-13T15:49:08+02:00</time>
      </trkpt>
      <trkpt lat="46.3963" lon="4.88052">
        <ele>169.10059</ele>
        <time>2026-05-13T15:49:09+02:00</time>
      </trkpt>
      <trkpt lat="46.39635" lon="4.88055">
        <ele>169.5</ele>
        <time>2026-05-13T15:49:10+02:00</time>
      </trkpt>
      <trkpt lat="46.39639" lon="4.88058">
        <ele>170.10059</ele>
        <time>2026-05-13T15:49:11+02:00</time>
      </trkpt>
      <trkpt lat="46.39644" lon="4.88061">
        <ele>170.2002</ele>
        <time>2026-05-13T15:49:12+02:00</time>
      </trkpt>
      <trkpt lat="46.39649" lon="4.88064">
        <ele>170.2002</ele>
        <time>2026-05-13T15:49:13+02:00</time>
      </trkpt>
      <trkpt lat="46.39654" lon="4.88067">
        <ele>170.7002</ele>
        <time>2026-05-13T15:49:14+02:00</time>
      </trkpt>
      <trkpt lat="46.39659" lon="4.88071">
        <ele>170.10059</ele>
        <time>2026-05-13T15:49:15+02:00</time>
      </trkpt>
      <trkpt lat="46.39665" lon="4.88074">
        <ele>170.40039</ele>
        <time>2026-05-13T15:49:16+02:00</time>
      </trkpt>
      <trkpt lat="46.3967" lon="4.88077">
        <ele>169.2002</ele>
        <time>2026-05-13T15:49:17+02:00</time>
      </trkpt>
      <trkpt lat="46.39675" lon="4.8808">
        <ele>169.10059</ele>
        <time>2026-05-13T15:49:18+02:00</time>
      </trkpt>
      <trkpt lat="46.39679" lon="4.88083">
        <ele>169.10059</ele>
        <time>2026-05-13T15:49:19+02:00</time>
      </trkpt>
      <trkpt lat="46.39684" lon="4.88086">
        <ele>168.60059</ele>
        <time>2026-05-13T15:49:20+02:00</time>
      </trkpt>
      <trkpt lat="46.39689" lon="4.8809">
        <ele>168.7002</ele>
        <time>2026-05-13T15:49:21+02:00</time>
      </trkpt>
      <trkpt lat="46.39694" lon="4.88093">
        <ele>169</ele>
        <time>2026-05-13T15:49:22+02:00</time>
      </trkpt>
      <trkpt lat="46.39699" lon="4.88096">
        <ele>169.2002</ele>
        <time>2026-05-13T15:49:23+02:00</time>
      </trkpt>
      <trkpt lat="46.39704" lon="4.88099">
        <ele>169.7998</ele>
        <time>2026-05-13T15:49:24+02:00</time>
      </trkpt>
      <trkpt lat="46.39709" lon="4.88101">
        <ele>170.2998</ele>
        <time>2026-05-13T15:49:25+02:00</time>
      </trkpt>
      <trkpt lat="46.39714" lon="4.88104">
        <ele>169.2998</ele>
        <time>2026-05-13T15:49:26+02:00</time>
      </trkpt>
      <trkpt lat="46.39719" lon="4.88108">
        <ele>169.40039</ele>
        <time>2026-05-13T15:49:27+02:00</time>
      </trkpt>
      <trkpt lat="46.39724" lon="4.88111">
        <ele>168.90039</ele>
        <time>2026-05-13T15:49:28+02:00</time>
      </trkpt>
      <trkpt lat="46.39729" lon="4.88113">
        <ele>168.7998</ele>
        <time>2026-05-13T15:49:29+02:00</time>
      </trkpt>
      <trkpt lat="46.39734" lon="4.88116">
        <ele>168.7998</ele>
        <time>2026-05-13T15:49:30+02:00</time>
      </trkpt>
      <trkpt lat="46.39739" lon="4.88119">
        <ele>168.90039</ele>
        <time>2026-05-13T15:49:31+02:00</time>
      </trkpt>
      <trkpt lat="46.39744" lon="4.88122">
        <ele>168.7998</ele>
        <time>2026-05-13T15:49:32+02:00</time>
      </trkpt>
      <trkpt lat="46.39748" lon="4.88125">
        <ele>168.90039</ele>
        <time>2026-05-13T15:49:33+02:00</time>
      </trkpt>
      <trkpt lat="46.39753" lon="4.88128">
        <ele>169</ele>
        <time>2026-05-13T15:49:34+02:00</time>
      </trkpt>
      <trkpt lat="46.39758" lon="4.88131">
        <ele>169</ele>
        <time>2026-05-13T15:49:35+02:00</time>
      </trkpt>
      <trkpt lat="46.39763" lon="4.88134">
        <ele>169.10059</ele>
        <time>2026-05-13T15:49:36+02:00</time>
      </trkpt>
      <trkpt lat="46.39768" lon="4.88137">
        <ele>168.90039</ele>
        <time>2026-05-13T15:49:37+02:00</time>
      </trkpt>
      <trkpt lat="46.39772" lon="4.8814">
        <ele>168.90039</ele>
        <time>2026-05-13T15:49:38+02:00</time>
      </trkpt>
      <trkpt lat="46.39777" lon="4.88143">
        <ele>168.90039</ele>
        <time>2026-05-13T15:49:39+02:00</time>
      </trkpt>
      <trkpt lat="46.39782" lon="4.88146">
        <ele>168.90039</ele>
        <time>2026-05-13T15:49:40+02:00</time>
      </trkpt>
      <trkpt lat="46.39787" lon="4.88149">
        <ele>168.90039</ele>
        <time>2026-05-13T15:49:41+02:00</time>
      </trkpt>
      <trkpt lat="46.39791" lon="4.88152">
        <ele>168.90039</ele>
        <time>2026-05-13T15:49:42+02:00</time>
      </trkpt>
      <trkpt lat="46.39796" lon="4.88155">
        <ele>168.90039</ele>
        <time>2026-05-13T15:49:43+02:00</time>
      </trkpt>
      <trkpt lat="46.39801" lon="4.88158">
        <ele>168.90039</ele>
        <time>2026-05-13T15:49:44+02:00</time>
      </trkpt>
      <trkpt lat="46.39806" lon="4.88162">
        <ele>168.90039</ele>
        <time>2026-05-13T15:49:45+02:00</time>
      </trkpt>
      <trkpt lat="46.39811" lon="4.88165">
        <ele>168.90039</ele>
        <time>2026-05-13T15:49:46+02:00</time>
      </trkpt>
      <trkpt lat="46.39815" lon="4.88168">
        <ele>168.90039</ele>
        <time>2026-05-13T15:49:47+02:00</time>
      </trkpt>
      <trkpt lat="46.3982" lon="4.88172">
        <ele>168.90039</ele>
        <time>2026-05-13T15:49:48+02:00</time>
      </trkpt>
      <trkpt lat="46.39824" lon="4.88175">
        <ele>168.7998</ele>
        <time>2026-05-13T15:49:49+02:00</time>
      </trkpt>
      <trkpt lat="46.39829" lon="4.88179">
        <ele>168.90039</ele>
        <time>2026-05-13T15:49:50+02:00</time>
      </trkpt>
      <trkpt lat="46.39834" lon="4.88184">
        <ele>168.90039</ele>
        <time>2026-05-13T15:49:51+02:00</time>
      </trkpt>
      <trkpt lat="46.39839" lon="4.88188">
        <ele>168.90039</ele>
        <time>2026-05-13T15:49:52+02:00</time>
      </trkpt>
      <trkpt lat="46.39844" lon="4.88192">
        <ele>168.90039</ele>
        <time>2026-05-13T15:49:53+02:00</time>
      </trkpt>
      <trkpt lat="46.39849" lon="4.88196">
        <ele>169</ele>
        <time>2026-05-13T15:49:54+02:00</time>
      </trkpt>
      <trkpt lat="46.39854" lon="4.882">
        <ele>168.90039</ele>
        <time>2026-05-13T15:49:55+02:00</time>
      </trkpt>
      <trkpt lat="46.39859" lon="4.88204">
        <ele>169</ele>
        <time>2026-05-13T15:49:56+02:00</time>
      </trkpt>
      <trkpt lat="46.39863" lon="4.88208">
        <ele>169.10059</ele>
        <time>2026-05-13T15:49:57+02:00</time>
      </trkpt>
      <trkpt lat="46.39868" lon="4.88212">
        <ele>169.10059</ele>
        <time>2026-05-13T15:49:58+02:00</time>
      </trkpt>
      <trkpt lat="46.39872" lon="4.88217">
        <ele>169</ele>
        <time>2026-05-13T15:49:59+02:00</time>
      </trkpt>
      <trkpt lat="46.39877" lon="4.8822">
        <ele>169.2002</ele>
        <time>2026-05-13T15:50:00+02:00</time>
      </trkpt>
      <trkpt lat="46.39882" lon="4.88225">
        <ele>169</ele>
        <time>2026-05-13T15:50:01+02:00</time>
      </trkpt>
      <trkpt lat="46.39887" lon="4.8823">
        <ele>169.2998</ele>
        <time>2026-05-13T15:50:02+02:00</time>
      </trkpt>
      <trkpt lat="46.39892" lon="4.88234">
        <ele>169.10059</ele>
        <time>2026-05-13T15:50:03+02:00</time>
      </trkpt>
      <trkpt lat="46.39896" lon="4.88238">
        <ele>169.40039</ele>
        <time>2026-05-13T15:50:04+02:00</time>
      </trkpt>
      <trkpt lat="46.39901" lon="4.88242">
        <ele>169.2998</ele>
        <time>2026-05-13T15:50:05+02:00</time>
      </trkpt>
      <trkpt lat="46.39905" lon="4.88246">
        <ele>169.5</ele>
        <time>2026-05-13T15:50:06+02:00</time>
      </trkpt>
      <trkpt lat="46.3991" lon="4.8825">
        <ele>169.2998</ele>
        <time>2026-05-13T15:50:07+02:00</time>
      </trkpt>
      <trkpt lat="46.39914" lon="4.88254">
        <ele>169.2998</ele>
        <time>2026-05-13T15:50:08+02:00</time>
      </trkpt>
      <trkpt lat="46.39919" lon="4.88258">
        <ele>169.2998</ele>
        <time>2026-05-13T15:50:09+02:00</time>
      </trkpt>
      <trkpt lat="46.39924" lon="4.88263">
        <ele>169.5</ele>
        <time>2026-05-13T15:50:10+02:00</time>
      </trkpt>
      <trkpt lat="46.39929" lon="4.88267">
        <ele>169.40039</ele>
        <time>2026-05-13T15:50:11+02:00</time>
      </trkpt>
      <trkpt lat="46.39934" lon="4.88272">
        <ele>169.60059</ele>
        <time>2026-05-13T15:50:12+02:00</time>
      </trkpt>
      <trkpt lat="46.39938" lon="4.88276">
        <ele>169.2002</ele>
        <time>2026-05-13T15:50:13+02:00</time>
      </trkpt>
      <trkpt lat="46.39943" lon="4.8828">
        <ele>169.40039</ele>
        <time>2026-05-13T15:50:14+02:00</time>
      </trkpt>
      <trkpt lat="46.39948" lon="4.88285">
        <ele>169.2002</ele>
        <time>2026-05-13T15:50:15+02:00</time>
      </trkpt>
      <trkpt lat="46.39953" lon="4.8829">
        <ele>169.2998</ele>
        <time>2026-05-13T15:50:16+02:00</time>
      </trkpt>
      <trkpt lat="46.39958" lon="4.88294">
        <ele>169.2998</ele>
        <time>2026-05-13T15:50:17+02:00</time>
      </trkpt>
      <trkpt lat="46.39963" lon="4.88299">
        <ele>169.2998</ele>
        <time>2026-05-13T15:50:18+02:00</time>
      </trkpt>
      <trkpt lat="46.39968" lon="4.88304">
        <ele>169.2002</ele>
        <time>2026-05-13T15:50:19+02:00</time>
      </trkpt>
      <trkpt lat="46.39973" lon="4.88309">
        <ele>169</ele>
        <time>2026-05-13T15:50:20+02:00</time>
      </trkpt>
      <trkpt lat="46.39979" lon="4.88314">
        <ele>169</ele>
        <time>2026-05-13T15:50:21+02:00</time>
      </trkpt>
      <trkpt lat="46.39983" lon="4.88319">
        <ele>169.10059</ele>
        <time>2026-05-13T15:50:22+02:00</time>
      </trkpt>
      <trkpt lat="46.39989" lon="4.88323">
        <ele>169.2998</ele>
        <time>2026-05-13T15:50:23+02:00</time>
      </trkpt>
      <trkpt lat="46.39994" lon="4.88328">
        <ele>169.2998</ele>
        <time>2026-05-13T15:50:24+02:00</time>
      </trkpt>
      <trkpt lat="46.39999" lon="4.88333">
        <ele>169.40039</ele>
        <time>2026-05-13T15:50:25+02:00</time>
      </trkpt>
      <trkpt lat="46.40004" lon="4.88338">
        <ele>169.10059</ele>
        <time>2026-05-13T15:50:26+02:00</time>
      </trkpt>
      <trkpt lat="46.4001" lon="4.88343">
        <ele>169.10059</ele>
        <time>2026-05-13T15:50:27+02:00</time>
      </trkpt>
      <trkpt lat="46.40015" lon="4.88348">
        <ele>169.2002</ele>
        <time>2026-05-13T15:50:28+02:00</time>
      </trkpt>
      <trkpt lat="46.4002" lon="4.88353">
        <ele>169.2002</ele>
        <time>2026-05-13T15:50:29+02:00</time>
      </trkpt>
      <trkpt lat="46.40025" lon="4.88358">
        <ele>169.2998</ele>
        <time>2026-05-13T15:50:30+02:00</time>
      </trkpt>
      <trkpt lat="46.4003" lon="4.88363">
        <ele>169.2002</ele>
        <time>2026-05-13T15:50:31+02:00</time>
      </trkpt>
      <trkpt lat="46.40035" lon="4.88368">
        <ele>169.2998</ele>
        <time>2026-05-13T15:50:32+02:00</time>
      </trkpt>
      <trkpt lat="46.4004" lon="4.88373">
        <ele>169.10059</ele>
        <time>2026-05-13T15:50:33+02:00</time>
      </trkpt>
      <trkpt lat="46.40046" lon="4.88377">
        <ele>169</ele>
        <time>2026-05-13T15:50:34+02:00</time>
      </trkpt>
      <trkpt lat="46.40051" lon="4.88382">
        <ele>169</ele>
        <time>2026-05-13T15:50:35+02:00</time>
      </trkpt>
      <trkpt lat="46.40056" lon="4.88386">
        <ele>169</ele>
        <time>2026-05-13T15:50:36+02:00</time>
      </trkpt>
      <trkpt lat="46.40062" lon="4.8839">
        <ele>169</ele>
        <time>2026-05-13T15:50:37+02:00</time>
      </trkpt>
      <trkpt lat="46.40067" lon="4.88393">
        <ele>169</ele>
        <time>2026-05-13T15:50:38+02:00</time>
      </trkpt>
      <trkpt lat="46.40073" lon="4.88397">
        <ele>169</ele>
        <time>2026-05-13T15:50:39+02:00</time>
      </trkpt>
      <trkpt lat="46.40079" lon="4.884">
        <ele>169</ele>
        <time>2026-05-13T15:50:40+02:00</time>
      </trkpt>
      <trkpt lat="46.40085" lon="4.88404">
        <ele>168.90039</ele>
        <time>2026-05-13T15:50:41+02:00</time>
      </trkpt>
      <trkpt lat="46.4009" lon="4.88408">
        <ele>168.90039</ele>
        <time>2026-05-13T15:50:42+02:00</time>
      </trkpt>
      <trkpt lat="46.40096" lon="4.88411">
        <ele>168.90039</ele>
        <time>2026-05-13T15:50:43+02:00</time>
      </trkpt>
      <trkpt lat="46.40101" lon="4.88415">
        <ele>168.90039</ele>
        <time>2026-05-13T15:50:44+02:00</time>
      </trkpt>
      <trkpt lat="46.40107" lon="4.88418">
        <ele>169</ele>
        <time>2026-05-13T15:50:45+02:00</time>
      </trkpt>
      <trkpt lat="46.40112" lon="4.88422">
        <ele>169</ele>
        <time>2026-05-13T15:50:46+02:00</time>
      </trkpt>
      <trkpt lat="46.40118" lon="4.88425">
        <ele>169.10059</ele>
        <time>2026-05-13T15:50:47+02:00</time>
      </trkpt>
      <trkpt lat="46.40123" lon="4.88429">
        <ele>169</ele>
        <time>2026-05-13T15:50:48+02:00</time>
      </trkpt>
      <trkpt lat="46.40128" lon="4.88432">
        <ele>169.10059</ele>
        <time>2026-05-13T15:50:49+02:00</time>
      </trkpt>
      <trkpt lat="46.40133" lon="4.88435">
        <ele>169.2002</ele>
        <time>2026-05-13T15:50:50+02:00</time>
      </trkpt>
      <trkpt lat="46.40139" lon="4.88439">
        <ele>169.2002</ele>
        <time>2026-05-13T15:50:51+02:00</time>
      </trkpt>
      <trkpt lat="46.40144" lon="4.88442">
        <ele>169.40039</ele>
        <time>2026-05-13T15:50:52+02:00</time>
      </trkpt>
      <trkpt lat="46.40148" lon="4.88446">
        <ele>169.40039</ele>
        <time>2026-05-13T15:50:53+02:00</time>
      </trkpt>
      <trkpt lat="46.40153" lon="4.88449">
        <ele>169.60059</ele>
        <time>2026-05-13T15:50:54+02:00</time>
      </trkpt>
      <trkpt lat="46.40157" lon="4.88453">
        <ele>169.60059</ele>
        <time>2026-05-13T15:50:55+02:00</time>
      </trkpt>
      <trkpt lat="46.40162" lon="4.88457">
        <ele>169.2998</ele>
        <time>2026-05-13T15:50:56+02:00</time>
      </trkpt>
      <trkpt lat="46.40166" lon="4.88462">
        <ele>169.5</ele>
        <time>2026-05-13T15:50:57+02:00</time>
      </trkpt>
      <trkpt lat="46.4017" lon="4.88467">
        <ele>169.2002</ele>
        <time>2026-05-13T15:50:58+02:00</time>
      </trkpt>
      <trkpt lat="46.40175" lon="4.88472">
        <ele>169.2998</ele>
        <time>2026-05-13T15:50:59+02:00</time>
      </trkpt>
      <trkpt lat="46.40179" lon="4.88477">
        <ele>169.60059</ele>
        <time>2026-05-13T15:51:00+02:00</time>
      </trkpt>
      <trkpt lat="46.40183" lon="4.88482">
        <ele>169.2998</ele>
        <time>2026-05-13T15:51:01+02:00</time>
      </trkpt>
      <trkpt lat="46.40188" lon="4.88487">
        <ele>169.2998</ele>
        <time>2026-05-13T15:51:02+02:00</time>
      </trkpt>
      <trkpt lat="46.40192" lon="4.88493">
        <ele>169.10059</ele>
        <time>2026-05-13T15:51:03+02:00</time>
      </trkpt>
      <trkpt lat="46.40197" lon="4.88498">
        <ele>169.2002</ele>
        <time>2026-05-13T15:51:04+02:00</time>
      </trkpt>
      <trkpt lat="46.40202" lon="4.88502">
        <ele>169.5</ele>
        <time>2026-05-13T15:51:05+02:00</time>
      </trkpt>
      <trkpt lat="46.40207" lon="4.88507">
        <ele>169.2998</ele>
        <time>2026-05-13T15:51:06+02:00</time>
      </trkpt>
      <trkpt lat="46.40212" lon="4.88511">
        <ele>169.2998</ele>
        <time>2026-05-13T15:51:07+02:00</time>
      </trkpt>
      <trkpt lat="46.40218" lon="4.88516">
        <ele>169.2002</ele>
        <time>2026-05-13T15:51:08+02:00</time>
      </trkpt>
      <trkpt lat="46.40223" lon="4.8852">
        <ele>169.2002</ele>
        <time>2026-05-13T15:51:09+02:00</time>
      </trkpt>
      <trkpt lat="46.40229" lon="4.88525">
        <ele>169.2998</ele>
        <time>2026-05-13T15:51:10+02:00</time>
      </trkpt>
      <trkpt lat="46.40235" lon="4.88529">
        <ele>169.5</ele>
        <time>2026-05-13T15:51:11+02:00</time>
      </trkpt>
      <trkpt lat="46.4024" lon="4.88532">
        <ele>169.2998</ele>
        <time>2026-05-13T15:51:12+02:00</time>
      </trkpt>
      <trkpt lat="46.40246" lon="4.88536">
        <ele>169.40039</ele>
        <time>2026-05-13T15:51:13+02:00</time>
      </trkpt>
      <trkpt lat="46.40251" lon="4.8854">
        <ele>169.2998</ele>
        <time>2026-05-13T15:51:14+02:00</time>
      </trkpt>
      <trkpt lat="46.40256" lon="4.88544">
        <ele>169.5</ele>
        <time>2026-05-13T15:51:15+02:00</time>
      </trkpt>
      <trkpt lat="46.40262" lon="4.88548">
        <ele>169.7998</ele>
        <time>2026-05-13T15:51:16+02:00</time>
      </trkpt>
      <trkpt lat="46.40268" lon="4.88552">
        <ele>170</ele>
        <time>2026-05-13T15:51:17+02:00</time>
      </trkpt>
      <trkpt lat="46.40273" lon="4.88555">
        <ele>170.40039</ele>
        <time>2026-05-13T15:51:18+02:00</time>
      </trkpt>
      <trkpt lat="46.40279" lon="4.88559">
        <ele>170.10059</ele>
        <time>2026-05-13T15:51:19+02:00</time>
      </trkpt>
      <trkpt lat="46.40284" lon="4.88563">
        <ele>170</ele>
        <time>2026-05-13T15:51:20+02:00</time>
      </trkpt>
      <trkpt lat="46.40289" lon="4.88566">
        <ele>169.2002</ele>
        <time>2026-05-13T15:51:21+02:00</time>
      </trkpt>
      <trkpt lat="46.40295" lon="4.8857">
        <ele>169.10059</ele>
        <time>2026-05-13T15:51:22+02:00</time>
      </trkpt>
      <trkpt lat="46.403" lon="4.88574">
        <ele>169.10059</ele>
        <time>2026-05-13T15:51:23+02:00</time>
      </trkpt>
      <trkpt lat="46.40305" lon="4.88578">
        <ele>169</ele>
        <time>2026-05-13T15:51:24+02:00</time>
      </trkpt>
      <trkpt lat="46.40311" lon="4.88582">
        <ele>169.40039</ele>
        <time>2026-05-13T15:51:25+02:00</time>
      </trkpt>
      <trkpt lat="46.40316" lon="4.88586">
        <ele>169.90039</ele>
        <time>2026-05-13T15:51:26+02:00</time>
      </trkpt>
      <trkpt lat="46.40321" lon="4.8859">
        <ele>170.5</ele>
        <time>2026-05-13T15:51:27+02:00</time>
      </trkpt>
      <trkpt lat="46.40326" lon="4.88594">
        <ele>169.90039</ele>
        <time>2026-05-13T15:51:28+02:00</time>
      </trkpt>
      <trkpt lat="46.40332" lon="4.88597">
        <ele>170.10059</ele>
        <time>2026-05-13T15:51:29+02:00</time>
      </trkpt>
      <trkpt lat="46.40337" lon="4.88601">
        <ele>169.7998</ele>
        <time>2026-05-13T15:51:30+02:00</time>
      </trkpt>
      <trkpt lat="46.40342" lon="4.88605">
        <ele>169.7998</ele>
        <time>2026-05-13T15:51:31+02:00</time>
      </trkpt>
      <trkpt lat="46.40347" lon="4.88609">
        <ele>170.10059</ele>
        <time>2026-05-13T15:51:32+02:00</time>
      </trkpt>
      <trkpt lat="46.40353" lon="4.88613">
        <ele>170.2998</ele>
        <time>2026-05-13T15:51:33+02:00</time>
      </trkpt>
      <trkpt lat="46.40358" lon="4.88617">
        <ele>169.7998</ele>
        <time>2026-05-13T15:51:34+02:00</time>
      </trkpt>
      <trkpt lat="46.40363" lon="4.88621">
        <ele>169.7998</ele>
        <time>2026-05-13T15:51:35+02:00</time>
      </trkpt>
      <trkpt lat="46.40368" lon="4.88626">
        <ele>169.60059</ele>
        <time>2026-05-13T15:51:36+02:00</time>
      </trkpt>
      <trkpt lat="46.40373" lon="4.8863">
        <ele>169.7002</ele>
        <time>2026-05-13T15:51:37+02:00</time>
      </trkpt>
      <trkpt lat="46.40378" lon="4.88635">
        <ele>169.60059</ele>
        <time>2026-05-13T15:51:38+02:00</time>
      </trkpt>
      <trkpt lat="46.40383" lon="4.8864">
        <ele>169.60059</ele>
        <time>2026-05-13T15:51:39+02:00</time>
      </trkpt>
      <trkpt lat="46.40388" lon="4.88644">
        <ele>169.40039</ele>
        <time>2026-05-13T15:51:40+02:00</time>
      </trkpt>
      <trkpt lat="46.40394" lon="4.88649">
        <ele>169.40039</ele>
        <time>2026-05-13T15:51:41+02:00</time>
      </trkpt>
      <trkpt lat="46.40398" lon="4.88654">
        <ele>169.40039</ele>
        <time>2026-05-13T15:51:42+02:00</time>
      </trkpt>
      <trkpt lat="46.40403" lon="4.88659">
        <ele>169.5</ele>
        <time>2026-05-13T15:51:43+02:00</time>
      </trkpt>
      <trkpt lat="46.40408" lon="4.88664">
        <ele>169.5</ele>
        <time>2026-05-13T15:51:44+02:00</time>
      </trkpt>
      <trkpt lat="46.40413" lon="4.88668">
        <ele>169.5</ele>
        <time>2026-05-13T15:51:45+02:00</time>
      </trkpt>
      <trkpt lat="46.40418" lon="4.88672">
        <ele>169.5</ele>
        <time>2026-05-13T15:51:46+02:00</time>
      </trkpt>
      <trkpt lat="46.40423" lon="4.88676">
        <ele>169.60059</ele>
        <time>2026-05-13T15:51:47+02:00</time>
      </trkpt>
      <trkpt lat="46.40428" lon="4.8868">
        <ele>169.2998</ele>
        <time>2026-05-13T15:51:48+02:00</time>
      </trkpt>
      <trkpt lat="46.40434" lon="4.88684">
        <ele>169.2998</ele>
        <time>2026-05-13T15:51:49+02:00</time>
      </trkpt>
      <trkpt lat="46.40439" lon="4.88688">
        <ele>169</ele>
        <time>2026-05-13T15:51:50+02:00</time>
      </trkpt>
      <trkpt lat="46.40444" lon="4.88692">
        <ele>169.10059</ele>
        <time>2026-05-13T15:51:51+02:00</time>
      </trkpt>
      <trkpt lat="46.4045" lon="4.88695">
        <ele>169.2002</ele>
        <time>2026-05-13T15:51:52+02:00</time>
      </trkpt>
      <trkpt lat="46.40455" lon="4.88698">
        <ele>169.60059</ele>
        <time>2026-05-13T15:51:53+02:00</time>
      </trkpt>
      <trkpt lat="46.40461" lon="4.88702">
        <ele>169.90039</ele>
        <time>2026-05-13T15:51:54+02:00</time>
      </trkpt>
      <trkpt lat="46.40466" lon="4.88705">
        <ele>169.60059</ele>
        <time>2026-05-13T15:51:55+02:00</time>
      </trkpt>
      <trkpt lat="46.40472" lon="4.88707">
        <ele>169.7002</ele>
        <time>2026-05-13T15:51:56+02:00</time>
      </trkpt>
      <trkpt lat="46.40478" lon="4.8871">
        <ele>169.60059</ele>
        <time>2026-05-13T15:51:57+02:00</time>
      </trkpt>
      <trkpt lat="46.40483" lon="4.88712">
        <ele>169.10059</ele>
        <time>2026-05-13T15:51:58+02:00</time>
      </trkpt>
      <trkpt lat="46.40489" lon="4.88715">
        <ele>169</ele>
        <time>2026-05-13T15:51:59+02:00</time>
      </trkpt>
      <trkpt lat="46.40495" lon="4.88717">
        <ele>169.10059</ele>
        <time>2026-05-13T15:52:00+02:00</time>
      </trkpt>
      <trkpt lat="46.405" lon="4.88719">
        <ele>169.40039</ele>
        <time>2026-05-13T15:52:01+02:00</time>
      </trkpt>
      <trkpt lat="46.40506" lon="4.8872">
        <ele>169.40039</ele>
        <time>2026-05-13T15:52:02+02:00</time>
      </trkpt>
      <trkpt lat="46.40512" lon="4.88721">
        <ele>169.7998</ele>
        <time>2026-05-13T15:52:03+02:00</time>
      </trkpt>
      <trkpt lat="46.40518" lon="4.88722">
        <ele>170.10059</ele>
        <time>2026-05-13T15:52:04+02:00</time>
      </trkpt>
      <trkpt lat="46.40524" lon="4.88723">
        <ele>170.40039</ele>
        <time>2026-05-13T15:52:05+02:00</time>
      </trkpt>
      <trkpt lat="46.4053" lon="4.88724">
        <ele>170.7002</ele>
        <time>2026-05-13T15:52:06+02:00</time>
      </trkpt>
      <trkpt lat="46.40535" lon="4.88725">
        <ele>170.90039</ele>
        <time>2026-05-13T15:52:07+02:00</time>
      </trkpt>
      <trkpt lat="46.40541" lon="4.88726">
        <ele>171.10059</ele>
        <time>2026-05-13T15:52:08+02:00</time>
      </trkpt>
      <trkpt lat="46.40547" lon="4.88727">
        <ele>171.2998</ele>
        <time>2026-05-13T15:52:09+02:00</time>
      </trkpt>
      <trkpt lat="46.40552" lon="4.88728">
        <ele>171.40039</ele>
        <time>2026-05-13T15:52:10+02:00</time>
      </trkpt>
      <trkpt lat="46.40557" lon="4.88728">
        <ele>171.5</ele>
        <time>2026-05-13T15:52:11+02:00</time>
      </trkpt>
      <trkpt lat="46.40563" lon="4.88729">
        <ele>170.40039</ele>
        <time>2026-05-13T15:52:12+02:00</time>
      </trkpt>
      <trkpt lat="46.40568" lon="4.8873">
        <ele>170.40039</ele>
        <time>2026-05-13T15:52:13+02:00</time>
      </trkpt>
      <trkpt lat="46.40572" lon="4.88731">
        <ele>170.40039</ele>
        <time>2026-05-13T15:52:14+02:00</time>
      </trkpt>
      <trkpt lat="46.40578" lon="4.88732">
        <ele>170.40039</ele>
        <time>2026-05-13T15:52:15+02:00</time>
      </trkpt>
      <trkpt lat="46.40584" lon="4.88733">
        <ele>170.2998</ele>
        <time>2026-05-13T15:52:16+02:00</time>
      </trkpt>
      <trkpt lat="46.40589" lon="4.88733">
        <ele>170.2998</ele>
        <time>2026-05-13T15:52:17+02:00</time>
      </trkpt>
      <trkpt lat="46.40595" lon="4.88734">
        <ele>170.2002</ele>
        <time>2026-05-13T15:52:18+02:00</time>
      </trkpt>
      <trkpt lat="46.406" lon="4.88734">
        <ele>170.10059</ele>
        <time>2026-05-13T15:52:19+02:00</time>
      </trkpt>
      <trkpt lat="46.40606" lon="4.88735">
        <ele>169.90039</ele>
        <time>2026-05-13T15:52:20+02:00</time>
      </trkpt>
      <trkpt lat="46.40611" lon="4.88734">
        <ele>169.7998</ele>
        <time>2026-05-13T15:52:21+02:00</time>
      </trkpt>
      <trkpt lat="46.40617" lon="4.88734">
        <ele>169.60059</ele>
        <time>2026-05-13T15:52:22+02:00</time>
      </trkpt>
      <trkpt lat="46.40623" lon="4.88733">
        <ele>169.40039</ele>
        <time>2026-05-13T15:52:23+02:00</time>
      </trkpt>
      <trkpt lat="46.40629" lon="4.88732">
        <ele>169.2998</ele>
        <time>2026-05-13T15:52:24+02:00</time>
      </trkpt>
      <trkpt lat="46.40634" lon="4.88731">
        <ele>169.2998</ele>
        <time>2026-05-13T15:52:25+02:00</time>
      </trkpt>
      <trkpt lat="46.4064" lon="4.8873">
        <ele>169.2002</ele>
        <time>2026-05-13T15:52:26+02:00</time>
      </trkpt>
      <trkpt lat="46.40645" lon="4.88729">
        <ele>169.2002</ele>
        <time>2026-05-13T15:52:27+02:00</time>
      </trkpt>
      <trkpt lat="46.40651" lon="4.88727">
        <ele>169.40039</ele>
        <time>2026-05-13T15:52:28+02:00</time>
      </trkpt>
      <trkpt lat="46.40656" lon="4.88725">
        <ele>169.2998</ele>
        <time>2026-05-13T15:52:29+02:00</time>
      </trkpt>
      <trkpt lat="46.40662" lon="4.88724">
        <ele>169.2998</ele>
        <time>2026-05-13T15:52:30+02:00</time>
      </trkpt>
      <trkpt lat="46.40667" lon="4.88722">
        <ele>169.2998</ele>
        <time>2026-05-13T15:52:31+02:00</time>
      </trkpt>
      <trkpt lat="46.40672" lon="4.88719">
        <ele>169.5</ele>
        <time>2026-05-13T15:52:32+02:00</time>
      </trkpt>
      <trkpt lat="46.40677" lon="4.88717">
        <ele>169.5</ele>
        <time>2026-05-13T15:52:33+02:00</time>
      </trkpt>
      <trkpt lat="46.40683" lon="4.88715">
        <ele>169.40039</ele>
        <time>2026-05-13T15:52:34+02:00</time>
      </trkpt>
      <trkpt lat="46.40688" lon="4.88712">
        <ele>169.40039</ele>
        <time>2026-05-13T15:52:35+02:00</time>
      </trkpt>
      <trkpt lat="46.40693" lon="4.8871">
        <ele>169.5</ele>
        <time>2026-05-13T15:52:36+02:00</time>
      </trkpt>
      <trkpt lat="46.40698" lon="4.88708">
        <ele>169.5</ele>
        <time>2026-05-13T15:52:37+02:00</time>
      </trkpt>
      <trkpt lat="46.40703" lon="4.88706">
        <ele>169.5</ele>
        <time>2026-05-13T15:52:38+02:00</time>
      </trkpt>
      <trkpt lat="46.40709" lon="4.88704">
        <ele>169.40039</ele>
        <time>2026-05-13T15:52:39+02:00</time>
      </trkpt>
      <trkpt lat="46.40714" lon="4.88702">
        <ele>169.60059</ele>
        <time>2026-05-13T15:52:40+02:00</time>
      </trkpt>
      <trkpt lat="46.4072" lon="4.88701">
        <ele>169.5</ele>
        <time>2026-05-13T15:52:41+02:00</time>
      </trkpt>
      <trkpt lat="46.40725" lon="4.887">
        <ele>169.40039</ele>
        <time>2026-05-13T15:52:42+02:00</time>
      </trkpt>
      <trkpt lat="46.40731" lon="4.88699">
        <ele>169.2998</ele>
        <time>2026-05-13T15:52:43+02:00</time>
      </trkpt>
      <trkpt lat="46.40737" lon="4.88697">
        <ele>169.2002</ele>
        <time>2026-05-13T15:52:44+02:00</time>
      </trkpt>
      <trkpt lat="46.40743" lon="4.88696">
        <ele>169.10059</ele>
        <time>2026-05-13T15:52:45+02:00</time>
      </trkpt>
      <trkpt lat="46.40749" lon="4.88694">
        <ele>169.2002</ele>
        <time>2026-05-13T15:52:46+02:00</time>
      </trkpt>
      <trkpt lat="46.40755" lon="4.88693">
        <ele>169.10059</ele>
        <time>2026-05-13T15:52:47+02:00</time>
      </trkpt>
      <trkpt lat="46.40761" lon="4.88691">
        <ele>169</ele>
        <time>2026-05-13T15:52:48+02:00</time>
      </trkpt>
      <trkpt lat="46.40767" lon="4.8869">
        <ele>169</ele>
        <time>2026-05-13T15:52:49+02:00</time>
      </trkpt>
      <trkpt lat="46.40773" lon="4.88689">
        <ele>169</ele>
        <time>2026-05-13T15:52:50+02:00</time>
      </trkpt>
      <trkpt lat="46.40779" lon="4.88687">
        <ele>169</ele>
        <time>2026-05-13T15:52:51+02:00</time>
      </trkpt>
      <trkpt lat="46.40785" lon="4.88686">
        <ele>169</ele>
        <time>2026-05-13T15:52:52+02:00</time>
      </trkpt>
      <trkpt lat="46.40791" lon="4.88685">
        <ele>169.2002</ele>
        <time>2026-05-13T15:52:53+02:00</time>
      </trkpt>
      <trkpt lat="46.40809" lon="4.88681">
        <ele>169.10059</ele>
        <time>2026-05-13T15:52:54+02:00</time>
      </trkpt>
      <trkpt lat="46.40815" lon="4.8868">
        <ele>169.10059</ele>
        <time>2026-05-13T15:52:55+02:00</time>
      </trkpt>
      <trkpt lat="46.40821" lon="4.88679">
        <ele>169.10059</ele>
        <time>2026-05-13T15:52:56+02:00</time>
      </trkpt>
      <trkpt lat="46.40827" lon="4.88678">
        <ele>169.10059</ele>
        <time>2026-05-13T15:52:57+02:00</time>
      </trkpt>
      <trkpt lat="46.40832" lon="4.88677">
        <ele>169.40039</ele>
        <time>2026-05-13T15:52:58+02:00</time>
      </trkpt>
      <trkpt lat="46.40838" lon="4.88675">
        <ele>169.60059</ele>
        <time>2026-05-13T15:52:59+02:00</time>
      </trkpt>
      <trkpt lat="46.40844" lon="4.88674">
        <ele>169.7002</ele>
        <time>2026-05-13T15:53:00+02:00</time>
      </trkpt>
      <trkpt lat="46.4085" lon="4.88672">
        <ele>169.7998</ele>
        <time>2026-05-13T15:53:01+02:00</time>
      </trkpt>
      <trkpt lat="46.40856" lon="4.8867">
        <ele>169.7002</ele>
        <time>2026-05-13T15:53:02+02:00</time>
      </trkpt>
      <trkpt lat="46.40861" lon="4.88668">
        <ele>170.10059</ele>
        <time>2026-05-13T15:53:03+02:00</time>
      </trkpt>
      <trkpt lat="46.40867" lon="4.88666">
        <ele>169.7998</ele>
        <time>2026-05-13T15:53:04+02:00</time>
      </trkpt>
      <trkpt lat="46.40873" lon="4.88664">
        <ele>169.60059</ele>
        <time>2026-05-13T15:53:05+02:00</time>
      </trkpt>
      <trkpt lat="46.40879" lon="4.88662">
        <ele>169.5</ele>
        <time>2026-05-13T15:53:06+02:00</time>
      </trkpt>
      <trkpt lat="46.40885" lon="4.88659">
        <ele>169.60059</ele>
        <time>2026-05-13T15:53:07+02:00</time>
      </trkpt>
      <trkpt lat="46.40891" lon="4.88657">
        <ele>169.5</ele>
        <time>2026-05-13T15:53:08+02:00</time>
      </trkpt>
      <trkpt lat="46.40896" lon="4.88655">
        <ele>169.40039</ele>
        <time>2026-05-13T15:53:09+02:00</time>
      </trkpt>
      <trkpt lat="46.40902" lon="4.88652">
        <ele>169.5</ele>
        <time>2026-05-13T15:53:10+02:00</time>
      </trkpt>
      <trkpt lat="46.40908" lon="4.88649">
        <ele>169.7002</ele>
        <time>2026-05-13T15:53:11+02:00</time>
      </trkpt>
      <trkpt lat="46.40913" lon="4.88646">
        <ele>169.7998</ele>
        <time>2026-05-13T15:53:12+02:00</time>
      </trkpt>
      <trkpt lat="46.40918" lon="4.88642">
        <ele>169.7998</ele>
        <time>2026-05-13T15:53:13+02:00</time>
      </trkpt>
      <trkpt lat="46.40923" lon="4.88638">
        <ele>169.60059</ele>
        <time>2026-05-13T15:53:14+02:00</time>
      </trkpt>
      <trkpt lat="46.40928" lon="4.88633">
        <ele>169.7002</ele>
        <time>2026-05-13T15:53:15+02:00</time>
      </trkpt>
      <trkpt lat="46.40932" lon="4.88628">
        <ele>169.60059</ele>
        <time>2026-05-13T15:53:16+02:00</time>
      </trkpt>
      <trkpt lat="46.40936" lon="4.88623">
        <ele>169.7998</ele>
        <time>2026-05-13T15:53:17+02:00</time>
      </trkpt>
      <trkpt lat="46.40941" lon="4.88618">
        <ele>169.7998</ele>
        <time>2026-05-13T15:53:18+02:00</time>
      </trkpt>
      <trkpt lat="46.40945" lon="4.88613">
        <ele>170.2002</ele>
        <time>2026-05-13T15:53:19+02:00</time>
      </trkpt>
      <trkpt lat="46.40949" lon="4.88607">
        <ele>170.7002</ele>
        <time>2026-05-13T15:53:20+02:00</time>
      </trkpt>
      <trkpt lat="46.40954" lon="4.88602">
        <ele>170.7002</ele>
        <time>2026-05-13T15:53:21+02:00</time>
      </trkpt>
      <trkpt lat="46.40958" lon="4.88596">
        <ele>171.40039</ele>
        <time>2026-05-13T15:53:22+02:00</time>
      </trkpt>
      <trkpt lat="46.40962" lon="4.88591">
        <ele>172</ele>
        <time>2026-05-13T15:53:23+02:00</time>
      </trkpt>
      <trkpt lat="46.40967" lon="4.88586">
        <ele>172.2998</ele>
        <time>2026-05-13T15:53:24+02:00</time>
      </trkpt>
      <trkpt lat="46.40971" lon="4.88581">
        <ele>173.10059</ele>
        <time>2026-05-13T15:53:25+02:00</time>
      </trkpt>
      <trkpt lat="46.40975" lon="4.88577">
        <ele>173.10059</ele>
        <time>2026-05-13T15:53:26+02:00</time>
      </trkpt>
      <trkpt lat="46.40979" lon="4.88572">
        <ele>173</ele>
        <time>2026-05-13T15:53:27+02:00</time>
      </trkpt>
      <trkpt lat="46.40982" lon="4.88569">
        <ele>172.7998</ele>
        <time>2026-05-13T15:53:28+02:00</time>
      </trkpt>
      <trkpt lat="46.40985" lon="4.88567">
        <ele>172.7998</ele>
        <time>2026-05-13T15:53:29+02:00</time>
      </trkpt>
      <trkpt lat="46.40988" lon="4.88565">
        <ele>171.90039</ele>
        <time>2026-05-13T15:53:30+02:00</time>
      </trkpt>
      <trkpt lat="46.40991" lon="4.88563">
        <ele>171.90039</ele>
        <time>2026-05-13T15:53:31+02:00</time>
      </trkpt>
      <trkpt lat="46.40994" lon="4.88561">
        <ele>171.40039</ele>
        <time>2026-05-13T15:53:32+02:00</time>
      </trkpt>
      <trkpt lat="46.40998" lon="4.8856">
        <ele>171.40039</ele>
        <time>2026-05-13T15:53:33+02:00</time>
      </trkpt>
      <trkpt lat="46.41001" lon="4.88561">
        <ele>170.90039</ele>
        <time>2026-05-13T15:53:34+02:00</time>
      </trkpt>
      <trkpt lat="46.41005" lon="4.88563">
        <ele>170.90039</ele>
        <time>2026-05-13T15:53:35+02:00</time>
      </trkpt>
      <trkpt lat="46.41008" lon="4.88565">
        <ele>170.5</ele>
        <time>2026-05-13T15:53:36+02:00</time>
      </trkpt>
      <trkpt lat="46.4101" lon="4.88568">
        <ele>170.40039</ele>
        <time>2026-05-13T15:53:37+02:00</time>
      </trkpt>
      <trkpt lat="46.41013" lon="4.8857">
        <ele>170</ele>
        <time>2026-05-13T15:53:38+02:00</time>
      </trkpt>
      <trkpt lat="46.41016" lon="4.88573">
        <ele>170</ele>
        <time>2026-05-13T15:53:39+02:00</time>
      </trkpt>
      <trkpt lat="46.41019" lon="4.88575">
        <ele>169.7002</ele>
        <time>2026-05-13T15:53:40+02:00</time>
      </trkpt>
      <trkpt lat="46.41022" lon="4.88578">
        <ele>169.7002</ele>
        <time>2026-05-13T15:53:41+02:00</time>
      </trkpt>
      <trkpt lat="46.41025" lon="4.8858">
        <ele>169.60059</ele>
        <time>2026-05-13T15:53:42+02:00</time>
      </trkpt>
      <trkpt lat="46.41028" lon="4.88583">
        <ele>169.40039</ele>
        <time>2026-05-13T15:53:43+02:00</time>
      </trkpt>
      <trkpt lat="46.4103" lon="4.88584">
        <ele>169.2998</ele>
        <time>2026-05-13T15:53:44+02:00</time>
      </trkpt>
      <trkpt lat="46.41033" lon="4.88585">
        <ele>169.2998</ele>
        <time>2026-05-13T15:53:45+02:00</time>
      </trkpt>
      <trkpt lat="46.41036" lon="4.88586">
        <ele>169.2998</ele>
        <time>2026-05-13T15:53:46+02:00</time>
      </trkpt>
      <trkpt lat="46.41039" lon="4.88586">
        <ele>169.2998</ele>
        <time>2026-05-13T15:53:47+02:00</time>
      </trkpt>
      <trkpt lat="46.41042" lon="4.88587">
        <ele>169.2998</ele>
        <time>2026-05-13T15:53:48+02:00</time>
      </trkpt>
      <trkpt lat="46.41044" lon="4.88587">
        <ele>169.2998</ele>
        <time>2026-05-13T15:53:49+02:00</time>
      </trkpt>
      <trkpt lat="46.41047" lon="4.88587">
        <ele>169.2998</ele>
        <time>2026-05-13T15:53:50+02:00</time>
      </trkpt>
      <trkpt lat="46.41049" lon="4.88586">
        <ele>169.2998</ele>
        <time>2026-05-13T15:53:51+02:00</time>
      </trkpt>
      <trkpt lat="46.41051" lon="4.88585">
        <ele>169.2998</ele>
        <time>2026-05-13T15:53:52+02:00</time>
      </trkpt>
      <trkpt lat="46.41054" lon="4.88585">
        <ele>169.2998</ele>
        <time>2026-05-13T15:53:53+02:00</time>
      </trkpt>
      <trkpt lat="46.41057" lon="4.88585">
        <ele>169.2998</ele>
        <time>2026-05-13T15:53:54+02:00</time>
      </trkpt>
      <trkpt lat="46.4106" lon="4.88585">
        <ele>169.2998</ele>
        <time>2026-05-13T15:53:55+02:00</time>
      </trkpt>
      <trkpt lat="46.41063" lon="4.88584">
        <ele>169.2998</ele>
        <time>2026-05-13T15:53:56+02:00</time>
      </trkpt>
      <trkpt lat="46.41067" lon="4.88584">
        <ele>169.2998</ele>
        <time>2026-05-13T15:53:57+02:00</time>
      </trkpt>
      <trkpt lat="46.41071" lon="4.88584">
        <ele>169.2998</ele>
        <time>2026-05-13T15:53:58+02:00</time>
      </trkpt>
      <trkpt lat="46.41076" lon="4.88583">
        <ele>169.2998</ele>
        <time>2026-05-13T15:53:59+02:00</time>
      </trkpt>
      <trkpt lat="46.4108" lon="4.88582">
        <ele>169.60059</ele>
        <time>2026-05-13T15:54:00+02:00</time>
      </trkpt>
      <trkpt lat="46.41085" lon="4.88582">
        <ele>169.60059</ele>
        <time>2026-05-13T15:54:01+02:00</time>
      </trkpt>
      <trkpt lat="46.4109" lon="4.88581">
        <ele>169.60059</ele>
        <time>2026-05-13T15:54:02+02:00</time>
      </trkpt>
      <trkpt lat="46.41094" lon="4.88581">
        <ele>169.7002</ele>
        <time>2026-05-13T15:54:03+02:00</time>
      </trkpt>
      <trkpt lat="46.41099" lon="4.8858">
        <ele>169.7002</ele>
        <time>2026-05-13T15:54:04+02:00</time>
      </trkpt>
      <trkpt lat="46.41103" lon="4.8858">
        <ele>169.7998</ele>
        <time>2026-05-13T15:54:05+02:00</time>
      </trkpt>
      <trkpt lat="46.41108" lon="4.88579">
        <ele>169.90039</ele>
        <time>2026-05-13T15:54:06+02:00</time>
      </trkpt>
      <trkpt lat="46.41113" lon="4.88578">
        <ele>170</ele>
        <time>2026-05-13T15:54:07+02:00</time>
      </trkpt>
      <trkpt lat="46.41118" lon="4.88577">
        <ele>170.10059</ele>
        <time>2026-05-13T15:54:08+02:00</time>
      </trkpt>
      <trkpt lat="46.41122" lon="4.88576">
        <ele>170.10059</ele>
        <time>2026-05-13T15:54:09+02:00</time>
      </trkpt>
      <trkpt lat="46.41127" lon="4.88576">
        <ele>170.2002</ele>
        <time>2026-05-13T15:54:10+02:00</time>
      </trkpt>
      <trkpt lat="46.41132" lon="4.88575">
        <ele>170.2998</ele>
        <time>2026-05-13T15:54:11+02:00</time>
      </trkpt>
      <trkpt lat="46.41137" lon="4.88575">
        <ele>170.40039</ele>
        <time>2026-05-13T15:54:12+02:00</time>
      </trkpt>
      <trkpt lat="46.41141" lon="4.88574">
        <ele>170.7002</ele>
        <time>2026-05-13T15:54:13+02:00</time>
      </trkpt>
      <trkpt lat="46.41146" lon="4.88573">
        <ele>170.7002</ele>
        <time>2026-05-13T15:54:14+02:00</time>
      </trkpt>
      <trkpt lat="46.41151" lon="4.88573">
        <ele>170.7998</ele>
        <time>2026-05-13T15:54:15+02:00</time>
      </trkpt>
      <trkpt lat="46.41156" lon="4.88572">
        <ele>170.90039</ele>
        <time>2026-05-13T15:54:16+02:00</time>
      </trkpt>
      <trkpt lat="46.41161" lon="4.88572">
        <ele>171</ele>
        <time>2026-05-13T15:54:17+02:00</time>
      </trkpt>
      <trkpt lat="46.41166" lon="4.88571">
        <ele>171.2002</ele>
        <time>2026-05-13T15:54:18+02:00</time>
      </trkpt>
      <trkpt lat="46.41171" lon="4.8857">
        <ele>171.2998</ele>
        <time>2026-05-13T15:54:19+02:00</time>
      </trkpt>
      <trkpt lat="46.41177" lon="4.8857">
        <ele>171.40039</ele>
        <time>2026-05-13T15:54:20+02:00</time>
      </trkpt>
      <trkpt lat="46.41182" lon="4.88569">
        <ele>171.40039</ele>
        <time>2026-05-13T15:54:21+02:00</time>
      </trkpt>
      <trkpt lat="46.41187" lon="4.88569">
        <ele>171.5</ele>
        <time>2026-05-13T15:54:22+02:00</time>
      </trkpt>
      <trkpt lat="46.41193" lon="4.88568">
        <ele>171.60059</ele>
        <time>2026-05-13T15:54:23+02:00</time>
      </trkpt>
      <trkpt lat="46.41199" lon="4.88568">
        <ele>171.7002</ele>
        <time>2026-05-13T15:54:24+02:00</time>
      </trkpt>
      <trkpt lat="46.41204" lon="4.88569">
        <ele>171.7998</ele>
        <time>2026-05-13T15:54:25+02:00</time>
      </trkpt>
      <trkpt lat="46.4121" lon="4.8857">
        <ele>172</ele>
        <time>2026-05-13T15:54:26+02:00</time>
      </trkpt>
      <trkpt lat="46.41215" lon="4.8857">
        <ele>172.10059</ele>
        <time>2026-05-13T15:54:27+02:00</time>
      </trkpt>
      <trkpt lat="46.41221" lon="4.8857">
        <ele>172.2002</ele>
        <time>2026-05-13T15:54:28+02:00</time>
      </trkpt>
      <trkpt lat="46.41226" lon="4.88571">
        <ele>172.2002</ele>
        <time>2026-05-13T15:54:29+02:00</time>
      </trkpt>
      <trkpt lat="46.41232" lon="4.88572">
        <ele>172.2002</ele>
        <time>2026-05-13T15:54:30+02:00</time>
      </trkpt>
      <trkpt lat="46.41237" lon="4.88573">
        <ele>172</ele>
        <time>2026-05-13T15:54:31+02:00</time>
      </trkpt>
      <trkpt lat="46.41243" lon="4.88573">
        <ele>171.7002</ele>
        <time>2026-05-13T15:54:32+02:00</time>
      </trkpt>
      <trkpt lat="46.41248" lon="4.88574">
        <ele>171.5</ele>
        <time>2026-05-13T15:54:33+02:00</time>
      </trkpt>
      <trkpt lat="46.41253" lon="4.88574">
        <ele>171.5</ele>
        <time>2026-05-13T15:54:34+02:00</time>
      </trkpt>
      <trkpt lat="46.41259" lon="4.88575">
        <ele>171</ele>
        <time>2026-05-13T15:54:35+02:00</time>
      </trkpt>
      <trkpt lat="46.41264" lon="4.88575">
        <ele>170.90039</ele>
        <time>2026-05-13T15:54:36+02:00</time>
      </trkpt>
      <trkpt lat="46.41269" lon="4.88576">
        <ele>170.7998</ele>
        <time>2026-05-13T15:54:37+02:00</time>
      </trkpt>
      <trkpt lat="46.41275" lon="4.88576">
        <ele>170.7002</ele>
        <time>2026-05-13T15:54:38+02:00</time>
      </trkpt>
      <trkpt lat="46.4128" lon="4.88577">
        <ele>170.60059</ele>
        <time>2026-05-13T15:54:39+02:00</time>
      </trkpt>
      <trkpt lat="46.41285" lon="4.88577">
        <ele>170.5</ele>
        <time>2026-05-13T15:54:40+02:00</time>
      </trkpt>
      <trkpt lat="46.4129" lon="4.88578">
        <ele>170.5</ele>
        <time>2026-05-13T15:54:41+02:00</time>
      </trkpt>
      <trkpt lat="46.41296" lon="4.88579">
        <ele>170.40039</ele>
        <time>2026-05-13T15:54:42+02:00</time>
      </trkpt>
      <trkpt lat="46.41301" lon="4.88579">
        <ele>170.2998</ele>
        <time>2026-05-13T15:54:43+02:00</time>
      </trkpt>
      <trkpt lat="46.41307" lon="4.8858">
        <ele>170.2002</ele>
        <time>2026-05-13T15:54:44+02:00</time>
      </trkpt>
      <trkpt lat="46.41313" lon="4.8858">
        <ele>170.2002</ele>
        <time>2026-05-13T15:54:45+02:00</time>
      </trkpt>
      <trkpt lat="46.41318" lon="4.88581">
        <ele>170.2002</ele>
        <time>2026-05-13T15:54:46+02:00</time>
      </trkpt>
      <trkpt lat="46.41324" lon="4.88582">
        <ele>170.10059</ele>
        <time>2026-05-13T15:54:47+02:00</time>
      </trkpt>
      <trkpt lat="46.41329" lon="4.88582">
        <ele>170</ele>
        <time>2026-05-13T15:54:48+02:00</time>
      </trkpt>
      <trkpt lat="46.41335" lon="4.88583">
        <ele>169.60059</ele>
        <time>2026-05-13T15:54:49+02:00</time>
      </trkpt>
      <trkpt lat="46.4134" lon="4.88584">
        <ele>169.60059</ele>
        <time>2026-05-13T15:54:50+02:00</time>
      </trkpt>
      <trkpt lat="46.41346" lon="4.88584">
        <ele>169.60059</ele>
        <time>2026-05-13T15:54:51+02:00</time>
      </trkpt>
      <trkpt lat="46.41351" lon="4.88584">
        <ele>169.5</ele>
        <time>2026-05-13T15:54:52+02:00</time>
      </trkpt>
      <trkpt lat="46.41357" lon="4.88585">
        <ele>169.5</ele>
        <time>2026-05-13T15:54:53+02:00</time>
      </trkpt>
      <trkpt lat="46.41363" lon="4.88586">
        <ele>169.5</ele>
        <time>2026-05-13T15:54:54+02:00</time>
      </trkpt>
      <trkpt lat="46.41368" lon="4.88587">
        <ele>169.5</ele>
        <time>2026-05-13T15:54:55+02:00</time>
      </trkpt>
      <trkpt lat="46.41374" lon="4.88587">
        <ele>169.5</ele>
        <time>2026-05-13T15:54:56+02:00</time>
      </trkpt>
      <trkpt lat="46.4138" lon="4.88588">
        <ele>169.5</ele>
        <time>2026-05-13T15:54:57+02:00</time>
      </trkpt>
      <trkpt lat="46.41385" lon="4.88588">
        <ele>169.40039</ele>
        <time>2026-05-13T15:54:58+02:00</time>
      </trkpt>
      <trkpt lat="46.4139" lon="4.88589">
        <ele>169.40039</ele>
        <time>2026-05-13T15:54:59+02:00</time>
      </trkpt>
      <trkpt lat="46.41396" lon="4.88589">
        <ele>169.5</ele>
        <time>2026-05-13T15:55:00+02:00</time>
      </trkpt>
      <trkpt lat="46.41401" lon="4.88589">
        <ele>169.5</ele>
        <time>2026-05-13T15:55:01+02:00</time>
      </trkpt>
      <trkpt lat="46.41407" lon="4.8859">
        <ele>169.5</ele>
        <time>2026-05-13T15:55:02+02:00</time>
      </trkpt>
      <trkpt lat="46.41412" lon="4.8859">
        <ele>169.5</ele>
        <time>2026-05-13T15:55:03+02:00</time>
      </trkpt>
      <trkpt lat="46.41417" lon="4.88591">
        <ele>169.40039</ele>
        <time>2026-05-13T15:55:04+02:00</time>
      </trkpt>
      <trkpt lat="46.41423" lon="4.88592">
        <ele>169.2998</ele>
        <time>2026-05-13T15:55:05+02:00</time>
      </trkpt>
      <trkpt lat="46.41428" lon="4.88593">
        <ele>169.2998</ele>
        <time>2026-05-13T15:55:06+02:00</time>
      </trkpt>
      <trkpt lat="46.41433" lon="4.88594">
        <ele>169.2998</ele>
        <time>2026-05-13T15:55:07+02:00</time>
      </trkpt>
      <trkpt lat="46.41439" lon="4.88594">
        <ele>169.2998</ele>
        <time>2026-05-13T15:55:08+02:00</time>
      </trkpt>
      <trkpt lat="46.41445" lon="4.88596">
        <ele>169.2998</ele>
        <time>2026-05-13T15:55:09+02:00</time>
      </trkpt>
      <trkpt lat="46.4145" lon="4.88597">
        <ele>169.2998</ele>
        <time>2026-05-13T15:55:10+02:00</time>
      </trkpt>
      <trkpt lat="46.41455" lon="4.88599">
        <ele>169.2998</ele>
        <time>2026-05-13T15:55:11+02:00</time>
      </trkpt>
      <trkpt lat="46.41461" lon="4.88601">
        <ele>169.2002</ele>
        <time>2026-05-13T15:55:12+02:00</time>
      </trkpt>
      <trkpt lat="46.41466" lon="4.88602">
        <ele>169.2002</ele>
        <time>2026-05-13T15:55:13+02:00</time>
      </trkpt>
      <trkpt lat="46.41472" lon="4.88604">
        <ele>169.10059</ele>
        <time>2026-05-13T15:55:14+02:00</time>
      </trkpt>
      <trkpt lat="46.41477" lon="4.88605">
        <ele>169.10059</ele>
        <time>2026-05-13T15:55:15+02:00</time>
      </trkpt>
      <trkpt lat="46.41483" lon="4.88607">
        <ele>169.10059</ele>
        <time>2026-05-13T15:55:16+02:00</time>
      </trkpt>
      <trkpt lat="46.41488" lon="4.88609">
        <ele>169.10059</ele>
        <time>2026-05-13T15:55:17+02:00</time>
      </trkpt>
      <trkpt lat="46.41494" lon="4.8861">
        <ele>169.10059</ele>
        <time>2026-05-13T15:55:18+02:00</time>
      </trkpt>
      <trkpt lat="46.41499" lon="4.88612">
        <ele>169.10059</ele>
        <time>2026-05-13T15:55:19+02:00</time>
      </trkpt>
      <trkpt lat="46.41505" lon="4.88614">
        <ele>169.10059</ele>
        <time>2026-05-13T15:55:20+02:00</time>
      </trkpt>
      <trkpt lat="46.41511" lon="4.88615">
        <ele>169.10059</ele>
        <time>2026-05-13T15:55:21+02:00</time>
      </trkpt>
      <trkpt lat="46.41516" lon="4.88617">
        <ele>169.10059</ele>
        <time>2026-05-13T15:55:22+02:00</time>
      </trkpt>
      <trkpt lat="46.41522" lon="4.88618">
        <ele>169.10059</ele>
        <time>2026-05-13T15:55:23+02:00</time>
      </trkpt>
      <trkpt lat="46.41527" lon="4.8862">
        <ele>169.10059</ele>
        <time>2026-05-13T15:55:24+02:00</time>
      </trkpt>
      <trkpt lat="46.41532" lon="4.88622">
        <ele>169.2002</ele>
        <time>2026-05-13T15:55:25+02:00</time>
      </trkpt>
      <trkpt lat="46.41538" lon="4.88624">
        <ele>169.2998</ele>
        <time>2026-05-13T15:55:26+02:00</time>
      </trkpt>
      <trkpt lat="46.41543" lon="4.88626">
        <ele>169.2002</ele>
        <time>2026-05-13T15:55:27+02:00</time>
      </trkpt>
      <trkpt lat="46.41549" lon="4.88628">
        <ele>169.2998</ele>
        <time>2026-05-13T15:55:28+02:00</time>
      </trkpt>
      <trkpt lat="46.41554" lon="4.8863">
        <ele>169.2998</ele>
        <time>2026-05-13T15:55:29+02:00</time>
      </trkpt>
      <trkpt lat="46.4156" lon="4.88632">
        <ele>169.40039</ele>
        <time>2026-05-13T15:55:30+02:00</time>
      </trkpt>
      <trkpt lat="46.41565" lon="4.88633">
        <ele>169.40039</ele>
        <time>2026-05-13T15:55:31+02:00</time>
      </trkpt>
      <trkpt lat="46.41571" lon="4.88635">
        <ele>169.40039</ele>
        <time>2026-05-13T15:55:32+02:00</time>
      </trkpt>
      <trkpt lat="46.41577" lon="4.88637">
        <ele>169.5</ele>
        <time>2026-05-13T15:55:33+02:00</time>
      </trkpt>
      <trkpt lat="46.41581" lon="4.88639">
        <ele>169.60059</ele>
        <time>2026-05-13T15:55:34+02:00</time>
      </trkpt>
      <trkpt lat="46.41586" lon="4.8864">
        <ele>169.60059</ele>
        <time>2026-05-13T15:55:35+02:00</time>
      </trkpt>
      <trkpt lat="46.41591" lon="4.88642">
        <ele>169.7002</ele>
        <time>2026-05-13T15:55:36+02:00</time>
      </trkpt>
      <trkpt lat="46.41597" lon="4.88643">
        <ele>169.7002</ele>
        <time>2026-05-13T15:55:37+02:00</time>
      </trkpt>
      <trkpt lat="46.41602" lon="4.88645">
        <ele>169.7002</ele>
        <time>2026-05-13T15:55:38+02:00</time>
      </trkpt>
      <trkpt lat="46.41607" lon="4.88648">
        <ele>169.7002</ele>
        <time>2026-05-13T15:55:39+02:00</time>
      </trkpt>
      <trkpt lat="46.41613" lon="4.8865">
        <ele>169.7002</ele>
        <time>2026-05-13T15:55:40+02:00</time>
      </trkpt>
      <trkpt lat="46.41618" lon="4.88651">
        <ele>169.7002</ele>
        <time>2026-05-13T15:55:41+02:00</time>
      </trkpt>
      <trkpt lat="46.41623" lon="4.88653">
        <ele>169.60059</ele>
        <time>2026-05-13T15:55:42+02:00</time>
      </trkpt>
      <trkpt lat="46.41628" lon="4.88655">
        <ele>169.60059</ele>
        <time>2026-05-13T15:55:43+02:00</time>
      </trkpt>
      <trkpt lat="46.41634" lon="4.88657">
        <ele>169.60059</ele>
        <time>2026-05-13T15:55:44+02:00</time>
      </trkpt>
      <trkpt lat="46.41639" lon="4.88658">
        <ele>169.60059</ele>
        <time>2026-05-13T15:55:45+02:00</time>
      </trkpt>
      <trkpt lat="46.41644" lon="4.8866">
        <ele>169.2998</ele>
        <time>2026-05-13T15:55:46+02:00</time>
      </trkpt>
      <trkpt lat="46.41649" lon="4.88661">
        <ele>169.40039</ele>
        <time>2026-05-13T15:55:47+02:00</time>
      </trkpt>
      <trkpt lat="46.41655" lon="4.88663">
        <ele>169.60059</ele>
        <time>2026-05-13T15:55:48+02:00</time>
      </trkpt>
      <trkpt lat="46.4166" lon="4.88665">
        <ele>169.7998</ele>
        <time>2026-05-13T15:55:49+02:00</time>
      </trkpt>
      <trkpt lat="46.41665" lon="4.88666">
        <ele>169.90039</ele>
        <time>2026-05-13T15:55:50+02:00</time>
      </trkpt>
      <trkpt lat="46.4167" lon="4.88668">
        <ele>170</ele>
        <time>2026-05-13T15:55:51+02:00</time>
      </trkpt>
      <trkpt lat="46.41676" lon="4.88669">
        <ele>170.10059</ele>
        <time>2026-05-13T15:55:52+02:00</time>
      </trkpt>
      <trkpt lat="46.41681" lon="4.8867">
        <ele>170.2002</ele>
        <time>2026-05-13T15:55:53+02:00</time>
      </trkpt>
      <trkpt lat="46.41686" lon="4.88672">
        <ele>170.2998</ele>
        <time>2026-05-13T15:55:54+02:00</time>
      </trkpt>
      <trkpt lat="46.41691" lon="4.88673">
        <ele>170.2998</ele>
        <time>2026-05-13T15:55:55+02:00</time>
      </trkpt>
      <trkpt lat="46.41697" lon="4.88673">
        <ele>170.40039</ele>
        <time>2026-05-13T15:55:56+02:00</time>
      </trkpt>
      <trkpt lat="46.41702" lon="4.88674">
        <ele>170.60059</ele>
        <time>2026-05-13T15:55:57+02:00</time>
      </trkpt>
      <trkpt lat="46.41708" lon="4.88674">
        <ele>170.7002</ele>
        <time>2026-05-13T15:55:58+02:00</time>
      </trkpt>
      <trkpt lat="46.41713" lon="4.88675">
        <ele>170.90039</ele>
        <time>2026-05-13T15:55:59+02:00</time>
      </trkpt>
      <trkpt lat="46.41718" lon="4.88675">
        <ele>171</ele>
        <time>2026-05-13T15:56:00+02:00</time>
      </trkpt>
      <trkpt lat="46.41724" lon="4.88675">
        <ele>171.10059</ele>
        <time>2026-05-13T15:56:01+02:00</time>
      </trkpt>
      <trkpt lat="46.41729" lon="4.88675">
        <ele>171.2002</ele>
        <time>2026-05-13T15:56:02+02:00</time>
      </trkpt>
      <trkpt lat="46.41734" lon="4.88674">
        <ele>171.2998</ele>
        <time>2026-05-13T15:56:03+02:00</time>
      </trkpt>
      <trkpt lat="46.41739" lon="4.88674">
        <ele>171.2998</ele>
        <time>2026-05-13T15:56:04+02:00</time>
      </trkpt>
      <trkpt lat="46.41744" lon="4.88674">
        <ele>171.2998</ele>
        <time>2026-05-13T15:56:05+02:00</time>
      </trkpt>
      <trkpt lat="46.41749" lon="4.88675">
        <ele>171.2998</ele>
        <time>2026-05-13T15:56:06+02:00</time>
      </trkpt>
      <trkpt lat="46.41754" lon="4.88677">
        <ele>171.2998</ele>
        <time>2026-05-13T15:56:07+02:00</time>
      </trkpt>
      <trkpt lat="46.41759" lon="4.88681">
        <ele>170.5</ele>
        <time>2026-05-13T15:56:08+02:00</time>
      </trkpt>
      <trkpt lat="46.41764" lon="4.88685">
        <ele>170.40039</ele>
        <time>2026-05-13T15:56:09+02:00</time>
      </trkpt>
      <trkpt lat="46.41769" lon="4.8869">
        <ele>169.40039</ele>
        <time>2026-05-13T15:56:10+02:00</time>
      </trkpt>
      <trkpt lat="46.41774" lon="4.88693">
        <ele>169.40039</ele>
        <time>2026-05-13T15:56:11+02:00</time>
      </trkpt>
      <trkpt lat="46.41779" lon="4.88697">
        <ele>169</ele>
        <time>2026-05-13T15:56:12+02:00</time>
      </trkpt>
      <trkpt lat="46.41785" lon="4.88699">
        <ele>169</ele>
        <time>2026-05-13T15:56:13+02:00</time>
      </trkpt>
      <trkpt lat="46.41791" lon="4.88702">
        <ele>168.90039</ele>
        <time>2026-05-13T15:56:14+02:00</time>
      </trkpt>
      <trkpt lat="46.41796" lon="4.88703">
        <ele>168.90039</ele>
        <time>2026-05-13T15:56:15+02:00</time>
      </trkpt>
      <trkpt lat="46.41802" lon="4.88705">
        <ele>168.90039</ele>
        <time>2026-05-13T15:56:16+02:00</time>
      </trkpt>
      <trkpt lat="46.41808" lon="4.88706">
        <ele>168.90039</ele>
        <time>2026-05-13T15:56:17+02:00</time>
      </trkpt>
      <trkpt lat="46.41814" lon="4.88707">
        <ele>168.90039</ele>
        <time>2026-05-13T15:56:18+02:00</time>
      </trkpt>
      <trkpt lat="46.4182" lon="4.88708">
        <ele>168.90039</ele>
        <time>2026-05-13T15:56:19+02:00</time>
      </trkpt>
      <trkpt lat="46.41826" lon="4.88709">
        <ele>168.90039</ele>
        <time>2026-05-13T15:56:20+02:00</time>
      </trkpt>
      <trkpt lat="46.41832" lon="4.8871">
        <ele>168.90039</ele>
        <time>2026-05-13T15:56:21+02:00</time>
      </trkpt>
      <trkpt lat="46.41838" lon="4.8871">
        <ele>168.90039</ele>
        <time>2026-05-13T15:56:22+02:00</time>
      </trkpt>
      <trkpt lat="46.41844" lon="4.8871">
        <ele>168.90039</ele>
        <time>2026-05-13T15:56:23+02:00</time>
      </trkpt>
      <trkpt lat="46.41849" lon="4.8871">
        <ele>168.90039</ele>
        <time>2026-05-13T15:56:24+02:00</time>
      </trkpt>
      <trkpt lat="46.41854" lon="4.8871">
        <ele>169</ele>
        <time>2026-05-13T15:56:25+02:00</time>
      </trkpt>
      <trkpt lat="46.4186" lon="4.8871">
        <ele>169</ele>
        <time>2026-05-13T15:56:26+02:00</time>
      </trkpt>
      <trkpt lat="46.41865" lon="4.8871">
        <ele>169.2002</ele>
        <time>2026-05-13T15:56:27+02:00</time>
      </trkpt>
      <trkpt lat="46.4187" lon="4.88711">
        <ele>169.40039</ele>
        <time>2026-05-13T15:56:28+02:00</time>
      </trkpt>
      <trkpt lat="46.41876" lon="4.88711">
        <ele>169.7002</ele>
        <time>2026-05-13T15:56:29+02:00</time>
      </trkpt>
      <trkpt lat="46.41882" lon="4.88712">
        <ele>169.10059</ele>
        <time>2026-05-13T15:56:30+02:00</time>
      </trkpt>
      <trkpt lat="46.41887" lon="4.88712">
        <ele>169.10059</ele>
        <time>2026-05-13T15:56:31+02:00</time>
      </trkpt>
      <trkpt lat="46.41894" lon="4.88713">
        <ele>169.10059</ele>
        <time>2026-05-13T15:56:32+02:00</time>
      </trkpt>
      <trkpt lat="46.41899" lon="4.88714">
        <ele>169.10059</ele>
        <time>2026-05-13T15:56:33+02:00</time>
      </trkpt>
      <trkpt lat="46.41905" lon="4.88714">
        <ele>169</ele>
        <time>2026-05-13T15:56:34+02:00</time>
      </trkpt>
      <trkpt lat="46.41911" lon="4.88715">
        <ele>169</ele>
        <time>2026-05-13T15:56:35+02:00</time>
      </trkpt>
      <trkpt lat="46.41917" lon="4.88716">
        <ele>169</ele>
        <time>2026-05-13T15:56:36+02:00</time>
      </trkpt>
      <trkpt lat="46.41923" lon="4.88718">
        <ele>169</ele>
        <time>2026-05-13T15:56:37+02:00</time>
      </trkpt>
      <trkpt lat="46.41928" lon="4.88719">
        <ele>169</ele>
        <time>2026-05-13T15:56:38+02:00</time>
      </trkpt>
      <trkpt lat="46.41934" lon="4.8872">
        <ele>168.7998</ele>
        <time>2026-05-13T15:56:39+02:00</time>
      </trkpt>
      <trkpt lat="46.4194" lon="4.88721">
        <ele>168.90039</ele>
        <time>2026-05-13T15:56:40+02:00</time>
      </trkpt>
      <trkpt lat="46.41945" lon="4.88723">
        <ele>168.90039</ele>
        <time>2026-05-13T15:56:41+02:00</time>
      </trkpt>
      <trkpt lat="46.41951" lon="4.88724">
        <ele>168.90039</ele>
        <time>2026-05-13T15:56:42+02:00</time>
      </trkpt>
      <trkpt lat="46.41957" lon="4.88725">
        <ele>169</ele>
        <time>2026-05-13T15:56:43+02:00</time>
      </trkpt>
      <trkpt lat="46.41963" lon="4.88726">
        <ele>169</ele>
        <time>2026-05-13T15:56:44+02:00</time>
      </trkpt>
      <trkpt lat="46.41969" lon="4.88727">
        <ele>169</ele>
        <time>2026-05-13T15:56:45+02:00</time>
      </trkpt>
      <trkpt lat="46.41975" lon="4.88728">
        <ele>169</ele>
        <time>2026-05-13T15:56:46+02:00</time>
      </trkpt>
      <trkpt lat="46.4198" lon="4.88729">
        <ele>169</ele>
        <time>2026-05-13T15:56:47+02:00</time>
      </trkpt>
      <trkpt lat="46.41987" lon="4.8873">
        <ele>169</ele>
        <time>2026-05-13T15:56:48+02:00</time>
      </trkpt>
      <trkpt lat="46.41992" lon="4.88731">
        <ele>169</ele>
        <time>2026-05-13T15:56:49+02:00</time>
      </trkpt>
      <trkpt lat="46.41998" lon="4.88733">
        <ele>169</ele>
        <time>2026-05-13T15:56:50+02:00</time>
      </trkpt>
      <trkpt lat="46.42004" lon="4.88734">
        <ele>169</ele>
        <time>2026-05-13T15:56:51+02:00</time>
      </trkpt>
      <trkpt lat="46.4201" lon="4.88735">
        <ele>169</ele>
        <time>2026-05-13T15:56:52+02:00</time>
      </trkpt>
      <trkpt lat="46.42016" lon="4.88736">
        <ele>169</ele>
        <time>2026-05-13T15:56:53+02:00</time>
      </trkpt>
      <trkpt lat="46.42022" lon="4.88737">
        <ele>169</ele>
        <time>2026-05-13T15:56:54+02:00</time>
      </trkpt>
      <trkpt lat="46.42027" lon="4.88738">
        <ele>169</ele>
        <time>2026-05-13T15:56:55+02:00</time>
      </trkpt>
      <trkpt lat="46.42033" lon="4.88739">
        <ele>169</ele>
        <time>2026-05-13T15:56:56+02:00</time>
      </trkpt>
      <trkpt lat="46.42039" lon="4.8874">
        <ele>168.90039</ele>
        <time>2026-05-13T15:56:57+02:00</time>
      </trkpt>
      <trkpt lat="46.42045" lon="4.88742">
        <ele>168.90039</ele>
        <time>2026-05-13T15:56:58+02:00</time>
      </trkpt>
      <trkpt lat="46.42051" lon="4.88743">
        <ele>169</ele>
        <time>2026-05-13T15:56:59+02:00</time>
      </trkpt>
      <trkpt lat="46.42056" lon="4.88744">
        <ele>169.10059</ele>
        <time>2026-05-13T15:57:00+02:00</time>
      </trkpt>
      <trkpt lat="46.42062" lon="4.88745">
        <ele>169.40039</ele>
        <time>2026-05-13T15:57:01+02:00</time>
      </trkpt>
      <trkpt lat="46.42068" lon="4.88747">
        <ele>169.40039</ele>
        <time>2026-05-13T15:57:02+02:00</time>
      </trkpt>
      <trkpt lat="46.42074" lon="4.88748">
        <ele>169.5</ele>
        <time>2026-05-13T15:57:03+02:00</time>
      </trkpt>
      <trkpt lat="46.4208" lon="4.88749">
        <ele>169.60059</ele>
        <time>2026-05-13T15:57:04+02:00</time>
      </trkpt>
      <trkpt lat="46.42085" lon="4.8875">
        <ele>169.7998</ele>
        <time>2026-05-13T15:57:05+02:00</time>
      </trkpt>
      <trkpt lat="46.42091" lon="4.88752">
        <ele>169.90039</ele>
        <time>2026-05-13T15:57:06+02:00</time>
      </trkpt>
      <trkpt lat="46.42097" lon="4.88754">
        <ele>170</ele>
        <time>2026-05-13T15:57:07+02:00</time>
      </trkpt>
      <trkpt lat="46.42103" lon="4.88756">
        <ele>169.2002</ele>
        <time>2026-05-13T15:57:08+02:00</time>
      </trkpt>
      <trkpt lat="46.42109" lon="4.88758">
        <ele>169.2002</ele>
        <time>2026-05-13T15:57:09+02:00</time>
      </trkpt>
      <trkpt lat="46.42115" lon="4.88759">
        <ele>169.10059</ele>
        <time>2026-05-13T15:57:10+02:00</time>
      </trkpt>
      <trkpt lat="46.4212" lon="4.88761">
        <ele>169.10059</ele>
        <time>2026-05-13T15:57:11+02:00</time>
      </trkpt>
      <trkpt lat="46.42127" lon="4.88762">
        <ele>169.10059</ele>
        <time>2026-05-13T15:57:12+02:00</time>
      </trkpt>
      <trkpt lat="46.42132" lon="4.88763">
        <ele>168.90039</ele>
        <time>2026-05-13T15:57:13+02:00</time>
      </trkpt>
      <trkpt lat="46.42138" lon="4.88764">
        <ele>168.90039</ele>
        <time>2026-05-13T15:57:14+02:00</time>
      </trkpt>
      <trkpt lat="46.42144" lon="4.88765">
        <ele>168.7998</ele>
        <time>2026-05-13T15:57:15+02:00</time>
      </trkpt>
      <trkpt lat="46.42149" lon="4.88766">
        <ele>168.7998</ele>
        <time>2026-05-13T15:57:16+02:00</time>
      </trkpt>
      <trkpt lat="46.42156" lon="4.88767">
        <ele>168.7998</ele>
        <time>2026-05-13T15:57:17+02:00</time>
      </trkpt>
      <trkpt lat="46.42161" lon="4.88768">
        <ele>168.7998</ele>
        <time>2026-05-13T15:57:18+02:00</time>
      </trkpt>
      <trkpt lat="46.42167" lon="4.8877">
        <ele>168.7998</ele>
        <time>2026-05-13T15:57:19+02:00</time>
      </trkpt>
      <trkpt lat="46.42173" lon="4.88771">
        <ele>168.7998</ele>
        <time>2026-05-13T15:57:20+02:00</time>
      </trkpt>
      <trkpt lat="46.42179" lon="4.88772">
        <ele>168.90039</ele>
        <time>2026-05-13T15:57:21+02:00</time>
      </trkpt>
      <trkpt lat="46.42185" lon="4.88773">
        <ele>168.90039</ele>
        <time>2026-05-13T15:57:22+02:00</time>
      </trkpt>
      <trkpt lat="46.4219" lon="4.88774">
        <ele>168.90039</ele>
        <time>2026-05-13T15:57:23+02:00</time>
      </trkpt>
      <trkpt lat="46.42196" lon="4.88775">
        <ele>168.90039</ele>
        <time>2026-05-13T15:57:24+02:00</time>
      </trkpt>
      <trkpt lat="46.42202" lon="4.88776">
        <ele>168.90039</ele>
        <time>2026-05-13T15:57:25+02:00</time>
      </trkpt>
      <trkpt lat="46.42208" lon="4.88778">
        <ele>168.90039</ele>
        <time>2026-05-13T15:57:26+02:00</time>
      </trkpt>
      <trkpt lat="46.42214" lon="4.88779">
        <ele>169</ele>
        <time>2026-05-13T15:57:27+02:00</time>
      </trkpt>
      <trkpt lat="46.4222" lon="4.8878">
        <ele>169</ele>
        <time>2026-05-13T15:57:28+02:00</time>
      </trkpt>
      <trkpt lat="46.42225" lon="4.88781">
        <ele>169</ele>
        <time>2026-05-13T15:57:29+02:00</time>
      </trkpt>
      <trkpt lat="46.42231" lon="4.88782">
        <ele>169</ele>
        <time>2026-05-13T15:57:30+02:00</time>
      </trkpt>
      <trkpt lat="46.42237" lon="4.88783">
        <ele>169</ele>
        <time>2026-05-13T15:57:31+02:00</time>
      </trkpt>
      <trkpt lat="46.42243" lon="4.88784">
        <ele>169</ele>
        <time>2026-05-13T15:57:32+02:00</time>
      </trkpt>
      <trkpt lat="46.42248" lon="4.88785">
        <ele>168.90039</ele>
        <time>2026-05-13T15:57:33+02:00</time>
      </trkpt>
      <trkpt lat="46.42254" lon="4.88786">
        <ele>168.90039</ele>
        <time>2026-05-13T15:57:34+02:00</time>
      </trkpt>
      <trkpt lat="46.4226" lon="4.88788">
        <ele>168.90039</ele>
        <time>2026-05-13T15:57:35+02:00</time>
      </trkpt>
      <trkpt lat="46.42266" lon="4.88789">
        <ele>168.7998</ele>
        <time>2026-05-13T15:57:36+02:00</time>
      </trkpt>
      <trkpt lat="46.42272" lon="4.8879">
        <ele>168.7998</ele>
        <time>2026-05-13T15:57:37+02:00</time>
      </trkpt>
      <trkpt lat="46.42278" lon="4.88791">
        <ele>168.7998</ele>
        <time>2026-05-13T15:57:38+02:00</time>
      </trkpt>
      <trkpt lat="46.42284" lon="4.88792">
        <ele>168.7998</ele>
        <time>2026-05-13T15:57:39+02:00</time>
      </trkpt>
      <trkpt lat="46.42289" lon="4.88793">
        <ele>168.7998</ele>
        <time>2026-05-13T15:57:40+02:00</time>
      </trkpt>
      <trkpt lat="46.42296" lon="4.88794">
        <ele>168.7998</ele>
        <time>2026-05-13T15:57:41+02:00</time>
      </trkpt>
      <trkpt lat="46.42301" lon="4.88795">
        <ele>168.90039</ele>
        <time>2026-05-13T15:57:42+02:00</time>
      </trkpt>
      <trkpt lat="46.42307" lon="4.88796">
        <ele>168.90039</ele>
        <time>2026-05-13T15:57:43+02:00</time>
      </trkpt>
      <trkpt lat="46.42312" lon="4.88797">
        <ele>168.90039</ele>
        <time>2026-05-13T15:57:44+02:00</time>
      </trkpt>
      <trkpt lat="46.42318" lon="4.88798">
        <ele>169</ele>
        <time>2026-05-13T15:57:45+02:00</time>
      </trkpt>
      <trkpt lat="46.42323" lon="4.88799">
        <ele>169</ele>
        <time>2026-05-13T15:57:46+02:00</time>
      </trkpt>
      <trkpt lat="46.4233" lon="4.888">
        <ele>169</ele>
        <time>2026-05-13T15:57:47+02:00</time>
      </trkpt>
      <trkpt lat="46.42335" lon="4.88802">
        <ele>169</ele>
        <time>2026-05-13T15:57:48+02:00</time>
      </trkpt>
      <trkpt lat="46.42341" lon="4.88803">
        <ele>169</ele>
        <time>2026-05-13T15:57:49+02:00</time>
      </trkpt>
      <trkpt lat="46.42347" lon="4.88804">
        <ele>169</ele>
        <time>2026-05-13T15:57:50+02:00</time>
      </trkpt>
      <trkpt lat="46.42353" lon="4.88805">
        <ele>169</ele>
        <time>2026-05-13T15:57:51+02:00</time>
      </trkpt>
      <trkpt lat="46.42359" lon="4.88806">
        <ele>169</ele>
        <time>2026-05-13T15:57:52+02:00</time>
      </trkpt>
      <trkpt lat="46.42365" lon="4.88807">
        <ele>169</ele>
        <time>2026-05-13T15:57:53+02:00</time>
      </trkpt>
      <trkpt lat="46.42371" lon="4.88809">
        <ele>169</ele>
        <time>2026-05-13T15:57:54+02:00</time>
      </trkpt>
      <trkpt lat="46.42377" lon="4.8881">
        <ele>169</ele>
        <time>2026-05-13T15:57:55+02:00</time>
      </trkpt>
      <trkpt lat="46.42383" lon="4.88811">
        <ele>169</ele>
        <time>2026-05-13T15:57:56+02:00</time>
      </trkpt>
      <trkpt lat="46.42389" lon="4.88813">
        <ele>169</ele>
        <time>2026-05-13T15:57:57+02:00</time>
      </trkpt>
      <trkpt lat="46.42394" lon="4.88814">
        <ele>169</ele>
        <time>2026-05-13T15:57:58+02:00</time>
      </trkpt>
      <trkpt lat="46.424" lon="4.88815">
        <ele>168.90039</ele>
        <time>2026-05-13T15:57:59+02:00</time>
      </trkpt>
      <trkpt lat="46.42406" lon="4.88816">
        <ele>168.90039</ele>
        <time>2026-05-13T15:58:00+02:00</time>
      </trkpt>
      <trkpt lat="46.42412" lon="4.88817">
        <ele>168.90039</ele>
        <time>2026-05-13T15:58:01+02:00</time>
      </trkpt>
      <trkpt lat="46.42418" lon="4.88818">
        <ele>168.90039</ele>
        <time>2026-05-13T15:58:02+02:00</time>
      </trkpt>
      <trkpt lat="46.42424" lon="4.88819">
        <ele>169</ele>
        <time>2026-05-13T15:58:03+02:00</time>
      </trkpt>
      <trkpt lat="46.42429" lon="4.8882">
        <ele>169</ele>
        <time>2026-05-13T15:58:04+02:00</time>
      </trkpt>
      <trkpt lat="46.42436" lon="4.88821">
        <ele>169</ele>
        <time>2026-05-13T15:58:05+02:00</time>
      </trkpt>
      <trkpt lat="46.42441" lon="4.88823">
        <ele>169</ele>
        <time>2026-05-13T15:58:06+02:00</time>
      </trkpt>
      <trkpt lat="46.42447" lon="4.88824">
        <ele>169</ele>
        <time>2026-05-13T15:58:07+02:00</time>
      </trkpt>
      <trkpt lat="46.42453" lon="4.88825">
        <ele>169</ele>
        <time>2026-05-13T15:58:08+02:00</time>
      </trkpt>
      <trkpt lat="46.42459" lon="4.88826">
        <ele>169</ele>
        <time>2026-05-13T15:58:09+02:00</time>
      </trkpt>
      <trkpt lat="46.42465" lon="4.88827">
        <ele>169</ele>
        <time>2026-05-13T15:58:10+02:00</time>
      </trkpt>
      <trkpt lat="46.42471" lon="4.88828">
        <ele>169</ele>
        <time>2026-05-13T15:58:11+02:00</time>
      </trkpt>
      <trkpt lat="46.42476" lon="4.88829">
        <ele>169</ele>
        <time>2026-05-13T15:58:12+02:00</time>
      </trkpt>
      <trkpt lat="46.42482" lon="4.8883">
        <ele>169</ele>
        <time>2026-05-13T15:58:13+02:00</time>
      </trkpt>
      <trkpt lat="46.42488" lon="4.8883">
        <ele>169</ele>
        <time>2026-05-13T15:58:14+02:00</time>
      </trkpt>
      <trkpt lat="46.42494" lon="4.88831">
        <ele>169</ele>
        <time>2026-05-13T15:58:15+02:00</time>
      </trkpt>
      <trkpt lat="46.425" lon="4.88831">
        <ele>169</ele>
        <time>2026-05-13T15:58:16+02:00</time>
      </trkpt>
      <trkpt lat="46.42506" lon="4.88832">
        <ele>168.90039</ele>
        <time>2026-05-13T15:58:17+02:00</time>
      </trkpt>
      <trkpt lat="46.42512" lon="4.88832">
        <ele>168.90039</ele>
        <time>2026-05-13T15:58:18+02:00</time>
      </trkpt>
      <trkpt lat="46.42518" lon="4.88833">
        <ele>168.90039</ele>
        <time>2026-05-13T15:58:19+02:00</time>
      </trkpt>
      <trkpt lat="46.42524" lon="4.88833">
        <ele>168.90039</ele>
        <time>2026-05-13T15:58:20+02:00</time>
      </trkpt>
      <trkpt lat="46.4253" lon="4.88833">
        <ele>168.90039</ele>
        <time>2026-05-13T15:58:21+02:00</time>
      </trkpt>
      <trkpt lat="46.42536" lon="4.88833">
        <ele>168.90039</ele>
        <time>2026-05-13T15:58:22+02:00</time>
      </trkpt>
      <trkpt lat="46.42542" lon="4.88834">
        <ele>168.90039</ele>
        <time>2026-05-13T15:58:23+02:00</time>
      </trkpt>
      <trkpt lat="46.42548" lon="4.88834">
        <ele>168.90039</ele>
        <time>2026-05-13T15:58:24+02:00</time>
      </trkpt>
      <trkpt lat="46.42554" lon="4.88834">
        <ele>168.90039</ele>
        <time>2026-05-13T15:58:25+02:00</time>
      </trkpt>
      <trkpt lat="46.4256" lon="4.88834">
        <ele>168.90039</ele>
        <time>2026-05-13T15:58:26+02:00</time>
      </trkpt>
      <trkpt lat="46.42566" lon="4.88835">
        <ele>168.90039</ele>
        <time>2026-05-13T15:58:27+02:00</time>
      </trkpt>
      <trkpt lat="46.42572" lon="4.88835">
        <ele>169</ele>
        <time>2026-05-13T15:58:28+02:00</time>
      </trkpt>
      <trkpt lat="46.42577" lon="4.88835">
        <ele>169</ele>
        <time>2026-05-13T15:58:29+02:00</time>
      </trkpt>
      <trkpt lat="46.42583" lon="4.88836">
        <ele>169</ele>
        <time>2026-05-13T15:58:30+02:00</time>
      </trkpt>
      <trkpt lat="46.42589" lon="4.88836">
        <ele>169</ele>
        <time>2026-05-13T15:58:31+02:00</time>
      </trkpt>
      <trkpt lat="46.42594" lon="4.88836">
        <ele>169</ele>
        <time>2026-05-13T15:58:32+02:00</time>
      </trkpt>
      <trkpt lat="46.42599" lon="4.88836">
        <ele>169</ele>
        <time>2026-05-13T15:58:33+02:00</time>
      </trkpt>
      <trkpt lat="46.42604" lon="4.88836">
        <ele>169</ele>
        <time>2026-05-13T15:58:34+02:00</time>
      </trkpt>
      <trkpt lat="46.42609" lon="4.88836">
        <ele>169</ele>
        <time>2026-05-13T15:58:35+02:00</time>
      </trkpt>
      <trkpt lat="46.42614" lon="4.88837">
        <ele>169</ele>
        <time>2026-05-13T15:58:36+02:00</time>
      </trkpt>
      <trkpt lat="46.42619" lon="4.88837">
        <ele>169</ele>
        <time>2026-05-13T15:58:37+02:00</time>
      </trkpt>
      <trkpt lat="46.42623" lon="4.88837">
        <ele>168.90039</ele>
        <time>2026-05-13T15:58:38+02:00</time>
      </trkpt>
      <trkpt lat="46.42627" lon="4.88837">
        <ele>168.90039</ele>
        <time>2026-05-13T15:58:39+02:00</time>
      </trkpt>
      <trkpt lat="46.42631" lon="4.88837">
        <ele>168.90039</ele>
        <time>2026-05-13T15:58:40+02:00</time>
      </trkpt>
      <trkpt lat="46.42634" lon="4.88837">
        <ele>168.90039</ele>
        <time>2026-05-13T15:58:41+02:00</time>
      </trkpt>
      <trkpt lat="46.42636" lon="4.88837">
        <ele>168.90039</ele>
        <time>2026-05-13T15:58:42+02:00</time>
      </trkpt>
      <trkpt lat="46.42639" lon="4.88837">
        <ele>169</ele>
        <time>2026-05-13T15:58:43+02:00</time>
      </trkpt>
      <trkpt lat="46.42641" lon="4.88837">
        <ele>169</ele>
        <time>2026-05-13T15:58:44+02:00</time>
      </trkpt>
      <trkpt lat="46.42643" lon="4.88837">
        <ele>169</ele>
        <time>2026-05-13T15:58:45+02:00</time>
      </trkpt>
      <trkpt lat="46.42645" lon="4.88837">
        <ele>169</ele>
        <time>2026-05-13T15:58:46+02:00</time>
      </trkpt>
      <trkpt lat="46.42648" lon="4.88838">
        <ele>169</ele>
        <time>2026-05-13T15:58:47+02:00</time>
      </trkpt>
      <trkpt lat="46.42651" lon="4.8884">
        <ele>169.10059</ele>
        <time>2026-05-13T15:58:48+02:00</time>
      </trkpt>
      <trkpt lat="46.42655" lon="4.88841">
        <ele>168.90039</ele>
        <time>2026-05-13T15:58:49+02:00</time>
      </trkpt>
      <trkpt lat="46.4266" lon="4.88841">
        <ele>168.90039</ele>
        <time>2026-05-13T15:58:50+02:00</time>
      </trkpt>
      <trkpt lat="46.42664" lon="4.88841">
        <ele>168.90039</ele>
        <time>2026-05-13T15:58:51+02:00</time>
      </trkpt>
      <trkpt lat="46.42669" lon="4.88841">
        <ele>168.90039</ele>
        <time>2026-05-13T15:58:52+02:00</time>
      </trkpt>
      <trkpt lat="46.42675" lon="4.88842">
        <ele>168.90039</ele>
        <time>2026-05-13T15:58:53+02:00</time>
      </trkpt>
      <trkpt lat="46.4268" lon="4.88842">
        <ele>168.7998</ele>
        <time>2026-05-13T15:58:54+02:00</time>
      </trkpt>
      <trkpt lat="46.42686" lon="4.88842">
        <ele>168.7998</ele>
        <time>2026-05-13T15:58:55+02:00</time>
      </trkpt>
      <trkpt lat="46.42692" lon="4.88842">
        <ele>168.7998</ele>
        <time>2026-05-13T15:58:56+02:00</time>
      </trkpt>
      <trkpt lat="46.42697" lon="4.88843">
        <ele>168.7998</ele>
        <time>2026-05-13T15:58:57+02:00</time>
      </trkpt>
      <trkpt lat="46.42703" lon="4.88843">
        <ele>168.7998</ele>
        <time>2026-05-13T15:58:58+02:00</time>
      </trkpt>
      <trkpt lat="46.42709" lon="4.88843">
        <ele>168.7998</ele>
        <time>2026-05-13T15:58:59+02:00</time>
      </trkpt>
      <trkpt lat="46.42714" lon="4.88844">
        <ele>168.7998</ele>
        <time>2026-05-13T15:59:00+02:00</time>
      </trkpt>
      <trkpt lat="46.42719" lon="4.88844">
        <ele>168.7998</ele>
        <time>2026-05-13T15:59:01+02:00</time>
      </trkpt>
      <trkpt lat="46.42725" lon="4.88844">
        <ele>168.7998</ele>
        <time>2026-05-13T15:59:02+02:00</time>
      </trkpt>
      <trkpt lat="46.4273" lon="4.88844">
        <ele>168.7998</ele>
        <time>2026-05-13T15:59:03+02:00</time>
      </trkpt>
      <trkpt lat="46.42735" lon="4.88844">
        <ele>168.7998</ele>
        <time>2026-05-13T15:59:04+02:00</time>
      </trkpt>
      <trkpt lat="46.42741" lon="4.88844">
        <ele>168.7998</ele>
        <time>2026-05-13T15:59:05+02:00</time>
      </trkpt>
      <trkpt lat="46.42746" lon="4.88844">
        <ele>168.7998</ele>
        <time>2026-05-13T15:59:06+02:00</time>
      </trkpt>
      <trkpt lat="46.42751" lon="4.88845">
        <ele>168.7998</ele>
        <time>2026-05-13T15:59:07+02:00</time>
      </trkpt>
      <trkpt lat="46.42757" lon="4.88845">
        <ele>168.7998</ele>
        <time>2026-05-13T15:59:08+02:00</time>
      </trkpt>
      <trkpt lat="46.42763" lon="4.88846">
        <ele>168.90039</ele>
        <time>2026-05-13T15:59:09+02:00</time>
      </trkpt>
      <trkpt lat="46.42768" lon="4.88846">
        <ele>168.90039</ele>
        <time>2026-05-13T15:59:10+02:00</time>
      </trkpt>
      <trkpt lat="46.42773" lon="4.88846">
        <ele>168.90039</ele>
        <time>2026-05-13T15:59:11+02:00</time>
      </trkpt>
      <trkpt lat="46.42779" lon="4.88846">
        <ele>168.90039</ele>
        <time>2026-05-13T15:59:12+02:00</time>
      </trkpt>
      <trkpt lat="46.42784" lon="4.88847">
        <ele>168.90039</ele>
        <time>2026-05-13T15:59:13+02:00</time>
      </trkpt>
      <trkpt lat="46.4279" lon="4.88847">
        <ele>168.90039</ele>
        <time>2026-05-13T15:59:14+02:00</time>
      </trkpt>
      <trkpt lat="46.42795" lon="4.88848">
        <ele>168.90039</ele>
        <time>2026-05-13T15:59:15+02:00</time>
      </trkpt>
      <trkpt lat="46.42801" lon="4.88848">
        <ele>168.90039</ele>
        <time>2026-05-13T15:59:16+02:00</time>
      </trkpt>
      <trkpt lat="46.42806" lon="4.88849">
        <ele>169</ele>
        <time>2026-05-13T15:59:17+02:00</time>
      </trkpt>
      <trkpt lat="46.42812" lon="4.88849">
        <ele>169</ele>
        <time>2026-05-13T15:59:18+02:00</time>
      </trkpt>
      <trkpt lat="46.42817" lon="4.88849">
        <ele>169</ele>
        <time>2026-05-13T15:59:19+02:00</time>
      </trkpt>
      <trkpt lat="46.42823" lon="4.88849">
        <ele>169</ele>
        <time>2026-05-13T15:59:20+02:00</time>
      </trkpt>
      <trkpt lat="46.42829" lon="4.88849">
        <ele>169</ele>
        <time>2026-05-13T15:59:21+02:00</time>
      </trkpt>
      <trkpt lat="46.42834" lon="4.88849">
        <ele>169</ele>
        <time>2026-05-13T15:59:22+02:00</time>
      </trkpt>
      <trkpt lat="46.4284" lon="4.88849">
        <ele>169</ele>
        <time>2026-05-13T15:59:23+02:00</time>
      </trkpt>
      <trkpt lat="46.42845" lon="4.88849">
        <ele>169</ele>
        <time>2026-05-13T15:59:24+02:00</time>
      </trkpt>
      <trkpt lat="46.42851" lon="4.88849">
        <ele>169</ele>
        <time>2026-05-13T15:59:25+02:00</time>
      </trkpt>
      <trkpt lat="46.42856" lon="4.88848">
        <ele>169</ele>
        <time>2026-05-13T15:59:26+02:00</time>
      </trkpt>
      <trkpt lat="46.42862" lon="4.88847">
        <ele>169</ele>
        <time>2026-05-13T15:59:27+02:00</time>
      </trkpt>
      <trkpt lat="46.42868" lon="4.88846">
        <ele>169</ele>
        <time>2026-05-13T15:59:28+02:00</time>
      </trkpt>
      <trkpt lat="46.42873" lon="4.88845">
        <ele>169</ele>
        <time>2026-05-13T15:59:29+02:00</time>
      </trkpt>
      <trkpt lat="46.42879" lon="4.88844">
        <ele>169</ele>
        <time>2026-05-13T15:59:30+02:00</time>
      </trkpt>
      <trkpt lat="46.42884" lon="4.88842">
        <ele>169</ele>
        <time>2026-05-13T15:59:31+02:00</time>
      </trkpt>
      <trkpt lat="46.4289" lon="4.8884">
        <ele>169</ele>
        <time>2026-05-13T15:59:32+02:00</time>
      </trkpt>
      <trkpt lat="46.42894" lon="4.88838">
        <ele>169</ele>
        <time>2026-05-13T15:59:33+02:00</time>
      </trkpt>
      <trkpt lat="46.42899" lon="4.88836">
        <ele>169</ele>
        <time>2026-05-13T15:59:34+02:00</time>
      </trkpt>
      <trkpt lat="46.42905" lon="4.88834">
        <ele>169</ele>
        <time>2026-05-13T15:59:35+02:00</time>
      </trkpt>
      <trkpt lat="46.4291" lon="4.88832">
        <ele>169</ele>
        <time>2026-05-13T15:59:36+02:00</time>
      </trkpt>
      <trkpt lat="46.42915" lon="4.8883">
        <ele>169</ele>
        <time>2026-05-13T15:59:37+02:00</time>
      </trkpt>
      <trkpt lat="46.42921" lon="4.88828">
        <ele>169</ele>
        <time>2026-05-13T15:59:38+02:00</time>
      </trkpt>
      <trkpt lat="46.42927" lon="4.88826">
        <ele>169</ele>
        <time>2026-05-13T15:59:39+02:00</time>
      </trkpt>
      <trkpt lat="46.42932" lon="4.88825">
        <ele>169</ele>
        <time>2026-05-13T15:59:40+02:00</time>
      </trkpt>
      <trkpt lat="46.42938" lon="4.88823">
        <ele>169</ele>
        <time>2026-05-13T15:59:41+02:00</time>
      </trkpt>
      <trkpt lat="46.42943" lon="4.88821">
        <ele>169</ele>
        <time>2026-05-13T15:59:42+02:00</time>
      </trkpt>
      <trkpt lat="46.42948" lon="4.8882">
        <ele>169</ele>
        <time>2026-05-13T15:59:43+02:00</time>
      </trkpt>
      <trkpt lat="46.42953" lon="4.88819">
        <ele>169</ele>
        <time>2026-05-13T15:59:44+02:00</time>
      </trkpt>
      <trkpt lat="46.42958" lon="4.88819">
        <ele>169</ele>
        <time>2026-05-13T15:59:45+02:00</time>
      </trkpt>
      <trkpt lat="46.42963" lon="4.88819">
        <ele>169</ele>
        <time>2026-05-13T15:59:46+02:00</time>
      </trkpt>
      <trkpt lat="46.42968" lon="4.88819">
        <ele>169</ele>
        <time>2026-05-13T15:59:47+02:00</time>
      </trkpt>
      <trkpt lat="46.42973" lon="4.88818">
        <ele>169</ele>
        <time>2026-05-13T15:59:48+02:00</time>
      </trkpt>
      <trkpt lat="46.42978" lon="4.88818">
        <ele>169</ele>
        <time>2026-05-13T15:59:49+02:00</time>
      </trkpt>
      <trkpt lat="46.42983" lon="4.88816">
        <ele>169</ele>
        <time>2026-05-13T15:59:50+02:00</time>
      </trkpt>
      <trkpt lat="46.42988" lon="4.88814">
        <ele>169</ele>
        <time>2026-05-13T15:59:51+02:00</time>
      </trkpt>
      <trkpt lat="46.42993" lon="4.88811">
        <ele>169</ele>
        <time>2026-05-13T15:59:52+02:00</time>
      </trkpt>
      <trkpt lat="46.42997" lon="4.88807">
        <ele>169</ele>
        <time>2026-05-13T15:59:53+02:00</time>
      </trkpt>
      <trkpt lat="46.43002" lon="4.88803">
        <ele>169</ele>
        <time>2026-05-13T15:59:54+02:00</time>
      </trkpt>
      <trkpt lat="46.43007" lon="4.88799">
        <ele>169</ele>
        <time>2026-05-13T15:59:55+02:00</time>
      </trkpt>
      <trkpt lat="46.43011" lon="4.88795">
        <ele>168.90039</ele>
        <time>2026-05-13T15:59:56+02:00</time>
      </trkpt>
      <trkpt lat="46.43016" lon="4.88792">
        <ele>168.90039</ele>
        <time>2026-05-13T15:59:57+02:00</time>
      </trkpt>
      <trkpt lat="46.43021" lon="4.88789">
        <ele>168.90039</ele>
        <time>2026-05-13T15:59:58+02:00</time>
      </trkpt>
      <trkpt lat="46.43026" lon="4.88786">
        <ele>168.90039</ele>
        <time>2026-05-13T15:59:59+02:00</time>
      </trkpt>
      <trkpt lat="46.43031" lon="4.88783">
        <ele>168.90039</ele>
        <time>2026-05-13T16:00:00+02:00</time>
      </trkpt>
      <trkpt lat="46.43036" lon="4.8878">
        <ele>168.90039</ele>
        <time>2026-05-13T16:00:01+02:00</time>
      </trkpt>
      <trkpt lat="46.43041" lon="4.88776">
        <ele>169</ele>
        <time>2026-05-13T16:00:02+02:00</time>
      </trkpt>
      <trkpt lat="46.43045" lon="4.88773">
        <ele>169</ele>
        <time>2026-05-13T16:00:03+02:00</time>
      </trkpt>
      <trkpt lat="46.4305" lon="4.8877">
        <ele>169</ele>
        <time>2026-05-13T16:00:04+02:00</time>
      </trkpt>
      <trkpt lat="46.43055" lon="4.88767">
        <ele>169</ele>
        <time>2026-05-13T16:00:05+02:00</time>
      </trkpt>
      <trkpt lat="46.4306" lon="4.88764">
        <ele>169</ele>
        <time>2026-05-13T16:00:06+02:00</time>
      </trkpt>
      <trkpt lat="46.43065" lon="4.88762">
        <ele>169.10059</ele>
        <time>2026-05-13T16:00:07+02:00</time>
      </trkpt>
      <trkpt lat="46.4307" lon="4.88759">
        <ele>169.10059</ele>
        <time>2026-05-13T16:00:08+02:00</time>
      </trkpt>
      <trkpt lat="46.43075" lon="4.88757">
        <ele>169.10059</ele>
        <time>2026-05-13T16:00:09+02:00</time>
      </trkpt>
      <trkpt lat="46.4308" lon="4.88754">
        <ele>169.2998</ele>
        <time>2026-05-13T16:00:10+02:00</time>
      </trkpt>
      <trkpt lat="46.43085" lon="4.88752">
        <ele>169.2998</ele>
        <time>2026-05-13T16:00:11+02:00</time>
      </trkpt>
      <trkpt lat="46.43091" lon="4.88749">
        <ele>169.2998</ele>
        <time>2026-05-13T16:00:12+02:00</time>
      </trkpt>
      <trkpt lat="46.43096" lon="4.88747">
        <ele>169.10059</ele>
        <time>2026-05-13T16:00:13+02:00</time>
      </trkpt>
      <trkpt lat="46.43102" lon="4.88745">
        <ele>169.10059</ele>
        <time>2026-05-13T16:00:14+02:00</time>
      </trkpt>
      <trkpt lat="46.43107" lon="4.88743">
        <ele>169</ele>
        <time>2026-05-13T16:00:15+02:00</time>
      </trkpt>
      <trkpt lat="46.43113" lon="4.88741">
        <ele>169</ele>
        <time>2026-05-13T16:00:16+02:00</time>
      </trkpt>
      <trkpt lat="46.43118" lon="4.88739">
        <ele>169</ele>
        <time>2026-05-13T16:00:17+02:00</time>
      </trkpt>
      <trkpt lat="46.43124" lon="4.88738">
        <ele>169</ele>
        <time>2026-05-13T16:00:18+02:00</time>
      </trkpt>
      <trkpt lat="46.4313" lon="4.88736">
        <ele>169</ele>
        <time>2026-05-13T16:00:19+02:00</time>
      </trkpt>
      <trkpt lat="46.43136" lon="4.88734">
        <ele>169</ele>
        <time>2026-05-13T16:00:20+02:00</time>
      </trkpt>
      <trkpt lat="46.43142" lon="4.88733">
        <ele>169</ele>
        <time>2026-05-13T16:00:21+02:00</time>
      </trkpt>
      <trkpt lat="46.43148" lon="4.88731">
        <ele>169</ele>
        <time>2026-05-13T16:00:22+02:00</time>
      </trkpt>
      <trkpt lat="46.43154" lon="4.88731">
        <ele>169</ele>
        <time>2026-05-13T16:00:23+02:00</time>
      </trkpt>
      <trkpt lat="46.4316" lon="4.8873">
        <ele>169</ele>
        <time>2026-05-13T16:00:24+02:00</time>
      </trkpt>
      <trkpt lat="46.43166" lon="4.88729">
        <ele>169</ele>
        <time>2026-05-13T16:00:25+02:00</time>
      </trkpt>
      <trkpt lat="46.43171" lon="4.88728">
        <ele>169</ele>
        <time>2026-05-13T16:00:26+02:00</time>
      </trkpt>
      <trkpt lat="46.43178" lon="4.88728">
        <ele>169</ele>
        <time>2026-05-13T16:00:27+02:00</time>
      </trkpt>
      <trkpt lat="46.43184" lon="4.88727">
        <ele>169</ele>
        <time>2026-05-13T16:00:28+02:00</time>
      </trkpt>
      <trkpt lat="46.4319" lon="4.88727">
        <ele>169</ele>
        <time>2026-05-13T16:00:29+02:00</time>
      </trkpt>
      <trkpt lat="46.43195" lon="4.88727">
        <ele>169</ele>
        <time>2026-05-13T16:00:30+02:00</time>
      </trkpt>
      <trkpt lat="46.43202" lon="4.88727">
        <ele>169</ele>
        <time>2026-05-13T16:00:31+02:00</time>
      </trkpt>
      <trkpt lat="46.43207" lon="4.88727">
        <ele>169</ele>
        <time>2026-05-13T16:00:32+02:00</time>
      </trkpt>
      <trkpt lat="46.43213" lon="4.88726">
        <ele>169</ele>
        <time>2026-05-13T16:00:33+02:00</time>
      </trkpt>
      <trkpt lat="46.43219" lon="4.88725">
        <ele>169</ele>
        <time>2026-05-13T16:00:34+02:00</time>
      </trkpt>
      <trkpt lat="46.43225" lon="4.88725">
        <ele>169</ele>
        <time>2026-05-13T16:00:35+02:00</time>
      </trkpt>
      <trkpt lat="46.43232" lon="4.88725">
        <ele>168.90039</ele>
        <time>2026-05-13T16:00:36+02:00</time>
      </trkpt>
      <trkpt lat="46.43238" lon="4.88725">
        <ele>168.90039</ele>
        <time>2026-05-13T16:00:37+02:00</time>
      </trkpt>
      <trkpt lat="46.43244" lon="4.88726">
        <ele>169</ele>
        <time>2026-05-13T16:00:38+02:00</time>
      </trkpt>
      <trkpt lat="46.43251" lon="4.88727">
        <ele>169.2002</ele>
        <time>2026-05-13T16:00:39+02:00</time>
      </trkpt>
      <trkpt lat="46.43257" lon="4.88729">
        <ele>169.2998</ele>
        <time>2026-05-13T16:00:40+02:00</time>
      </trkpt>
      <trkpt lat="46.43264" lon="4.8873">
        <ele>169.60059</ele>
        <time>2026-05-13T16:00:41+02:00</time>
      </trkpt>
      <trkpt lat="46.43271" lon="4.88731">
        <ele>169.7002</ele>
        <time>2026-05-13T16:00:42+02:00</time>
      </trkpt>
      <trkpt lat="46.43278" lon="4.88733">
        <ele>169.7998</ele>
        <time>2026-05-13T16:00:43+02:00</time>
      </trkpt>
      <trkpt lat="46.43285" lon="4.88734">
        <ele>169.7998</ele>
        <time>2026-05-13T16:00:44+02:00</time>
      </trkpt>
      <trkpt lat="46.43292" lon="4.88735">
        <ele>169.7998</ele>
        <time>2026-05-13T16:00:45+02:00</time>
      </trkpt>
      <trkpt lat="46.43299" lon="4.88737">
        <ele>169.7998</ele>
        <time>2026-05-13T16:00:46+02:00</time>
      </trkpt>
      <trkpt lat="46.43306" lon="4.88738">
        <ele>169.2002</ele>
        <time>2026-05-13T16:00:47+02:00</time>
      </trkpt>
      <trkpt lat="46.43313" lon="4.88739">
        <ele>169.10059</ele>
        <time>2026-05-13T16:00:48+02:00</time>
      </trkpt>
      <trkpt lat="46.43319" lon="4.88741">
        <ele>169.10059</ele>
        <time>2026-05-13T16:00:49+02:00</time>
      </trkpt>
      <trkpt lat="46.43326" lon="4.88742">
        <ele>169.10059</ele>
        <time>2026-05-13T16:00:50+02:00</time>
      </trkpt>
      <trkpt lat="46.43332" lon="4.88743">
        <ele>169.10059</ele>
        <time>2026-05-13T16:00:51+02:00</time>
      </trkpt>
      <trkpt lat="46.43339" lon="4.88745">
        <ele>169</ele>
        <time>2026-05-13T16:00:52+02:00</time>
      </trkpt>
      <trkpt lat="46.43345" lon="4.88746">
        <ele>168.90039</ele>
        <time>2026-05-13T16:00:53+02:00</time>
      </trkpt>
      <trkpt lat="46.43351" lon="4.88747">
        <ele>168.90039</ele>
        <time>2026-05-13T16:00:54+02:00</time>
      </trkpt>
      <trkpt lat="46.43358" lon="4.88749">
        <ele>168.90039</ele>
        <time>2026-05-13T16:00:55+02:00</time>
      </trkpt>
      <trkpt lat="46.43364" lon="4.8875">
        <ele>168.90039</ele>
        <time>2026-05-13T16:00:56+02:00</time>
      </trkpt>
      <trkpt lat="46.43371" lon="4.88751">
        <ele>168.90039</ele>
        <time>2026-05-13T16:00:57+02:00</time>
      </trkpt>
      <trkpt lat="46.43377" lon="4.88753">
        <ele>168.90039</ele>
        <time>2026-05-13T16:00:58+02:00</time>
      </trkpt>
      <trkpt lat="46.43383" lon="4.88754">
        <ele>168.90039</ele>
        <time>2026-05-13T16:00:59+02:00</time>
      </trkpt>
      <trkpt lat="46.43389" lon="4.88755">
        <ele>168.90039</ele>
        <time>2026-05-13T16:01:00+02:00</time>
      </trkpt>
      <trkpt lat="46.43396" lon="4.88757">
        <ele>168.90039</ele>
        <time>2026-05-13T16:01:01+02:00</time>
      </trkpt>
      <trkpt lat="46.43402" lon="4.88758">
        <ele>168.90039</ele>
        <time>2026-05-13T16:01:02+02:00</time>
      </trkpt>
      <trkpt lat="46.43409" lon="4.88759">
        <ele>168.90039</ele>
        <time>2026-05-13T16:01:03+02:00</time>
      </trkpt>
      <trkpt lat="46.43415" lon="4.8876">
        <ele>168.90039</ele>
        <time>2026-05-13T16:01:04+02:00</time>
      </trkpt>
      <trkpt lat="46.43421" lon="4.88761">
        <ele>168.90039</ele>
        <time>2026-05-13T16:01:05+02:00</time>
      </trkpt>
      <trkpt lat="46.43427" lon="4.8876">
        <ele>169</ele>
        <time>2026-05-13T16:01:06+02:00</time>
      </trkpt>
      <trkpt lat="46.43434" lon="4.88758">
        <ele>169.10059</ele>
        <time>2026-05-13T16:01:07+02:00</time>
      </trkpt>
      <trkpt lat="46.4344" lon="4.88755">
        <ele>169.2002</ele>
        <time>2026-05-13T16:01:08+02:00</time>
      </trkpt>
      <trkpt lat="46.43446" lon="4.88753">
        <ele>170</ele>
        <time>2026-05-13T16:01:09+02:00</time>
      </trkpt>
      <trkpt lat="46.43451" lon="4.88753">
        <ele>169.90039</ele>
        <time>2026-05-13T16:01:10+02:00</time>
      </trkpt>
      <trkpt lat="46.43457" lon="4.88756">
        <ele>169.10059</ele>
        <time>2026-05-13T16:01:11+02:00</time>
      </trkpt>
      <trkpt lat="46.43462" lon="4.88755">
        <ele>169</ele>
        <time>2026-05-13T16:01:12+02:00</time>
      </trkpt>
      <trkpt lat="46.43465" lon="4.88751">
        <ele>169.2002</ele>
        <time>2026-05-13T16:01:13+02:00</time>
      </trkpt>
      <trkpt lat="46.43467" lon="4.88746">
        <ele>169</ele>
        <time>2026-05-13T16:01:14+02:00</time>
      </trkpt>
      <trkpt lat="46.43469" lon="4.8874">
        <ele>169</ele>
        <time>2026-05-13T16:01:15+02:00</time>
      </trkpt>
      <trkpt lat="46.43471" lon="4.88733">
        <ele>169</ele>
        <time>2026-05-13T16:01:16+02:00</time>
      </trkpt>
      <trkpt lat="46.43474" lon="4.88726">
        <ele>169</ele>
        <time>2026-05-13T16:01:17+02:00</time>
      </trkpt>
      <trkpt lat="46.43476" lon="4.88718">
        <ele>169</ele>
        <time>2026-05-13T16:01:18+02:00</time>
      </trkpt>
      <trkpt lat="46.43479" lon="4.8871">
        <ele>169.10059</ele>
        <time>2026-05-13T16:01:19+02:00</time>
      </trkpt>
      <trkpt lat="46.43481" lon="4.88703">
        <ele>169.10059</ele>
        <time>2026-05-13T16:01:20+02:00</time>
      </trkpt>
      <trkpt lat="46.43484" lon="4.88695">
        <ele>169.2002</ele>
        <time>2026-05-13T16:01:21+02:00</time>
      </trkpt>
      <trkpt lat="46.43487" lon="4.88687">
        <ele>169.2998</ele>
        <time>2026-05-13T16:01:22+02:00</time>
      </trkpt>
      <trkpt lat="46.4349" lon="4.88679">
        <ele>169.2998</ele>
        <time>2026-05-13T16:01:23+02:00</time>
      </trkpt>
      <trkpt lat="46.43493" lon="4.88672">
        <ele>169.2998</ele>
        <time>2026-05-13T16:01:24+02:00</time>
      </trkpt>
      <trkpt lat="46.43496" lon="4.88664">
        <ele>169.2998</ele>
        <time>2026-05-13T16:01:25+02:00</time>
      </trkpt>
      <trkpt lat="46.43499" lon="4.88657">
        <ele>169.2998</ele>
        <time>2026-05-13T16:01:26+02:00</time>
      </trkpt>
      <trkpt lat="46.43502" lon="4.88649">
        <ele>169.2002</ele>
        <time>2026-05-13T16:01:27+02:00</time>
      </trkpt>
      <trkpt lat="46.43505" lon="4.88642">
        <ele>169.2002</ele>
        <time>2026-05-13T16:01:28+02:00</time>
      </trkpt>
      <trkpt lat="46.43508" lon="4.88635">
        <ele>169.10059</ele>
        <time>2026-05-13T16:01:29+02:00</time>
      </trkpt>
      <trkpt lat="46.43512" lon="4.88627">
        <ele>169.10059</ele>
        <time>2026-05-13T16:01:30+02:00</time>
      </trkpt>
      <trkpt lat="46.43515" lon="4.8862">
        <ele>169.10059</ele>
        <time>2026-05-13T16:01:31+02:00</time>
      </trkpt>
      <trkpt lat="46.43518" lon="4.88612">
        <ele>169</ele>
        <time>2026-05-13T16:01:32+02:00</time>
      </trkpt>
      <trkpt lat="46.43521" lon="4.88605">
        <ele>169.2002</ele>
        <time>2026-05-13T16:01:33+02:00</time>
      </trkpt>
      <trkpt lat="46.43524" lon="4.88597">
        <ele>169.2998</ele>
        <time>2026-05-13T16:01:34+02:00</time>
      </trkpt>
      <trkpt lat="46.43527" lon="4.8859">
        <ele>169.40039</ele>
        <time>2026-05-13T16:01:35+02:00</time>
      </trkpt>
      <trkpt lat="46.4353" lon="4.88582">
        <ele>169.40039</ele>
        <time>2026-05-13T16:01:36+02:00</time>
      </trkpt>
      <trkpt lat="46.43533" lon="4.88574">
        <ele>169.2998</ele>
        <time>2026-05-13T16:01:37+02:00</time>
      </trkpt>
      <trkpt lat="46.43536" lon="4.88567">
        <ele>169.2998</ele>
        <time>2026-05-13T16:01:38+02:00</time>
      </trkpt>
      <trkpt lat="46.43539" lon="4.88559">
        <ele>169.40039</ele>
        <time>2026-05-13T16:01:39+02:00</time>
      </trkpt>
      <trkpt lat="46.43542" lon="4.88552">
        <ele>169.5</ele>
        <time>2026-05-13T16:01:40+02:00</time>
      </trkpt>
      <trkpt lat="46.43545" lon="4.88544">
        <ele>169.5</ele>
        <time>2026-05-13T16:01:41+02:00</time>
      </trkpt>
      <trkpt lat="46.43548" lon="4.88537">
        <ele>169.5</ele>
        <time>2026-05-13T16:01:42+02:00</time>
      </trkpt>
      <trkpt lat="46.43551" lon="4.8853">
        <ele>169.40039</ele>
        <time>2026-05-13T16:01:43+02:00</time>
      </trkpt>
      <trkpt lat="46.43554" lon="4.88522">
        <ele>169.2998</ele>
        <time>2026-05-13T16:01:44+02:00</time>
      </trkpt>
      <trkpt lat="46.43557" lon="4.88515">
        <ele>169.2998</ele>
        <time>2026-05-13T16:01:45+02:00</time>
      </trkpt>
      <trkpt lat="46.43559" lon="4.88507">
        <ele>169.2998</ele>
        <time>2026-05-13T16:01:46+02:00</time>
      </trkpt>
      <trkpt lat="46.43562" lon="4.885">
        <ele>169.5</ele>
        <time>2026-05-13T16:01:47+02:00</time>
      </trkpt>
      <trkpt lat="46.43566" lon="4.88492">
        <ele>169.5</ele>
        <time>2026-05-13T16:01:48+02:00</time>
      </trkpt>
      <trkpt lat="46.43569" lon="4.88484">
        <ele>169.60059</ele>
        <time>2026-05-13T16:01:49+02:00</time>
      </trkpt>
      <trkpt lat="46.43572" lon="4.88477">
        <ele>169.5</ele>
        <time>2026-05-13T16:01:50+02:00</time>
      </trkpt>
      <trkpt lat="46.43575" lon="4.88469">
        <ele>169.40039</ele>
        <time>2026-05-13T16:01:51+02:00</time>
      </trkpt>
      <trkpt lat="46.43578" lon="4.88461">
        <ele>169.40039</ele>
        <time>2026-05-13T16:01:52+02:00</time>
      </trkpt>
      <trkpt lat="46.43581" lon="4.88454">
        <ele>169.5</ele>
        <time>2026-05-13T16:01:53+02:00</time>
      </trkpt>
      <trkpt lat="46.43584" lon="4.88446">
        <ele>169.60059</ele>
        <time>2026-05-13T16:01:54+02:00</time>
      </trkpt>
      <trkpt lat="46.43587" lon="4.88439">
        <ele>169.60059</ele>
        <time>2026-05-13T16:01:55+02:00</time>
      </trkpt>
      <trkpt lat="46.4359" lon="4.88431">
        <ele>169.60059</ele>
        <time>2026-05-13T16:01:56+02:00</time>
      </trkpt>
      <trkpt lat="46.43593" lon="4.88423">
        <ele>169.5</ele>
        <time>2026-05-13T16:01:57+02:00</time>
      </trkpt>
      <trkpt lat="46.43597" lon="4.88416">
        <ele>169.5</ele>
        <time>2026-05-13T16:01:58+02:00</time>
      </trkpt>
      <trkpt lat="46.43601" lon="4.88411">
        <ele>169.5</ele>
        <time>2026-05-13T16:01:59+02:00</time>
      </trkpt>
      <trkpt lat="46.43606" lon="4.88407">
        <ele>169.5</ele>
        <time>2026-05-13T16:02:00+02:00</time>
      </trkpt>
      <trkpt lat="46.43612" lon="4.88405">
        <ele>169.60059</ele>
        <time>2026-05-13T16:02:01+02:00</time>
      </trkpt>
      <trkpt lat="46.43618" lon="4.88405">
        <ele>169.60059</ele>
        <time>2026-05-13T16:02:02+02:00</time>
      </trkpt>
      <trkpt lat="46.43624" lon="4.88406">
        <ele>169.60059</ele>
        <time>2026-05-13T16:02:03+02:00</time>
      </trkpt>
      <trkpt lat="46.4363" lon="4.88408">
        <ele>169.60059</ele>
        <time>2026-05-13T16:02:04+02:00</time>
      </trkpt>
      <trkpt lat="46.43635" lon="4.8841">
        <ele>169.7002</ele>
        <time>2026-05-13T16:02:05+02:00</time>
      </trkpt>
      <trkpt lat="46.43641" lon="4.88413">
        <ele>169.5</ele>
        <time>2026-05-13T16:02:06+02:00</time>
      </trkpt>
      <trkpt lat="46.43647" lon="4.88415">
        <ele>169.2998</ele>
        <time>2026-05-13T16:02:07+02:00</time>
      </trkpt>
      <trkpt lat="46.43652" lon="4.88418">
        <ele>169.10059</ele>
        <time>2026-05-13T16:02:08+02:00</time>
      </trkpt>
      <trkpt lat="46.43658" lon="4.8842">
        <ele>169</ele>
        <time>2026-05-13T16:02:09+02:00</time>
      </trkpt>
      <trkpt lat="46.43664" lon="4.88422">
        <ele>169.10059</ele>
        <time>2026-05-13T16:02:10+02:00</time>
      </trkpt>
      <trkpt lat="46.43669" lon="4.88424">
        <ele>169.40039</ele>
        <time>2026-05-13T16:02:11+02:00</time>
      </trkpt>
      <trkpt lat="46.43675" lon="4.88425">
        <ele>169.7002</ele>
        <time>2026-05-13T16:02:12+02:00</time>
      </trkpt>
      <trkpt lat="46.43681" lon="4.88427">
        <ele>169.7998</ele>
        <time>2026-05-13T16:02:13+02:00</time>
      </trkpt>
      <trkpt lat="46.43686" lon="4.88429">
        <ele>169.5</ele>
        <time>2026-05-13T16:02:14+02:00</time>
      </trkpt>
      <trkpt lat="46.43692" lon="4.88431">
        <ele>169.5</ele>
        <time>2026-05-13T16:02:15+02:00</time>
      </trkpt>
      <trkpt lat="46.43698" lon="4.88433">
        <ele>169.5</ele>
        <time>2026-05-13T16:02:16+02:00</time>
      </trkpt>
      <trkpt lat="46.43704" lon="4.88435">
        <ele>169.5</ele>
        <time>2026-05-13T16:02:17+02:00</time>
      </trkpt>
      <trkpt lat="46.4371" lon="4.88438">
        <ele>169.10059</ele>
        <time>2026-05-13T16:02:18+02:00</time>
      </trkpt>
      <trkpt lat="46.43715" lon="4.8844">
        <ele>169.10059</ele>
        <time>2026-05-13T16:02:19+02:00</time>
      </trkpt>
      <trkpt lat="46.43722" lon="4.88442">
        <ele>169.10059</ele>
        <time>2026-05-13T16:02:20+02:00</time>
      </trkpt>
      <trkpt lat="46.43727" lon="4.88444">
        <ele>169.10059</ele>
        <time>2026-05-13T16:02:21+02:00</time>
      </trkpt>
      <trkpt lat="46.43733" lon="4.88447">
        <ele>168.90039</ele>
        <time>2026-05-13T16:02:22+02:00</time>
      </trkpt>
      <trkpt lat="46.43739" lon="4.88449">
        <ele>168.90039</ele>
        <time>2026-05-13T16:02:23+02:00</time>
      </trkpt>
      <trkpt lat="46.43745" lon="4.88451">
        <ele>168.90039</ele>
        <time>2026-05-13T16:02:24+02:00</time>
      </trkpt>
      <trkpt lat="46.43751" lon="4.88453">
        <ele>169</ele>
        <time>2026-05-13T16:02:25+02:00</time>
      </trkpt>
      <trkpt lat="46.43757" lon="4.88455">
        <ele>169.10059</ele>
        <time>2026-05-13T16:02:26+02:00</time>
      </trkpt>
      <trkpt lat="46.43762" lon="4.88457">
        <ele>169.10059</ele>
        <time>2026-05-13T16:02:27+02:00</time>
      </trkpt>
      <trkpt lat="46.43768" lon="4.88459">
        <ele>169.40039</ele>
        <time>2026-05-13T16:02:28+02:00</time>
      </trkpt>
      <trkpt lat="46.43774" lon="4.88461">
        <ele>169.7998</ele>
        <time>2026-05-13T16:02:29+02:00</time>
      </trkpt>
      <trkpt lat="46.4378" lon="4.88463">
        <ele>169.60059</ele>
        <time>2026-05-13T16:02:30+02:00</time>
      </trkpt>
      <trkpt lat="46.43786" lon="4.88465">
        <ele>170</ele>
        <time>2026-05-13T16:02:31+02:00</time>
      </trkpt>
      <trkpt lat="46.43792" lon="4.88468">
        <ele>170.2998</ele>
        <time>2026-05-13T16:02:32+02:00</time>
      </trkpt>
      <trkpt lat="46.43798" lon="4.8847">
        <ele>170.2998</ele>
        <time>2026-05-13T16:02:33+02:00</time>
      </trkpt>
      <trkpt lat="46.43804" lon="4.88472">
        <ele>170.10059</ele>
        <time>2026-05-13T16:02:34+02:00</time>
      </trkpt>
      <trkpt lat="46.4381" lon="4.88474">
        <ele>170.10059</ele>
        <time>2026-05-13T16:02:35+02:00</time>
      </trkpt>
      <trkpt lat="46.43815" lon="4.88476">
        <ele>170.10059</ele>
        <time>2026-05-13T16:02:36+02:00</time>
      </trkpt>
      <trkpt lat="46.43821" lon="4.88478">
        <ele>170.2002</ele>
        <time>2026-05-13T16:02:37+02:00</time>
      </trkpt>
      <trkpt lat="46.43827" lon="4.88481">
        <ele>169.7998</ele>
        <time>2026-05-13T16:02:38+02:00</time>
      </trkpt>
      <trkpt lat="46.43833" lon="4.88483">
        <ele>170.10059</ele>
        <time>2026-05-13T16:02:39+02:00</time>
      </trkpt>
      <trkpt lat="46.43839" lon="4.88485">
        <ele>170.10059</ele>
        <time>2026-05-13T16:02:40+02:00</time>
      </trkpt>
      <trkpt lat="46.43845" lon="4.88487">
        <ele>170.2998</ele>
        <time>2026-05-13T16:02:41+02:00</time>
      </trkpt>
      <trkpt lat="46.43851" lon="4.88489">
        <ele>170.10059</ele>
        <time>2026-05-13T16:02:42+02:00</time>
      </trkpt>
      <trkpt lat="46.43857" lon="4.88491">
        <ele>170.2998</ele>
        <time>2026-05-13T16:02:43+02:00</time>
      </trkpt>
      <trkpt lat="46.43863" lon="4.88493">
        <ele>170.5</ele>
        <time>2026-05-13T16:02:44+02:00</time>
      </trkpt>
      <trkpt lat="46.43869" lon="4.88493">
        <ele>170.7002</ele>
        <time>2026-05-13T16:02:45+02:00</time>
      </trkpt>
      <trkpt lat="46.43875" lon="4.8849">
        <ele>171</ele>
        <time>2026-05-13T16:02:46+02:00</time>
      </trkpt>
      <trkpt lat="46.4388" lon="4.88484">
        <ele>171.40039</ele>
        <time>2026-05-13T16:02:47+02:00</time>
      </trkpt>
      <trkpt lat="46.43883" lon="4.88476">
        <ele>172.40039</ele>
        <time>2026-05-13T16:02:48+02:00</time>
      </trkpt>
      <trkpt lat="46.43885" lon="4.88467">
        <ele>172.90039</ele>
        <time>2026-05-13T16:02:49+02:00</time>
      </trkpt>
      <trkpt lat="46.43887" lon="4.88458">
        <ele>173.60059</ele>
        <time>2026-05-13T16:02:50+02:00</time>
      </trkpt>
      <trkpt lat="46.43888" lon="4.88449">
        <ele>173.7998</ele>
        <time>2026-05-13T16:02:51+02:00</time>
      </trkpt>
      <trkpt lat="46.4389" lon="4.88441">
        <ele>174</ele>
        <time>2026-05-13T16:02:52+02:00</time>
      </trkpt>
      <trkpt lat="46.43891" lon="4.88432">
        <ele>174.10059</ele>
        <time>2026-05-13T16:02:53+02:00</time>
      </trkpt>
      <trkpt lat="46.43892" lon="4.88423">
        <ele>174.10059</ele>
        <time>2026-05-13T16:02:54+02:00</time>
      </trkpt>
      <trkpt lat="46.43893" lon="4.88415">
        <ele>174.10059</ele>
        <time>2026-05-13T16:02:55+02:00</time>
      </trkpt>
      <trkpt lat="46.43894" lon="4.88406">
        <ele>174</ele>
        <time>2026-05-13T16:02:56+02:00</time>
      </trkpt>
      <trkpt lat="46.43895" lon="4.88398">
        <ele>173.90039</ele>
        <time>2026-05-13T16:02:57+02:00</time>
      </trkpt>
      <trkpt lat="46.43896" lon="4.8839">
        <ele>173.7002</ele>
        <time>2026-05-13T16:02:58+02:00</time>
      </trkpt>
      <trkpt lat="46.43897" lon="4.88381">
        <ele>173.5</ele>
        <time>2026-05-13T16:02:59+02:00</time>
      </trkpt>
      <trkpt lat="46.43898" lon="4.88373">
        <ele>173.40039</ele>
        <time>2026-05-13T16:03:00+02:00</time>
      </trkpt>
      <trkpt lat="46.43899" lon="4.88364">
        <ele>173.2002</ele>
        <time>2026-05-13T16:03:01+02:00</time>
      </trkpt>
      <trkpt lat="46.439" lon="4.88355">
        <ele>173</ele>
        <time>2026-05-13T16:03:02+02:00</time>
      </trkpt>
      <trkpt lat="46.43901" lon="4.88347">
        <ele>172.90039</ele>
        <time>2026-05-13T16:03:03+02:00</time>
      </trkpt>
      <trkpt lat="46.43902" lon="4.88338">
        <ele>172.7002</ele>
        <time>2026-05-13T16:03:04+02:00</time>
      </trkpt>
      <trkpt lat="46.43902" lon="4.88331">
        <ele>172.60059</ele>
        <time>2026-05-13T16:03:05+02:00</time>
      </trkpt>
      <trkpt lat="46.43905" lon="4.88324">
        <ele>172.5</ele>
        <time>2026-05-13T16:03:06+02:00</time>
      </trkpt>
      <trkpt lat="46.43909" lon="4.8832">
        <ele>172.5</ele>
        <time>2026-05-13T16:03:07+02:00</time>
      </trkpt>
      <trkpt lat="46.43913" lon="4.88319">
        <ele>172.5</ele>
        <time>2026-05-13T16:03:08+02:00</time>
      </trkpt>
      <trkpt lat="46.43919" lon="4.88318">
        <ele>172.5</ele>
        <time>2026-05-13T16:03:09+02:00</time>
      </trkpt>
      <trkpt lat="46.43924" lon="4.88318">
        <ele>172.5</ele>
        <time>2026-05-13T16:03:10+02:00</time>
      </trkpt>
      <trkpt lat="46.43929" lon="4.88319">
        <ele>172.5</ele>
        <time>2026-05-13T16:03:11+02:00</time>
      </trkpt>
      <trkpt lat="46.43935" lon="4.88321">
        <ele>172.5</ele>
        <time>2026-05-13T16:03:12+02:00</time>
      </trkpt>
      <trkpt lat="46.4394" lon="4.88323">
        <ele>172.5</ele>
        <time>2026-05-13T16:03:13+02:00</time>
      </trkpt>
      <trkpt lat="46.43945" lon="4.88325">
        <ele>172.5</ele>
        <time>2026-05-13T16:03:14+02:00</time>
      </trkpt>
      <trkpt lat="46.4395" lon="4.88328">
        <ele>172.60059</ele>
        <time>2026-05-13T16:03:15+02:00</time>
      </trkpt>
      <trkpt lat="46.43956" lon="4.88331">
        <ele>172.60059</ele>
        <time>2026-05-13T16:03:16+02:00</time>
      </trkpt>
      <trkpt lat="46.43961" lon="4.88334">
        <ele>172.7002</ele>
        <time>2026-05-13T16:03:17+02:00</time>
      </trkpt>
      <trkpt lat="46.43967" lon="4.88336">
        <ele>172.60059</ele>
        <time>2026-05-13T16:03:18+02:00</time>
      </trkpt>
      <trkpt lat="46.43973" lon="4.88339">
        <ele>172.60059</ele>
        <time>2026-05-13T16:03:19+02:00</time>
      </trkpt>
      <trkpt lat="46.43978" lon="4.88342">
        <ele>172.60059</ele>
        <time>2026-05-13T16:03:20+02:00</time>
      </trkpt>
      <trkpt lat="46.43984" lon="4.88345">
        <ele>172.7002</ele>
        <time>2026-05-13T16:03:21+02:00</time>
      </trkpt>
      <trkpt lat="46.4399" lon="4.88347">
        <ele>172.7002</ele>
        <time>2026-05-13T16:03:22+02:00</time>
      </trkpt>
      <trkpt lat="46.43996" lon="4.8835">
        <ele>172.60059</ele>
        <time>2026-05-13T16:03:23+02:00</time>
      </trkpt>
      <trkpt lat="46.44002" lon="4.88353">
        <ele>172.7002</ele>
        <time>2026-05-13T16:03:24+02:00</time>
      </trkpt>
      <trkpt lat="46.44007" lon="4.88356">
        <ele>172.60059</ele>
        <time>2026-05-13T16:03:25+02:00</time>
      </trkpt>
      <trkpt lat="46.44013" lon="4.88359">
        <ele>172.60059</ele>
        <time>2026-05-13T16:03:26+02:00</time>
      </trkpt>
      <trkpt lat="46.44019" lon="4.88362">
        <ele>172.60059</ele>
        <time>2026-05-13T16:03:27+02:00</time>
      </trkpt>
      <trkpt lat="46.44025" lon="4.88364">
        <ele>172.5</ele>
        <time>2026-05-13T16:03:28+02:00</time>
      </trkpt>
      <trkpt lat="46.44031" lon="4.88367">
        <ele>172.5</ele>
        <time>2026-05-13T16:03:29+02:00</time>
      </trkpt>
      <trkpt lat="46.44036" lon="4.8837">
        <ele>172.5</ele>
        <time>2026-05-13T16:03:30+02:00</time>
      </trkpt>
      <trkpt lat="46.44042" lon="4.88373">
        <ele>172.40039</ele>
        <time>2026-05-13T16:03:31+02:00</time>
      </trkpt>
      <trkpt lat="46.44048" lon="4.88376">
        <ele>172.40039</ele>
        <time>2026-05-13T16:03:32+02:00</time>
      </trkpt>
      <trkpt lat="46.44054" lon="4.88379">
        <ele>172.40039</ele>
        <time>2026-05-13T16:03:33+02:00</time>
      </trkpt>
      <trkpt lat="46.4406" lon="4.88382">
        <ele>172.2998</ele>
        <time>2026-05-13T16:03:34+02:00</time>
      </trkpt>
      <trkpt lat="46.44065" lon="4.88385">
        <ele>172.2998</ele>
        <time>2026-05-13T16:03:35+02:00</time>
      </trkpt>
      <trkpt lat="46.44071" lon="4.88388">
        <ele>172.2998</ele>
        <time>2026-05-13T16:03:36+02:00</time>
      </trkpt>
      <trkpt lat="46.44077" lon="4.88391">
        <ele>172.2002</ele>
        <time>2026-05-13T16:03:37+02:00</time>
      </trkpt>
      <trkpt lat="46.44082" lon="4.88394">
        <ele>172.2002</ele>
        <time>2026-05-13T16:03:38+02:00</time>
      </trkpt>
      <trkpt lat="46.44088" lon="4.88397">
        <ele>172.2002</ele>
        <time>2026-05-13T16:03:39+02:00</time>
      </trkpt>
      <trkpt lat="46.44094" lon="4.88399">
        <ele>172.10059</ele>
        <time>2026-05-13T16:03:40+02:00</time>
      </trkpt>
      <trkpt lat="46.441" lon="4.88403">
        <ele>172.2002</ele>
        <time>2026-05-13T16:03:41+02:00</time>
      </trkpt>
      <trkpt lat="46.44106" lon="4.88406">
        <ele>172.10059</ele>
        <time>2026-05-13T16:03:42+02:00</time>
      </trkpt>
      <trkpt lat="46.44113" lon="4.88409">
        <ele>172</ele>
        <time>2026-05-13T16:03:43+02:00</time>
      </trkpt>
      <trkpt lat="46.44119" lon="4.88412">
        <ele>172.10059</ele>
        <time>2026-05-13T16:03:44+02:00</time>
      </trkpt>
      <trkpt lat="46.44125" lon="4.88414">
        <ele>172.10059</ele>
        <time>2026-05-13T16:03:45+02:00</time>
      </trkpt>
      <trkpt lat="46.44131" lon="4.88416">
        <ele>172</ele>
        <time>2026-05-13T16:03:46+02:00</time>
      </trkpt>
      <trkpt lat="46.44137" lon="4.88419">
        <ele>172</ele>
        <time>2026-05-13T16:03:47+02:00</time>
      </trkpt>
      <trkpt lat="46.44142" lon="4.88422">
        <ele>172.2002</ele>
        <time>2026-05-13T16:03:48+02:00</time>
      </trkpt>
      <trkpt lat="46.44148" lon="4.88426">
        <ele>172.2002</ele>
        <time>2026-05-13T16:03:49+02:00</time>
      </trkpt>
      <trkpt lat="46.44154" lon="4.88429">
        <ele>172.5</ele>
        <time>2026-05-13T16:03:50+02:00</time>
      </trkpt>
      <trkpt lat="46.44159" lon="4.88432">
        <ele>172.5</ele>
        <time>2026-05-13T16:03:51+02:00</time>
      </trkpt>
      <trkpt lat="46.44166" lon="4.88435">
        <ele>172.5</ele>
        <time>2026-05-13T16:03:52+02:00</time>
      </trkpt>
      <trkpt lat="46.44172" lon="4.88437">
        <ele>172.60059</ele>
        <time>2026-05-13T16:03:53+02:00</time>
      </trkpt>
      <trkpt lat="46.44177" lon="4.8844">
        <ele>172.60059</ele>
        <time>2026-05-13T16:03:54+02:00</time>
      </trkpt>
      <trkpt lat="46.44183" lon="4.88443">
        <ele>172.60059</ele>
        <time>2026-05-13T16:03:55+02:00</time>
      </trkpt>
      <trkpt lat="46.4419" lon="4.88446">
        <ele>172.5</ele>
        <time>2026-05-13T16:03:56+02:00</time>
      </trkpt>
      <trkpt lat="46.44195" lon="4.88448">
        <ele>172.5</ele>
        <time>2026-05-13T16:03:57+02:00</time>
      </trkpt>
      <trkpt lat="46.44201" lon="4.88451">
        <ele>172.5</ele>
        <time>2026-05-13T16:03:58+02:00</time>
      </trkpt>
      <trkpt lat="46.44207" lon="4.88454">
        <ele>172.40039</ele>
        <time>2026-05-13T16:03:59+02:00</time>
      </trkpt>
      <trkpt lat="46.44212" lon="4.88457">
        <ele>172.5</ele>
        <time>2026-05-13T16:04:00+02:00</time>
      </trkpt>
      <trkpt lat="46.44218" lon="4.88459">
        <ele>172.7002</ele>
        <time>2026-05-13T16:04:01+02:00</time>
      </trkpt>
      <trkpt lat="46.44224" lon="4.88462">
        <ele>172.7998</ele>
        <time>2026-05-13T16:04:02+02:00</time>
      </trkpt>
      <trkpt lat="46.4423" lon="4.88465">
        <ele>172.7002</ele>
        <time>2026-05-13T16:04:03+02:00</time>
      </trkpt>
      <trkpt lat="46.44236" lon="4.88467">
        <ele>172.90039</ele>
        <time>2026-05-13T16:04:04+02:00</time>
      </trkpt>
      <trkpt lat="46.44242" lon="4.8847">
        <ele>173.10059</ele>
        <time>2026-05-13T16:04:05+02:00</time>
      </trkpt>
      <trkpt lat="46.44248" lon="4.88473">
        <ele>173.2002</ele>
        <time>2026-05-13T16:04:06+02:00</time>
      </trkpt>
      <trkpt lat="46.44254" lon="4.88476">
        <ele>173.40039</ele>
        <time>2026-05-13T16:04:07+02:00</time>
      </trkpt>
      <trkpt lat="46.44261" lon="4.88479">
        <ele>173.5</ele>
        <time>2026-05-13T16:04:08+02:00</time>
      </trkpt>
      <trkpt lat="46.44266" lon="4.88482">
        <ele>173.5</ele>
        <time>2026-05-13T16:04:09+02:00</time>
      </trkpt>
      <trkpt lat="46.44272" lon="4.88486">
        <ele>173.5</ele>
        <time>2026-05-13T16:04:10+02:00</time>
      </trkpt>
      <trkpt lat="46.44278" lon="4.8849">
        <ele>173.5</ele>
        <time>2026-05-13T16:04:11+02:00</time>
      </trkpt>
      <trkpt lat="46.44282" lon="4.88495">
        <ele>173.5</ele>
        <time>2026-05-13T16:04:12+02:00</time>
      </trkpt>
      <trkpt lat="46.44286" lon="4.88501">
        <ele>173.60059</ele>
        <time>2026-05-13T16:04:13+02:00</time>
      </trkpt>
      <trkpt lat="46.44291" lon="4.88506">
        <ele>173.60059</ele>
        <time>2026-05-13T16:04:14+02:00</time>
      </trkpt>
      <trkpt lat="46.44296" lon="4.8851">
        <ele>173.40039</ele>
        <time>2026-05-13T16:04:15+02:00</time>
      </trkpt>
      <trkpt lat="46.44301" lon="4.88512">
        <ele>173.2002</ele>
        <time>2026-05-13T16:04:16+02:00</time>
      </trkpt>
      <trkpt lat="46.44307" lon="4.88513">
        <ele>173</ele>
        <time>2026-05-13T16:04:17+02:00</time>
      </trkpt>
      <trkpt lat="46.44312" lon="4.88513">
        <ele>173</ele>
        <time>2026-05-13T16:04:18+02:00</time>
      </trkpt>
      <trkpt lat="46.44317" lon="4.8851">
        <ele>172.7998</ele>
        <time>2026-05-13T16:04:19+02:00</time>
      </trkpt>
      <trkpt lat="46.44319" lon="4.88504">
        <ele>172.7998</ele>
        <time>2026-05-13T16:04:20+02:00</time>
      </trkpt>
      <trkpt lat="46.44321" lon="4.88497">
        <ele>172.7998</ele>
        <time>2026-05-13T16:04:21+02:00</time>
      </trkpt>
      <trkpt lat="46.44323" lon="4.8849">
        <ele>172.7998</ele>
        <time>2026-05-13T16:04:22+02:00</time>
      </trkpt>
      <trkpt lat="46.44325" lon="4.88483">
        <ele>172.7998</ele>
        <time>2026-05-13T16:04:23+02:00</time>
      </trkpt>
      <trkpt lat="46.44328" lon="4.88475">
        <ele>172.7998</ele>
        <time>2026-05-13T16:04:24+02:00</time>
      </trkpt>
      <trkpt lat="46.4433" lon="4.88467">
        <ele>172.7002</ele>
        <time>2026-05-13T16:04:25+02:00</time>
      </trkpt>
      <trkpt lat="46.44333" lon="4.8846">
        <ele>172.7002</ele>
        <time>2026-05-13T16:04:26+02:00</time>
      </trkpt>
      <trkpt lat="46.44336" lon="4.88453">
        <ele>172.7002</ele>
        <time>2026-05-13T16:04:27+02:00</time>
      </trkpt>
      <trkpt lat="46.44339" lon="4.88448">
        <ele>172.7002</ele>
        <time>2026-05-13T16:04:28+02:00</time>
      </trkpt>
      <trkpt lat="46.44343" lon="4.88445">
        <ele>172.7002</ele>
        <time>2026-05-13T16:04:29+02:00</time>
      </trkpt>
      <trkpt lat="46.44347" lon="4.88445">
        <ele>172.7002</ele>
        <time>2026-05-13T16:04:30+02:00</time>
      </trkpt>
      <trkpt lat="46.44351" lon="4.88444">
        <ele>172.7998</ele>
        <time>2026-05-13T16:04:31+02:00</time>
      </trkpt>
      <trkpt lat="46.44356" lon="4.88442">
        <ele>172.7998</ele>
        <time>2026-05-13T16:04:32+02:00</time>
      </trkpt>
      <trkpt lat="46.4436" lon="4.8844">
        <ele>172.90039</ele>
        <time>2026-05-13T16:04:33+02:00</time>
      </trkpt>
      <trkpt lat="46.44365" lon="4.88437">
        <ele>172.90039</ele>
        <time>2026-05-13T16:04:34+02:00</time>
      </trkpt>
      <trkpt lat="46.4437" lon="4.88434">
        <ele>173</ele>
        <time>2026-05-13T16:04:35+02:00</time>
      </trkpt>
      <trkpt lat="46.44375" lon="4.88432">
        <ele>173.10059</ele>
        <time>2026-05-13T16:04:36+02:00</time>
      </trkpt>
      <trkpt lat="46.4438" lon="4.88429">
        <ele>173.10059</ele>
        <time>2026-05-13T16:04:37+02:00</time>
      </trkpt>
      <trkpt lat="46.44384" lon="4.88426">
        <ele>173.2998</ele>
        <time>2026-05-13T16:04:38+02:00</time>
      </trkpt>
      <trkpt lat="46.44389" lon="4.88423">
        <ele>173.2998</ele>
        <time>2026-05-13T16:04:39+02:00</time>
      </trkpt>
      <trkpt lat="46.44393" lon="4.88421">
        <ele>173.2998</ele>
        <time>2026-05-13T16:04:40+02:00</time>
      </trkpt>
      <trkpt lat="46.44398" lon="4.88419">
        <ele>173.5</ele>
        <time>2026-05-13T16:04:41+02:00</time>
      </trkpt>
      <trkpt lat="46.44403" lon="4.88419">
        <ele>173.5</ele>
        <time>2026-05-13T16:04:42+02:00</time>
      </trkpt>
      <trkpt lat="46.44408" lon="4.8842">
        <ele>173.5</ele>
        <time>2026-05-13T16:04:43+02:00</time>
      </trkpt>
      <trkpt lat="46.44412" lon="4.88421">
        <ele>173.5</ele>
        <time>2026-05-13T16:04:44+02:00</time>
      </trkpt>
      <trkpt lat="46.44417" lon="4.88424">
        <ele>173.5</ele>
        <time>2026-05-13T16:04:45+02:00</time>
      </trkpt>
      <trkpt lat="46.44421" lon="4.88428">
        <ele>173.5</ele>
        <time>2026-05-13T16:04:46+02:00</time>
      </trkpt>
      <trkpt lat="46.44425" lon="4.88434">
        <ele>173.5</ele>
        <time>2026-05-13T16:04:47+02:00</time>
      </trkpt>
      <trkpt lat="46.44428" lon="4.8844">
        <ele>173.5</ele>
        <time>2026-05-13T16:04:48+02:00</time>
      </trkpt>
      <trkpt lat="46.44431" lon="4.88447">
        <ele>173.60059</ele>
        <time>2026-05-13T16:04:49+02:00</time>
      </trkpt>
      <trkpt lat="46.44433" lon="4.88454">
        <ele>173.60059</ele>
        <time>2026-05-13T16:04:50+02:00</time>
      </trkpt>
      <trkpt lat="46.44436" lon="4.88461">
        <ele>173.60059</ele>
        <time>2026-05-13T16:04:51+02:00</time>
      </trkpt>
      <trkpt lat="46.44439" lon="4.88467">
        <ele>173.7002</ele>
        <time>2026-05-13T16:04:52+02:00</time>
      </trkpt>
      <trkpt lat="46.44441" lon="4.88473">
        <ele>173.7002</ele>
        <time>2026-05-13T16:04:53+02:00</time>
      </trkpt>
      <trkpt lat="46.44443" lon="4.8848">
        <ele>173.7998</ele>
        <time>2026-05-13T16:04:54+02:00</time>
      </trkpt>
      <trkpt lat="46.44446" lon="4.88486">
        <ele>173.7998</ele>
        <time>2026-05-13T16:04:55+02:00</time>
      </trkpt>
      <trkpt lat="46.44448" lon="4.88491">
        <ele>173.7002</ele>
        <time>2026-05-13T16:04:56+02:00</time>
      </trkpt>
      <trkpt lat="46.44451" lon="4.88497">
        <ele>173.7998</ele>
        <time>2026-05-13T16:04:57+02:00</time>
      </trkpt>
      <trkpt lat="46.44453" lon="4.88502">
        <ele>173.7998</ele>
        <time>2026-05-13T16:04:58+02:00</time>
      </trkpt>
      <trkpt lat="46.44455" lon="4.88507">
        <ele>173.7002</ele>
        <time>2026-05-13T16:04:59+02:00</time>
      </trkpt>
      <trkpt lat="46.44456" lon="4.88513">
        <ele>173.7002</ele>
        <time>2026-05-13T16:05:00+02:00</time>
      </trkpt>
      <trkpt lat="46.44458" lon="4.88519">
        <ele>173.60059</ele>
        <time>2026-05-13T16:05:01+02:00</time>
      </trkpt>
      <trkpt lat="46.44458" lon="4.88525">
        <ele>173.5</ele>
        <time>2026-05-13T16:05:02+02:00</time>
      </trkpt>
      <trkpt lat="46.44457" lon="4.8853">
        <ele>173.5</ele>
        <time>2026-05-13T16:05:03+02:00</time>
      </trkpt>
      <trkpt lat="46.44456" lon="4.88536">
        <ele>173.2998</ele>
        <time>2026-05-13T16:05:04+02:00</time>
      </trkpt>
      <trkpt lat="46.44455" lon="4.88542">
        <ele>173.2002</ele>
        <time>2026-05-13T16:05:05+02:00</time>
      </trkpt>
      <trkpt lat="46.44455" lon="4.88548">
        <ele>173.2002</ele>
        <time>2026-05-13T16:05:06+02:00</time>
      </trkpt>
      <trkpt lat="46.44457" lon="4.88554">
        <ele>173</ele>
        <time>2026-05-13T16:05:07+02:00</time>
      </trkpt>
      <trkpt lat="46.4446" lon="4.88559">
        <ele>172.90039</ele>
        <time>2026-05-13T16:05:08+02:00</time>
      </trkpt>
      <trkpt lat="46.44464" lon="4.88565">
        <ele>173</ele>
        <time>2026-05-13T16:05:09+02:00</time>
      </trkpt>
      <trkpt lat="46.44467" lon="4.8857">
        <ele>173</ele>
        <time>2026-05-13T16:05:10+02:00</time>
      </trkpt>
      <trkpt lat="46.44471" lon="4.88575">
        <ele>172.90039</ele>
        <time>2026-05-13T16:05:11+02:00</time>
      </trkpt>
      <trkpt lat="46.44475" lon="4.88582">
        <ele>173</ele>
        <time>2026-05-13T16:05:12+02:00</time>
      </trkpt>
      <trkpt lat="46.44478" lon="4.88588">
        <ele>172.90039</ele>
        <time>2026-05-13T16:05:13+02:00</time>
      </trkpt>
      <trkpt lat="46.44481" lon="4.88594">
        <ele>172.7998</ele>
        <time>2026-05-13T16:05:14+02:00</time>
      </trkpt>
      <trkpt lat="46.44484" lon="4.88601">
        <ele>172.7002</ele>
        <time>2026-05-13T16:05:15+02:00</time>
      </trkpt>
      <trkpt lat="46.44488" lon="4.88607">
        <ele>172.7002</ele>
        <time>2026-05-13T16:05:16+02:00</time>
      </trkpt>
      <trkpt lat="46.44492" lon="4.88613">
        <ele>172.60059</ele>
        <time>2026-05-13T16:05:17+02:00</time>
      </trkpt>
      <trkpt lat="46.44496" lon="4.88618">
        <ele>172.5</ele>
        <time>2026-05-13T16:05:18+02:00</time>
      </trkpt>
      <trkpt lat="46.44501" lon="4.88623">
        <ele>172.5</ele>
        <time>2026-05-13T16:05:19+02:00</time>
      </trkpt>
      <trkpt lat="46.44506" lon="4.88627">
        <ele>172.2998</ele>
        <time>2026-05-13T16:05:20+02:00</time>
      </trkpt>
      <trkpt lat="46.44511" lon="4.88631">
        <ele>172.2998</ele>
        <time>2026-05-13T16:05:21+02:00</time>
      </trkpt>
      <trkpt lat="46.44516" lon="4.88635">
        <ele>172.10059</ele>
        <time>2026-05-13T16:05:22+02:00</time>
      </trkpt>
      <trkpt lat="46.44521" lon="4.88639">
        <ele>172.10059</ele>
        <time>2026-05-13T16:05:23+02:00</time>
      </trkpt>
      <trkpt lat="46.44526" lon="4.88644">
        <ele>171.7998</ele>
        <time>2026-05-13T16:05:24+02:00</time>
      </trkpt>
      <trkpt lat="46.44531" lon="4.88648">
        <ele>171.7998</ele>
        <time>2026-05-13T16:05:25+02:00</time>
      </trkpt>
      <trkpt lat="46.44535" lon="4.88652">
        <ele>171.7002</ele>
        <time>2026-05-13T16:05:26+02:00</time>
      </trkpt>
      <trkpt lat="46.4454" lon="4.88656">
        <ele>171.7002</ele>
        <time>2026-05-13T16:05:27+02:00</time>
      </trkpt>
      <trkpt lat="46.44544" lon="4.8866">
        <ele>171.60059</ele>
        <time>2026-05-13T16:05:28+02:00</time>
      </trkpt>
      <trkpt lat="46.44549" lon="4.88663">
        <ele>171.60059</ele>
        <time>2026-05-13T16:05:29+02:00</time>
      </trkpt>
      <trkpt lat="46.44554" lon="4.88666">
        <ele>171.60059</ele>
        <time>2026-05-13T16:05:30+02:00</time>
      </trkpt>
      <trkpt lat="46.44559" lon="4.88666">
        <ele>171.60059</ele>
        <time>2026-05-13T16:05:31+02:00</time>
      </trkpt>
      <trkpt lat="46.44563" lon="4.88663">
        <ele>171.7002</ele>
        <time>2026-05-13T16:05:32+02:00</time>
      </trkpt>
      <trkpt lat="46.44567" lon="4.88658">
        <ele>171.7998</ele>
        <time>2026-05-13T16:05:33+02:00</time>
      </trkpt>
      <trkpt lat="46.44569" lon="4.88652">
        <ele>171.7998</ele>
        <time>2026-05-13T16:05:34+02:00</time>
      </trkpt>
      <trkpt lat="46.44571" lon="4.88645">
        <ele>172</ele>
        <time>2026-05-13T16:05:35+02:00</time>
      </trkpt>
      <trkpt lat="46.44573" lon="4.88638">
        <ele>172.10059</ele>
        <time>2026-05-13T16:05:36+02:00</time>
      </trkpt>
      <trkpt lat="46.44574" lon="4.88631">
        <ele>172.2998</ele>
        <time>2026-05-13T16:05:37+02:00</time>
      </trkpt>
      <trkpt lat="46.44575" lon="4.88624">
        <ele>172.5</ele>
        <time>2026-05-13T16:05:38+02:00</time>
      </trkpt>
      <trkpt lat="46.44576" lon="4.88617">
        <ele>172.5</ele>
        <time>2026-05-13T16:05:39+02:00</time>
      </trkpt>
      <trkpt lat="46.44578" lon="4.88609">
        <ele>172.7002</ele>
        <time>2026-05-13T16:05:40+02:00</time>
      </trkpt>
      <trkpt lat="46.44579" lon="4.88601">
        <ele>173</ele>
        <time>2026-05-13T16:05:41+02:00</time>
      </trkpt>
      <trkpt lat="46.44581" lon="4.88594">
        <ele>173.2002</ele>
        <time>2026-05-13T16:05:42+02:00</time>
      </trkpt>
      <trkpt lat="46.44582" lon="4.88587">
        <ele>173.2998</ele>
        <time>2026-05-13T16:05:43+02:00</time>
      </trkpt>
      <trkpt lat="46.44585" lon="4.8858">
        <ele>173.40039</ele>
        <time>2026-05-13T16:05:44+02:00</time>
      </trkpt>
      <trkpt lat="46.44588" lon="4.88573">
        <ele>173.40039</ele>
        <time>2026-05-13T16:05:45+02:00</time>
      </trkpt>
      <trkpt lat="46.44592" lon="4.88569">
        <ele>173.5</ele>
        <time>2026-05-13T16:05:46+02:00</time>
      </trkpt>
      <trkpt lat="46.44597" lon="4.88566">
        <ele>173.5</ele>
        <time>2026-05-13T16:05:47+02:00</time>
      </trkpt>
      <trkpt lat="46.44602" lon="4.88564">
        <ele>173.5</ele>
        <time>2026-05-13T16:05:48+02:00</time>
      </trkpt>
      <trkpt lat="46.44608" lon="4.88563">
        <ele>173.7002</ele>
        <time>2026-05-13T16:05:49+02:00</time>
      </trkpt>
      <trkpt lat="46.44613" lon="4.88563">
        <ele>173.7002</ele>
        <time>2026-05-13T16:05:50+02:00</time>
      </trkpt>
      <trkpt lat="46.44618" lon="4.88563">
        <ele>173.7998</ele>
        <time>2026-05-13T16:05:51+02:00</time>
      </trkpt>
      <trkpt lat="46.44623" lon="4.88563">
        <ele>173.90039</ele>
        <time>2026-05-13T16:05:52+02:00</time>
      </trkpt>
      <trkpt lat="46.44627" lon="4.88563">
        <ele>173.90039</ele>
        <time>2026-05-13T16:05:53+02:00</time>
      </trkpt>
      <trkpt lat="46.44631" lon="4.88563">
        <ele>173.90039</ele>
        <time>2026-05-13T16:05:54+02:00</time>
      </trkpt>
      <trkpt lat="46.44634" lon="4.88564">
        <ele>174</ele>
        <time>2026-05-13T16:05:55+02:00</time>
      </trkpt>
      <trkpt lat="46.44637" lon="4.88566">
        <ele>174</ele>
        <time>2026-05-13T16:05:56+02:00</time>
      </trkpt>
      <trkpt lat="46.4464" lon="4.88567">
        <ele>174</ele>
        <time>2026-05-13T16:05:57+02:00</time>
      </trkpt>
      <trkpt lat="46.44643" lon="4.88569">
        <ele>174</ele>
        <time>2026-05-13T16:05:58+02:00</time>
      </trkpt>
      <trkpt lat="46.44645" lon="4.88571">
        <ele>174.10059</ele>
        <time>2026-05-13T16:05:59+02:00</time>
      </trkpt>
      <trkpt lat="46.44647" lon="4.88575">
        <ele>174</ele>
        <time>2026-05-13T16:06:00+02:00</time>
      </trkpt>
      <trkpt lat="46.44648" lon="4.8858">
        <ele>174</ele>
        <time>2026-05-13T16:06:01+02:00</time>
      </trkpt>
      <trkpt lat="46.44648" lon="4.88585">
        <ele>173.7998</ele>
        <time>2026-05-13T16:06:02+02:00</time>
      </trkpt>
      <trkpt lat="46.44648" lon="4.8859">
        <ele>173.7998</ele>
        <time>2026-05-13T16:06:03+02:00</time>
      </trkpt>
      <trkpt lat="46.44647" lon="4.88595">
        <ele>173.60059</ele>
        <time>2026-05-13T16:06:04+02:00</time>
      </trkpt>
      <trkpt lat="46.44648" lon="4.886">
        <ele>173.2002</ele>
        <time>2026-05-13T16:06:05+02:00</time>
      </trkpt>
      <trkpt lat="46.4465" lon="4.88603">
        <ele>173.2002</ele>
        <time>2026-05-13T16:06:06+02:00</time>
      </trkpt>
      <trkpt lat="46.44653" lon="4.88606">
        <ele>173.2002</ele>
        <time>2026-05-13T16:06:07+02:00</time>
      </trkpt>
      <trkpt lat="46.44656" lon="4.88608">
        <ele>173.2002</ele>
        <time>2026-05-13T16:06:08+02:00</time>
      </trkpt>
      <trkpt lat="46.44659" lon="4.8861">
        <ele>172.90039</ele>
        <time>2026-05-13T16:06:09+02:00</time>
      </trkpt>
      <trkpt lat="46.44661" lon="4.88611">
        <ele>172.90039</ele>
        <time>2026-05-13T16:06:10+02:00</time>
      </trkpt>
      <trkpt lat="46.44663" lon="4.88613">
        <ele>172.7998</ele>
        <time>2026-05-13T16:06:11+02:00</time>
      </trkpt>
      <trkpt lat="46.44665" lon="4.88614">
        <ele>172.7998</ele>
        <time>2026-05-13T16:06:12+02:00</time>
      </trkpt>
      <trkpt lat="46.44667" lon="4.88616">
        <ele>172.7998</ele>
        <time>2026-05-13T16:06:13+02:00</time>
      </trkpt>
      <trkpt lat="46.44669" lon="4.88617">
        <ele>172.5</ele>
        <time>2026-05-13T16:06:14+02:00</time>
      </trkpt>
      <trkpt lat="46.44672" lon="4.88618">
        <ele>172.5</ele>
        <time>2026-05-13T16:06:15+02:00</time>
      </trkpt>
      <trkpt lat="46.44674" lon="4.8862">
        <ele>172.40039</ele>
        <time>2026-05-13T16:06:16+02:00</time>
      </trkpt>
      <trkpt lat="46.44677" lon="4.88622">
        <ele>172.40039</ele>
        <time>2026-05-13T16:06:17+02:00</time>
      </trkpt>
      <trkpt lat="46.4468" lon="4.88623">
        <ele>172.2998</ele>
        <time>2026-05-13T16:06:18+02:00</time>
      </trkpt>
      <trkpt lat="46.44683" lon="4.88625">
        <ele>172.2998</ele>
        <time>2026-05-13T16:06:19+02:00</time>
      </trkpt>
      <trkpt lat="46.44686" lon="4.88627">
        <ele>172</ele>
        <time>2026-05-13T16:06:20+02:00</time>
      </trkpt>
      <trkpt lat="46.4469" lon="4.88629">
        <ele>172</ele>
        <time>2026-05-13T16:06:21+02:00</time>
      </trkpt>
      <trkpt lat="46.44693" lon="4.88631">
        <ele>171.90039</ele>
        <time>2026-05-13T16:06:22+02:00</time>
      </trkpt>
      <trkpt lat="46.44697" lon="4.88633">
        <ele>171.7998</ele>
        <time>2026-05-13T16:06:23+02:00</time>
      </trkpt>
      <trkpt lat="46.44701" lon="4.88635">
        <ele>171.5</ele>
        <time>2026-05-13T16:06:24+02:00</time>
      </trkpt>
      <trkpt lat="46.44704" lon="4.88637">
        <ele>171.40039</ele>
        <time>2026-05-13T16:06:25+02:00</time>
      </trkpt>
      <trkpt lat="46.44708" lon="4.88638">
        <ele>171.40039</ele>
        <time>2026-05-13T16:06:26+02:00</time>
      </trkpt>
      <trkpt lat="46.44711" lon="4.8864">
        <ele>171.2998</ele>
        <time>2026-05-13T16:06:27+02:00</time>
      </trkpt>
      <trkpt lat="46.44715" lon="4.88642">
        <ele>171.2002</ele>
        <time>2026-05-13T16:06:28+02:00</time>
      </trkpt>
      <trkpt lat="46.44719" lon="4.88643">
        <ele>170.90039</ele>
        <time>2026-05-13T16:06:29+02:00</time>
      </trkpt>
      <trkpt lat="46.44722" lon="4.88645">
        <ele>170.7998</ele>
        <time>2026-05-13T16:06:30+02:00</time>
      </trkpt>
      <trkpt lat="46.44726" lon="4.88648">
        <ele>170.7002</ele>
        <time>2026-05-13T16:06:31+02:00</time>
      </trkpt>
      <trkpt lat="46.44729" lon="4.8865">
        <ele>170.7002</ele>
        <time>2026-05-13T16:06:32+02:00</time>
      </trkpt>
      <trkpt lat="46.44732" lon="4.88652">
        <ele>170.40039</ele>
        <time>2026-05-13T16:06:33+02:00</time>
      </trkpt>
      <trkpt lat="46.44735" lon="4.88654">
        <ele>170.2998</ele>
        <time>2026-05-13T16:06:34+02:00</time>
      </trkpt>
      <trkpt lat="46.44739" lon="4.88655">
        <ele>170.2002</ele>
        <time>2026-05-13T16:06:35+02:00</time>
      </trkpt>
      <trkpt lat="46.44742" lon="4.88656">
        <ele>170.2002</ele>
        <time>2026-05-13T16:06:36+02:00</time>
      </trkpt>
      <trkpt lat="46.44745" lon="4.88658">
        <ele>170.10059</ele>
        <time>2026-05-13T16:06:37+02:00</time>
      </trkpt>
      <trkpt lat="46.44748" lon="4.8866">
        <ele>169.7998</ele>
        <time>2026-05-13T16:06:38+02:00</time>
      </trkpt>
      <trkpt lat="46.44751" lon="4.88662">
        <ele>169.7002</ele>
        <time>2026-05-13T16:06:39+02:00</time>
      </trkpt>
      <trkpt lat="46.44755" lon="4.88663">
        <ele>169.7002</ele>
        <time>2026-05-13T16:06:40+02:00</time>
      </trkpt>
      <trkpt lat="46.44758" lon="4.88665">
        <ele>169.7002</ele>
        <time>2026-05-13T16:06:41+02:00</time>
      </trkpt>
      <trkpt lat="46.44761" lon="4.88666">
        <ele>169.7002</ele>
        <time>2026-05-13T16:06:42+02:00</time>
      </trkpt>
      <trkpt lat="46.44763" lon="4.88668">
        <ele>169.60059</ele>
        <time>2026-05-13T16:06:43+02:00</time>
      </trkpt>
      <trkpt lat="46.44765" lon="4.88671">
        <ele>169.2998</ele>
        <time>2026-05-13T16:06:44+02:00</time>
      </trkpt>
      <trkpt lat="46.44766" lon="4.88674">
        <ele>169.2998</ele>
        <time>2026-05-13T16:06:45+02:00</time>
      </trkpt>
      <trkpt lat="46.44766" lon="4.88677">
        <ele>169.2998</ele>
        <time>2026-05-13T16:06:46+02:00</time>
      </trkpt>
      <trkpt lat="46.44766" lon="4.88681">
        <ele>169.2002</ele>
        <time>2026-05-13T16:06:47+02:00</time>
      </trkpt>
      <trkpt lat="46.44766" lon="4.88684">
        <ele>169.2002</ele>
        <time>2026-05-13T16:06:48+02:00</time>
      </trkpt>
      <trkpt lat="46.44765" lon="4.88688">
        <ele>169.2002</ele>
        <time>2026-05-13T16:06:49+02:00</time>
      </trkpt>
      <trkpt lat="46.44764" lon="4.8869">
        <ele>169.2002</ele>
        <time>2026-05-13T16:06:50+02:00</time>
      </trkpt>
      <trkpt lat="46.44763" lon="4.88693">
        <ele>169.2002</ele>
        <time>2026-05-13T16:06:51+02:00</time>
      </trkpt>
      <trkpt lat="46.44762" lon="4.88696">
        <ele>169.40039</ele>
        <time>2026-05-13T16:06:52+02:00</time>
      </trkpt>
      <trkpt lat="46.44761" lon="4.88699">
        <ele>169.40039</ele>
        <time>2026-05-13T16:06:53+02:00</time>
      </trkpt>
      <trkpt lat="46.44761" lon="4.88703">
        <ele>169.5</ele>
        <time>2026-05-13T16:06:54+02:00</time>
      </trkpt>
      <trkpt lat="46.4476" lon="4.88706">
        <ele>169.5</ele>
        <time>2026-05-13T16:06:55+02:00</time>
      </trkpt>
      <trkpt lat="46.44758" lon="4.8871">
        <ele>169.5</ele>
        <time>2026-05-13T16:06:56+02:00</time>
      </trkpt>
      <trkpt lat="46.44758" lon="4.88713">
        <ele>169.7002</ele>
        <time>2026-05-13T16:06:57+02:00</time>
      </trkpt>
      <trkpt lat="46.44757" lon="4.88717">
        <ele>169.7002</ele>
        <time>2026-05-13T16:06:58+02:00</time>
      </trkpt>
      <trkpt lat="46.44756" lon="4.8872">
        <ele>169.90039</ele>
        <time>2026-05-13T16:06:59+02:00</time>
      </trkpt>
      <trkpt lat="46.44755" lon="4.88724">
        <ele>169.90039</ele>
        <time>2026-05-13T16:07:00+02:00</time>
      </trkpt>
      <trkpt lat="46.44755" lon="4.88728">
        <ele>169.90039</ele>
        <time>2026-05-13T16:07:01+02:00</time>
      </trkpt>
      <trkpt lat="46.44753" lon="4.88734">
        <ele>170.10059</ele>
        <time>2026-05-13T16:07:02+02:00</time>
      </trkpt>
      <trkpt lat="46.44753" lon="4.88736">
        <ele>170.10059</ele>
        <time>2026-05-13T16:07:03+02:00</time>
      </trkpt>
      <trkpt lat="46.44752" lon="4.88741">
        <ele>170.2998</ele>
        <time>2026-05-13T16:07:04+02:00</time>
      </trkpt>
      <trkpt lat="46.44751" lon="4.88745">
        <ele>170.2998</ele>
        <time>2026-05-13T16:07:05+02:00</time>
      </trkpt>
      <trkpt lat="46.4475" lon="4.8875">
        <ele>170.40039</ele>
        <time>2026-05-13T16:07:06+02:00</time>
      </trkpt>
      <trkpt lat="46.44748" lon="4.88756">
        <ele>170.60059</ele>
        <time>2026-05-13T16:07:07+02:00</time>
      </trkpt>
      <trkpt lat="46.44747" lon="4.88761">
        <ele>170.60059</ele>
        <time>2026-05-13T16:07:08+02:00</time>
      </trkpt>
      <trkpt lat="46.44746" lon="4.88767">
        <ele>170.7002</ele>
        <time>2026-05-13T16:07:09+02:00</time>
      </trkpt>
      <trkpt lat="46.44745" lon="4.88773">
        <ele>170.7998</ele>
        <time>2026-05-13T16:07:10+02:00</time>
      </trkpt>
      <trkpt lat="46.44743" lon="4.88778">
        <ele>170.7998</ele>
        <time>2026-05-13T16:07:11+02:00</time>
      </trkpt>
      <trkpt lat="46.44742" lon="4.88784">
        <ele>170.90039</ele>
        <time>2026-05-13T16:07:12+02:00</time>
      </trkpt>
      <trkpt lat="46.4474" lon="4.8879">
        <ele>171</ele>
        <time>2026-05-13T16:07:13+02:00</time>
      </trkpt>
      <trkpt lat="46.44739" lon="4.88796">
        <ele>171</ele>
        <time>2026-05-13T16:07:14+02:00</time>
      </trkpt>
      <trkpt lat="46.44737" lon="4.88802">
        <ele>171</ele>
        <time>2026-05-13T16:07:15+02:00</time>
      </trkpt>
      <trkpt lat="46.44736" lon="4.88808">
        <ele>171.10059</ele>
        <time>2026-05-13T16:07:16+02:00</time>
      </trkpt>
      <trkpt lat="46.44734" lon="4.88814">
        <ele>171.10059</ele>
        <time>2026-05-13T16:07:17+02:00</time>
      </trkpt>
      <trkpt lat="46.44732" lon="4.88821">
        <ele>171.10059</ele>
        <time>2026-05-13T16:07:18+02:00</time>
      </trkpt>
      <trkpt lat="46.44731" lon="4.88827">
        <ele>171.2002</ele>
        <time>2026-05-13T16:07:19+02:00</time>
      </trkpt>
      <trkpt lat="46.44729" lon="4.88834">
        <ele>171.2002</ele>
        <time>2026-05-13T16:07:20+02:00</time>
      </trkpt>
      <trkpt lat="46.44727" lon="4.8884">
        <ele>171.2002</ele>
        <time>2026-05-13T16:07:21+02:00</time>
      </trkpt>
      <trkpt lat="46.44721" lon="4.8886">
        <ele>171.2998</ele>
        <time>2026-05-13T16:07:22+02:00</time>
      </trkpt>
      <trkpt lat="46.44719" lon="4.88867">
        <ele>171.2998</ele>
        <time>2026-05-13T16:07:23+02:00</time>
      </trkpt>
      <trkpt lat="46.44717" lon="4.88874">
        <ele>171.2998</ele>
        <time>2026-05-13T16:07:24+02:00</time>
      </trkpt>
      <trkpt lat="46.44715" lon="4.88881">
        <ele>171.40039</ele>
        <time>2026-05-13T16:07:25+02:00</time>
      </trkpt>
      <trkpt lat="46.44713" lon="4.88887">
        <ele>171.40039</ele>
        <time>2026-05-13T16:07:26+02:00</time>
      </trkpt>
      <trkpt lat="46.44711" lon="4.88894">
        <ele>171.40039</ele>
        <time>2026-05-13T16:07:27+02:00</time>
      </trkpt>
      <trkpt lat="46.44709" lon="4.88901">
        <ele>171.40039</ele>
        <time>2026-05-13T16:07:28+02:00</time>
      </trkpt>
      <trkpt lat="46.44706" lon="4.88908">
        <ele>171.40039</ele>
        <time>2026-05-13T16:07:29+02:00</time>
      </trkpt>
      <trkpt lat="46.44705" lon="4.88915">
        <ele>171.2998</ele>
        <time>2026-05-13T16:07:30+02:00</time>
      </trkpt>
      <trkpt lat="46.44703" lon="4.88922">
        <ele>171.2998</ele>
        <time>2026-05-13T16:07:31+02:00</time>
      </trkpt>
      <trkpt lat="46.44701" lon="4.88928">
        <ele>171.2998</ele>
        <time>2026-05-13T16:07:32+02:00</time>
      </trkpt>
      <trkpt lat="46.44699" lon="4.88935">
        <ele>171.2002</ele>
        <time>2026-05-13T16:07:33+02:00</time>
      </trkpt>
      <trkpt lat="46.44697" lon="4.88942">
        <ele>171.2002</ele>
        <time>2026-05-13T16:07:34+02:00</time>
      </trkpt>
      <trkpt lat="46.44695" lon="4.88948">
        <ele>171.10059</ele>
        <time>2026-05-13T16:07:35+02:00</time>
      </trkpt>
      <trkpt lat="46.44694" lon="4.88955">
        <ele>171</ele>
        <time>2026-05-13T16:07:36+02:00</time>
      </trkpt>
      <trkpt lat="46.44692" lon="4.88961">
        <ele>170.90039</ele>
        <time>2026-05-13T16:07:37+02:00</time>
      </trkpt>
      <trkpt lat="46.4469" lon="4.88968">
        <ele>170.90039</ele>
        <time>2026-05-13T16:07:38+02:00</time>
      </trkpt>
      <trkpt lat="46.44688" lon="4.88975">
        <ele>170.7998</ele>
        <time>2026-05-13T16:07:39+02:00</time>
      </trkpt>
      <trkpt lat="46.44686" lon="4.88982">
        <ele>170.7002</ele>
        <time>2026-05-13T16:07:40+02:00</time>
      </trkpt>
      <trkpt lat="46.44684" lon="4.8899">
        <ele>170.60059</ele>
        <time>2026-05-13T16:07:41+02:00</time>
      </trkpt>
      <trkpt lat="46.44682" lon="4.88997">
        <ele>170.5</ele>
        <time>2026-05-13T16:07:42+02:00</time>
      </trkpt>
      <trkpt lat="46.4468" lon="4.89004">
        <ele>170.40039</ele>
        <time>2026-05-13T16:07:43+02:00</time>
      </trkpt>
      <trkpt lat="46.44678" lon="4.89011">
        <ele>170.5</ele>
        <time>2026-05-13T16:07:44+02:00</time>
      </trkpt>
      <trkpt lat="46.44676" lon="4.89018">
        <ele>170.40039</ele>
        <time>2026-05-13T16:07:45+02:00</time>
      </trkpt>
      <trkpt lat="46.44674" lon="4.89025">
        <ele>170.2998</ele>
        <time>2026-05-13T16:07:46+02:00</time>
      </trkpt>
      <trkpt lat="46.44672" lon="4.89032">
        <ele>170.2002</ele>
        <time>2026-05-13T16:07:47+02:00</time>
      </trkpt>
      <trkpt lat="46.4467" lon="4.8904">
        <ele>170.10059</ele>
        <time>2026-05-13T16:07:48+02:00</time>
      </trkpt>
      <trkpt lat="46.44668" lon="4.89047">
        <ele>170</ele>
        <time>2026-05-13T16:07:49+02:00</time>
      </trkpt>
      <trkpt lat="46.44666" lon="4.89054">
        <ele>170</ele>
        <time>2026-05-13T16:07:50+02:00</time>
      </trkpt>
      <trkpt lat="46.44664" lon="4.8906">
        <ele>169.7998</ele>
        <time>2026-05-13T16:07:51+02:00</time>
      </trkpt>
      <trkpt lat="46.44661" lon="4.89067">
        <ele>169.7998</ele>
        <time>2026-05-13T16:07:52+02:00</time>
      </trkpt>
      <trkpt lat="46.4466" lon="4.89074">
        <ele>170.10059</ele>
        <time>2026-05-13T16:07:53+02:00</time>
      </trkpt>
      <trkpt lat="46.44658" lon="4.89081">
        <ele>170.60059</ele>
        <time>2026-05-13T16:07:54+02:00</time>
      </trkpt>
      <trkpt lat="46.44656" lon="4.89088">
        <ele>170.60059</ele>
        <time>2026-05-13T16:07:55+02:00</time>
      </trkpt>
      <trkpt lat="46.44654" lon="4.89094">
        <ele>171.40039</ele>
        <time>2026-05-13T16:07:56+02:00</time>
      </trkpt>
      <trkpt lat="46.44652" lon="4.89101">
        <ele>172.10059</ele>
        <time>2026-05-13T16:07:57+02:00</time>
      </trkpt>
      <trkpt lat="46.4465" lon="4.89108">
        <ele>172.7998</ele>
        <time>2026-05-13T16:07:58+02:00</time>
      </trkpt>
      <trkpt lat="46.44648" lon="4.89115">
        <ele>173.60059</ele>
        <time>2026-05-13T16:07:59+02:00</time>
      </trkpt>
      <trkpt lat="46.44646" lon="4.89122">
        <ele>173.60059</ele>
        <time>2026-05-13T16:08:00+02:00</time>
      </trkpt>
      <trkpt lat="46.44644" lon="4.8913">
        <ele>174.2002</ele>
        <time>2026-05-13T16:08:01+02:00</time>
      </trkpt>
      <trkpt lat="46.44642" lon="4.89137">
        <ele>175</ele>
        <time>2026-05-13T16:08:02+02:00</time>
      </trkpt>
      <trkpt lat="46.4464" lon="4.89145">
        <ele>175.5</ele>
        <time>2026-05-13T16:08:03+02:00</time>
      </trkpt>
      <trkpt lat="46.44638" lon="4.89152">
        <ele>175.7998</ele>
        <time>2026-05-13T16:08:04+02:00</time>
      </trkpt>
      <trkpt lat="46.44636" lon="4.89159">
        <ele>176.2002</ele>
        <time>2026-05-13T16:08:05+02:00</time>
      </trkpt>
      <trkpt lat="46.44634" lon="4.89167">
        <ele>176.40039</ele>
        <time>2026-05-13T16:08:06+02:00</time>
      </trkpt>
      <trkpt lat="46.44632" lon="4.89174">
        <ele>176.40039</ele>
        <time>2026-05-13T16:08:07+02:00</time>
      </trkpt>
      <trkpt lat="46.44629" lon="4.89181">
        <ele>176.5</ele>
        <time>2026-05-13T16:08:08+02:00</time>
      </trkpt>
      <trkpt lat="46.44628" lon="4.89188">
        <ele>176.40039</ele>
        <time>2026-05-13T16:08:09+02:00</time>
      </trkpt>
      <trkpt lat="46.44625" lon="4.89195">
        <ele>176.40039</ele>
        <time>2026-05-13T16:08:10+02:00</time>
      </trkpt>
      <trkpt lat="46.44623" lon="4.89202">
        <ele>176.2998</ele>
        <time>2026-05-13T16:08:11+02:00</time>
      </trkpt>
      <trkpt lat="46.44621" lon="4.89209">
        <ele>176.2998</ele>
        <time>2026-05-13T16:08:12+02:00</time>
      </trkpt>
      <trkpt lat="46.44619" lon="4.89216">
        <ele>176.2998</ele>
        <time>2026-05-13T16:08:13+02:00</time>
      </trkpt>
      <trkpt lat="46.44617" lon="4.89223">
        <ele>176.2998</ele>
        <time>2026-05-13T16:08:14+02:00</time>
      </trkpt>
      <trkpt lat="46.44615" lon="4.8923">
        <ele>176.2998</ele>
        <time>2026-05-13T16:08:15+02:00</time>
      </trkpt>
      <trkpt lat="46.44612" lon="4.89237">
        <ele>175.2998</ele>
        <time>2026-05-13T16:08:16+02:00</time>
      </trkpt>
      <trkpt lat="46.4461" lon="4.89244">
        <ele>174.60059</ele>
        <time>2026-05-13T16:08:17+02:00</time>
      </trkpt>
      <trkpt lat="46.44608" lon="4.89251">
        <ele>174.60059</ele>
        <time>2026-05-13T16:08:18+02:00</time>
      </trkpt>
      <trkpt lat="46.44606" lon="4.89258">
        <ele>173</ele>
        <time>2026-05-13T16:08:19+02:00</time>
      </trkpt>
      <trkpt lat="46.44604" lon="4.89264">
        <ele>172.10059</ele>
        <time>2026-05-13T16:08:20+02:00</time>
      </trkpt>
      <trkpt lat="46.44603" lon="4.8927">
        <ele>171.2002</ele>
        <time>2026-05-13T16:08:21+02:00</time>
      </trkpt>
      <trkpt lat="46.44601" lon="4.89275">
        <ele>170.90039</ele>
        <time>2026-05-13T16:08:22+02:00</time>
      </trkpt>
      <trkpt lat="46.44601" lon="4.8928">
        <ele>170.2998</ele>
        <time>2026-05-13T16:08:23+02:00</time>
      </trkpt>
      <trkpt lat="46.44602" lon="4.89285">
        <ele>170.2998</ele>
        <time>2026-05-13T16:08:24+02:00</time>
      </trkpt>
      <trkpt lat="46.44604" lon="4.89289">
        <ele>169.7998</ele>
        <time>2026-05-13T16:08:25+02:00</time>
      </trkpt>
      <trkpt lat="46.44607" lon="4.89292">
        <ele>169.7998</ele>
        <time>2026-05-13T16:08:26+02:00</time>
      </trkpt>
      <trkpt lat="46.4461" lon="4.89295">
        <ele>169.10059</ele>
        <time>2026-05-13T16:08:27+02:00</time>
      </trkpt>
      <trkpt lat="46.44615" lon="4.89297">
        <ele>169.10059</ele>
        <time>2026-05-13T16:08:28+02:00</time>
      </trkpt>
      <trkpt lat="46.44619" lon="4.893">
        <ele>169.10059</ele>
        <time>2026-05-13T16:08:29+02:00</time>
      </trkpt>
      <trkpt lat="46.44623" lon="4.89303">
        <ele>169.2002</ele>
        <time>2026-05-13T16:08:30+02:00</time>
      </trkpt>
      <trkpt lat="46.44627" lon="4.89306">
        <ele>169</ele>
        <time>2026-05-13T16:08:31+02:00</time>
      </trkpt>
      <trkpt lat="46.44631" lon="4.8931">
        <ele>169</ele>
        <time>2026-05-13T16:08:32+02:00</time>
      </trkpt>
      <trkpt lat="46.44636" lon="4.89313">
        <ele>169.2002</ele>
        <time>2026-05-13T16:08:33+02:00</time>
      </trkpt>
      <trkpt lat="46.4464" lon="4.89317">
        <ele>169.5</ele>
        <time>2026-05-13T16:08:34+02:00</time>
      </trkpt>
      <trkpt lat="46.44647" lon="4.89322">
        <ele>169.2998</ele>
        <time>2026-05-13T16:08:35+02:00</time>
      </trkpt>
      <trkpt lat="46.44648" lon="4.89324">
        <ele>169.2998</ele>
        <time>2026-05-13T16:08:36+02:00</time>
      </trkpt>
      <trkpt lat="46.44653" lon="4.89328">
        <ele>169.2998</ele>
        <time>2026-05-13T16:08:37+02:00</time>
      </trkpt>
      <trkpt lat="46.44657" lon="4.89332">
        <ele>168.90039</ele>
        <time>2026-05-13T16:08:38+02:00</time>
      </trkpt>
      <trkpt lat="46.44661" lon="4.89336">
        <ele>168.90039</ele>
        <time>2026-05-13T16:08:39+02:00</time>
      </trkpt>
      <trkpt lat="46.44666" lon="4.8934">
        <ele>168.7002</ele>
        <time>2026-05-13T16:08:40+02:00</time>
      </trkpt>
      <trkpt lat="46.44671" lon="4.89344">
        <ele>168.7998</ele>
        <time>2026-05-13T16:08:41+02:00</time>
      </trkpt>
      <trkpt lat="46.44676" lon="4.89348">
        <ele>168.90039</ele>
        <time>2026-05-13T16:08:42+02:00</time>
      </trkpt>
      <trkpt lat="46.4468" lon="4.89353">
        <ele>169.10059</ele>
        <time>2026-05-13T16:08:43+02:00</time>
      </trkpt>
      <trkpt lat="46.44685" lon="4.89357">
        <ele>169</ele>
        <time>2026-05-13T16:08:44+02:00</time>
      </trkpt>
      <trkpt lat="46.44689" lon="4.89361">
        <ele>169</ele>
        <time>2026-05-13T16:08:45+02:00</time>
      </trkpt>
      <trkpt lat="46.44694" lon="4.89366">
        <ele>168.90039</ele>
        <time>2026-05-13T16:08:46+02:00</time>
      </trkpt>
      <trkpt lat="46.44699" lon="4.89371">
        <ele>169.10059</ele>
        <time>2026-05-13T16:08:47+02:00</time>
      </trkpt>
      <trkpt lat="46.44704" lon="4.89375">
        <ele>169.2002</ele>
        <time>2026-05-13T16:08:48+02:00</time>
      </trkpt>
      <trkpt lat="46.44709" lon="4.8938">
        <ele>169.5</ele>
        <time>2026-05-13T16:08:49+02:00</time>
      </trkpt>
      <trkpt lat="46.44714" lon="4.89384">
        <ele>169.2002</ele>
        <time>2026-05-13T16:08:50+02:00</time>
      </trkpt>
      <trkpt lat="46.44719" lon="4.89388">
        <ele>169.2002</ele>
        <time>2026-05-13T16:08:51+02:00</time>
      </trkpt>
      <trkpt lat="46.44724" lon="4.89392">
        <ele>169</ele>
        <time>2026-05-13T16:08:52+02:00</time>
      </trkpt>
      <trkpt lat="46.44729" lon="4.89397">
        <ele>168.90039</ele>
        <time>2026-05-13T16:08:53+02:00</time>
      </trkpt>
      <trkpt lat="46.44733" lon="4.89402">
        <ele>168.7002</ele>
        <time>2026-05-13T16:08:54+02:00</time>
      </trkpt>
      <trkpt lat="46.44737" lon="4.89406">
        <ele>168.7002</ele>
        <time>2026-05-13T16:08:55+02:00</time>
      </trkpt>
      <trkpt lat="46.44742" lon="4.89411">
        <ele>168.90039</ele>
        <time>2026-05-13T16:08:56+02:00</time>
      </trkpt>
      <trkpt lat="46.44745" lon="4.89416">
        <ele>169</ele>
        <time>2026-05-13T16:08:57+02:00</time>
      </trkpt>
      <trkpt lat="46.44748" lon="4.89423">
        <ele>169</ele>
        <time>2026-05-13T16:08:58+02:00</time>
      </trkpt>
      <trkpt lat="46.44752" lon="4.89429">
        <ele>168.90039</ele>
        <time>2026-05-13T16:08:59+02:00</time>
      </trkpt>
      <trkpt lat="46.44755" lon="4.89436">
        <ele>168.90039</ele>
        <time>2026-05-13T16:09:00+02:00</time>
      </trkpt>
      <trkpt lat="46.44757" lon="4.89443">
        <ele>169</ele>
        <time>2026-05-13T16:09:01+02:00</time>
      </trkpt>
      <trkpt lat="46.4476" lon="4.8945">
        <ele>169</ele>
        <time>2026-05-13T16:09:02+02:00</time>
      </trkpt>
      <trkpt lat="46.44763" lon="4.89457">
        <ele>169</ele>
        <time>2026-05-13T16:09:03+02:00</time>
      </trkpt>
      <trkpt lat="46.44767" lon="4.89464">
        <ele>169</ele>
        <time>2026-05-13T16:09:04+02:00</time>
      </trkpt>
      <trkpt lat="46.4477" lon="4.89471">
        <ele>169</ele>
        <time>2026-05-13T16:09:05+02:00</time>
      </trkpt>
      <trkpt lat="46.44774" lon="4.89477">
        <ele>169</ele>
        <time>2026-05-13T16:09:06+02:00</time>
      </trkpt>
      <trkpt lat="46.44779" lon="4.89483">
        <ele>169</ele>
        <time>2026-05-13T16:09:07+02:00</time>
      </trkpt>
      <trkpt lat="46.44783" lon="4.89489">
        <ele>169</ele>
        <time>2026-05-13T16:09:08+02:00</time>
      </trkpt>
      <trkpt lat="46.44787" lon="4.89494">
        <ele>169</ele>
        <time>2026-05-13T16:09:09+02:00</time>
      </trkpt>
      <trkpt lat="46.44795" lon="4.89499">
        <ele>169</ele>
        <time>2026-05-13T16:09:10+02:00</time>
      </trkpt>
      <trkpt lat="46.44797" lon="4.895">
        <ele>169.10059</ele>
        <time>2026-05-13T16:09:11+02:00</time>
      </trkpt>
      <trkpt lat="46.44803" lon="4.89501">
        <ele>169.10059</ele>
        <time>2026-05-13T16:09:12+02:00</time>
      </trkpt>
      <trkpt lat="46.44809" lon="4.895">
        <ele>169.10059</ele>
        <time>2026-05-13T16:09:13+02:00</time>
      </trkpt>
      <trkpt lat="46.44815" lon="4.895">
        <ele>169</ele>
        <time>2026-05-13T16:09:14+02:00</time>
      </trkpt>
      <trkpt lat="46.44821" lon="4.89499">
        <ele>168.90039</ele>
        <time>2026-05-13T16:09:15+02:00</time>
      </trkpt>
      <trkpt lat="46.44827" lon="4.89498">
        <ele>168.7998</ele>
        <time>2026-05-13T16:09:16+02:00</time>
      </trkpt>
      <trkpt lat="46.44832" lon="4.89496">
        <ele>168.7998</ele>
        <time>2026-05-13T16:09:17+02:00</time>
      </trkpt>
      <trkpt lat="46.44837" lon="4.89495">
        <ele>168.7998</ele>
        <time>2026-05-13T16:09:18+02:00</time>
      </trkpt>
      <trkpt lat="46.44842" lon="4.89496">
        <ele>168.7002</ele>
        <time>2026-05-13T16:09:19+02:00</time>
      </trkpt>
      <trkpt lat="46.44847" lon="4.89499">
        <ele>168.7002</ele>
        <time>2026-05-13T16:09:20+02:00</time>
      </trkpt>
      <trkpt lat="46.44852" lon="4.89503">
        <ele>169</ele>
        <time>2026-05-13T16:09:21+02:00</time>
      </trkpt>
      <trkpt lat="46.44857" lon="4.89508">
        <ele>169</ele>
        <time>2026-05-13T16:09:22+02:00</time>
      </trkpt>
      <trkpt lat="46.44862" lon="4.89512">
        <ele>169</ele>
        <time>2026-05-13T16:09:23+02:00</time>
      </trkpt>
      <trkpt lat="46.44867" lon="4.89517">
        <ele>169</ele>
        <time>2026-05-13T16:09:24+02:00</time>
      </trkpt>
      <trkpt lat="46.44872" lon="4.89521">
        <ele>168.7998</ele>
        <time>2026-05-13T16:09:25+02:00</time>
      </trkpt>
      <trkpt lat="46.44878" lon="4.89526">
        <ele>168.7002</ele>
        <time>2026-05-13T16:09:26+02:00</time>
      </trkpt>
      <trkpt lat="46.44883" lon="4.8953">
        <ele>168.90039</ele>
        <time>2026-05-13T16:09:27+02:00</time>
      </trkpt>
      <trkpt lat="46.44888" lon="4.89535">
        <ele>169</ele>
        <time>2026-05-13T16:09:28+02:00</time>
      </trkpt>
      <trkpt lat="46.44893" lon="4.89539">
        <ele>169</ele>
        <time>2026-05-13T16:09:29+02:00</time>
      </trkpt>
      <trkpt lat="46.44899" lon="4.89544">
        <ele>168.7998</ele>
        <time>2026-05-13T16:09:30+02:00</time>
      </trkpt>
      <trkpt lat="46.44904" lon="4.89548">
        <ele>168.90039</ele>
        <time>2026-05-13T16:09:31+02:00</time>
      </trkpt>
      <trkpt lat="46.44912" lon="4.89555">
        <ele>168.90039</ele>
        <time>2026-05-13T16:09:32+02:00</time>
      </trkpt>
      <trkpt lat="46.44915" lon="4.89557">
        <ele>168.90039</ele>
        <time>2026-05-13T16:09:33+02:00</time>
      </trkpt>
      <trkpt lat="46.4492" lon="4.89562">
        <ele>169</ele>
        <time>2026-05-13T16:09:34+02:00</time>
      </trkpt>
      <trkpt lat="46.44925" lon="4.89567">
        <ele>169</ele>
        <time>2026-05-13T16:09:35+02:00</time>
      </trkpt>
      <trkpt lat="46.44931" lon="4.89571">
        <ele>169</ele>
        <time>2026-05-13T16:09:36+02:00</time>
      </trkpt>
      <trkpt lat="46.44936" lon="4.89576">
        <ele>169</ele>
        <time>2026-05-13T16:09:37+02:00</time>
      </trkpt>
      <trkpt lat="46.44941" lon="4.8958">
        <ele>168.90039</ele>
        <time>2026-05-13T16:09:38+02:00</time>
      </trkpt>
      <trkpt lat="46.44946" lon="4.89585">
        <ele>169</ele>
        <time>2026-05-13T16:09:39+02:00</time>
      </trkpt>
      <trkpt lat="46.44952" lon="4.89589">
        <ele>169.10059</ele>
        <time>2026-05-13T16:09:40+02:00</time>
      </trkpt>
      <trkpt lat="46.44957" lon="4.89594">
        <ele>169.10059</ele>
        <time>2026-05-13T16:09:41+02:00</time>
      </trkpt>
      <trkpt lat="46.44962" lon="4.89599">
        <ele>169</ele>
        <time>2026-05-13T16:09:42+02:00</time>
      </trkpt>
      <trkpt lat="46.44967" lon="4.89603">
        <ele>169</ele>
        <time>2026-05-13T16:09:43+02:00</time>
      </trkpt>
      <trkpt lat="46.44972" lon="4.89608">
        <ele>169</ele>
        <time>2026-05-13T16:09:44+02:00</time>
      </trkpt>
      <trkpt lat="46.44977" lon="4.89613">
        <ele>169</ele>
        <time>2026-05-13T16:09:45+02:00</time>
      </trkpt>
      <trkpt lat="46.44983" lon="4.89618">
        <ele>169</ele>
        <time>2026-05-13T16:09:46+02:00</time>
      </trkpt>
      <trkpt lat="46.44987" lon="4.89622">
        <ele>169</ele>
        <time>2026-05-13T16:09:47+02:00</time>
      </trkpt>
      <trkpt lat="46.44993" lon="4.89627">
        <ele>169.10059</ele>
        <time>2026-05-13T16:09:48+02:00</time>
      </trkpt>
      <trkpt lat="46.44997" lon="4.89633">
        <ele>168.90039</ele>
        <time>2026-05-13T16:09:49+02:00</time>
      </trkpt>
      <trkpt lat="46.45002" lon="4.89638">
        <ele>169.2998</ele>
        <time>2026-05-13T16:09:50+02:00</time>
      </trkpt>
      <trkpt lat="46.45007" lon="4.89643">
        <ele>169.60059</ele>
        <time>2026-05-13T16:09:51+02:00</time>
      </trkpt>
      <trkpt lat="46.45013" lon="4.89652">
        <ele>169.40039</ele>
        <time>2026-05-13T16:09:52+02:00</time>
      </trkpt>
      <trkpt lat="46.45016" lon="4.89655">
        <ele>169.7002</ele>
        <time>2026-05-13T16:09:53+02:00</time>
      </trkpt>
      <trkpt lat="46.4502" lon="4.8966">
        <ele>169</ele>
        <time>2026-05-13T16:09:54+02:00</time>
      </trkpt>
      <trkpt lat="46.45025" lon="4.89665">
        <ele>169</ele>
        <time>2026-05-13T16:09:55+02:00</time>
      </trkpt>
      <trkpt lat="46.4503" lon="4.8967">
        <ele>169.40039</ele>
        <time>2026-05-13T16:09:56+02:00</time>
      </trkpt>
      <trkpt lat="46.45036" lon="4.89675">
        <ele>169.5</ele>
        <time>2026-05-13T16:09:57+02:00</time>
      </trkpt>
      <trkpt lat="46.45041" lon="4.8968">
        <ele>170</ele>
        <time>2026-05-13T16:09:58+02:00</time>
      </trkpt>
      <trkpt lat="46.45046" lon="4.89686">
        <ele>169.2998</ele>
        <time>2026-05-13T16:09:59+02:00</time>
      </trkpt>
      <trkpt lat="46.45051" lon="4.89691">
        <ele>168.7998</ele>
        <time>2026-05-13T16:10:00+02:00</time>
      </trkpt>
      <trkpt lat="46.45056" lon="4.89697">
        <ele>169.2998</ele>
        <time>2026-05-13T16:10:01+02:00</time>
      </trkpt>
      <trkpt lat="46.45061" lon="4.89703">
        <ele>169.60059</ele>
        <time>2026-05-13T16:10:02+02:00</time>
      </trkpt>
      <trkpt lat="46.45066" lon="4.89709">
        <ele>169.2002</ele>
        <time>2026-05-13T16:10:03+02:00</time>
      </trkpt>
      <trkpt lat="46.45071" lon="4.89716">
        <ele>168.90039</ele>
        <time>2026-05-13T16:10:04+02:00</time>
      </trkpt>
      <trkpt lat="46.45076" lon="4.89721">
        <ele>169.2998</ele>
        <time>2026-05-13T16:10:05+02:00</time>
      </trkpt>
      <trkpt lat="46.45081" lon="4.89727">
        <ele>169.60059</ele>
        <time>2026-05-13T16:10:06+02:00</time>
      </trkpt>
      <trkpt lat="46.45086" lon="4.89732">
        <ele>169.60059</ele>
        <time>2026-05-13T16:10:07+02:00</time>
      </trkpt>
      <trkpt lat="46.4509" lon="4.89738">
        <ele>169.5</ele>
        <time>2026-05-13T16:10:08+02:00</time>
      </trkpt>
      <trkpt lat="46.45095" lon="4.89743">
        <ele>169.10059</ele>
        <time>2026-05-13T16:10:09+02:00</time>
      </trkpt>
      <trkpt lat="46.451" lon="4.89749">
        <ele>169.2998</ele>
        <time>2026-05-13T16:10:10+02:00</time>
      </trkpt>
      <trkpt lat="46.45105" lon="4.89755">
        <ele>169.60059</ele>
        <time>2026-05-13T16:10:11+02:00</time>
      </trkpt>
      <trkpt lat="46.4511" lon="4.89761">
        <ele>169.60059</ele>
        <time>2026-05-13T16:10:12+02:00</time>
      </trkpt>
      <trkpt lat="46.45115" lon="4.89767">
        <ele>170.2002</ele>
        <time>2026-05-13T16:10:13+02:00</time>
      </trkpt>
      <trkpt lat="46.4512" lon="4.89773">
        <ele>170.90039</ele>
        <time>2026-05-13T16:10:14+02:00</time>
      </trkpt>
      <trkpt lat="46.45124" lon="4.89779">
        <ele>171.40039</ele>
        <time>2026-05-13T16:10:15+02:00</time>
      </trkpt>
      <trkpt lat="46.45129" lon="4.89785">
        <ele>171.2998</ele>
        <time>2026-05-13T16:10:16+02:00</time>
      </trkpt>
      <trkpt lat="46.45133" lon="4.89792">
        <ele>171.2998</ele>
        <time>2026-05-13T16:10:17+02:00</time>
      </trkpt>
      <trkpt lat="46.4514" lon="4.89801">
        <ele>171</ele>
        <time>2026-05-13T16:10:18+02:00</time>
      </trkpt>
      <trkpt lat="46.45142" lon="4.89804">
        <ele>170.10059</ele>
        <time>2026-05-13T16:10:19+02:00</time>
      </trkpt>
      <trkpt lat="46.45146" lon="4.89812">
        <ele>169.7998</ele>
        <time>2026-05-13T16:10:20+02:00</time>
      </trkpt>
      <trkpt lat="46.4515" lon="4.89819">
        <ele>169.40039</ele>
        <time>2026-05-13T16:10:21+02:00</time>
      </trkpt>
      <trkpt lat="46.45154" lon="4.89825">
        <ele>169.7002</ele>
        <time>2026-05-13T16:10:22+02:00</time>
      </trkpt>
      <trkpt lat="46.45159" lon="4.89832">
        <ele>169.5</ele>
        <time>2026-05-13T16:10:23+02:00</time>
      </trkpt>
      <trkpt lat="46.45163" lon="4.89839">
        <ele>169.2002</ele>
        <time>2026-05-13T16:10:24+02:00</time>
      </trkpt>
      <trkpt lat="46.45167" lon="4.89846">
        <ele>169.2002</ele>
        <time>2026-05-13T16:10:25+02:00</time>
      </trkpt>
      <trkpt lat="46.45171" lon="4.89852">
        <ele>169.5</ele>
        <time>2026-05-13T16:10:26+02:00</time>
      </trkpt>
      <trkpt lat="46.45175" lon="4.89859">
        <ele>169.5</ele>
        <time>2026-05-13T16:10:27+02:00</time>
      </trkpt>
      <trkpt lat="46.45179" lon="4.89866">
        <ele>170</ele>
        <time>2026-05-13T16:10:28+02:00</time>
      </trkpt>
      <trkpt lat="46.45183" lon="4.89872">
        <ele>170.5</ele>
        <time>2026-05-13T16:10:29+02:00</time>
      </trkpt>
      <trkpt lat="46.45186" lon="4.89879">
        <ele>170</ele>
        <time>2026-05-13T16:10:30+02:00</time>
      </trkpt>
      <trkpt lat="46.4519" lon="4.89886">
        <ele>170.2998</ele>
        <time>2026-05-13T16:10:31+02:00</time>
      </trkpt>
      <trkpt lat="46.45194" lon="4.89893">
        <ele>170</ele>
        <time>2026-05-13T16:10:32+02:00</time>
      </trkpt>
      <trkpt lat="46.45197" lon="4.899">
        <ele>169.40039</ele>
        <time>2026-05-13T16:10:33+02:00</time>
      </trkpt>
      <trkpt lat="46.45201" lon="4.89906">
        <ele>170</ele>
        <time>2026-05-13T16:10:34+02:00</time>
      </trkpt>
      <trkpt lat="46.45205" lon="4.89913">
        <ele>169.60059</ele>
        <time>2026-05-13T16:10:35+02:00</time>
      </trkpt>
      <trkpt lat="46.45209" lon="4.8992">
        <ele>170.5</ele>
        <time>2026-05-13T16:10:36+02:00</time>
      </trkpt>
      <trkpt lat="46.45213" lon="4.89927">
        <ele>170.2002</ele>
        <time>2026-05-13T16:10:37+02:00</time>
      </trkpt>
      <trkpt lat="46.45217" lon="4.89933">
        <ele>169.90039</ele>
        <time>2026-05-13T16:10:38+02:00</time>
      </trkpt>
      <trkpt lat="46.45221" lon="4.8994">
        <ele>169.5</ele>
        <time>2026-05-13T16:10:39+02:00</time>
      </trkpt>
      <trkpt lat="46.45226" lon="4.8995">
        <ele>169.7998</ele>
        <time>2026-05-13T16:10:40+02:00</time>
      </trkpt>
      <trkpt lat="46.45228" lon="4.89953">
        <ele>169.7998</ele>
        <time>2026-05-13T16:10:41+02:00</time>
      </trkpt>
      <trkpt lat="46.45232" lon="4.8996">
        <ele>171</ele>
        <time>2026-05-13T16:10:42+02:00</time>
      </trkpt>
      <trkpt lat="46.45236" lon="4.89966">
        <ele>171.7998</ele>
        <time>2026-05-13T16:10:43+02:00</time>
      </trkpt>
      <trkpt lat="46.4524" lon="4.89972">
        <ele>171.7998</ele>
        <time>2026-05-13T16:10:44+02:00</time>
      </trkpt>
      <trkpt lat="46.45244" lon="4.89978">
        <ele>171.10059</ele>
        <time>2026-05-13T16:10:45+02:00</time>
      </trkpt>
      <trkpt lat="46.45248" lon="4.89985">
        <ele>170.2998</ele>
        <time>2026-05-13T16:10:46+02:00</time>
      </trkpt>
      <trkpt lat="46.45252" lon="4.89991">
        <ele>169.5</ele>
        <time>2026-05-13T16:10:47+02:00</time>
      </trkpt>
      <trkpt lat="46.45257" lon="4.89997">
        <ele>170.60059</ele>
        <time>2026-05-13T16:10:48+02:00</time>
      </trkpt>
      <trkpt lat="46.45261" lon="4.90003">
        <ele>170.90039</ele>
        <time>2026-05-13T16:10:49+02:00</time>
      </trkpt>
      <trkpt lat="46.45265" lon="4.90009">
        <ele>170.2002</ele>
        <time>2026-05-13T16:10:50+02:00</time>
      </trkpt>
      <trkpt lat="46.45269" lon="4.90015">
        <ele>170.2002</ele>
        <time>2026-05-13T16:10:51+02:00</time>
      </trkpt>
      <trkpt lat="46.45273" lon="4.90021">
        <ele>169.60059</ele>
        <time>2026-05-13T16:10:52+02:00</time>
      </trkpt>
      <trkpt lat="46.4528" lon="4.9003">
        <ele>169.90039</ele>
        <time>2026-05-13T16:10:53+02:00</time>
      </trkpt>
      <trkpt lat="46.45282" lon="4.90034">
        <ele>169.90039</ele>
        <time>2026-05-13T16:10:54+02:00</time>
      </trkpt>
      <trkpt lat="46.45286" lon="4.90039">
        <ele>169.90039</ele>
        <time>2026-05-13T16:10:55+02:00</time>
      </trkpt>
      <trkpt lat="46.45291" lon="4.90045">
        <ele>169.5</ele>
        <time>2026-05-13T16:10:56+02:00</time>
      </trkpt>
      <trkpt lat="46.45295" lon="4.90051">
        <ele>169.5</ele>
        <time>2026-05-13T16:10:57+02:00</time>
      </trkpt>
      <trkpt lat="46.45299" lon="4.90057">
        <ele>169.5</ele>
        <time>2026-05-13T16:10:58+02:00</time>
      </trkpt>
      <trkpt lat="46.45306" lon="4.90066">
        <ele>171.2002</ele>
        <time>2026-05-13T16:10:59+02:00</time>
      </trkpt>
      <trkpt lat="46.45308" lon="4.90069">
        <ele>170.10059</ele>
        <time>2026-05-13T16:11:00+02:00</time>
      </trkpt>
      <trkpt lat="46.45312" lon="4.90075">
        <ele>170.5</ele>
        <time>2026-05-13T16:11:01+02:00</time>
      </trkpt>
      <trkpt lat="46.45317" lon="4.90081">
        <ele>169.2998</ele>
        <time>2026-05-13T16:11:02+02:00</time>
      </trkpt>
      <trkpt lat="46.45322" lon="4.90087">
        <ele>169.2998</ele>
        <time>2026-05-13T16:11:03+02:00</time>
      </trkpt>
      <trkpt lat="46.45327" lon="4.90093">
        <ele>170.40039</ele>
        <time>2026-05-13T16:11:04+02:00</time>
      </trkpt>
      <trkpt lat="46.45332" lon="4.90099">
        <ele>170.60059</ele>
        <time>2026-05-13T16:11:05+02:00</time>
      </trkpt>
      <trkpt lat="46.45336" lon="4.90105">
        <ele>169.7998</ele>
        <time>2026-05-13T16:11:06+02:00</time>
      </trkpt>
      <trkpt lat="46.45341" lon="4.90111">
        <ele>169.40039</ele>
        <time>2026-05-13T16:11:07+02:00</time>
      </trkpt>
      <trkpt lat="46.45348" lon="4.9012">
        <ele>169.90039</ele>
        <time>2026-05-13T16:11:08+02:00</time>
      </trkpt>
      <trkpt lat="46.4535" lon="4.90123">
        <ele>169.90039</ele>
        <time>2026-05-13T16:11:09+02:00</time>
      </trkpt>
      <trkpt lat="46.45355" lon="4.9013">
        <ele>170.10059</ele>
        <time>2026-05-13T16:11:10+02:00</time>
      </trkpt>
      <trkpt lat="46.45361" lon="4.9014">
        <ele>169.60059</ele>
        <time>2026-05-13T16:11:11+02:00</time>
      </trkpt>
      <trkpt lat="46.45364" lon="4.90143">
        <ele>169.60059</ele>
        <time>2026-05-13T16:11:12+02:00</time>
      </trkpt>
      <trkpt lat="46.45368" lon="4.90149">
        <ele>169.40039</ele>
        <time>2026-05-13T16:11:13+02:00</time>
      </trkpt>
      <trkpt lat="46.45373" lon="4.90156">
        <ele>169.5</ele>
        <time>2026-05-13T16:11:14+02:00</time>
      </trkpt>
      <trkpt lat="46.45379" lon="4.90166">
        <ele>169.2998</ele>
        <time>2026-05-13T16:11:15+02:00</time>
      </trkpt>
      <trkpt lat="46.45381" lon="4.90169">
        <ele>169.2998</ele>
        <time>2026-05-13T16:11:16+02:00</time>
      </trkpt>
      <trkpt lat="46.45385" lon="4.90175">
        <ele>169.10059</ele>
        <time>2026-05-13T16:11:17+02:00</time>
      </trkpt>
      <trkpt lat="46.45389" lon="4.90181">
        <ele>169.2002</ele>
        <time>2026-05-13T16:11:18+02:00</time>
      </trkpt>
      <trkpt lat="46.45394" lon="4.90187">
        <ele>169.2002</ele>
        <time>2026-05-13T16:11:19+02:00</time>
      </trkpt>
      <trkpt lat="46.45398" lon="4.90194">
        <ele>169.7002</ele>
        <time>2026-05-13T16:11:20+02:00</time>
      </trkpt>
      <trkpt lat="46.45402" lon="4.902">
        <ele>170</ele>
        <time>2026-05-13T16:11:21+02:00</time>
      </trkpt>
      <trkpt lat="46.45407" lon="4.90206">
        <ele>169.90039</ele>
        <time>2026-05-13T16:11:22+02:00</time>
      </trkpt>
      <trkpt lat="46.45411" lon="4.90212">
        <ele>169.90039</ele>
        <time>2026-05-13T16:11:23+02:00</time>
      </trkpt>
      <trkpt lat="46.45416" lon="4.90217">
        <ele>169.7998</ele>
        <time>2026-05-13T16:11:24+02:00</time>
      </trkpt>
      <trkpt lat="46.45422" lon="4.90226">
        <ele>169.7002</ele>
        <time>2026-05-13T16:11:25+02:00</time>
      </trkpt>
      <trkpt lat="46.45425" lon="4.90229">
        <ele>170.2002</ele>
        <time>2026-05-13T16:11:26+02:00</time>
      </trkpt>
      <trkpt lat="46.45429" lon="4.90235">
        <ele>169.5</ele>
        <time>2026-05-13T16:11:27+02:00</time>
      </trkpt>
      <trkpt lat="46.45434" lon="4.9024">
        <ele>169.2998</ele>
        <time>2026-05-13T16:11:28+02:00</time>
      </trkpt>
      <trkpt lat="46.45438" lon="4.90246">
        <ele>169.60059</ele>
        <time>2026-05-13T16:11:29+02:00</time>
      </trkpt>
      <trkpt lat="46.45443" lon="4.90252">
        <ele>169.7002</ele>
        <time>2026-05-13T16:11:30+02:00</time>
      </trkpt>
      <trkpt lat="46.45447" lon="4.90258">
        <ele>169.2998</ele>
        <time>2026-05-13T16:11:31+02:00</time>
      </trkpt>
      <trkpt lat="46.45454" lon="4.90266">
        <ele>169.2002</ele>
        <time>2026-05-13T16:11:32+02:00</time>
      </trkpt>
      <trkpt lat="46.45456" lon="4.90269">
        <ele>169.2002</ele>
        <time>2026-05-13T16:11:33+02:00</time>
      </trkpt>
      <trkpt lat="46.45461" lon="4.90275">
        <ele>169.10059</ele>
        <time>2026-05-13T16:11:34+02:00</time>
      </trkpt>
      <trkpt lat="46.45465" lon="4.90281">
        <ele>169.10059</ele>
        <time>2026-05-13T16:11:35+02:00</time>
      </trkpt>
      <trkpt lat="46.45469" lon="4.90287">
        <ele>169.40039</ele>
        <time>2026-05-13T16:11:36+02:00</time>
      </trkpt>
      <trkpt lat="46.45474" lon="4.90293">
        <ele>169.90039</ele>
        <time>2026-05-13T16:11:37+02:00</time>
      </trkpt>
      <trkpt lat="46.45478" lon="4.903">
        <ele>170.2002</ele>
        <time>2026-05-13T16:11:38+02:00</time>
      </trkpt>
      <trkpt lat="46.45482" lon="4.90306">
        <ele>170.2002</ele>
        <time>2026-05-13T16:11:39+02:00</time>
      </trkpt>
      <trkpt lat="46.45486" lon="4.90313">
        <ele>170</ele>
        <time>2026-05-13T16:11:40+02:00</time>
      </trkpt>
      <trkpt lat="46.4549" lon="4.90319">
        <ele>169.60059</ele>
        <time>2026-05-13T16:11:41+02:00</time>
      </trkpt>
      <trkpt lat="46.45495" lon="4.90325">
        <ele>169.5</ele>
        <time>2026-05-13T16:11:42+02:00</time>
      </trkpt>
      <trkpt lat="46.45498" lon="4.90332">
        <ele>169.5</ele>
        <time>2026-05-13T16:11:43+02:00</time>
      </trkpt>
      <trkpt lat="46.45503" lon="4.90339">
        <ele>169.7998</ele>
        <time>2026-05-13T16:11:44+02:00</time>
      </trkpt>
      <trkpt lat="46.45506" lon="4.90345">
        <ele>169.90039</ele>
        <time>2026-05-13T16:11:45+02:00</time>
      </trkpt>
      <trkpt lat="46.4551" lon="4.90352">
        <ele>170.40039</ele>
        <time>2026-05-13T16:11:46+02:00</time>
      </trkpt>
      <trkpt lat="46.45514" lon="4.90359">
        <ele>170.90039</ele>
        <time>2026-05-13T16:11:47+02:00</time>
      </trkpt>
      <trkpt lat="46.45518" lon="4.90366">
        <ele>170.7002</ele>
        <time>2026-05-13T16:11:48+02:00</time>
      </trkpt>
      <trkpt lat="46.45521" lon="4.90373">
        <ele>170.60059</ele>
        <time>2026-05-13T16:11:49+02:00</time>
      </trkpt>
      <trkpt lat="46.45525" lon="4.90379">
        <ele>170.2998</ele>
        <time>2026-05-13T16:11:50+02:00</time>
      </trkpt>
      <trkpt lat="46.45529" lon="4.90386">
        <ele>169.7002</ele>
        <time>2026-05-13T16:11:51+02:00</time>
      </trkpt>
      <trkpt lat="46.45532" lon="4.90394">
        <ele>169.60059</ele>
        <time>2026-05-13T16:11:52+02:00</time>
      </trkpt>
      <trkpt lat="46.45535" lon="4.904">
        <ele>169.60059</ele>
        <time>2026-05-13T16:11:53+02:00</time>
      </trkpt>
      <trkpt lat="46.45539" lon="4.90408">
        <ele>169.60059</ele>
        <time>2026-05-13T16:11:54+02:00</time>
      </trkpt>
      <trkpt lat="46.45543" lon="4.90415">
        <ele>170.10059</ele>
        <time>2026-05-13T16:11:55+02:00</time>
      </trkpt>
      <trkpt lat="46.45548" lon="4.90425">
        <ele>170</ele>
        <time>2026-05-13T16:11:56+02:00</time>
      </trkpt>
      <trkpt lat="46.45549" lon="4.90428">
        <ele>170.40039</ele>
        <time>2026-05-13T16:11:57+02:00</time>
      </trkpt>
      <trkpt lat="46.45552" lon="4.90433">
        <ele>170.40039</ele>
        <time>2026-05-13T16:11:58+02:00</time>
      </trkpt>
      <trkpt lat="46.45555" lon="4.90439">
        <ele>170.10059</ele>
        <time>2026-05-13T16:11:59+02:00</time>
      </trkpt>
      <trkpt lat="46.45558" lon="4.90445">
        <ele>170.10059</ele>
        <time>2026-05-13T16:12:00+02:00</time>
      </trkpt>
      <trkpt lat="46.45562" lon="4.90451">
        <ele>169.7002</ele>
        <time>2026-05-13T16:12:01+02:00</time>
      </trkpt>
      <trkpt lat="46.45565" lon="4.90457">
        <ele>169.2998</ele>
        <time>2026-05-13T16:12:02+02:00</time>
      </trkpt>
      <trkpt lat="46.45568" lon="4.90464">
        <ele>169.2998</ele>
        <time>2026-05-13T16:12:03+02:00</time>
      </trkpt>
      <trkpt lat="46.45571" lon="4.9047">
        <ele>169.2998</ele>
        <time>2026-05-13T16:12:04+02:00</time>
      </trkpt>
      <trkpt lat="46.45575" lon="4.90476">
        <ele>169.2002</ele>
        <time>2026-05-13T16:12:05+02:00</time>
      </trkpt>
      <trkpt lat="46.45578" lon="4.90482">
        <ele>169.10059</ele>
        <time>2026-05-13T16:12:06+02:00</time>
      </trkpt>
      <trkpt lat="46.45582" lon="4.90489">
        <ele>168.90039</ele>
        <time>2026-05-13T16:12:07+02:00</time>
      </trkpt>
      <trkpt lat="46.45585" lon="4.90495">
        <ele>169.2002</ele>
        <time>2026-05-13T16:12:08+02:00</time>
      </trkpt>
      <trkpt lat="46.45588" lon="4.90501">
        <ele>169.10059</ele>
        <time>2026-05-13T16:12:09+02:00</time>
      </trkpt>
      <trkpt lat="46.45591" lon="4.90507">
        <ele>169.2998</ele>
        <time>2026-05-13T16:12:10+02:00</time>
      </trkpt>
      <trkpt lat="46.45597" lon="4.90516">
        <ele>169.2998</ele>
        <time>2026-05-13T16:12:11+02:00</time>
      </trkpt>
      <trkpt lat="46.45598" lon="4.9052">
        <ele>169.2998</ele>
        <time>2026-05-13T16:12:12+02:00</time>
      </trkpt>
      <trkpt lat="46.45601" lon="4.90526">
        <ele>169.10059</ele>
        <time>2026-05-13T16:12:13+02:00</time>
      </trkpt>
      <trkpt lat="46.45607" lon="4.90536">
        <ele>169.10059</ele>
        <time>2026-05-13T16:12:14+02:00</time>
      </trkpt>
      <trkpt lat="46.45608" lon="4.90539">
        <ele>169.2002</ele>
        <time>2026-05-13T16:12:15+02:00</time>
      </trkpt>
      <trkpt lat="46.45611" lon="4.90546">
        <ele>169</ele>
        <time>2026-05-13T16:12:16+02:00</time>
      </trkpt>
      <trkpt lat="46.45615" lon="4.90552">
        <ele>169</ele>
        <time>2026-05-13T16:12:17+02:00</time>
      </trkpt>
      <trkpt lat="46.45618" lon="4.90559">
        <ele>168.90039</ele>
        <time>2026-05-13T16:12:18+02:00</time>
      </trkpt>
      <trkpt lat="46.45621" lon="4.90566">
        <ele>168.7998</ele>
        <time>2026-05-13T16:12:19+02:00</time>
      </trkpt>
      <trkpt lat="46.45625" lon="4.90572">
        <ele>168.7998</ele>
        <time>2026-05-13T16:12:20+02:00</time>
      </trkpt>
      <trkpt lat="46.4563" lon="4.90582">
        <ele>168.90039</ele>
        <time>2026-05-13T16:12:21+02:00</time>
      </trkpt>
      <trkpt lat="46.45632" lon="4.90586">
        <ele>169</ele>
        <time>2026-05-13T16:12:22+02:00</time>
      </trkpt>
      <trkpt lat="46.45635" lon="4.90593">
        <ele>169</ele>
        <time>2026-05-13T16:12:23+02:00</time>
      </trkpt>
      <trkpt lat="46.45639" lon="4.90599">
        <ele>169.2002</ele>
        <time>2026-05-13T16:12:24+02:00</time>
      </trkpt>
      <trkpt lat="46.45644" lon="4.9061">
        <ele>168.90039</ele>
        <time>2026-05-13T16:12:25+02:00</time>
      </trkpt>
      <trkpt lat="46.45645" lon="4.90613">
        <ele>168.90039</ele>
        <time>2026-05-13T16:12:26+02:00</time>
      </trkpt>
      <trkpt lat="46.45649" lon="4.9062">
        <ele>168.7002</ele>
        <time>2026-05-13T16:12:27+02:00</time>
      </trkpt>
      <trkpt lat="46.45653" lon="4.90627">
        <ele>168.7998</ele>
        <time>2026-05-13T16:12:28+02:00</time>
      </trkpt>
      <trkpt lat="46.45656" lon="4.90634">
        <ele>169</ele>
        <time>2026-05-13T16:12:29+02:00</time>
      </trkpt>
      <trkpt lat="46.45659" lon="4.9064">
        <ele>169</ele>
        <time>2026-05-13T16:12:30+02:00</time>
      </trkpt>
      <trkpt lat="46.45662" lon="4.90647">
        <ele>169.2998</ele>
        <time>2026-05-13T16:12:31+02:00</time>
      </trkpt>
      <trkpt lat="46.45666" lon="4.90653">
        <ele>169.10059</ele>
        <time>2026-05-13T16:12:32+02:00</time>
      </trkpt>
      <trkpt lat="46.45669" lon="4.90659">
        <ele>169.40039</ele>
        <time>2026-05-13T16:12:33+02:00</time>
      </trkpt>
      <trkpt lat="46.45673" lon="4.90666">
        <ele>169.10059</ele>
        <time>2026-05-13T16:12:34+02:00</time>
      </trkpt>
      <trkpt lat="46.45676" lon="4.90672">
        <ele>168.90039</ele>
        <time>2026-05-13T16:12:35+02:00</time>
      </trkpt>
      <trkpt lat="46.4568" lon="4.90678">
        <ele>168.7998</ele>
        <time>2026-05-13T16:12:36+02:00</time>
      </trkpt>
      <trkpt lat="46.45683" lon="4.90685">
        <ele>168.7998</ele>
        <time>2026-05-13T16:12:37+02:00</time>
      </trkpt>
      <trkpt lat="46.45686" lon="4.90691">
        <ele>169</ele>
        <time>2026-05-13T16:12:38+02:00</time>
      </trkpt>
      <trkpt lat="46.4569" lon="4.90698">
        <ele>169.40039</ele>
        <time>2026-05-13T16:12:39+02:00</time>
      </trkpt>
      <trkpt lat="46.45693" lon="4.90704">
        <ele>169.2998</ele>
        <time>2026-05-13T16:12:40+02:00</time>
      </trkpt>
      <trkpt lat="46.45697" lon="4.9071">
        <ele>169.7002</ele>
        <time>2026-05-13T16:12:41+02:00</time>
      </trkpt>
      <trkpt lat="46.45701" lon="4.90716">
        <ele>169.40039</ele>
        <time>2026-05-13T16:12:42+02:00</time>
      </trkpt>
      <trkpt lat="46.45704" lon="4.90722">
        <ele>169.2002</ele>
        <time>2026-05-13T16:12:43+02:00</time>
      </trkpt>
      <trkpt lat="46.45708" lon="4.90728">
        <ele>169.2998</ele>
        <time>2026-05-13T16:12:44+02:00</time>
      </trkpt>
      <trkpt lat="46.45711" lon="4.90734">
        <ele>169.10059</ele>
        <time>2026-05-13T16:12:45+02:00</time>
      </trkpt>
      <trkpt lat="46.45715" lon="4.9074">
        <ele>169.2002</ele>
        <time>2026-05-13T16:12:46+02:00</time>
      </trkpt>
      <trkpt lat="46.45719" lon="4.90745">
        <ele>169.2002</ele>
        <time>2026-05-13T16:12:47+02:00</time>
      </trkpt>
      <trkpt lat="46.45723" lon="4.90751">
        <ele>169.10059</ele>
        <time>2026-05-13T16:12:48+02:00</time>
      </trkpt>
      <trkpt lat="46.45727" lon="4.90757">
        <ele>169</ele>
        <time>2026-05-13T16:12:49+02:00</time>
      </trkpt>
      <trkpt lat="46.45731" lon="4.90763">
        <ele>168.90039</ele>
        <time>2026-05-13T16:12:50+02:00</time>
      </trkpt>
      <trkpt lat="46.45735" lon="4.90769">
        <ele>169</ele>
        <time>2026-05-13T16:12:51+02:00</time>
      </trkpt>
      <trkpt lat="46.45739" lon="4.90775">
        <ele>169.2002</ele>
        <time>2026-05-13T16:12:52+02:00</time>
      </trkpt>
      <trkpt lat="46.45743" lon="4.9078">
        <ele>169.10059</ele>
        <time>2026-05-13T16:12:53+02:00</time>
      </trkpt>
      <trkpt lat="46.45747" lon="4.90785">
        <ele>169.2002</ele>
        <time>2026-05-13T16:12:54+02:00</time>
      </trkpt>
      <trkpt lat="46.45751" lon="4.90791">
        <ele>169</ele>
        <time>2026-05-13T16:12:55+02:00</time>
      </trkpt>
      <trkpt lat="46.45754" lon="4.90797">
        <ele>169</ele>
        <time>2026-05-13T16:12:56+02:00</time>
      </trkpt>
      <trkpt lat="46.45759" lon="4.90802">
        <ele>169</ele>
        <time>2026-05-13T16:12:57+02:00</time>
      </trkpt>
      <trkpt lat="46.45763" lon="4.90806">
        <ele>169</ele>
        <time>2026-05-13T16:12:58+02:00</time>
      </trkpt>
      <trkpt lat="46.45767" lon="4.90811">
        <ele>169</ele>
        <time>2026-05-13T16:12:59+02:00</time>
      </trkpt>
      <trkpt lat="46.45771" lon="4.90816">
        <ele>168.90039</ele>
        <time>2026-05-13T16:13:00+02:00</time>
      </trkpt>
      <trkpt lat="46.45775" lon="4.90821">
        <ele>169</ele>
        <time>2026-05-13T16:13:01+02:00</time>
      </trkpt>
      <trkpt lat="46.4578" lon="4.90826">
        <ele>169.10059</ele>
        <time>2026-05-13T16:13:02+02:00</time>
      </trkpt>
      <trkpt lat="46.45784" lon="4.90831">
        <ele>169.10059</ele>
        <time>2026-05-13T16:13:03+02:00</time>
      </trkpt>
      <trkpt lat="46.45788" lon="4.90836">
        <ele>169.40039</ele>
        <time>2026-05-13T16:13:04+02:00</time>
      </trkpt>
      <trkpt lat="46.45793" lon="4.90841">
        <ele>169.40039</ele>
        <time>2026-05-13T16:13:05+02:00</time>
      </trkpt>
      <trkpt lat="46.45797" lon="4.90846">
        <ele>169.60059</ele>
        <time>2026-05-13T16:13:06+02:00</time>
      </trkpt>
      <trkpt lat="46.45802" lon="4.90851">
        <ele>168.90039</ele>
        <time>2026-05-13T16:13:07+02:00</time>
      </trkpt>
      <trkpt lat="46.45807" lon="4.90856">
        <ele>169.10059</ele>
        <time>2026-05-13T16:13:08+02:00</time>
      </trkpt>
      <trkpt lat="46.45811" lon="4.90862">
        <ele>169.2998</ele>
        <time>2026-05-13T16:13:09+02:00</time>
      </trkpt>
      <trkpt lat="46.45816" lon="4.90868">
        <ele>169.5</ele>
        <time>2026-05-13T16:13:10+02:00</time>
      </trkpt>
      <trkpt lat="46.4582" lon="4.90873">
        <ele>169.5</ele>
        <time>2026-05-13T16:13:11+02:00</time>
      </trkpt>
      <trkpt lat="46.45825" lon="4.90878">
        <ele>169.10059</ele>
        <time>2026-05-13T16:13:12+02:00</time>
      </trkpt>
      <trkpt lat="46.4583" lon="4.90884">
        <ele>169</ele>
        <time>2026-05-13T16:13:13+02:00</time>
      </trkpt>
      <trkpt lat="46.45834" lon="4.90889">
        <ele>169.2998</ele>
        <time>2026-05-13T16:13:14+02:00</time>
      </trkpt>
      <trkpt lat="46.45839" lon="4.90894">
        <ele>169.5</ele>
        <time>2026-05-13T16:13:15+02:00</time>
      </trkpt>
      <trkpt lat="46.45843" lon="4.909">
        <ele>169.5</ele>
        <time>2026-05-13T16:13:16+02:00</time>
      </trkpt>
      <trkpt lat="46.45848" lon="4.90906">
        <ele>169.2998</ele>
        <time>2026-05-13T16:13:17+02:00</time>
      </trkpt>
      <trkpt lat="46.45854" lon="4.90916">
        <ele>169.10059</ele>
        <time>2026-05-13T16:13:18+02:00</time>
      </trkpt>
      <trkpt lat="46.45856" lon="4.9092">
        <ele>169.2002</ele>
        <time>2026-05-13T16:13:19+02:00</time>
      </trkpt>
      <trkpt lat="46.4586" lon="4.90926">
        <ele>169.10059</ele>
        <time>2026-05-13T16:13:20+02:00</time>
      </trkpt>
      <trkpt lat="46.45864" lon="4.90933">
        <ele>169.2998</ele>
        <time>2026-05-13T16:13:21+02:00</time>
      </trkpt>
      <trkpt lat="46.45868" lon="4.9094">
        <ele>169.10059</ele>
        <time>2026-05-13T16:13:22+02:00</time>
      </trkpt>
      <trkpt lat="46.45872" lon="4.90947">
        <ele>168.90039</ele>
        <time>2026-05-13T16:13:23+02:00</time>
      </trkpt>
      <trkpt lat="46.45876" lon="4.90953">
        <ele>168.90039</ele>
        <time>2026-05-13T16:13:24+02:00</time>
      </trkpt>
      <trkpt lat="46.45879" lon="4.90959">
        <ele>168.90039</ele>
        <time>2026-05-13T16:13:25+02:00</time>
      </trkpt>
      <trkpt lat="46.45883" lon="4.90965">
        <ele>169</ele>
        <time>2026-05-13T16:13:26+02:00</time>
      </trkpt>
      <trkpt lat="46.45887" lon="4.90971">
        <ele>169</ele>
        <time>2026-05-13T16:13:27+02:00</time>
      </trkpt>
      <trkpt lat="46.45891" lon="4.90976">
        <ele>169</ele>
        <time>2026-05-13T16:13:28+02:00</time>
      </trkpt>
      <trkpt lat="46.45895" lon="4.90981">
        <ele>168.90039</ele>
        <time>2026-05-13T16:13:29+02:00</time>
      </trkpt>
      <trkpt lat="46.45899" lon="4.90986">
        <ele>168.90039</ele>
        <time>2026-05-13T16:13:30+02:00</time>
      </trkpt>
      <trkpt lat="46.45903" lon="4.90991">
        <ele>169</ele>
        <time>2026-05-13T16:13:31+02:00</time>
      </trkpt>
      <trkpt lat="46.45907" lon="4.90997">
        <ele>169</ele>
        <time>2026-05-13T16:13:32+02:00</time>
      </trkpt>
      <trkpt lat="46.45912" lon="4.91003">
        <ele>169</ele>
        <time>2026-05-13T16:13:33+02:00</time>
      </trkpt>
      <trkpt lat="46.45916" lon="4.91009">
        <ele>169</ele>
        <time>2026-05-13T16:13:34+02:00</time>
      </trkpt>
      <trkpt lat="46.45921" lon="4.91015">
        <ele>169</ele>
        <time>2026-05-13T16:13:35+02:00</time>
      </trkpt>
      <trkpt lat="46.45926" lon="4.9102">
        <ele>169</ele>
        <time>2026-05-13T16:13:36+02:00</time>
      </trkpt>
      <trkpt lat="46.4593" lon="4.91026">
        <ele>169</ele>
        <time>2026-05-13T16:13:37+02:00</time>
      </trkpt>
      <trkpt lat="46.45935" lon="4.91031">
        <ele>168.90039</ele>
        <time>2026-05-13T16:13:38+02:00</time>
      </trkpt>
      <trkpt lat="46.4594" lon="4.91037">
        <ele>168.90039</ele>
        <time>2026-05-13T16:13:39+02:00</time>
      </trkpt>
      <trkpt lat="46.45945" lon="4.91043">
        <ele>169</ele>
        <time>2026-05-13T16:13:40+02:00</time>
      </trkpt>
      <trkpt lat="46.45949" lon="4.91048">
        <ele>169</ele>
        <time>2026-05-13T16:13:41+02:00</time>
      </trkpt>
      <trkpt lat="46.45954" lon="4.91053">
        <ele>169.10059</ele>
        <time>2026-05-13T16:13:42+02:00</time>
      </trkpt>
      <trkpt lat="46.45958" lon="4.91058">
        <ele>169.10059</ele>
        <time>2026-05-13T16:13:43+02:00</time>
      </trkpt>
      <trkpt lat="46.45963" lon="4.91063">
        <ele>169.10059</ele>
        <time>2026-05-13T16:13:44+02:00</time>
      </trkpt>
      <trkpt lat="46.45966" lon="4.91067">
        <ele>168.90039</ele>
        <time>2026-05-13T16:13:45+02:00</time>
      </trkpt>
      <trkpt lat="46.4597" lon="4.91071">
        <ele>169</ele>
        <time>2026-05-13T16:13:46+02:00</time>
      </trkpt>
      <trkpt lat="46.45974" lon="4.91075">
        <ele>169</ele>
        <time>2026-05-13T16:13:47+02:00</time>
      </trkpt>
      <trkpt lat="46.45978" lon="4.91079">
        <ele>169</ele>
        <time>2026-05-13T16:13:48+02:00</time>
      </trkpt>
      <trkpt lat="46.45984" lon="4.91085">
        <ele>169.2002</ele>
        <time>2026-05-13T16:13:49+02:00</time>
      </trkpt>
      <trkpt lat="46.45986" lon="4.91087">
        <ele>169.2998</ele>
        <time>2026-05-13T16:13:50+02:00</time>
      </trkpt>
      <trkpt lat="46.4599" lon="4.91091">
        <ele>169.10059</ele>
        <time>2026-05-13T16:13:51+02:00</time>
      </trkpt>
      <trkpt lat="46.45994" lon="4.91095">
        <ele>169.10059</ele>
        <time>2026-05-13T16:13:52+02:00</time>
      </trkpt>
      <trkpt lat="46.45998" lon="4.91098">
        <ele>168.90039</ele>
        <time>2026-05-13T16:13:53+02:00</time>
      </trkpt>
      <trkpt lat="46.46002" lon="4.91102">
        <ele>168.90039</ele>
        <time>2026-05-13T16:13:54+02:00</time>
      </trkpt>
      <trkpt lat="46.46007" lon="4.91107">
        <ele>168.90039</ele>
        <time>2026-05-13T16:13:55+02:00</time>
      </trkpt>
      <trkpt lat="46.46011" lon="4.91111">
        <ele>168.90039</ele>
        <time>2026-05-13T16:13:56+02:00</time>
      </trkpt>
      <trkpt lat="46.46015" lon="4.91115">
        <ele>169</ele>
        <time>2026-05-13T16:13:57+02:00</time>
      </trkpt>
      <trkpt lat="46.46019" lon="4.91119">
        <ele>169</ele>
        <time>2026-05-13T16:13:58+02:00</time>
      </trkpt>
      <trkpt lat="46.46024" lon="4.91123">
        <ele>169</ele>
        <time>2026-05-13T16:13:59+02:00</time>
      </trkpt>
      <trkpt lat="46.46028" lon="4.91127">
        <ele>169</ele>
        <time>2026-05-13T16:14:00+02:00</time>
      </trkpt>
      <trkpt lat="46.46033" lon="4.9113">
        <ele>169</ele>
        <time>2026-05-13T16:14:01+02:00</time>
      </trkpt>
      <trkpt lat="46.46037" lon="4.91133">
        <ele>168.90039</ele>
        <time>2026-05-13T16:14:02+02:00</time>
      </trkpt>
      <trkpt lat="46.46042" lon="4.91137">
        <ele>168.90039</ele>
        <time>2026-05-13T16:14:03+02:00</time>
      </trkpt>
      <trkpt lat="46.46047" lon="4.91141">
        <ele>169</ele>
        <time>2026-05-13T16:14:04+02:00</time>
      </trkpt>
      <trkpt lat="46.46052" lon="4.91145">
        <ele>169</ele>
        <time>2026-05-13T16:14:05+02:00</time>
      </trkpt>
      <trkpt lat="46.46058" lon="4.91148">
        <ele>169.10059</ele>
        <time>2026-05-13T16:14:06+02:00</time>
      </trkpt>
      <trkpt lat="46.46063" lon="4.91151">
        <ele>169</ele>
        <time>2026-05-13T16:14:07+02:00</time>
      </trkpt>
      <trkpt lat="46.46068" lon="4.91154">
        <ele>169</ele>
        <time>2026-05-13T16:14:08+02:00</time>
      </trkpt>
      <trkpt lat="46.46073" lon="4.91158">
        <ele>169</ele>
        <time>2026-05-13T16:14:09+02:00</time>
      </trkpt>
      <trkpt lat="46.46079" lon="4.91161">
        <ele>168.90039</ele>
        <time>2026-05-13T16:14:10+02:00</time>
      </trkpt>
      <trkpt lat="46.46084" lon="4.91164">
        <ele>168.7998</ele>
        <time>2026-05-13T16:14:11+02:00</time>
      </trkpt>
      <trkpt lat="46.46089" lon="4.91167">
        <ele>168.90039</ele>
        <time>2026-05-13T16:14:12+02:00</time>
      </trkpt>
      <trkpt lat="46.46094" lon="4.9117">
        <ele>169</ele>
        <time>2026-05-13T16:14:13+02:00</time>
      </trkpt>
      <trkpt lat="46.46099" lon="4.91173">
        <ele>169.10059</ele>
        <time>2026-05-13T16:14:14+02:00</time>
      </trkpt>
      <trkpt lat="46.46104" lon="4.91177">
        <ele>169.10059</ele>
        <time>2026-05-13T16:14:15+02:00</time>
      </trkpt>
      <trkpt lat="46.46109" lon="4.9118">
        <ele>169.10059</ele>
        <time>2026-05-13T16:14:16+02:00</time>
      </trkpt>
      <trkpt lat="46.46114" lon="4.91184">
        <ele>169</ele>
        <time>2026-05-13T16:14:17+02:00</time>
      </trkpt>
      <trkpt lat="46.4612" lon="4.91187">
        <ele>168.90039</ele>
        <time>2026-05-13T16:14:18+02:00</time>
      </trkpt>
      <trkpt lat="46.46126" lon="4.91191">
        <ele>168.7998</ele>
        <time>2026-05-13T16:14:19+02:00</time>
      </trkpt>
      <trkpt lat="46.46132" lon="4.91195">
        <ele>168.7002</ele>
        <time>2026-05-13T16:14:20+02:00</time>
      </trkpt>
      <trkpt lat="46.46138" lon="4.912">
        <ele>168.7998</ele>
        <time>2026-05-13T16:14:21+02:00</time>
      </trkpt>
      <trkpt lat="46.46147" lon="4.91205">
        <ele>169.10059</ele>
        <time>2026-05-13T16:14:22+02:00</time>
      </trkpt>
      <trkpt lat="46.4615" lon="4.91207">
        <ele>169.10059</ele>
        <time>2026-05-13T16:14:23+02:00</time>
      </trkpt>
      <trkpt lat="46.46156" lon="4.91211">
        <ele>169</ele>
        <time>2026-05-13T16:14:24+02:00</time>
      </trkpt>
      <trkpt lat="46.46163" lon="4.91215">
        <ele>168.90039</ele>
        <time>2026-05-13T16:14:25+02:00</time>
      </trkpt>
      <trkpt lat="46.46169" lon="4.91218">
        <ele>168.7002</ele>
        <time>2026-05-13T16:14:26+02:00</time>
      </trkpt>
      <trkpt lat="46.46175" lon="4.91221">
        <ele>168.7998</ele>
        <time>2026-05-13T16:14:27+02:00</time>
      </trkpt>
      <trkpt lat="46.4618" lon="4.91225">
        <ele>168.7998</ele>
        <time>2026-05-13T16:14:28+02:00</time>
      </trkpt>
      <trkpt lat="46.46186" lon="4.91228">
        <ele>169</ele>
        <time>2026-05-13T16:14:29+02:00</time>
      </trkpt>
      <trkpt lat="46.46192" lon="4.91231">
        <ele>169.2002</ele>
        <time>2026-05-13T16:14:30+02:00</time>
      </trkpt>
      <trkpt lat="46.46198" lon="4.91233">
        <ele>169.5</ele>
        <time>2026-05-13T16:14:31+02:00</time>
      </trkpt>
      <trkpt lat="46.46204" lon="4.91236">
        <ele>169.10059</ele>
        <time>2026-05-13T16:14:32+02:00</time>
      </trkpt>
      <trkpt lat="46.46213" lon="4.9124">
        <ele>169</ele>
        <time>2026-05-13T16:14:33+02:00</time>
      </trkpt>
      <trkpt lat="46.46216" lon="4.91242">
        <ele>169</ele>
        <time>2026-05-13T16:14:34+02:00</time>
      </trkpt>
      <trkpt lat="46.46222" lon="4.91245">
        <ele>168.7002</ele>
        <time>2026-05-13T16:14:35+02:00</time>
      </trkpt>
      <trkpt lat="46.46228" lon="4.91248">
        <ele>169</ele>
        <time>2026-05-13T16:14:36+02:00</time>
      </trkpt>
      <trkpt lat="46.46234" lon="4.91251">
        <ele>169.2998</ele>
        <time>2026-05-13T16:14:37+02:00</time>
      </trkpt>
      <trkpt lat="46.4624" lon="4.91255">
        <ele>169.2998</ele>
        <time>2026-05-13T16:14:38+02:00</time>
      </trkpt>
      <trkpt lat="46.46245" lon="4.91257">
        <ele>169.2998</ele>
        <time>2026-05-13T16:14:39+02:00</time>
      </trkpt>
      <trkpt lat="46.46251" lon="4.9126">
        <ele>169.40039</ele>
        <time>2026-05-13T16:14:40+02:00</time>
      </trkpt>
      <trkpt lat="46.46257" lon="4.91262">
        <ele>169.10059</ele>
        <time>2026-05-13T16:14:41+02:00</time>
      </trkpt>
      <trkpt lat="46.46263" lon="4.91265">
        <ele>169</ele>
        <time>2026-05-13T16:14:42+02:00</time>
      </trkpt>
      <trkpt lat="46.46269" lon="4.91268">
        <ele>169</ele>
        <time>2026-05-13T16:14:43+02:00</time>
      </trkpt>
      <trkpt lat="46.46275" lon="4.9127">
        <ele>168.7998</ele>
        <time>2026-05-13T16:14:44+02:00</time>
      </trkpt>
      <trkpt lat="46.46281" lon="4.91273">
        <ele>168.7998</ele>
        <time>2026-05-13T16:14:45+02:00</time>
      </trkpt>
      <trkpt lat="46.46287" lon="4.91275">
        <ele>169.40039</ele>
        <time>2026-05-13T16:14:46+02:00</time>
      </trkpt>
      <trkpt lat="46.46293" lon="4.91278">
        <ele>169.2002</ele>
        <time>2026-05-13T16:14:47+02:00</time>
      </trkpt>
      <trkpt lat="46.46299" lon="4.9128">
        <ele>169.2998</ele>
        <time>2026-05-13T16:14:48+02:00</time>
      </trkpt>
      <trkpt lat="46.46306" lon="4.91282">
        <ele>169.2998</ele>
        <time>2026-05-13T16:14:49+02:00</time>
      </trkpt>
      <trkpt lat="46.46311" lon="4.91284">
        <ele>169.2998</ele>
        <time>2026-05-13T16:14:50+02:00</time>
      </trkpt>
      <trkpt lat="46.46317" lon="4.91286">
        <ele>169.2998</ele>
        <time>2026-05-13T16:14:51+02:00</time>
      </trkpt>
      <trkpt lat="46.46324" lon="4.91287">
        <ele>169.10059</ele>
        <time>2026-05-13T16:14:52+02:00</time>
      </trkpt>
      <trkpt lat="46.4633" lon="4.91289">
        <ele>169.2002</ele>
        <time>2026-05-13T16:14:53+02:00</time>
      </trkpt>
      <trkpt lat="46.46336" lon="4.9129">
        <ele>169.2998</ele>
        <time>2026-05-13T16:14:54+02:00</time>
      </trkpt>
      <trkpt lat="46.46342" lon="4.91291">
        <ele>169.5</ele>
        <time>2026-05-13T16:14:55+02:00</time>
      </trkpt>
      <trkpt lat="46.46349" lon="4.91293">
        <ele>169.60059</ele>
        <time>2026-05-13T16:14:56+02:00</time>
      </trkpt>
      <trkpt lat="46.46355" lon="4.91294">
        <ele>169.7998</ele>
        <time>2026-05-13T16:14:57+02:00</time>
      </trkpt>
      <trkpt lat="46.46361" lon="4.91296">
        <ele>169.7002</ele>
        <time>2026-05-13T16:14:58+02:00</time>
      </trkpt>
      <trkpt lat="46.46367" lon="4.91297">
        <ele>169.7998</ele>
        <time>2026-05-13T16:14:59+02:00</time>
      </trkpt>
      <trkpt lat="46.46373" lon="4.91298">
        <ele>169.7998</ele>
        <time>2026-05-13T16:15:00+02:00</time>
      </trkpt>
      <trkpt lat="46.4638" lon="4.91299">
        <ele>169.7998</ele>
        <time>2026-05-13T16:15:01+02:00</time>
      </trkpt>
      <trkpt lat="46.46386" lon="4.913">
        <ele>169.90039</ele>
        <time>2026-05-13T16:15:02+02:00</time>
      </trkpt>
      <trkpt lat="46.46391" lon="4.91301">
        <ele>169.90039</ele>
        <time>2026-05-13T16:15:03+02:00</time>
      </trkpt>
      <trkpt lat="46.46397" lon="4.91301">
        <ele>170</ele>
        <time>2026-05-13T16:15:04+02:00</time>
      </trkpt>
      <trkpt lat="46.46403" lon="4.91301">
        <ele>170.10059</ele>
        <time>2026-05-13T16:15:05+02:00</time>
      </trkpt>
      <trkpt lat="46.46409" lon="4.91302">
        <ele>170.10059</ele>
        <time>2026-05-13T16:15:06+02:00</time>
      </trkpt>
      <trkpt lat="46.46414" lon="4.91302">
        <ele>170</ele>
        <time>2026-05-13T16:15:07+02:00</time>
      </trkpt>
      <trkpt lat="46.4642" lon="4.91302">
        <ele>169.7002</ele>
        <time>2026-05-13T16:15:08+02:00</time>
      </trkpt>
      <trkpt lat="46.46425" lon="4.91303">
        <ele>169.2998</ele>
        <time>2026-05-13T16:15:09+02:00</time>
      </trkpt>
      <trkpt lat="46.46431" lon="4.91303">
        <ele>169</ele>
        <time>2026-05-13T16:15:10+02:00</time>
      </trkpt>
      <trkpt lat="46.46437" lon="4.91303">
        <ele>169</ele>
        <time>2026-05-13T16:15:11+02:00</time>
      </trkpt>
      <trkpt lat="46.46443" lon="4.91304">
        <ele>169.10059</ele>
        <time>2026-05-13T16:15:12+02:00</time>
      </trkpt>
      <trkpt lat="46.46449" lon="4.91305">
        <ele>169.10059</ele>
        <time>2026-05-13T16:15:13+02:00</time>
      </trkpt>
      <trkpt lat="46.46454" lon="4.91306">
        <ele>169.10059</ele>
        <time>2026-05-13T16:15:14+02:00</time>
      </trkpt>
      <trkpt lat="46.46464" lon="4.91308">
        <ele>169.10059</ele>
        <time>2026-05-13T16:15:15+02:00</time>
      </trkpt>
      <trkpt lat="46.46467" lon="4.91308">
        <ele>169.2002</ele>
        <time>2026-05-13T16:15:16+02:00</time>
      </trkpt>
      <trkpt lat="46.46473" lon="4.9131">
        <ele>169.2002</ele>
        <time>2026-05-13T16:15:17+02:00</time>
      </trkpt>
      <trkpt lat="46.46478" lon="4.91311">
        <ele>169.2002</ele>
        <time>2026-05-13T16:15:18+02:00</time>
      </trkpt>
      <trkpt lat="46.46484" lon="4.91313">
        <ele>169</ele>
        <time>2026-05-13T16:15:19+02:00</time>
      </trkpt>
      <trkpt lat="46.4649" lon="4.91315">
        <ele>169</ele>
        <time>2026-05-13T16:15:20+02:00</time>
      </trkpt>
      <trkpt lat="46.46496" lon="4.91317">
        <ele>169</ele>
        <time>2026-05-13T16:15:21+02:00</time>
      </trkpt>
      <trkpt lat="46.46502" lon="4.91319">
        <ele>169</ele>
        <time>2026-05-13T16:15:22+02:00</time>
      </trkpt>
      <trkpt lat="46.46508" lon="4.91321">
        <ele>168.90039</ele>
        <time>2026-05-13T16:15:23+02:00</time>
      </trkpt>
      <trkpt lat="46.46514" lon="4.91324">
        <ele>168.90039</ele>
        <time>2026-05-13T16:15:24+02:00</time>
      </trkpt>
      <trkpt lat="46.46519" lon="4.91326">
        <ele>168.7998</ele>
        <time>2026-05-13T16:15:25+02:00</time>
      </trkpt>
      <trkpt lat="46.46525" lon="4.91327">
        <ele>168.90039</ele>
        <time>2026-05-13T16:15:26+02:00</time>
      </trkpt>
      <trkpt lat="46.46531" lon="4.91328">
        <ele>169.2002</ele>
        <time>2026-05-13T16:15:27+02:00</time>
      </trkpt>
      <trkpt lat="46.46537" lon="4.91329">
        <ele>169.60059</ele>
        <time>2026-05-13T16:15:28+02:00</time>
      </trkpt>
      <trkpt lat="46.46542" lon="4.91329">
        <ele>169.90039</ele>
        <time>2026-05-13T16:15:29+02:00</time>
      </trkpt>
      <trkpt lat="46.46549" lon="4.91331">
        <ele>169.2002</ele>
        <time>2026-05-13T16:15:30+02:00</time>
      </trkpt>
      <trkpt lat="46.46555" lon="4.91332">
        <ele>169.2002</ele>
        <time>2026-05-13T16:15:31+02:00</time>
      </trkpt>
      <trkpt lat="46.46561" lon="4.91334">
        <ele>169.10059</ele>
        <time>2026-05-13T16:15:32+02:00</time>
      </trkpt>
      <trkpt lat="46.46567" lon="4.91336">
        <ele>169.10059</ele>
        <time>2026-05-13T16:15:33+02:00</time>
      </trkpt>
      <trkpt lat="46.46573" lon="4.91338">
        <ele>169</ele>
        <time>2026-05-13T16:15:34+02:00</time>
      </trkpt>
      <trkpt lat="46.46579" lon="4.9134">
        <ele>169</ele>
        <time>2026-05-13T16:15:35+02:00</time>
      </trkpt>
      <trkpt lat="46.46584" lon="4.91343">
        <ele>169</ele>
        <time>2026-05-13T16:15:36+02:00</time>
      </trkpt>
      <trkpt lat="46.46589" lon="4.91345">
        <ele>169</ele>
        <time>2026-05-13T16:15:37+02:00</time>
      </trkpt>
      <trkpt lat="46.46595" lon="4.91348">
        <ele>169</ele>
        <time>2026-05-13T16:15:38+02:00</time>
      </trkpt>
      <trkpt lat="46.46601" lon="4.91351">
        <ele>168.90039</ele>
        <time>2026-05-13T16:15:39+02:00</time>
      </trkpt>
      <trkpt lat="46.46607" lon="4.91354">
        <ele>168.90039</ele>
        <time>2026-05-13T16:15:40+02:00</time>
      </trkpt>
      <trkpt lat="46.46612" lon="4.91357">
        <ele>169</ele>
        <time>2026-05-13T16:15:41+02:00</time>
      </trkpt>
      <trkpt lat="46.46618" lon="4.9136">
        <ele>169.10059</ele>
        <time>2026-05-13T16:15:42+02:00</time>
      </trkpt>
      <trkpt lat="46.46623" lon="4.91363">
        <ele>169.10059</ele>
        <time>2026-05-13T16:15:43+02:00</time>
      </trkpt>
      <trkpt lat="46.46629" lon="4.91366">
        <ele>169</ele>
        <time>2026-05-13T16:15:44+02:00</time>
      </trkpt>
      <trkpt lat="46.46636" lon="4.91369">
        <ele>168.90039</ele>
        <time>2026-05-13T16:15:45+02:00</time>
      </trkpt>
      <trkpt lat="46.46641" lon="4.91372">
        <ele>168.90039</ele>
        <time>2026-05-13T16:15:46+02:00</time>
      </trkpt>
      <trkpt lat="46.46647" lon="4.91374">
        <ele>168.90039</ele>
        <time>2026-05-13T16:15:47+02:00</time>
      </trkpt>
      <trkpt lat="46.46653" lon="4.91375">
        <ele>168.90039</ele>
        <time>2026-05-13T16:15:48+02:00</time>
      </trkpt>
      <trkpt lat="46.4666" lon="4.91375">
        <ele>169</ele>
        <time>2026-05-13T16:15:49+02:00</time>
      </trkpt>
      <trkpt lat="46.46666" lon="4.91374">
        <ele>169</ele>
        <time>2026-05-13T16:15:50+02:00</time>
      </trkpt>
      <trkpt lat="46.46672" lon="4.91373">
        <ele>169</ele>
        <time>2026-05-13T16:15:51+02:00</time>
      </trkpt>
      <trkpt lat="46.46678" lon="4.91372">
        <ele>169</ele>
        <time>2026-05-13T16:15:52+02:00</time>
      </trkpt>
      <trkpt lat="46.46684" lon="4.9137">
        <ele>169</ele>
        <time>2026-05-13T16:15:53+02:00</time>
      </trkpt>
      <trkpt lat="46.46691" lon="4.9137">
        <ele>168.90039</ele>
        <time>2026-05-13T16:15:54+02:00</time>
      </trkpt>
      <trkpt lat="46.46697" lon="4.9137">
        <ele>168.90039</ele>
        <time>2026-05-13T16:15:55+02:00</time>
      </trkpt>
      <trkpt lat="46.46702" lon="4.9137">
        <ele>168.90039</ele>
        <time>2026-05-13T16:15:56+02:00</time>
      </trkpt>
      <trkpt lat="46.46708" lon="4.91372">
        <ele>169</ele>
        <time>2026-05-13T16:15:57+02:00</time>
      </trkpt>
      <trkpt lat="46.46715" lon="4.91373">
        <ele>169.10059</ele>
        <time>2026-05-13T16:15:58+02:00</time>
      </trkpt>
      <trkpt lat="46.4672" lon="4.91376">
        <ele>169.2002</ele>
        <time>2026-05-13T16:15:59+02:00</time>
      </trkpt>
      <trkpt lat="46.46726" lon="4.91379">
        <ele>169.2998</ele>
        <time>2026-05-13T16:16:00+02:00</time>
      </trkpt>
      <trkpt lat="46.46731" lon="4.91383">
        <ele>169.10059</ele>
        <time>2026-05-13T16:16:01+02:00</time>
      </trkpt>
      <trkpt lat="46.46736" lon="4.91387">
        <ele>169.10059</ele>
        <time>2026-05-13T16:16:02+02:00</time>
      </trkpt>
      <trkpt lat="46.4674" lon="4.91391">
        <ele>168.90039</ele>
        <time>2026-05-13T16:16:03+02:00</time>
      </trkpt>
      <trkpt lat="46.46745" lon="4.91395">
        <ele>168.7998</ele>
        <time>2026-05-13T16:16:04+02:00</time>
      </trkpt>
      <trkpt lat="46.4675" lon="4.91398">
        <ele>168.90039</ele>
        <time>2026-05-13T16:16:05+02:00</time>
      </trkpt>
      <trkpt lat="46.46757" lon="4.91403">
        <ele>168.90039</ele>
        <time>2026-05-13T16:16:06+02:00</time>
      </trkpt>
      <trkpt lat="46.4676" lon="4.91404">
        <ele>168.90039</ele>
        <time>2026-05-13T16:16:07+02:00</time>
      </trkpt>
      <trkpt lat="46.46765" lon="4.91407">
        <ele>169</ele>
        <time>2026-05-13T16:16:08+02:00</time>
      </trkpt>
      <trkpt lat="46.4677" lon="4.91409">
        <ele>169</ele>
        <time>2026-05-13T16:16:09+02:00</time>
      </trkpt>
      <trkpt lat="46.46775" lon="4.91411">
        <ele>169</ele>
        <time>2026-05-13T16:16:10+02:00</time>
      </trkpt>
      <trkpt lat="46.4678" lon="4.91413">
        <ele>169</ele>
        <time>2026-05-13T16:16:11+02:00</time>
      </trkpt>
      <trkpt lat="46.46785" lon="4.91415">
        <ele>169.10059</ele>
        <time>2026-05-13T16:16:12+02:00</time>
      </trkpt>
      <trkpt lat="46.4679" lon="4.91417">
        <ele>169.10059</ele>
        <time>2026-05-13T16:16:13+02:00</time>
      </trkpt>
      <trkpt lat="46.46795" lon="4.91418">
        <ele>169.10059</ele>
        <time>2026-05-13T16:16:14+02:00</time>
      </trkpt>
      <trkpt lat="46.468" lon="4.91419">
        <ele>169.10059</ele>
        <time>2026-05-13T16:16:15+02:00</time>
      </trkpt>
      <trkpt lat="46.46805" lon="4.9142">
        <ele>169.10059</ele>
        <time>2026-05-13T16:16:16+02:00</time>
      </trkpt>
      <trkpt lat="46.4681" lon="4.9142">
        <ele>169.10059</ele>
        <time>2026-05-13T16:16:17+02:00</time>
      </trkpt>
      <trkpt lat="46.46813" lon="4.9142">
        <ele>169.10059</ele>
        <time>2026-05-13T16:16:18+02:00</time>
      </trkpt>
      <trkpt lat="46.46817" lon="4.9142">
        <ele>169.10059</ele>
        <time>2026-05-13T16:16:19+02:00</time>
      </trkpt>
      <trkpt lat="46.46821" lon="4.9142">
        <ele>169.10059</ele>
        <time>2026-05-13T16:16:20+02:00</time>
      </trkpt>
      <trkpt lat="46.46826" lon="4.9142">
        <ele>169.10059</ele>
        <time>2026-05-13T16:16:21+02:00</time>
      </trkpt>
      <trkpt lat="46.46831" lon="4.91421">
        <ele>169.10059</ele>
        <time>2026-05-13T16:16:22+02:00</time>
      </trkpt>
      <trkpt lat="46.46835" lon="4.91421">
        <ele>169.10059</ele>
        <time>2026-05-13T16:16:23+02:00</time>
      </trkpt>
      <trkpt lat="46.4684" lon="4.91422">
        <ele>169.10059</ele>
        <time>2026-05-13T16:16:24+02:00</time>
      </trkpt>
      <trkpt lat="46.46845" lon="4.91422">
        <ele>169.10059</ele>
        <time>2026-05-13T16:16:25+02:00</time>
      </trkpt>
      <trkpt lat="46.4685" lon="4.91422">
        <ele>169.10059</ele>
        <time>2026-05-13T16:16:26+02:00</time>
      </trkpt>
      <trkpt lat="46.46856" lon="4.91422">
        <ele>169.10059</ele>
        <time>2026-05-13T16:16:27+02:00</time>
      </trkpt>
      <trkpt lat="46.46861" lon="4.91421">
        <ele>169.10059</ele>
        <time>2026-05-13T16:16:28+02:00</time>
      </trkpt>
      <trkpt lat="46.46866" lon="4.9142">
        <ele>169.10059</ele>
        <time>2026-05-13T16:16:29+02:00</time>
      </trkpt>
      <trkpt lat="46.46871" lon="4.91419">
        <ele>169.10059</ele>
        <time>2026-05-13T16:16:30+02:00</time>
      </trkpt>
      <trkpt lat="46.46877" lon="4.91418">
        <ele>169.10059</ele>
        <time>2026-05-13T16:16:31+02:00</time>
      </trkpt>
      <trkpt lat="46.46882" lon="4.91417">
        <ele>169.10059</ele>
        <time>2026-05-13T16:16:32+02:00</time>
      </trkpt>
      <trkpt lat="46.46887" lon="4.91416">
        <ele>169.10059</ele>
        <time>2026-05-13T16:16:33+02:00</time>
      </trkpt>
      <trkpt lat="46.46893" lon="4.91415">
        <ele>169.10059</ele>
        <time>2026-05-13T16:16:34+02:00</time>
      </trkpt>
      <trkpt lat="46.46898" lon="4.91415">
        <ele>169.10059</ele>
        <time>2026-05-13T16:16:35+02:00</time>
      </trkpt>
      <trkpt lat="46.46903" lon="4.91414">
        <ele>169.10059</ele>
        <time>2026-05-13T16:16:36+02:00</time>
      </trkpt>
      <trkpt lat="46.46909" lon="4.91414">
        <ele>169.10059</ele>
        <time>2026-05-13T16:16:37+02:00</time>
      </trkpt>
      <trkpt lat="46.46914" lon="4.91414">
        <ele>169</ele>
        <time>2026-05-13T16:16:38+02:00</time>
      </trkpt>
      <trkpt lat="46.46919" lon="4.91414">
        <ele>169</ele>
        <time>2026-05-13T16:16:39+02:00</time>
      </trkpt>
      <trkpt lat="46.46924" lon="4.91414">
        <ele>169</ele>
        <time>2026-05-13T16:16:40+02:00</time>
      </trkpt>
      <trkpt lat="46.46929" lon="4.91415">
        <ele>169</ele>
        <time>2026-05-13T16:16:41+02:00</time>
      </trkpt>
      <trkpt lat="46.46934" lon="4.91415">
        <ele>169</ele>
        <time>2026-05-13T16:16:42+02:00</time>
      </trkpt>
      <trkpt lat="46.46939" lon="4.91415">
        <ele>169.10059</ele>
        <time>2026-05-13T16:16:43+02:00</time>
      </trkpt>
      <trkpt lat="46.46944" lon="4.91415">
        <ele>169.10059</ele>
        <time>2026-05-13T16:16:44+02:00</time>
      </trkpt>
      <trkpt lat="46.46948" lon="4.91415">
        <ele>169.10059</ele>
        <time>2026-05-13T16:16:45+02:00</time>
      </trkpt>
      <trkpt lat="46.46953" lon="4.91416">
        <ele>169.10059</ele>
        <time>2026-05-13T16:16:46+02:00</time>
      </trkpt>
      <trkpt lat="46.46957" lon="4.91416">
        <ele>169.10059</ele>
        <time>2026-05-13T16:16:47+02:00</time>
      </trkpt>
      <trkpt lat="46.46961" lon="4.91417">
        <ele>169.10059</ele>
        <time>2026-05-13T16:16:48+02:00</time>
      </trkpt>
      <trkpt lat="46.46965" lon="4.91417">
        <ele>169.10059</ele>
        <time>2026-05-13T16:16:49+02:00</time>
      </trkpt>
      <trkpt lat="46.46968" lon="4.91416">
        <ele>169</ele>
        <time>2026-05-13T16:16:50+02:00</time>
      </trkpt>
      <trkpt lat="46.46971" lon="4.91415">
        <ele>169</ele>
        <time>2026-05-13T16:16:51+02:00</time>
      </trkpt>
      <trkpt lat="46.46974" lon="4.91414">
        <ele>169</ele>
        <time>2026-05-13T16:16:52+02:00</time>
      </trkpt>
      <trkpt lat="46.46977" lon="4.91414">
        <ele>169</ele>
        <time>2026-05-13T16:16:53+02:00</time>
      </trkpt>
      <trkpt lat="46.4698" lon="4.91415">
        <ele>169</ele>
        <time>2026-05-13T16:16:54+02:00</time>
      </trkpt>
      <trkpt lat="46.46983" lon="4.91415">
        <ele>169</ele>
        <time>2026-05-13T16:16:55+02:00</time>
      </trkpt>
      <trkpt lat="46.46987" lon="4.91415">
        <ele>169</ele>
        <time>2026-05-13T16:16:56+02:00</time>
      </trkpt>
      <trkpt lat="46.4699" lon="4.91415">
        <ele>169</ele>
        <time>2026-05-13T16:16:57+02:00</time>
      </trkpt>
      <trkpt lat="46.46993" lon="4.91415">
        <ele>169</ele>
        <time>2026-05-13T16:16:58+02:00</time>
      </trkpt>
      <trkpt lat="46.46996" lon="4.91414">
        <ele>169</ele>
        <time>2026-05-13T16:16:59+02:00</time>
      </trkpt>
      <trkpt lat="46.46999" lon="4.91414">
        <ele>169</ele>
        <time>2026-05-13T16:17:00+02:00</time>
      </trkpt>
      <trkpt lat="46.47002" lon="4.91413">
        <ele>169</ele>
        <time>2026-05-13T16:17:01+02:00</time>
      </trkpt>
      <trkpt lat="46.47005" lon="4.91413">
        <ele>169</ele>
        <time>2026-05-13T16:17:02+02:00</time>
      </trkpt>
      <trkpt lat="46.47006" lon="4.91413">
        <ele>169</ele>
        <time>2026-05-13T16:17:03+02:00</time>
      </trkpt>
      <trkpt lat="46.47006" lon="4.91413">
        <ele>169</ele>
        <time>2026-05-13T16:17:04+02:00</time>
      </trkpt>
      <trkpt lat="46.47006" lon="4.91413">
        <ele>169</ele>
        <time>2026-05-13T16:17:05+02:00</time>
      </trkpt>
      <trkpt lat="46.47006" lon="4.91413">
        <ele>169</ele>
        <time>2026-05-13T16:17:06+02:00</time>
      </trkpt>
      <trkpt lat="46.47006" lon="4.91413">
        <ele>169</ele>
        <time>2026-05-13T16:17:07+02:00</time>
      </trkpt>
      <trkpt lat="46.47006" lon="4.91413">
        <ele>169</ele>
        <time>2026-05-13T16:17:08+02:00</time>
      </trkpt>
      <trkpt lat="46.47023" lon="4.91412">
        <ele>169</ele>
        <time>2026-05-13T16:18:20+02:00</time>
      </trkpt>
      <trkpt lat="46.47026" lon="4.91411">
        <ele>169</ele>
        <time>2026-05-13T16:18:21+02:00</time>
      </trkpt>
      <trkpt lat="46.47029" lon="4.91411">
        <ele>169</ele>
        <time>2026-05-13T16:18:22+02:00</time>
      </trkpt>
      <trkpt lat="46.47032" lon="4.91411">
        <ele>169</ele>
        <time>2026-05-13T16:18:23+02:00</time>
      </trkpt>
      <trkpt lat="46.47036" lon="4.9141">
        <ele>169</ele>
        <time>2026-05-13T16:18:24+02:00</time>
      </trkpt>
      <trkpt lat="46.47039" lon="4.9141">
        <ele>169</ele>
        <time>2026-05-13T16:18:25+02:00</time>
      </trkpt>
      <trkpt lat="46.47043" lon="4.9141">
        <ele>169</ele>
        <time>2026-05-13T16:18:26+02:00</time>
      </trkpt>
      <trkpt lat="46.47047" lon="4.91409">
        <ele>169</ele>
        <time>2026-05-13T16:18:27+02:00</time>
      </trkpt>
      <trkpt lat="46.47051" lon="4.91409">
        <ele>169</ele>
        <time>2026-05-13T16:18:28+02:00</time>
      </trkpt>
      <trkpt lat="46.47055" lon="4.91409">
        <ele>169</ele>
        <time>2026-05-13T16:18:29+02:00</time>
      </trkpt>
      <trkpt lat="46.47059" lon="4.91408">
        <ele>169</ele>
        <time>2026-05-13T16:18:30+02:00</time>
      </trkpt>
      <trkpt lat="46.47064" lon="4.91409">
        <ele>169</ele>
        <time>2026-05-13T16:18:31+02:00</time>
      </trkpt>
      <trkpt lat="46.4707" lon="4.91409">
        <ele>169</ele>
        <time>2026-05-13T16:18:32+02:00</time>
      </trkpt>
      <trkpt lat="46.47072" lon="4.91409">
        <ele>169</ele>
        <time>2026-05-13T16:18:33+02:00</time>
      </trkpt>
      <trkpt lat="46.47077" lon="4.91409">
        <ele>169.10059</ele>
        <time>2026-05-13T16:18:34+02:00</time>
      </trkpt>
      <trkpt lat="46.47082" lon="4.91409">
        <ele>169.10059</ele>
        <time>2026-05-13T16:18:35+02:00</time>
      </trkpt>
      <trkpt lat="46.47088" lon="4.91409">
        <ele>169.2002</ele>
        <time>2026-05-13T16:18:36+02:00</time>
      </trkpt>
      <trkpt lat="46.47093" lon="4.91409">
        <ele>169.2998</ele>
        <time>2026-05-13T16:18:37+02:00</time>
      </trkpt>
      <trkpt lat="46.47098" lon="4.91409">
        <ele>169.2998</ele>
        <time>2026-05-13T16:18:38+02:00</time>
      </trkpt>
      <trkpt lat="46.47104" lon="4.9141">
        <ele>169.2998</ele>
        <time>2026-05-13T16:18:39+02:00</time>
      </trkpt>
      <trkpt lat="46.47109" lon="4.9141">
        <ele>169.2998</ele>
        <time>2026-05-13T16:18:40+02:00</time>
      </trkpt>
      <trkpt lat="46.47115" lon="4.9141">
        <ele>169.2002</ele>
        <time>2026-05-13T16:18:41+02:00</time>
      </trkpt>
      <trkpt lat="46.4712" lon="4.9141">
        <ele>169.2002</ele>
        <time>2026-05-13T16:18:42+02:00</time>
      </trkpt>
      <trkpt lat="46.47126" lon="4.91411">
        <ele>169.2002</ele>
        <time>2026-05-13T16:18:43+02:00</time>
      </trkpt>
      <trkpt lat="46.47131" lon="4.91411">
        <ele>169.10059</ele>
        <time>2026-05-13T16:18:44+02:00</time>
      </trkpt>
      <trkpt lat="46.47137" lon="4.91411">
        <ele>169.10059</ele>
        <time>2026-05-13T16:18:45+02:00</time>
      </trkpt>
      <trkpt lat="46.47143" lon="4.91412">
        <ele>169.10059</ele>
        <time>2026-05-13T16:18:46+02:00</time>
      </trkpt>
      <trkpt lat="46.47149" lon="4.91412">
        <ele>169.2002</ele>
        <time>2026-05-13T16:18:47+02:00</time>
      </trkpt>
      <trkpt lat="46.47154" lon="4.91412">
        <ele>169.2002</ele>
        <time>2026-05-13T16:18:48+02:00</time>
      </trkpt>
      <trkpt lat="46.4716" lon="4.91413">
        <ele>169.2998</ele>
        <time>2026-05-13T16:18:49+02:00</time>
      </trkpt>
      <trkpt lat="46.47166" lon="4.91413">
        <ele>169.2998</ele>
        <time>2026-05-13T16:18:50+02:00</time>
      </trkpt>
      <trkpt lat="46.47172" lon="4.91413">
        <ele>169.40039</ele>
        <time>2026-05-13T16:18:51+02:00</time>
      </trkpt>
      <trkpt lat="46.47177" lon="4.91413">
        <ele>169.40039</ele>
        <time>2026-05-13T16:18:52+02:00</time>
      </trkpt>
      <trkpt lat="46.47183" lon="4.91413">
        <ele>169.5</ele>
        <time>2026-05-13T16:18:53+02:00</time>
      </trkpt>
      <trkpt lat="46.47189" lon="4.91413">
        <ele>169.5</ele>
        <time>2026-05-13T16:18:54+02:00</time>
      </trkpt>
      <trkpt lat="46.47195" lon="4.91413">
        <ele>169.60059</ele>
        <time>2026-05-13T16:18:55+02:00</time>
      </trkpt>
      <trkpt lat="46.47201" lon="4.91413">
        <ele>169.60059</ele>
        <time>2026-05-13T16:18:56+02:00</time>
      </trkpt>
      <trkpt lat="46.47209" lon="4.91413">
        <ele>169.60059</ele>
        <time>2026-05-13T16:18:57+02:00</time>
      </trkpt>
      <trkpt lat="46.47212" lon="4.91413">
        <ele>169.60059</ele>
        <time>2026-05-13T16:18:58+02:00</time>
      </trkpt>
      <trkpt lat="46.47218" lon="4.91414">
        <ele>169.60059</ele>
        <time>2026-05-13T16:18:59+02:00</time>
      </trkpt>
      <trkpt lat="46.47224" lon="4.91414">
        <ele>169.60059</ele>
        <time>2026-05-13T16:19:00+02:00</time>
      </trkpt>
      <trkpt lat="46.4723" lon="4.91414">
        <ele>169.60059</ele>
        <time>2026-05-13T16:19:01+02:00</time>
      </trkpt>
      <trkpt lat="46.47236" lon="4.91414">
        <ele>169.60059</ele>
        <time>2026-05-13T16:19:02+02:00</time>
      </trkpt>
      <trkpt lat="46.47242" lon="4.91415">
        <ele>169.2998</ele>
        <time>2026-05-13T16:19:03+02:00</time>
      </trkpt>
      <trkpt lat="46.47251" lon="4.91415">
        <ele>169.40039</ele>
        <time>2026-05-13T16:19:04+02:00</time>
      </trkpt>
      <trkpt lat="46.47254" lon="4.91414">
        <ele>169.7998</ele>
        <time>2026-05-13T16:19:05+02:00</time>
      </trkpt>
      <trkpt lat="46.4726" lon="4.91414">
        <ele>169.90039</ele>
        <time>2026-05-13T16:19:06+02:00</time>
      </trkpt>
      <trkpt lat="46.47266" lon="4.91415">
        <ele>169.5</ele>
        <time>2026-05-13T16:19:07+02:00</time>
      </trkpt>
      <trkpt lat="46.47271" lon="4.91415">
        <ele>169.60059</ele>
        <time>2026-05-13T16:19:08+02:00</time>
      </trkpt>
      <trkpt lat="46.47278" lon="4.91415">
        <ele>169.60059</ele>
        <time>2026-05-13T16:19:09+02:00</time>
      </trkpt>
      <trkpt lat="46.47283" lon="4.91415">
        <ele>169.60059</ele>
        <time>2026-05-13T16:19:10+02:00</time>
      </trkpt>
      <trkpt lat="46.47289" lon="4.91415">
        <ele>169.60059</ele>
        <time>2026-05-13T16:19:11+02:00</time>
      </trkpt>
      <trkpt lat="46.47295" lon="4.91415">
        <ele>169.60059</ele>
        <time>2026-05-13T16:19:12+02:00</time>
      </trkpt>
      <trkpt lat="46.47301" lon="4.91415">
        <ele>169.60059</ele>
        <time>2026-05-13T16:19:13+02:00</time>
      </trkpt>
      <trkpt lat="46.47307" lon="4.91415">
        <ele>169.60059</ele>
        <time>2026-05-13T16:19:14+02:00</time>
      </trkpt>
      <trkpt lat="46.47313" lon="4.91415">
        <ele>169.60059</ele>
        <time>2026-05-13T16:19:15+02:00</time>
      </trkpt>
      <trkpt lat="46.47321" lon="4.91414">
        <ele>170.7998</ele>
        <time>2026-05-13T16:19:16+02:00</time>
      </trkpt>
      <trkpt lat="46.47325" lon="4.91414">
        <ele>170.7998</ele>
        <time>2026-05-13T16:19:17+02:00</time>
      </trkpt>
      <trkpt lat="46.47331" lon="4.91414">
        <ele>170.7998</ele>
        <time>2026-05-13T16:19:18+02:00</time>
      </trkpt>
      <trkpt lat="46.4734" lon="4.91413">
        <ele>170.7002</ele>
        <time>2026-05-13T16:19:19+02:00</time>
      </trkpt>
      <trkpt lat="46.47342" lon="4.91413">
        <ele>170.7002</ele>
        <time>2026-05-13T16:19:20+02:00</time>
      </trkpt>
      <trkpt lat="46.47348" lon="4.91413">
        <ele>170.60059</ele>
        <time>2026-05-13T16:19:21+02:00</time>
      </trkpt>
      <trkpt lat="46.47354" lon="4.91412">
        <ele>170.5</ele>
        <time>2026-05-13T16:19:22+02:00</time>
      </trkpt>
      <trkpt lat="46.47363" lon="4.91411">
        <ele>170.40039</ele>
        <time>2026-05-13T16:19:23+02:00</time>
      </trkpt>
      <trkpt lat="46.47366" lon="4.91411">
        <ele>170.2998</ele>
        <time>2026-05-13T16:19:24+02:00</time>
      </trkpt>
      <trkpt lat="46.47371" lon="4.9141">
        <ele>170.10059</ele>
        <time>2026-05-13T16:19:25+02:00</time>
      </trkpt>
      <trkpt lat="46.47377" lon="4.9141">
        <ele>170</ele>
        <time>2026-05-13T16:19:26+02:00</time>
      </trkpt>
      <trkpt lat="46.47383" lon="4.9141">
        <ele>169.90039</ele>
        <time>2026-05-13T16:19:27+02:00</time>
      </trkpt>
      <trkpt lat="46.47389" lon="4.91409">
        <ele>169.7998</ele>
        <time>2026-05-13T16:19:28+02:00</time>
      </trkpt>
      <trkpt lat="46.47395" lon="4.91408">
        <ele>169.7002</ele>
        <time>2026-05-13T16:19:29+02:00</time>
      </trkpt>
      <trkpt lat="46.474" lon="4.91407">
        <ele>169.7002</ele>
        <time>2026-05-13T16:19:30+02:00</time>
      </trkpt>
      <trkpt lat="46.47406" lon="4.91406">
        <ele>170.90039</ele>
        <time>2026-05-13T16:19:31+02:00</time>
      </trkpt>
      <trkpt lat="46.47412" lon="4.91406">
        <ele>170.7002</ele>
        <time>2026-05-13T16:19:32+02:00</time>
      </trkpt>
      <trkpt lat="46.47418" lon="4.91405">
        <ele>170.60059</ele>
        <time>2026-05-13T16:19:33+02:00</time>
      </trkpt>
      <trkpt lat="46.47424" lon="4.91404">
        <ele>170.5</ele>
        <time>2026-05-13T16:19:34+02:00</time>
      </trkpt>
      <trkpt lat="46.47429" lon="4.91403">
        <ele>170.40039</ele>
        <time>2026-05-13T16:19:35+02:00</time>
      </trkpt>
      <trkpt lat="46.47435" lon="4.91402">
        <ele>170.2998</ele>
        <time>2026-05-13T16:19:36+02:00</time>
      </trkpt>
      <trkpt lat="46.47441" lon="4.91401">
        <ele>170.2002</ele>
        <time>2026-05-13T16:19:37+02:00</time>
      </trkpt>
      <trkpt lat="46.47447" lon="4.91399">
        <ele>170.10059</ele>
        <time>2026-05-13T16:19:38+02:00</time>
      </trkpt>
      <trkpt lat="46.47453" lon="4.91398">
        <ele>170</ele>
        <time>2026-05-13T16:19:39+02:00</time>
      </trkpt>
      <trkpt lat="46.47458" lon="4.91396">
        <ele>171</ele>
        <time>2026-05-13T16:19:40+02:00</time>
      </trkpt>
      <trkpt lat="46.47464" lon="4.91395">
        <ele>170.90039</ele>
        <time>2026-05-13T16:19:41+02:00</time>
      </trkpt>
      <trkpt lat="46.47469" lon="4.91393">
        <ele>170.90039</ele>
        <time>2026-05-13T16:19:42+02:00</time>
      </trkpt>
      <trkpt lat="46.47476" lon="4.91392">
        <ele>170.5</ele>
        <time>2026-05-13T16:19:43+02:00</time>
      </trkpt>
      <trkpt lat="46.47484" lon="4.91391">
        <ele>170.2998</ele>
        <time>2026-05-13T16:19:44+02:00</time>
      </trkpt>
      <trkpt lat="46.47487" lon="4.9139">
        <ele>170.2998</ele>
        <time>2026-05-13T16:19:45+02:00</time>
      </trkpt>
      <trkpt lat="46.47493" lon="4.91389">
        <ele>170.5</ele>
        <time>2026-05-13T16:19:46+02:00</time>
      </trkpt>
      <trkpt lat="46.47498" lon="4.91388">
        <ele>170.10059</ele>
        <time>2026-05-13T16:19:47+02:00</time>
      </trkpt>
      <trkpt lat="46.47505" lon="4.91386">
        <ele>169.7002</ele>
        <time>2026-05-13T16:19:48+02:00</time>
      </trkpt>
      <trkpt lat="46.4751" lon="4.91385">
        <ele>169.7002</ele>
        <time>2026-05-13T16:19:49+02:00</time>
      </trkpt>
      <trkpt lat="46.47516" lon="4.91384">
        <ele>169.60059</ele>
        <time>2026-05-13T16:19:50+02:00</time>
      </trkpt>
      <trkpt lat="46.47522" lon="4.91383">
        <ele>169.60059</ele>
        <time>2026-05-13T16:19:51+02:00</time>
      </trkpt>
      <trkpt lat="46.47527" lon="4.91382">
        <ele>169.60059</ele>
        <time>2026-05-13T16:19:52+02:00</time>
      </trkpt>
      <trkpt lat="46.47533" lon="4.91381">
        <ele>169.7002</ele>
        <time>2026-05-13T16:19:53+02:00</time>
      </trkpt>
      <trkpt lat="46.47539" lon="4.91379">
        <ele>170.2002</ele>
        <time>2026-05-13T16:19:54+02:00</time>
      </trkpt>
      <trkpt lat="46.47547" lon="4.91377">
        <ele>169.90039</ele>
        <time>2026-05-13T16:19:55+02:00</time>
      </trkpt>
      <trkpt lat="46.4755" lon="4.91376">
        <ele>169.90039</ele>
        <time>2026-05-13T16:19:56+02:00</time>
      </trkpt>
      <trkpt lat="46.47556" lon="4.91374">
        <ele>169.5</ele>
        <time>2026-05-13T16:19:57+02:00</time>
      </trkpt>
      <trkpt lat="46.47562" lon="4.91372">
        <ele>169.2002</ele>
        <time>2026-05-13T16:19:58+02:00</time>
      </trkpt>
      <trkpt lat="46.47568" lon="4.9137">
        <ele>169.10059</ele>
        <time>2026-05-13T16:19:59+02:00</time>
      </trkpt>
      <trkpt lat="46.47574" lon="4.91368">
        <ele>169.10059</ele>
        <time>2026-05-13T16:20:00+02:00</time>
      </trkpt>
      <trkpt lat="46.47579" lon="4.91365">
        <ele>169.10059</ele>
        <time>2026-05-13T16:20:01+02:00</time>
      </trkpt>
      <trkpt lat="46.47588" lon="4.91361">
        <ele>169.2002</ele>
        <time>2026-05-13T16:20:02+02:00</time>
      </trkpt>
      <trkpt lat="46.47591" lon="4.9136">
        <ele>169.2002</ele>
        <time>2026-05-13T16:20:03+02:00</time>
      </trkpt>
      <trkpt lat="46.47596" lon="4.91357">
        <ele>169.10059</ele>
        <time>2026-05-13T16:20:04+02:00</time>
      </trkpt>
      <trkpt lat="46.47602" lon="4.91354">
        <ele>169</ele>
        <time>2026-05-13T16:20:05+02:00</time>
      </trkpt>
      <trkpt lat="46.47608" lon="4.91352">
        <ele>168.90039</ele>
        <time>2026-05-13T16:20:06+02:00</time>
      </trkpt>
      <trkpt lat="46.47613" lon="4.91348">
        <ele>168.90039</ele>
        <time>2026-05-13T16:20:07+02:00</time>
      </trkpt>
      <trkpt lat="46.47618" lon="4.91345">
        <ele>168.90039</ele>
        <time>2026-05-13T16:20:08+02:00</time>
      </trkpt>
      <trkpt lat="46.47624" lon="4.91342">
        <ele>168.90039</ele>
        <time>2026-05-13T16:20:09+02:00</time>
      </trkpt>
      <trkpt lat="46.47629" lon="4.9134">
        <ele>168.90039</ele>
        <time>2026-05-13T16:20:10+02:00</time>
      </trkpt>
      <trkpt lat="46.47633" lon="4.91338">
        <ele>168.90039</ele>
        <time>2026-05-13T16:20:11+02:00</time>
      </trkpt>
      <trkpt lat="46.47638" lon="4.91336">
        <ele>169</ele>
        <time>2026-05-13T16:20:12+02:00</time>
      </trkpt>
      <trkpt lat="46.47646" lon="4.91334">
        <ele>169</ele>
        <time>2026-05-13T16:20:13+02:00</time>
      </trkpt>
      <trkpt lat="46.47648" lon="4.91334">
        <ele>169</ele>
        <time>2026-05-13T16:20:14+02:00</time>
      </trkpt>
      <trkpt lat="46.47654" lon="4.91333">
        <ele>169</ele>
        <time>2026-05-13T16:20:15+02:00</time>
      </trkpt>
      <trkpt lat="46.4766" lon="4.91332">
        <ele>168.90039</ele>
        <time>2026-05-13T16:20:16+02:00</time>
      </trkpt>
      <trkpt lat="46.4767" lon="4.91333">
        <ele>168.90039</ele>
        <time>2026-05-13T16:20:17+02:00</time>
      </trkpt>
      <trkpt lat="46.47674" lon="4.91333">
        <ele>168.7998</ele>
        <time>2026-05-13T16:20:18+02:00</time>
      </trkpt>
      <trkpt lat="46.4768" lon="4.91333">
        <ele>168.7998</ele>
        <time>2026-05-13T16:20:19+02:00</time>
      </trkpt>
      <trkpt lat="46.4769" lon="4.91332">
        <ele>168.90039</ele>
        <time>2026-05-13T16:20:20+02:00</time>
      </trkpt>
      <trkpt lat="46.47693" lon="4.91331">
        <ele>168.90039</ele>
        <time>2026-05-13T16:20:21+02:00</time>
      </trkpt>
      <trkpt lat="46.47699" lon="4.9133">
        <ele>169</ele>
        <time>2026-05-13T16:20:22+02:00</time>
      </trkpt>
      <trkpt lat="46.47706" lon="4.91328">
        <ele>169.10059</ele>
        <time>2026-05-13T16:20:23+02:00</time>
      </trkpt>
      <trkpt lat="46.47711" lon="4.91327">
        <ele>169.10059</ele>
        <time>2026-05-13T16:20:24+02:00</time>
      </trkpt>
      <trkpt lat="46.47717" lon="4.91326">
        <ele>169.10059</ele>
        <time>2026-05-13T16:20:25+02:00</time>
      </trkpt>
      <trkpt lat="46.47724" lon="4.91324">
        <ele>169.10059</ele>
        <time>2026-05-13T16:20:26+02:00</time>
      </trkpt>
      <trkpt lat="46.47733" lon="4.91322">
        <ele>169</ele>
        <time>2026-05-13T16:20:27+02:00</time>
      </trkpt>
      <trkpt lat="46.47736" lon="4.91321">
        <ele>169</ele>
        <time>2026-05-13T16:20:28+02:00</time>
      </trkpt>
      <trkpt lat="46.47741" lon="4.91319">
        <ele>169.10059</ele>
        <time>2026-05-13T16:20:29+02:00</time>
      </trkpt>
      <trkpt lat="46.47747" lon="4.91317">
        <ele>169.10059</ele>
        <time>2026-05-13T16:20:30+02:00</time>
      </trkpt>
      <trkpt lat="46.47752" lon="4.91314">
        <ele>169.10059</ele>
        <time>2026-05-13T16:20:31+02:00</time>
      </trkpt>
      <trkpt lat="46.47757" lon="4.91312">
        <ele>169</ele>
        <time>2026-05-13T16:20:32+02:00</time>
      </trkpt>
      <trkpt lat="46.47762" lon="4.91309">
        <ele>169</ele>
        <time>2026-05-13T16:20:33+02:00</time>
      </trkpt>
      <trkpt lat="46.4777" lon="4.91305">
        <ele>169</ele>
        <time>2026-05-13T16:20:34+02:00</time>
      </trkpt>
      <trkpt lat="46.47772" lon="4.91304">
        <ele>169.2002</ele>
        <time>2026-05-13T16:20:35+02:00</time>
      </trkpt>
      <trkpt lat="46.47778" lon="4.91302">
        <ele>169.7998</ele>
        <time>2026-05-13T16:20:36+02:00</time>
      </trkpt>
      <trkpt lat="46.47783" lon="4.91299">
        <ele>170.10059</ele>
        <time>2026-05-13T16:20:37+02:00</time>
      </trkpt>
      <trkpt lat="46.47791" lon="4.91296">
        <ele>170.10059</ele>
        <time>2026-05-13T16:20:38+02:00</time>
      </trkpt>
      <trkpt lat="46.47793" lon="4.91295">
        <ele>170.10059</ele>
        <time>2026-05-13T16:20:39+02:00</time>
      </trkpt>
      <trkpt lat="46.47799" lon="4.91293">
        <ele>171</ele>
        <time>2026-05-13T16:20:40+02:00</time>
      </trkpt>
      <trkpt lat="46.47807" lon="4.91291">
        <ele>171.2002</ele>
        <time>2026-05-13T16:20:41+02:00</time>
      </trkpt>
      <trkpt lat="46.4781" lon="4.9129">
        <ele>171.2002</ele>
        <time>2026-05-13T16:20:42+02:00</time>
      </trkpt>
      <trkpt lat="46.47816" lon="4.91289">
        <ele>171.40039</ele>
        <time>2026-05-13T16:20:43+02:00</time>
      </trkpt>
      <trkpt lat="46.47821" lon="4.91288">
        <ele>171.7002</ele>
        <time>2026-05-13T16:20:44+02:00</time>
      </trkpt>
      <trkpt lat="46.47827" lon="4.91287">
        <ele>171.7998</ele>
        <time>2026-05-13T16:20:45+02:00</time>
      </trkpt>
      <trkpt lat="46.47832" lon="4.91286">
        <ele>172.5</ele>
        <time>2026-05-13T16:20:46+02:00</time>
      </trkpt>
      <trkpt lat="46.47838" lon="4.91285">
        <ele>171.7998</ele>
        <time>2026-05-13T16:20:47+02:00</time>
      </trkpt>
      <trkpt lat="46.47843" lon="4.91284">
        <ele>170.5</ele>
        <time>2026-05-13T16:20:48+02:00</time>
      </trkpt>
      <trkpt lat="46.47849" lon="4.91284">
        <ele>169.40039</ele>
        <time>2026-05-13T16:20:49+02:00</time>
      </trkpt>
      <trkpt lat="46.47855" lon="4.91283">
        <ele>169.10059</ele>
        <time>2026-05-13T16:20:50+02:00</time>
      </trkpt>
      <trkpt lat="46.47861" lon="4.91283">
        <ele>169</ele>
        <time>2026-05-13T16:20:51+02:00</time>
      </trkpt>
      <trkpt lat="46.4787" lon="4.91282">
        <ele>169</ele>
        <time>2026-05-13T16:20:52+02:00</time>
      </trkpt>
      <trkpt lat="46.47873" lon="4.91282">
        <ele>169</ele>
        <time>2026-05-13T16:20:53+02:00</time>
      </trkpt>
      <trkpt lat="46.47878" lon="4.91282">
        <ele>169</ele>
        <time>2026-05-13T16:20:54+02:00</time>
      </trkpt>
      <trkpt lat="46.47885" lon="4.91282">
        <ele>169</ele>
        <time>2026-05-13T16:20:55+02:00</time>
      </trkpt>
      <trkpt lat="46.47891" lon="4.91281">
        <ele>168.90039</ele>
        <time>2026-05-13T16:20:56+02:00</time>
      </trkpt>
      <trkpt lat="46.47897" lon="4.9128">
        <ele>168.90039</ele>
        <time>2026-05-13T16:20:57+02:00</time>
      </trkpt>
      <trkpt lat="46.47903" lon="4.91279">
        <ele>168.90039</ele>
        <time>2026-05-13T16:20:58+02:00</time>
      </trkpt>
      <trkpt lat="46.47909" lon="4.91279">
        <ele>169</ele>
        <time>2026-05-13T16:20:59+02:00</time>
      </trkpt>
      <trkpt lat="46.47915" lon="4.91278">
        <ele>169</ele>
        <time>2026-05-13T16:21:00+02:00</time>
      </trkpt>
      <trkpt lat="46.47921" lon="4.91277">
        <ele>169.2002</ele>
        <time>2026-05-13T16:21:01+02:00</time>
      </trkpt>
      <trkpt lat="46.47927" lon="4.91276">
        <ele>169.2002</ele>
        <time>2026-05-13T16:21:02+02:00</time>
      </trkpt>
      <trkpt lat="46.47935" lon="4.91275">
        <ele>169.2998</ele>
        <time>2026-05-13T16:21:03+02:00</time>
      </trkpt>
      <trkpt lat="46.47938" lon="4.91275">
        <ele>169.40039</ele>
        <time>2026-05-13T16:21:04+02:00</time>
      </trkpt>
      <trkpt lat="46.47944" lon="4.91275">
        <ele>169.40039</ele>
        <time>2026-05-13T16:21:05+02:00</time>
      </trkpt>
      <trkpt lat="46.4795" lon="4.91274">
        <ele>169.2998</ele>
        <time>2026-05-13T16:21:06+02:00</time>
      </trkpt>
      <trkpt lat="46.47957" lon="4.91273">
        <ele>169.2002</ele>
        <time>2026-05-13T16:21:07+02:00</time>
      </trkpt>
      <trkpt lat="46.47963" lon="4.91272">
        <ele>169</ele>
        <time>2026-05-13T16:21:08+02:00</time>
      </trkpt>
      <trkpt lat="46.47968" lon="4.91272">
        <ele>169</ele>
        <time>2026-05-13T16:21:09+02:00</time>
      </trkpt>
      <trkpt lat="46.47975" lon="4.91271">
        <ele>169</ele>
        <time>2026-05-13T16:21:10+02:00</time>
      </trkpt>
      <trkpt lat="46.47981" lon="4.9127">
        <ele>169</ele>
        <time>2026-05-13T16:21:11+02:00</time>
      </trkpt>
      <trkpt lat="46.47987" lon="4.9127">
        <ele>169</ele>
        <time>2026-05-13T16:21:12+02:00</time>
      </trkpt>
      <trkpt lat="46.47993" lon="4.9127">
        <ele>169</ele>
        <time>2026-05-13T16:21:13+02:00</time>
      </trkpt>
      <trkpt lat="46.47999" lon="4.91269">
        <ele>169.10059</ele>
        <time>2026-05-13T16:21:14+02:00</time>
      </trkpt>
      <trkpt lat="46.48005" lon="4.91268">
        <ele>169.10059</ele>
        <time>2026-05-13T16:21:15+02:00</time>
      </trkpt>
      <trkpt lat="46.48011" lon="4.91267">
        <ele>169.10059</ele>
        <time>2026-05-13T16:21:16+02:00</time>
      </trkpt>
      <trkpt lat="46.4802" lon="4.91266">
        <ele>169</ele>
        <time>2026-05-13T16:21:17+02:00</time>
      </trkpt>
      <trkpt lat="46.48023" lon="4.91266">
        <ele>169</ele>
        <time>2026-05-13T16:21:18+02:00</time>
      </trkpt>
      <trkpt lat="46.48029" lon="4.91265">
        <ele>169</ele>
        <time>2026-05-13T16:21:19+02:00</time>
      </trkpt>
      <trkpt lat="46.48037" lon="4.91265">
        <ele>169</ele>
        <time>2026-05-13T16:21:20+02:00</time>
      </trkpt>
      <trkpt lat="46.4804" lon="4.91265">
        <ele>169</ele>
        <time>2026-05-13T16:21:21+02:00</time>
      </trkpt>
      <trkpt lat="46.48045" lon="4.91265">
        <ele>169</ele>
        <time>2026-05-13T16:21:22+02:00</time>
      </trkpt>
      <trkpt lat="46.48052" lon="4.91265">
        <ele>169</ele>
        <time>2026-05-13T16:21:23+02:00</time>
      </trkpt>
      <trkpt lat="46.4806" lon="4.91265">
        <ele>169</ele>
        <time>2026-05-13T16:21:24+02:00</time>
      </trkpt>
      <trkpt lat="46.48063" lon="4.91265">
        <ele>169</ele>
        <time>2026-05-13T16:21:25+02:00</time>
      </trkpt>
      <trkpt lat="46.48069" lon="4.91265">
        <ele>169</ele>
        <time>2026-05-13T16:21:26+02:00</time>
      </trkpt>
      <trkpt lat="46.48075" lon="4.91264">
        <ele>169</ele>
        <time>2026-05-13T16:21:27+02:00</time>
      </trkpt>
      <trkpt lat="46.48084" lon="4.91263">
        <ele>168.90039</ele>
        <time>2026-05-13T16:21:28+02:00</time>
      </trkpt>
      <trkpt lat="46.48087" lon="4.91263">
        <ele>168.7998</ele>
        <time>2026-05-13T16:21:29+02:00</time>
      </trkpt>
      <trkpt lat="46.48092" lon="4.91262">
        <ele>168.7002</ele>
        <time>2026-05-13T16:21:30+02:00</time>
      </trkpt>
      <trkpt lat="46.48098" lon="4.91261">
        <ele>168.7998</ele>
        <time>2026-05-13T16:21:31+02:00</time>
      </trkpt>
      <trkpt lat="46.48104" lon="4.9126">
        <ele>169.2998</ele>
        <time>2026-05-13T16:21:32+02:00</time>
      </trkpt>
      <trkpt lat="46.4811" lon="4.9126">
        <ele>170.2002</ele>
        <time>2026-05-13T16:21:33+02:00</time>
      </trkpt>
      <trkpt lat="46.48115" lon="4.9126">
        <ele>171.40039</ele>
        <time>2026-05-13T16:21:34+02:00</time>
      </trkpt>
      <trkpt lat="46.48121" lon="4.9126">
        <ele>172.2998</ele>
        <time>2026-05-13T16:21:35+02:00</time>
      </trkpt>
      <trkpt lat="46.48126" lon="4.9126">
        <ele>173.10059</ele>
        <time>2026-05-13T16:21:36+02:00</time>
      </trkpt>
      <trkpt lat="46.48131" lon="4.9126">
        <ele>173.10059</ele>
        <time>2026-05-13T16:21:37+02:00</time>
      </trkpt>
      <trkpt lat="46.48137" lon="4.9126">
        <ele>173.7998</ele>
        <time>2026-05-13T16:21:38+02:00</time>
      </trkpt>
      <trkpt lat="46.48143" lon="4.9126">
        <ele>174.2998</ele>
        <time>2026-05-13T16:21:39+02:00</time>
      </trkpt>
      <trkpt lat="46.48148" lon="4.91259">
        <ele>174.5</ele>
        <time>2026-05-13T16:21:40+02:00</time>
      </trkpt>
      <trkpt lat="46.48153" lon="4.91259">
        <ele>174.40039</ele>
        <time>2026-05-13T16:21:41+02:00</time>
      </trkpt>
      <trkpt lat="46.4816" lon="4.9126">
        <ele>174.10059</ele>
        <time>2026-05-13T16:21:42+02:00</time>
      </trkpt>
      <trkpt lat="46.48165" lon="4.91261">
        <ele>171.7998</ele>
        <time>2026-05-13T16:21:43+02:00</time>
      </trkpt>
      <trkpt lat="46.48171" lon="4.91261">
        <ele>171.7002</ele>
        <time>2026-05-13T16:21:44+02:00</time>
      </trkpt>
      <trkpt lat="46.48176" lon="4.91262">
        <ele>171.5</ele>
        <time>2026-05-13T16:21:45+02:00</time>
      </trkpt>
      <trkpt lat="46.48182" lon="4.91262">
        <ele>171.2998</ele>
        <time>2026-05-13T16:21:46+02:00</time>
      </trkpt>
      <trkpt lat="46.48192" lon="4.91262">
        <ele>171</ele>
        <time>2026-05-13T16:21:47+02:00</time>
      </trkpt>
      <trkpt lat="46.48195" lon="4.91263">
        <ele>171</ele>
        <time>2026-05-13T16:21:48+02:00</time>
      </trkpt>
      <trkpt lat="46.48202" lon="4.91263">
        <ele>170.90039</ele>
        <time>2026-05-13T16:21:49+02:00</time>
      </trkpt>
      <trkpt lat="46.48208" lon="4.91264">
        <ele>170.7998</ele>
        <time>2026-05-13T16:21:50+02:00</time>
      </trkpt>
      <trkpt lat="46.48214" lon="4.91264">
        <ele>170.7002</ele>
        <time>2026-05-13T16:21:51+02:00</time>
      </trkpt>
      <trkpt lat="46.48221" lon="4.91265">
        <ele>170.10059</ele>
        <time>2026-05-13T16:21:52+02:00</time>
      </trkpt>
      <trkpt lat="46.48228" lon="4.91265">
        <ele>169.7998</ele>
        <time>2026-05-13T16:21:53+02:00</time>
      </trkpt>
      <trkpt lat="46.48237" lon="4.91266">
        <ele>169.5</ele>
        <time>2026-05-13T16:21:54+02:00</time>
      </trkpt>
      <trkpt lat="46.4824" lon="4.91266">
        <ele>169.40039</ele>
        <time>2026-05-13T16:21:55+02:00</time>
      </trkpt>
      <trkpt lat="46.48247" lon="4.91265">
        <ele>169.40039</ele>
        <time>2026-05-13T16:21:56+02:00</time>
      </trkpt>
      <trkpt lat="46.48253" lon="4.91265">
        <ele>169.2998</ele>
        <time>2026-05-13T16:21:57+02:00</time>
      </trkpt>
      <trkpt lat="46.48259" lon="4.91265">
        <ele>169.2998</ele>
        <time>2026-05-13T16:21:58+02:00</time>
      </trkpt>
      <trkpt lat="46.48266" lon="4.91264">
        <ele>169.40039</ele>
        <time>2026-05-13T16:21:59+02:00</time>
      </trkpt>
      <trkpt lat="46.48272" lon="4.91263">
        <ele>169.40039</ele>
        <time>2026-05-13T16:22:00+02:00</time>
      </trkpt>
      <trkpt lat="46.48278" lon="4.91262">
        <ele>169.5</ele>
        <time>2026-05-13T16:22:01+02:00</time>
      </trkpt>
      <trkpt lat="46.48284" lon="4.91261">
        <ele>169.60059</ele>
        <time>2026-05-13T16:22:02+02:00</time>
      </trkpt>
      <trkpt lat="46.48289" lon="4.9126">
        <ele>170.10059</ele>
        <time>2026-05-13T16:22:03+02:00</time>
      </trkpt>
      <trkpt lat="46.48295" lon="4.9126">
        <ele>170.2002</ele>
        <time>2026-05-13T16:22:04+02:00</time>
      </trkpt>
      <trkpt lat="46.48301" lon="4.9126">
        <ele>170.2998</ele>
        <time>2026-05-13T16:22:05+02:00</time>
      </trkpt>
      <trkpt lat="46.48307" lon="4.91259">
        <ele>170.40039</ele>
        <time>2026-05-13T16:22:06+02:00</time>
      </trkpt>
      <trkpt lat="46.48315" lon="4.91259">
        <ele>170.60059</ele>
        <time>2026-05-13T16:22:07+02:00</time>
      </trkpt>
      <trkpt lat="46.48318" lon="4.91259">
        <ele>170.60059</ele>
        <time>2026-05-13T16:22:08+02:00</time>
      </trkpt>
      <trkpt lat="46.48324" lon="4.91258">
        <ele>170.7002</ele>
        <time>2026-05-13T16:22:09+02:00</time>
      </trkpt>
      <trkpt lat="46.4833" lon="4.91258">
        <ele>170.7998</ele>
        <time>2026-05-13T16:22:10+02:00</time>
      </trkpt>
      <trkpt lat="46.48336" lon="4.91258">
        <ele>170.90039</ele>
        <time>2026-05-13T16:22:11+02:00</time>
      </trkpt>
      <trkpt lat="46.48343" lon="4.91258">
        <ele>171</ele>
        <time>2026-05-13T16:22:12+02:00</time>
      </trkpt>
      <trkpt lat="46.48349" lon="4.91257">
        <ele>171.10059</ele>
        <time>2026-05-13T16:22:13+02:00</time>
      </trkpt>
      <trkpt lat="46.48359" lon="4.91257">
        <ele>171.2998</ele>
        <time>2026-05-13T16:22:14+02:00</time>
      </trkpt>
      <trkpt lat="46.48362" lon="4.91257">
        <ele>171.40039</ele>
        <time>2026-05-13T16:22:15+02:00</time>
      </trkpt>
      <trkpt lat="46.48369" lon="4.91257">
        <ele>171.5</ele>
        <time>2026-05-13T16:22:16+02:00</time>
      </trkpt>
      <trkpt lat="46.48375" lon="4.91256">
        <ele>171.5</ele>
        <time>2026-05-13T16:22:17+02:00</time>
      </trkpt>
      <trkpt lat="46.48381" lon="4.91256">
        <ele>171.60059</ele>
        <time>2026-05-13T16:22:18+02:00</time>
      </trkpt>
      <trkpt lat="46.48388" lon="4.91256">
        <ele>171.7002</ele>
        <time>2026-05-13T16:22:19+02:00</time>
      </trkpt>
      <trkpt lat="46.48394" lon="4.91257">
        <ele>171.7002</ele>
        <time>2026-05-13T16:22:20+02:00</time>
      </trkpt>
      <trkpt lat="46.484" lon="4.91257">
        <ele>171.7998</ele>
        <time>2026-05-13T16:22:21+02:00</time>
      </trkpt>
      <trkpt lat="46.48407" lon="4.91257">
        <ele>171.90039</ele>
        <time>2026-05-13T16:22:22+02:00</time>
      </trkpt>
      <trkpt lat="46.48413" lon="4.91257">
        <ele>171.90039</ele>
        <time>2026-05-13T16:22:23+02:00</time>
      </trkpt>
      <trkpt lat="46.48423" lon="4.91257">
        <ele>171.60059</ele>
        <time>2026-05-13T16:22:24+02:00</time>
      </trkpt>
      <trkpt lat="46.48426" lon="4.91256">
        <ele>171.60059</ele>
        <time>2026-05-13T16:22:25+02:00</time>
      </trkpt>
      <trkpt lat="46.48433" lon="4.91256">
        <ele>170.7002</ele>
        <time>2026-05-13T16:22:26+02:00</time>
      </trkpt>
      <trkpt lat="46.48443" lon="4.91256">
        <ele>170.60059</ele>
        <time>2026-05-13T16:22:27+02:00</time>
      </trkpt>
      <trkpt lat="46.48446" lon="4.91256">
        <ele>170.5</ele>
        <time>2026-05-13T16:22:28+02:00</time>
      </trkpt>
      <trkpt lat="46.48452" lon="4.91256">
        <ele>170.40039</ele>
        <time>2026-05-13T16:22:29+02:00</time>
      </trkpt>
      <trkpt lat="46.48459" lon="4.91256">
        <ele>170.40039</ele>
        <time>2026-05-13T16:22:30+02:00</time>
      </trkpt>
      <trkpt lat="46.48465" lon="4.91256">
        <ele>170.40039</ele>
        <time>2026-05-13T16:22:31+02:00</time>
      </trkpt>
      <trkpt lat="46.48472" lon="4.91255">
        <ele>170.40039</ele>
        <time>2026-05-13T16:22:32+02:00</time>
      </trkpt>
      <trkpt lat="46.48477" lon="4.91255">
        <ele>170.40039</ele>
        <time>2026-05-13T16:22:33+02:00</time>
      </trkpt>
      <trkpt lat="46.48483" lon="4.91253">
        <ele>170.2998</ele>
        <time>2026-05-13T16:22:34+02:00</time>
      </trkpt>
      <trkpt lat="46.48488" lon="4.91251">
        <ele>170.90039</ele>
        <time>2026-05-13T16:22:35+02:00</time>
      </trkpt>
      <trkpt lat="46.48494" lon="4.9125">
        <ele>170.90039</ele>
        <time>2026-05-13T16:22:36+02:00</time>
      </trkpt>
      <trkpt lat="46.485" lon="4.91248">
        <ele>170.90039</ele>
        <time>2026-05-13T16:22:37+02:00</time>
      </trkpt>
      <trkpt lat="46.48509" lon="4.91245">
        <ele>170.90039</ele>
        <time>2026-05-13T16:22:38+02:00</time>
      </trkpt>
      <trkpt lat="46.48512" lon="4.91244">
        <ele>170.7998</ele>
        <time>2026-05-13T16:22:39+02:00</time>
      </trkpt>
      <trkpt lat="46.48518" lon="4.91243">
        <ele>171.60059</ele>
        <time>2026-05-13T16:22:40+02:00</time>
      </trkpt>
      <trkpt lat="46.48524" lon="4.91241">
        <ele>171.60059</ele>
        <time>2026-05-13T16:22:41+02:00</time>
      </trkpt>
      <trkpt lat="46.4853" lon="4.9124">
        <ele>171.7002</ele>
        <time>2026-05-13T16:22:42+02:00</time>
      </trkpt>
      <trkpt lat="46.48536" lon="4.91238">
        <ele>171.90039</ele>
        <time>2026-05-13T16:22:43+02:00</time>
      </trkpt>
      <trkpt lat="46.48543" lon="4.91236">
        <ele>172.2002</ele>
        <time>2026-05-13T16:22:44+02:00</time>
      </trkpt>
      <trkpt lat="46.48552" lon="4.91234">
        <ele>173.40039</ele>
        <time>2026-05-13T16:22:45+02:00</time>
      </trkpt>
      <trkpt lat="46.48555" lon="4.91234">
        <ele>173.40039</ele>
        <time>2026-05-13T16:22:46+02:00</time>
      </trkpt>
      <trkpt lat="46.48561" lon="4.91232">
        <ele>173.5</ele>
        <time>2026-05-13T16:22:47+02:00</time>
      </trkpt>
      <trkpt lat="46.48567" lon="4.91231">
        <ele>173.7002</ele>
        <time>2026-05-13T16:22:48+02:00</time>
      </trkpt>
      <trkpt lat="46.48573" lon="4.9123">
        <ele>173.7998</ele>
        <time>2026-05-13T16:22:49+02:00</time>
      </trkpt>
      <trkpt lat="46.4858" lon="4.91229">
        <ele>174</ele>
        <time>2026-05-13T16:22:50+02:00</time>
      </trkpt>
      <trkpt lat="46.48586" lon="4.91227">
        <ele>174.10059</ele>
        <time>2026-05-13T16:22:51+02:00</time>
      </trkpt>
      <trkpt lat="46.48596" lon="4.91226">
        <ele>174.5</ele>
        <time>2026-05-13T16:22:52+02:00</time>
      </trkpt>
      <trkpt lat="46.48599" lon="4.91226">
        <ele>174.5</ele>
        <time>2026-05-13T16:22:53+02:00</time>
      </trkpt>
      <trkpt lat="46.48605" lon="4.91226">
        <ele>174.60059</ele>
        <time>2026-05-13T16:22:54+02:00</time>
      </trkpt>
      <trkpt lat="46.48615" lon="4.91227">
        <ele>174.5</ele>
        <time>2026-05-13T16:22:55+02:00</time>
      </trkpt>
      <trkpt lat="46.48618" lon="4.91227">
        <ele>174.5</ele>
        <time>2026-05-13T16:22:56+02:00</time>
      </trkpt>
      <trkpt lat="46.48624" lon="4.91228">
        <ele>174.60059</ele>
        <time>2026-05-13T16:22:57+02:00</time>
      </trkpt>
      <trkpt lat="46.4863" lon="4.91229">
        <ele>174.7002</ele>
        <time>2026-05-13T16:22:58+02:00</time>
      </trkpt>
      <trkpt lat="46.48636" lon="4.9123">
        <ele>174.7998</ele>
        <time>2026-05-13T16:22:59+02:00</time>
      </trkpt>
      <trkpt lat="46.48642" lon="4.9123">
        <ele>174.7998</ele>
        <time>2026-05-13T16:23:00+02:00</time>
      </trkpt>
      <trkpt lat="46.48659" lon="4.91232">
        <ele>174.5</ele>
        <time>2026-05-13T16:23:01+02:00</time>
      </trkpt>
      <trkpt lat="46.48665" lon="4.91233">
        <ele>174.5</ele>
        <time>2026-05-13T16:23:02+02:00</time>
      </trkpt>
      <trkpt lat="46.48671" lon="4.91234">
        <ele>174.5</ele>
        <time>2026-05-13T16:23:03+02:00</time>
      </trkpt>
      <trkpt lat="46.4868" lon="4.91236">
        <ele>174.2998</ele>
        <time>2026-05-13T16:23:04+02:00</time>
      </trkpt>
      <trkpt lat="46.48683" lon="4.91237">
        <ele>174.40039</ele>
        <time>2026-05-13T16:23:05+02:00</time>
      </trkpt>
      <trkpt lat="46.48689" lon="4.91238">
        <ele>174.40039</ele>
        <time>2026-05-13T16:23:06+02:00</time>
      </trkpt>
      <trkpt lat="46.48698" lon="4.91241">
        <ele>174.40039</ele>
        <time>2026-05-13T16:23:07+02:00</time>
      </trkpt>
      <trkpt lat="46.48701" lon="4.91241">
        <ele>174.5</ele>
        <time>2026-05-13T16:23:08+02:00</time>
      </trkpt>
      <trkpt lat="46.48707" lon="4.91242">
        <ele>174.5</ele>
        <time>2026-05-13T16:23:09+02:00</time>
      </trkpt>
      <trkpt lat="46.48712" lon="4.91244">
        <ele>174.5</ele>
        <time>2026-05-13T16:23:10+02:00</time>
      </trkpt>
      <trkpt lat="46.48718" lon="4.91245">
        <ele>174.5</ele>
        <time>2026-05-13T16:23:11+02:00</time>
      </trkpt>
      <trkpt lat="46.48724" lon="4.91246">
        <ele>174.60059</ele>
        <time>2026-05-13T16:23:12+02:00</time>
      </trkpt>
      <trkpt lat="46.4873" lon="4.91248">
        <ele>174.60059</ele>
        <time>2026-05-13T16:23:13+02:00</time>
      </trkpt>
      <trkpt lat="46.48736" lon="4.9125">
        <ele>174.60059</ele>
        <time>2026-05-13T16:23:14+02:00</time>
      </trkpt>
      <trkpt lat="46.48745" lon="4.91252">
        <ele>174.40039</ele>
        <time>2026-05-13T16:23:15+02:00</time>
      </trkpt>
      <trkpt lat="46.48747" lon="4.91252">
        <ele>174.40039</ele>
        <time>2026-05-13T16:23:16+02:00</time>
      </trkpt>
      <trkpt lat="46.48752" lon="4.91253">
        <ele>174.40039</ele>
        <time>2026-05-13T16:23:17+02:00</time>
      </trkpt>
      <trkpt lat="46.48756" lon="4.91253">
        <ele>174.40039</ele>
        <time>2026-05-13T16:23:18+02:00</time>
      </trkpt>
      <trkpt lat="46.4876" lon="4.91254">
        <ele>174.40039</ele>
        <time>2026-05-13T16:23:19+02:00</time>
      </trkpt>
      <trkpt lat="46.48763" lon="4.91253">
        <ele>174.40039</ele>
        <time>2026-05-13T16:23:20+02:00</time>
      </trkpt>
      <trkpt lat="46.48767" lon="4.9125">
        <ele>174.5</ele>
        <time>2026-05-13T16:23:21+02:00</time>
      </trkpt>
      <trkpt lat="46.48771" lon="4.91249">
        <ele>174.5</ele>
        <time>2026-05-13T16:23:22+02:00</time>
      </trkpt>
      <trkpt lat="46.48774" lon="4.91248">
        <ele>174.5</ele>
        <time>2026-05-13T16:23:23+02:00</time>
      </trkpt>
      <trkpt lat="46.48779" lon="4.91248">
        <ele>174.5</ele>
        <time>2026-05-13T16:23:24+02:00</time>
      </trkpt>
      <trkpt lat="46.48784" lon="4.9125">
        <ele>174.5</ele>
        <time>2026-05-13T16:23:25+02:00</time>
      </trkpt>
      <trkpt lat="46.48789" lon="4.91251">
        <ele>174.5</ele>
        <time>2026-05-13T16:23:26+02:00</time>
      </trkpt>
      <trkpt lat="46.48794" lon="4.91253">
        <ele>174.5</ele>
        <time>2026-05-13T16:23:27+02:00</time>
      </trkpt>
      <trkpt lat="46.488" lon="4.91254">
        <ele>174.60059</ele>
        <time>2026-05-13T16:23:28+02:00</time>
      </trkpt>
      <trkpt lat="46.48805" lon="4.91256">
        <ele>174.60059</ele>
        <time>2026-05-13T16:23:29+02:00</time>
      </trkpt>
      <trkpt lat="46.4881" lon="4.91258">
        <ele>174.60059</ele>
        <time>2026-05-13T16:23:30+02:00</time>
      </trkpt>
      <trkpt lat="46.48816" lon="4.9126">
        <ele>174.60059</ele>
        <time>2026-05-13T16:23:31+02:00</time>
      </trkpt>
      <trkpt lat="46.48821" lon="4.91262">
        <ele>174.7002</ele>
        <time>2026-05-13T16:23:32+02:00</time>
      </trkpt>
      <trkpt lat="46.48827" lon="4.91264">
        <ele>174.60059</ele>
        <time>2026-05-13T16:23:33+02:00</time>
      </trkpt>
      <trkpt lat="46.48832" lon="4.91266">
        <ele>174.60059</ele>
        <time>2026-05-13T16:23:34+02:00</time>
      </trkpt>
      <trkpt lat="46.48838" lon="4.91268">
        <ele>174.60059</ele>
        <time>2026-05-13T16:23:35+02:00</time>
      </trkpt>
      <trkpt lat="46.48846" lon="4.91272">
        <ele>174.7002</ele>
        <time>2026-05-13T16:23:36+02:00</time>
      </trkpt>
      <trkpt lat="46.48849" lon="4.91273">
        <ele>174.60059</ele>
        <time>2026-05-13T16:23:37+02:00</time>
      </trkpt>
      <trkpt lat="46.48855" lon="4.91274">
        <ele>174.60059</ele>
        <time>2026-05-13T16:23:38+02:00</time>
      </trkpt>
      <trkpt lat="46.48861" lon="4.91276">
        <ele>174.5</ele>
        <time>2026-05-13T16:23:39+02:00</time>
      </trkpt>
      <trkpt lat="46.48869" lon="4.9128">
        <ele>174.5</ele>
        <time>2026-05-13T16:23:40+02:00</time>
      </trkpt>
      <trkpt lat="46.48872" lon="4.91281">
        <ele>174.40039</ele>
        <time>2026-05-13T16:23:41+02:00</time>
      </trkpt>
      <trkpt lat="46.48878" lon="4.91284">
        <ele>174.2998</ele>
        <time>2026-05-13T16:23:42+02:00</time>
      </trkpt>
      <trkpt lat="46.48884" lon="4.91287">
        <ele>174.10059</ele>
        <time>2026-05-13T16:23:43+02:00</time>
      </trkpt>
      <trkpt lat="46.48889" lon="4.9129">
        <ele>174.10059</ele>
        <time>2026-05-13T16:23:44+02:00</time>
      </trkpt>
      <trkpt lat="46.48895" lon="4.91293">
        <ele>174.10059</ele>
        <time>2026-05-13T16:23:45+02:00</time>
      </trkpt>
      <trkpt lat="46.48903" lon="4.91297">
        <ele>174.10059</ele>
        <time>2026-05-13T16:23:46+02:00</time>
      </trkpt>
      <trkpt lat="46.48906" lon="4.91298">
        <ele>174.10059</ele>
        <time>2026-05-13T16:23:47+02:00</time>
      </trkpt>
      <trkpt lat="46.48911" lon="4.91301">
        <ele>174.10059</ele>
        <time>2026-05-13T16:23:48+02:00</time>
      </trkpt>
      <trkpt lat="46.48917" lon="4.91304">
        <ele>174.10059</ele>
        <time>2026-05-13T16:23:49+02:00</time>
      </trkpt>
      <trkpt lat="46.48922" lon="4.91306">
        <ele>174.10059</ele>
        <time>2026-05-13T16:23:50+02:00</time>
      </trkpt>
      <trkpt lat="46.48928" lon="4.91309">
        <ele>174</ele>
        <time>2026-05-13T16:23:51+02:00</time>
      </trkpt>
      <trkpt lat="46.48934" lon="4.91311">
        <ele>173.7998</ele>
        <time>2026-05-13T16:23:52+02:00</time>
      </trkpt>
      <trkpt lat="46.48943" lon="4.91315">
        <ele>173.2998</ele>
        <time>2026-05-13T16:23:53+02:00</time>
      </trkpt>
      <trkpt lat="46.48946" lon="4.91317">
        <ele>173.2998</ele>
        <time>2026-05-13T16:23:54+02:00</time>
      </trkpt>
      <trkpt lat="46.48952" lon="4.9132">
        <ele>173.2002</ele>
        <time>2026-05-13T16:23:55+02:00</time>
      </trkpt>
      <trkpt lat="46.48958" lon="4.91323">
        <ele>173</ele>
        <time>2026-05-13T16:23:56+02:00</time>
      </trkpt>
      <trkpt lat="46.48963" lon="4.91326">
        <ele>173</ele>
        <time>2026-05-13T16:23:57+02:00</time>
      </trkpt>
      <trkpt lat="46.48969" lon="4.9133">
        <ele>172.90039</ele>
        <time>2026-05-13T16:23:58+02:00</time>
      </trkpt>
      <trkpt lat="46.48974" lon="4.91334">
        <ele>172.90039</ele>
        <time>2026-05-13T16:23:59+02:00</time>
      </trkpt>
      <trkpt lat="46.4898" lon="4.91338">
        <ele>172.90039</ele>
        <time>2026-05-13T16:24:00+02:00</time>
      </trkpt>
      <trkpt lat="46.48985" lon="4.91343">
        <ele>173</ele>
        <time>2026-05-13T16:24:01+02:00</time>
      </trkpt>
      <trkpt lat="46.48991" lon="4.91347">
        <ele>172.90039</ele>
        <time>2026-05-13T16:24:02+02:00</time>
      </trkpt>
      <trkpt lat="46.48996" lon="4.91351">
        <ele>172.90039</ele>
        <time>2026-05-13T16:24:03+02:00</time>
      </trkpt>
      <trkpt lat="46.49001" lon="4.91355">
        <ele>173</ele>
        <time>2026-05-13T16:24:04+02:00</time>
      </trkpt>
      <trkpt lat="46.49006" lon="4.9136">
        <ele>173</ele>
        <time>2026-05-13T16:24:05+02:00</time>
      </trkpt>
      <trkpt lat="46.49012" lon="4.91364">
        <ele>173.10059</ele>
        <time>2026-05-13T16:24:06+02:00</time>
      </trkpt>
      <trkpt lat="46.49017" lon="4.91369">
        <ele>173.10059</ele>
        <time>2026-05-13T16:24:07+02:00</time>
      </trkpt>
      <trkpt lat="46.49022" lon="4.91373">
        <ele>173</ele>
        <time>2026-05-13T16:24:08+02:00</time>
      </trkpt>
      <trkpt lat="46.49028" lon="4.91377">
        <ele>173.10059</ele>
        <time>2026-05-13T16:24:09+02:00</time>
      </trkpt>
      <trkpt lat="46.49033" lon="4.91381">
        <ele>173.10059</ele>
        <time>2026-05-13T16:24:10+02:00</time>
      </trkpt>
      <trkpt lat="46.49038" lon="4.91386">
        <ele>173.2002</ele>
        <time>2026-05-13T16:24:11+02:00</time>
      </trkpt>
      <trkpt lat="46.49043" lon="4.9139">
        <ele>173.2998</ele>
        <time>2026-05-13T16:24:12+02:00</time>
      </trkpt>
      <trkpt lat="46.49048" lon="4.91395">
        <ele>173.40039</ele>
        <time>2026-05-13T16:24:13+02:00</time>
      </trkpt>
      <trkpt lat="46.49053" lon="4.914">
        <ele>173.2002</ele>
        <time>2026-05-13T16:24:14+02:00</time>
      </trkpt>
      <trkpt lat="46.49058" lon="4.91406">
        <ele>173.2998</ele>
        <time>2026-05-13T16:24:15+02:00</time>
      </trkpt>
      <trkpt lat="46.49062" lon="4.91411">
        <ele>173.10059</ele>
        <time>2026-05-13T16:24:16+02:00</time>
      </trkpt>
      <trkpt lat="46.49067" lon="4.91417">
        <ele>173.10059</ele>
        <time>2026-05-13T16:24:17+02:00</time>
      </trkpt>
      <trkpt lat="46.49072" lon="4.91422">
        <ele>173.2998</ele>
        <time>2026-05-13T16:24:18+02:00</time>
      </trkpt>
      <trkpt lat="46.49076" lon="4.91427">
        <ele>173.10059</ele>
        <time>2026-05-13T16:24:19+02:00</time>
      </trkpt>
      <trkpt lat="46.4908" lon="4.91432">
        <ele>173.2002</ele>
        <time>2026-05-13T16:24:20+02:00</time>
      </trkpt>
      <trkpt lat="46.49085" lon="4.91437">
        <ele>173</ele>
        <time>2026-05-13T16:24:21+02:00</time>
      </trkpt>
      <trkpt lat="46.49089" lon="4.91442">
        <ele>172.7998</ele>
        <time>2026-05-13T16:24:22+02:00</time>
      </trkpt>
      <trkpt lat="46.49093" lon="4.91448">
        <ele>172.7998</ele>
        <time>2026-05-13T16:24:23+02:00</time>
      </trkpt>
      <trkpt lat="46.49096" lon="4.91453">
        <ele>172.7002</ele>
        <time>2026-05-13T16:24:24+02:00</time>
      </trkpt>
      <trkpt lat="46.49101" lon="4.91463">
        <ele>172.5</ele>
        <time>2026-05-13T16:24:25+02:00</time>
      </trkpt>
      <trkpt lat="46.49102" lon="4.91466">
        <ele>172.5</ele>
        <time>2026-05-13T16:24:26+02:00</time>
      </trkpt>
      <trkpt lat="46.49106" lon="4.91473">
        <ele>172.2998</ele>
        <time>2026-05-13T16:24:27+02:00</time>
      </trkpt>
      <trkpt lat="46.49109" lon="4.91479">
        <ele>172.10059</ele>
        <time>2026-05-13T16:24:28+02:00</time>
      </trkpt>
      <trkpt lat="46.49112" lon="4.91485">
        <ele>172</ele>
        <time>2026-05-13T16:24:29+02:00</time>
      </trkpt>
      <trkpt lat="46.49115" lon="4.91492">
        <ele>172.10059</ele>
        <time>2026-05-13T16:24:30+02:00</time>
      </trkpt>
      <trkpt lat="46.49118" lon="4.91499">
        <ele>172.10059</ele>
        <time>2026-05-13T16:24:31+02:00</time>
      </trkpt>
      <trkpt lat="46.49121" lon="4.91505">
        <ele>171.90039</ele>
        <time>2026-05-13T16:24:32+02:00</time>
      </trkpt>
      <trkpt lat="46.49125" lon="4.91511">
        <ele>171.40039</ele>
        <time>2026-05-13T16:24:33+02:00</time>
      </trkpt>
      <trkpt lat="46.49128" lon="4.91517">
        <ele>171.40039</ele>
        <time>2026-05-13T16:24:34+02:00</time>
      </trkpt>
      <trkpt lat="46.49131" lon="4.91523">
        <ele>171.10059</ele>
        <time>2026-05-13T16:24:35+02:00</time>
      </trkpt>
      <trkpt lat="46.49134" lon="4.9153">
        <ele>170.5</ele>
        <time>2026-05-13T16:24:36+02:00</time>
      </trkpt>
      <trkpt lat="46.49137" lon="4.91537">
        <ele>170.7002</ele>
        <time>2026-05-13T16:24:37+02:00</time>
      </trkpt>
      <trkpt lat="46.4914" lon="4.91544">
        <ele>170.40039</ele>
        <time>2026-05-13T16:24:38+02:00</time>
      </trkpt>
      <trkpt lat="46.49144" lon="4.91554">
        <ele>170.7002</ele>
        <time>2026-05-13T16:24:39+02:00</time>
      </trkpt>
      <trkpt lat="46.49146" lon="4.91557">
        <ele>170.7002</ele>
        <time>2026-05-13T16:24:40+02:00</time>
      </trkpt>
      <trkpt lat="46.49149" lon="4.91563">
        <ele>170.10059</ele>
        <time>2026-05-13T16:24:41+02:00</time>
      </trkpt>
      <trkpt lat="46.49152" lon="4.9157">
        <ele>169.2002</ele>
        <time>2026-05-13T16:24:42+02:00</time>
      </trkpt>
      <trkpt lat="46.49155" lon="4.91577">
        <ele>169.40039</ele>
        <time>2026-05-13T16:24:43+02:00</time>
      </trkpt>
      <trkpt lat="46.49157" lon="4.91584">
        <ele>169.10059</ele>
        <time>2026-05-13T16:24:44+02:00</time>
      </trkpt>
      <trkpt lat="46.49161" lon="4.91592">
        <ele>169.2002</ele>
        <time>2026-05-13T16:24:45+02:00</time>
      </trkpt>
      <trkpt lat="46.49164" lon="4.91599">
        <ele>169.10059</ele>
        <time>2026-05-13T16:24:46+02:00</time>
      </trkpt>
      <trkpt lat="46.49167" lon="4.91606">
        <ele>169.10059</ele>
        <time>2026-05-13T16:24:47+02:00</time>
      </trkpt>
      <trkpt lat="46.4917" lon="4.91614">
        <ele>169</ele>
        <time>2026-05-13T16:24:48+02:00</time>
      </trkpt>
      <trkpt lat="46.49173" lon="4.91621">
        <ele>169</ele>
        <time>2026-05-13T16:24:49+02:00</time>
      </trkpt>
      <trkpt lat="46.49177" lon="4.91628">
        <ele>169</ele>
        <time>2026-05-13T16:24:50+02:00</time>
      </trkpt>
      <trkpt lat="46.4918" lon="4.91636">
        <ele>169.10059</ele>
        <time>2026-05-13T16:24:51+02:00</time>
      </trkpt>
      <trkpt lat="46.49185" lon="4.91647">
        <ele>169.10059</ele>
        <time>2026-05-13T16:24:52+02:00</time>
      </trkpt>
      <trkpt lat="46.49187" lon="4.9165">
        <ele>169.10059</ele>
        <time>2026-05-13T16:24:53+02:00</time>
      </trkpt>
      <trkpt lat="46.4919" lon="4.91657">
        <ele>169.10059</ele>
        <time>2026-05-13T16:24:54+02:00</time>
      </trkpt>
      <trkpt lat="46.49194" lon="4.91664">
        <ele>169.10059</ele>
        <time>2026-05-13T16:24:55+02:00</time>
      </trkpt>
      <trkpt lat="46.49198" lon="4.91671">
        <ele>169.10059</ele>
        <time>2026-05-13T16:24:56+02:00</time>
      </trkpt>
      <trkpt lat="46.49201" lon="4.91678">
        <ele>169.10059</ele>
        <time>2026-05-13T16:24:57+02:00</time>
      </trkpt>
      <trkpt lat="46.49205" lon="4.91685">
        <ele>169.10059</ele>
        <time>2026-05-13T16:24:58+02:00</time>
      </trkpt>
      <trkpt lat="46.4921" lon="4.91695">
        <ele>169.10059</ele>
        <time>2026-05-13T16:24:59+02:00</time>
      </trkpt>
      <trkpt lat="46.49212" lon="4.91698">
        <ele>169.10059</ele>
        <time>2026-05-13T16:25:00+02:00</time>
      </trkpt>
      <trkpt lat="46.49216" lon="4.91705">
        <ele>169.10059</ele>
        <time>2026-05-13T16:25:01+02:00</time>
      </trkpt>
      <trkpt lat="46.4922" lon="4.91711">
        <ele>169.10059</ele>
        <time>2026-05-13T16:25:02+02:00</time>
      </trkpt>
      <trkpt lat="46.49225" lon="4.91717">
        <ele>169.10059</ele>
        <time>2026-05-13T16:25:03+02:00</time>
      </trkpt>
      <trkpt lat="46.49228" lon="4.91724">
        <ele>169.10059</ele>
        <time>2026-05-13T16:25:04+02:00</time>
      </trkpt>
      <trkpt lat="46.49233" lon="4.9173">
        <ele>169.10059</ele>
        <time>2026-05-13T16:25:05+02:00</time>
      </trkpt>
      <trkpt lat="46.49238" lon="4.91735">
        <ele>169.10059</ele>
        <time>2026-05-13T16:25:06+02:00</time>
      </trkpt>
      <trkpt lat="46.49242" lon="4.91741">
        <ele>169.10059</ele>
        <time>2026-05-13T16:25:07+02:00</time>
      </trkpt>
      <trkpt lat="46.49246" lon="4.91747">
        <ele>169.10059</ele>
        <time>2026-05-13T16:25:08+02:00</time>
      </trkpt>
      <trkpt lat="46.49251" lon="4.91752">
        <ele>169.10059</ele>
        <time>2026-05-13T16:25:09+02:00</time>
      </trkpt>
      <trkpt lat="46.49256" lon="4.91758">
        <ele>169.10059</ele>
        <time>2026-05-13T16:25:10+02:00</time>
      </trkpt>
      <trkpt lat="46.4926" lon="4.91763">
        <ele>169.10059</ele>
        <time>2026-05-13T16:25:11+02:00</time>
      </trkpt>
      <trkpt lat="46.49264" lon="4.91769">
        <ele>169.10059</ele>
        <time>2026-05-13T16:25:12+02:00</time>
      </trkpt>
      <trkpt lat="46.49271" lon="4.91777">
        <ele>169.10059</ele>
        <time>2026-05-13T16:25:13+02:00</time>
      </trkpt>
      <trkpt lat="46.49273" lon="4.9178">
        <ele>169.10059</ele>
        <time>2026-05-13T16:25:14+02:00</time>
      </trkpt>
      <trkpt lat="46.49277" lon="4.91786">
        <ele>169.10059</ele>
        <time>2026-05-13T16:25:15+02:00</time>
      </trkpt>
      <trkpt lat="46.49284" lon="4.91794">
        <ele>169.10059</ele>
        <time>2026-05-13T16:25:16+02:00</time>
      </trkpt>
      <trkpt lat="46.49286" lon="4.91797">
        <ele>169.10059</ele>
        <time>2026-05-13T16:25:17+02:00</time>
      </trkpt>
      <trkpt lat="46.4929" lon="4.91802">
        <ele>169.10059</ele>
        <time>2026-05-13T16:25:18+02:00</time>
      </trkpt>
      <trkpt lat="46.49294" lon="4.91808">
        <ele>169.10059</ele>
        <time>2026-05-13T16:25:19+02:00</time>
      </trkpt>
      <trkpt lat="46.49301" lon="4.91817">
        <ele>169.10059</ele>
        <time>2026-05-13T16:25:20+02:00</time>
      </trkpt>
      <trkpt lat="46.49302" lon="4.9182">
        <ele>169.10059</ele>
        <time>2026-05-13T16:25:21+02:00</time>
      </trkpt>
      <trkpt lat="46.49307" lon="4.91826">
        <ele>169.10059</ele>
        <time>2026-05-13T16:25:22+02:00</time>
      </trkpt>
      <trkpt lat="46.49311" lon="4.91832">
        <ele>169.10059</ele>
        <time>2026-05-13T16:25:23+02:00</time>
      </trkpt>
      <trkpt lat="46.49315" lon="4.91838">
        <ele>169.10059</ele>
        <time>2026-05-13T16:25:24+02:00</time>
      </trkpt>
      <trkpt lat="46.4932" lon="4.91844">
        <ele>169.10059</ele>
        <time>2026-05-13T16:25:25+02:00</time>
      </trkpt>
      <trkpt lat="46.49325" lon="4.9185">
        <ele>169.10059</ele>
        <time>2026-05-13T16:25:26+02:00</time>
      </trkpt>
      <trkpt lat="46.49331" lon="4.91859">
        <ele>169.10059</ele>
        <time>2026-05-13T16:25:27+02:00</time>
      </trkpt>
      <trkpt lat="46.49333" lon="4.91862">
        <ele>169.10059</ele>
        <time>2026-05-13T16:25:28+02:00</time>
      </trkpt>
      <trkpt lat="46.49338" lon="4.91868">
        <ele>169.10059</ele>
        <time>2026-05-13T16:25:29+02:00</time>
      </trkpt>
      <trkpt lat="46.49342" lon="4.91874">
        <ele>169.10059</ele>
        <time>2026-05-13T16:25:30+02:00</time>
      </trkpt>
      <trkpt lat="46.49347" lon="4.9188">
        <ele>169.10059</ele>
        <time>2026-05-13T16:25:31+02:00</time>
      </trkpt>
      <trkpt lat="46.49351" lon="4.91886">
        <ele>169.10059</ele>
        <time>2026-05-13T16:25:32+02:00</time>
      </trkpt>
      <trkpt lat="46.49356" lon="4.91892">
        <ele>169.10059</ele>
        <time>2026-05-13T16:25:33+02:00</time>
      </trkpt>
      <trkpt lat="46.49361" lon="4.91898">
        <ele>169.10059</ele>
        <time>2026-05-13T16:25:34+02:00</time>
      </trkpt>
      <trkpt lat="46.49365" lon="4.91904">
        <ele>169.10059</ele>
        <time>2026-05-13T16:25:35+02:00</time>
      </trkpt>
      <trkpt lat="46.4937" lon="4.9191">
        <ele>169.10059</ele>
        <time>2026-05-13T16:25:36+02:00</time>
      </trkpt>
      <trkpt lat="46.49375" lon="4.91916">
        <ele>169.10059</ele>
        <time>2026-05-13T16:25:37+02:00</time>
      </trkpt>
      <trkpt lat="46.49379" lon="4.91922">
        <ele>169.10059</ele>
        <time>2026-05-13T16:25:38+02:00</time>
      </trkpt>
      <trkpt lat="46.49384" lon="4.91928">
        <ele>169.10059</ele>
        <time>2026-05-13T16:25:39+02:00</time>
      </trkpt>
      <trkpt lat="46.49388" lon="4.91934">
        <ele>169.10059</ele>
        <time>2026-05-13T16:25:40+02:00</time>
      </trkpt>
      <trkpt lat="46.49393" lon="4.9194">
        <ele>169.10059</ele>
        <time>2026-05-13T16:25:41+02:00</time>
      </trkpt>
      <trkpt lat="46.49397" lon="4.91947">
        <ele>169.10059</ele>
        <time>2026-05-13T16:25:42+02:00</time>
      </trkpt>
      <trkpt lat="46.49402" lon="4.91953">
        <ele>169.10059</ele>
        <time>2026-05-13T16:25:43+02:00</time>
      </trkpt>
      <trkpt lat="46.49405" lon="4.9196">
        <ele>169.10059</ele>
        <time>2026-05-13T16:25:44+02:00</time>
      </trkpt>
      <trkpt lat="46.4941" lon="4.91967">
        <ele>169.10059</ele>
        <time>2026-05-13T16:25:45+02:00</time>
      </trkpt>
      <trkpt lat="46.49413" lon="4.91974">
        <ele>169.10059</ele>
        <time>2026-05-13T16:25:46+02:00</time>
      </trkpt>
      <trkpt lat="46.49418" lon="4.91981">
        <ele>169.10059</ele>
        <time>2026-05-13T16:25:47+02:00</time>
      </trkpt>
      <trkpt lat="46.49422" lon="4.91988">
        <ele>169.10059</ele>
        <time>2026-05-13T16:25:48+02:00</time>
      </trkpt>
      <trkpt lat="46.49428" lon="4.91998">
        <ele>169.10059</ele>
        <time>2026-05-13T16:25:49+02:00</time>
      </trkpt>
      <trkpt lat="46.49431" lon="4.92002">
        <ele>169.10059</ele>
        <time>2026-05-13T16:25:50+02:00</time>
      </trkpt>
      <trkpt lat="46.49434" lon="4.92009">
        <ele>169.10059</ele>
        <time>2026-05-13T16:25:51+02:00</time>
      </trkpt>
      <trkpt lat="46.49439" lon="4.92015">
        <ele>169.10059</ele>
        <time>2026-05-13T16:25:52+02:00</time>
      </trkpt>
      <trkpt lat="46.49445" lon="4.92026">
        <ele>169.10059</ele>
        <time>2026-05-13T16:25:53+02:00</time>
      </trkpt>
      <trkpt lat="46.49448" lon="4.92029">
        <ele>169.10059</ele>
        <time>2026-05-13T16:25:54+02:00</time>
      </trkpt>
      <trkpt lat="46.49452" lon="4.92036">
        <ele>169.10059</ele>
        <time>2026-05-13T16:25:55+02:00</time>
      </trkpt>
      <trkpt lat="46.49458" lon="4.92046">
        <ele>169.10059</ele>
        <time>2026-05-13T16:25:56+02:00</time>
      </trkpt>
      <trkpt lat="46.49461" lon="4.9205">
        <ele>169.10059</ele>
        <time>2026-05-13T16:25:57+02:00</time>
      </trkpt>
      <trkpt lat="46.49465" lon="4.92057">
        <ele>169.10059</ele>
        <time>2026-05-13T16:25:58+02:00</time>
      </trkpt>
      <trkpt lat="46.49472" lon="4.92067">
        <ele>169.10059</ele>
        <time>2026-05-13T16:25:59+02:00</time>
      </trkpt>
      <trkpt lat="46.49474" lon="4.92071">
        <ele>169.10059</ele>
        <time>2026-05-13T16:26:00+02:00</time>
      </trkpt>
      <trkpt lat="46.49478" lon="4.92078">
        <ele>169.10059</ele>
        <time>2026-05-13T16:26:01+02:00</time>
      </trkpt>
      <trkpt lat="46.49483" lon="4.92086">
        <ele>169.10059</ele>
        <time>2026-05-13T16:26:02+02:00</time>
      </trkpt>
      <trkpt lat="46.49487" lon="4.92093">
        <ele>169.10059</ele>
        <time>2026-05-13T16:26:03+02:00</time>
      </trkpt>
      <trkpt lat="46.49491" lon="4.921">
        <ele>169.10059</ele>
        <time>2026-05-13T16:26:04+02:00</time>
      </trkpt>
      <trkpt lat="46.49496" lon="4.92107">
        <ele>169.10059</ele>
        <time>2026-05-13T16:26:05+02:00</time>
      </trkpt>
      <trkpt lat="46.495" lon="4.92115">
        <ele>169.10059</ele>
        <time>2026-05-13T16:26:06+02:00</time>
      </trkpt>
      <trkpt lat="46.49505" lon="4.92122">
        <ele>169.10059</ele>
        <time>2026-05-13T16:26:07+02:00</time>
      </trkpt>
      <trkpt lat="46.49512" lon="4.92133">
        <ele>169.10059</ele>
        <time>2026-05-13T16:26:08+02:00</time>
      </trkpt>
      <trkpt lat="46.49514" lon="4.92136">
        <ele>169.10059</ele>
        <time>2026-05-13T16:26:09+02:00</time>
      </trkpt>
      <trkpt lat="46.49518" lon="4.92144">
        <ele>169.10059</ele>
        <time>2026-05-13T16:26:10+02:00</time>
      </trkpt>
      <trkpt lat="46.49523" lon="4.92151">
        <ele>169.10059</ele>
        <time>2026-05-13T16:26:11+02:00</time>
      </trkpt>
      <trkpt lat="46.49527" lon="4.92158">
        <ele>169.10059</ele>
        <time>2026-05-13T16:26:12+02:00</time>
      </trkpt>
      <trkpt lat="46.49531" lon="4.92166">
        <ele>169.10059</ele>
        <time>2026-05-13T16:26:13+02:00</time>
      </trkpt>
      <trkpt lat="46.49536" lon="4.92174">
        <ele>169.10059</ele>
        <time>2026-05-13T16:26:14+02:00</time>
      </trkpt>
      <trkpt lat="46.4954" lon="4.92182">
        <ele>169.10059</ele>
        <time>2026-05-13T16:26:15+02:00</time>
      </trkpt>
      <trkpt lat="46.49544" lon="4.9219">
        <ele>169.10059</ele>
        <time>2026-05-13T16:26:16+02:00</time>
      </trkpt>
      <trkpt lat="46.49548" lon="4.92198">
        <ele>169.10059</ele>
        <time>2026-05-13T16:26:17+02:00</time>
      </trkpt>
      <trkpt lat="46.49555" lon="4.92209">
        <ele>169.10059</ele>
        <time>2026-05-13T16:26:18+02:00</time>
      </trkpt>
      <trkpt lat="46.49556" lon="4.92213">
        <ele>169.10059</ele>
        <time>2026-05-13T16:26:19+02:00</time>
      </trkpt>
      <trkpt lat="46.49561" lon="4.9222">
        <ele>169.10059</ele>
        <time>2026-05-13T16:26:20+02:00</time>
      </trkpt>
      <trkpt lat="46.49564" lon="4.92227">
        <ele>169.10059</ele>
        <time>2026-05-13T16:26:21+02:00</time>
      </trkpt>
      <trkpt lat="46.49569" lon="4.92235">
        <ele>169.10059</ele>
        <time>2026-05-13T16:26:22+02:00</time>
      </trkpt>
      <trkpt lat="46.49573" lon="4.92242">
        <ele>169.10059</ele>
        <time>2026-05-13T16:26:23+02:00</time>
      </trkpt>
      <trkpt lat="46.49577" lon="4.92249">
        <ele>169.10059</ele>
        <time>2026-05-13T16:26:24+02:00</time>
      </trkpt>
      <trkpt lat="46.49582" lon="4.92256">
        <ele>169.10059</ele>
        <time>2026-05-13T16:26:25+02:00</time>
      </trkpt>
      <trkpt lat="46.49586" lon="4.92264">
        <ele>169.10059</ele>
        <time>2026-05-13T16:26:26+02:00</time>
      </trkpt>
      <trkpt lat="46.49591" lon="4.92271">
        <ele>169.10059</ele>
        <time>2026-05-13T16:26:27+02:00</time>
      </trkpt>
      <trkpt lat="46.49595" lon="4.92278">
        <ele>169.10059</ele>
        <time>2026-05-13T16:26:28+02:00</time>
      </trkpt>
      <trkpt lat="46.496" lon="4.92285">
        <ele>169.10059</ele>
        <time>2026-05-13T16:26:29+02:00</time>
      </trkpt>
      <trkpt lat="46.49605" lon="4.92292">
        <ele>169.10059</ele>
        <time>2026-05-13T16:26:30+02:00</time>
      </trkpt>
      <trkpt lat="46.49613" lon="4.92302">
        <ele>169.10059</ele>
        <time>2026-05-13T16:26:31+02:00</time>
      </trkpt>
      <trkpt lat="46.49615" lon="4.92306">
        <ele>169.10059</ele>
        <time>2026-05-13T16:26:32+02:00</time>
      </trkpt>
      <trkpt lat="46.4962" lon="4.92313">
        <ele>169.10059</ele>
        <time>2026-05-13T16:26:33+02:00</time>
      </trkpt>
      <trkpt lat="46.49625" lon="4.9232">
        <ele>168.90039</ele>
        <time>2026-05-13T16:26:34+02:00</time>
      </trkpt>
      <trkpt lat="46.49633" lon="4.92329">
        <ele>168.90039</ele>
        <time>2026-05-13T16:26:35+02:00</time>
      </trkpt>
      <trkpt lat="46.49636" lon="4.92333">
        <ele>168.90039</ele>
        <time>2026-05-13T16:26:36+02:00</time>
      </trkpt>
      <trkpt lat="46.49641" lon="4.92339">
        <ele>169.10059</ele>
        <time>2026-05-13T16:26:37+02:00</time>
      </trkpt>
      <trkpt lat="46.49649" lon="4.92349">
        <ele>168.90039</ele>
        <time>2026-05-13T16:26:38+02:00</time>
      </trkpt>
      <trkpt lat="46.49651" lon="4.92352">
        <ele>168.5</ele>
        <time>2026-05-13T16:26:39+02:00</time>
      </trkpt>
      <trkpt lat="46.49657" lon="4.92358">
        <ele>168.2998</ele>
        <time>2026-05-13T16:26:40+02:00</time>
      </trkpt>
      <trkpt lat="46.49662" lon="4.92365">
        <ele>168.7998</ele>
        <time>2026-05-13T16:26:41+02:00</time>
      </trkpt>
      <trkpt lat="46.49667" lon="4.92371">
        <ele>169</ele>
        <time>2026-05-13T16:26:42+02:00</time>
      </trkpt>
      <trkpt lat="46.49672" lon="4.92378">
        <ele>169.10059</ele>
        <time>2026-05-13T16:26:43+02:00</time>
      </trkpt>
      <trkpt lat="46.49677" lon="4.92383">
        <ele>168.90039</ele>
        <time>2026-05-13T16:26:44+02:00</time>
      </trkpt>
      <trkpt lat="46.49682" lon="4.92389">
        <ele>168.60059</ele>
        <time>2026-05-13T16:26:45+02:00</time>
      </trkpt>
      <trkpt lat="46.49688" lon="4.92395">
        <ele>168.7998</ele>
        <time>2026-05-13T16:26:46+02:00</time>
      </trkpt>
      <trkpt lat="46.49693" lon="4.924">
        <ele>168.7998</ele>
        <time>2026-05-13T16:26:47+02:00</time>
      </trkpt>
      <trkpt lat="46.49699" lon="4.92405">
        <ele>169.10059</ele>
        <time>2026-05-13T16:26:48+02:00</time>
      </trkpt>
      <trkpt lat="46.49708" lon="4.92413">
        <ele>169.10059</ele>
        <time>2026-05-13T16:26:49+02:00</time>
      </trkpt>
      <trkpt lat="46.4971" lon="4.92415">
        <ele>169.10059</ele>
        <time>2026-05-13T16:26:50+02:00</time>
      </trkpt>
      <trkpt lat="46.49716" lon="4.9242">
        <ele>169.10059</ele>
        <time>2026-05-13T16:26:51+02:00</time>
      </trkpt>
      <trkpt lat="46.49722" lon="4.92425">
        <ele>169</ele>
        <time>2026-05-13T16:26:52+02:00</time>
      </trkpt>
      <trkpt lat="46.49727" lon="4.9243">
        <ele>169.10059</ele>
        <time>2026-05-13T16:26:53+02:00</time>
      </trkpt>
      <trkpt lat="46.49733" lon="4.92434">
        <ele>169.10059</ele>
        <time>2026-05-13T16:26:54+02:00</time>
      </trkpt>
      <trkpt lat="46.49739" lon="4.92438">
        <ele>169.10059</ele>
        <time>2026-05-13T16:26:55+02:00</time>
      </trkpt>
      <trkpt lat="46.49745" lon="4.92442">
        <ele>169</ele>
        <time>2026-05-13T16:26:56+02:00</time>
      </trkpt>
      <trkpt lat="46.4975" lon="4.92446">
        <ele>169</ele>
        <time>2026-05-13T16:26:57+02:00</time>
      </trkpt>
      <trkpt lat="46.49756" lon="4.9245">
        <ele>168.90039</ele>
        <time>2026-05-13T16:26:58+02:00</time>
      </trkpt>
      <trkpt lat="46.49762" lon="4.92454">
        <ele>169</ele>
        <time>2026-05-13T16:26:59+02:00</time>
      </trkpt>
      <trkpt lat="46.49767" lon="4.92457">
        <ele>169</ele>
        <time>2026-05-13T16:27:00+02:00</time>
      </trkpt>
      <trkpt lat="46.49773" lon="4.92461">
        <ele>169</ele>
        <time>2026-05-13T16:27:01+02:00</time>
      </trkpt>
      <trkpt lat="46.49782" lon="4.92466">
        <ele>169.10059</ele>
        <time>2026-05-13T16:27:02+02:00</time>
      </trkpt>
      <trkpt lat="46.49785" lon="4.92468">
        <ele>169.10059</ele>
        <time>2026-05-13T16:27:03+02:00</time>
      </trkpt>
      <trkpt lat="46.49791" lon="4.92471">
        <ele>169.10059</ele>
        <time>2026-05-13T16:27:04+02:00</time>
      </trkpt>
      <trkpt lat="46.49801" lon="4.92476">
        <ele>169</ele>
        <time>2026-05-13T16:27:05+02:00</time>
      </trkpt>
      <trkpt lat="46.49804" lon="4.92478">
        <ele>169</ele>
        <time>2026-05-13T16:27:06+02:00</time>
      </trkpt>
      <trkpt lat="46.4981" lon="4.92481">
        <ele>169.10059</ele>
        <time>2026-05-13T16:27:07+02:00</time>
      </trkpt>
      <trkpt lat="46.49817" lon="4.92484">
        <ele>169.2002</ele>
        <time>2026-05-13T16:27:08+02:00</time>
      </trkpt>
      <trkpt lat="46.49823" lon="4.92487">
        <ele>169.2998</ele>
        <time>2026-05-13T16:27:09+02:00</time>
      </trkpt>
      <trkpt lat="46.49829" lon="4.92491">
        <ele>169.10059</ele>
        <time>2026-05-13T16:27:10+02:00</time>
      </trkpt>
      <trkpt lat="46.49835" lon="4.92494">
        <ele>169.10059</ele>
        <time>2026-05-13T16:27:11+02:00</time>
      </trkpt>
      <trkpt lat="46.49845" lon="4.92499">
        <ele>169</ele>
        <time>2026-05-13T16:27:12+02:00</time>
      </trkpt>
      <trkpt lat="46.49848" lon="4.92501">
        <ele>169</ele>
        <time>2026-05-13T16:27:13+02:00</time>
      </trkpt>
      <trkpt lat="46.49854" lon="4.92504">
        <ele>169</ele>
        <time>2026-05-13T16:27:14+02:00</time>
      </trkpt>
      <trkpt lat="46.4986" lon="4.92507">
        <ele>169</ele>
        <time>2026-05-13T16:27:15+02:00</time>
      </trkpt>
      <trkpt lat="46.4987" lon="4.92513">
        <ele>169</ele>
        <time>2026-05-13T16:27:16+02:00</time>
      </trkpt>
      <trkpt lat="46.49873" lon="4.92514">
        <ele>169.10059</ele>
        <time>2026-05-13T16:27:17+02:00</time>
      </trkpt>
      <trkpt lat="46.49879" lon="4.92518">
        <ele>169.10059</ele>
        <time>2026-05-13T16:27:18+02:00</time>
      </trkpt>
      <trkpt lat="46.49885" lon="4.92521">
        <ele>169.10059</ele>
        <time>2026-05-13T16:27:19+02:00</time>
      </trkpt>
      <trkpt lat="46.49891" lon="4.92525">
        <ele>169.10059</ele>
        <time>2026-05-13T16:27:20+02:00</time>
      </trkpt>
      <trkpt lat="46.49898" lon="4.92529">
        <ele>169</ele>
        <time>2026-05-13T16:27:21+02:00</time>
      </trkpt>
      <trkpt lat="46.49904" lon="4.92533">
        <ele>169</ele>
        <time>2026-05-13T16:27:22+02:00</time>
      </trkpt>
      <trkpt lat="46.4991" lon="4.92536">
        <ele>169</ele>
        <time>2026-05-13T16:27:23+02:00</time>
      </trkpt>
      <trkpt lat="46.49917" lon="4.9254">
        <ele>169.10059</ele>
        <time>2026-05-13T16:27:24+02:00</time>
      </trkpt>
      <trkpt lat="46.49923" lon="4.92543">
        <ele>169.10059</ele>
        <time>2026-05-13T16:27:25+02:00</time>
      </trkpt>
      <trkpt lat="46.49929" lon="4.92547">
        <ele>169.10059</ele>
        <time>2026-05-13T16:27:26+02:00</time>
      </trkpt>
      <trkpt lat="46.49935" lon="4.9255">
        <ele>169.10059</ele>
        <time>2026-05-13T16:27:27+02:00</time>
      </trkpt>
      <trkpt lat="46.49941" lon="4.92554">
        <ele>169.10059</ele>
        <time>2026-05-13T16:27:28+02:00</time>
      </trkpt>
      <trkpt lat="46.49948" lon="4.92558">
        <ele>169.10059</ele>
        <time>2026-05-13T16:27:29+02:00</time>
      </trkpt>
      <trkpt lat="46.49954" lon="4.92562">
        <ele>169.10059</ele>
        <time>2026-05-13T16:27:30+02:00</time>
      </trkpt>
      <trkpt lat="46.4996" lon="4.92565">
        <ele>169.10059</ele>
        <time>2026-05-13T16:27:31+02:00</time>
      </trkpt>
      <trkpt lat="46.4997" lon="4.92571">
        <ele>169.10059</ele>
        <time>2026-05-13T16:27:32+02:00</time>
      </trkpt>
      <trkpt lat="46.49973" lon="4.92573">
        <ele>169.10059</ele>
        <time>2026-05-13T16:27:33+02:00</time>
      </trkpt>
      <trkpt lat="46.4998" lon="4.92576">
        <ele>169.10059</ele>
        <time>2026-05-13T16:27:34+02:00</time>
      </trkpt>
      <trkpt lat="46.49989" lon="4.92582">
        <ele>169.10059</ele>
        <time>2026-05-13T16:27:35+02:00</time>
      </trkpt>
      <trkpt lat="46.49993" lon="4.92584">
        <ele>169.10059</ele>
        <time>2026-05-13T16:27:36+02:00</time>
      </trkpt>
      <trkpt lat="46.49999" lon="4.92587">
        <ele>169.10059</ele>
        <time>2026-05-13T16:27:37+02:00</time>
      </trkpt>
      <trkpt lat="46.50006" lon="4.9259">
        <ele>169.10059</ele>
        <time>2026-05-13T16:27:38+02:00</time>
      </trkpt>
      <trkpt lat="46.50012" lon="4.92594">
        <ele>169.10059</ele>
        <time>2026-05-13T16:27:39+02:00</time>
      </trkpt>
      <trkpt lat="46.50019" lon="4.92596">
        <ele>169.10059</ele>
        <time>2026-05-13T16:27:40+02:00</time>
      </trkpt>
      <trkpt lat="46.50026" lon="4.92599">
        <ele>169.10059</ele>
        <time>2026-05-13T16:27:41+02:00</time>
      </trkpt>
      <trkpt lat="46.50036" lon="4.92602">
        <ele>169.10059</ele>
        <time>2026-05-13T16:27:42+02:00</time>
      </trkpt>
      <trkpt lat="46.50039" lon="4.92603">
        <ele>169.10059</ele>
        <time>2026-05-13T16:27:43+02:00</time>
      </trkpt>
      <trkpt lat="46.50046" lon="4.92605">
        <ele>169.10059</ele>
        <time>2026-05-13T16:27:44+02:00</time>
      </trkpt>
      <trkpt lat="46.50052" lon="4.92607">
        <ele>169.10059</ele>
        <time>2026-05-13T16:27:45+02:00</time>
      </trkpt>
      <trkpt lat="46.50059" lon="4.92608">
        <ele>169.10059</ele>
        <time>2026-05-13T16:27:46+02:00</time>
      </trkpt>
      <trkpt lat="46.50066" lon="4.92609">
        <ele>169.10059</ele>
        <time>2026-05-13T16:27:47+02:00</time>
      </trkpt>
      <trkpt lat="46.50072" lon="4.92611">
        <ele>169.10059</ele>
        <time>2026-05-13T16:27:48+02:00</time>
      </trkpt>
      <trkpt lat="46.50083" lon="4.92613">
        <ele>169.10059</ele>
        <time>2026-05-13T16:27:49+02:00</time>
      </trkpt>
      <trkpt lat="46.50086" lon="4.92613">
        <ele>169.10059</ele>
        <time>2026-05-13T16:27:50+02:00</time>
      </trkpt>
      <trkpt lat="46.50092" lon="4.92614">
        <ele>169.10059</ele>
        <time>2026-05-13T16:27:51+02:00</time>
      </trkpt>
      <trkpt lat="46.50099" lon="4.92615">
        <ele>169.10059</ele>
        <time>2026-05-13T16:27:52+02:00</time>
      </trkpt>
      <trkpt lat="46.50105" lon="4.92615">
        <ele>169.10059</ele>
        <time>2026-05-13T16:27:53+02:00</time>
      </trkpt>
      <trkpt lat="46.50112" lon="4.92615">
        <ele>169.10059</ele>
        <time>2026-05-13T16:27:54+02:00</time>
      </trkpt>
      <trkpt lat="46.50119" lon="4.92616">
        <ele>169.10059</ele>
        <time>2026-05-13T16:27:55+02:00</time>
      </trkpt>
      <trkpt lat="46.50125" lon="4.92616">
        <ele>169.10059</ele>
        <time>2026-05-13T16:27:56+02:00</time>
      </trkpt>
      <trkpt lat="46.50131" lon="4.92616">
        <ele>169.10059</ele>
        <time>2026-05-13T16:27:57+02:00</time>
      </trkpt>
      <trkpt lat="46.50137" lon="4.92617">
        <ele>169.10059</ele>
        <time>2026-05-13T16:27:58+02:00</time>
      </trkpt>
      <trkpt lat="46.50143" lon="4.92617">
        <ele>169.10059</ele>
        <time>2026-05-13T16:27:59+02:00</time>
      </trkpt>
      <trkpt lat="46.50148" lon="4.92617">
        <ele>169.10059</ele>
        <time>2026-05-13T16:28:00+02:00</time>
      </trkpt>
      <trkpt lat="46.50154" lon="4.92617">
        <ele>169.10059</ele>
        <time>2026-05-13T16:28:01+02:00</time>
      </trkpt>
      <trkpt lat="46.50162" lon="4.92617">
        <ele>169.10059</ele>
        <time>2026-05-13T16:28:02+02:00</time>
      </trkpt>
      <trkpt lat="46.50165" lon="4.92617">
        <ele>169.10059</ele>
        <time>2026-05-13T16:28:03+02:00</time>
      </trkpt>
      <trkpt lat="46.5017" lon="4.92617">
        <ele>169.10059</ele>
        <time>2026-05-13T16:28:04+02:00</time>
      </trkpt>
      <trkpt lat="46.50176" lon="4.92618">
        <ele>169.10059</ele>
        <time>2026-05-13T16:28:05+02:00</time>
      </trkpt>
      <trkpt lat="46.50181" lon="4.92618">
        <ele>169.10059</ele>
        <time>2026-05-13T16:28:06+02:00</time>
      </trkpt>
      <trkpt lat="46.50186" lon="4.92618">
        <ele>169.10059</ele>
        <time>2026-05-13T16:28:07+02:00</time>
      </trkpt>
      <trkpt lat="46.5019" lon="4.92618">
        <ele>169.10059</ele>
        <time>2026-05-13T16:28:08+02:00</time>
      </trkpt>
      <trkpt lat="46.50195" lon="4.92619">
        <ele>169.10059</ele>
        <time>2026-05-13T16:28:09+02:00</time>
      </trkpt>
      <trkpt lat="46.502" lon="4.92619">
        <ele>169</ele>
        <time>2026-05-13T16:28:10+02:00</time>
      </trkpt>
      <trkpt lat="46.50205" lon="4.9262">
        <ele>169</ele>
        <time>2026-05-13T16:28:11+02:00</time>
      </trkpt>
      <trkpt lat="46.50211" lon="4.9262">
        <ele>169</ele>
        <time>2026-05-13T16:28:12+02:00</time>
      </trkpt>
      <trkpt lat="46.50219" lon="4.92622">
        <ele>169.10059</ele>
        <time>2026-05-13T16:28:13+02:00</time>
      </trkpt>
      <trkpt lat="46.50221" lon="4.92622">
        <ele>169.10059</ele>
        <time>2026-05-13T16:28:14+02:00</time>
      </trkpt>
      <trkpt lat="46.50227" lon="4.92624">
        <ele>169.40039</ele>
        <time>2026-05-13T16:28:15+02:00</time>
      </trkpt>
      <trkpt lat="46.50232" lon="4.92626">
        <ele>169.5</ele>
        <time>2026-05-13T16:28:16+02:00</time>
      </trkpt>
      <trkpt lat="46.5024" lon="4.92629">
        <ele>169.7998</ele>
        <time>2026-05-13T16:28:17+02:00</time>
      </trkpt>
      <trkpt lat="46.50243" lon="4.9263">
        <ele>170.2002</ele>
        <time>2026-05-13T16:28:18+02:00</time>
      </trkpt>
      <trkpt lat="46.50248" lon="4.92633">
        <ele>170.7002</ele>
        <time>2026-05-13T16:28:19+02:00</time>
      </trkpt>
      <trkpt lat="46.50253" lon="4.92635">
        <ele>170.7002</ele>
        <time>2026-05-13T16:28:20+02:00</time>
      </trkpt>
      <trkpt lat="46.50258" lon="4.92638">
        <ele>170.7002</ele>
        <time>2026-05-13T16:28:21+02:00</time>
      </trkpt>
      <trkpt lat="46.50263" lon="4.92641">
        <ele>171.2002</ele>
        <time>2026-05-13T16:28:22+02:00</time>
      </trkpt>
      <trkpt lat="46.50269" lon="4.92644">
        <ele>171.10059</ele>
        <time>2026-05-13T16:28:23+02:00</time>
      </trkpt>
      <trkpt lat="46.50274" lon="4.92647">
        <ele>171.40039</ele>
        <time>2026-05-13T16:28:24+02:00</time>
      </trkpt>
      <trkpt lat="46.50279" lon="4.9265">
        <ele>171.7002</ele>
        <time>2026-05-13T16:28:25+02:00</time>
      </trkpt>
      <trkpt lat="46.50284" lon="4.92653">
        <ele>171</ele>
        <time>2026-05-13T16:28:26+02:00</time>
      </trkpt>
      <trkpt lat="46.50289" lon="4.92656">
        <ele>171.10059</ele>
        <time>2026-05-13T16:28:27+02:00</time>
      </trkpt>
      <trkpt lat="46.50294" lon="4.92659">
        <ele>171.10059</ele>
        <time>2026-05-13T16:28:28+02:00</time>
      </trkpt>
      <trkpt lat="46.50299" lon="4.92662">
        <ele>170.10059</ele>
        <time>2026-05-13T16:28:29+02:00</time>
      </trkpt>
      <trkpt lat="46.50304" lon="4.92665">
        <ele>170.2002</ele>
        <time>2026-05-13T16:28:30+02:00</time>
      </trkpt>
      <trkpt lat="46.50312" lon="4.9267">
        <ele>170.10059</ele>
        <time>2026-05-13T16:28:31+02:00</time>
      </trkpt>
      <trkpt lat="46.50314" lon="4.92671">
        <ele>170.10059</ele>
        <time>2026-05-13T16:28:32+02:00</time>
      </trkpt>
      <trkpt lat="46.5032" lon="4.92675">
        <ele>170.7002</ele>
        <time>2026-05-13T16:28:33+02:00</time>
      </trkpt>
      <trkpt lat="46.50325" lon="4.92678">
        <ele>170.7998</ele>
        <time>2026-05-13T16:28:34+02:00</time>
      </trkpt>
      <trkpt lat="46.5033" lon="4.92681">
        <ele>171.2998</ele>
        <time>2026-05-13T16:28:35+02:00</time>
      </trkpt>
      <trkpt lat="46.50335" lon="4.92683">
        <ele>171.2998</ele>
        <time>2026-05-13T16:28:36+02:00</time>
      </trkpt>
      <trkpt lat="46.5034" lon="4.92686">
        <ele>170.7998</ele>
        <time>2026-05-13T16:28:37+02:00</time>
      </trkpt>
      <trkpt lat="46.50348" lon="4.92688">
        <ele>172.10059</ele>
        <time>2026-05-13T16:28:38+02:00</time>
      </trkpt>
      <trkpt lat="46.5035" lon="4.92689">
        <ele>172.10059</ele>
        <time>2026-05-13T16:28:39+02:00</time>
      </trkpt>
      <trkpt lat="46.50355" lon="4.9269">
        <ele>172.5</ele>
        <time>2026-05-13T16:28:40+02:00</time>
      </trkpt>
      <trkpt lat="46.50363" lon="4.92693">
        <ele>172.60059</ele>
        <time>2026-05-13T16:28:41+02:00</time>
      </trkpt>
      <trkpt lat="46.50366" lon="4.92694">
        <ele>172.2998</ele>
        <time>2026-05-13T16:28:42+02:00</time>
      </trkpt>
      <trkpt lat="46.50371" lon="4.92696">
        <ele>172.2998</ele>
        <time>2026-05-13T16:28:43+02:00</time>
      </trkpt>
      <trkpt lat="46.50375" lon="4.92699">
        <ele>172.2998</ele>
        <time>2026-05-13T16:28:44+02:00</time>
      </trkpt>
      <trkpt lat="46.5038" lon="4.92703">
        <ele>172</ele>
        <time>2026-05-13T16:28:45+02:00</time>
      </trkpt>
      <trkpt lat="46.50384" lon="4.92706">
        <ele>172.2998</ele>
        <time>2026-05-13T16:28:46+02:00</time>
      </trkpt>
      <trkpt lat="46.50389" lon="4.92711">
        <ele>172.7998</ele>
        <time>2026-05-13T16:28:47+02:00</time>
      </trkpt>
      <trkpt lat="46.50396" lon="4.92716">
        <ele>172.5</ele>
        <time>2026-05-13T16:28:48+02:00</time>
      </trkpt>
      <trkpt lat="46.50398" lon="4.92717">
        <ele>172.5</ele>
        <time>2026-05-13T16:28:49+02:00</time>
      </trkpt>
      <trkpt lat="46.50403" lon="4.9272">
        <ele>172.10059</ele>
        <time>2026-05-13T16:28:50+02:00</time>
      </trkpt>
      <trkpt lat="46.50407" lon="4.92721">
        <ele>172.40039</ele>
        <time>2026-05-13T16:28:51+02:00</time>
      </trkpt>
      <trkpt lat="46.50413" lon="4.92722">
        <ele>172.7002</ele>
        <time>2026-05-13T16:28:52+02:00</time>
      </trkpt>
      <trkpt lat="46.50415" lon="4.92723">
        <ele>172.7002</ele>
        <time>2026-05-13T16:28:53+02:00</time>
      </trkpt>
      <trkpt lat="46.50418" lon="4.92724">
        <ele>172.7002</ele>
        <time>2026-05-13T16:28:54+02:00</time>
      </trkpt>
      <trkpt lat="46.50422" lon="4.92727">
        <ele>172.90039</ele>
        <time>2026-05-13T16:28:55+02:00</time>
      </trkpt>
      <trkpt lat="46.50425" lon="4.92729">
        <ele>172.7998</ele>
        <time>2026-05-13T16:28:56+02:00</time>
      </trkpt>
      <trkpt lat="46.5043" lon="4.92732">
        <ele>172.7998</ele>
        <time>2026-05-13T16:28:57+02:00</time>
      </trkpt>
      <trkpt lat="46.50433" lon="4.92735">
        <ele>173.10059</ele>
        <time>2026-05-13T16:28:58+02:00</time>
      </trkpt>
      <trkpt lat="46.5044" lon="4.92739">
        <ele>171.60059</ele>
        <time>2026-05-13T16:28:59+02:00</time>
      </trkpt>
      <trkpt lat="46.50442" lon="4.9274">
        <ele>171.7002</ele>
        <time>2026-05-13T16:29:00+02:00</time>
      </trkpt>
      <trkpt lat="46.50447" lon="4.92743">
        <ele>171.7002</ele>
        <time>2026-05-13T16:29:01+02:00</time>
      </trkpt>
      <trkpt lat="46.50451" lon="4.92746">
        <ele>170.10059</ele>
        <time>2026-05-13T16:29:02+02:00</time>
      </trkpt>
      <trkpt lat="46.50456" lon="4.92749">
        <ele>170.60059</ele>
        <time>2026-05-13T16:29:03+02:00</time>
      </trkpt>
      <trkpt lat="46.50461" lon="4.92751">
        <ele>171.60059</ele>
        <time>2026-05-13T16:29:04+02:00</time>
      </trkpt>
      <trkpt lat="46.50465" lon="4.92755">
        <ele>171.2002</ele>
        <time>2026-05-13T16:29:05+02:00</time>
      </trkpt>
      <trkpt lat="46.50469" lon="4.92759">
        <ele>172.40039</ele>
        <time>2026-05-13T16:29:06+02:00</time>
      </trkpt>
      <trkpt lat="46.50474" lon="4.92763">
        <ele>172</ele>
        <time>2026-05-13T16:29:07+02:00</time>
      </trkpt>
      <trkpt lat="46.50478" lon="4.92768">
        <ele>172.10059</ele>
        <time>2026-05-13T16:29:08+02:00</time>
      </trkpt>
      <trkpt lat="46.50482" lon="4.92773">
        <ele>170.60059</ele>
        <time>2026-05-13T16:29:09+02:00</time>
      </trkpt>
      <trkpt lat="46.50486" lon="4.92778">
        <ele>170.5</ele>
        <time>2026-05-13T16:29:10+02:00</time>
      </trkpt>
      <trkpt lat="46.5049" lon="4.92783">
        <ele>169.2998</ele>
        <time>2026-05-13T16:29:11+02:00</time>
      </trkpt>
      <trkpt lat="46.50495" lon="4.92786">
        <ele>169.2002</ele>
        <time>2026-05-13T16:29:12+02:00</time>
      </trkpt>
      <trkpt lat="46.50499" lon="4.92789">
        <ele>168.7998</ele>
        <time>2026-05-13T16:29:13+02:00</time>
      </trkpt>
      <trkpt lat="46.50507" lon="4.92793">
        <ele>168.7002</ele>
        <time>2026-05-13T16:29:14+02:00</time>
      </trkpt>
      <trkpt lat="46.50511" lon="4.92794">
        <ele>168.7002</ele>
        <time>2026-05-13T16:29:15+02:00</time>
      </trkpt>
      <trkpt lat="46.50516" lon="4.92796">
        <ele>168.7002</ele>
        <time>2026-05-13T16:29:16+02:00</time>
      </trkpt>
      <trkpt lat="46.50522" lon="4.92798">
        <ele>169</ele>
        <time>2026-05-13T16:29:17+02:00</time>
      </trkpt>
      <trkpt lat="46.50528" lon="4.92799">
        <ele>169.40039</ele>
        <time>2026-05-13T16:29:18+02:00</time>
      </trkpt>
      <trkpt lat="46.50534" lon="4.92801">
        <ele>169.90039</ele>
        <time>2026-05-13T16:29:19+02:00</time>
      </trkpt>
      <trkpt lat="46.5054" lon="4.92803">
        <ele>170.2998</ele>
        <time>2026-05-13T16:29:20+02:00</time>
      </trkpt>
      <trkpt lat="46.50549" lon="4.92806">
        <ele>169.2998</ele>
        <time>2026-05-13T16:29:21+02:00</time>
      </trkpt>
      <trkpt lat="46.50552" lon="4.92807">
        <ele>169.2998</ele>
        <time>2026-05-13T16:29:22+02:00</time>
      </trkpt>
      <trkpt lat="46.50559" lon="4.92809">
        <ele>169.2002</ele>
        <time>2026-05-13T16:29:23+02:00</time>
      </trkpt>
      <trkpt lat="46.50565" lon="4.92812">
        <ele>169.2002</ele>
        <time>2026-05-13T16:29:24+02:00</time>
      </trkpt>
      <trkpt lat="46.50572" lon="4.92815">
        <ele>169</ele>
        <time>2026-05-13T16:29:25+02:00</time>
      </trkpt>
      <trkpt lat="46.50578" lon="4.92817">
        <ele>169.10059</ele>
        <time>2026-05-13T16:29:26+02:00</time>
      </trkpt>
      <trkpt lat="46.50584" lon="4.9282">
        <ele>169.5</ele>
        <time>2026-05-13T16:29:27+02:00</time>
      </trkpt>
      <trkpt lat="46.50593" lon="4.92823">
        <ele>169.5</ele>
        <time>2026-05-13T16:29:28+02:00</time>
      </trkpt>
      <trkpt lat="46.50596" lon="4.92825">
        <ele>169.90039</ele>
        <time>2026-05-13T16:29:29+02:00</time>
      </trkpt>
      <trkpt lat="46.50602" lon="4.92827">
        <ele>170.40039</ele>
        <time>2026-05-13T16:29:30+02:00</time>
      </trkpt>
      <trkpt lat="46.50609" lon="4.9283">
        <ele>170.60059</ele>
        <time>2026-05-13T16:29:31+02:00</time>
      </trkpt>
      <trkpt lat="46.50618" lon="4.92833">
        <ele>169.40039</ele>
        <time>2026-05-13T16:29:32+02:00</time>
      </trkpt>
      <trkpt lat="46.50621" lon="4.92834">
        <ele>169.2002</ele>
        <time>2026-05-13T16:29:33+02:00</time>
      </trkpt>
      <trkpt lat="46.50627" lon="4.92837">
        <ele>169.10059</ele>
        <time>2026-05-13T16:29:34+02:00</time>
      </trkpt>
      <trkpt lat="46.50636" lon="4.9284">
        <ele>168.90039</ele>
        <time>2026-05-13T16:29:35+02:00</time>
      </trkpt>
      <trkpt lat="46.50639" lon="4.92841">
        <ele>169.2002</ele>
        <time>2026-05-13T16:29:36+02:00</time>
      </trkpt>
      <trkpt lat="46.50646" lon="4.92843">
        <ele>169.90039</ele>
        <time>2026-05-13T16:29:37+02:00</time>
      </trkpt>
      <trkpt lat="46.50652" lon="4.92845">
        <ele>170.7002</ele>
        <time>2026-05-13T16:29:38+02:00</time>
      </trkpt>
      <trkpt lat="46.50658" lon="4.92848">
        <ele>171.10059</ele>
        <time>2026-05-13T16:29:39+02:00</time>
      </trkpt>
      <trkpt lat="46.50664" lon="4.9285">
        <ele>170.2998</ele>
        <time>2026-05-13T16:29:40+02:00</time>
      </trkpt>
      <trkpt lat="46.5067" lon="4.92852">
        <ele>170.2998</ele>
        <time>2026-05-13T16:29:41+02:00</time>
      </trkpt>
      <trkpt lat="46.50679" lon="4.92856">
        <ele>170.2998</ele>
        <time>2026-05-13T16:29:42+02:00</time>
      </trkpt>
      <trkpt lat="46.50682" lon="4.92857">
        <ele>169.40039</ele>
        <time>2026-05-13T16:29:43+02:00</time>
      </trkpt>
      <trkpt lat="46.50688" lon="4.92859">
        <ele>169.2998</ele>
        <time>2026-05-13T16:29:44+02:00</time>
      </trkpt>
      <trkpt lat="46.50694" lon="4.92861">
        <ele>169.2998</ele>
        <time>2026-05-13T16:29:45+02:00</time>
      </trkpt>
      <trkpt lat="46.50701" lon="4.92863">
        <ele>169.2998</ele>
        <time>2026-05-13T16:29:46+02:00</time>
      </trkpt>
      <trkpt lat="46.50707" lon="4.92865">
        <ele>169.2998</ele>
        <time>2026-05-13T16:29:47+02:00</time>
      </trkpt>
      <trkpt lat="46.50713" lon="4.92867">
        <ele>168.90039</ele>
        <time>2026-05-13T16:29:48+02:00</time>
      </trkpt>
      <trkpt lat="46.50722" lon="4.9287">
        <ele>169.2002</ele>
        <time>2026-05-13T16:29:49+02:00</time>
      </trkpt>
      <trkpt lat="46.50725" lon="4.9287">
        <ele>169.2002</ele>
        <time>2026-05-13T16:29:50+02:00</time>
      </trkpt>
      <trkpt lat="46.50732" lon="4.92872">
        <ele>170.10059</ele>
        <time>2026-05-13T16:29:51+02:00</time>
      </trkpt>
      <trkpt lat="46.50741" lon="4.92875">
        <ele>170.10059</ele>
        <time>2026-05-13T16:29:52+02:00</time>
      </trkpt>
      <trkpt lat="46.50744" lon="4.92875">
        <ele>170.40039</ele>
        <time>2026-05-13T16:29:53+02:00</time>
      </trkpt>
      <trkpt lat="46.5075" lon="4.92877">
        <ele>170.40039</ele>
        <time>2026-05-13T16:29:54+02:00</time>
      </trkpt>
      <trkpt lat="46.50757" lon="4.92878">
        <ele>170.40039</ele>
        <time>2026-05-13T16:29:55+02:00</time>
      </trkpt>
      <trkpt lat="46.50766" lon="4.9288">
        <ele>170.40039</ele>
        <time>2026-05-13T16:29:56+02:00</time>
      </trkpt>
      <trkpt lat="46.50768" lon="4.9288">
        <ele>170.2998</ele>
        <time>2026-05-13T16:29:57+02:00</time>
      </trkpt>
      <trkpt lat="46.50775" lon="4.92881">
        <ele>170.2998</ele>
        <time>2026-05-13T16:29:58+02:00</time>
      </trkpt>
      <trkpt lat="46.5078" lon="4.92882">
        <ele>170.2998</ele>
        <time>2026-05-13T16:29:59+02:00</time>
      </trkpt>
      <trkpt lat="46.50787" lon="4.92885">
        <ele>169.2002</ele>
        <time>2026-05-13T16:30:00+02:00</time>
      </trkpt>
      <trkpt lat="46.5079" lon="4.92886">
        <ele>169.2002</ele>
        <time>2026-05-13T16:30:01+02:00</time>
      </trkpt>
      <trkpt lat="46.50796" lon="4.92888">
        <ele>169.2002</ele>
        <time>2026-05-13T16:30:02+02:00</time>
      </trkpt>
      <trkpt lat="46.50805" lon="4.92892">
        <ele>168.90039</ele>
        <time>2026-05-13T16:30:03+02:00</time>
      </trkpt>
      <trkpt lat="46.50808" lon="4.92893">
        <ele>168.90039</ele>
        <time>2026-05-13T16:30:04+02:00</time>
      </trkpt>
      <trkpt lat="46.50814" lon="4.92895">
        <ele>169</ele>
        <time>2026-05-13T16:30:05+02:00</time>
      </trkpt>
      <trkpt lat="46.5082" lon="4.92896">
        <ele>169</ele>
        <time>2026-05-13T16:30:06+02:00</time>
      </trkpt>
      <trkpt lat="46.5083" lon="4.92898">
        <ele>169</ele>
        <time>2026-05-13T16:30:07+02:00</time>
      </trkpt>
      <trkpt lat="46.50833" lon="4.92898">
        <ele>169</ele>
        <time>2026-05-13T16:30:08+02:00</time>
      </trkpt>
      <trkpt lat="46.5084" lon="4.92899">
        <ele>169</ele>
        <time>2026-05-13T16:30:09+02:00</time>
      </trkpt>
      <trkpt lat="46.5085" lon="4.929">
        <ele>168.90039</ele>
        <time>2026-05-13T16:30:10+02:00</time>
      </trkpt>
      <trkpt lat="46.50853" lon="4.92901">
        <ele>168.90039</ele>
        <time>2026-05-13T16:30:11+02:00</time>
      </trkpt>
      <trkpt lat="46.5086" lon="4.92902">
        <ele>169</ele>
        <time>2026-05-13T16:30:12+02:00</time>
      </trkpt>
      <trkpt lat="46.50866" lon="4.92904">
        <ele>169.10059</ele>
        <time>2026-05-13T16:30:13+02:00</time>
      </trkpt>
      <trkpt lat="46.50876" lon="4.92907">
        <ele>169.7002</ele>
        <time>2026-05-13T16:30:14+02:00</time>
      </trkpt>
      <trkpt lat="46.50879" lon="4.92908">
        <ele>169.7002</ele>
        <time>2026-05-13T16:30:15+02:00</time>
      </trkpt>
      <trkpt lat="46.50886" lon="4.92911">
        <ele>169.10059</ele>
        <time>2026-05-13T16:30:16+02:00</time>
      </trkpt>
      <trkpt lat="46.50895" lon="4.92916">
        <ele>168.90039</ele>
        <time>2026-05-13T16:30:17+02:00</time>
      </trkpt>
      <trkpt lat="46.50898" lon="4.92917">
        <ele>168.7998</ele>
        <time>2026-05-13T16:30:18+02:00</time>
      </trkpt>
      <trkpt lat="46.50905" lon="4.9292">
        <ele>168.7998</ele>
        <time>2026-05-13T16:30:19+02:00</time>
      </trkpt>
      <trkpt lat="46.50911" lon="4.92922">
        <ele>169.10059</ele>
        <time>2026-05-13T16:30:20+02:00</time>
      </trkpt>
      <trkpt lat="46.50921" lon="4.92926">
        <ele>169.90039</ele>
        <time>2026-05-13T16:30:21+02:00</time>
      </trkpt>
      <trkpt lat="46.50924" lon="4.92927">
        <ele>169.90039</ele>
        <time>2026-05-13T16:30:22+02:00</time>
      </trkpt>
      <trkpt lat="46.5093" lon="4.92929">
        <ele>170.2002</ele>
        <time>2026-05-13T16:30:23+02:00</time>
      </trkpt>
      <trkpt lat="46.50937" lon="4.92932">
        <ele>170.2998</ele>
        <time>2026-05-13T16:30:24+02:00</time>
      </trkpt>
      <trkpt lat="46.50943" lon="4.92935">
        <ele>169.10059</ele>
        <time>2026-05-13T16:30:25+02:00</time>
      </trkpt>
      <trkpt lat="46.5095" lon="4.92938">
        <ele>169</ele>
        <time>2026-05-13T16:30:26+02:00</time>
      </trkpt>
      <trkpt lat="46.50956" lon="4.92942">
        <ele>169.2002</ele>
        <time>2026-05-13T16:30:27+02:00</time>
      </trkpt>
      <trkpt lat="46.50966" lon="4.92948">
        <ele>169</ele>
        <time>2026-05-13T16:30:28+02:00</time>
      </trkpt>
      <trkpt lat="46.50969" lon="4.9295">
        <ele>169.40039</ele>
        <time>2026-05-13T16:30:29+02:00</time>
      </trkpt>
      <trkpt lat="46.50976" lon="4.92953">
        <ele>169.5</ele>
        <time>2026-05-13T16:30:30+02:00</time>
      </trkpt>
      <trkpt lat="46.50985" lon="4.92959">
        <ele>169.7998</ele>
        <time>2026-05-13T16:30:31+02:00</time>
      </trkpt>
      <trkpt lat="46.50988" lon="4.9296">
        <ele>169.2998</ele>
        <time>2026-05-13T16:30:32+02:00</time>
      </trkpt>
      <trkpt lat="46.50994" lon="4.92964">
        <ele>169.2998</ele>
        <time>2026-05-13T16:30:33+02:00</time>
      </trkpt>
      <trkpt lat="46.51001" lon="4.92967">
        <ele>169.2998</ele>
        <time>2026-05-13T16:30:34+02:00</time>
      </trkpt>
      <trkpt lat="46.51007" lon="4.9297">
        <ele>168.7002</ele>
        <time>2026-05-13T16:30:35+02:00</time>
      </trkpt>
      <trkpt lat="46.51013" lon="4.92973">
        <ele>168.5</ele>
        <time>2026-05-13T16:30:36+02:00</time>
      </trkpt>
      <trkpt lat="46.51019" lon="4.92976">
        <ele>168.60059</ele>
        <time>2026-05-13T16:30:37+02:00</time>
      </trkpt>
      <trkpt lat="46.51025" lon="4.9298">
        <ele>168.90039</ele>
        <time>2026-05-13T16:30:38+02:00</time>
      </trkpt>
      <trkpt lat="46.51031" lon="4.92983">
        <ele>169.2998</ele>
        <time>2026-05-13T16:30:39+02:00</time>
      </trkpt>
      <trkpt lat="46.51037" lon="4.92987">
        <ele>169.2998</ele>
        <time>2026-05-13T16:30:40+02:00</time>
      </trkpt>
      <trkpt lat="46.51043" lon="4.9299">
        <ele>169.5</ele>
        <time>2026-05-13T16:30:41+02:00</time>
      </trkpt>
      <trkpt lat="46.51049" lon="4.92994">
        <ele>169.5</ele>
        <time>2026-05-13T16:30:42+02:00</time>
      </trkpt>
      <trkpt lat="46.51055" lon="4.92998">
        <ele>168.90039</ele>
        <time>2026-05-13T16:30:43+02:00</time>
      </trkpt>
      <trkpt lat="46.51061" lon="4.93002">
        <ele>168.7998</ele>
        <time>2026-05-13T16:30:44+02:00</time>
      </trkpt>
      <trkpt lat="46.51067" lon="4.93005">
        <ele>168.7998</ele>
        <time>2026-05-13T16:30:45+02:00</time>
      </trkpt>
      <trkpt lat="46.51075" lon="4.93011">
        <ele>169.2998</ele>
        <time>2026-05-13T16:30:46+02:00</time>
      </trkpt>
      <trkpt lat="46.51079" lon="4.93012">
        <ele>169.10059</ele>
        <time>2026-05-13T16:30:47+02:00</time>
      </trkpt>
      <trkpt lat="46.51085" lon="4.93016">
        <ele>169.2998</ele>
        <time>2026-05-13T16:30:48+02:00</time>
      </trkpt>
      <trkpt lat="46.51093" lon="4.93021">
        <ele>169.10059</ele>
        <time>2026-05-13T16:30:49+02:00</time>
      </trkpt>
      <trkpt lat="46.51096" lon="4.93023">
        <ele>169.10059</ele>
        <time>2026-05-13T16:30:50+02:00</time>
      </trkpt>
      <trkpt lat="46.51102" lon="4.93027">
        <ele>169</ele>
        <time>2026-05-13T16:30:51+02:00</time>
      </trkpt>
      <trkpt lat="46.51108" lon="4.93031">
        <ele>168.7998</ele>
        <time>2026-05-13T16:30:52+02:00</time>
      </trkpt>
      <trkpt lat="46.51113" lon="4.93035">
        <ele>168.90039</ele>
        <time>2026-05-13T16:30:53+02:00</time>
      </trkpt>
      <trkpt lat="46.51119" lon="4.9304">
        <ele>169</ele>
        <time>2026-05-13T16:30:54+02:00</time>
      </trkpt>
      <trkpt lat="46.51125" lon="4.93044">
        <ele>169.10059</ele>
        <time>2026-05-13T16:30:55+02:00</time>
      </trkpt>
      <trkpt lat="46.5113" lon="4.93049">
        <ele>169</ele>
        <time>2026-05-13T16:30:56+02:00</time>
      </trkpt>
      <trkpt lat="46.51136" lon="4.93054">
        <ele>169</ele>
        <time>2026-05-13T16:30:57+02:00</time>
      </trkpt>
      <trkpt lat="46.51141" lon="4.93059">
        <ele>169</ele>
        <time>2026-05-13T16:30:58+02:00</time>
      </trkpt>
      <trkpt lat="46.51147" lon="4.93064">
        <ele>169.10059</ele>
        <time>2026-05-13T16:30:59+02:00</time>
      </trkpt>
      <trkpt lat="46.51155" lon="4.93071">
        <ele>169.2998</ele>
        <time>2026-05-13T16:31:00+02:00</time>
      </trkpt>
      <trkpt lat="46.51158" lon="4.93074">
        <ele>169.2002</ele>
        <time>2026-05-13T16:31:01+02:00</time>
      </trkpt>
      <trkpt lat="46.51164" lon="4.93078">
        <ele>169.2002</ele>
        <time>2026-05-13T16:31:02+02:00</time>
      </trkpt>
      <trkpt lat="46.51169" lon="4.93082">
        <ele>169</ele>
        <time>2026-05-13T16:31:03+02:00</time>
      </trkpt>
      <trkpt lat="46.51175" lon="4.93086">
        <ele>169</ele>
        <time>2026-05-13T16:31:04+02:00</time>
      </trkpt>
      <trkpt lat="46.51181" lon="4.9309">
        <ele>168.90039</ele>
        <time>2026-05-13T16:31:05+02:00</time>
      </trkpt>
      <trkpt lat="46.51187" lon="4.93095">
        <ele>169</ele>
        <time>2026-05-13T16:31:06+02:00</time>
      </trkpt>
      <trkpt lat="46.51195" lon="4.93101">
        <ele>169.10059</ele>
        <time>2026-05-13T16:31:07+02:00</time>
      </trkpt>
      <trkpt lat="46.51198" lon="4.93103">
        <ele>169.10059</ele>
        <time>2026-05-13T16:31:08+02:00</time>
      </trkpt>
      <trkpt lat="46.51203" lon="4.93108">
        <ele>169</ele>
        <time>2026-05-13T16:31:09+02:00</time>
      </trkpt>
      <trkpt lat="46.51212" lon="4.93116">
        <ele>169.10059</ele>
        <time>2026-05-13T16:31:10+02:00</time>
      </trkpt>
      <trkpt lat="46.51214" lon="4.93118">
        <ele>169.10059</ele>
        <time>2026-05-13T16:31:11+02:00</time>
      </trkpt>
      <trkpt lat="46.5122" lon="4.93123">
        <ele>169.2002</ele>
        <time>2026-05-13T16:31:12+02:00</time>
      </trkpt>
      <trkpt lat="46.51225" lon="4.93129">
        <ele>169.2002</ele>
        <time>2026-05-13T16:31:13+02:00</time>
      </trkpt>
      <trkpt lat="46.51233" lon="4.93137">
        <ele>169.10059</ele>
        <time>2026-05-13T16:31:14+02:00</time>
      </trkpt>
      <trkpt lat="46.51235" lon="4.9314">
        <ele>169.2002</ele>
        <time>2026-05-13T16:31:15+02:00</time>
      </trkpt>
      <trkpt lat="46.51241" lon="4.93145">
        <ele>169.5</ele>
        <time>2026-05-13T16:31:16+02:00</time>
      </trkpt>
      <trkpt lat="46.51246" lon="4.93151">
        <ele>169.7002</ele>
        <time>2026-05-13T16:31:17+02:00</time>
      </trkpt>
      <trkpt lat="46.51254" lon="4.93159">
        <ele>169.5</ele>
        <time>2026-05-13T16:31:18+02:00</time>
      </trkpt>
      <trkpt lat="46.51257" lon="4.93161">
        <ele>169.5</ele>
        <time>2026-05-13T16:31:19+02:00</time>
      </trkpt>
      <trkpt lat="46.51262" lon="4.93166">
        <ele>169.10059</ele>
        <time>2026-05-13T16:31:20+02:00</time>
      </trkpt>
      <trkpt lat="46.5127" lon="4.93173">
        <ele>168.90039</ele>
        <time>2026-05-13T16:31:21+02:00</time>
      </trkpt>
      <trkpt lat="46.51273" lon="4.93176">
        <ele>168.7998</ele>
        <time>2026-05-13T16:31:22+02:00</time>
      </trkpt>
      <trkpt lat="46.51278" lon="4.93181">
        <ele>168.7998</ele>
        <time>2026-05-13T16:31:23+02:00</time>
      </trkpt>
      <trkpt lat="46.51284" lon="4.93186">
        <ele>169</ele>
        <time>2026-05-13T16:31:24+02:00</time>
      </trkpt>
      <trkpt lat="46.51289" lon="4.93191">
        <ele>169.2002</ele>
        <time>2026-05-13T16:31:25+02:00</time>
      </trkpt>
      <trkpt lat="46.51295" lon="4.93196">
        <ele>169</ele>
        <time>2026-05-13T16:31:26+02:00</time>
      </trkpt>
      <trkpt lat="46.513" lon="4.93201">
        <ele>168.90039</ele>
        <time>2026-05-13T16:31:27+02:00</time>
      </trkpt>
      <trkpt lat="46.51306" lon="4.93206">
        <ele>169</ele>
        <time>2026-05-13T16:31:28+02:00</time>
      </trkpt>
      <trkpt lat="46.51311" lon="4.93211">
        <ele>169.2998</ele>
        <time>2026-05-13T16:31:29+02:00</time>
      </trkpt>
      <trkpt lat="46.51317" lon="4.93216">
        <ele>169.7998</ele>
        <time>2026-05-13T16:31:30+02:00</time>
      </trkpt>
      <trkpt lat="46.51323" lon="4.93222">
        <ele>169.60059</ele>
        <time>2026-05-13T16:31:31+02:00</time>
      </trkpt>
      <trkpt lat="46.51328" lon="4.93227">
        <ele>169.40039</ele>
        <time>2026-05-13T16:31:32+02:00</time>
      </trkpt>
      <trkpt lat="46.51334" lon="4.93232">
        <ele>169.90039</ele>
        <time>2026-05-13T16:31:33+02:00</time>
      </trkpt>
      <trkpt lat="46.51339" lon="4.93237">
        <ele>169.7002</ele>
        <time>2026-05-13T16:31:34+02:00</time>
      </trkpt>
      <trkpt lat="46.51345" lon="4.93243">
        <ele>170.10059</ele>
        <time>2026-05-13T16:31:35+02:00</time>
      </trkpt>
      <trkpt lat="46.51351" lon="4.93248">
        <ele>169.90039</ele>
        <time>2026-05-13T16:31:36+02:00</time>
      </trkpt>
      <trkpt lat="46.51356" lon="4.93253">
        <ele>169.7002</ele>
        <time>2026-05-13T16:31:37+02:00</time>
      </trkpt>
      <trkpt lat="46.51362" lon="4.93259">
        <ele>169.90039</ele>
        <time>2026-05-13T16:31:38+02:00</time>
      </trkpt>
      <trkpt lat="46.51369" lon="4.93267">
        <ele>169.90039</ele>
        <time>2026-05-13T16:31:39+02:00</time>
      </trkpt>
      <trkpt lat="46.51372" lon="4.9327">
        <ele>169.90039</ele>
        <time>2026-05-13T16:31:40+02:00</time>
      </trkpt>
      <trkpt lat="46.51377" lon="4.93276">
        <ele>170</ele>
        <time>2026-05-13T16:31:41+02:00</time>
      </trkpt>
      <trkpt lat="46.51385" lon="4.93284">
        <ele>169.7998</ele>
        <time>2026-05-13T16:31:42+02:00</time>
      </trkpt>
      <trkpt lat="46.51388" lon="4.93286">
        <ele>169.90039</ele>
        <time>2026-05-13T16:31:43+02:00</time>
      </trkpt>
      <trkpt lat="46.51394" lon="4.93292">
        <ele>169.7998</ele>
        <time>2026-05-13T16:31:44+02:00</time>
      </trkpt>
      <trkpt lat="46.51399" lon="4.93297">
        <ele>169.7998</ele>
        <time>2026-05-13T16:31:45+02:00</time>
      </trkpt>
      <trkpt lat="46.51405" lon="4.93303">
        <ele>169.90039</ele>
        <time>2026-05-13T16:31:46+02:00</time>
      </trkpt>
      <trkpt lat="46.5141" lon="4.93309">
        <ele>169.7002</ele>
        <time>2026-05-13T16:31:47+02:00</time>
      </trkpt>
      <trkpt lat="46.51416" lon="4.93315">
        <ele>169.7002</ele>
        <time>2026-05-13T16:31:48+02:00</time>
      </trkpt>
      <trkpt lat="46.51423" lon="4.93324">
        <ele>169.7002</ele>
        <time>2026-05-13T16:31:49+02:00</time>
      </trkpt>
      <trkpt lat="46.51426" lon="4.93327">
        <ele>169.7002</ele>
        <time>2026-05-13T16:31:50+02:00</time>
      </trkpt>
      <trkpt lat="46.51431" lon="4.93333">
        <ele>169.7002</ele>
        <time>2026-05-13T16:31:51+02:00</time>
      </trkpt>
      <trkpt lat="46.51437" lon="4.93339">
        <ele>169.7002</ele>
        <time>2026-05-13T16:31:52+02:00</time>
      </trkpt>
      <trkpt lat="46.51442" lon="4.93344">
        <ele>170</ele>
        <time>2026-05-13T16:31:53+02:00</time>
      </trkpt>
      <trkpt lat="46.51447" lon="4.9335">
        <ele>170.10059</ele>
        <time>2026-05-13T16:31:54+02:00</time>
      </trkpt>
      <trkpt lat="46.51452" lon="4.93356">
        <ele>170</ele>
        <time>2026-05-13T16:31:55+02:00</time>
      </trkpt>
      <trkpt lat="46.51457" lon="4.93362">
        <ele>170.40039</ele>
        <time>2026-05-13T16:31:56+02:00</time>
      </trkpt>
      <trkpt lat="46.51463" lon="4.93368">
        <ele>170.2998</ele>
        <time>2026-05-13T16:31:57+02:00</time>
      </trkpt>
      <trkpt lat="46.51468" lon="4.93373">
        <ele>170</ele>
        <time>2026-05-13T16:31:58+02:00</time>
      </trkpt>
      <trkpt lat="46.51473" lon="4.93379">
        <ele>170.40039</ele>
        <time>2026-05-13T16:31:59+02:00</time>
      </trkpt>
      <trkpt lat="46.51478" lon="4.93384">
        <ele>170.7998</ele>
        <time>2026-05-13T16:32:00+02:00</time>
      </trkpt>
      <trkpt lat="46.51484" lon="4.9339">
        <ele>170.90039</ele>
        <time>2026-05-13T16:32:01+02:00</time>
      </trkpt>
      <trkpt lat="46.51489" lon="4.93395">
        <ele>171.60059</ele>
        <time>2026-05-13T16:32:02+02:00</time>
      </trkpt>
      <trkpt lat="46.51494" lon="4.93401">
        <ele>170.60059</ele>
        <time>2026-05-13T16:32:03+02:00</time>
      </trkpt>
      <trkpt lat="46.51499" lon="4.93407">
        <ele>169.7998</ele>
        <time>2026-05-13T16:32:04+02:00</time>
      </trkpt>
      <trkpt lat="46.51504" lon="4.93413">
        <ele>170.5</ele>
        <time>2026-05-13T16:32:05+02:00</time>
      </trkpt>
      <trkpt lat="46.51512" lon="4.93422">
        <ele>171.90039</ele>
        <time>2026-05-13T16:32:06+02:00</time>
      </trkpt>
      <trkpt lat="46.51515" lon="4.93425">
        <ele>170.60059</ele>
        <time>2026-05-13T16:32:07+02:00</time>
      </trkpt>
      <trkpt lat="46.5152" lon="4.93431">
        <ele>171</ele>
        <time>2026-05-13T16:32:08+02:00</time>
      </trkpt>
      <trkpt lat="46.51525" lon="4.93437">
        <ele>170.2998</ele>
        <time>2026-05-13T16:32:09+02:00</time>
      </trkpt>
      <trkpt lat="46.51531" lon="4.93443">
        <ele>170.7002</ele>
        <time>2026-05-13T16:32:10+02:00</time>
      </trkpt>
      <trkpt lat="46.51536" lon="4.93449">
        <ele>171.5</ele>
        <time>2026-05-13T16:32:11+02:00</time>
      </trkpt>
      <trkpt lat="46.51541" lon="4.93455">
        <ele>171</ele>
        <time>2026-05-13T16:32:12+02:00</time>
      </trkpt>
      <trkpt lat="46.51546" lon="4.93461">
        <ele>170.10059</ele>
        <time>2026-05-13T16:32:13+02:00</time>
      </trkpt>
      <trkpt lat="46.51552" lon="4.93467">
        <ele>169.90039</ele>
        <time>2026-05-13T16:32:14+02:00</time>
      </trkpt>
      <trkpt lat="46.51557" lon="4.93473">
        <ele>170.5</ele>
        <time>2026-05-13T16:32:15+02:00</time>
      </trkpt>
      <trkpt lat="46.51563" lon="4.93479">
        <ele>170.60059</ele>
        <time>2026-05-13T16:32:16+02:00</time>
      </trkpt>
      <trkpt lat="46.51568" lon="4.93484">
        <ele>170.2998</ele>
        <time>2026-05-13T16:32:17+02:00</time>
      </trkpt>
      <trkpt lat="46.51574" lon="4.93489">
        <ele>170.5</ele>
        <time>2026-05-13T16:32:18+02:00</time>
      </trkpt>
      <trkpt lat="46.5158" lon="4.93494">
        <ele>170.2002</ele>
        <time>2026-05-13T16:32:19+02:00</time>
      </trkpt>
      <trkpt lat="46.51586" lon="4.93499">
        <ele>170.60059</ele>
        <time>2026-05-13T16:32:20+02:00</time>
      </trkpt>
      <trkpt lat="46.51594" lon="4.93507">
        <ele>171.2998</ele>
        <time>2026-05-13T16:32:21+02:00</time>
      </trkpt>
      <trkpt lat="46.51597" lon="4.9351">
        <ele>170.60059</ele>
        <time>2026-05-13T16:32:22+02:00</time>
      </trkpt>
      <trkpt lat="46.51602" lon="4.93515">
        <ele>171</ele>
        <time>2026-05-13T16:32:23+02:00</time>
      </trkpt>
      <trkpt lat="46.51611" lon="4.93523">
        <ele>170.2998</ele>
        <time>2026-05-13T16:32:24+02:00</time>
      </trkpt>
      <trkpt lat="46.51614" lon="4.93525">
        <ele>170.60059</ele>
        <time>2026-05-13T16:32:25+02:00</time>
      </trkpt>
      <trkpt lat="46.51619" lon="4.9353">
        <ele>170.60059</ele>
        <time>2026-05-13T16:32:26+02:00</time>
      </trkpt>
      <trkpt lat="46.51625" lon="4.93535">
        <ele>171.5</ele>
        <time>2026-05-13T16:32:27+02:00</time>
      </trkpt>
      <trkpt lat="46.51631" lon="4.93539">
        <ele>171.5</ele>
        <time>2026-05-13T16:32:28+02:00</time>
      </trkpt>
      <trkpt lat="46.51637" lon="4.93544">
        <ele>170.60059</ele>
        <time>2026-05-13T16:32:29+02:00</time>
      </trkpt>
      <trkpt lat="46.51643" lon="4.93548">
        <ele>170.40039</ele>
        <time>2026-05-13T16:32:30+02:00</time>
      </trkpt>
      <trkpt lat="46.51648" lon="4.93552">
        <ele>170.10059</ele>
        <time>2026-05-13T16:32:31+02:00</time>
      </trkpt>
      <trkpt lat="46.51654" lon="4.93556">
        <ele>169.40039</ele>
        <time>2026-05-13T16:32:32+02:00</time>
      </trkpt>
      <trkpt lat="46.5166" lon="4.93561">
        <ele>169.5</ele>
        <time>2026-05-13T16:32:33+02:00</time>
      </trkpt>
      <trkpt lat="46.51666" lon="4.93565">
        <ele>170.2002</ele>
        <time>2026-05-13T16:32:34+02:00</time>
      </trkpt>
      <trkpt lat="46.51675" lon="4.93572">
        <ele>170.40039</ele>
        <time>2026-05-13T16:32:35+02:00</time>
      </trkpt>
      <trkpt lat="46.51678" lon="4.93574">
        <ele>170.7998</ele>
        <time>2026-05-13T16:32:36+02:00</time>
      </trkpt>
      <trkpt lat="46.51684" lon="4.93578">
        <ele>170</ele>
        <time>2026-05-13T16:32:37+02:00</time>
      </trkpt>
      <trkpt lat="46.5169" lon="4.93582">
        <ele>170.40039</ele>
        <time>2026-05-13T16:32:38+02:00</time>
      </trkpt>
      <trkpt lat="46.51696" lon="4.93586">
        <ele>171.10059</ele>
        <time>2026-05-13T16:32:39+02:00</time>
      </trkpt>
      <trkpt lat="46.51702" lon="4.9359">
        <ele>171.5</ele>
        <time>2026-05-13T16:32:40+02:00</time>
      </trkpt>
      <trkpt lat="46.51708" lon="4.93593">
        <ele>172</ele>
        <time>2026-05-13T16:32:41+02:00</time>
      </trkpt>
      <trkpt lat="46.51714" lon="4.93597">
        <ele>171.2998</ele>
        <time>2026-05-13T16:32:42+02:00</time>
      </trkpt>
      <trkpt lat="46.51721" lon="4.936">
        <ele>171.5</ele>
        <time>2026-05-13T16:32:43+02:00</time>
      </trkpt>
      <trkpt lat="46.51727" lon="4.93603">
        <ele>171.60059</ele>
        <time>2026-05-13T16:32:44+02:00</time>
      </trkpt>
      <trkpt lat="46.51733" lon="4.93606">
        <ele>170.2002</ele>
        <time>2026-05-13T16:32:45+02:00</time>
      </trkpt>
      <trkpt lat="46.51738" lon="4.9361">
        <ele>170.2002</ele>
        <time>2026-05-13T16:32:46+02:00</time>
      </trkpt>
      <trkpt lat="46.51745" lon="4.93613">
        <ele>169.5</ele>
        <time>2026-05-13T16:32:47+02:00</time>
      </trkpt>
      <trkpt lat="46.5175" lon="4.93616">
        <ele>169.5</ele>
        <time>2026-05-13T16:32:48+02:00</time>
      </trkpt>
      <trkpt lat="46.51759" lon="4.93621">
        <ele>169.2998</ele>
        <time>2026-05-13T16:32:49+02:00</time>
      </trkpt>
      <trkpt lat="46.51762" lon="4.93623">
        <ele>169.2002</ele>
        <time>2026-05-13T16:32:50+02:00</time>
      </trkpt>
      <trkpt lat="46.51768" lon="4.93626">
        <ele>169.2002</ele>
        <time>2026-05-13T16:32:51+02:00</time>
      </trkpt>
      <trkpt lat="46.51774" lon="4.9363">
        <ele>169.5</ele>
        <time>2026-05-13T16:32:52+02:00</time>
      </trkpt>
      <trkpt lat="46.5178" lon="4.93633">
        <ele>169.60059</ele>
        <time>2026-05-13T16:32:53+02:00</time>
      </trkpt>
      <trkpt lat="46.51785" lon="4.93636">
        <ele>169.90039</ele>
        <time>2026-05-13T16:32:54+02:00</time>
      </trkpt>
      <trkpt lat="46.51791" lon="4.93639">
        <ele>169.60059</ele>
        <time>2026-05-13T16:32:55+02:00</time>
      </trkpt>
      <trkpt lat="46.51799" lon="4.93643">
        <ele>169.60059</ele>
        <time>2026-05-13T16:32:56+02:00</time>
      </trkpt>
      <trkpt lat="46.51802" lon="4.93644">
        <ele>169.60059</ele>
        <time>2026-05-13T16:32:57+02:00</time>
      </trkpt>
      <trkpt lat="46.51808" lon="4.93646">
        <ele>169.5</ele>
        <time>2026-05-13T16:32:58+02:00</time>
      </trkpt>
      <trkpt lat="46.51814" lon="4.93649">
        <ele>169.2002</ele>
        <time>2026-05-13T16:32:59+02:00</time>
      </trkpt>
      <trkpt lat="46.51822" lon="4.93651">
        <ele>169.2002</ele>
        <time>2026-05-13T16:33:00+02:00</time>
      </trkpt>
      <trkpt lat="46.51825" lon="4.93652">
        <ele>169.5</ele>
        <time>2026-05-13T16:33:01+02:00</time>
      </trkpt>
      <trkpt lat="46.51831" lon="4.93654">
        <ele>169.90039</ele>
        <time>2026-05-13T16:33:02+02:00</time>
      </trkpt>
      <trkpt lat="46.5184" lon="4.93657">
        <ele>169.90039</ele>
        <time>2026-05-13T16:33:03+02:00</time>
      </trkpt>
      <trkpt lat="46.51842" lon="4.93658">
        <ele>170</ele>
        <time>2026-05-13T16:33:04+02:00</time>
      </trkpt>
      <trkpt lat="46.51848" lon="4.9366">
        <ele>170.10059</ele>
        <time>2026-05-13T16:33:05+02:00</time>
      </trkpt>
      <trkpt lat="46.51854" lon="4.93662">
        <ele>170.2002</ele>
        <time>2026-05-13T16:33:06+02:00</time>
      </trkpt>
      <trkpt lat="46.51859" lon="4.93663">
        <ele>170.2002</ele>
        <time>2026-05-13T16:33:07+02:00</time>
      </trkpt>
      <trkpt lat="46.51865" lon="4.93665">
        <ele>169.60059</ele>
        <time>2026-05-13T16:33:08+02:00</time>
      </trkpt>
      <trkpt lat="46.51871" lon="4.93667">
        <ele>169.60059</ele>
        <time>2026-05-13T16:33:09+02:00</time>
      </trkpt>
      <trkpt lat="46.51881" lon="4.9367">
        <ele>169.60059</ele>
        <time>2026-05-13T16:33:10+02:00</time>
      </trkpt>
      <trkpt lat="46.51884" lon="4.93671">
        <ele>169.60059</ele>
        <time>2026-05-13T16:33:11+02:00</time>
      </trkpt>
      <trkpt lat="46.5189" lon="4.93674">
        <ele>169.2998</ele>
        <time>2026-05-13T16:33:12+02:00</time>
      </trkpt>
      <trkpt lat="46.51899" lon="4.93677">
        <ele>169.2002</ele>
        <time>2026-05-13T16:33:13+02:00</time>
      </trkpt>
      <trkpt lat="46.51902" lon="4.93678">
        <ele>169.2002</ele>
        <time>2026-05-13T16:33:14+02:00</time>
      </trkpt>
      <trkpt lat="46.51909" lon="4.9368">
        <ele>169.2998</ele>
        <time>2026-05-13T16:33:15+02:00</time>
      </trkpt>
      <trkpt lat="46.51919" lon="4.93682">
        <ele>169.7002</ele>
        <time>2026-05-13T16:33:16+02:00</time>
      </trkpt>
      <trkpt lat="46.51922" lon="4.93683">
        <ele>169.7002</ele>
        <time>2026-05-13T16:33:17+02:00</time>
      </trkpt>
      <trkpt lat="46.51929" lon="4.93685">
        <ele>170</ele>
        <time>2026-05-13T16:33:18+02:00</time>
      </trkpt>
      <trkpt lat="46.51935" lon="4.93686">
        <ele>170.2002</ele>
        <time>2026-05-13T16:33:19+02:00</time>
      </trkpt>
      <trkpt lat="46.51945" lon="4.93688">
        <ele>170.2002</ele>
        <time>2026-05-13T16:33:20+02:00</time>
      </trkpt>
      <trkpt lat="46.51948" lon="4.93689">
        <ele>170.2002</ele>
        <time>2026-05-13T16:33:21+02:00</time>
      </trkpt>
      <trkpt lat="46.51954" lon="4.93691">
        <ele>169.60059</ele>
        <time>2026-05-13T16:33:22+02:00</time>
      </trkpt>
      <trkpt lat="46.5196" lon="4.93693">
        <ele>169.60059</ele>
        <time>2026-05-13T16:33:23+02:00</time>
      </trkpt>
      <trkpt lat="46.51968" lon="4.93696">
        <ele>169.5</ele>
        <time>2026-05-13T16:33:24+02:00</time>
      </trkpt>
      <trkpt lat="46.51971" lon="4.93696">
        <ele>169.5</ele>
        <time>2026-05-13T16:33:25+02:00</time>
      </trkpt>
      <trkpt lat="46.51977" lon="4.93699">
        <ele>169.40039</ele>
        <time>2026-05-13T16:33:26+02:00</time>
      </trkpt>
      <trkpt lat="46.51982" lon="4.93701">
        <ele>169.5</ele>
        <time>2026-05-13T16:33:27+02:00</time>
      </trkpt>
      <trkpt lat="46.51988" lon="4.93703">
        <ele>169.5</ele>
        <time>2026-05-13T16:33:28+02:00</time>
      </trkpt>
      <trkpt lat="46.51994" lon="4.93705">
        <ele>169.5</ele>
        <time>2026-05-13T16:33:29+02:00</time>
      </trkpt>
      <trkpt lat="46.52" lon="4.93706">
        <ele>169.5</ele>
        <time>2026-05-13T16:33:30+02:00</time>
      </trkpt>
      <trkpt lat="46.52009" lon="4.93707">
        <ele>169.60059</ele>
        <time>2026-05-13T16:33:31+02:00</time>
      </trkpt>
      <trkpt lat="46.52012" lon="4.93708">
        <ele>169.60059</ele>
        <time>2026-05-13T16:33:32+02:00</time>
      </trkpt>
      <trkpt lat="46.52018" lon="4.93709">
        <ele>169.60059</ele>
        <time>2026-05-13T16:33:33+02:00</time>
      </trkpt>
      <trkpt lat="46.52023" lon="4.93709">
        <ele>169.60059</ele>
        <time>2026-05-13T16:33:34+02:00</time>
      </trkpt>
      <trkpt lat="46.52028" lon="4.9371">
        <ele>169.60059</ele>
        <time>2026-05-13T16:33:35+02:00</time>
      </trkpt>
      <trkpt lat="46.52033" lon="4.9371">
        <ele>169.60059</ele>
        <time>2026-05-13T16:33:36+02:00</time>
      </trkpt>
      <trkpt lat="46.52039" lon="4.9371">
        <ele>169.60059</ele>
        <time>2026-05-13T16:33:37+02:00</time>
      </trkpt>
      <trkpt lat="46.52044" lon="4.93709">
        <ele>169.7002</ele>
        <time>2026-05-13T16:33:38+02:00</time>
      </trkpt>
      <trkpt lat="46.52051" lon="4.93709">
        <ele>169.7002</ele>
        <time>2026-05-13T16:33:39+02:00</time>
      </trkpt>
      <trkpt lat="46.52057" lon="4.93708">
        <ele>169.7002</ele>
        <time>2026-05-13T16:33:40+02:00</time>
      </trkpt>
      <trkpt lat="46.52064" lon="4.93707">
        <ele>169.7002</ele>
        <time>2026-05-13T16:33:41+02:00</time>
      </trkpt>
      <trkpt lat="46.5207" lon="4.93706">
        <ele>169.90039</ele>
        <time>2026-05-13T16:33:42+02:00</time>
      </trkpt>
      <trkpt lat="46.52076" lon="4.93705">
        <ele>169.90039</ele>
        <time>2026-05-13T16:33:43+02:00</time>
      </trkpt>
      <trkpt lat="46.52083" lon="4.93704">
        <ele>169.90039</ele>
        <time>2026-05-13T16:33:44+02:00</time>
      </trkpt>
      <trkpt lat="46.52093" lon="4.93702">
        <ele>169.90039</ele>
        <time>2026-05-13T16:33:45+02:00</time>
      </trkpt>
      <trkpt lat="46.52096" lon="4.93701">
        <ele>169.90039</ele>
        <time>2026-05-13T16:33:46+02:00</time>
      </trkpt>
      <trkpt lat="46.52103" lon="4.937">
        <ele>169.90039</ele>
        <time>2026-05-13T16:33:47+02:00</time>
      </trkpt>
      <trkpt lat="46.52109" lon="4.93698">
        <ele>170.40039</ele>
        <time>2026-05-13T16:33:48+02:00</time>
      </trkpt>
      <trkpt lat="46.52116" lon="4.93698">
        <ele>170.40039</ele>
        <time>2026-05-13T16:33:49+02:00</time>
      </trkpt>
      <trkpt lat="46.52122" lon="4.93696">
        <ele>170.5</ele>
        <time>2026-05-13T16:33:50+02:00</time>
      </trkpt>
      <trkpt lat="46.52129" lon="4.93695">
        <ele>170.5</ele>
        <time>2026-05-13T16:33:51+02:00</time>
      </trkpt>
      <trkpt lat="46.52139" lon="4.93693">
        <ele>170.40039</ele>
        <time>2026-05-13T16:33:52+02:00</time>
      </trkpt>
      <trkpt lat="46.52142" lon="4.93693">
        <ele>170.40039</ele>
        <time>2026-05-13T16:33:53+02:00</time>
      </trkpt>
      <trkpt lat="46.52149" lon="4.93693">
        <ele>170.40039</ele>
        <time>2026-05-13T16:33:54+02:00</time>
      </trkpt>
      <trkpt lat="46.52156" lon="4.93692">
        <ele>170.40039</ele>
        <time>2026-05-13T16:33:55+02:00</time>
      </trkpt>
      <trkpt lat="46.52166" lon="4.93692">
        <ele>170.2998</ele>
        <time>2026-05-13T16:33:56+02:00</time>
      </trkpt>
      <trkpt lat="46.5217" lon="4.93692">
        <ele>170.2998</ele>
        <time>2026-05-13T16:33:57+02:00</time>
      </trkpt>
      <trkpt lat="46.52177" lon="4.93691">
        <ele>170.2998</ele>
        <time>2026-05-13T16:33:58+02:00</time>
      </trkpt>
      <trkpt lat="46.52188" lon="4.93691">
        <ele>170.2002</ele>
        <time>2026-05-13T16:33:59+02:00</time>
      </trkpt>
      <trkpt lat="46.52191" lon="4.93691">
        <ele>170.10059</ele>
        <time>2026-05-13T16:34:00+02:00</time>
      </trkpt>
      <trkpt lat="46.52199" lon="4.93691">
        <ele>170.10059</ele>
        <time>2026-05-13T16:34:01+02:00</time>
      </trkpt>
      <trkpt lat="46.52206" lon="4.93691">
        <ele>170.10059</ele>
        <time>2026-05-13T16:34:02+02:00</time>
      </trkpt>
      <trkpt lat="46.52213" lon="4.93691">
        <ele>170</ele>
        <time>2026-05-13T16:34:03+02:00</time>
      </trkpt>
      <trkpt lat="46.52221" lon="4.93691">
        <ele>169.90039</ele>
        <time>2026-05-13T16:34:04+02:00</time>
      </trkpt>
      <trkpt lat="46.52228" lon="4.9369">
        <ele>169.7998</ele>
        <time>2026-05-13T16:34:05+02:00</time>
      </trkpt>
      <trkpt lat="46.52236" lon="4.9369">
        <ele>169.7998</ele>
        <time>2026-05-13T16:34:06+02:00</time>
      </trkpt>
      <trkpt lat="46.52247" lon="4.9369">
        <ele>169.7002</ele>
        <time>2026-05-13T16:34:07+02:00</time>
      </trkpt>
      <trkpt lat="46.5225" lon="4.93689">
        <ele>169.60059</ele>
        <time>2026-05-13T16:34:08+02:00</time>
      </trkpt>
      <trkpt lat="46.52257" lon="4.93688">
        <ele>169.60059</ele>
        <time>2026-05-13T16:34:09+02:00</time>
      </trkpt>
      <trkpt lat="46.52264" lon="4.93687">
        <ele>169.60059</ele>
        <time>2026-05-13T16:34:10+02:00</time>
      </trkpt>
      <trkpt lat="46.52271" lon="4.93685">
        <ele>169.60059</ele>
        <time>2026-05-13T16:34:11+02:00</time>
      </trkpt>
      <trkpt lat="46.52278" lon="4.93684">
        <ele>169.60059</ele>
        <time>2026-05-13T16:34:12+02:00</time>
      </trkpt>
      <trkpt lat="46.52285" lon="4.93682">
        <ele>169.60059</ele>
        <time>2026-05-13T16:34:13+02:00</time>
      </trkpt>
      <trkpt lat="46.52296" lon="4.9368">
        <ele>169.5</ele>
        <time>2026-05-13T16:34:14+02:00</time>
      </trkpt>
      <trkpt lat="46.52299" lon="4.93679">
        <ele>169.5</ele>
        <time>2026-05-13T16:34:15+02:00</time>
      </trkpt>
      <trkpt lat="46.52306" lon="4.93677">
        <ele>169.60059</ele>
        <time>2026-05-13T16:34:16+02:00</time>
      </trkpt>
      <trkpt lat="46.52313" lon="4.93675">
        <ele>169.60059</ele>
        <time>2026-05-13T16:34:17+02:00</time>
      </trkpt>
      <trkpt lat="46.52323" lon="4.93671">
        <ele>169.7002</ele>
        <time>2026-05-13T16:34:18+02:00</time>
      </trkpt>
      <trkpt lat="46.52327" lon="4.93669">
        <ele>169.7002</ele>
        <time>2026-05-13T16:34:19+02:00</time>
      </trkpt>
      <trkpt lat="46.52334" lon="4.93666">
        <ele>169.7002</ele>
        <time>2026-05-13T16:34:20+02:00</time>
      </trkpt>
      <trkpt lat="46.5234" lon="4.93662">
        <ele>169.7998</ele>
        <time>2026-05-13T16:34:21+02:00</time>
      </trkpt>
      <trkpt lat="46.52347" lon="4.93659">
        <ele>169.7998</ele>
        <time>2026-05-13T16:34:22+02:00</time>
      </trkpt>
      <trkpt lat="46.52353" lon="4.93655">
        <ele>169.90039</ele>
        <time>2026-05-13T16:34:23+02:00</time>
      </trkpt>
      <trkpt lat="46.52359" lon="4.93651">
        <ele>169.7998</ele>
        <time>2026-05-13T16:34:24+02:00</time>
      </trkpt>
      <trkpt lat="46.52365" lon="4.93648">
        <ele>169.7002</ele>
        <time>2026-05-13T16:34:25+02:00</time>
      </trkpt>
      <trkpt lat="46.52371" lon="4.93645">
        <ele>170.2998</ele>
        <time>2026-05-13T16:34:26+02:00</time>
      </trkpt>
      <trkpt lat="46.52377" lon="4.93643">
        <ele>170.2998</ele>
        <time>2026-05-13T16:34:27+02:00</time>
      </trkpt>
      <trkpt lat="46.52384" lon="4.93642">
        <ele>170.2998</ele>
        <time>2026-05-13T16:34:28+02:00</time>
      </trkpt>
      <trkpt lat="46.52394" lon="4.9364">
        <ele>170.2998</ele>
        <time>2026-05-13T16:34:29+02:00</time>
      </trkpt>
      <trkpt lat="46.52397" lon="4.93639">
        <ele>170.2002</ele>
        <time>2026-05-13T16:34:30+02:00</time>
      </trkpt>
      <trkpt lat="46.52403" lon="4.93638">
        <ele>171.2998</ele>
        <time>2026-05-13T16:34:31+02:00</time>
      </trkpt>
      <trkpt lat="46.52413" lon="4.93636">
        <ele>171.40039</ele>
        <time>2026-05-13T16:34:32+02:00</time>
      </trkpt>
      <trkpt lat="46.52417" lon="4.93636">
        <ele>171.5</ele>
        <time>2026-05-13T16:34:33+02:00</time>
      </trkpt>
      <trkpt lat="46.52424" lon="4.93634">
        <ele>171.5</ele>
        <time>2026-05-13T16:34:34+02:00</time>
      </trkpt>
      <trkpt lat="46.5243" lon="4.93632">
        <ele>171.40039</ele>
        <time>2026-05-13T16:34:35+02:00</time>
      </trkpt>
      <trkpt lat="46.52437" lon="4.93631">
        <ele>171.2998</ele>
        <time>2026-05-13T16:34:36+02:00</time>
      </trkpt>
      <trkpt lat="46.52445" lon="4.9363">
        <ele>170.90039</ele>
        <time>2026-05-13T16:34:37+02:00</time>
      </trkpt>
      <trkpt lat="46.52451" lon="4.93629">
        <ele>171.7002</ele>
        <time>2026-05-13T16:34:38+02:00</time>
      </trkpt>
      <trkpt lat="46.52458" lon="4.93628">
        <ele>171</ele>
        <time>2026-05-13T16:34:39+02:00</time>
      </trkpt>
      <trkpt lat="46.52465" lon="4.93627">
        <ele>170.2002</ele>
        <time>2026-05-13T16:34:40+02:00</time>
      </trkpt>
      <trkpt lat="46.52471" lon="4.93625">
        <ele>169.5</ele>
        <time>2026-05-13T16:34:41+02:00</time>
      </trkpt>
      <trkpt lat="46.52481" lon="4.93622">
        <ele>169.2002</ele>
        <time>2026-05-13T16:34:42+02:00</time>
      </trkpt>
      <trkpt lat="46.52484" lon="4.9362">
        <ele>169.2998</ele>
        <time>2026-05-13T16:34:43+02:00</time>
      </trkpt>
      <trkpt lat="46.5249" lon="4.93617">
        <ele>169.2998</ele>
        <time>2026-05-13T16:34:44+02:00</time>
      </trkpt>
      <trkpt lat="46.52497" lon="4.93615">
        <ele>169.2998</ele>
        <time>2026-05-13T16:34:45+02:00</time>
      </trkpt>
      <trkpt lat="46.52506" lon="4.93611">
        <ele>169.60059</ele>
        <time>2026-05-13T16:34:46+02:00</time>
      </trkpt>
      <trkpt lat="46.52509" lon="4.9361">
        <ele>169.60059</ele>
        <time>2026-05-13T16:34:47+02:00</time>
      </trkpt>
      <trkpt lat="46.52516" lon="4.93607">
        <ele>169.60059</ele>
        <time>2026-05-13T16:34:48+02:00</time>
      </trkpt>
      <trkpt lat="46.52525" lon="4.93604">
        <ele>169.60059</ele>
        <time>2026-05-13T16:34:49+02:00</time>
      </trkpt>
      <trkpt lat="46.52528" lon="4.93604">
        <ele>169.60059</ele>
        <time>2026-05-13T16:34:50+02:00</time>
      </trkpt>
      <trkpt lat="46.52534" lon="4.93603">
        <ele>170.2002</ele>
        <time>2026-05-13T16:34:51+02:00</time>
      </trkpt>
      <trkpt lat="46.5254" lon="4.93603">
        <ele>170.2002</ele>
        <time>2026-05-13T16:34:52+02:00</time>
      </trkpt>
      <trkpt lat="46.52546" lon="4.93603">
        <ele>170.2998</ele>
        <time>2026-05-13T16:34:53+02:00</time>
      </trkpt>
      <trkpt lat="46.52553" lon="4.93602">
        <ele>170.2998</ele>
        <time>2026-05-13T16:34:54+02:00</time>
      </trkpt>
      <trkpt lat="46.52559" lon="4.93602">
        <ele>170.2998</ele>
        <time>2026-05-13T16:34:55+02:00</time>
      </trkpt>
      <trkpt lat="46.5257" lon="4.93601">
        <ele>170.10059</ele>
        <time>2026-05-13T16:34:56+02:00</time>
      </trkpt>
      <trkpt lat="46.52574" lon="4.936">
        <ele>169.7998</ele>
        <time>2026-05-13T16:34:57+02:00</time>
      </trkpt>
      <trkpt lat="46.5258" lon="4.93598">
        <ele>169.7998</ele>
        <time>2026-05-13T16:34:58+02:00</time>
      </trkpt>
      <trkpt lat="46.52591" lon="4.93595">
        <ele>170.10059</ele>
        <time>2026-05-13T16:34:59+02:00</time>
      </trkpt>
      <trkpt lat="46.52594" lon="4.93594">
        <ele>170.10059</ele>
        <time>2026-05-13T16:35:00+02:00</time>
      </trkpt>
      <trkpt lat="46.52601" lon="4.93592">
        <ele>170.10059</ele>
        <time>2026-05-13T16:35:01+02:00</time>
      </trkpt>
      <trkpt lat="46.52607" lon="4.93589">
        <ele>170.10059</ele>
        <time>2026-05-13T16:35:02+02:00</time>
      </trkpt>
      <trkpt lat="46.52614" lon="4.93586">
        <ele>171.5</ele>
        <time>2026-05-13T16:35:03+02:00</time>
      </trkpt>
      <trkpt lat="46.52621" lon="4.93584">
        <ele>170.7002</ele>
        <time>2026-05-13T16:35:04+02:00</time>
      </trkpt>
      <trkpt lat="46.52627" lon="4.9358">
        <ele>169.90039</ele>
        <time>2026-05-13T16:35:05+02:00</time>
      </trkpt>
      <trkpt lat="46.52637" lon="4.93576">
        <ele>169.2002</ele>
        <time>2026-05-13T16:35:06+02:00</time>
      </trkpt>
      <trkpt lat="46.5264" lon="4.93574">
        <ele>169.2002</ele>
        <time>2026-05-13T16:35:07+02:00</time>
      </trkpt>
      <trkpt lat="46.52647" lon="4.93571">
        <ele>169.10059</ele>
        <time>2026-05-13T16:35:08+02:00</time>
      </trkpt>
      <trkpt lat="46.52653" lon="4.93568">
        <ele>169.2998</ele>
        <time>2026-05-13T16:35:09+02:00</time>
      </trkpt>
      <trkpt lat="46.52662" lon="4.93563">
        <ele>169.2998</ele>
        <time>2026-05-13T16:35:10+02:00</time>
      </trkpt>
      <trkpt lat="46.52666" lon="4.93561">
        <ele>169.2998</ele>
        <time>2026-05-13T16:35:11+02:00</time>
      </trkpt>
      <trkpt lat="46.52672" lon="4.93558">
        <ele>169.7998</ele>
        <time>2026-05-13T16:35:12+02:00</time>
      </trkpt>
      <trkpt lat="46.52678" lon="4.93556">
        <ele>169.7998</ele>
        <time>2026-05-13T16:35:13+02:00</time>
      </trkpt>
      <trkpt lat="46.52685" lon="4.93553">
        <ele>169.7002</ele>
        <time>2026-05-13T16:35:14+02:00</time>
      </trkpt>
      <trkpt lat="46.52691" lon="4.9355">
        <ele>171.40039</ele>
        <time>2026-05-13T16:35:15+02:00</time>
      </trkpt>
      <trkpt lat="46.52697" lon="4.93548">
        <ele>171.40039</ele>
        <time>2026-05-13T16:35:16+02:00</time>
      </trkpt>
      <trkpt lat="46.52706" lon="4.93544">
        <ele>170.40039</ele>
        <time>2026-05-13T16:35:17+02:00</time>
      </trkpt>
      <trkpt lat="46.52709" lon="4.93543">
        <ele>172.40039</ele>
        <time>2026-05-13T16:35:18+02:00</time>
      </trkpt>
      <trkpt lat="46.52715" lon="4.93541">
        <ele>170.5</ele>
        <time>2026-05-13T16:35:19+02:00</time>
      </trkpt>
      <trkpt lat="46.52722" lon="4.93538">
        <ele>169.10059</ele>
        <time>2026-05-13T16:35:20+02:00</time>
      </trkpt>
      <trkpt lat="46.52728" lon="4.93536">
        <ele>169.10059</ele>
        <time>2026-05-13T16:35:21+02:00</time>
      </trkpt>
      <trkpt lat="46.52733" lon="4.93533">
        <ele>169.10059</ele>
        <time>2026-05-13T16:35:22+02:00</time>
      </trkpt>
      <trkpt lat="46.52739" lon="4.9353">
        <ele>169.10059</ele>
        <time>2026-05-13T16:35:23+02:00</time>
      </trkpt>
      <trkpt lat="46.52748" lon="4.93525">
        <ele>169.2998</ele>
        <time>2026-05-13T16:35:24+02:00</time>
      </trkpt>
      <trkpt lat="46.52751" lon="4.93523">
        <ele>169.2998</ele>
        <time>2026-05-13T16:35:25+02:00</time>
      </trkpt>
      <trkpt lat="46.52757" lon="4.93521">
        <ele>169.2998</ele>
        <time>2026-05-13T16:35:26+02:00</time>
      </trkpt>
      <trkpt lat="46.52762" lon="4.93517">
        <ele>169.60059</ele>
        <time>2026-05-13T16:35:27+02:00</time>
      </trkpt>
      <trkpt lat="46.52771" lon="4.93513">
        <ele>169.5</ele>
        <time>2026-05-13T16:35:28+02:00</time>
      </trkpt>
      <trkpt lat="46.52773" lon="4.93511">
        <ele>169.5</ele>
        <time>2026-05-13T16:35:29+02:00</time>
      </trkpt>
      <trkpt lat="46.52778" lon="4.93507">
        <ele>169.40039</ele>
        <time>2026-05-13T16:35:30+02:00</time>
      </trkpt>
      <trkpt lat="46.52783" lon="4.93502">
        <ele>169.2002</ele>
        <time>2026-05-13T16:35:31+02:00</time>
      </trkpt>
      <trkpt lat="46.52787" lon="4.93497">
        <ele>169</ele>
        <time>2026-05-13T16:35:32+02:00</time>
      </trkpt>
      <trkpt lat="46.52792" lon="4.93493">
        <ele>169</ele>
        <time>2026-05-13T16:35:33+02:00</time>
      </trkpt>
      <trkpt lat="46.52797" lon="4.9349">
        <ele>169.10059</ele>
        <time>2026-05-13T16:35:34+02:00</time>
      </trkpt>
      <trkpt lat="46.52802" lon="4.93486">
        <ele>169.10059</ele>
        <time>2026-05-13T16:35:35+02:00</time>
      </trkpt>
      <trkpt lat="46.52807" lon="4.93482">
        <ele>169.60059</ele>
        <time>2026-05-13T16:35:36+02:00</time>
      </trkpt>
      <trkpt lat="46.52813" lon="4.93479">
        <ele>169.60059</ele>
        <time>2026-05-13T16:35:37+02:00</time>
      </trkpt>
      <trkpt lat="46.52818" lon="4.93475">
        <ele>169.5</ele>
        <time>2026-05-13T16:35:38+02:00</time>
      </trkpt>
      <trkpt lat="46.52824" lon="4.93471">
        <ele>171</ele>
        <time>2026-05-13T16:35:39+02:00</time>
      </trkpt>
      <trkpt lat="46.52831" lon="4.93465">
        <ele>173.7002</ele>
        <time>2026-05-13T16:35:40+02:00</time>
      </trkpt>
      <trkpt lat="46.52834" lon="4.93463">
        <ele>173.7002</ele>
        <time>2026-05-13T16:35:41+02:00</time>
      </trkpt>
      <trkpt lat="46.5284" lon="4.93459">
        <ele>170.7002</ele>
        <time>2026-05-13T16:35:42+02:00</time>
      </trkpt>
      <trkpt lat="46.52846" lon="4.93455">
        <ele>169.40039</ele>
        <time>2026-05-13T16:35:43+02:00</time>
      </trkpt>
      <trkpt lat="46.52851" lon="4.9345">
        <ele>169.40039</ele>
        <time>2026-05-13T16:35:44+02:00</time>
      </trkpt>
      <trkpt lat="46.52857" lon="4.93446">
        <ele>169.5</ele>
        <time>2026-05-13T16:35:45+02:00</time>
      </trkpt>
      <trkpt lat="46.52862" lon="4.93442">
        <ele>169.5</ele>
        <time>2026-05-13T16:35:46+02:00</time>
      </trkpt>
      <trkpt lat="46.52868" lon="4.93438">
        <ele>169.90039</ele>
        <time>2026-05-13T16:35:47+02:00</time>
      </trkpt>
      <trkpt lat="46.52874" lon="4.93433">
        <ele>169.7998</ele>
        <time>2026-05-13T16:35:48+02:00</time>
      </trkpt>
      <trkpt lat="46.52879" lon="4.93429">
        <ele>170.2002</ele>
        <time>2026-05-13T16:35:49+02:00</time>
      </trkpt>
      <trkpt lat="46.52885" lon="4.93424">
        <ele>169.7002</ele>
        <time>2026-05-13T16:35:50+02:00</time>
      </trkpt>
      <trkpt lat="46.52891" lon="4.93419">
        <ele>169.40039</ele>
        <time>2026-05-13T16:35:51+02:00</time>
      </trkpt>
      <trkpt lat="46.52896" lon="4.93415">
        <ele>169.10059</ele>
        <time>2026-05-13T16:35:52+02:00</time>
      </trkpt>
      <trkpt lat="46.52902" lon="4.93411">
        <ele>169.2998</ele>
        <time>2026-05-13T16:35:53+02:00</time>
      </trkpt>
      <trkpt lat="46.52908" lon="4.93406">
        <ele>169.7002</ele>
        <time>2026-05-13T16:35:54+02:00</time>
      </trkpt>
      <trkpt lat="46.52915" lon="4.93401">
        <ele>169.7002</ele>
        <time>2026-05-13T16:35:55+02:00</time>
      </trkpt>
      <trkpt lat="46.52921" lon="4.93396">
        <ele>170.10059</ele>
        <time>2026-05-13T16:35:56+02:00</time>
      </trkpt>
      <trkpt lat="46.52927" lon="4.93391">
        <ele>169.7998</ele>
        <time>2026-05-13T16:35:57+02:00</time>
      </trkpt>
      <trkpt lat="46.52936" lon="4.93383">
        <ele>169.10059</ele>
        <time>2026-05-13T16:35:58+02:00</time>
      </trkpt>
      <trkpt lat="46.52938" lon="4.9338">
        <ele>169.2002</ele>
        <time>2026-05-13T16:35:59+02:00</time>
      </trkpt>
      <trkpt lat="46.52944" lon="4.93374">
        <ele>169.2002</ele>
        <time>2026-05-13T16:36:00+02:00</time>
      </trkpt>
      <trkpt lat="46.52952" lon="4.93365">
        <ele>169.60059</ele>
        <time>2026-05-13T16:36:01+02:00</time>
      </trkpt>
      <trkpt lat="46.52955" lon="4.93363">
        <ele>170.2002</ele>
        <time>2026-05-13T16:36:02+02:00</time>
      </trkpt>
      <trkpt lat="46.52961" lon="4.93357">
        <ele>170</ele>
        <time>2026-05-13T16:36:03+02:00</time>
      </trkpt>
      <trkpt lat="46.52969" lon="4.93349">
        <ele>170.2998</ele>
        <time>2026-05-13T16:36:04+02:00</time>
      </trkpt>
      <trkpt lat="46.52972" lon="4.93346">
        <ele>170</ele>
        <time>2026-05-13T16:36:05+02:00</time>
      </trkpt>
      <trkpt lat="46.52978" lon="4.93341">
        <ele>169.2998</ele>
        <time>2026-05-13T16:36:06+02:00</time>
      </trkpt>
      <trkpt lat="46.52983" lon="4.93336">
        <ele>169.60059</ele>
        <time>2026-05-13T16:36:07+02:00</time>
      </trkpt>
      <trkpt lat="46.52991" lon="4.93327">
        <ele>169.40039</ele>
        <time>2026-05-13T16:36:08+02:00</time>
      </trkpt>
      <trkpt lat="46.52994" lon="4.93325">
        <ele>169.40039</ele>
        <time>2026-05-13T16:36:09+02:00</time>
      </trkpt>
      <trkpt lat="46.52999" lon="4.93319">
        <ele>169.5</ele>
        <time>2026-05-13T16:36:10+02:00</time>
      </trkpt>
      <trkpt lat="46.53008" lon="4.93311">
        <ele>169.10059</ele>
        <time>2026-05-13T16:36:11+02:00</time>
      </trkpt>
      <trkpt lat="46.5301" lon="4.93308">
        <ele>169.10059</ele>
        <time>2026-05-13T16:36:12+02:00</time>
      </trkpt>
      <trkpt lat="46.53016" lon="4.93303">
        <ele>169.60059</ele>
        <time>2026-05-13T16:36:13+02:00</time>
      </trkpt>
      <trkpt lat="46.53024" lon="4.93295">
        <ele>169.5</ele>
        <time>2026-05-13T16:36:14+02:00</time>
      </trkpt>
      <trkpt lat="46.53026" lon="4.93292">
        <ele>170.10059</ele>
        <time>2026-05-13T16:36:15+02:00</time>
      </trkpt>
      <trkpt lat="46.53032" lon="4.93287">
        <ele>170</ele>
        <time>2026-05-13T16:36:16+02:00</time>
      </trkpt>
      <trkpt lat="46.53037" lon="4.93281">
        <ele>171.2998</ele>
        <time>2026-05-13T16:36:17+02:00</time>
      </trkpt>
      <trkpt lat="46.53045" lon="4.93273">
        <ele>172.7998</ele>
        <time>2026-05-13T16:36:18+02:00</time>
      </trkpt>
      <trkpt lat="46.53048" lon="4.93271">
        <ele>172.2998</ele>
        <time>2026-05-13T16:36:19+02:00</time>
      </trkpt>
      <trkpt lat="46.53053" lon="4.93266">
        <ele>173</ele>
        <time>2026-05-13T16:36:20+02:00</time>
      </trkpt>
      <trkpt lat="46.53061" lon="4.93258">
        <ele>173.2998</ele>
        <time>2026-05-13T16:36:21+02:00</time>
      </trkpt>
      <trkpt lat="46.53063" lon="4.93256">
        <ele>173.2998</ele>
        <time>2026-05-13T16:36:22+02:00</time>
      </trkpt>
      <trkpt lat="46.53068" lon="4.93251">
        <ele>173.60059</ele>
        <time>2026-05-13T16:36:23+02:00</time>
      </trkpt>
      <trkpt lat="46.53076" lon="4.93244">
        <ele>171.7998</ele>
        <time>2026-05-13T16:36:24+02:00</time>
      </trkpt>
      <trkpt lat="46.53078" lon="4.93242">
        <ele>173.40039</ele>
        <time>2026-05-13T16:36:25+02:00</time>
      </trkpt>
      <trkpt lat="46.53083" lon="4.93237">
        <ele>172.5</ele>
        <time>2026-05-13T16:36:26+02:00</time>
      </trkpt>
      <trkpt lat="46.53091" lon="4.9323">
        <ele>173.2002</ele>
        <time>2026-05-13T16:36:27+02:00</time>
      </trkpt>
      <trkpt lat="46.53094" lon="4.93228">
        <ele>171.7998</ele>
        <time>2026-05-13T16:36:28+02:00</time>
      </trkpt>
      <trkpt lat="46.531" lon="4.93223">
        <ele>171.2998</ele>
        <time>2026-05-13T16:36:29+02:00</time>
      </trkpt>
      <trkpt lat="46.53109" lon="4.93216">
        <ele>171.2002</ele>
        <time>2026-05-13T16:36:30+02:00</time>
      </trkpt>
      <trkpt lat="46.53111" lon="4.93214">
        <ele>171.2002</ele>
        <time>2026-05-13T16:36:31+02:00</time>
      </trkpt>
      <trkpt lat="46.53118" lon="4.93209">
        <ele>170.40039</ele>
        <time>2026-05-13T16:36:32+02:00</time>
      </trkpt>
      <trkpt lat="46.53127" lon="4.93203">
        <ele>171.40039</ele>
        <time>2026-05-13T16:36:33+02:00</time>
      </trkpt>
      <trkpt lat="46.53131" lon="4.93201">
        <ele>170.90039</ele>
        <time>2026-05-13T16:36:34+02:00</time>
      </trkpt>
      <trkpt lat="46.53137" lon="4.93197">
        <ele>171.2002</ele>
        <time>2026-05-13T16:36:35+02:00</time>
      </trkpt>
      <trkpt lat="46.53143" lon="4.93193">
        <ele>170.40039</ele>
        <time>2026-05-13T16:36:36+02:00</time>
      </trkpt>
      <trkpt lat="46.53153" lon="4.93187">
        <ele>169.60059</ele>
        <time>2026-05-13T16:36:37+02:00</time>
      </trkpt>
      <trkpt lat="46.53156" lon="4.93185">
        <ele>169.60059</ele>
        <time>2026-05-13T16:36:38+02:00</time>
      </trkpt>
      <trkpt lat="46.53163" lon="4.93181">
        <ele>169.7998</ele>
        <time>2026-05-13T16:36:39+02:00</time>
      </trkpt>
      <trkpt lat="46.53169" lon="4.93177">
        <ele>169.7002</ele>
        <time>2026-05-13T16:36:40+02:00</time>
      </trkpt>
      <trkpt lat="46.53175" lon="4.93172">
        <ele>170.10059</ele>
        <time>2026-05-13T16:36:41+02:00</time>
      </trkpt>
      <trkpt lat="46.53182" lon="4.93167">
        <ele>169.7998</ele>
        <time>2026-05-13T16:36:42+02:00</time>
      </trkpt>
      <trkpt lat="46.53188" lon="4.93163">
        <ele>169.7998</ele>
        <time>2026-05-13T16:36:43+02:00</time>
      </trkpt>
      <trkpt lat="46.53197" lon="4.93156">
        <ele>169.5</ele>
        <time>2026-05-13T16:36:44+02:00</time>
      </trkpt>
      <trkpt lat="46.532" lon="4.93154">
        <ele>169.40039</ele>
        <time>2026-05-13T16:36:45+02:00</time>
      </trkpt>
      <trkpt lat="46.53206" lon="4.93149">
        <ele>169.40039</ele>
        <time>2026-05-13T16:36:46+02:00</time>
      </trkpt>
      <trkpt lat="46.53214" lon="4.93142">
        <ele>169.90039</ele>
        <time>2026-05-13T16:36:47+02:00</time>
      </trkpt>
      <trkpt lat="46.53217" lon="4.93139">
        <ele>171.60059</ele>
        <time>2026-05-13T16:36:48+02:00</time>
      </trkpt>
      <trkpt lat="46.53223" lon="4.93134">
        <ele>171.2998</ele>
        <time>2026-05-13T16:36:49+02:00</time>
      </trkpt>
      <trkpt lat="46.53232" lon="4.93128">
        <ele>171</ele>
        <time>2026-05-13T16:36:50+02:00</time>
      </trkpt>
      <trkpt lat="46.53235" lon="4.93125">
        <ele>171</ele>
        <time>2026-05-13T16:36:51+02:00</time>
      </trkpt>
      <trkpt lat="46.53241" lon="4.93121">
        <ele>170.2002</ele>
        <time>2026-05-13T16:36:52+02:00</time>
      </trkpt>
      <trkpt lat="46.5325" lon="4.93115">
        <ele>169.60059</ele>
        <time>2026-05-13T16:36:53+02:00</time>
      </trkpt>
      <trkpt lat="46.53253" lon="4.93113">
        <ele>170</ele>
        <time>2026-05-13T16:36:54+02:00</time>
      </trkpt>
      <trkpt lat="46.53259" lon="4.93109">
        <ele>169.7998</ele>
        <time>2026-05-13T16:36:55+02:00</time>
      </trkpt>
      <trkpt lat="46.53269" lon="4.93102">
        <ele>170.2002</ele>
        <time>2026-05-13T16:36:56+02:00</time>
      </trkpt>
      <trkpt lat="46.53272" lon="4.931">
        <ele>170.2002</ele>
        <time>2026-05-13T16:36:57+02:00</time>
      </trkpt>
      <trkpt lat="46.53278" lon="4.93095">
        <ele>171.60059</ele>
        <time>2026-05-13T16:36:58+02:00</time>
      </trkpt>
      <trkpt lat="46.53284" lon="4.93091">
        <ele>171.5</ele>
        <time>2026-05-13T16:36:59+02:00</time>
      </trkpt>
      <trkpt lat="46.53293" lon="4.93083">
        <ele>172.10059</ele>
        <time>2026-05-13T16:37:00+02:00</time>
      </trkpt>
      <trkpt lat="46.53296" lon="4.9308">
        <ele>171.7002</ele>
        <time>2026-05-13T16:37:01+02:00</time>
      </trkpt>
      <trkpt lat="46.53302" lon="4.93074">
        <ele>170.5</ele>
        <time>2026-05-13T16:37:02+02:00</time>
      </trkpt>
      <trkpt lat="46.5331" lon="4.93066">
        <ele>170.5</ele>
        <time>2026-05-13T16:37:03+02:00</time>
      </trkpt>
      <trkpt lat="46.53313" lon="4.93063">
        <ele>170.2002</ele>
        <time>2026-05-13T16:37:04+02:00</time>
      </trkpt>
      <trkpt lat="46.53319" lon="4.93058">
        <ele>170.7002</ele>
        <time>2026-05-13T16:37:05+02:00</time>
      </trkpt>
      <trkpt lat="46.53325" lon="4.93053">
        <ele>171.2998</ele>
        <time>2026-05-13T16:37:06+02:00</time>
      </trkpt>
      <trkpt lat="46.53335" lon="4.93046">
        <ele>170.7998</ele>
        <time>2026-05-13T16:37:07+02:00</time>
      </trkpt>
      <trkpt lat="46.53338" lon="4.93044">
        <ele>170.90039</ele>
        <time>2026-05-13T16:37:08+02:00</time>
      </trkpt>
      <trkpt lat="46.53344" lon="4.93039">
        <ele>170.2998</ele>
        <time>2026-05-13T16:37:09+02:00</time>
      </trkpt>
      <trkpt lat="46.53351" lon="4.93034">
        <ele>170.2998</ele>
        <time>2026-05-13T16:37:10+02:00</time>
      </trkpt>
      <trkpt lat="46.53357" lon="4.9303">
        <ele>169.90039</ele>
        <time>2026-05-13T16:37:11+02:00</time>
      </trkpt>
      <trkpt lat="46.53363" lon="4.93027">
        <ele>170.40039</ele>
        <time>2026-05-13T16:37:12+02:00</time>
      </trkpt>
      <trkpt lat="46.53369" lon="4.93023">
        <ele>170.2002</ele>
        <time>2026-05-13T16:37:13+02:00</time>
      </trkpt>
      <trkpt lat="46.53375" lon="4.93018">
        <ele>170.60059</ele>
        <time>2026-05-13T16:37:14+02:00</time>
      </trkpt>
      <trkpt lat="46.53384" lon="4.93012">
        <ele>169.7002</ele>
        <time>2026-05-13T16:37:15+02:00</time>
      </trkpt>
      <trkpt lat="46.53386" lon="4.93009">
        <ele>169.90039</ele>
        <time>2026-05-13T16:37:16+02:00</time>
      </trkpt>
      <trkpt lat="46.53393" lon="4.93005">
        <ele>169.40039</ele>
        <time>2026-05-13T16:37:17+02:00</time>
      </trkpt>
      <trkpt lat="46.53401" lon="4.92999">
        <ele>169.60059</ele>
        <time>2026-05-13T16:37:18+02:00</time>
      </trkpt>
      <trkpt lat="46.53404" lon="4.92996">
        <ele>169.60059</ele>
        <time>2026-05-13T16:37:19+02:00</time>
      </trkpt>
      <trkpt lat="46.5341" lon="4.92992">
        <ele>170</ele>
        <time>2026-05-13T16:37:20+02:00</time>
      </trkpt>
      <trkpt lat="46.53419" lon="4.92985">
        <ele>170.10059</ele>
        <time>2026-05-13T16:37:21+02:00</time>
      </trkpt>
      <trkpt lat="46.53422" lon="4.92983">
        <ele>170.10059</ele>
        <time>2026-05-13T16:37:22+02:00</time>
      </trkpt>
      <trkpt lat="46.53428" lon="4.92978">
        <ele>169.7002</ele>
        <time>2026-05-13T16:37:23+02:00</time>
      </trkpt>
      <trkpt lat="46.53433" lon="4.92973">
        <ele>169.5</ele>
        <time>2026-05-13T16:37:24+02:00</time>
      </trkpt>
      <trkpt lat="46.53442" lon="4.92966">
        <ele>169.60059</ele>
        <time>2026-05-13T16:37:25+02:00</time>
      </trkpt>
      <trkpt lat="46.53444" lon="4.92963">
        <ele>169.60059</ele>
        <time>2026-05-13T16:37:26+02:00</time>
      </trkpt>
      <trkpt lat="46.5345" lon="4.92959">
        <ele>169.7998</ele>
        <time>2026-05-13T16:37:27+02:00</time>
      </trkpt>
      <trkpt lat="46.53459" lon="4.92953">
        <ele>169.7998</ele>
        <time>2026-05-13T16:37:28+02:00</time>
      </trkpt>
      <trkpt lat="46.53473" lon="4.92944">
        <ele>170</ele>
        <time>2026-05-13T16:37:29+02:00</time>
      </trkpt>
      <trkpt lat="46.53478" lon="4.92941">
        <ele>170.2002</ele>
        <time>2026-05-13T16:37:30+02:00</time>
      </trkpt>
      <trkpt lat="46.53486" lon="4.92936">
        <ele>170</ele>
        <time>2026-05-13T16:37:31+02:00</time>
      </trkpt>
      <trkpt lat="46.53489" lon="4.92934">
        <ele>170.2998</ele>
        <time>2026-05-13T16:37:32+02:00</time>
      </trkpt>
      <trkpt lat="46.53494" lon="4.92931">
        <ele>170</ele>
        <time>2026-05-13T16:37:33+02:00</time>
      </trkpt>
      <trkpt lat="46.53498" lon="4.92927">
        <ele>169.7002</ele>
        <time>2026-05-13T16:37:34+02:00</time>
      </trkpt>
      <trkpt lat="46.53502" lon="4.92924">
        <ele>169.60059</ele>
        <time>2026-05-13T16:37:35+02:00</time>
      </trkpt>
      <trkpt lat="46.53507" lon="4.92921">
        <ele>169.60059</ele>
        <time>2026-05-13T16:37:36+02:00</time>
      </trkpt>
      <trkpt lat="46.53512" lon="4.92918">
        <ele>169.60059</ele>
        <time>2026-05-13T16:37:37+02:00</time>
      </trkpt>
      <trkpt lat="46.5352" lon="4.92913">
        <ele>169.5</ele>
        <time>2026-05-13T16:37:38+02:00</time>
      </trkpt>
      <trkpt lat="46.53522" lon="4.92912">
        <ele>169.5</ele>
        <time>2026-05-13T16:37:39+02:00</time>
      </trkpt>
      <trkpt lat="46.53528" lon="4.92908">
        <ele>169.2998</ele>
        <time>2026-05-13T16:37:40+02:00</time>
      </trkpt>
      <trkpt lat="46.53533" lon="4.92905">
        <ele>169.40039</ele>
        <time>2026-05-13T16:37:41+02:00</time>
      </trkpt>
      <trkpt lat="46.53538" lon="4.92902">
        <ele>169.40039</ele>
        <time>2026-05-13T16:37:42+02:00</time>
      </trkpt>
      <trkpt lat="46.53544" lon="4.92898">
        <ele>169.5</ele>
        <time>2026-05-13T16:37:43+02:00</time>
      </trkpt>
      <trkpt lat="46.53552" lon="4.92893">
        <ele>169.5</ele>
        <time>2026-05-13T16:37:44+02:00</time>
      </trkpt>
      <trkpt lat="46.53555" lon="4.92891">
        <ele>169.60059</ele>
        <time>2026-05-13T16:37:45+02:00</time>
      </trkpt>
      <trkpt lat="46.5356" lon="4.92888">
        <ele>169.60059</ele>
        <time>2026-05-13T16:37:46+02:00</time>
      </trkpt>
      <trkpt lat="46.5357" lon="4.92883">
        <ele>169.60059</ele>
        <time>2026-05-13T16:37:47+02:00</time>
      </trkpt>
      <trkpt lat="46.53573" lon="4.92881">
        <ele>169.60059</ele>
        <time>2026-05-13T16:37:48+02:00</time>
      </trkpt>
      <trkpt lat="46.53579" lon="4.92878">
        <ele>169.60059</ele>
        <time>2026-05-13T16:37:49+02:00</time>
      </trkpt>
      <trkpt lat="46.53586" lon="4.92875">
        <ele>169.60059</ele>
        <time>2026-05-13T16:37:50+02:00</time>
      </trkpt>
      <trkpt lat="46.53593" lon="4.92872">
        <ele>169.5</ele>
        <time>2026-05-13T16:37:51+02:00</time>
      </trkpt>
      <trkpt lat="46.536" lon="4.92868">
        <ele>169.5</ele>
        <time>2026-05-13T16:37:52+02:00</time>
      </trkpt>
      <trkpt lat="46.53607" lon="4.92864">
        <ele>169.5</ele>
        <time>2026-05-13T16:37:53+02:00</time>
      </trkpt>
      <trkpt lat="46.53618" lon="4.92858">
        <ele>169.5</ele>
        <time>2026-05-13T16:37:54+02:00</time>
      </trkpt>
      <trkpt lat="46.53621" lon="4.92857">
        <ele>169.5</ele>
        <time>2026-05-13T16:37:55+02:00</time>
      </trkpt>
      <trkpt lat="46.53628" lon="4.92853">
        <ele>169.60059</ele>
        <time>2026-05-13T16:37:56+02:00</time>
      </trkpt>
      <trkpt lat="46.53637" lon="4.92848">
        <ele>169.60059</ele>
        <time>2026-05-13T16:37:57+02:00</time>
      </trkpt>
      <trkpt lat="46.5364" lon="4.92846">
        <ele>169.60059</ele>
        <time>2026-05-13T16:37:58+02:00</time>
      </trkpt>
      <trkpt lat="46.53646" lon="4.92843">
        <ele>169.60059</ele>
        <time>2026-05-13T16:37:59+02:00</time>
      </trkpt>
      <trkpt lat="46.53655" lon="4.92838">
        <ele>169.5</ele>
        <time>2026-05-13T16:38:00+02:00</time>
      </trkpt>
      <trkpt lat="46.53658" lon="4.92836">
        <ele>169.5</ele>
        <time>2026-05-13T16:38:01+02:00</time>
      </trkpt>
      <trkpt lat="46.53664" lon="4.92833">
        <ele>169.60059</ele>
        <time>2026-05-13T16:38:02+02:00</time>
      </trkpt>
      <trkpt lat="46.53673" lon="4.92828">
        <ele>169.5</ele>
        <time>2026-05-13T16:38:03+02:00</time>
      </trkpt>
      <trkpt lat="46.53677" lon="4.92826">
        <ele>169.5</ele>
        <time>2026-05-13T16:38:04+02:00</time>
      </trkpt>
      <trkpt lat="46.53683" lon="4.92822">
        <ele>169.5</ele>
        <time>2026-05-13T16:38:05+02:00</time>
      </trkpt>
      <trkpt lat="46.53692" lon="4.92817">
        <ele>169.60059</ele>
        <time>2026-05-13T16:38:06+02:00</time>
      </trkpt>
      <trkpt lat="46.53695" lon="4.92815">
        <ele>169.60059</ele>
        <time>2026-05-13T16:38:07+02:00</time>
      </trkpt>
      <trkpt lat="46.53702" lon="4.92812">
        <ele>169.60059</ele>
        <time>2026-05-13T16:38:08+02:00</time>
      </trkpt>
      <trkpt lat="46.53711" lon="4.92807">
        <ele>169.60059</ele>
        <time>2026-05-13T16:38:09+02:00</time>
      </trkpt>
      <trkpt lat="46.53714" lon="4.92806">
        <ele>169.60059</ele>
        <time>2026-05-13T16:38:10+02:00</time>
      </trkpt>
      <trkpt lat="46.5372" lon="4.92802">
        <ele>169.60059</ele>
        <time>2026-05-13T16:38:11+02:00</time>
      </trkpt>
      <trkpt lat="46.53729" lon="4.92797">
        <ele>169.60059</ele>
        <time>2026-05-13T16:38:12+02:00</time>
      </trkpt>
      <trkpt lat="46.53732" lon="4.92796">
        <ele>169.5</ele>
        <time>2026-05-13T16:38:13+02:00</time>
      </trkpt>
      <trkpt lat="46.53738" lon="4.92793">
        <ele>169.60059</ele>
        <time>2026-05-13T16:38:14+02:00</time>
      </trkpt>
      <trkpt lat="46.53743" lon="4.92789">
        <ele>169.60059</ele>
        <time>2026-05-13T16:38:15+02:00</time>
      </trkpt>
      <trkpt lat="46.5375" lon="4.92786">
        <ele>169.5</ele>
        <time>2026-05-13T16:38:16+02:00</time>
      </trkpt>
      <trkpt lat="46.53756" lon="4.92783">
        <ele>169.5</ele>
        <time>2026-05-13T16:38:17+02:00</time>
      </trkpt>
      <trkpt lat="46.53764" lon="4.92778">
        <ele>169.60059</ele>
        <time>2026-05-13T16:38:18+02:00</time>
      </trkpt>
      <trkpt lat="46.53767" lon="4.92776">
        <ele>169.60059</ele>
        <time>2026-05-13T16:38:19+02:00</time>
      </trkpt>
      <trkpt lat="46.53773" lon="4.92773">
        <ele>169.60059</ele>
        <time>2026-05-13T16:38:20+02:00</time>
      </trkpt>
      <trkpt lat="46.53782" lon="4.92768">
        <ele>169.60059</ele>
        <time>2026-05-13T16:38:21+02:00</time>
      </trkpt>
      <trkpt lat="46.53784" lon="4.92766">
        <ele>169.60059</ele>
        <time>2026-05-13T16:38:22+02:00</time>
      </trkpt>
      <trkpt lat="46.5379" lon="4.92762">
        <ele>169.7002</ele>
        <time>2026-05-13T16:38:23+02:00</time>
      </trkpt>
      <trkpt lat="46.53796" lon="4.92759">
        <ele>169.7002</ele>
        <time>2026-05-13T16:38:24+02:00</time>
      </trkpt>
      <trkpt lat="46.53801" lon="4.92755">
        <ele>169.60059</ele>
        <time>2026-05-13T16:38:25+02:00</time>
      </trkpt>
      <trkpt lat="46.53807" lon="4.92751">
        <ele>169.60059</ele>
        <time>2026-05-13T16:38:26+02:00</time>
      </trkpt>
      <trkpt lat="46.53813" lon="4.92748">
        <ele>169.5</ele>
        <time>2026-05-13T16:38:27+02:00</time>
      </trkpt>
      <trkpt lat="46.53822" lon="4.92742">
        <ele>169.5</ele>
        <time>2026-05-13T16:38:28+02:00</time>
      </trkpt>
      <trkpt lat="46.53825" lon="4.92741">
        <ele>169.5</ele>
        <time>2026-05-13T16:38:29+02:00</time>
      </trkpt>
      <trkpt lat="46.5383" lon="4.92737">
        <ele>169.60059</ele>
        <time>2026-05-13T16:38:30+02:00</time>
      </trkpt>
      <trkpt lat="46.53839" lon="4.92731">
        <ele>169.60059</ele>
        <time>2026-05-13T16:38:31+02:00</time>
      </trkpt>
      <trkpt lat="46.53842" lon="4.9273">
        <ele>169.60059</ele>
        <time>2026-05-13T16:38:32+02:00</time>
      </trkpt>
      <trkpt lat="46.53848" lon="4.92727">
        <ele>169.60059</ele>
        <time>2026-05-13T16:38:33+02:00</time>
      </trkpt>
      <trkpt lat="46.53857" lon="4.92721">
        <ele>169.60059</ele>
        <time>2026-05-13T16:38:34+02:00</time>
      </trkpt>
      <trkpt lat="46.5386" lon="4.92719">
        <ele>169.60059</ele>
        <time>2026-05-13T16:38:35+02:00</time>
      </trkpt>
      <trkpt lat="46.53866" lon="4.92716">
        <ele>169.60059</ele>
        <time>2026-05-13T16:38:36+02:00</time>
      </trkpt>
      <trkpt lat="46.53875" lon="4.9271">
        <ele>169.5</ele>
        <time>2026-05-13T16:38:37+02:00</time>
      </trkpt>
      <trkpt lat="46.53879" lon="4.92709">
        <ele>169.5</ele>
        <time>2026-05-13T16:38:38+02:00</time>
      </trkpt>
      <trkpt lat="46.53885" lon="4.92705">
        <ele>169.5</ele>
        <time>2026-05-13T16:38:39+02:00</time>
      </trkpt>
      <trkpt lat="46.53894" lon="4.92701">
        <ele>169.60059</ele>
        <time>2026-05-13T16:38:40+02:00</time>
      </trkpt>
      <trkpt lat="46.53898" lon="4.92699">
        <ele>169.60059</ele>
        <time>2026-05-13T16:38:41+02:00</time>
      </trkpt>
      <trkpt lat="46.53904" lon="4.92696">
        <ele>169.60059</ele>
        <time>2026-05-13T16:38:42+02:00</time>
      </trkpt>
      <trkpt lat="46.53913" lon="4.92692">
        <ele>169.7002</ele>
        <time>2026-05-13T16:38:43+02:00</time>
      </trkpt>
      <trkpt lat="46.53917" lon="4.92691">
        <ele>169.7002</ele>
        <time>2026-05-13T16:38:44+02:00</time>
      </trkpt>
      <trkpt lat="46.53923" lon="4.92688">
        <ele>169.7002</ele>
        <time>2026-05-13T16:38:45+02:00</time>
      </trkpt>
      <trkpt lat="46.53933" lon="4.92683">
        <ele>169.7002</ele>
        <time>2026-05-13T16:38:46+02:00</time>
      </trkpt>
      <trkpt lat="46.53936" lon="4.92682">
        <ele>169.7002</ele>
        <time>2026-05-13T16:38:47+02:00</time>
      </trkpt>
      <trkpt lat="46.53943" lon="4.92679">
        <ele>169.7002</ele>
        <time>2026-05-13T16:38:48+02:00</time>
      </trkpt>
      <trkpt lat="46.53953" lon="4.92676">
        <ele>170</ele>
        <time>2026-05-13T16:38:49+02:00</time>
      </trkpt>
      <trkpt lat="46.53959" lon="4.92673">
        <ele>170.10059</ele>
        <time>2026-05-13T16:38:50+02:00</time>
      </trkpt>
      <trkpt lat="46.53962" lon="4.92671">
        <ele>170.10059</ele>
        <time>2026-05-13T16:38:51+02:00</time>
      </trkpt>
      <trkpt lat="46.53969" lon="4.92668">
        <ele>170.40039</ele>
        <time>2026-05-13T16:38:52+02:00</time>
      </trkpt>
      <trkpt lat="46.53978" lon="4.92664">
        <ele>170.2002</ele>
        <time>2026-05-13T16:38:53+02:00</time>
      </trkpt>
      <trkpt lat="46.53982" lon="4.92663">
        <ele>170</ele>
        <time>2026-05-13T16:38:54+02:00</time>
      </trkpt>
      <trkpt lat="46.53988" lon="4.9266">
        <ele>169.7998</ele>
        <time>2026-05-13T16:38:55+02:00</time>
      </trkpt>
      <trkpt lat="46.53997" lon="4.92656">
        <ele>169.7998</ele>
        <time>2026-05-13T16:38:56+02:00</time>
      </trkpt>
      <trkpt lat="46.54" lon="4.92655">
        <ele>169.60059</ele>
        <time>2026-05-13T16:38:57+02:00</time>
      </trkpt>
      <trkpt lat="46.54006" lon="4.92652">
        <ele>169.40039</ele>
        <time>2026-05-13T16:38:58+02:00</time>
      </trkpt>
      <trkpt lat="46.54012" lon="4.92649">
        <ele>169.7002</ele>
        <time>2026-05-13T16:38:59+02:00</time>
      </trkpt>
      <trkpt lat="46.54019" lon="4.92647">
        <ele>169.7002</ele>
        <time>2026-05-13T16:39:00+02:00</time>
      </trkpt>
      <trkpt lat="46.54025" lon="4.92645">
        <ele>169.60059</ele>
        <time>2026-05-13T16:39:01+02:00</time>
      </trkpt>
      <trkpt lat="46.54032" lon="4.92643">
        <ele>169.60059</ele>
        <time>2026-05-13T16:39:02+02:00</time>
      </trkpt>
      <trkpt lat="46.54041" lon="4.92639">
        <ele>169.7998</ele>
        <time>2026-05-13T16:39:03+02:00</time>
      </trkpt>
      <trkpt lat="46.54044" lon="4.92638">
        <ele>169.7998</ele>
        <time>2026-05-13T16:39:04+02:00</time>
      </trkpt>
      <trkpt lat="46.54051" lon="4.92636">
        <ele>169.60059</ele>
        <time>2026-05-13T16:39:05+02:00</time>
      </trkpt>
      <trkpt lat="46.5406" lon="4.92632">
        <ele>169.5</ele>
        <time>2026-05-13T16:39:06+02:00</time>
      </trkpt>
      <trkpt lat="46.54064" lon="4.9263">
        <ele>169.5</ele>
        <time>2026-05-13T16:39:07+02:00</time>
      </trkpt>
      <trkpt lat="46.5407" lon="4.92628">
        <ele>169.5</ele>
        <time>2026-05-13T16:39:08+02:00</time>
      </trkpt>
      <trkpt lat="46.54079" lon="4.92624">
        <ele>169.5</ele>
        <time>2026-05-13T16:39:09+02:00</time>
      </trkpt>
      <trkpt lat="46.54082" lon="4.92622">
        <ele>169.5</ele>
        <time>2026-05-13T16:39:10+02:00</time>
      </trkpt>
      <trkpt lat="46.54088" lon="4.9262">
        <ele>169.5</ele>
        <time>2026-05-13T16:39:11+02:00</time>
      </trkpt>
      <trkpt lat="46.54097" lon="4.92615">
        <ele>169.5</ele>
        <time>2026-05-13T16:39:12+02:00</time>
      </trkpt>
      <trkpt lat="46.54101" lon="4.92614">
        <ele>169.5</ele>
        <time>2026-05-13T16:39:13+02:00</time>
      </trkpt>
      <trkpt lat="46.54107" lon="4.92611">
        <ele>169.5</ele>
        <time>2026-05-13T16:39:14+02:00</time>
      </trkpt>
      <trkpt lat="46.54116" lon="4.92607">
        <ele>169.60059</ele>
        <time>2026-05-13T16:39:15+02:00</time>
      </trkpt>
      <trkpt lat="46.54119" lon="4.92605">
        <ele>169.60059</ele>
        <time>2026-05-13T16:39:16+02:00</time>
      </trkpt>
      <trkpt lat="46.54125" lon="4.92602">
        <ele>169.60059</ele>
        <time>2026-05-13T16:39:17+02:00</time>
      </trkpt>
      <trkpt lat="46.54135" lon="4.92598">
        <ele>169.7998</ele>
        <time>2026-05-13T16:39:18+02:00</time>
      </trkpt>
      <trkpt lat="46.54138" lon="4.92596">
        <ele>169.7998</ele>
        <time>2026-05-13T16:39:19+02:00</time>
      </trkpt>
      <trkpt lat="46.54143" lon="4.92593">
        <ele>169.7998</ele>
        <time>2026-05-13T16:39:20+02:00</time>
      </trkpt>
      <trkpt lat="46.54149" lon="4.9259">
        <ele>169.90039</ele>
        <time>2026-05-13T16:39:21+02:00</time>
      </trkpt>
      <trkpt lat="46.54158" lon="4.92585">
        <ele>169.60059</ele>
        <time>2026-05-13T16:39:22+02:00</time>
      </trkpt>
      <trkpt lat="46.54161" lon="4.92584">
        <ele>169.60059</ele>
        <time>2026-05-13T16:39:23+02:00</time>
      </trkpt>
      <trkpt lat="46.54167" lon="4.9258">
        <ele>169.5</ele>
        <time>2026-05-13T16:39:24+02:00</time>
      </trkpt>
      <trkpt lat="46.54175" lon="4.92575">
        <ele>169.5</ele>
        <time>2026-05-13T16:39:25+02:00</time>
      </trkpt>
      <trkpt lat="46.54178" lon="4.92573">
        <ele>169.60059</ele>
        <time>2026-05-13T16:39:26+02:00</time>
      </trkpt>
      <trkpt lat="46.54184" lon="4.9257">
        <ele>169.60059</ele>
        <time>2026-05-13T16:39:27+02:00</time>
      </trkpt>
      <trkpt lat="46.5419" lon="4.92567">
        <ele>169.60059</ele>
        <time>2026-05-13T16:39:28+02:00</time>
      </trkpt>
      <trkpt lat="46.54196" lon="4.92564">
        <ele>169.7002</ele>
        <time>2026-05-13T16:39:29+02:00</time>
      </trkpt>
      <trkpt lat="46.54202" lon="4.92562">
        <ele>169.7002</ele>
        <time>2026-05-13T16:39:30+02:00</time>
      </trkpt>
      <trkpt lat="46.54212" lon="4.92558">
        <ele>169.7002</ele>
        <time>2026-05-13T16:39:31+02:00</time>
      </trkpt>
      <trkpt lat="46.54215" lon="4.92557">
        <ele>169.7002</ele>
        <time>2026-05-13T16:39:32+02:00</time>
      </trkpt>
      <trkpt lat="46.54221" lon="4.92554">
        <ele>169.7002</ele>
        <time>2026-05-13T16:39:33+02:00</time>
      </trkpt>
      <trkpt lat="46.54228" lon="4.92551">
        <ele>169.60059</ele>
        <time>2026-05-13T16:39:34+02:00</time>
      </trkpt>
      <trkpt lat="46.54237" lon="4.92546">
        <ele>169.5</ele>
        <time>2026-05-13T16:39:35+02:00</time>
      </trkpt>
      <trkpt lat="46.54241" lon="4.92545">
        <ele>169.5</ele>
        <time>2026-05-13T16:39:36+02:00</time>
      </trkpt>
      <trkpt lat="46.54247" lon="4.92542">
        <ele>169.5</ele>
        <time>2026-05-13T16:39:37+02:00</time>
      </trkpt>
      <trkpt lat="46.54256" lon="4.92537">
        <ele>169.5</ele>
        <time>2026-05-13T16:39:38+02:00</time>
      </trkpt>
      <trkpt lat="46.54262" lon="4.92534">
        <ele>169.60059</ele>
        <time>2026-05-13T16:39:39+02:00</time>
      </trkpt>
      <trkpt lat="46.54265" lon="4.92532">
        <ele>169.60059</ele>
        <time>2026-05-13T16:39:40+02:00</time>
      </trkpt>
      <trkpt lat="46.54271" lon="4.92528">
        <ele>169.60059</ele>
        <time>2026-05-13T16:39:41+02:00</time>
      </trkpt>
      <trkpt lat="46.54279" lon="4.92523">
        <ele>169.60059</ele>
        <time>2026-05-13T16:39:42+02:00</time>
      </trkpt>
      <trkpt lat="46.54283" lon="4.92521">
        <ele>169.7002</ele>
        <time>2026-05-13T16:39:43+02:00</time>
      </trkpt>
      <trkpt lat="46.54288" lon="4.92517">
        <ele>169.60059</ele>
        <time>2026-05-13T16:39:44+02:00</time>
      </trkpt>
      <trkpt lat="46.54294" lon="4.92513">
        <ele>169.5</ele>
        <time>2026-05-13T16:39:45+02:00</time>
      </trkpt>
      <trkpt lat="46.54299" lon="4.9251">
        <ele>169.5</ele>
        <time>2026-05-13T16:39:46+02:00</time>
      </trkpt>
      <trkpt lat="46.54305" lon="4.92506">
        <ele>169.5</ele>
        <time>2026-05-13T16:39:47+02:00</time>
      </trkpt>
      <trkpt lat="46.54311" lon="4.92502">
        <ele>169.5</ele>
        <time>2026-05-13T16:39:48+02:00</time>
      </trkpt>
      <trkpt lat="46.54316" lon="4.925">
        <ele>169.5</ele>
        <time>2026-05-13T16:39:49+02:00</time>
      </trkpt>
      <trkpt lat="46.54321" lon="4.92496">
        <ele>169.60059</ele>
        <time>2026-05-13T16:39:50+02:00</time>
      </trkpt>
      <trkpt lat="46.54327" lon="4.92493">
        <ele>169.60059</ele>
        <time>2026-05-13T16:39:51+02:00</time>
      </trkpt>
      <trkpt lat="46.54335" lon="4.92488">
        <ele>169.5</ele>
        <time>2026-05-13T16:39:52+02:00</time>
      </trkpt>
      <trkpt lat="46.54338" lon="4.92486">
        <ele>169.7002</ele>
        <time>2026-05-13T16:39:53+02:00</time>
      </trkpt>
      <trkpt lat="46.54343" lon="4.92483">
        <ele>169.7002</ele>
        <time>2026-05-13T16:39:54+02:00</time>
      </trkpt>
      <trkpt lat="46.54349" lon="4.92479">
        <ele>169.90039</ele>
        <time>2026-05-13T16:39:55+02:00</time>
      </trkpt>
      <trkpt lat="46.54355" lon="4.92476">
        <ele>169.7002</ele>
        <time>2026-05-13T16:39:56+02:00</time>
      </trkpt>
      <trkpt lat="46.54361" lon="4.92473">
        <ele>169.60059</ele>
        <time>2026-05-13T16:39:57+02:00</time>
      </trkpt>
      <trkpt lat="46.54367" lon="4.92471">
        <ele>169.60059</ele>
        <time>2026-05-13T16:39:58+02:00</time>
      </trkpt>
      <trkpt lat="46.54373" lon="4.9247">
        <ele>169.5</ele>
        <time>2026-05-13T16:39:59+02:00</time>
      </trkpt>
      <trkpt lat="46.54379" lon="4.92469">
        <ele>169.5</ele>
        <time>2026-05-13T16:40:00+02:00</time>
      </trkpt>
      <trkpt lat="46.54386" lon="4.92467">
        <ele>169.5</ele>
        <time>2026-05-13T16:40:01+02:00</time>
      </trkpt>
      <trkpt lat="46.54392" lon="4.92465">
        <ele>169.60059</ele>
        <time>2026-05-13T16:40:02+02:00</time>
      </trkpt>
      <trkpt lat="46.54398" lon="4.92462">
        <ele>169.60059</ele>
        <time>2026-05-13T16:40:03+02:00</time>
      </trkpt>
      <trkpt lat="46.54407" lon="4.92458">
        <ele>169.60059</ele>
        <time>2026-05-13T16:40:04+02:00</time>
      </trkpt>
      <trkpt lat="46.5441" lon="4.92457">
        <ele>169.60059</ele>
        <time>2026-05-13T16:40:05+02:00</time>
      </trkpt>
      <trkpt lat="46.54416" lon="4.92453">
        <ele>169.60059</ele>
        <time>2026-05-13T16:40:06+02:00</time>
      </trkpt>
      <trkpt lat="46.54423" lon="4.9245">
        <ele>169.7002</ele>
        <time>2026-05-13T16:40:07+02:00</time>
      </trkpt>
      <trkpt lat="46.54429" lon="4.92447">
        <ele>169.7002</ele>
        <time>2026-05-13T16:40:08+02:00</time>
      </trkpt>
      <trkpt lat="46.54435" lon="4.92443">
        <ele>169.60059</ele>
        <time>2026-05-13T16:40:09+02:00</time>
      </trkpt>
      <trkpt lat="46.54441" lon="4.92439">
        <ele>169.60059</ele>
        <time>2026-05-13T16:40:10+02:00</time>
      </trkpt>
      <trkpt lat="46.54447" lon="4.92435">
        <ele>169.60059</ele>
        <time>2026-05-13T16:40:11+02:00</time>
      </trkpt>
      <trkpt lat="46.54453" lon="4.92431">
        <ele>169.60059</ele>
        <time>2026-05-13T16:40:12+02:00</time>
      </trkpt>
      <trkpt lat="46.54459" lon="4.92427">
        <ele>169.5</ele>
        <time>2026-05-13T16:40:13+02:00</time>
      </trkpt>
      <trkpt lat="46.54464" lon="4.92423">
        <ele>169.60059</ele>
        <time>2026-05-13T16:40:14+02:00</time>
      </trkpt>
      <trkpt lat="46.5447" lon="4.92418">
        <ele>169.60059</ele>
        <time>2026-05-13T16:40:15+02:00</time>
      </trkpt>
      <trkpt lat="46.54476" lon="4.92413">
        <ele>169.60059</ele>
        <time>2026-05-13T16:40:16+02:00</time>
      </trkpt>
      <trkpt lat="46.54482" lon="4.92408">
        <ele>169.7002</ele>
        <time>2026-05-13T16:40:17+02:00</time>
      </trkpt>
      <trkpt lat="46.54488" lon="4.92403">
        <ele>169.7002</ele>
        <time>2026-05-13T16:40:18+02:00</time>
      </trkpt>
      <trkpt lat="46.54493" lon="4.92398">
        <ele>169.60059</ele>
        <time>2026-05-13T16:40:19+02:00</time>
      </trkpt>
      <trkpt lat="46.54502" lon="4.92391">
        <ele>169.5</ele>
        <time>2026-05-13T16:40:20+02:00</time>
      </trkpt>
      <trkpt lat="46.54505" lon="4.92389">
        <ele>169.5</ele>
        <time>2026-05-13T16:40:21+02:00</time>
      </trkpt>
      <trkpt lat="46.54511" lon="4.92384">
        <ele>169.5</ele>
        <time>2026-05-13T16:40:22+02:00</time>
      </trkpt>
      <trkpt lat="46.54519" lon="4.92377">
        <ele>169.60059</ele>
        <time>2026-05-13T16:40:23+02:00</time>
      </trkpt>
      <trkpt lat="46.54522" lon="4.92375">
        <ele>169.7002</ele>
        <time>2026-05-13T16:40:24+02:00</time>
      </trkpt>
      <trkpt lat="46.54527" lon="4.9237">
        <ele>169.7002</ele>
        <time>2026-05-13T16:40:25+02:00</time>
      </trkpt>
      <trkpt lat="46.54535" lon="4.92364">
        <ele>169.60059</ele>
        <time>2026-05-13T16:40:26+02:00</time>
      </trkpt>
      <trkpt lat="46.54538" lon="4.92362">
        <ele>169.60059</ele>
        <time>2026-05-13T16:40:27+02:00</time>
      </trkpt>
      <trkpt lat="46.54544" lon="4.92358">
        <ele>169.5</ele>
        <time>2026-05-13T16:40:28+02:00</time>
      </trkpt>
      <trkpt lat="46.54553" lon="4.92351">
        <ele>169.5</ele>
        <time>2026-05-13T16:40:29+02:00</time>
      </trkpt>
      <trkpt lat="46.54558" lon="4.92347">
        <ele>169.5</ele>
        <time>2026-05-13T16:40:30+02:00</time>
      </trkpt>
      <trkpt lat="46.54561" lon="4.92345">
        <ele>169.5</ele>
        <time>2026-05-13T16:40:31+02:00</time>
      </trkpt>
      <trkpt lat="46.54567" lon="4.92341">
        <ele>169.60059</ele>
        <time>2026-05-13T16:40:32+02:00</time>
      </trkpt>
      <trkpt lat="46.54576" lon="4.92336">
        <ele>169.7002</ele>
        <time>2026-05-13T16:40:33+02:00</time>
      </trkpt>
      <trkpt lat="46.54579" lon="4.92334">
        <ele>169.7002</ele>
        <time>2026-05-13T16:40:34+02:00</time>
      </trkpt>
      <trkpt lat="46.54585" lon="4.9233">
        <ele>169.60059</ele>
        <time>2026-05-13T16:40:35+02:00</time>
      </trkpt>
      <trkpt lat="46.54593" lon="4.92325">
        <ele>169.60059</ele>
        <time>2026-05-13T16:40:36+02:00</time>
      </trkpt>
      <trkpt lat="46.54596" lon="4.92323">
        <ele>169.5</ele>
        <time>2026-05-13T16:40:37+02:00</time>
      </trkpt>
      <trkpt lat="46.54603" lon="4.92319">
        <ele>169.5</ele>
        <time>2026-05-13T16:40:38+02:00</time>
      </trkpt>
      <trkpt lat="46.54609" lon="4.92316">
        <ele>169.40039</ele>
        <time>2026-05-13T16:40:39+02:00</time>
      </trkpt>
      <trkpt lat="46.54615" lon="4.92313">
        <ele>169.40039</ele>
        <time>2026-05-13T16:40:40+02:00</time>
      </trkpt>
      <trkpt lat="46.54621" lon="4.92309">
        <ele>169.5</ele>
        <time>2026-05-13T16:40:41+02:00</time>
      </trkpt>
      <trkpt lat="46.5463" lon="4.92304">
        <ele>169.5</ele>
        <time>2026-05-13T16:40:42+02:00</time>
      </trkpt>
      <trkpt lat="46.54632" lon="4.92302">
        <ele>169.5</ele>
        <time>2026-05-13T16:40:43+02:00</time>
      </trkpt>
      <trkpt lat="46.54638" lon="4.92298">
        <ele>169.7002</ele>
        <time>2026-05-13T16:40:44+02:00</time>
      </trkpt>
      <trkpt lat="46.54647" lon="4.92293">
        <ele>169.60059</ele>
        <time>2026-05-13T16:40:45+02:00</time>
      </trkpt>
      <trkpt lat="46.54653" lon="4.92289">
        <ele>169.7998</ele>
        <time>2026-05-13T16:40:46+02:00</time>
      </trkpt>
      <trkpt lat="46.54656" lon="4.92288">
        <ele>169.7998</ele>
        <time>2026-05-13T16:40:47+02:00</time>
      </trkpt>
      <trkpt lat="46.54662" lon="4.92284">
        <ele>169.7002</ele>
        <time>2026-05-13T16:40:48+02:00</time>
      </trkpt>
      <trkpt lat="46.5467" lon="4.92278">
        <ele>169.40039</ele>
        <time>2026-05-13T16:40:49+02:00</time>
      </trkpt>
      <trkpt lat="46.54673" lon="4.92276">
        <ele>169.5</ele>
        <time>2026-05-13T16:40:50+02:00</time>
      </trkpt>
      <trkpt lat="46.54679" lon="4.92272">
        <ele>169.40039</ele>
        <time>2026-05-13T16:40:51+02:00</time>
      </trkpt>
      <trkpt lat="46.54687" lon="4.92267">
        <ele>169.5</ele>
        <time>2026-05-13T16:40:52+02:00</time>
      </trkpt>
      <trkpt lat="46.5469" lon="4.92265">
        <ele>169.5</ele>
        <time>2026-05-13T16:40:53+02:00</time>
      </trkpt>
      <trkpt lat="46.54696" lon="4.92261">
        <ele>169.60059</ele>
        <time>2026-05-13T16:40:54+02:00</time>
      </trkpt>
      <trkpt lat="46.54704" lon="4.92256">
        <ele>169.7002</ele>
        <time>2026-05-13T16:40:55+02:00</time>
      </trkpt>
      <trkpt lat="46.54707" lon="4.92254">
        <ele>169.7002</ele>
        <time>2026-05-13T16:40:56+02:00</time>
      </trkpt>
      <trkpt lat="46.54713" lon="4.9225">
        <ele>169.7002</ele>
        <time>2026-05-13T16:40:57+02:00</time>
      </trkpt>
      <trkpt lat="46.54718" lon="4.92246">
        <ele>169.5</ele>
        <time>2026-05-13T16:40:58+02:00</time>
      </trkpt>
      <trkpt lat="46.54725" lon="4.92239">
        <ele>169.60059</ele>
        <time>2026-05-13T16:40:59+02:00</time>
      </trkpt>
      <trkpt lat="46.54728" lon="4.92237">
        <ele>169.5</ele>
        <time>2026-05-13T16:41:00+02:00</time>
      </trkpt>
      <trkpt lat="46.54735" lon="4.92231">
        <ele>169.5</ele>
        <time>2026-05-13T16:41:01+02:00</time>
      </trkpt>
      <trkpt lat="46.5474" lon="4.92226">
        <ele>169.5</ele>
        <time>2026-05-13T16:41:02+02:00</time>
      </trkpt>
      <trkpt lat="46.54743" lon="4.92224">
        <ele>169.60059</ele>
        <time>2026-05-13T16:41:03+02:00</time>
      </trkpt>
      <trkpt lat="46.54748" lon="4.92219">
        <ele>169.7002</ele>
        <time>2026-05-13T16:41:04+02:00</time>
      </trkpt>
      <trkpt lat="46.54755" lon="4.92213">
        <ele>169.7998</ele>
        <time>2026-05-13T16:41:05+02:00</time>
      </trkpt>
      <trkpt lat="46.54757" lon="4.9221">
        <ele>169.7998</ele>
        <time>2026-05-13T16:41:06+02:00</time>
      </trkpt>
      <trkpt lat="46.54762" lon="4.92206">
        <ele>169.7002</ele>
        <time>2026-05-13T16:41:07+02:00</time>
      </trkpt>
      <trkpt lat="46.54768" lon="4.92201">
        <ele>169.7002</ele>
        <time>2026-05-13T16:41:08+02:00</time>
      </trkpt>
      <trkpt lat="46.54776" lon="4.92195">
        <ele>169.60059</ele>
        <time>2026-05-13T16:41:09+02:00</time>
      </trkpt>
      <trkpt lat="46.54778" lon="4.92192">
        <ele>169.5</ele>
        <time>2026-05-13T16:41:10+02:00</time>
      </trkpt>
      <trkpt lat="46.54784" lon="4.92187">
        <ele>169.7002</ele>
        <time>2026-05-13T16:41:11+02:00</time>
      </trkpt>
      <trkpt lat="46.54789" lon="4.92182">
        <ele>169.7002</ele>
        <time>2026-05-13T16:41:12+02:00</time>
      </trkpt>
      <trkpt lat="46.54793" lon="4.92176">
        <ele>169.7998</ele>
        <time>2026-05-13T16:41:13+02:00</time>
      </trkpt>
      <trkpt lat="46.54798" lon="4.92171">
        <ele>169.7998</ele>
        <time>2026-05-13T16:41:14+02:00</time>
      </trkpt>
      <trkpt lat="46.54803" lon="4.92165">
        <ele>169.90039</ele>
        <time>2026-05-13T16:41:15+02:00</time>
      </trkpt>
      <trkpt lat="46.54807" lon="4.92159">
        <ele>169.90039</ele>
        <time>2026-05-13T16:41:16+02:00</time>
      </trkpt>
      <trkpt lat="46.54812" lon="4.92154">
        <ele>169.60059</ele>
        <time>2026-05-13T16:41:17+02:00</time>
      </trkpt>
      <trkpt lat="46.54819" lon="4.92146">
        <ele>169.60059</ele>
        <time>2026-05-13T16:41:18+02:00</time>
      </trkpt>
      <trkpt lat="46.54822" lon="4.92143">
        <ele>169.7002</ele>
        <time>2026-05-13T16:41:19+02:00</time>
      </trkpt>
      <trkpt lat="46.54826" lon="4.92138">
        <ele>169.60059</ele>
        <time>2026-05-13T16:41:20+02:00</time>
      </trkpt>
      <trkpt lat="46.54831" lon="4.92133">
        <ele>169.60059</ele>
        <time>2026-05-13T16:41:21+02:00</time>
      </trkpt>
      <trkpt lat="46.54838" lon="4.92126">
        <ele>169.5</ele>
        <time>2026-05-13T16:41:22+02:00</time>
      </trkpt>
      <trkpt lat="46.54841" lon="4.92124">
        <ele>169.5</ele>
        <time>2026-05-13T16:41:23+02:00</time>
      </trkpt>
      <trkpt lat="46.54846" lon="4.9212">
        <ele>169.40039</ele>
        <time>2026-05-13T16:41:24+02:00</time>
      </trkpt>
      <trkpt lat="46.54853" lon="4.92114">
        <ele>169.5</ele>
        <time>2026-05-13T16:41:25+02:00</time>
      </trkpt>
      <trkpt lat="46.54856" lon="4.92113">
        <ele>169.60059</ele>
        <time>2026-05-13T16:41:26+02:00</time>
      </trkpt>
      <trkpt lat="46.54861" lon="4.92109">
        <ele>169.7002</ele>
        <time>2026-05-13T16:41:27+02:00</time>
      </trkpt>
      <trkpt lat="46.54866" lon="4.92106">
        <ele>169.7002</ele>
        <time>2026-05-13T16:41:28+02:00</time>
      </trkpt>
      <trkpt lat="46.54874" lon="4.92102">
        <ele>169.7002</ele>
        <time>2026-05-13T16:41:29+02:00</time>
      </trkpt>
      <trkpt lat="46.54876" lon="4.921">
        <ele>169.7998</ele>
        <time>2026-05-13T16:41:30+02:00</time>
      </trkpt>
      <trkpt lat="46.54881" lon="4.92097">
        <ele>169.7002</ele>
        <time>2026-05-13T16:41:31+02:00</time>
      </trkpt>
      <trkpt lat="46.54889" lon="4.92092">
        <ele>169.5</ele>
        <time>2026-05-13T16:41:32+02:00</time>
      </trkpt>
      <trkpt lat="46.54892" lon="4.9209">
        <ele>169.5</ele>
        <time>2026-05-13T16:41:33+02:00</time>
      </trkpt>
      <trkpt lat="46.54897" lon="4.92087">
        <ele>169.5</ele>
        <time>2026-05-13T16:41:34+02:00</time>
      </trkpt>
      <trkpt lat="46.54902" lon="4.92084">
        <ele>169.60059</ele>
        <time>2026-05-13T16:41:35+02:00</time>
      </trkpt>
      <trkpt lat="46.5491" lon="4.9208">
        <ele>169.5</ele>
        <time>2026-05-13T16:41:36+02:00</time>
      </trkpt>
      <trkpt lat="46.54913" lon="4.92079">
        <ele>169.5</ele>
        <time>2026-05-13T16:41:37+02:00</time>
      </trkpt>
      <trkpt lat="46.54918" lon="4.92076">
        <ele>169.5</ele>
        <time>2026-05-13T16:41:38+02:00</time>
      </trkpt>
      <trkpt lat="46.54924" lon="4.92073">
        <ele>169.7002</ele>
        <time>2026-05-13T16:41:39+02:00</time>
      </trkpt>
      <trkpt lat="46.54929" lon="4.9207">
        <ele>169.7002</ele>
        <time>2026-05-13T16:41:40+02:00</time>
      </trkpt>
      <trkpt lat="46.54935" lon="4.92068">
        <ele>169.7002</ele>
        <time>2026-05-13T16:41:41+02:00</time>
      </trkpt>
      <trkpt lat="46.54943" lon="4.92064">
        <ele>170.10059</ele>
        <time>2026-05-13T16:41:42+02:00</time>
      </trkpt>
      <trkpt lat="46.54946" lon="4.92062">
        <ele>170.10059</ele>
        <time>2026-05-13T16:41:43+02:00</time>
      </trkpt>
      <trkpt lat="46.54951" lon="4.9206">
        <ele>170.10059</ele>
        <time>2026-05-13T16:41:44+02:00</time>
      </trkpt>
      <trkpt lat="46.5496" lon="4.92056">
        <ele>170</ele>
        <time>2026-05-13T16:41:45+02:00</time>
      </trkpt>
      <trkpt lat="46.54962" lon="4.92055">
        <ele>170</ele>
        <time>2026-05-13T16:41:46+02:00</time>
      </trkpt>
      <trkpt lat="46.54968" lon="4.92052">
        <ele>169.60059</ele>
        <time>2026-05-13T16:41:47+02:00</time>
      </trkpt>
      <trkpt lat="46.54974" lon="4.9205">
        <ele>169.2998</ele>
        <time>2026-05-13T16:41:48+02:00</time>
      </trkpt>
      <trkpt lat="46.54981" lon="4.92048">
        <ele>169.2998</ele>
        <time>2026-05-13T16:41:49+02:00</time>
      </trkpt>
      <trkpt lat="46.54987" lon="4.92045">
        <ele>169.40039</ele>
        <time>2026-05-13T16:41:50+02:00</time>
      </trkpt>
      <trkpt lat="46.54992" lon="4.92043">
        <ele>169.40039</ele>
        <time>2026-05-13T16:41:51+02:00</time>
      </trkpt>
      <trkpt lat="46.55002" lon="4.92039">
        <ele>169.5</ele>
        <time>2026-05-13T16:41:52+02:00</time>
      </trkpt>
      <trkpt lat="46.55005" lon="4.92038">
        <ele>169.5</ele>
        <time>2026-05-13T16:41:53+02:00</time>
      </trkpt>
      <trkpt lat="46.55011" lon="4.92036">
        <ele>169.5</ele>
        <time>2026-05-13T16:41:54+02:00</time>
      </trkpt>
      <trkpt lat="46.5502" lon="4.92033">
        <ele>169.7002</ele>
        <time>2026-05-13T16:41:55+02:00</time>
      </trkpt>
      <trkpt lat="46.55023" lon="4.92032">
        <ele>169.7002</ele>
        <time>2026-05-13T16:41:56+02:00</time>
      </trkpt>
      <trkpt lat="46.55029" lon="4.9203">
        <ele>169.7002</ele>
        <time>2026-05-13T16:41:57+02:00</time>
      </trkpt>
      <trkpt lat="46.55036" lon="4.92027">
        <ele>169.60059</ele>
        <time>2026-05-13T16:41:58+02:00</time>
      </trkpt>
      <trkpt lat="46.55041" lon="4.92025">
        <ele>169.60059</ele>
        <time>2026-05-13T16:41:59+02:00</time>
      </trkpt>
      <trkpt lat="46.55047" lon="4.92022">
        <ele>169.90039</ele>
        <time>2026-05-13T16:42:00+02:00</time>
      </trkpt>
      <trkpt lat="46.55056" lon="4.92019">
        <ele>169.7002</ele>
        <time>2026-05-13T16:42:01+02:00</time>
      </trkpt>
      <trkpt lat="46.55059" lon="4.92017">
        <ele>169.7002</ele>
        <time>2026-05-13T16:42:02+02:00</time>
      </trkpt>
      <trkpt lat="46.55065" lon="4.92015">
        <ele>169.5</ele>
        <time>2026-05-13T16:42:03+02:00</time>
      </trkpt>
      <trkpt lat="46.55073" lon="4.92013">
        <ele>169.60059</ele>
        <time>2026-05-13T16:42:04+02:00</time>
      </trkpt>
      <trkpt lat="46.55076" lon="4.92012">
        <ele>169.60059</ele>
        <time>2026-05-13T16:42:05+02:00</time>
      </trkpt>
      <trkpt lat="46.55082" lon="4.92011">
        <ele>169.7002</ele>
        <time>2026-05-13T16:42:06+02:00</time>
      </trkpt>
      <trkpt lat="46.55092" lon="4.92009">
        <ele>169.60059</ele>
        <time>2026-05-13T16:42:07+02:00</time>
      </trkpt>
      <trkpt lat="46.55095" lon="4.92008">
        <ele>169.60059</ele>
        <time>2026-05-13T16:42:08+02:00</time>
      </trkpt>
      <trkpt lat="46.55102" lon="4.92006">
        <ele>169.5</ele>
        <time>2026-05-13T16:42:09+02:00</time>
      </trkpt>
      <trkpt lat="46.55108" lon="4.92004">
        <ele>169.5</ele>
        <time>2026-05-13T16:42:10+02:00</time>
      </trkpt>
      <trkpt lat="46.55118" lon="4.92001">
        <ele>169.5</ele>
        <time>2026-05-13T16:42:11+02:00</time>
      </trkpt>
      <trkpt lat="46.55121" lon="4.91999">
        <ele>169.5</ele>
        <time>2026-05-13T16:42:12+02:00</time>
      </trkpt>
      <trkpt lat="46.55127" lon="4.91997">
        <ele>169.5</ele>
        <time>2026-05-13T16:42:13+02:00</time>
      </trkpt>
      <trkpt lat="46.55134" lon="4.91994">
        <ele>169.5</ele>
        <time>2026-05-13T16:42:14+02:00</time>
      </trkpt>
      <trkpt lat="46.55143" lon="4.91989">
        <ele>169.60059</ele>
        <time>2026-05-13T16:42:15+02:00</time>
      </trkpt>
      <trkpt lat="46.55147" lon="4.91987">
        <ele>169.60059</ele>
        <time>2026-05-13T16:42:16+02:00</time>
      </trkpt>
      <trkpt lat="46.55153" lon="4.91984">
        <ele>169.60059</ele>
        <time>2026-05-13T16:42:17+02:00</time>
      </trkpt>
      <trkpt lat="46.55163" lon="4.9198">
        <ele>170</ele>
        <time>2026-05-13T16:42:18+02:00</time>
      </trkpt>
      <trkpt lat="46.55166" lon="4.91979">
        <ele>170</ele>
        <time>2026-05-13T16:42:19+02:00</time>
      </trkpt>
      <trkpt lat="46.55172" lon="4.91976">
        <ele>169.90039</ele>
        <time>2026-05-13T16:42:20+02:00</time>
      </trkpt>
      <trkpt lat="46.55177" lon="4.91973">
        <ele>169.90039</ele>
        <time>2026-05-13T16:42:21+02:00</time>
      </trkpt>
      <trkpt lat="46.55187" lon="4.91968">
        <ele>169.90039</ele>
        <time>2026-05-13T16:42:22+02:00</time>
      </trkpt>
      <trkpt lat="46.5519" lon="4.91967">
        <ele>169.60059</ele>
        <time>2026-05-13T16:42:23+02:00</time>
      </trkpt>
      <trkpt lat="46.55196" lon="4.91964">
        <ele>169.5</ele>
        <time>2026-05-13T16:42:24+02:00</time>
      </trkpt>
      <trkpt lat="46.55205" lon="4.91959">
        <ele>169.5</ele>
        <time>2026-05-13T16:42:25+02:00</time>
      </trkpt>
      <trkpt lat="46.55208" lon="4.91958">
        <ele>169.5</ele>
        <time>2026-05-13T16:42:26+02:00</time>
      </trkpt>
      <trkpt lat="46.55214" lon="4.91955">
        <ele>169.5</ele>
        <time>2026-05-13T16:42:27+02:00</time>
      </trkpt>
      <trkpt lat="46.55222" lon="4.9195">
        <ele>169.5</ele>
        <time>2026-05-13T16:42:28+02:00</time>
      </trkpt>
      <trkpt lat="46.55226" lon="4.91948">
        <ele>169.5</ele>
        <time>2026-05-13T16:42:29+02:00</time>
      </trkpt>
      <trkpt lat="46.55232" lon="4.91945">
        <ele>169.7002</ele>
        <time>2026-05-13T16:42:30+02:00</time>
      </trkpt>
      <trkpt lat="46.55238" lon="4.91943">
        <ele>169.7002</ele>
        <time>2026-05-13T16:42:31+02:00</time>
      </trkpt>
      <trkpt lat="46.55243" lon="4.9194">
        <ele>169.7002</ele>
        <time>2026-05-13T16:42:32+02:00</time>
      </trkpt>
      <trkpt lat="46.55249" lon="4.91937">
        <ele>169.7002</ele>
        <time>2026-05-13T16:42:33+02:00</time>
      </trkpt>
      <trkpt lat="46.55255" lon="4.91934">
        <ele>169.60059</ele>
        <time>2026-05-13T16:42:34+02:00</time>
      </trkpt>
      <trkpt lat="46.55263" lon="4.9193">
        <ele>169.60059</ele>
        <time>2026-05-13T16:42:35+02:00</time>
      </trkpt>
      <trkpt lat="46.55266" lon="4.91928">
        <ele>169.60059</ele>
        <time>2026-05-13T16:42:36+02:00</time>
      </trkpt>
      <trkpt lat="46.55272" lon="4.91925">
        <ele>169.60059</ele>
        <time>2026-05-13T16:42:37+02:00</time>
      </trkpt>
      <trkpt lat="46.5528" lon="4.91921">
        <ele>169.5</ele>
        <time>2026-05-13T16:42:38+02:00</time>
      </trkpt>
      <trkpt lat="46.55283" lon="4.9192">
        <ele>169.5</ele>
        <time>2026-05-13T16:42:39+02:00</time>
      </trkpt>
      <trkpt lat="46.55289" lon="4.91917">
        <ele>169.5</ele>
        <time>2026-05-13T16:42:40+02:00</time>
      </trkpt>
      <trkpt lat="46.55298" lon="4.91912">
        <ele>169.60059</ele>
        <time>2026-05-13T16:42:41+02:00</time>
      </trkpt>
      <trkpt lat="46.55301" lon="4.91911">
        <ele>169.60059</ele>
        <time>2026-05-13T16:42:42+02:00</time>
      </trkpt>
      <trkpt lat="46.55307" lon="4.91908">
        <ele>169.60059</ele>
        <time>2026-05-13T16:42:43+02:00</time>
      </trkpt>
      <trkpt lat="46.55316" lon="4.91903">
        <ele>169.7002</ele>
        <time>2026-05-13T16:42:44+02:00</time>
      </trkpt>
      <trkpt lat="46.55321" lon="4.919">
        <ele>169.7002</ele>
        <time>2026-05-13T16:42:45+02:00</time>
      </trkpt>
      <trkpt lat="46.55324" lon="4.91898">
        <ele>169.7002</ele>
        <time>2026-05-13T16:42:46+02:00</time>
      </trkpt>
      <trkpt lat="46.5533" lon="4.91895">
        <ele>170.10059</ele>
        <time>2026-05-13T16:42:47+02:00</time>
      </trkpt>
      <trkpt lat="46.55339" lon="4.9189">
        <ele>170.2998</ele>
        <time>2026-05-13T16:42:48+02:00</time>
      </trkpt>
      <trkpt lat="46.55342" lon="4.91889">
        <ele>170.2998</ele>
        <time>2026-05-13T16:42:49+02:00</time>
      </trkpt>
      <trkpt lat="46.55348" lon="4.91886">
        <ele>171.60059</ele>
        <time>2026-05-13T16:42:50+02:00</time>
      </trkpt>
      <trkpt lat="46.55357" lon="4.91881">
        <ele>170.60059</ele>
        <time>2026-05-13T16:42:51+02:00</time>
      </trkpt>
      <trkpt lat="46.55359" lon="4.9188">
        <ele>170.60059</ele>
        <time>2026-05-13T16:42:52+02:00</time>
      </trkpt>
      <trkpt lat="46.55365" lon="4.91877">
        <ele>170.2002</ele>
        <time>2026-05-13T16:42:53+02:00</time>
      </trkpt>
      <trkpt lat="46.55374" lon="4.91872">
        <ele>169.40039</ele>
        <time>2026-05-13T16:42:54+02:00</time>
      </trkpt>
      <trkpt lat="46.55377" lon="4.91871">
        <ele>169.40039</ele>
        <time>2026-05-13T16:42:55+02:00</time>
      </trkpt>
      <trkpt lat="46.55383" lon="4.91868">
        <ele>169.60059</ele>
        <time>2026-05-13T16:42:56+02:00</time>
      </trkpt>
      <trkpt lat="46.55391" lon="4.91863">
        <ele>169.60059</ele>
        <time>2026-05-13T16:42:57+02:00</time>
      </trkpt>
      <trkpt lat="46.55393" lon="4.91862">
        <ele>169.60059</ele>
        <time>2026-05-13T16:42:58+02:00</time>
      </trkpt>
      <trkpt lat="46.55398" lon="4.91859">
        <ele>169.7002</ele>
        <time>2026-05-13T16:42:59+02:00</time>
      </trkpt>
      <trkpt lat="46.55403" lon="4.91857">
        <ele>169.7002</ele>
        <time>2026-05-13T16:43:00+02:00</time>
      </trkpt>
      <trkpt lat="46.55407" lon="4.91855">
        <ele>169.7002</ele>
        <time>2026-05-13T16:43:01+02:00</time>
      </trkpt>
      <trkpt lat="46.55412" lon="4.91853">
        <ele>169.60059</ele>
        <time>2026-05-13T16:43:02+02:00</time>
      </trkpt>
      <trkpt lat="46.55415" lon="4.91852">
        <ele>169.5</ele>
        <time>2026-05-13T16:43:03+02:00</time>
      </trkpt>
      <trkpt lat="46.55419" lon="4.91849">
        <ele>169.5</ele>
        <time>2026-05-13T16:43:04+02:00</time>
      </trkpt>
      <trkpt lat="46.5542" lon="4.91849">
        <ele>169.5</ele>
        <time>2026-05-13T16:43:05+02:00</time>
      </trkpt>
      <trkpt lat="46.55422" lon="4.91847">
        <ele>169.5</ele>
        <time>2026-05-13T16:43:06+02:00</time>
      </trkpt>
      <trkpt lat="46.55427" lon="4.91845">
        <ele>169.60059</ele>
        <time>2026-05-13T16:43:07+02:00</time>
      </trkpt>
      <trkpt lat="46.55428" lon="4.91844">
        <ele>169.5</ele>
        <time>2026-05-13T16:43:08+02:00</time>
      </trkpt>
      <trkpt lat="46.55431" lon="4.91842">
        <ele>169.5</ele>
        <time>2026-05-13T16:43:09+02:00</time>
      </trkpt>
      <trkpt lat="46.55435" lon="4.9184">
        <ele>169.5</ele>
        <time>2026-05-13T16:43:10+02:00</time>
      </trkpt>
      <trkpt lat="46.5544" lon="4.91837">
        <ele>169.5</ele>
        <time>2026-05-13T16:43:11+02:00</time>
      </trkpt>
      <trkpt lat="46.55442" lon="4.91836">
        <ele>169.5</ele>
        <time>2026-05-13T16:43:12+02:00</time>
      </trkpt>
      <trkpt lat="46.55446" lon="4.91833">
        <ele>169.5</ele>
        <time>2026-05-13T16:43:13+02:00</time>
      </trkpt>
      <trkpt lat="46.55452" lon="4.9183">
        <ele>169.60059</ele>
        <time>2026-05-13T16:43:14+02:00</time>
      </trkpt>
      <trkpt lat="46.55454" lon="4.91829">
        <ele>169.60059</ele>
        <time>2026-05-13T16:43:15+02:00</time>
      </trkpt>
      <trkpt lat="46.55459" lon="4.91827">
        <ele>169.60059</ele>
        <time>2026-05-13T16:43:16+02:00</time>
      </trkpt>
      <trkpt lat="46.55465" lon="4.91824">
        <ele>169.7002</ele>
        <time>2026-05-13T16:43:17+02:00</time>
      </trkpt>
      <trkpt lat="46.55467" lon="4.91822">
        <ele>169.7002</ele>
        <time>2026-05-13T16:43:18+02:00</time>
      </trkpt>
      <trkpt lat="46.55472" lon="4.9182">
        <ele>169.7002</ele>
        <time>2026-05-13T16:43:19+02:00</time>
      </trkpt>
      <trkpt lat="46.55479" lon="4.91816">
        <ele>169.60059</ele>
        <time>2026-05-13T16:43:20+02:00</time>
      </trkpt>
      <trkpt lat="46.55481" lon="4.91815">
        <ele>169.60059</ele>
        <time>2026-05-13T16:43:21+02:00</time>
      </trkpt>
      <trkpt lat="46.55486" lon="4.91812">
        <ele>169.60059</ele>
        <time>2026-05-13T16:43:22+02:00</time>
      </trkpt>
      <trkpt lat="46.5549" lon="4.9181">
        <ele>169.60059</ele>
        <time>2026-05-13T16:43:23+02:00</time>
      </trkpt>
      <trkpt lat="46.55496" lon="4.91806">
        <ele>169.60059</ele>
        <time>2026-05-13T16:43:24+02:00</time>
      </trkpt>
      <trkpt lat="46.55498" lon="4.91805">
        <ele>169.60059</ele>
        <time>2026-05-13T16:43:25+02:00</time>
      </trkpt>
      <trkpt lat="46.55502" lon="4.91803">
        <ele>169.60059</ele>
        <time>2026-05-13T16:43:26+02:00</time>
      </trkpt>
      <trkpt lat="46.55508" lon="4.918">
        <ele>169.60059</ele>
        <time>2026-05-13T16:43:27+02:00</time>
      </trkpt>
      <trkpt lat="46.5551" lon="4.91799">
        <ele>169.60059</ele>
        <time>2026-05-13T16:43:28+02:00</time>
      </trkpt>
      <trkpt lat="46.55514" lon="4.91797">
        <ele>169.60059</ele>
        <time>2026-05-13T16:43:29+02:00</time>
      </trkpt>
      <trkpt lat="46.55517" lon="4.91795">
        <ele>169.7002</ele>
        <time>2026-05-13T16:43:30+02:00</time>
      </trkpt>
      <trkpt lat="46.55522" lon="4.91793">
        <ele>169.7002</ele>
        <time>2026-05-13T16:43:31+02:00</time>
      </trkpt>
      <trkpt lat="46.55524" lon="4.91792">
        <ele>169.7002</ele>
        <time>2026-05-13T16:43:32+02:00</time>
      </trkpt>
      <trkpt lat="46.55527" lon="4.91791">
        <ele>169.7002</ele>
        <time>2026-05-13T16:43:33+02:00</time>
      </trkpt>
      <trkpt lat="46.55532" lon="4.91789">
        <ele>169.60059</ele>
        <time>2026-05-13T16:43:34+02:00</time>
      </trkpt>
      <trkpt lat="46.55533" lon="4.91789">
        <ele>169.60059</ele>
        <time>2026-05-13T16:43:35+02:00</time>
      </trkpt>
      <trkpt lat="46.55536" lon="4.91789">
        <ele>169.60059</ele>
        <time>2026-05-13T16:43:36+02:00</time>
      </trkpt>
      <trkpt lat="46.55539" lon="4.91788">
        <ele>169.60059</ele>
        <time>2026-05-13T16:43:37+02:00</time>
      </trkpt>
      <trkpt lat="46.5554" lon="4.91787">
        <ele>169.60059</ele>
        <time>2026-05-13T16:43:38+02:00</time>
      </trkpt>
      <trkpt lat="46.55542" lon="4.91785">
        <ele>169.60059</ele>
        <time>2026-05-13T16:43:39+02:00</time>
      </trkpt>
      <trkpt lat="46.55545" lon="4.91784">
        <ele>169.7002</ele>
        <time>2026-05-13T16:43:40+02:00</time>
      </trkpt>
      <trkpt lat="46.5555" lon="4.91782">
        <ele>169.7002</ele>
        <time>2026-05-13T16:43:41+02:00</time>
      </trkpt>
      <trkpt lat="46.55553" lon="4.91781">
        <ele>169.7002</ele>
        <time>2026-05-13T16:43:42+02:00</time>
      </trkpt>
      <trkpt lat="46.55555" lon="4.9178">
        <ele>169.7002</ele>
        <time>2026-05-13T16:43:43+02:00</time>
      </trkpt>
      <trkpt lat="46.55559" lon="4.91779">
        <ele>169.7002</ele>
        <time>2026-05-13T16:43:44+02:00</time>
      </trkpt>
      <trkpt lat="46.55563" lon="4.91777">
        <ele>169.7002</ele>
        <time>2026-05-13T16:43:45+02:00</time>
      </trkpt>
      <trkpt lat="46.55565" lon="4.91776">
        <ele>169.7002</ele>
        <time>2026-05-13T16:43:46+02:00</time>
      </trkpt>
      <trkpt lat="46.55568" lon="4.91775">
        <ele>169.90039</ele>
        <time>2026-05-13T16:43:47+02:00</time>
      </trkpt>
      <trkpt lat="46.55571" lon="4.91773">
        <ele>169.90039</ele>
        <time>2026-05-13T16:43:48+02:00</time>
      </trkpt>
      <trkpt lat="46.55573" lon="4.91773">
        <ele>169.90039</ele>
        <time>2026-05-13T16:43:49+02:00</time>
      </trkpt>
      <trkpt lat="46.55575" lon="4.91771">
        <ele>169.90039</ele>
        <time>2026-05-13T16:43:50+02:00</time>
      </trkpt>
      <trkpt lat="46.55579" lon="4.91769">
        <ele>169.90039</ele>
        <time>2026-05-13T16:43:51+02:00</time>
      </trkpt>
      <trkpt lat="46.5558" lon="4.91769">
        <ele>169.90039</ele>
        <time>2026-05-13T16:43:52+02:00</time>
      </trkpt>
      <trkpt lat="46.55584" lon="4.91767">
        <ele>169.90039</ele>
        <time>2026-05-13T16:43:53+02:00</time>
      </trkpt>
      <trkpt lat="46.55589" lon="4.91766">
        <ele>170.2998</ele>
        <time>2026-05-13T16:43:54+02:00</time>
      </trkpt>
      <trkpt lat="46.55591" lon="4.91765">
        <ele>170.2998</ele>
        <time>2026-05-13T16:43:55+02:00</time>
      </trkpt>
      <trkpt lat="46.55596" lon="4.91764">
        <ele>170.2002</ele>
        <time>2026-05-13T16:43:56+02:00</time>
      </trkpt>
      <trkpt lat="46.556" lon="4.91762">
        <ele>169.90039</ele>
        <time>2026-05-13T16:43:57+02:00</time>
      </trkpt>
      <trkpt lat="46.55607" lon="4.91761">
        <ele>169.7002</ele>
        <time>2026-05-13T16:43:58+02:00</time>
      </trkpt>
      <trkpt lat="46.55609" lon="4.91761">
        <ele>169.5</ele>
        <time>2026-05-13T16:43:59+02:00</time>
      </trkpt>
      <trkpt lat="46.55612" lon="4.91761">
        <ele>169.5</ele>
        <time>2026-05-13T16:44:00+02:00</time>
      </trkpt>
      <trkpt lat="46.55614" lon="4.91761">
        <ele>169.5</ele>
        <time>2026-05-13T16:44:01+02:00</time>
      </trkpt>
      <trkpt lat="46.55615" lon="4.91761">
        <ele>169.5</ele>
        <time>2026-05-13T16:44:02+02:00</time>
      </trkpt>
      <trkpt lat="46.55615" lon="4.91761">
        <ele>169.5</ele>
        <time>2026-05-13T16:44:03+02:00</time>
      </trkpt>
      <trkpt lat="46.55615" lon="4.91761">
        <ele>169.5</ele>
        <time>2026-05-13T16:44:04+02:00</time>
      </trkpt>
      <trkpt lat="46.55615" lon="4.91761">
        <ele>169.5</ele>
        <time>2026-05-13T16:44:05+02:00</time>
      </trkpt>
      <trkpt lat="46.55612" lon="4.91761">
        <ele>169.5</ele>
        <time>2026-05-13T16:49:32+02:00</time>
      </trkpt>
      <trkpt lat="46.55614" lon="4.9176">
        <ele>169.5</ele>
        <time>2026-05-13T16:49:33+02:00</time>
      </trkpt>
      <trkpt lat="46.55615" lon="4.9176">
        <ele>169.5</ele>
        <time>2026-05-13T16:49:34+02:00</time>
      </trkpt>
      <trkpt lat="46.55619" lon="4.91758">
        <ele>169.40039</ele>
        <time>2026-05-13T16:49:35+02:00</time>
      </trkpt>
      <trkpt lat="46.55622" lon="4.91758">
        <ele>169.5</ele>
        <time>2026-05-13T16:49:36+02:00</time>
      </trkpt>
      <trkpt lat="46.55625" lon="4.91757">
        <ele>169.5</ele>
        <time>2026-05-13T16:49:37+02:00</time>
      </trkpt>
      <trkpt lat="46.55627" lon="4.91757">
        <ele>169.5</ele>
        <time>2026-05-13T16:49:38+02:00</time>
      </trkpt>
      <trkpt lat="46.55631" lon="4.91756">
        <ele>169.5</ele>
        <time>2026-05-13T16:49:39+02:00</time>
      </trkpt>
      <trkpt lat="46.55634" lon="4.91755">
        <ele>169.5</ele>
        <time>2026-05-13T16:49:40+02:00</time>
      </trkpt>
      <trkpt lat="46.55641" lon="4.91754">
        <ele>169.5</ele>
        <time>2026-05-13T16:49:41+02:00</time>
      </trkpt>
      <trkpt lat="46.55642" lon="4.91753">
        <ele>169.5</ele>
        <time>2026-05-13T16:49:42+02:00</time>
      </trkpt>
      <trkpt lat="46.55647" lon="4.91752">
        <ele>169.5</ele>
        <time>2026-05-13T16:49:43+02:00</time>
      </trkpt>
      <trkpt lat="46.55654" lon="4.9175">
        <ele>169.5</ele>
        <time>2026-05-13T16:49:44+02:00</time>
      </trkpt>
      <trkpt lat="46.55658" lon="4.91749">
        <ele>169.5</ele>
        <time>2026-05-13T16:49:45+02:00</time>
      </trkpt>
      <trkpt lat="46.5566" lon="4.91748">
        <ele>169.5</ele>
        <time>2026-05-13T16:49:46+02:00</time>
      </trkpt>
      <trkpt lat="46.55665" lon="4.91747">
        <ele>169.5</ele>
        <time>2026-05-13T16:49:47+02:00</time>
      </trkpt>
      <trkpt lat="46.55672" lon="4.91744">
        <ele>169.5</ele>
        <time>2026-05-13T16:49:48+02:00</time>
      </trkpt>
      <trkpt lat="46.55675" lon="4.91744">
        <ele>169.5</ele>
        <time>2026-05-13T16:49:49+02:00</time>
      </trkpt>
      <trkpt lat="46.55682" lon="4.91741">
        <ele>169.7002</ele>
        <time>2026-05-13T16:49:50+02:00</time>
      </trkpt>
      <trkpt lat="46.55685" lon="4.91741">
        <ele>169.7002</ele>
        <time>2026-05-13T16:49:51+02:00</time>
      </trkpt>
      <trkpt lat="46.55692" lon="4.91739">
        <ele>169.7002</ele>
        <time>2026-05-13T16:49:52+02:00</time>
      </trkpt>
      <trkpt lat="46.55695" lon="4.91738">
        <ele>169.7002</ele>
        <time>2026-05-13T16:49:53+02:00</time>
      </trkpt>
      <trkpt lat="46.557" lon="4.91736">
        <ele>169.7002</ele>
        <time>2026-05-13T16:49:54+02:00</time>
      </trkpt>
      <trkpt lat="46.55708" lon="4.91732">
        <ele>169.7998</ele>
        <time>2026-05-13T16:49:55+02:00</time>
      </trkpt>
      <trkpt lat="46.55713" lon="4.9173">
        <ele>169.7002</ele>
        <time>2026-05-13T16:49:56+02:00</time>
      </trkpt>
      <trkpt lat="46.55719" lon="4.91727">
        <ele>169.60059</ele>
        <time>2026-05-13T16:49:57+02:00</time>
      </trkpt>
      <trkpt lat="46.55721" lon="4.91725">
        <ele>169.60059</ele>
        <time>2026-05-13T16:49:58+02:00</time>
      </trkpt>
      <trkpt lat="46.55729" lon="4.9172">
        <ele>169.5</ele>
        <time>2026-05-13T16:49:59+02:00</time>
      </trkpt>
      <trkpt lat="46.55732" lon="4.91719">
        <ele>169.5</ele>
        <time>2026-05-13T16:50:00+02:00</time>
      </trkpt>
      <trkpt lat="46.55737" lon="4.91716">
        <ele>169.5</ele>
        <time>2026-05-13T16:50:01+02:00</time>
      </trkpt>
      <trkpt lat="46.55743" lon="4.91713">
        <ele>169.5</ele>
        <time>2026-05-13T16:50:02+02:00</time>
      </trkpt>
      <trkpt lat="46.55751" lon="4.91709">
        <ele>169.5</ele>
        <time>2026-05-13T16:50:03+02:00</time>
      </trkpt>
      <trkpt lat="46.55754" lon="4.91707">
        <ele>169.5</ele>
        <time>2026-05-13T16:50:04+02:00</time>
      </trkpt>
      <trkpt lat="46.5576" lon="4.91704">
        <ele>169.5</ele>
        <time>2026-05-13T16:50:05+02:00</time>
      </trkpt>
      <trkpt lat="46.55768" lon="4.91699">
        <ele>169.5</ele>
        <time>2026-05-13T16:50:06+02:00</time>
      </trkpt>
      <trkpt lat="46.55771" lon="4.91698">
        <ele>169.7002</ele>
        <time>2026-05-13T16:50:07+02:00</time>
      </trkpt>
      <trkpt lat="46.55776" lon="4.91694">
        <ele>169.7002</ele>
        <time>2026-05-13T16:50:08+02:00</time>
      </trkpt>
      <trkpt lat="46.55785" lon="4.91689">
        <ele>170</ele>
        <time>2026-05-13T16:50:09+02:00</time>
      </trkpt>
      <trkpt lat="46.55791" lon="4.91686">
        <ele>170</ele>
        <time>2026-05-13T16:50:10+02:00</time>
      </trkpt>
      <trkpt lat="46.55794" lon="4.91684">
        <ele>169.90039</ele>
        <time>2026-05-13T16:50:11+02:00</time>
      </trkpt>
      <trkpt lat="46.558" lon="4.9168">
        <ele>170.5</ele>
        <time>2026-05-13T16:50:12+02:00</time>
      </trkpt>
      <trkpt lat="46.55806" lon="4.91677">
        <ele>170.40039</ele>
        <time>2026-05-13T16:50:13+02:00</time>
      </trkpt>
      <trkpt lat="46.55815" lon="4.91671">
        <ele>170.7998</ele>
        <time>2026-05-13T16:50:14+02:00</time>
      </trkpt>
      <trkpt lat="46.55818" lon="4.91669">
        <ele>170.5</ele>
        <time>2026-05-13T16:50:15+02:00</time>
      </trkpt>
      <trkpt lat="46.55824" lon="4.91665">
        <ele>170</ele>
        <time>2026-05-13T16:50:16+02:00</time>
      </trkpt>
      <trkpt lat="46.55833" lon="4.9166">
        <ele>169.60059</ele>
        <time>2026-05-13T16:50:17+02:00</time>
      </trkpt>
      <trkpt lat="46.55836" lon="4.91658">
        <ele>169.60059</ele>
        <time>2026-05-13T16:50:18+02:00</time>
      </trkpt>
      <trkpt lat="46.55842" lon="4.91655">
        <ele>169.90039</ele>
        <time>2026-05-13T16:50:19+02:00</time>
      </trkpt>
      <trkpt lat="46.55851" lon="4.91649">
        <ele>169.7998</ele>
        <time>2026-05-13T16:50:20+02:00</time>
      </trkpt>
      <trkpt lat="46.55857" lon="4.91645">
        <ele>170.2998</ele>
        <time>2026-05-13T16:50:21+02:00</time>
      </trkpt>
      <trkpt lat="46.5586" lon="4.91643">
        <ele>170.2998</ele>
        <time>2026-05-13T16:50:22+02:00</time>
      </trkpt>
      <trkpt lat="46.55866" lon="4.91639">
        <ele>170.2002</ele>
        <time>2026-05-13T16:50:23+02:00</time>
      </trkpt>
      <trkpt lat="46.55875" lon="4.91633">
        <ele>170.7998</ele>
        <time>2026-05-13T16:50:24+02:00</time>
      </trkpt>
      <trkpt lat="46.55878" lon="4.91631">
        <ele>170.7998</ele>
        <time>2026-05-13T16:50:25+02:00</time>
      </trkpt>
      <trkpt lat="46.55884" lon="4.91627">
        <ele>171.60059</ele>
        <time>2026-05-13T16:50:26+02:00</time>
      </trkpt>
      <trkpt lat="46.55893" lon="4.91622">
        <ele>171.2002</ele>
        <time>2026-05-13T16:50:27+02:00</time>
      </trkpt>
      <trkpt lat="46.55896" lon="4.91621">
        <ele>171.90039</ele>
        <time>2026-05-13T16:50:28+02:00</time>
      </trkpt>
      <trkpt lat="46.55902" lon="4.91618">
        <ele>171.5</ele>
        <time>2026-05-13T16:50:29+02:00</time>
      </trkpt>
      <trkpt lat="46.55909" lon="4.91614">
        <ele>171</ele>
        <time>2026-05-13T16:50:30+02:00</time>
      </trkpt>
      <trkpt lat="46.55914" lon="4.91611">
        <ele>170.7998</ele>
        <time>2026-05-13T16:50:31+02:00</time>
      </trkpt>
      <trkpt lat="46.55924" lon="4.91605">
        <ele>170</ele>
        <time>2026-05-13T16:50:32+02:00</time>
      </trkpt>
      <trkpt lat="46.55929" lon="4.91601">
        <ele>170.5</ele>
        <time>2026-05-13T16:50:33+02:00</time>
      </trkpt>
      <trkpt lat="46.55935" lon="4.91597">
        <ele>170.40039</ele>
        <time>2026-05-13T16:50:34+02:00</time>
      </trkpt>
      <trkpt lat="46.55938" lon="4.91595">
        <ele>171.2002</ele>
        <time>2026-05-13T16:50:35+02:00</time>
      </trkpt>
      <trkpt lat="46.55947" lon="4.91589">
        <ele>170.5</ele>
        <time>2026-05-13T16:50:36+02:00</time>
      </trkpt>
      <trkpt lat="46.55953" lon="4.91586">
        <ele>170.40039</ele>
        <time>2026-05-13T16:50:37+02:00</time>
      </trkpt>
      <trkpt lat="46.55958" lon="4.91582">
        <ele>169.90039</ele>
        <time>2026-05-13T16:50:38+02:00</time>
      </trkpt>
      <trkpt lat="46.55961" lon="4.91581">
        <ele>169.90039</ele>
        <time>2026-05-13T16:50:39+02:00</time>
      </trkpt>
      <trkpt lat="46.55969" lon="4.91575">
        <ele>169.7998</ele>
        <time>2026-05-13T16:50:40+02:00</time>
      </trkpt>
      <trkpt lat="46.55972" lon="4.91573">
        <ele>169.7998</ele>
        <time>2026-05-13T16:50:41+02:00</time>
      </trkpt>
      <trkpt lat="46.55978" lon="4.91569">
        <ele>170.2002</ele>
        <time>2026-05-13T16:50:42+02:00</time>
      </trkpt>
      <trkpt lat="46.55986" lon="4.91563">
        <ele>170.10059</ele>
        <time>2026-05-13T16:50:43+02:00</time>
      </trkpt>
      <trkpt lat="46.55992" lon="4.91559">
        <ele>170.40039</ele>
        <time>2026-05-13T16:50:44+02:00</time>
      </trkpt>
      <trkpt lat="46.55998" lon="4.91555">
        <ele>170.10059</ele>
        <time>2026-05-13T16:50:45+02:00</time>
      </trkpt>
      <trkpt lat="46.56" lon="4.91553">
        <ele>169.7002</ele>
        <time>2026-05-13T16:50:46+02:00</time>
      </trkpt>
      <trkpt lat="46.56009" lon="4.91548">
        <ele>169.5</ele>
        <time>2026-05-13T16:50:47+02:00</time>
      </trkpt>
      <trkpt lat="46.56011" lon="4.91546">
        <ele>169.5</ele>
        <time>2026-05-13T16:50:48+02:00</time>
      </trkpt>
      <trkpt lat="46.56017" lon="4.91542">
        <ele>169.7002</ele>
        <time>2026-05-13T16:50:49+02:00</time>
      </trkpt>
      <trkpt lat="46.56022" lon="4.91537">
        <ele>169.7002</ele>
        <time>2026-05-13T16:50:50+02:00</time>
      </trkpt>
      <trkpt lat="46.56029" lon="4.91529">
        <ele>170</ele>
        <time>2026-05-13T16:50:51+02:00</time>
      </trkpt>
      <trkpt lat="46.56034" lon="4.91523">
        <ele>170.5</ele>
        <time>2026-05-13T16:50:52+02:00</time>
      </trkpt>
      <trkpt lat="46.5604" lon="4.91518">
        <ele>171.10059</ele>
        <time>2026-05-13T16:50:53+02:00</time>
      </trkpt>
      <trkpt lat="46.56045" lon="4.91513">
        <ele>171.10059</ele>
        <time>2026-05-13T16:50:54+02:00</time>
      </trkpt>
      <trkpt lat="46.5605" lon="4.91507">
        <ele>171.5</ele>
        <time>2026-05-13T16:50:55+02:00</time>
      </trkpt>
      <trkpt lat="46.56055" lon="4.91501">
        <ele>171.2002</ele>
        <time>2026-05-13T16:50:56+02:00</time>
      </trkpt>
      <trkpt lat="46.56061" lon="4.91496">
        <ele>171.2002</ele>
        <time>2026-05-13T16:50:57+02:00</time>
      </trkpt>
      <trkpt lat="46.56066" lon="4.9149">
        <ele>171.2998</ele>
        <time>2026-05-13T16:50:58+02:00</time>
      </trkpt>
      <trkpt lat="46.56071" lon="4.91484">
        <ele>170.90039</ele>
        <time>2026-05-13T16:50:59+02:00</time>
      </trkpt>
      <trkpt lat="46.56076" lon="4.91479">
        <ele>171.5</ele>
        <time>2026-05-13T16:51:00+02:00</time>
      </trkpt>
      <trkpt lat="46.56079" lon="4.91476">
        <ele>171.5</ele>
        <time>2026-05-13T16:51:01+02:00</time>
      </trkpt>
      <trkpt lat="46.56086" lon="4.91468">
        <ele>172</ele>
        <time>2026-05-13T16:51:02+02:00</time>
      </trkpt>
      <trkpt lat="46.56091" lon="4.91462">
        <ele>172.2998</ele>
        <time>2026-05-13T16:51:03+02:00</time>
      </trkpt>
      <trkpt lat="46.56096" lon="4.91457">
        <ele>172.5</ele>
        <time>2026-05-13T16:51:04+02:00</time>
      </trkpt>
      <trkpt lat="46.56099" lon="4.91454">
        <ele>171.7998</ele>
        <time>2026-05-13T16:51:05+02:00</time>
      </trkpt>
      <trkpt lat="46.56103" lon="4.91448">
        <ele>172.60059</ele>
        <time>2026-05-13T16:51:06+02:00</time>
      </trkpt>
      <trkpt lat="46.5611" lon="4.91441">
        <ele>172</ele>
        <time>2026-05-13T16:51:07+02:00</time>
      </trkpt>
      <trkpt lat="46.56112" lon="4.91439">
        <ele>172.2002</ele>
        <time>2026-05-13T16:51:08+02:00</time>
      </trkpt>
      <trkpt lat="46.56119" lon="4.91431">
        <ele>172.2002</ele>
        <time>2026-05-13T16:51:09+02:00</time>
      </trkpt>
      <trkpt lat="46.56123" lon="4.91426">
        <ele>171.40039</ele>
        <time>2026-05-13T16:51:10+02:00</time>
      </trkpt>
      <trkpt lat="46.56127" lon="4.91421">
        <ele>172.10059</ele>
        <time>2026-05-13T16:51:11+02:00</time>
      </trkpt>
      <trkpt lat="46.56132" lon="4.91417">
        <ele>171.2998</ele>
        <time>2026-05-13T16:51:12+02:00</time>
      </trkpt>
      <trkpt lat="46.56136" lon="4.91412">
        <ele>171.7998</ele>
        <time>2026-05-13T16:51:13+02:00</time>
      </trkpt>
      <trkpt lat="46.5614" lon="4.91407">
        <ele>171.2998</ele>
        <time>2026-05-13T16:51:14+02:00</time>
      </trkpt>
      <trkpt lat="46.56145" lon="4.91403">
        <ele>172.2998</ele>
        <time>2026-05-13T16:51:15+02:00</time>
      </trkpt>
      <trkpt lat="46.56149" lon="4.91398">
        <ele>171.7998</ele>
        <time>2026-05-13T16:51:16+02:00</time>
      </trkpt>
      <trkpt lat="46.56153" lon="4.91394">
        <ele>172.10059</ele>
        <time>2026-05-13T16:51:17+02:00</time>
      </trkpt>
      <trkpt lat="46.56158" lon="4.9139">
        <ele>171.5</ele>
        <time>2026-05-13T16:51:18+02:00</time>
      </trkpt>
      <trkpt lat="46.56162" lon="4.91387">
        <ele>172.2002</ele>
        <time>2026-05-13T16:51:19+02:00</time>
      </trkpt>
      <trkpt lat="46.56165" lon="4.91385">
        <ele>171.60059</ele>
        <time>2026-05-13T16:51:20+02:00</time>
      </trkpt>
      <trkpt lat="46.56171" lon="4.91379">
        <ele>171.7002</ele>
        <time>2026-05-13T16:51:21+02:00</time>
      </trkpt>
      <trkpt lat="46.56176" lon="4.91375">
        <ele>171.10059</ele>
        <time>2026-05-13T16:51:22+02:00</time>
      </trkpt>
      <trkpt lat="46.56181" lon="4.91372">
        <ele>172</ele>
        <time>2026-05-13T16:51:23+02:00</time>
      </trkpt>
      <trkpt lat="46.56186" lon="4.91368">
        <ele>171.2998</ele>
        <time>2026-05-13T16:51:24+02:00</time>
      </trkpt>
      <trkpt lat="46.5619" lon="4.91364">
        <ele>170.60059</ele>
        <time>2026-05-13T16:51:25+02:00</time>
      </trkpt>
      <trkpt lat="46.56195" lon="4.9136">
        <ele>170.2998</ele>
        <time>2026-05-13T16:51:26+02:00</time>
      </trkpt>
      <trkpt lat="46.562" lon="4.91356">
        <ele>169.7002</ele>
        <time>2026-05-13T16:51:27+02:00</time>
      </trkpt>
      <trkpt lat="46.56205" lon="4.91352">
        <ele>170.10059</ele>
        <time>2026-05-13T16:51:28+02:00</time>
      </trkpt>
      <trkpt lat="46.56209" lon="4.91348">
        <ele>170.10059</ele>
        <time>2026-05-13T16:51:29+02:00</time>
      </trkpt>
      <trkpt lat="46.56214" lon="4.91344">
        <ele>170.90039</ele>
        <time>2026-05-13T16:51:30+02:00</time>
      </trkpt>
      <trkpt lat="46.56219" lon="4.9134">
        <ele>170.60059</ele>
        <time>2026-05-13T16:51:31+02:00</time>
      </trkpt>
      <trkpt lat="46.56223" lon="4.91337">
        <ele>171</ele>
        <time>2026-05-13T16:51:32+02:00</time>
      </trkpt>
      <trkpt lat="46.56228" lon="4.91333">
        <ele>171</ele>
        <time>2026-05-13T16:51:33+02:00</time>
      </trkpt>
      <trkpt lat="46.56233" lon="4.91329">
        <ele>171</ele>
        <time>2026-05-13T16:51:34+02:00</time>
      </trkpt>
      <trkpt lat="46.56238" lon="4.91325">
        <ele>170.40039</ele>
        <time>2026-05-13T16:51:35+02:00</time>
      </trkpt>
      <trkpt lat="46.56242" lon="4.91322">
        <ele>169.7998</ele>
        <time>2026-05-13T16:51:36+02:00</time>
      </trkpt>
      <trkpt lat="46.56247" lon="4.91318">
        <ele>170</ele>
        <time>2026-05-13T16:51:37+02:00</time>
      </trkpt>
      <trkpt lat="46.56251" lon="4.91314">
        <ele>170</ele>
        <time>2026-05-13T16:51:38+02:00</time>
      </trkpt>
      <trkpt lat="46.56256" lon="4.9131">
        <ele>170.7002</ele>
        <time>2026-05-13T16:51:39+02:00</time>
      </trkpt>
      <trkpt lat="46.5626" lon="4.91306">
        <ele>170.5</ele>
        <time>2026-05-13T16:51:40+02:00</time>
      </trkpt>
      <trkpt lat="46.56265" lon="4.91302">
        <ele>171.2002</ele>
        <time>2026-05-13T16:51:41+02:00</time>
      </trkpt>
      <trkpt lat="46.5627" lon="4.91298">
        <ele>171</ele>
        <time>2026-05-13T16:51:42+02:00</time>
      </trkpt>
      <trkpt lat="46.56275" lon="4.91294">
        <ele>171.7998</ele>
        <time>2026-05-13T16:51:43+02:00</time>
      </trkpt>
      <trkpt lat="46.5628" lon="4.9129">
        <ele>171.5</ele>
        <time>2026-05-13T16:51:44+02:00</time>
      </trkpt>
      <trkpt lat="46.56285" lon="4.91286">
        <ele>172</ele>
        <time>2026-05-13T16:51:45+02:00</time>
      </trkpt>
      <trkpt lat="46.5629" lon="4.91282">
        <ele>171.5</ele>
        <time>2026-05-13T16:51:46+02:00</time>
      </trkpt>
      <trkpt lat="46.56295" lon="4.91278">
        <ele>171</ele>
        <time>2026-05-13T16:51:47+02:00</time>
      </trkpt>
      <trkpt lat="46.563" lon="4.91274">
        <ele>171.10059</ele>
        <time>2026-05-13T16:51:48+02:00</time>
      </trkpt>
      <trkpt lat="46.56305" lon="4.9127">
        <ele>171.10059</ele>
        <time>2026-05-13T16:51:49+02:00</time>
      </trkpt>
      <trkpt lat="46.5631" lon="4.91266">
        <ele>171.5</ele>
        <time>2026-05-13T16:51:50+02:00</time>
      </trkpt>
      <trkpt lat="46.56314" lon="4.91262">
        <ele>171.10059</ele>
        <time>2026-05-13T16:51:51+02:00</time>
      </trkpt>
      <trkpt lat="46.56318" lon="4.91259">
        <ele>171.7002</ele>
        <time>2026-05-13T16:51:52+02:00</time>
      </trkpt>
      <trkpt lat="46.56322" lon="4.91256">
        <ele>171.7002</ele>
        <time>2026-05-13T16:51:53+02:00</time>
      </trkpt>
      <trkpt lat="46.56326" lon="4.91253">
        <ele>171.2998</ele>
        <time>2026-05-13T16:51:54+02:00</time>
      </trkpt>
      <trkpt lat="46.56331" lon="4.91251">
        <ele>171.60059</ele>
        <time>2026-05-13T16:51:55+02:00</time>
      </trkpt>
      <trkpt lat="46.56336" lon="4.91248">
        <ele>171.10059</ele>
        <time>2026-05-13T16:51:56+02:00</time>
      </trkpt>
      <trkpt lat="46.56341" lon="4.91246">
        <ele>170.5</ele>
        <time>2026-05-13T16:51:57+02:00</time>
      </trkpt>
      <trkpt lat="46.56345" lon="4.91243">
        <ele>171.10059</ele>
        <time>2026-05-13T16:51:58+02:00</time>
      </trkpt>
      <trkpt lat="46.5635" lon="4.91241">
        <ele>170.5</ele>
        <time>2026-05-13T16:51:59+02:00</time>
      </trkpt>
      <trkpt lat="46.56354" lon="4.91239">
        <ele>170</ele>
        <time>2026-05-13T16:52:00+02:00</time>
      </trkpt>
      <trkpt lat="46.56359" lon="4.91236">
        <ele>169.7002</ele>
        <time>2026-05-13T16:52:01+02:00</time>
      </trkpt>
      <trkpt lat="46.56363" lon="4.91234">
        <ele>170.2002</ele>
        <time>2026-05-13T16:52:02+02:00</time>
      </trkpt>
      <trkpt lat="46.56368" lon="4.91231">
        <ele>169.7998</ele>
        <time>2026-05-13T16:52:03+02:00</time>
      </trkpt>
      <trkpt lat="46.56373" lon="4.91228">
        <ele>169.40039</ele>
        <time>2026-05-13T16:52:04+02:00</time>
      </trkpt>
      <trkpt lat="46.56377" lon="4.91226">
        <ele>169.2998</ele>
        <time>2026-05-13T16:52:05+02:00</time>
      </trkpt>
      <trkpt lat="46.56382" lon="4.91223">
        <ele>169.2998</ele>
        <time>2026-05-13T16:52:06+02:00</time>
      </trkpt>
      <trkpt lat="46.56386" lon="4.91221">
        <ele>169.2998</ele>
        <time>2026-05-13T16:52:07+02:00</time>
      </trkpt>
      <trkpt lat="46.56389" lon="4.91219">
        <ele>169.2998</ele>
        <time>2026-05-13T16:52:08+02:00</time>
      </trkpt>
      <trkpt lat="46.56392" lon="4.91217">
        <ele>169.7002</ele>
        <time>2026-05-13T16:52:09+02:00</time>
      </trkpt>
      <trkpt lat="46.56395" lon="4.91216">
        <ele>169.60059</ele>
        <time>2026-05-13T16:52:10+02:00</time>
      </trkpt>
      <trkpt lat="46.56398" lon="4.91215">
        <ele>169.60059</ele>
        <time>2026-05-13T16:52:11+02:00</time>
      </trkpt>
      <trkpt lat="46.564" lon="4.91213">
        <ele>169.60059</ele>
        <time>2026-05-13T16:52:12+02:00</time>
      </trkpt>
      <trkpt lat="46.56405" lon="4.9121">
        <ele>169.60059</ele>
        <time>2026-05-13T16:52:13+02:00</time>
      </trkpt>
      <trkpt lat="46.5641" lon="4.91207">
        <ele>169.90039</ele>
        <time>2026-05-13T16:52:14+02:00</time>
      </trkpt>
      <trkpt lat="46.56414" lon="4.91205">
        <ele>169.7998</ele>
        <time>2026-05-13T16:52:15+02:00</time>
      </trkpt>
      <trkpt lat="46.56419" lon="4.91203">
        <ele>169.7998</ele>
        <time>2026-05-13T16:52:16+02:00</time>
      </trkpt>
      <trkpt lat="46.56425" lon="4.912">
        <ele>170.10059</ele>
        <time>2026-05-13T16:52:17+02:00</time>
      </trkpt>
      <trkpt lat="46.56431" lon="4.91197">
        <ele>169.7998</ele>
        <time>2026-05-13T16:52:18+02:00</time>
      </trkpt>
      <trkpt lat="46.56438" lon="4.91194">
        <ele>169.5</ele>
        <time>2026-05-13T16:52:19+02:00</time>
      </trkpt>
      <trkpt lat="46.56445" lon="4.91191">
        <ele>169.2998</ele>
        <time>2026-05-13T16:52:20+02:00</time>
      </trkpt>
      <trkpt lat="46.56452" lon="4.91188">
        <ele>169.2998</ele>
        <time>2026-05-13T16:52:21+02:00</time>
      </trkpt>
      <trkpt lat="46.56459" lon="4.91186">
        <ele>169.40039</ele>
        <time>2026-05-13T16:52:22+02:00</time>
      </trkpt>
      <trkpt lat="46.56463" lon="4.91184">
        <ele>169.40039</ele>
        <time>2026-05-13T16:52:23+02:00</time>
      </trkpt>
      <trkpt lat="46.56473" lon="4.9118">
        <ele>169.40039</ele>
        <time>2026-05-13T16:52:24+02:00</time>
      </trkpt>
      <trkpt lat="46.56479" lon="4.91177">
        <ele>169.40039</ele>
        <time>2026-05-13T16:52:25+02:00</time>
      </trkpt>
      <trkpt lat="46.56485" lon="4.91174">
        <ele>169.7002</ele>
        <time>2026-05-13T16:52:26+02:00</time>
      </trkpt>
      <trkpt lat="46.56488" lon="4.91173">
        <ele>169.7002</ele>
        <time>2026-05-13T16:52:27+02:00</time>
      </trkpt>
      <trkpt lat="46.56497" lon="4.91168">
        <ele>169.7002</ele>
        <time>2026-05-13T16:52:28+02:00</time>
      </trkpt>
      <trkpt lat="46.56503" lon="4.91166">
        <ele>170</ele>
        <time>2026-05-13T16:52:29+02:00</time>
      </trkpt>
      <trkpt lat="46.56508" lon="4.91163">
        <ele>169.90039</ele>
        <time>2026-05-13T16:52:30+02:00</time>
      </trkpt>
      <trkpt lat="46.56514" lon="4.91161">
        <ele>169.90039</ele>
        <time>2026-05-13T16:52:31+02:00</time>
      </trkpt>
      <trkpt lat="46.56519" lon="4.91157">
        <ele>170.5</ele>
        <time>2026-05-13T16:52:32+02:00</time>
      </trkpt>
      <trkpt lat="46.56524" lon="4.91154">
        <ele>170.40039</ele>
        <time>2026-05-13T16:52:33+02:00</time>
      </trkpt>
      <trkpt lat="46.56529" lon="4.91152">
        <ele>170.40039</ele>
        <time>2026-05-13T16:52:34+02:00</time>
      </trkpt>
      <trkpt lat="46.56534" lon="4.91149">
        <ele>170.2002</ele>
        <time>2026-05-13T16:52:35+02:00</time>
      </trkpt>
      <trkpt lat="46.5654" lon="4.91146">
        <ele>170.5</ele>
        <time>2026-05-13T16:52:36+02:00</time>
      </trkpt>
      <trkpt lat="46.56545" lon="4.91144">
        <ele>169.90039</ele>
        <time>2026-05-13T16:52:37+02:00</time>
      </trkpt>
      <trkpt lat="46.5655" lon="4.91142">
        <ele>169.40039</ele>
        <time>2026-05-13T16:52:38+02:00</time>
      </trkpt>
      <trkpt lat="46.56555" lon="4.91139">
        <ele>169.40039</ele>
        <time>2026-05-13T16:52:39+02:00</time>
      </trkpt>
      <trkpt lat="46.5656" lon="4.91137">
        <ele>169.40039</ele>
        <time>2026-05-13T16:52:40+02:00</time>
      </trkpt>
      <trkpt lat="46.56564" lon="4.91136">
        <ele>169.40039</ele>
        <time>2026-05-13T16:52:41+02:00</time>
      </trkpt>
      <trkpt lat="46.56566" lon="4.91135">
        <ele>169.40039</ele>
        <time>2026-05-13T16:52:42+02:00</time>
      </trkpt>
      <trkpt lat="46.56571" lon="4.91133">
        <ele>169.40039</ele>
        <time>2026-05-13T16:52:43+02:00</time>
      </trkpt>
      <trkpt lat="46.56573" lon="4.91132">
        <ele>169.40039</ele>
        <time>2026-05-13T16:52:44+02:00</time>
      </trkpt>
      <trkpt lat="46.56579" lon="4.9113">
        <ele>169.7002</ele>
        <time>2026-05-13T16:52:45+02:00</time>
      </trkpt>
      <trkpt lat="46.56584" lon="4.91129">
        <ele>169.7002</ele>
        <time>2026-05-13T16:52:46+02:00</time>
      </trkpt>
      <trkpt lat="46.56588" lon="4.91127">
        <ele>169.7002</ele>
        <time>2026-05-13T16:52:47+02:00</time>
      </trkpt>
      <trkpt lat="46.56593" lon="4.91126">
        <ele>169.7002</ele>
        <time>2026-05-13T16:52:48+02:00</time>
      </trkpt>
      <trkpt lat="46.56598" lon="4.91124">
        <ele>169.7002</ele>
        <time>2026-05-13T16:52:49+02:00</time>
      </trkpt>
      <trkpt lat="46.56604" lon="4.91122">
        <ele>170.10059</ele>
        <time>2026-05-13T16:52:50+02:00</time>
      </trkpt>
      <trkpt lat="46.56607" lon="4.91122">
        <ele>170</ele>
        <time>2026-05-13T16:52:51+02:00</time>
      </trkpt>
      <trkpt lat="46.56615" lon="4.91119">
        <ele>170</ele>
        <time>2026-05-13T16:52:52+02:00</time>
      </trkpt>
      <trkpt lat="46.56618" lon="4.91119">
        <ele>169.90039</ele>
        <time>2026-05-13T16:52:53+02:00</time>
      </trkpt>
      <trkpt lat="46.56627" lon="4.91117">
        <ele>169.90039</ele>
        <time>2026-05-13T16:52:54+02:00</time>
      </trkpt>
      <trkpt lat="46.56632" lon="4.91116">
        <ele>169.7998</ele>
        <time>2026-05-13T16:52:55+02:00</time>
      </trkpt>
      <trkpt lat="46.56638" lon="4.91115">
        <ele>169.7998</ele>
        <time>2026-05-13T16:52:56+02:00</time>
      </trkpt>
      <trkpt lat="46.56644" lon="4.91114">
        <ele>170.40039</ele>
        <time>2026-05-13T16:52:57+02:00</time>
      </trkpt>
      <trkpt lat="46.5665" lon="4.91112">
        <ele>170.40039</ele>
        <time>2026-05-13T16:52:58+02:00</time>
      </trkpt>
      <trkpt lat="46.56656" lon="4.9111">
        <ele>170.2998</ele>
        <time>2026-05-13T16:52:59+02:00</time>
      </trkpt>
      <trkpt lat="46.56662" lon="4.91108">
        <ele>170.2002</ele>
        <time>2026-05-13T16:53:00+02:00</time>
      </trkpt>
      <trkpt lat="46.56667" lon="4.91105">
        <ele>171.10059</ele>
        <time>2026-05-13T16:53:01+02:00</time>
      </trkpt>
      <trkpt lat="46.56672" lon="4.91102">
        <ele>171</ele>
        <time>2026-05-13T16:53:02+02:00</time>
      </trkpt>
      <trkpt lat="46.56676" lon="4.911">
        <ele>171</ele>
        <time>2026-05-13T16:53:03+02:00</time>
      </trkpt>
      <trkpt lat="46.56679" lon="4.91098">
        <ele>170.90039</ele>
        <time>2026-05-13T16:53:04+02:00</time>
      </trkpt>
      <trkpt lat="46.5668" lon="4.91098">
        <ele>170.90039</ele>
        <time>2026-05-13T16:53:05+02:00</time>
      </trkpt>
      <trkpt lat="46.56684" lon="4.91096">
        <ele>171.7998</ele>
        <time>2026-05-13T16:53:06+02:00</time>
      </trkpt>
      <trkpt lat="46.56687" lon="4.91096">
        <ele>171.7998</ele>
        <time>2026-05-13T16:53:07+02:00</time>
      </trkpt>
      <trkpt lat="46.56688" lon="4.91096">
        <ele>171.7998</ele>
        <time>2026-05-13T16:53:08+02:00</time>
      </trkpt>
      <trkpt lat="46.5669" lon="4.91097">
        <ele>171.7002</ele>
        <time>2026-05-13T16:53:09+02:00</time>
      </trkpt>
      <trkpt lat="46.56691" lon="4.91099">
        <ele>170.7002</ele>
        <time>2026-05-13T16:53:10+02:00</time>
      </trkpt>
      <trkpt lat="46.56693" lon="4.91101">
        <ele>170.7002</ele>
        <time>2026-05-13T16:53:11+02:00</time>
      </trkpt>
      <trkpt lat="46.56693" lon="4.91103">
        <ele>170.7002</ele>
        <time>2026-05-13T16:53:12+02:00</time>
      </trkpt>
      <trkpt lat="46.56694" lon="4.91104">
        <ele>170.7002</ele>
        <time>2026-05-13T16:53:13+02:00</time>
      </trkpt>
      <trkpt lat="46.56696" lon="4.91107">
        <ele>169.90039</ele>
        <time>2026-05-13T16:53:14+02:00</time>
      </trkpt>
      <trkpt lat="46.56698" lon="4.91112">
        <ele>169.90039</ele>
        <time>2026-05-13T16:53:15+02:00</time>
      </trkpt>
      <trkpt lat="46.56699" lon="4.91114">
        <ele>169.90039</ele>
        <time>2026-05-13T16:53:16+02:00</time>
      </trkpt>
      <trkpt lat="46.567" lon="4.91115">
        <ele>169.7002</ele>
        <time>2026-05-13T16:53:17+02:00</time>
      </trkpt>
      <trkpt lat="46.567" lon="4.91115">
        <ele>169.7002</ele>
        <time>2026-05-13T16:53:18+02:00</time>
      </trkpt>
      <trkpt lat="46.567" lon="4.91115">
        <ele>169.7002</ele>
        <time>2026-05-13T16:53:19+02:00</time>
      </trkpt>
      <trkpt lat="46.567" lon="4.91115">
        <ele>169.7002</ele>
        <time>2026-05-13T16:53:20+02:00</time>
      </trkpt>
      <trkpt lat="46.567" lon="4.91115">
        <ele>169.7002</ele>
        <time>2026-05-13T16:53:21+02:00</time>
      </trkpt>
      <trkpt lat="46.567" lon="4.91115">
        <ele>169.7002</ele>
        <time>2026-05-13T16:53:22+02:00</time>
      </trkpt>
      <trkpt lat="46.56719" lon="4.91118">
        <ele>169.60059</ele>
        <time>2026-05-13T16:53:53+02:00</time>
      </trkpt>
      <trkpt lat="46.56723" lon="4.91118">
        <ele>169.60059</ele>
        <time>2026-05-13T16:53:54+02:00</time>
      </trkpt>
      <trkpt lat="46.56727" lon="4.91118">
        <ele>169.60059</ele>
        <time>2026-05-13T16:53:55+02:00</time>
      </trkpt>
      <trkpt lat="46.56732" lon="4.91118">
        <ele>169.60059</ele>
        <time>2026-05-13T16:53:56+02:00</time>
      </trkpt>
      <trkpt lat="46.56735" lon="4.91118">
        <ele>169.60059</ele>
        <time>2026-05-13T16:53:57+02:00</time>
      </trkpt>
      <trkpt lat="46.56739" lon="4.91117">
        <ele>169.60059</ele>
        <time>2026-05-13T16:53:58+02:00</time>
      </trkpt>
      <trkpt lat="46.56743" lon="4.91117">
        <ele>169.5</ele>
        <time>2026-05-13T16:53:59+02:00</time>
      </trkpt>
      <trkpt lat="46.56747" lon="4.91117">
        <ele>169.5</ele>
        <time>2026-05-13T16:54:00+02:00</time>
      </trkpt>
      <trkpt lat="46.56751" lon="4.91117">
        <ele>169.5</ele>
        <time>2026-05-13T16:54:01+02:00</time>
      </trkpt>
      <trkpt lat="46.56754" lon="4.91117">
        <ele>169.5</ele>
        <time>2026-05-13T16:54:02+02:00</time>
      </trkpt>
      <trkpt lat="46.56758" lon="4.91118">
        <ele>169.5</ele>
        <time>2026-05-13T16:54:03+02:00</time>
      </trkpt>
      <trkpt lat="46.56762" lon="4.91119">
        <ele>169.5</ele>
        <time>2026-05-13T16:54:04+02:00</time>
      </trkpt>
      <trkpt lat="46.56766" lon="4.9112">
        <ele>169.5</ele>
        <time>2026-05-13T16:54:05+02:00</time>
      </trkpt>
      <trkpt lat="46.5677" lon="4.9112">
        <ele>169.5</ele>
        <time>2026-05-13T16:54:06+02:00</time>
      </trkpt>
      <trkpt lat="46.56775" lon="4.91121">
        <ele>169.5</ele>
        <time>2026-05-13T16:54:07+02:00</time>
      </trkpt>
      <trkpt lat="46.56778" lon="4.91123">
        <ele>169.5</ele>
        <time>2026-05-13T16:54:08+02:00</time>
      </trkpt>
      <trkpt lat="46.56781" lon="4.91123">
        <ele>169.5</ele>
        <time>2026-05-13T16:54:09+02:00</time>
      </trkpt>
      <trkpt lat="46.56787" lon="4.91125">
        <ele>169.40039</ele>
        <time>2026-05-13T16:54:10+02:00</time>
      </trkpt>
      <trkpt lat="46.56791" lon="4.91127">
        <ele>169.40039</ele>
        <time>2026-05-13T16:54:11+02:00</time>
      </trkpt>
      <trkpt lat="46.56795" lon="4.91128">
        <ele>169.40039</ele>
        <time>2026-05-13T16:54:12+02:00</time>
      </trkpt>
      <trkpt lat="46.568" lon="4.91129">
        <ele>169.40039</ele>
        <time>2026-05-13T16:54:13+02:00</time>
      </trkpt>
      <trkpt lat="46.56805" lon="4.91131">
        <ele>169.60059</ele>
        <time>2026-05-13T16:54:14+02:00</time>
      </trkpt>
      <trkpt lat="46.5681" lon="4.91132">
        <ele>169.7002</ele>
        <time>2026-05-13T16:54:15+02:00</time>
      </trkpt>
      <trkpt lat="46.56815" lon="4.91133">
        <ele>169.7998</ele>
        <time>2026-05-13T16:54:16+02:00</time>
      </trkpt>
      <trkpt lat="46.5682" lon="4.91135">
        <ele>169.7998</ele>
        <time>2026-05-13T16:54:17+02:00</time>
      </trkpt>
      <trkpt lat="46.56826" lon="4.91136">
        <ele>169.7998</ele>
        <time>2026-05-13T16:54:18+02:00</time>
      </trkpt>
      <trkpt lat="46.56831" lon="4.91137">
        <ele>169.7002</ele>
        <time>2026-05-13T16:54:19+02:00</time>
      </trkpt>
      <trkpt lat="46.56836" lon="4.91139">
        <ele>169.7002</ele>
        <time>2026-05-13T16:54:20+02:00</time>
      </trkpt>
      <trkpt lat="46.56842" lon="4.91141">
        <ele>169.2002</ele>
        <time>2026-05-13T16:54:21+02:00</time>
      </trkpt>
      <trkpt lat="46.56848" lon="4.91142">
        <ele>169.2002</ele>
        <time>2026-05-13T16:54:22+02:00</time>
      </trkpt>
      <trkpt lat="46.56853" lon="4.91144">
        <ele>169.2002</ele>
        <time>2026-05-13T16:54:23+02:00</time>
      </trkpt>
      <trkpt lat="46.56859" lon="4.91145">
        <ele>169.2998</ele>
        <time>2026-05-13T16:54:24+02:00</time>
      </trkpt>
      <trkpt lat="46.56865" lon="4.91147">
        <ele>169.40039</ele>
        <time>2026-05-13T16:54:25+02:00</time>
      </trkpt>
      <trkpt lat="46.5687" lon="4.91149">
        <ele>169.5</ele>
        <time>2026-05-13T16:54:26+02:00</time>
      </trkpt>
      <trkpt lat="46.56875" lon="4.9115">
        <ele>169.40039</ele>
        <time>2026-05-13T16:54:27+02:00</time>
      </trkpt>
      <trkpt lat="46.56881" lon="4.91152">
        <ele>169.2998</ele>
        <time>2026-05-13T16:54:28+02:00</time>
      </trkpt>
      <trkpt lat="46.56886" lon="4.91153">
        <ele>169.2998</ele>
        <time>2026-05-13T16:54:29+02:00</time>
      </trkpt>
      <trkpt lat="46.56892" lon="4.91154">
        <ele>169.5</ele>
        <time>2026-05-13T16:54:30+02:00</time>
      </trkpt>
      <trkpt lat="46.56897" lon="4.91155">
        <ele>170</ele>
        <time>2026-05-13T16:54:31+02:00</time>
      </trkpt>
      <trkpt lat="46.56902" lon="4.91155">
        <ele>170.7002</ele>
        <time>2026-05-13T16:54:32+02:00</time>
      </trkpt>
      <trkpt lat="46.56907" lon="4.91156">
        <ele>170.7002</ele>
        <time>2026-05-13T16:54:33+02:00</time>
      </trkpt>
      <trkpt lat="46.56913" lon="4.91157">
        <ele>171.40039</ele>
        <time>2026-05-13T16:54:34+02:00</time>
      </trkpt>
      <trkpt lat="46.56918" lon="4.9116">
        <ele>169.7002</ele>
        <time>2026-05-13T16:54:35+02:00</time>
      </trkpt>
      <trkpt lat="46.56923" lon="4.91162">
        <ele>169.7002</ele>
        <time>2026-05-13T16:54:36+02:00</time>
      </trkpt>
      <trkpt lat="46.56928" lon="4.91165">
        <ele>169.7002</ele>
        <time>2026-05-13T16:54:37+02:00</time>
      </trkpt>
      <trkpt lat="46.56934" lon="4.91167">
        <ele>169.2998</ele>
        <time>2026-05-13T16:54:38+02:00</time>
      </trkpt>
      <trkpt lat="46.56939" lon="4.91169">
        <ele>169.40039</ele>
        <time>2026-05-13T16:54:39+02:00</time>
      </trkpt>
      <trkpt lat="46.56945" lon="4.91171">
        <ele>169.2998</ele>
        <time>2026-05-13T16:54:40+02:00</time>
      </trkpt>
      <trkpt lat="46.5695" lon="4.91173">
        <ele>169.2002</ele>
        <time>2026-05-13T16:54:41+02:00</time>
      </trkpt>
      <trkpt lat="46.56955" lon="4.91175">
        <ele>169.40039</ele>
        <time>2026-05-13T16:54:42+02:00</time>
      </trkpt>
      <trkpt lat="46.5696" lon="4.91177">
        <ele>169.40039</ele>
        <time>2026-05-13T16:54:43+02:00</time>
      </trkpt>
      <trkpt lat="46.56965" lon="4.91179">
        <ele>169.60059</ele>
        <time>2026-05-13T16:54:44+02:00</time>
      </trkpt>
      <trkpt lat="46.5697" lon="4.9118">
        <ele>169.90039</ele>
        <time>2026-05-13T16:54:45+02:00</time>
      </trkpt>
      <trkpt lat="46.56975" lon="4.91182">
        <ele>170.2998</ele>
        <time>2026-05-13T16:54:46+02:00</time>
      </trkpt>
      <trkpt lat="46.5698" lon="4.91184">
        <ele>169.7002</ele>
        <time>2026-05-13T16:54:47+02:00</time>
      </trkpt>
      <trkpt lat="46.56984" lon="4.91185">
        <ele>169.7002</ele>
        <time>2026-05-13T16:54:48+02:00</time>
      </trkpt>
      <trkpt lat="46.56987" lon="4.91186">
        <ele>169.7002</ele>
        <time>2026-05-13T16:54:49+02:00</time>
      </trkpt>
      <trkpt lat="46.56994" lon="4.91188">
        <ele>169.60059</ele>
        <time>2026-05-13T16:54:50+02:00</time>
      </trkpt>
      <trkpt lat="46.56998" lon="4.9119">
        <ele>169.60059</ele>
        <time>2026-05-13T16:54:51+02:00</time>
      </trkpt>
      <trkpt lat="46.57003" lon="4.91192">
        <ele>169.40039</ele>
        <time>2026-05-13T16:54:52+02:00</time>
      </trkpt>
      <trkpt lat="46.57007" lon="4.91193">
        <ele>169.40039</ele>
        <time>2026-05-13T16:54:53+02:00</time>
      </trkpt>
      <trkpt lat="46.57012" lon="4.91194">
        <ele>169.60059</ele>
        <time>2026-05-13T16:54:54+02:00</time>
      </trkpt>
      <trkpt lat="46.57015" lon="4.91196">
        <ele>169.7998</ele>
        <time>2026-05-13T16:54:55+02:00</time>
      </trkpt>
      <trkpt lat="46.57018" lon="4.91197">
        <ele>169.7998</ele>
        <time>2026-05-13T16:54:56+02:00</time>
      </trkpt>
      <trkpt lat="46.57021" lon="4.91198">
        <ele>170</ele>
        <time>2026-05-13T16:54:57+02:00</time>
      </trkpt>
      <trkpt lat="46.57024" lon="4.91199">
        <ele>170</ele>
        <time>2026-05-13T16:54:58+02:00</time>
      </trkpt>
      <trkpt lat="46.57026" lon="4.91199">
        <ele>170.2002</ele>
        <time>2026-05-13T16:54:59+02:00</time>
      </trkpt>
      <trkpt lat="46.57029" lon="4.912">
        <ele>170.2002</ele>
        <time>2026-05-13T16:55:00+02:00</time>
      </trkpt>
      <trkpt lat="46.57033" lon="4.91202">
        <ele>169.90039</ele>
        <time>2026-05-13T16:55:01+02:00</time>
      </trkpt>
      <trkpt lat="46.57037" lon="4.91203">
        <ele>169.90039</ele>
        <time>2026-05-13T16:55:02+02:00</time>
      </trkpt>
      <trkpt lat="46.57042" lon="4.91204">
        <ele>169.90039</ele>
        <time>2026-05-13T16:55:03+02:00</time>
      </trkpt>
      <trkpt lat="46.57046" lon="4.91206">
        <ele>169.90039</ele>
        <time>2026-05-13T16:55:04+02:00</time>
      </trkpt>
      <trkpt lat="46.5705" lon="4.91207">
        <ele>169.90039</ele>
        <time>2026-05-13T16:55:05+02:00</time>
      </trkpt>
      <trkpt lat="46.57055" lon="4.91209">
        <ele>169.90039</ele>
        <time>2026-05-13T16:55:06+02:00</time>
      </trkpt>
      <trkpt lat="46.57059" lon="4.9121">
        <ele>169.7002</ele>
        <time>2026-05-13T16:55:07+02:00</time>
      </trkpt>
      <trkpt lat="46.57063" lon="4.91211">
        <ele>169.7002</ele>
        <time>2026-05-13T16:55:08+02:00</time>
      </trkpt>
      <trkpt lat="46.57066" lon="4.91212">
        <ele>169.7002</ele>
        <time>2026-05-13T16:55:09+02:00</time>
      </trkpt>
      <trkpt lat="46.57069" lon="4.91213">
        <ele>169.7002</ele>
        <time>2026-05-13T16:55:10+02:00</time>
      </trkpt>
      <trkpt lat="46.57072" lon="4.91213">
        <ele>169.7002</ele>
        <time>2026-05-13T16:55:11+02:00</time>
      </trkpt>
      <trkpt lat="46.57076" lon="4.91214">
        <ele>169.7002</ele>
        <time>2026-05-13T16:55:12+02:00</time>
      </trkpt>
      <trkpt lat="46.57081" lon="4.91215">
        <ele>169.60059</ele>
        <time>2026-05-13T16:55:13+02:00</time>
      </trkpt>
      <trkpt lat="46.57085" lon="4.91216">
        <ele>169.60059</ele>
        <time>2026-05-13T16:55:14+02:00</time>
      </trkpt>
      <trkpt lat="46.57091" lon="4.91217">
        <ele>169.60059</ele>
        <time>2026-05-13T16:55:15+02:00</time>
      </trkpt>
      <trkpt lat="46.57096" lon="4.91219">
        <ele>169.5</ele>
        <time>2026-05-13T16:55:16+02:00</time>
      </trkpt>
      <trkpt lat="46.57102" lon="4.9122">
        <ele>169.60059</ele>
        <time>2026-05-13T16:55:17+02:00</time>
      </trkpt>
      <trkpt lat="46.57107" lon="4.91221">
        <ele>169.60059</ele>
        <time>2026-05-13T16:55:18+02:00</time>
      </trkpt>
      <trkpt lat="46.57113" lon="4.91222">
        <ele>169.7002</ele>
        <time>2026-05-13T16:55:19+02:00</time>
      </trkpt>
      <trkpt lat="46.57119" lon="4.91223">
        <ele>169.7998</ele>
        <time>2026-05-13T16:55:20+02:00</time>
      </trkpt>
      <trkpt lat="46.57124" lon="4.91224">
        <ele>170</ele>
        <time>2026-05-13T16:55:21+02:00</time>
      </trkpt>
      <trkpt lat="46.57127" lon="4.91224">
        <ele>170.2002</ele>
        <time>2026-05-13T16:55:22+02:00</time>
      </trkpt>
      <trkpt lat="46.57135" lon="4.91226">
        <ele>170.40039</ele>
        <time>2026-05-13T16:55:23+02:00</time>
      </trkpt>
      <trkpt lat="46.5714" lon="4.91227">
        <ele>169.90039</ele>
        <time>2026-05-13T16:55:24+02:00</time>
      </trkpt>
      <trkpt lat="46.57146" lon="4.91228">
        <ele>169.90039</ele>
        <time>2026-05-13T16:55:25+02:00</time>
      </trkpt>
      <trkpt lat="46.57152" lon="4.91229">
        <ele>169.90039</ele>
        <time>2026-05-13T16:55:26+02:00</time>
      </trkpt>
      <trkpt lat="46.57157" lon="4.91231">
        <ele>169.90039</ele>
        <time>2026-05-13T16:55:27+02:00</time>
      </trkpt>
      <trkpt lat="46.57163" lon="4.91232">
        <ele>169.90039</ele>
        <time>2026-05-13T16:55:28+02:00</time>
      </trkpt>
      <trkpt lat="46.57168" lon="4.91232">
        <ele>169.90039</ele>
        <time>2026-05-13T16:55:29+02:00</time>
      </trkpt>
      <trkpt lat="46.57174" lon="4.91233">
        <ele>169.7998</ele>
        <time>2026-05-13T16:55:30+02:00</time>
      </trkpt>
      <trkpt lat="46.57179" lon="4.91234">
        <ele>169.7998</ele>
        <time>2026-05-13T16:55:31+02:00</time>
      </trkpt>
      <trkpt lat="46.57185" lon="4.91234">
        <ele>169.7998</ele>
        <time>2026-05-13T16:55:32+02:00</time>
      </trkpt>
      <trkpt lat="46.5719" lon="4.91235">
        <ele>169.5</ele>
        <time>2026-05-13T16:55:33+02:00</time>
      </trkpt>
      <trkpt lat="46.57195" lon="4.91235">
        <ele>169.5</ele>
        <time>2026-05-13T16:55:34+02:00</time>
      </trkpt>
      <trkpt lat="46.57201" lon="4.91235">
        <ele>169.5</ele>
        <time>2026-05-13T16:55:35+02:00</time>
      </trkpt>
      <trkpt lat="46.57206" lon="4.91236">
        <ele>169.5</ele>
        <time>2026-05-13T16:55:36+02:00</time>
      </trkpt>
      <trkpt lat="46.57211" lon="4.91236">
        <ele>169.40039</ele>
        <time>2026-05-13T16:55:37+02:00</time>
      </trkpt>
      <trkpt lat="46.57217" lon="4.91236">
        <ele>169.40039</ele>
        <time>2026-05-13T16:55:38+02:00</time>
      </trkpt>
      <trkpt lat="46.57222" lon="4.91236">
        <ele>169.40039</ele>
        <time>2026-05-13T16:55:39+02:00</time>
      </trkpt>
      <trkpt lat="46.57227" lon="4.91237">
        <ele>169.40039</ele>
        <time>2026-05-13T16:55:40+02:00</time>
      </trkpt>
      <trkpt lat="46.5723" lon="4.91237">
        <ele>169.40039</ele>
        <time>2026-05-13T16:55:41+02:00</time>
      </trkpt>
      <trkpt lat="46.57239" lon="4.91238">
        <ele>169.40039</ele>
        <time>2026-05-13T16:55:42+02:00</time>
      </trkpt>
      <trkpt lat="46.57244" lon="4.91238">
        <ele>169.40039</ele>
        <time>2026-05-13T16:55:43+02:00</time>
      </trkpt>
      <trkpt lat="46.5725" lon="4.91239">
        <ele>169.40039</ele>
        <time>2026-05-13T16:55:44+02:00</time>
      </trkpt>
      <trkpt lat="46.57255" lon="4.9124">
        <ele>169.40039</ele>
        <time>2026-05-13T16:55:45+02:00</time>
      </trkpt>
      <trkpt lat="46.57261" lon="4.91241">
        <ele>169.40039</ele>
        <time>2026-05-13T16:55:46+02:00</time>
      </trkpt>
      <trkpt lat="46.57266" lon="4.91241">
        <ele>169.40039</ele>
        <time>2026-05-13T16:55:47+02:00</time>
      </trkpt>
      <trkpt lat="46.57272" lon="4.91242">
        <ele>169.40039</ele>
        <time>2026-05-13T16:55:48+02:00</time>
      </trkpt>
      <trkpt lat="46.57277" lon="4.91243">
        <ele>169.40039</ele>
        <time>2026-05-13T16:55:49+02:00</time>
      </trkpt>
      <trkpt lat="46.57283" lon="4.91243">
        <ele>169.40039</ele>
        <time>2026-05-13T16:55:50+02:00</time>
      </trkpt>
      <trkpt lat="46.57289" lon="4.91243">
        <ele>169.40039</ele>
        <time>2026-05-13T16:55:51+02:00</time>
      </trkpt>
      <trkpt lat="46.57295" lon="4.91243">
        <ele>169.40039</ele>
        <time>2026-05-13T16:55:52+02:00</time>
      </trkpt>
      <trkpt lat="46.573" lon="4.91242">
        <ele>169.40039</ele>
        <time>2026-05-13T16:55:53+02:00</time>
      </trkpt>
      <trkpt lat="46.57303" lon="4.91242">
        <ele>169.40039</ele>
        <time>2026-05-13T16:55:54+02:00</time>
      </trkpt>
      <trkpt lat="46.57311" lon="4.9124">
        <ele>169.5</ele>
        <time>2026-05-13T16:55:55+02:00</time>
      </trkpt>
      <trkpt lat="46.57316" lon="4.9124">
        <ele>169.5</ele>
        <time>2026-05-13T16:55:56+02:00</time>
      </trkpt>
      <trkpt lat="46.57321" lon="4.91239">
        <ele>169.5</ele>
        <time>2026-05-13T16:55:57+02:00</time>
      </trkpt>
      <trkpt lat="46.57326" lon="4.91238">
        <ele>169.5</ele>
        <time>2026-05-13T16:55:58+02:00</time>
      </trkpt>
      <trkpt lat="46.57331" lon="4.91238">
        <ele>169.5</ele>
        <time>2026-05-13T16:55:59+02:00</time>
      </trkpt>
      <trkpt lat="46.57336" lon="4.91237">
        <ele>169.5</ele>
        <time>2026-05-13T16:56:00+02:00</time>
      </trkpt>
      <trkpt lat="46.57341" lon="4.91237">
        <ele>169.5</ele>
        <time>2026-05-13T16:56:01+02:00</time>
      </trkpt>
      <trkpt lat="46.57345" lon="4.91237">
        <ele>169.5</ele>
        <time>2026-05-13T16:56:02+02:00</time>
      </trkpt>
      <trkpt lat="46.5735" lon="4.91236">
        <ele>169.60059</ele>
        <time>2026-05-13T16:56:03+02:00</time>
      </trkpt>
      <trkpt lat="46.57354" lon="4.91235">
        <ele>169.60059</ele>
        <time>2026-05-13T16:56:04+02:00</time>
      </trkpt>
      <trkpt lat="46.5736" lon="4.91235">
        <ele>169.60059</ele>
        <time>2026-05-13T16:56:05+02:00</time>
      </trkpt>
      <trkpt lat="46.57365" lon="4.91235">
        <ele>169.60059</ele>
        <time>2026-05-13T16:56:06+02:00</time>
      </trkpt>
      <trkpt lat="46.57371" lon="4.91235">
        <ele>169.60059</ele>
        <time>2026-05-13T16:56:07+02:00</time>
      </trkpt>
      <trkpt lat="46.57376" lon="4.91235">
        <ele>169.60059</ele>
        <time>2026-05-13T16:56:08+02:00</time>
      </trkpt>
      <trkpt lat="46.57381" lon="4.91234">
        <ele>169.60059</ele>
        <time>2026-05-13T16:56:09+02:00</time>
      </trkpt>
      <trkpt lat="46.57386" lon="4.91233">
        <ele>169.60059</ele>
        <time>2026-05-13T16:56:10+02:00</time>
      </trkpt>
      <trkpt lat="46.57389" lon="4.91233">
        <ele>169.60059</ele>
        <time>2026-05-13T16:56:11+02:00</time>
      </trkpt>
      <trkpt lat="46.57392" lon="4.91232">
        <ele>169.60059</ele>
        <time>2026-05-13T16:56:12+02:00</time>
      </trkpt>
      <trkpt lat="46.57393" lon="4.91232">
        <ele>169.60059</ele>
        <time>2026-05-13T16:56:13+02:00</time>
      </trkpt>
      <trkpt lat="46.57394" lon="4.91232">
        <ele>169.60059</ele>
        <time>2026-05-13T16:56:14+02:00</time>
      </trkpt>
      <trkpt lat="46.57394" lon="4.91232">
        <ele>169.60059</ele>
        <time>2026-05-13T16:56:15+02:00</time>
      </trkpt>
      <trkpt lat="46.57394" lon="4.91232">
        <ele>169.60059</ele>
        <time>2026-05-13T16:56:16+02:00</time>
      </trkpt>
      <trkpt lat="46.57394" lon="4.91232">
        <ele>169.60059</ele>
        <time>2026-05-13T16:56:17+02:00</time>
      </trkpt>
      <trkpt lat="46.57394" lon="4.91232">
        <ele>169.60059</ele>
        <time>2026-05-13T16:56:18+02:00</time>
      </trkpt>
      <trkpt lat="46.57374" lon="4.91234">
        <ele>169.60059</ele>
        <time>2026-05-13T16:56:25+02:00</time>
      </trkpt>
      <trkpt lat="46.5737" lon="4.91234">
        <ele>169.60059</ele>
        <time>2026-05-13T16:56:26+02:00</time>
      </trkpt>
      <trkpt lat="46.57366" lon="4.91234">
        <ele>169.5</ele>
        <time>2026-05-13T16:56:27+02:00</time>
      </trkpt>
      <trkpt lat="46.57361" lon="4.91234">
        <ele>169.5</ele>
        <time>2026-05-13T16:56:28+02:00</time>
      </trkpt>
      <trkpt lat="46.57359" lon="4.91235">
        <ele>169.60059</ele>
        <time>2026-05-13T16:56:29+02:00</time>
      </trkpt>
      <trkpt lat="46.57352" lon="4.91236">
        <ele>169.60059</ele>
        <time>2026-05-13T16:56:30+02:00</time>
      </trkpt>
      <trkpt lat="46.57347" lon="4.91236">
        <ele>169.5</ele>
        <time>2026-05-13T16:56:31+02:00</time>
      </trkpt>
      <trkpt lat="46.57343" lon="4.91237">
        <ele>169.5</ele>
        <time>2026-05-13T16:56:32+02:00</time>
      </trkpt>
      <trkpt lat="46.57338" lon="4.91238">
        <ele>169.5</ele>
        <time>2026-05-13T16:56:33+02:00</time>
      </trkpt>
      <trkpt lat="46.57333" lon="4.91238">
        <ele>169.5</ele>
        <time>2026-05-13T16:56:34+02:00</time>
      </trkpt>
      <trkpt lat="46.57328" lon="4.91239">
        <ele>169.5</ele>
        <time>2026-05-13T16:56:35+02:00</time>
      </trkpt>
      <trkpt lat="46.57322" lon="4.9124">
        <ele>169.5</ele>
        <time>2026-05-13T16:56:36+02:00</time>
      </trkpt>
      <trkpt lat="46.57317" lon="4.9124">
        <ele>169.5</ele>
        <time>2026-05-13T16:56:37+02:00</time>
      </trkpt>
      <trkpt lat="46.57312" lon="4.9124">
        <ele>169.5</ele>
        <time>2026-05-13T16:56:38+02:00</time>
      </trkpt>
      <trkpt lat="46.57307" lon="4.91241">
        <ele>169.40039</ele>
        <time>2026-05-13T16:56:39+02:00</time>
      </trkpt>
      <trkpt lat="46.57301" lon="4.91242">
        <ele>169.40039</ele>
        <time>2026-05-13T16:56:40+02:00</time>
      </trkpt>
      <trkpt lat="46.57296" lon="4.91243">
        <ele>169.40039</ele>
        <time>2026-05-13T16:56:41+02:00</time>
      </trkpt>
      <trkpt lat="46.5729" lon="4.91243">
        <ele>169.40039</ele>
        <time>2026-05-13T16:56:42+02:00</time>
      </trkpt>
      <trkpt lat="46.57285" lon="4.91244">
        <ele>169.5</ele>
        <time>2026-05-13T16:56:43+02:00</time>
      </trkpt>
      <trkpt lat="46.5728" lon="4.91243">
        <ele>169.40039</ele>
        <time>2026-05-13T16:56:44+02:00</time>
      </trkpt>
      <trkpt lat="46.57274" lon="4.91243">
        <ele>169.40039</ele>
        <time>2026-05-13T16:56:45+02:00</time>
      </trkpt>
      <trkpt lat="46.57269" lon="4.91242">
        <ele>169.40039</ele>
        <time>2026-05-13T16:56:46+02:00</time>
      </trkpt>
      <trkpt lat="46.57263" lon="4.91242">
        <ele>169.40039</ele>
        <time>2026-05-13T16:56:47+02:00</time>
      </trkpt>
      <trkpt lat="46.57258" lon="4.91241">
        <ele>169.40039</ele>
        <time>2026-05-13T16:56:48+02:00</time>
      </trkpt>
      <trkpt lat="46.57253" lon="4.9124">
        <ele>169.40039</ele>
        <time>2026-05-13T16:56:49+02:00</time>
      </trkpt>
      <trkpt lat="46.57247" lon="4.9124">
        <ele>169.40039</ele>
        <time>2026-05-13T16:56:50+02:00</time>
      </trkpt>
      <trkpt lat="46.57242" lon="4.91239">
        <ele>169.40039</ele>
        <time>2026-05-13T16:56:51+02:00</time>
      </trkpt>
      <trkpt lat="46.57236" lon="4.91238">
        <ele>169.40039</ele>
        <time>2026-05-13T16:56:52+02:00</time>
      </trkpt>
      <trkpt lat="46.57231" lon="4.91238">
        <ele>169.40039</ele>
        <time>2026-05-13T16:56:53+02:00</time>
      </trkpt>
      <trkpt lat="46.57226" lon="4.91237">
        <ele>169.40039</ele>
        <time>2026-05-13T16:56:54+02:00</time>
      </trkpt>
      <trkpt lat="46.5722" lon="4.91236">
        <ele>169.40039</ele>
        <time>2026-05-13T16:56:55+02:00</time>
      </trkpt>
      <trkpt lat="46.57214" lon="4.91235">
        <ele>169.40039</ele>
        <time>2026-05-13T16:56:56+02:00</time>
      </trkpt>
      <trkpt lat="46.57209" lon="4.91235">
        <ele>169.40039</ele>
        <time>2026-05-13T16:56:57+02:00</time>
      </trkpt>
      <trkpt lat="46.57204" lon="4.91235">
        <ele>169.5</ele>
        <time>2026-05-13T16:56:58+02:00</time>
      </trkpt>
      <trkpt lat="46.57198" lon="4.91234">
        <ele>169.7002</ele>
        <time>2026-05-13T16:56:59+02:00</time>
      </trkpt>
      <trkpt lat="46.57193" lon="4.91234">
        <ele>169.7998</ele>
        <time>2026-05-13T16:57:00+02:00</time>
      </trkpt>
      <trkpt lat="46.57187" lon="4.91233">
        <ele>169.7998</ele>
        <time>2026-05-13T16:57:01+02:00</time>
      </trkpt>
      <trkpt lat="46.57182" lon="4.91232">
        <ele>169.7998</ele>
        <time>2026-05-13T16:57:02+02:00</time>
      </trkpt>
      <trkpt lat="46.57176" lon="4.91232">
        <ele>169.7998</ele>
        <time>2026-05-13T16:57:03+02:00</time>
      </trkpt>
      <trkpt lat="46.57171" lon="4.91231">
        <ele>169.90039</ele>
        <time>2026-05-13T16:57:04+02:00</time>
      </trkpt>
      <trkpt lat="46.57165" lon="4.9123">
        <ele>169.90039</ele>
        <time>2026-05-13T16:57:05+02:00</time>
      </trkpt>
      <trkpt lat="46.5716" lon="4.91229">
        <ele>169.90039</ele>
        <time>2026-05-13T16:57:06+02:00</time>
      </trkpt>
      <trkpt lat="46.57154" lon="4.91228">
        <ele>169.90039</ele>
        <time>2026-05-13T16:57:07+02:00</time>
      </trkpt>
      <trkpt lat="46.57148" lon="4.91227">
        <ele>169.90039</ele>
        <time>2026-05-13T16:57:08+02:00</time>
      </trkpt>
      <trkpt lat="46.57143" lon="4.91225">
        <ele>170.60059</ele>
        <time>2026-05-13T16:57:09+02:00</time>
      </trkpt>
      <trkpt lat="46.57137" lon="4.91224">
        <ele>170.40039</ele>
        <time>2026-05-13T16:57:10+02:00</time>
      </trkpt>
      <trkpt lat="46.57132" lon="4.91222">
        <ele>170.40039</ele>
        <time>2026-05-13T16:57:11+02:00</time>
      </trkpt>
      <trkpt lat="46.57126" lon="4.91221">
        <ele>170.2002</ele>
        <time>2026-05-13T16:57:12+02:00</time>
      </trkpt>
      <trkpt lat="46.57121" lon="4.9122">
        <ele>170</ele>
        <time>2026-05-13T16:57:13+02:00</time>
      </trkpt>
      <trkpt lat="46.57115" lon="4.91218">
        <ele>169.7998</ele>
        <time>2026-05-13T16:57:14+02:00</time>
      </trkpt>
      <trkpt lat="46.5711" lon="4.91217">
        <ele>169.90039</ele>
        <time>2026-05-13T16:57:15+02:00</time>
      </trkpt>
      <trkpt lat="46.57104" lon="4.91216">
        <ele>169.7002</ele>
        <time>2026-05-13T16:57:16+02:00</time>
      </trkpt>
      <trkpt lat="46.57099" lon="4.91214">
        <ele>169.60059</ele>
        <time>2026-05-13T16:57:17+02:00</time>
      </trkpt>
      <trkpt lat="46.57094" lon="4.91213">
        <ele>169.60059</ele>
        <time>2026-05-13T16:57:18+02:00</time>
      </trkpt>
      <trkpt lat="46.57089" lon="4.91212">
        <ele>169.60059</ele>
        <time>2026-05-13T16:57:19+02:00</time>
      </trkpt>
      <trkpt lat="46.57084" lon="4.91211">
        <ele>169.60059</ele>
        <time>2026-05-13T16:57:20+02:00</time>
      </trkpt>
      <trkpt lat="46.57079" lon="4.9121">
        <ele>169.60059</ele>
        <time>2026-05-13T16:57:21+02:00</time>
      </trkpt>
      <trkpt lat="46.57074" lon="4.91209">
        <ele>169.90039</ele>
        <time>2026-05-13T16:57:22+02:00</time>
      </trkpt>
      <trkpt lat="46.57069" lon="4.91208">
        <ele>169.90039</ele>
        <time>2026-05-13T16:57:23+02:00</time>
      </trkpt>
      <trkpt lat="46.57064" lon="4.91206">
        <ele>169.90039</ele>
        <time>2026-05-13T16:57:24+02:00</time>
      </trkpt>
      <trkpt lat="46.57058" lon="4.91205">
        <ele>169.90039</ele>
        <time>2026-05-13T16:57:25+02:00</time>
      </trkpt>
      <trkpt lat="46.57054" lon="4.91203">
        <ele>169.90039</ele>
        <time>2026-05-13T16:57:26+02:00</time>
      </trkpt>
      <trkpt lat="46.57049" lon="4.91201">
        <ele>169.90039</ele>
        <time>2026-05-13T16:57:27+02:00</time>
      </trkpt>
      <trkpt lat="46.57043" lon="4.912">
        <ele>170.40039</ele>
        <time>2026-05-13T16:57:28+02:00</time>
      </trkpt>
      <trkpt lat="46.57038" lon="4.91199">
        <ele>170.2998</ele>
        <time>2026-05-13T16:57:29+02:00</time>
      </trkpt>
      <trkpt lat="46.57034" lon="4.91197">
        <ele>170.2998</ele>
        <time>2026-05-13T16:57:30+02:00</time>
      </trkpt>
      <trkpt lat="46.57032" lon="4.91195">
        <ele>170.2998</ele>
        <time>2026-05-13T16:57:31+02:00</time>
      </trkpt>
      <trkpt lat="46.57029" lon="4.9119">
        <ele>170.5</ele>
        <time>2026-05-13T16:57:32+02:00</time>
      </trkpt>
      <trkpt lat="46.57028" lon="4.91179">
        <ele>171</ele>
        <time>2026-05-13T16:57:33+02:00</time>
      </trkpt>
      <trkpt lat="46.57028" lon="4.91172">
        <ele>171.40039</ele>
        <time>2026-05-13T16:57:34+02:00</time>
      </trkpt>
      <trkpt lat="46.57028" lon="4.91164">
        <ele>172</ele>
        <time>2026-05-13T16:57:35+02:00</time>
      </trkpt>
      <trkpt lat="46.57028" lon="4.91157">
        <ele>172.7002</ele>
        <time>2026-05-13T16:57:36+02:00</time>
      </trkpt>
      <trkpt lat="46.57028" lon="4.91149">
        <ele>172.7002</ele>
        <time>2026-05-13T16:57:37+02:00</time>
      </trkpt>
      <trkpt lat="46.57027" lon="4.91141">
        <ele>173.5</ele>
        <time>2026-05-13T16:57:38+02:00</time>
      </trkpt>
      <trkpt lat="46.57027" lon="4.91133">
        <ele>174.7002</ele>
        <time>2026-05-13T16:57:39+02:00</time>
      </trkpt>
      <trkpt lat="46.57027" lon="4.91126">
        <ele>175.7002</ele>
        <time>2026-05-13T16:57:40+02:00</time>
      </trkpt>
      <trkpt lat="46.57027" lon="4.91118">
        <ele>176.40039</ele>
        <time>2026-05-13T16:57:41+02:00</time>
      </trkpt>
      <trkpt lat="46.57027" lon="4.9111">
        <ele>176.40039</ele>
        <time>2026-05-13T16:57:42+02:00</time>
      </trkpt>
      <trkpt lat="46.57027" lon="4.91102">
        <ele>176.10059</ele>
        <time>2026-05-13T16:57:43+02:00</time>
      </trkpt>
      <trkpt lat="46.57027" lon="4.91094">
        <ele>175.7002</ele>
        <time>2026-05-13T16:57:44+02:00</time>
      </trkpt>
      <trkpt lat="46.57026" lon="4.91086">
        <ele>175.60059</ele>
        <time>2026-05-13T16:57:45+02:00</time>
      </trkpt>
      <trkpt lat="46.57026" lon="4.91078">
        <ele>175.60059</ele>
        <time>2026-05-13T16:57:46+02:00</time>
      </trkpt>
      <trkpt lat="46.57026" lon="4.91071">
        <ele>175.60059</ele>
        <time>2026-05-13T16:57:47+02:00</time>
      </trkpt>
      <trkpt lat="46.57026" lon="4.91063">
        <ele>175.7002</ele>
        <time>2026-05-13T16:57:48+02:00</time>
      </trkpt>
      <trkpt lat="46.57026" lon="4.91055">
        <ele>175.7002</ele>
        <time>2026-05-13T16:57:49+02:00</time>
      </trkpt>
      <trkpt lat="46.57026" lon="4.91047">
        <ele>175.7998</ele>
        <time>2026-05-13T16:57:50+02:00</time>
      </trkpt>
      <trkpt lat="46.57026" lon="4.91039">
        <ele>175.90039</ele>
        <time>2026-05-13T16:57:51+02:00</time>
      </trkpt>
      <trkpt lat="46.57026" lon="4.91031">
        <ele>176.10059</ele>
        <time>2026-05-13T16:57:52+02:00</time>
      </trkpt>
      <trkpt lat="46.57026" lon="4.91027">
        <ele>176.2002</ele>
        <time>2026-05-13T16:57:53+02:00</time>
      </trkpt>
      <trkpt lat="46.57025" lon="4.91015">
        <ele>176.40039</ele>
        <time>2026-05-13T16:57:54+02:00</time>
      </trkpt>
      <trkpt lat="46.57025" lon="4.91007">
        <ele>176.60059</ele>
        <time>2026-05-13T16:57:55+02:00</time>
      </trkpt>
      <trkpt lat="46.57025" lon="4.90998">
        <ele>176.7998</ele>
        <time>2026-05-13T16:57:56+02:00</time>
      </trkpt>
      <trkpt lat="46.57025" lon="4.9099">
        <ele>177</ele>
        <time>2026-05-13T16:57:57+02:00</time>
      </trkpt>
      <trkpt lat="46.57025" lon="4.90982">
        <ele>177.10059</ele>
        <time>2026-05-13T16:57:58+02:00</time>
      </trkpt>
      <trkpt lat="46.57024" lon="4.90958">
        <ele>178</ele>
        <time>2026-05-13T16:57:59+02:00</time>
      </trkpt>
      <trkpt lat="46.57023" lon="4.9095">
        <ele>178.40039</ele>
        <time>2026-05-13T16:58:00+02:00</time>
      </trkpt>
      <trkpt lat="46.57023" lon="4.90943">
        <ele>178.40039</ele>
        <time>2026-05-13T16:58:01+02:00</time>
      </trkpt>
      <trkpt lat="46.57023" lon="4.90936">
        <ele>178.7998</ele>
        <time>2026-05-13T16:58:02+02:00</time>
      </trkpt>
      <trkpt lat="46.57023" lon="4.9093">
        <ele>179.2002</ele>
        <time>2026-05-13T16:58:03+02:00</time>
      </trkpt>
      <trkpt lat="46.57023" lon="4.90924">
        <ele>179.7002</ele>
        <time>2026-05-13T16:58:04+02:00</time>
      </trkpt>
      <trkpt lat="46.57022" lon="4.9092">
        <ele>179.7002</ele>
        <time>2026-05-13T16:58:05+02:00</time>
      </trkpt>
      <trkpt lat="46.57023" lon="4.90916">
        <ele>180.2002</ele>
        <time>2026-05-13T16:58:06+02:00</time>
      </trkpt>
      <trkpt lat="46.57025" lon="4.90912">
        <ele>179.90039</ele>
        <time>2026-05-13T16:58:07+02:00</time>
      </trkpt>
      <trkpt lat="46.57028" lon="4.90909">
        <ele>179.90039</ele>
        <time>2026-05-13T16:58:08+02:00</time>
      </trkpt>
      <trkpt lat="46.57031" lon="4.90907">
        <ele>180.10059</ele>
        <time>2026-05-13T16:58:09+02:00</time>
      </trkpt>
      <trkpt lat="46.57035" lon="4.90906">
        <ele>180.10059</ele>
        <time>2026-05-13T16:58:10+02:00</time>
      </trkpt>
      <trkpt lat="46.57039" lon="4.90906">
        <ele>179.90039</ele>
        <time>2026-05-13T16:58:11+02:00</time>
      </trkpt>
      <trkpt lat="46.57043" lon="4.90906">
        <ele>179.7002</ele>
        <time>2026-05-13T16:58:12+02:00</time>
      </trkpt>
      <trkpt lat="46.57047" lon="4.90905">
        <ele>179.7002</ele>
        <time>2026-05-13T16:58:13+02:00</time>
      </trkpt>
      <trkpt lat="46.57052" lon="4.90904">
        <ele>179.5</ele>
        <time>2026-05-13T16:58:14+02:00</time>
      </trkpt>
      <trkpt lat="46.57057" lon="4.90904">
        <ele>179.2998</ele>
        <time>2026-05-13T16:58:15+02:00</time>
      </trkpt>
      <trkpt lat="46.57061" lon="4.90904">
        <ele>179.10059</ele>
        <time>2026-05-13T16:58:16+02:00</time>
      </trkpt>
      <trkpt lat="46.57066" lon="4.90903">
        <ele>179.10059</ele>
        <time>2026-05-13T16:58:17+02:00</time>
      </trkpt>
      <trkpt lat="46.57071" lon="4.90902">
        <ele>178.7998</ele>
        <time>2026-05-13T16:58:18+02:00</time>
      </trkpt>
      <trkpt lat="46.57076" lon="4.90901">
        <ele>178.60059</ele>
        <time>2026-05-13T16:58:19+02:00</time>
      </trkpt>
      <trkpt lat="46.57081" lon="4.90901">
        <ele>178.40039</ele>
        <time>2026-05-13T16:58:20+02:00</time>
      </trkpt>
      <trkpt lat="46.57087" lon="4.90899">
        <ele>178.7002</ele>
        <time>2026-05-13T16:58:21+02:00</time>
      </trkpt>
      <trkpt lat="46.57089" lon="4.90899">
        <ele>178.7002</ele>
        <time>2026-05-13T16:58:22+02:00</time>
      </trkpt>
      <trkpt lat="46.57097" lon="4.90898">
        <ele>178.2998</ele>
        <time>2026-05-13T16:58:23+02:00</time>
      </trkpt>
      <trkpt lat="46.57102" lon="4.90896">
        <ele>178.10059</ele>
        <time>2026-05-13T16:58:24+02:00</time>
      </trkpt>
      <trkpt lat="46.57107" lon="4.90895">
        <ele>178.10059</ele>
        <time>2026-05-13T16:58:25+02:00</time>
      </trkpt>
      <trkpt lat="46.57112" lon="4.90893">
        <ele>177.90039</ele>
        <time>2026-05-13T16:58:26+02:00</time>
      </trkpt>
      <trkpt lat="46.57117" lon="4.90891">
        <ele>178.10059</ele>
        <time>2026-05-13T16:58:27+02:00</time>
      </trkpt>
      <trkpt lat="46.57122" lon="4.90888">
        <ele>177.90039</ele>
        <time>2026-05-13T16:58:28+02:00</time>
      </trkpt>
      <trkpt lat="46.57124" lon="4.90887">
        <ele>177.90039</ele>
        <time>2026-05-13T16:58:29+02:00</time>
      </trkpt>
      <trkpt lat="46.57131" lon="4.90882">
        <ele>178.2002</ele>
        <time>2026-05-13T16:58:30+02:00</time>
      </trkpt>
      <trkpt lat="46.57136" lon="4.90879">
        <ele>178</ele>
        <time>2026-05-13T16:58:31+02:00</time>
      </trkpt>
      <trkpt lat="46.5714" lon="4.90875">
        <ele>177.90039</ele>
        <time>2026-05-13T16:58:32+02:00</time>
      </trkpt>
      <trkpt lat="46.57145" lon="4.90872">
        <ele>178.2002</ele>
        <time>2026-05-13T16:58:33+02:00</time>
      </trkpt>
      <trkpt lat="46.57149" lon="4.90869">
        <ele>178.10059</ele>
        <time>2026-05-13T16:58:34+02:00</time>
      </trkpt>
      <trkpt lat="46.57153" lon="4.90866">
        <ele>178.10059</ele>
        <time>2026-05-13T16:58:35+02:00</time>
      </trkpt>
      <trkpt lat="46.57158" lon="4.90863">
        <ele>178.40039</ele>
        <time>2026-05-13T16:58:36+02:00</time>
      </trkpt>
      <trkpt lat="46.57162" lon="4.9086">
        <ele>178.2998</ele>
        <time>2026-05-13T16:58:37+02:00</time>
      </trkpt>
      <trkpt lat="46.57166" lon="4.90858">
        <ele>178.2998</ele>
        <time>2026-05-13T16:58:38+02:00</time>
      </trkpt>
      <trkpt lat="46.57171" lon="4.90855">
        <ele>178.7002</ele>
        <time>2026-05-13T16:58:39+02:00</time>
      </trkpt>
      <trkpt lat="46.57175" lon="4.90853">
        <ele>178.60059</ele>
        <time>2026-05-13T16:58:40+02:00</time>
      </trkpt>
      <trkpt lat="46.57179" lon="4.9085">
        <ele>178.60059</ele>
        <time>2026-05-13T16:58:41+02:00</time>
      </trkpt>
      <trkpt lat="46.57181" lon="4.9085">
        <ele>178.60059</ele>
        <time>2026-05-13T16:58:42+02:00</time>
      </trkpt>
      <trkpt lat="46.57186" lon="4.90851">
        <ele>178.5</ele>
        <time>2026-05-13T16:58:43+02:00</time>
      </trkpt>
      <trkpt lat="46.5719" lon="4.9085">
        <ele>178.5</ele>
        <time>2026-05-13T16:58:44+02:00</time>
      </trkpt>
      <trkpt lat="46.57195" lon="4.9085">
        <ele>178.5</ele>
        <time>2026-05-13T16:58:45+02:00</time>
      </trkpt>
      <trkpt lat="46.57197" lon="4.9085">
        <ele>178.5</ele>
        <time>2026-05-13T16:58:46+02:00</time>
      </trkpt>
      <trkpt lat="46.57202" lon="4.9085">
        <ele>178.5</ele>
        <time>2026-05-13T16:58:47+02:00</time>
      </trkpt>
      <trkpt lat="46.5721" lon="4.9085">
        <ele>178.5</ele>
        <time>2026-05-13T16:58:48+02:00</time>
      </trkpt>
      <trkpt lat="46.57214" lon="4.90851">
        <ele>178.40039</ele>
        <time>2026-05-13T16:58:49+02:00</time>
      </trkpt>
      <trkpt lat="46.5722" lon="4.90852">
        <ele>178.40039</ele>
        <time>2026-05-13T16:58:50+02:00</time>
      </trkpt>
      <trkpt lat="46.57225" lon="4.90853">
        <ele>178.40039</ele>
        <time>2026-05-13T16:58:51+02:00</time>
      </trkpt>
      <trkpt lat="46.5723" lon="4.90854">
        <ele>178.2998</ele>
        <time>2026-05-13T16:58:52+02:00</time>
      </trkpt>
      <trkpt lat="46.57235" lon="4.90855">
        <ele>178.2002</ele>
        <time>2026-05-13T16:58:53+02:00</time>
      </trkpt>
      <trkpt lat="46.5724" lon="4.90857">
        <ele>178.2002</ele>
        <time>2026-05-13T16:58:54+02:00</time>
      </trkpt>
      <trkpt lat="46.57245" lon="4.90861">
        <ele>177.7998</ele>
        <time>2026-05-13T16:58:55+02:00</time>
      </trkpt>
      <trkpt lat="46.5725" lon="4.90864">
        <ele>177.7002</ele>
        <time>2026-05-13T16:58:56+02:00</time>
      </trkpt>
      <trkpt lat="46.57255" lon="4.90868">
        <ele>177.40039</ele>
        <time>2026-05-13T16:58:57+02:00</time>
      </trkpt>
      <trkpt lat="46.5726" lon="4.90871">
        <ele>177.40039</ele>
        <time>2026-05-13T16:58:58+02:00</time>
      </trkpt>
      <trkpt lat="46.57265" lon="4.90875">
        <ele>177.10059</ele>
        <time>2026-05-13T16:58:59+02:00</time>
      </trkpt>
      <trkpt lat="46.5727" lon="4.90878">
        <ele>177.2002</ele>
        <time>2026-05-13T16:59:00+02:00</time>
      </trkpt>
      <trkpt lat="46.57275" lon="4.90881">
        <ele>177.2002</ele>
        <time>2026-05-13T16:59:01+02:00</time>
      </trkpt>
      <trkpt lat="46.57281" lon="4.90885">
        <ele>177</ele>
        <time>2026-05-13T16:59:02+02:00</time>
      </trkpt>
      <trkpt lat="46.57286" lon="4.90888">
        <ele>177</ele>
        <time>2026-05-13T16:59:03+02:00</time>
      </trkpt>
      <trkpt lat="46.57292" lon="4.90891">
        <ele>177.10059</ele>
        <time>2026-05-13T16:59:04+02:00</time>
      </trkpt>
      <trkpt lat="46.57295" lon="4.90892">
        <ele>176.7998</ele>
        <time>2026-05-13T16:59:05+02:00</time>
      </trkpt>
      <trkpt lat="46.57303" lon="4.90896">
        <ele>176.90039</ele>
        <time>2026-05-13T16:59:06+02:00</time>
      </trkpt>
      <trkpt lat="46.57309" lon="4.90899">
        <ele>176.90039</ele>
        <time>2026-05-13T16:59:07+02:00</time>
      </trkpt>
      <trkpt lat="46.57315" lon="4.90901">
        <ele>176.7002</ele>
        <time>2026-05-13T16:59:08+02:00</time>
      </trkpt>
      <trkpt lat="46.57321" lon="4.90903">
        <ele>176.90039</ele>
        <time>2026-05-13T16:59:09+02:00</time>
      </trkpt>
      <trkpt lat="46.57326" lon="4.90905">
        <ele>177</ele>
        <time>2026-05-13T16:59:10+02:00</time>
      </trkpt>
      <trkpt lat="46.57332" lon="4.90908">
        <ele>177.2002</ele>
        <time>2026-05-13T16:59:11+02:00</time>
      </trkpt>
      <trkpt lat="46.57338" lon="4.9091">
        <ele>177.10059</ele>
        <time>2026-05-13T16:59:12+02:00</time>
      </trkpt>
      <trkpt lat="46.57344" lon="4.90912">
        <ele>177.40039</ele>
        <time>2026-05-13T16:59:13+02:00</time>
      </trkpt>
      <trkpt lat="46.5735" lon="4.90915">
        <ele>177.60059</ele>
        <time>2026-05-13T16:59:14+02:00</time>
      </trkpt>
      <trkpt lat="46.57356" lon="4.90917">
        <ele>177.7002</ele>
        <time>2026-05-13T16:59:15+02:00</time>
      </trkpt>
      <trkpt lat="46.57362" lon="4.90919">
        <ele>177.5</ele>
        <time>2026-05-13T16:59:16+02:00</time>
      </trkpt>
      <trkpt lat="46.57366" lon="4.90921">
        <ele>177.5</ele>
        <time>2026-05-13T16:59:17+02:00</time>
      </trkpt>
      <trkpt lat="46.57369" lon="4.90924">
        <ele>177.60059</ele>
        <time>2026-05-13T16:59:18+02:00</time>
      </trkpt>
      <trkpt lat="46.5737" lon="4.90925">
        <ele>177.60059</ele>
        <time>2026-05-13T16:59:19+02:00</time>
      </trkpt>
      <trkpt lat="46.57373" lon="4.90929">
        <ele>177.2002</ele>
        <time>2026-05-13T16:59:20+02:00</time>
      </trkpt>
      <trkpt lat="46.57374" lon="4.90931">
        <ele>177.2002</ele>
        <time>2026-05-13T16:59:21+02:00</time>
      </trkpt>
      <trkpt lat="46.57374" lon="4.90932">
        <ele>177.2002</ele>
        <time>2026-05-13T16:59:22+02:00</time>
      </trkpt>
      <trkpt lat="46.57375" lon="4.90931">
        <ele>177.2002</ele>
        <time>2026-05-13T16:59:23+02:00</time>
      </trkpt>
      <trkpt lat="46.57375" lon="4.90931">
        <ele>177.2002</ele>
        <time>2026-05-13T16:59:24+02:00</time>
      </trkpt>
      <trkpt lat="46.57375" lon="4.90931">
        <ele>177.2002</ele>
        <time>2026-05-13T16:59:25+02:00</time>
      </trkpt>
      <trkpt lat="46.57375" lon="4.90931">
        <ele>177.2002</ele>
        <time>2026-05-13T16:59:26+02:00</time>
      </trkpt>
      <trkpt lat="46.57367" lon="4.90948">
        <ele>176.40039</ele>
        <time>2026-05-13T16:59:52+02:00</time>
      </trkpt>
      <trkpt lat="46.57367" lon="4.90951">
        <ele>176.40039</ele>
        <time>2026-05-13T16:59:53+02:00</time>
      </trkpt>
      <trkpt lat="46.57366" lon="4.90954">
        <ele>176.10059</ele>
        <time>2026-05-13T16:59:54+02:00</time>
      </trkpt>
      <trkpt lat="46.57365" lon="4.90958">
        <ele>176.10059</ele>
        <time>2026-05-13T16:59:55+02:00</time>
      </trkpt>
      <trkpt lat="46.57364" lon="4.9096">
        <ele>176.10059</ele>
        <time>2026-05-13T16:59:56+02:00</time>
      </trkpt>
      <trkpt lat="46.57363" lon="4.90963">
        <ele>175.90039</ele>
        <time>2026-05-13T16:59:57+02:00</time>
      </trkpt>
      <trkpt lat="46.57362" lon="4.90966">
        <ele>175.90039</ele>
        <time>2026-05-13T16:59:58+02:00</time>
      </trkpt>
      <trkpt lat="46.57361" lon="4.90969">
        <ele>175.7998</ele>
        <time>2026-05-13T16:59:59+02:00</time>
      </trkpt>
      <trkpt lat="46.57359" lon="4.90972">
        <ele>175.7998</ele>
        <time>2026-05-13T17:00:00+02:00</time>
      </trkpt>
      <trkpt lat="46.57359" lon="4.90975">
        <ele>175.7998</ele>
        <time>2026-05-13T17:00:01+02:00</time>
      </trkpt>
      <trkpt lat="46.57359" lon="4.90979">
        <ele>175.7002</ele>
        <time>2026-05-13T17:00:02+02:00</time>
      </trkpt>
      <trkpt lat="46.5736" lon="4.90982">
        <ele>175.7002</ele>
        <time>2026-05-13T17:00:03+02:00</time>
      </trkpt>
      <trkpt lat="46.57361" lon="4.90986">
        <ele>175.60059</ele>
        <time>2026-05-13T17:00:04+02:00</time>
      </trkpt>
      <trkpt lat="46.57361" lon="4.90989">
        <ele>175.60059</ele>
        <time>2026-05-13T17:00:05+02:00</time>
      </trkpt>
      <trkpt lat="46.57362" lon="4.90993">
        <ele>175.5</ele>
        <time>2026-05-13T17:00:06+02:00</time>
      </trkpt>
      <trkpt lat="46.57362" lon="4.90997">
        <ele>175.40039</ele>
        <time>2026-05-13T17:00:07+02:00</time>
      </trkpt>
      <trkpt lat="46.57362" lon="4.91001">
        <ele>175.40039</ele>
        <time>2026-05-13T17:00:08+02:00</time>
      </trkpt>
      <trkpt lat="46.57362" lon="4.91005">
        <ele>175.2998</ele>
        <time>2026-05-13T17:00:09+02:00</time>
      </trkpt>
      <trkpt lat="46.57362" lon="4.91009">
        <ele>175.2998</ele>
        <time>2026-05-13T17:00:10+02:00</time>
      </trkpt>
      <trkpt lat="46.57362" lon="4.91012">
        <ele>175.2002</ele>
        <time>2026-05-13T17:00:11+02:00</time>
      </trkpt>
      <trkpt lat="46.57363" lon="4.91019">
        <ele>175.2002</ele>
        <time>2026-05-13T17:00:12+02:00</time>
      </trkpt>
      <trkpt lat="46.57363" lon="4.91024">
        <ele>175.2002</ele>
        <time>2026-05-13T17:00:13+02:00</time>
      </trkpt>
      <trkpt lat="46.57363" lon="4.91026">
        <ele>175.2002</ele>
        <time>2026-05-13T17:00:14+02:00</time>
      </trkpt>
      <trkpt lat="46.57364" lon="4.91031">
        <ele>175.2002</ele>
        <time>2026-05-13T17:00:15+02:00</time>
      </trkpt>
      <trkpt lat="46.57364" lon="4.91035">
        <ele>175.2002</ele>
        <time>2026-05-13T17:00:16+02:00</time>
      </trkpt>
      <trkpt lat="46.57363" lon="4.91038">
        <ele>175.2002</ele>
        <time>2026-05-13T17:00:17+02:00</time>
      </trkpt>
      <trkpt lat="46.57362" lon="4.91039">
        <ele>175.2002</ele>
        <time>2026-05-13T17:00:18+02:00</time>
      </trkpt>
    </trkseg>
  </trk>
</gpx>